<?xml version='1.0' encoding='UTF-8'?><gpx version="1.1" creator="JPX - https://github.com/jenetics/jpx" xmlns="http://www.topografix.com/GPX/1/1"><trk><trkseg><trkpt lat="44.53950810412247" lon="8.931482843653692"><ele>239.0</ele><time>2026-05-01T14:16:15Z</time></trkpt><trkpt lat="44.53941673102656" lon="8.931403686602799"><ele>239.0</ele><time>2026-05-01T14:16:16Z</time></trkpt><trkpt lat="44.53933540121123" lon="8.931239862126647"><ele>239.0</ele><time>2026-05-01T14:16:17Z</time></trkpt><trkpt lat="44.53922717542905" lon="8.931022277778649"><ele>239.0</ele><time>2026-05-01T14:16:18Z</time></trkpt><trkpt lat="44.53911364811972" lon="8.930808474389114"><ele>236.66666666666669</ele><time>2026-05-01T14:16:19Z</time></trkpt><trkpt lat="44.53901683212695" lon="8.930617560193477"><ele>234.33333333333331</ele><time>2026-05-01T14:16:20Z</time></trkpt><trkpt lat="44.53892685802415" lon="8.930436139071627"><ele>232.0</ele><time>2026-05-01T14:16:21Z</time></trkpt><trkpt lat="44.538845060243865" lon="8.930272435719436"><ele>232.0</ele><time>2026-05-01T14:16:22Z</time></trkpt><trkpt lat="44.538764062369495" lon="8.930113383772614"><ele>232.0</ele><time>2026-05-01T14:16:23Z</time></trkpt><trkpt lat="44.538689307856636" lon="8.929941379518322"><ele>232.0</ele><time>2026-05-01T14:16:24Z</time></trkpt><trkpt lat="44.538619668150844" lon="8.929747088149716"><ele>232.0</ele><time>2026-05-01T14:16:25Z</time></trkpt><trkpt lat="44.538550595642114" lon="8.929523319345098"><ele>232.0</ele><time>2026-05-01T14:16:26Z</time></trkpt><trkpt lat="44.538484723089255" lon="8.929256079756756"><ele>232.0</ele><time>2026-05-01T14:16:27Z</time></trkpt><trkpt lat="44.538412909378636" lon="8.928962524661817"><ele>232.0</ele><time>2026-05-01T14:16:28Z</time></trkpt><trkpt lat="44.53834480561978" lon="8.928657391008818"><ele>230.66666666666666</ele><time>2026-05-01T14:16:29Z</time></trkpt><trkpt lat="44.5382948410645" lon="8.928380650034923"><ele>229.33333333333331</ele><time>2026-05-01T14:16:30Z</time></trkpt><trkpt lat="44.5382415935023" lon="8.928136847047051"><ele>228.0</ele><time>2026-05-01T14:16:31Z</time></trkpt><trkpt lat="44.538190456701265" lon="8.92790236786108"><ele>228.0</ele><time>2026-05-01T14:16:32Z</time></trkpt><trkpt lat="44.538138514460286" lon="8.927703307702574"><ele>228.0</ele><time>2026-05-01T14:16:33Z</time></trkpt><trkpt lat="44.53808993417572" lon="8.927522299618493"><ele>228.0</ele><time>2026-05-01T14:16:34Z</time></trkpt><trkpt lat="44.538042285560735" lon="8.927357676158593"><ele>228.0</ele><time>2026-05-01T14:16:35Z</time></trkpt><trkpt lat="44.538004900709936" lon="8.92720424935655"><ele>227.5</ele><time>2026-05-01T14:16:36Z</time></trkpt><trkpt lat="44.53800211406286" lon="8.927044119407322"><ele>227.0</ele><time>2026-05-01T14:16:37Z</time></trkpt><trkpt lat="44.538034438373664" lon="8.926876396215139"><ele>226.5</ele><time>2026-05-01T14:16:38Z</time></trkpt><trkpt lat="44.53807637643867" lon="8.926722702586174"><ele>226.0</ele><time>2026-05-01T14:16:39Z</time></trkpt><trkpt lat="44.53806066855992" lon="8.926554992191981"><ele>226.0</ele><time>2026-05-01T14:16:40Z</time></trkpt><trkpt lat="44.5379836639429" lon="8.926383407223563"><ele>226.0</ele><time>2026-05-01T14:16:41Z</time></trkpt><trkpt lat="44.53789699674332" lon="8.926229116369498"><ele>226.0</ele><time>2026-05-01T14:16:42Z</time></trkpt><trkpt lat="44.53783577612099" lon="8.926070959118"><ele>226.0</ele><time>2026-05-01T14:16:43Z</time></trkpt><trkpt lat="44.537809543715426" lon="8.92589869282981"><ele>224.0</ele><time>2026-05-01T14:16:44Z</time></trkpt><trkpt lat="44.537785616276445" lon="8.92573489238964"><ele>222.00000000000003</ele><time>2026-05-01T14:16:45Z</time></trkpt><trkpt lat="44.537799725375415" lon="8.92559377195793"><ele>220.00000000000003</ele><time>2026-05-01T14:16:46Z</time></trkpt><trkpt lat="44.53783933807825" lon="8.925454553238533"><ele>218.0</ele><time>2026-05-01T14:16:47Z</time></trkpt><trkpt lat="44.53784928081637" lon="8.925300554870281"><ele>216.0</ele><time>2026-05-01T14:16:48Z</time></trkpt><trkpt lat="44.53788099001889" lon="8.925167058305362"><ele>216.0</ele><time>2026-05-01T14:16:49Z</time></trkpt><trkpt lat="44.53766079719557" lon="8.924979627495045"><ele>216.0</ele><time>2026-05-01T14:16:50Z</time></trkpt><trkpt lat="44.53758402751455" lon="8.924830121180236"><ele>216.0</ele><time>2026-05-01T14:16:51Z</time></trkpt><trkpt lat="44.537515807749564" lon="8.924712320852043"><ele>216.0</ele><time>2026-05-01T14:16:52Z</time></trkpt><trkpt lat="44.53745165461745" lon="8.924609531870143"><ele>216.00000000000003</ele><time>2026-05-01T14:16:53Z</time></trkpt><trkpt lat="44.537381433948916" lon="8.92453297789693"><ele>216.00000000000003</ele><time>2026-05-01T14:16:54Z</time></trkpt><trkpt lat="44.5372702151148" lon="8.924509861954656"><ele>216.0</ele><time>2026-05-01T14:16:55Z</time></trkpt><trkpt lat="44.5371380140998" lon="8.924508996740173"><ele>216.0</ele><time>2026-05-01T14:16:56Z</time></trkpt><trkpt lat="44.53701456498582" lon="8.924482461470724"><ele>213.66666666666669</ele><time>2026-05-01T14:16:57Z</time></trkpt><trkpt lat="44.53683012700053" lon="8.92458684690544"><ele>211.33333333333334</ele><time>2026-05-01T14:16:58Z</time></trkpt><trkpt lat="44.53669363023184" lon="8.924637015814096"><ele>209.0</ele><time>2026-05-01T14:16:59Z</time></trkpt><trkpt lat="44.536569402719024" lon="8.924674170312993"><ele>209.0</ele><time>2026-05-01T14:17:00Z</time></trkpt><trkpt lat="44.536467610771275" lon="8.924673936669839"><ele>209.0</ele><time>2026-05-01T14:17:01Z</time></trkpt><trkpt lat="44.53636234295975" lon="8.924618788779465"><ele>209.0</ele><time>2026-05-01T14:17:02Z</time></trkpt><trkpt lat="44.53625042134444" lon="8.924478096624632"><ele>209.0</ele><time>2026-05-01T14:17:03Z</time></trkpt><trkpt lat="44.536123768624364" lon="8.924260474002546"><ele>208.33333333333334</ele><time>2026-05-01T14:17:04Z</time></trkpt><trkpt lat="44.536025773244724" lon="8.923989950205948"><ele>207.66666666666669</ele><time>2026-05-01T14:17:05Z</time></trkpt><trkpt lat="44.53593954505406" lon="8.923830228618614"><ele>207.0</ele><time>2026-05-01T14:17:06Z</time></trkpt><trkpt lat="44.535858175187" lon="8.923704366269058"><ele>207.0</ele><time>2026-05-01T14:17:07Z</time></trkpt><trkpt lat="44.535770324218866" lon="8.923634606911133"><ele>207.0</ele><time>2026-05-01T14:17:08Z</time></trkpt><trkpt lat="44.53560579037219" lon="8.923725893383969"><ele>207.0</ele><time>2026-05-01T14:17:09Z</time></trkpt><trkpt lat="44.535471404168916" lon="8.923777379418965"><ele>207.0</ele><time>2026-05-01T14:17:10Z</time></trkpt><trkpt lat="44.53535856420426" lon="8.92380611889705"><ele>206.5</ele><time>2026-05-01T14:17:11Z</time></trkpt><trkpt lat="44.535233432364045" lon="8.923788261655474"><ele>206.0</ele><time>2026-05-01T14:17:12Z</time></trkpt><trkpt lat="44.53508531498021" lon="8.923732076286143"><ele>205.5</ele><time>2026-05-01T14:17:13Z</time></trkpt><trkpt lat="44.534957213172966" lon="8.923589913897846"><ele>205.0</ele><time>2026-05-01T14:17:14Z</time></trkpt><trkpt lat="44.53483508246042" lon="8.92346604675999"><ele>205.0</ele><time>2026-05-01T14:17:15Z</time></trkpt><trkpt lat="44.534654925097904" lon="8.923342890218889"><ele>205.0</ele><time>2026-05-01T14:17:16Z</time></trkpt><trkpt lat="44.534420120578524" lon="8.923216765693802"><ele>204.33333333333331</ele><time>2026-05-01T14:17:17Z</time></trkpt><trkpt lat="44.53421009695314" lon="8.923107132852987"><ele>203.66666666666669</ele><time>2026-05-01T14:17:18Z</time></trkpt><trkpt lat="44.53403832172148" lon="8.923003176397994"><ele>203.0</ele><time>2026-05-01T14:17:19Z</time></trkpt><trkpt lat="44.53388122153919" lon="8.92289591200671"><ele>203.0</ele><time>2026-05-01T14:17:20Z</time></trkpt><trkpt lat="44.53372403150684" lon="8.922742060755914"><ele>203.0</ele><time>2026-05-01T14:17:21Z</time></trkpt><trkpt lat="44.53357426424638" lon="8.922533822677288"><ele>203.0</ele><time>2026-05-01T14:17:22Z</time></trkpt><trkpt lat="44.533411429576184" lon="8.922280994652963"><ele>202.0</ele><time>2026-05-01T14:17:23Z</time></trkpt><trkpt lat="44.53324461754116" lon="8.922017763487073"><ele>201.0</ele><time>2026-05-01T14:17:24Z</time></trkpt><trkpt lat="44.53307751812467" lon="8.921790408849729"><ele>199.0</ele><time>2026-05-01T14:17:25Z</time></trkpt><trkpt lat="44.53292554314836" lon="8.921585007601847"><ele>197.0</ele><time>2026-05-01T14:17:26Z</time></trkpt><trkpt lat="44.53278276639664" lon="8.92139558107776"><ele>195.0</ele><time>2026-05-01T14:17:27Z</time></trkpt><trkpt lat="44.53264704866426" lon="8.921211341501033"><ele>195.0</ele><time>2026-05-01T14:17:28Z</time></trkpt><trkpt lat="44.53252737905837" lon="8.921058216005116"><ele>195.0</ele><time>2026-05-01T14:17:29Z</time></trkpt><trkpt lat="44.53240388126222" lon="8.92092668546032"><ele>195.0</ele><time>2026-05-01T14:17:30Z</time></trkpt><trkpt lat="44.53227902208034" lon="8.920821204907075"><ele>195.0</ele><time>2026-05-01T14:17:31Z</time></trkpt><trkpt lat="44.532158450236" lon="8.920727334883772"><ele>195.0</ele><time>2026-05-01T14:17:32Z</time></trkpt><trkpt lat="44.53205724392342" lon="8.920623337550538"><ele>195.0</ele><time>2026-05-01T14:17:33Z</time></trkpt><trkpt lat="44.53197975325874" lon="8.920515676110385"><ele>195.0</ele><time>2026-05-01T14:17:34Z</time></trkpt><trkpt lat="44.53191165008865" lon="8.920414195200001"><ele>195.0</ele><time>2026-05-01T14:17:35Z</time></trkpt><trkpt lat="44.531859624186595" lon="8.920321644580177"><ele>195.0</ele><time>2026-05-01T14:17:36Z</time></trkpt><trkpt lat="44.53181418277754" lon="8.920224366040188"><ele>195.0</ele><time>2026-05-01T14:17:37Z</time></trkpt><trkpt lat="44.53180648020133" lon="8.92009390167927"><ele>195.0</ele><time>2026-05-01T14:17:38Z</time></trkpt><trkpt lat="44.5318224263142" lon="8.919944135468382"><ele>195.0</ele><time>2026-05-01T14:17:38.999Z</time></trkpt><trkpt lat="44.53183909514544" lon="8.919801199700098"><ele>193.2</ele><time>2026-05-01T14:17:39.999Z</time></trkpt><trkpt lat="44.531832076448495" lon="8.919657899116908"><ele>191.4</ele><time>2026-05-01T14:17:40.999Z</time></trkpt><trkpt lat="44.531809508444425" lon="8.919547641130036"><ele>189.60000000000002</ele><time>2026-05-01T14:17:41.999Z</time></trkpt><trkpt lat="44.53177154712766" lon="8.919439407585093"><ele>187.8</ele><time>2026-05-01T14:17:42.999Z</time></trkpt><trkpt lat="44.53171436950991" lon="8.919330816123779"><ele>186.0</ele><time>2026-05-01T14:17:43.999Z</time></trkpt><trkpt lat="44.53163992710019" lon="8.919241404956745"><ele>187.0</ele><time>2026-05-01T14:17:44.999Z</time></trkpt><trkpt lat="44.531558225789084" lon="8.91915585517568"><ele>188.0</ele><time>2026-05-01T14:17:45.999Z</time></trkpt><trkpt lat="44.53148628816409" lon="8.91908324205296"><ele>189.0</ele><time>2026-05-01T14:17:46.999Z</time></trkpt><trkpt lat="44.531425060537956" lon="8.91901297953482"><ele>190.0</ele><time>2026-05-01T14:17:47.999Z</time></trkpt><trkpt lat="44.53135739385246" lon="8.918946393492577"><ele>191.0</ele><time>2026-05-01T14:17:48.999Z</time></trkpt><trkpt lat="44.53130375841433" lon="8.918833936092156"><ele>192.0</ele><time>2026-05-01T14:17:49.999Z</time></trkpt><trkpt lat="44.53126228392197" lon="8.91869667663997"><ele>192.0</ele><time>2026-05-01T14:17:50.999Z</time></trkpt><trkpt lat="44.53123556311777" lon="8.918551291894804"><ele>192.0</ele><time>2026-05-01T14:17:51.999Z</time></trkpt><trkpt lat="44.53120970791499" lon="8.91841134842183"><ele>192.0</ele><time>2026-05-01T14:17:52.999Z</time></trkpt><trkpt lat="44.531184756528525" lon="8.918276929571919"><ele>192.0</ele><time>2026-05-01T14:17:53.999Z</time></trkpt><trkpt lat="44.53115714791939" lon="8.918152077476725"><ele>192.0</ele><time>2026-05-01T14:17:54.999Z</time></trkpt><trkpt lat="44.53112222773856" lon="8.918033221282242"><ele>189.2</ele><time>2026-05-01T14:17:55.999Z</time></trkpt><trkpt lat="44.53106768228467" lon="8.917922459904231"><ele>186.39999999999998</ele><time>2026-05-01T14:17:56.999Z</time></trkpt><trkpt lat="44.53100916767476" lon="8.917823993156683"><ele>183.60000000000002</ele><time>2026-05-01T14:17:57.999Z</time></trkpt><trkpt lat="44.530936492542445" lon="8.917736778273262"><ele>180.8</ele><time>2026-05-01T14:17:58.999Z</time></trkpt><trkpt lat="44.53084988345335" lon="8.917655753549615"><ele>178.0</ele><time>2026-05-01T14:17:59.999Z</time></trkpt><trkpt lat="44.530756056088094" lon="8.917572314893293"><ele>178.0</ele><time>2026-05-01T14:18:00.999Z</time></trkpt><trkpt lat="44.530661732361004" lon="8.917481104277321"><ele>178.0</ele><time>2026-05-01T14:18:01.999Z</time></trkpt><trkpt lat="44.53056671156738" lon="8.917377910009678"><ele>178.0</ele><time>2026-05-01T14:18:02.999Z</time></trkpt><trkpt lat="44.53048170067975" lon="8.917291983252388"><ele>178.0</ele><time>2026-05-01T14:18:03.999Z</time></trkpt><trkpt lat="44.53038690582594" lon="8.917204161394377"><ele>178.0</ele><time>2026-05-01T14:18:04.999Z</time></trkpt><trkpt lat="44.530289862475016" lon="8.917109465754555"><ele>178.0</ele><time>2026-05-01T14:18:05.999Z</time></trkpt><trkpt lat="44.53019315547852" lon="8.917010161554968"><ele>178.0</ele><time>2026-05-01T14:18:06.999Z</time></trkpt><trkpt lat="44.53009402000229" lon="8.916904259893204"><ele>178.0</ele><time>2026-05-01T14:18:07.999Z</time></trkpt><trkpt lat="44.53000009445835" lon="8.916788958790827"><ele>178.4</ele><time>2026-05-01T14:18:08.999Z</time></trkpt><trkpt lat="44.52991408945105" lon="8.91666800680486"><ele>178.8</ele><time>2026-05-01T14:18:09.999Z</time></trkpt><trkpt lat="44.529836921076175" lon="8.916554209022626"><ele>179.2</ele><time>2026-05-01T14:18:10.999Z</time></trkpt><trkpt lat="44.5297665439359" lon="8.916441895962661"><ele>179.6</ele><time>2026-05-01T14:18:11.999Z</time></trkpt><trkpt lat="44.52969725130563" lon="8.916332576877549"><ele>180.0</ele><time>2026-05-01T14:18:12.999Z</time></trkpt><trkpt lat="44.52962864164542" lon="8.916221102259001"><ele>180.0</ele><time>2026-05-01T14:18:13.999Z</time></trkpt><trkpt lat="44.52956111704899" lon="8.916108642925563"><ele>180.0</ele><time>2026-05-01T14:18:14.999Z</time></trkpt><trkpt lat="44.529498682868926" lon="8.915993146123732"><ele>180.0</ele><time>2026-05-01T14:18:15.999Z</time></trkpt><trkpt lat="44.52944262993237" lon="8.915877980810178"><ele>180.0</ele><time>2026-05-01T14:18:16.999Z</time></trkpt><trkpt lat="44.529391565767725" lon="8.915769635611053"><ele>180.0</ele><time>2026-05-01T14:18:17.999Z</time></trkpt><trkpt lat="44.52933924794547" lon="8.915668692060011"><ele>177.8</ele><time>2026-05-01T14:18:19Z</time></trkpt><trkpt lat="44.529271646629304" lon="8.915571164036994"><ele>175.6</ele><time>2026-05-01T14:18:20Z</time></trkpt><trkpt lat="44.529189734634855" lon="8.915498439767259"><ele>173.39999999999998</ele><time>2026-05-01T14:18:21Z</time></trkpt><trkpt lat="44.529111837735314" lon="8.915447172217421"><ele>171.2</ele><time>2026-05-01T14:18:22Z</time></trkpt><trkpt lat="44.529020796930745" lon="8.91542686666581"><ele>169.0</ele><time>2026-05-01T14:18:23Z</time></trkpt><trkpt lat="44.52892510918771" lon="8.915411070548084"><ele>169.0</ele><time>2026-05-01T14:18:24Z</time></trkpt><trkpt lat="44.52882838559135" lon="8.915434945191402"><ele>169.0</ele><time>2026-05-01T14:18:25Z</time></trkpt><trkpt lat="44.5287306318463" lon="8.915480269016278"><ele>169.0</ele><time>2026-05-01T14:18:26Z</time></trkpt><trkpt lat="44.528644798756076" lon="8.915528134402836"><ele>169.0</ele><time>2026-05-01T14:18:27Z</time></trkpt><trkpt lat="44.52857631096861" lon="8.915594798102944"><ele>169.0</ele><time>2026-05-01T14:18:28Z</time></trkpt><trkpt lat="44.52849896722567" lon="8.915638555925812"><ele>168.6</ele><time>2026-05-01T14:18:29Z</time></trkpt><trkpt lat="44.52841686283114" lon="8.91567445171356"><ele>168.2</ele><time>2026-05-01T14:18:30Z</time></trkpt><trkpt lat="44.52832682112253" lon="8.915692328852579"><ele>167.79999999999998</ele><time>2026-05-01T14:18:31Z</time></trkpt><trkpt lat="44.52822305934908" lon="8.915684786223373"><ele>167.39999999999998</ele><time>2026-05-01T14:18:32Z</time></trkpt><trkpt lat="44.52811393165625" lon="8.915656416883373"><ele>167.0</ele><time>2026-05-01T14:18:33Z</time></trkpt><trkpt lat="44.52800722273774" lon="8.915612738802622"><ele>167.0</ele><time>2026-05-01T14:18:34Z</time></trkpt><trkpt lat="44.52790313934538" lon="8.915551184276666"><ele>167.0</ele><time>2026-05-01T14:18:35Z</time></trkpt><trkpt lat="44.527813585649255" lon="8.915476869887355"><ele>167.0</ele><time>2026-05-01T14:18:36Z</time></trkpt><trkpt lat="44.527732510239225" lon="8.915379613914807"><ele>167.0</ele><time>2026-05-01T14:18:37Z</time></trkpt><trkpt lat="44.52764771456731" lon="8.91528041724009"><ele>167.0</ele><time>2026-05-01T14:18:38Z</time></trkpt><trkpt lat="44.527567475359625" lon="8.915162453173876"><ele>166.75</ele><time>2026-05-01T14:18:39Z</time></trkpt><trkpt lat="44.52747766347168" lon="8.915049407500945"><ele>166.5</ele><time>2026-05-01T14:18:40Z</time></trkpt><trkpt lat="44.52738019126542" lon="8.914921714697476"><ele>166.25</ele><time>2026-05-01T14:18:41Z</time></trkpt><trkpt lat="44.52727630186404" lon="8.91478446385658"><ele>166.0</ele><time>2026-05-01T14:18:42Z</time></trkpt><trkpt lat="44.52716867806579" lon="8.914641195734655"><ele>165.5</ele><time>2026-05-01T14:18:43Z</time></trkpt><trkpt lat="44.52705970135544" lon="8.914493929020978"><ele>165.0</ele><time>2026-05-01T14:18:44Z</time></trkpt><trkpt lat="44.52695203945687" lon="8.914352511302061"><ele>164.5</ele><time>2026-05-01T14:18:45Z</time></trkpt><trkpt lat="44.52685636418333" lon="8.914223048916295"><ele>164.0</ele><time>2026-05-01T14:18:46Z</time></trkpt><trkpt lat="44.52676611083185" lon="8.914102547561852"><ele>164.0</ele><time>2026-05-01T14:18:47Z</time></trkpt><trkpt lat="44.52668300805204" lon="8.913992811325999"><ele>164.0</ele><time>2026-05-01T14:18:48Z</time></trkpt><trkpt lat="44.52659734104841" lon="8.913896236091992"><ele>164.0</ele><time>2026-05-01T14:18:49Z</time></trkpt><trkpt lat="44.52651549016157" lon="8.913833046479226"><ele>164.0</ele><time>2026-05-01T14:18:50Z</time></trkpt><trkpt lat="44.52641870625394" lon="8.913789868805441"><ele>164.0</ele><time>2026-05-01T14:18:51Z</time></trkpt><trkpt lat="44.52630619666747" lon="8.91376814041268"><ele>163.5</ele><time>2026-05-01T14:18:52Z</time></trkpt><trkpt lat="44.52618450778724" lon="8.913755766089345"><ele>163.0</ele><time>2026-05-01T14:18:53Z</time></trkpt><trkpt lat="44.52606348990062" lon="8.913736880284567"><ele>162.5</ele><time>2026-05-01T14:18:54Z</time></trkpt><trkpt lat="44.52594728844544" lon="8.91369601634866"><ele>162.0</ele><time>2026-05-01T14:18:55Z</time></trkpt><trkpt lat="44.525839996624" lon="8.913646507263069"><ele>162.0</ele><time>2026-05-01T14:18:56Z</time></trkpt><trkpt lat="44.52574041208236" lon="8.913600877336643"><ele>162.0</ele><time>2026-05-01T14:18:57Z</time></trkpt><trkpt lat="44.52565276546312" lon="8.913565333622008"><ele>162.0</ele><time>2026-05-01T14:18:58Z</time></trkpt><trkpt lat="44.52556306173536" lon="8.913555966586323"><ele>162.0</ele><time>2026-05-01T14:18:59Z</time></trkpt><trkpt lat="44.525466429703414" lon="8.913576674142323"><ele>162.0</ele><time>2026-05-01T14:19:00Z</time></trkpt><trkpt lat="44.52535153682444" lon="8.913616261176204"><ele>161.6</ele><time>2026-05-01T14:19:01Z</time></trkpt><trkpt lat="44.52524060264509" lon="8.913662356353798"><ele>161.2</ele><time>2026-05-01T14:19:02Z</time></trkpt><trkpt lat="44.52513388355585" lon="8.913733037184654"><ele>160.8</ele><time>2026-05-01T14:19:02.999Z</time></trkpt><trkpt lat="44.52504655091852" lon="8.91376464326072"><ele>160.4</ele><time>2026-05-01T14:19:03.999Z</time></trkpt><trkpt lat="44.524962865290384" lon="8.913812676220914"><ele>160.0</ele><time>2026-05-01T14:19:04.999Z</time></trkpt><trkpt lat="44.5248863314857" lon="8.913840798210915"><ele>160.0</ele><time>2026-05-01T14:19:05.999Z</time></trkpt><trkpt lat="44.5248074222349" lon="8.91388166152811"><ele>160.0</ele><time>2026-05-01T14:19:06.999Z</time></trkpt><trkpt lat="44.52471127259852" lon="8.913890261725145"><ele>160.0</ele><time>2026-05-01T14:19:07.999Z</time></trkpt><trkpt lat="44.524621356487835" lon="8.913877265106013"><ele>160.0</ele><time>2026-05-01T14:19:08.999Z</time></trkpt><trkpt lat="44.524530381366915" lon="8.913849786881686"><ele>160.0</ele><time>2026-05-01T14:19:09.999Z</time></trkpt><trkpt lat="44.52443772359644" lon="8.913809323434071"><ele>160.5</ele><time>2026-05-01T14:19:10.999Z</time></trkpt><trkpt lat="44.52435283813478" lon="8.913734267895471"><ele>161.0</ele><time>2026-05-01T14:19:11.999Z</time></trkpt><trkpt lat="44.52425041890539" lon="8.913677496312824"><ele>161.5</ele><time>2026-05-01T14:19:12.999Z</time></trkpt><trkpt lat="44.52413793572683" lon="8.91363227090715"><ele>162.0</ele><time>2026-05-01T14:19:13.999Z</time></trkpt><trkpt lat="44.524018323410566" lon="8.913594183437306"><ele>162.0</ele><time>2026-05-01T14:19:14.999Z</time></trkpt><trkpt lat="44.52388925420667" lon="8.913559451330196"><ele>162.0</ele><time>2026-05-01T14:19:15.999Z</time></trkpt><trkpt lat="44.523761235183464" lon="8.913523780569507"><ele>162.0</ele><time>2026-05-01T14:19:16.999Z</time></trkpt><trkpt lat="44.52364938857332" lon="8.913496960795186"><ele>162.0</ele><time>2026-05-01T14:19:17.999Z</time></trkpt><trkpt lat="44.52354324579246" lon="8.91346937418653"><ele>160.25</ele><time>2026-05-01T14:19:18.999Z</time></trkpt><trkpt lat="44.523431629382685" lon="8.913432005918066"><ele>158.5</ele><time>2026-05-01T14:19:19.999Z</time></trkpt><trkpt lat="44.52331419213773" lon="8.913396335409255"><ele>156.75</ele><time>2026-05-01T14:19:20.999Z</time></trkpt><trkpt lat="44.52318433096071" lon="8.913361146517046"><ele>155.0</ele><time>2026-05-01T14:19:21.999Z</time></trkpt><trkpt lat="44.523051243706156" lon="8.913334680161901"><ele>155.0</ele><time>2026-05-01T14:19:22.999Z</time></trkpt><trkpt lat="44.52293513105723" lon="8.913303490554377"><ele>155.0</ele><time>2026-05-01T14:19:23.999Z</time></trkpt><trkpt lat="44.52282406398371" lon="8.913272789710202"><ele>155.0</ele><time>2026-05-01T14:19:24.999Z</time></trkpt><trkpt lat="44.522712973891615" lon="8.913248624658285"><ele>155.0</ele><time>2026-05-01T14:19:25.999Z</time></trkpt><trkpt lat="44.52259398232895" lon="8.913259937560271"><ele>155.25</ele><time>2026-05-01T14:19:26.999Z</time></trkpt><trkpt lat="44.52246875244778" lon="8.913309880633417"><ele>155.5</ele><time>2026-05-01T14:19:27.999Z</time></trkpt><trkpt lat="44.52235282082787" lon="8.913390331805717"><ele>155.75</ele><time>2026-05-01T14:19:28.999Z</time></trkpt><trkpt lat="44.52225035479354" lon="8.913500912707283"><ele>156.0</ele><time>2026-05-01T14:19:29.999Z</time></trkpt><trkpt lat="44.522167913406285" lon="8.913641936701014"><ele>156.5</ele><time>2026-05-01T14:19:30.999Z</time></trkpt><trkpt lat="44.5220958351232" lon="8.91377930135011"><ele>157.0</ele><time>2026-05-01T14:19:31.999Z</time></trkpt><trkpt lat="44.52203246793859" lon="8.913918402669053"><ele>157.5</ele><time>2026-05-01T14:19:32.999Z</time></trkpt><trkpt lat="44.52198309870855" lon="8.914053250281574"><ele>158.0</ele><time>2026-05-01T14:19:33.999Z</time></trkpt><trkpt lat="44.521948523798876" lon="8.914196071917784"><ele>157.4</ele><time>2026-05-01T14:19:34.999Z</time></trkpt><trkpt lat="44.52191421909156" lon="8.91433904970288"><ele>156.8</ele><time>2026-05-01T14:19:35.999Z</time></trkpt><trkpt lat="44.52187891002312" lon="8.914464624008525"><ele>156.2</ele><time>2026-05-01T14:19:36.999Z</time></trkpt><trkpt lat="44.52184531872058" lon="8.914569442281117"><ele>155.6</ele><time>2026-05-01T14:19:37.999Z</time></trkpt><trkpt lat="44.52181545764347" lon="8.914679207059194"><ele>155.0</ele><time>2026-05-01T14:19:38.999Z</time></trkpt><trkpt lat="44.5217376828592" lon="8.91478700384719"><ele>155.0</ele><time>2026-05-01T14:19:39.999Z</time></trkpt><trkpt lat="44.521632874607455" lon="8.91490721661281"><ele>155.0</ele><time>2026-05-01T14:19:40.999Z</time></trkpt><trkpt lat="44.52146799953792" lon="8.915095830539196"><ele>155.0</ele><time>2026-05-01T14:19:41.999Z</time></trkpt><trkpt lat="44.52129057358393" lon="8.91529869901433"><ele>156.5</ele><time>2026-05-01T14:19:42.999Z</time></trkpt><trkpt lat="44.52108405186229" lon="8.915534835652897"><ele>158.0</ele><time>2026-05-01T14:19:43.999Z</time></trkpt><trkpt lat="44.52091986741138" lon="8.915742757598062"><ele>158.0</ele><time>2026-05-01T14:19:44.999Z</time></trkpt><trkpt lat="44.52076771702684" lon="8.915896015146608"><ele>158.0</ele><time>2026-05-01T14:19:45.999Z</time></trkpt><trkpt lat="44.520649816953124" lon="8.916065185522415"><ele>158.0</ele><time>2026-05-01T14:19:46.999Z</time></trkpt><trkpt lat="44.52053725818859" lon="8.916212184797864"><ele>156.66666666666666</ele><time>2026-05-01T14:19:47.999Z</time></trkpt><trkpt lat="44.520452198434356" lon="8.91635859239726"><ele>155.33333333333334</ele><time>2026-05-01T14:19:48.999Z</time></trkpt><trkpt lat="44.52038560114742" lon="8.916557377942633"><ele>154.0</ele><time>2026-05-01T14:19:49.999Z</time></trkpt><trkpt lat="44.52028037755808" lon="8.916799879030629"><ele>154.0</ele><time>2026-05-01T14:19:50.999Z</time></trkpt><trkpt lat="44.52018979054111" lon="8.917084878279557"><ele>154.0</ele><time>2026-05-01T14:19:51.999Z</time></trkpt><trkpt lat="44.52010057853109" lon="8.917320185239163"><ele>154.0</ele><time>2026-05-01T14:19:52.999Z</time></trkpt><trkpt lat="44.52002278988444" lon="8.91751162471925"><ele>152.0</ele><time>2026-05-01T14:19:53.999Z</time></trkpt><trkpt lat="44.519958805560535" lon="8.917658195847453"><ele>150.0</ele><time>2026-05-01T14:19:54.999Z</time></trkpt><trkpt lat="44.519866606687344" lon="8.917735151138752"><ele>148.0</ele><time>2026-05-01T14:19:55.999Z</time></trkpt><trkpt lat="44.51977152089439" lon="8.917799854151411"><ele>146.0</ele><time>2026-05-01T14:19:56.999Z</time></trkpt><trkpt lat="44.519647634212035" lon="8.917817081923909"><ele>145.75</ele><time>2026-05-01T14:19:57.999Z</time></trkpt><trkpt lat="44.51952258078475" lon="8.917844536107028"><ele>145.5</ele><time>2026-05-01T14:19:58.999Z</time></trkpt><trkpt lat="44.51941311660463" lon="8.917783901366986"><ele>145.25</ele><time>2026-05-01T14:19:59.999Z</time></trkpt><trkpt lat="44.51931840905168" lon="8.917665410336046"><ele>145.0</ele><time>2026-05-01T14:20:00.999Z</time></trkpt><trkpt lat="44.51915806223198" lon="8.917558366039911"><ele>145.0</ele><time>2026-05-01T14:20:01.999Z</time></trkpt><trkpt lat="44.519028077395376" lon="8.917343603819038"><ele>145.0</ele><time>2026-05-01T14:20:02.999Z</time></trkpt><trkpt lat="44.518904789412666" lon="8.917178363229834"><ele>145.0</ele><time>2026-05-01T14:20:03.999Z</time></trkpt><trkpt lat="44.51883256600442" lon="8.917049059178863"><ele>145.0</ele><time>2026-05-01T14:20:04.999Z</time></trkpt><trkpt lat="44.518846672867205" lon="8.9168779591655"><ele>145.0</ele><time>2026-05-01T14:20:05.999Z</time></trkpt><trkpt lat="44.51882328734504" lon="8.916703914754748"><ele>145.0</ele><time>2026-05-01T14:20:06.999Z</time></trkpt><trkpt lat="44.51880131780668" lon="8.916487574711985"><ele>145.0</ele><time>2026-05-01T14:20:07.999Z</time></trkpt><trkpt lat="44.51879009853502" lon="8.916297778567781"><ele>149.33333333333334</ele><time>2026-05-01T14:20:08.999Z</time></trkpt><trkpt lat="44.51882569183928" lon="8.916085870586738"><ele>153.66666666666666</ele><time>2026-05-01T14:20:09.999Z</time></trkpt><trkpt lat="44.51885622240384" lon="8.915841015611527"><ele>158.0</ele><time>2026-05-01T14:20:10.999Z</time></trkpt><trkpt lat="44.51885459870991" lon="8.915590134491959"><ele>158.33333333333331</ele><time>2026-05-01T14:20:11.999Z</time></trkpt><trkpt lat="44.518823079407866" lon="8.915321746500997"><ele>158.66666666666666</ele><time>2026-05-01T14:20:12.999Z</time></trkpt><trkpt lat="44.518829157365296" lon="8.915055498737148"><ele>159.0</ele><time>2026-05-01T14:20:13.999Z</time></trkpt><trkpt lat="44.518784285861265" lon="8.91484068447255"><ele>154.0</ele><time>2026-05-01T14:20:14.999Z</time></trkpt><trkpt lat="44.518651748877474" lon="8.914667366875335"><ele>149.0</ele><time>2026-05-01T14:20:15.999Z</time></trkpt><trkpt lat="44.51860494636392" lon="8.914471329190865"><ele>144.0</ele><time>2026-05-01T14:20:16.999Z</time></trkpt><trkpt lat="44.51855711814959" lon="8.914290638933032"><ele>142.5</ele><time>2026-05-01T14:20:17.999Z</time></trkpt><trkpt lat="44.51851177380491" lon="8.914117836774993"><ele>141.0</ele><time>2026-05-01T14:20:18.999Z</time></trkpt><trkpt lat="44.5184602083053" lon="8.913973804121799"><ele>139.5</ele><time>2026-05-01T14:20:19.999Z</time></trkpt><trkpt lat="44.518377830998766" lon="8.913831159928872"><ele>138.0</ele><time>2026-05-01T14:20:20.999Z</time></trkpt><trkpt lat="44.51826652509106" lon="8.913699367202845"><ele>138.0</ele><time>2026-05-01T14:20:21.999Z</time></trkpt><trkpt lat="44.51814303202999" lon="8.913580802077423"><ele>138.0</ele><time>2026-05-01T14:20:22.999Z</time></trkpt><trkpt lat="44.51802076988999" lon="8.913443841612969"><ele>138.0</ele><time>2026-05-01T14:20:23.999Z</time></trkpt><trkpt lat="44.51792463212096" lon="8.91330115636657"><ele>138.0</ele><time>2026-05-01T14:20:24.999Z</time></trkpt><trkpt lat="44.51784768407381" lon="8.91315117264489"><ele>137.4</ele><time>2026-05-01T14:20:26Z</time></trkpt><trkpt lat="44.517786720348475" lon="8.913018646695766"><ele>136.8</ele><time>2026-05-01T14:20:27Z</time></trkpt><trkpt lat="44.51773290468552" lon="8.912902525461698"><ele>136.2</ele><time>2026-05-01T14:20:28Z</time></trkpt><trkpt lat="44.51766241887539" lon="8.912817064124415"><ele>135.6</ele><time>2026-05-01T14:20:29Z</time></trkpt><trkpt lat="44.51756460806448" lon="8.912744103381534"><ele>135.0</ele><time>2026-05-01T14:20:30Z</time></trkpt><trkpt lat="44.51744731992292" lon="8.912677701490878"><ele>135.0</ele><time>2026-05-01T14:20:31Z</time></trkpt><trkpt lat="44.51731727638167" lon="8.912620603470014"><ele>135.0</ele><time>2026-05-01T14:20:32Z</time></trkpt><trkpt lat="44.5171862826366" lon="8.912570564613175"><ele>135.0</ele><time>2026-05-01T14:20:33Z</time></trkpt><trkpt lat="44.51706666992899" lon="8.912534626591505"><ele>135.0</ele><time>2026-05-01T14:20:34Z</time></trkpt><trkpt lat="44.516951748098094" lon="8.912525552704249"><ele>135.75</ele><time>2026-05-01T14:20:35Z</time></trkpt><trkpt lat="44.51682783715931" lon="8.912556523753679"><ele>136.5</ele><time>2026-05-01T14:20:36Z</time></trkpt><trkpt lat="44.51670960298169" lon="8.912666121697054"><ele>137.25</ele><time>2026-05-01T14:20:37Z</time></trkpt><trkpt lat="44.516600514322214" lon="8.912785689436937"><ele>138.0</ele><time>2026-05-01T14:20:38Z</time></trkpt><trkpt lat="44.51650854030071" lon="8.912932315332517"><ele>138.0</ele><time>2026-05-01T14:20:39Z</time></trkpt><trkpt lat="44.51641054070272" lon="8.913069237224674"><ele>138.0</ele><time>2026-05-01T14:20:40Z</time></trkpt><trkpt lat="44.51633010436999" lon="8.91317854592071"><ele>138.0</ele><time>2026-05-01T14:20:41Z</time></trkpt><trkpt lat="44.51621516919697" lon="8.913258249839341"><ele>138.0</ele><time>2026-05-01T14:20:42Z</time></trkpt><trkpt lat="44.5160985151327" lon="8.913326961842296"><ele>135.66666666666666</ele><time>2026-05-01T14:20:43Z</time></trkpt><trkpt lat="44.515947049617786" lon="8.913422633364469"><ele>133.33333333333331</ele><time>2026-05-01T14:20:44Z</time></trkpt><trkpt lat="44.515806512986096" lon="8.913489508337458"><ele>131.0</ele><time>2026-05-01T14:20:45Z</time></trkpt><trkpt lat="44.51565216342679" lon="8.913576962196993"><ele>131.0</ele><time>2026-05-01T14:20:46Z</time></trkpt><trkpt lat="44.51550142178773" lon="8.91367629672114"><ele>131.0</ele><time>2026-05-01T14:20:47Z</time></trkpt><trkpt lat="44.51535559564932" lon="8.913765641713272"><ele>131.0</ele><time>2026-05-01T14:20:48Z</time></trkpt><trkpt lat="44.51520063143" lon="8.913855008645761"><ele>129.66666666666666</ele><time>2026-05-01T14:20:49Z</time></trkpt><trkpt lat="44.515043816526386" lon="8.913945778693742"><ele>128.33333333333334</ele><time>2026-05-01T14:20:50Z</time></trkpt><trkpt lat="44.51490037046067" lon="8.914029322610821"><ele>127.0</ele><time>2026-05-01T14:20:51Z</time></trkpt><trkpt lat="44.514749947767655" lon="8.914112493664408"><ele>127.0</ele><time>2026-05-01T14:20:52Z</time></trkpt><trkpt lat="44.51460025100433" lon="8.914195798650253"><ele>127.0</ele><time>2026-05-01T14:20:53Z</time></trkpt><trkpt lat="44.51444459220586" lon="8.914278945318198"><ele>127.0</ele><time>2026-05-01T14:20:54Z</time></trkpt><trkpt lat="44.51428053721818" lon="8.914339112390879"><ele>127.33333333333334</ele><time>2026-05-01T14:20:55Z</time></trkpt><trkpt lat="44.51410524188087" lon="8.91436439673809"><ele>127.66666666666666</ele><time>2026-05-01T14:20:56Z</time></trkpt><trkpt lat="44.513947071244246" lon="8.914379283834512"><ele>128.0</ele><time>2026-05-01T14:20:57Z</time></trkpt><trkpt lat="44.51378077290226" lon="8.914389543328925"><ele>126.5</ele><time>2026-05-01T14:20:58Z</time></trkpt><trkpt lat="44.51361682389884" lon="8.914398617139845"><ele>125.0</ele><time>2026-05-01T14:20:59Z</time></trkpt><trkpt lat="44.513472273315536" lon="8.914399381285648"><ele>123.5</ele><time>2026-05-01T14:21:00Z</time></trkpt><trkpt lat="44.513337191511525" lon="8.91437895121315"><ele>122.0</ele><time>2026-05-01T14:21:01Z</time></trkpt><trkpt lat="44.5131906675077" lon="8.914314713769107"><ele>122.0</ele><time>2026-05-01T14:21:02Z</time></trkpt><trkpt lat="44.51306067485103" lon="8.914192271383705"><ele>122.0</ele><time>2026-05-01T14:21:03Z</time></trkpt><trkpt lat="44.512920446743074" lon="8.914065958165107"><ele>122.0</ele><time>2026-05-01T14:21:04Z</time></trkpt><trkpt lat="44.51279196514982" lon="8.913936400242557"><ele>122.0</ele><time>2026-05-01T14:21:05Z</time></trkpt><trkpt lat="44.512660273564656" lon="8.913819788560646"><ele>122.0</ele><time>2026-05-01T14:21:06Z</time></trkpt><trkpt lat="44.51253665081611" lon="8.913710462586698"><ele>122.0</ele><time>2026-05-01T14:21:07Z</time></trkpt><trkpt lat="44.51240853200316" lon="8.913591984960195"><ele>122.0</ele><time>2026-05-01T14:21:08Z</time></trkpt><trkpt lat="44.51227476019499" lon="8.913477066272218"><ele>122.0</ele><time>2026-05-01T14:21:09Z</time></trkpt><trkpt lat="44.512142855598725" lon="8.913352920829858"><ele>122.0</ele><time>2026-05-01T14:21:10Z</time></trkpt><trkpt lat="44.51201522722262" lon="8.91322517341893"><ele>123.0</ele><time>2026-05-01T14:21:11Z</time></trkpt><trkpt lat="44.51188125839161" lon="8.913103785330957"><ele>124.0</ele><time>2026-05-01T14:21:12Z</time></trkpt><trkpt lat="44.511745040211125" lon="8.912978417458257"><ele>125.0</ele><time>2026-05-01T14:21:13Z</time></trkpt><trkpt lat="44.511602324096614" lon="8.912846839232467"><ele>125.0</ele><time>2026-05-01T14:21:14Z</time></trkpt><trkpt lat="44.511457101368" lon="8.91271233707923"><ele>125.0</ele><time>2026-05-01T14:21:15Z</time></trkpt><trkpt lat="44.51130946590453" lon="8.912571954114506"><ele>125.0</ele><time>2026-05-01T14:21:16Z</time></trkpt><trkpt lat="44.51116536419632" lon="8.912435230865173"><ele>124.33333333333333</ele><time>2026-05-01T14:21:17Z</time></trkpt><trkpt lat="44.51102441128596" lon="8.912331840775702"><ele>123.66666666666666</ele><time>2026-05-01T14:21:18Z</time></trkpt><trkpt lat="44.51086034603215" lon="8.91228430935622"><ele>123.0</ele><time>2026-05-01T14:21:19Z</time></trkpt><trkpt lat="44.51069013415613" lon="8.91225253543346"><ele>123.0</ele><time>2026-05-01T14:21:20Z</time></trkpt><trkpt lat="44.51053068203231" lon="8.912212058922053"><ele>123.0</ele><time>2026-05-01T14:21:21Z</time></trkpt><trkpt lat="44.510386422313914" lon="8.912203860652697"><ele>123.0</ele><time>2026-05-01T14:21:22Z</time></trkpt><trkpt lat="44.510253312954774" lon="8.912201542134989"><ele>123.0</ele><time>2026-05-01T14:21:23Z</time></trkpt><trkpt lat="44.510124375307875" lon="8.912220713930466"><ele>123.0</ele><time>2026-05-01T14:21:24Z</time></trkpt><trkpt lat="44.50999297815187" lon="8.912259774999951"><ele>123.0</ele><time>2026-05-01T14:21:25Z</time></trkpt><trkpt lat="44.50985361466494" lon="8.912323790888706"><ele>123.0</ele><time>2026-05-01T14:21:26Z</time></trkpt><trkpt lat="44.50971414025194" lon="8.91239024316918"><ele>123.0</ele><time>2026-05-01T14:21:27Z</time></trkpt><trkpt lat="44.5095798806283" lon="8.91244792687845"><ele>122.5</ele><time>2026-05-01T14:21:28Z</time></trkpt><trkpt lat="44.50944522530735" lon="8.912503715158035"><ele>122.0</ele><time>2026-05-01T14:21:29Z</time></trkpt><trkpt lat="44.50931193747544" lon="8.91257347468383"><ele>121.5</ele><time>2026-05-01T14:21:30Z</time></trkpt><trkpt lat="44.50919622745966" lon="8.912635455205097"><ele>121.0</ele><time>2026-05-01T14:21:31Z</time></trkpt><trkpt lat="44.509091668714" lon="8.912697062594901"><ele>120.4</ele><time>2026-05-01T14:21:32Z</time></trkpt><trkpt lat="44.5089958314128" lon="8.912720542450414"><ele>119.8</ele><time>2026-05-01T14:21:33Z</time></trkpt><trkpt lat="44.508896961302874" lon="8.912764951321277"><ele>119.20000000000002</ele><time>2026-05-01T14:21:34Z</time></trkpt><trkpt lat="44.50879776985133" lon="8.91277585174047"><ele>118.60000000000001</ele><time>2026-05-01T14:21:35Z</time></trkpt><trkpt lat="44.5086956484704" lon="8.91276846227084"><ele>118.0</ele><time>2026-05-01T14:21:36Z</time></trkpt><trkpt lat="44.50859102420015" lon="8.91273454176945"><ele>118.0</ele><time>2026-05-01T14:21:37Z</time></trkpt><trkpt lat="44.508499428157634" lon="8.912647330291023"><ele>118.00000000000001</ele><time>2026-05-01T14:21:38Z</time></trkpt><trkpt lat="44.50843340961041" lon="8.912532855727406"><ele>118.00000000000001</ele><time>2026-05-01T14:21:39Z</time></trkpt><trkpt lat="44.50839239506913" lon="8.9123973718566"><ele>118.0</ele><time>2026-05-01T14:21:40Z</time></trkpt><trkpt lat="44.50835564252961" lon="8.91226711469497"><ele>118.0</ele><time>2026-05-01T14:21:41Z</time></trkpt><trkpt lat="44.50831947888733" lon="8.912143040105164"><ele>117.80000000000001</ele><time>2026-05-01T14:21:42Z</time></trkpt><trkpt lat="44.50828303337002" lon="8.912030142088682"><ele>117.60000000000001</ele><time>2026-05-01T14:21:43Z</time></trkpt><trkpt lat="44.508245195581694" lon="8.911909349725281"><ele>117.39999999999999</ele><time>2026-05-01T14:21:44Z</time></trkpt><trkpt lat="44.508201208351856" lon="8.911768925873107"><ele>117.19999999999999</ele><time>2026-05-01T14:21:45Z</time></trkpt><trkpt lat="44.50814381541758" lon="8.911636312690591"><ele>117.0</ele><time>2026-05-01T14:21:46Z</time></trkpt><trkpt lat="44.508103405368665" lon="8.911493419348083"><ele>117.0</ele><time>2026-05-01T14:21:47Z</time></trkpt><trkpt lat="44.508047862896206" lon="8.911360150619473"><ele>116.99999999999999</ele><time>2026-05-01T14:21:48Z</time></trkpt><trkpt lat="44.5080053381351" lon="8.911211282177808"><ele>116.99999999999999</ele><time>2026-05-01T14:21:49Z</time></trkpt><trkpt lat="44.50797184866604" lon="8.91106029482867"><ele>117.0</ele><time>2026-05-01T14:21:50Z</time></trkpt><trkpt lat="44.507936463319965" lon="8.910915837671427"><ele>117.0</ele><time>2026-05-01T14:21:51Z</time></trkpt><trkpt lat="44.50790625175768" lon="8.910769219364933"><ele>115.5</ele><time>2026-05-01T14:21:52Z</time></trkpt><trkpt lat="44.507867509434625" lon="8.910658012600976"><ele>114.0</ele><time>2026-05-01T14:21:53Z</time></trkpt><trkpt lat="44.507826228635494" lon="8.910506788261754"><ele>112.5</ele><time>2026-05-01T14:21:54Z</time></trkpt><trkpt lat="44.50778125202241" lon="8.910346151479647"><ele>111.0</ele><time>2026-05-01T14:21:55Z</time></trkpt><trkpt lat="44.50773791108107" lon="8.910173583502472"><ele>111.0</ele><time>2026-05-01T14:21:56Z</time></trkpt><trkpt lat="44.50768291272247" lon="8.910013355068386"><ele>111.0</ele><time>2026-05-01T14:21:57Z</time></trkpt><trkpt lat="44.507627698190824" lon="8.909867555822506"><ele>111.0</ele><time>2026-05-01T14:21:58Z</time></trkpt><trkpt lat="44.50755723973785" lon="8.909736649481154"><ele>111.0</ele><time>2026-05-01T14:21:59Z</time></trkpt><trkpt lat="44.5074665268857" lon="8.909617333136255"><ele>111.0</ele><time>2026-05-01T14:22:00Z</time></trkpt><trkpt lat="44.507359098987216" lon="8.909516028467436"><ele>111.0</ele><time>2026-05-01T14:22:01Z</time></trkpt><trkpt lat="44.50725162769824" lon="8.909402297750967"><ele>111.0</ele><time>2026-05-01T14:22:02Z</time></trkpt><trkpt lat="44.50712868097295" lon="8.909296607682869"><ele>111.0</ele><time>2026-05-01T14:22:03Z</time></trkpt><trkpt lat="44.507005328775236" lon="8.90921363364138"><ele>111.5</ele><time>2026-05-01T14:22:04Z</time></trkpt><trkpt lat="44.506882898126456" lon="8.909144639916263"><ele>112.0</ele><time>2026-05-01T14:22:05Z</time></trkpt><trkpt lat="44.50675423038542" lon="8.909091940738078"><ele>112.5</ele><time>2026-05-01T14:22:06Z</time></trkpt><trkpt lat="44.50663573751758" lon="8.909028443580624"><ele>113.0</ele><time>2026-05-01T14:22:07Z</time></trkpt><trkpt lat="44.50651831302431" lon="8.908963720890512"><ele>113.0</ele><time>2026-05-01T14:22:07.999Z</time></trkpt><trkpt lat="44.50638734873705" lon="8.908932846901193"><ele>113.0</ele><time>2026-05-01T14:22:08.999Z</time></trkpt><trkpt lat="44.50625753870157" lon="8.908904557972242"><ele>113.0</ele><time>2026-05-01T14:22:09.999Z</time></trkpt><trkpt lat="44.506131910230046" lon="8.908848647773661"><ele>113.0</ele><time>2026-05-01T14:22:10.999Z</time></trkpt><trkpt lat="44.50602252190766" lon="8.908767645603136"><ele>112.25</ele><time>2026-05-01T14:22:11.999Z</time></trkpt><trkpt lat="44.505911702681715" lon="8.908675305101855"><ele>111.5</ele><time>2026-05-01T14:22:12.999Z</time></trkpt><trkpt lat="44.505825535278596" lon="8.908559995893667"><ele>110.75</ele><time>2026-05-01T14:22:13.999Z</time></trkpt><trkpt lat="44.505728976081066" lon="8.90847624425744"><ele>110.0</ele><time>2026-05-01T14:22:14.999Z</time></trkpt><trkpt lat="44.505638900827826" lon="8.90840840103044"><ele>109.99999999999999</ele><time>2026-05-01T14:22:15.999Z</time></trkpt><trkpt lat="44.505575871711784" lon="8.908353007832106"><ele>110.0</ele><time>2026-05-01T14:22:16.999Z</time></trkpt><trkpt lat="44.50550574823373" lon="8.908291366974478"><ele>110.0</ele><time>2026-05-01T14:22:17.999Z</time></trkpt><trkpt lat="44.50543073285134" lon="8.908240630689571"><ele>110.0</ele><time>2026-05-01T14:22:18.999Z</time></trkpt><trkpt lat="44.505357999737306" lon="8.90818625821253"><ele>109.99999999999999</ele><time>2026-05-01T14:22:19.999Z</time></trkpt><trkpt lat="44.505294312589236" lon="8.908134891168906"><ele>110.0</ele><time>2026-05-01T14:22:20.999Z</time></trkpt><trkpt lat="44.50520328202098" lon="8.907994866741193"><ele>109.4</ele><time>2026-05-01T14:22:22.999Z</time></trkpt><trkpt lat="44.50510838429833" lon="8.907930690742267"><ele>108.8</ele><time>2026-05-01T14:22:23.999Z</time></trkpt><trkpt lat="44.505043110781436" lon="8.907851506131411"><ele>108.19999999999999</ele><time>2026-05-01T14:22:24.999Z</time></trkpt><trkpt lat="44.50495608437583" lon="8.907784766815979"><ele>107.6</ele><time>2026-05-01T14:22:25.999Z</time></trkpt><trkpt lat="44.50486234035107" lon="8.9077082278918"><ele>107.0</ele><time>2026-05-01T14:22:26.999Z</time></trkpt><trkpt lat="44.50478461954321" lon="8.907619979883945"><ele>107.39999999999999</ele><time>2026-05-01T14:22:27.999Z</time></trkpt><trkpt lat="44.50469429080482" lon="8.907543279795311"><ele>107.79999999999998</ele><time>2026-05-01T14:22:28.999Z</time></trkpt><trkpt lat="44.50460234773416" lon="8.907456299894232"><ele>108.2</ele><time>2026-05-01T14:22:29.999Z</time></trkpt><trkpt lat="44.50451016360265" lon="8.907373664324524"><ele>108.6</ele><time>2026-05-01T14:22:30.999Z</time></trkpt><trkpt lat="44.50441349981132" lon="8.907285053025698"><ele>109.0</ele><time>2026-05-01T14:22:31.999Z</time></trkpt><trkpt lat="44.50433124467454" lon="8.907202104698474"><ele>108.80000000000001</ele><time>2026-05-01T14:22:32.999Z</time></trkpt><trkpt lat="44.504244362305656" lon="8.907125231360506"><ele>108.60000000000001</ele><time>2026-05-01T14:22:33.999Z</time></trkpt><trkpt lat="44.50415571636777" lon="8.907044534710344"><ele>108.4</ele><time>2026-05-01T14:22:35Z</time></trkpt><trkpt lat="44.50406512814631" lon="8.906932118648594"><ele>108.2</ele><time>2026-05-01T14:22:36Z</time></trkpt><trkpt lat="44.503983749247105" lon="8.906810897181865"><ele>108.0</ele><time>2026-05-01T14:22:37Z</time></trkpt><trkpt lat="44.50390233736144" lon="8.906684585118324"><ele>108.0</ele><time>2026-05-01T14:22:38Z</time></trkpt><trkpt lat="44.50381656215733" lon="8.90654791005592"><ele>108.0</ele><time>2026-05-01T14:22:39Z</time></trkpt><trkpt lat="44.503712878319575" lon="8.906380027196645"><ele>108.0</ele><time>2026-05-01T14:22:40Z</time></trkpt><trkpt lat="44.50361569731785" lon="8.906249286527554"><ele>108.0</ele><time>2026-05-01T14:22:41Z</time></trkpt><trkpt lat="44.50351889742902" lon="8.906143058934314"><ele>106.5</ele><time>2026-05-01T14:22:42Z</time></trkpt><trkpt lat="44.50341701148488" lon="8.906061675036316"><ele>105.0</ele><time>2026-05-01T14:22:43Z</time></trkpt><trkpt lat="44.50329798572936" lon="8.906009297723642"><ele>103.5</ele><time>2026-05-01T14:22:44Z</time></trkpt><trkpt lat="44.50317447735732" lon="8.905965646931568"><ele>102.0</ele><time>2026-05-01T14:22:45Z</time></trkpt><trkpt lat="44.503043677670334" lon="8.905970816423341"><ele>101.75</ele><time>2026-05-01T14:22:46Z</time></trkpt><trkpt lat="44.50290586262777" lon="8.905946836735387"><ele>101.5</ele><time>2026-05-01T14:22:47Z</time></trkpt><trkpt lat="44.502790256905186" lon="8.905975397365907"><ele>101.25</ele><time>2026-05-01T14:22:48Z</time></trkpt><trkpt lat="44.502703052535296" lon="8.905988651134273"><ele>101.0</ele><time>2026-05-01T14:22:49Z</time></trkpt><trkpt lat="44.50259552299426" lon="8.906119044667777"><ele>101.0</ele><time>2026-05-01T14:22:50Z</time></trkpt><trkpt lat="44.502506407561455" lon="8.906154824719033"><ele>101.0</ele><time>2026-05-01T14:22:51Z</time></trkpt><trkpt lat="44.50239636431219" lon="8.906142636731204"><ele>101.0</ele><time>2026-05-01T14:22:52Z</time></trkpt><trkpt lat="44.50228216716817" lon="8.906067522091986"><ele>101.0</ele><time>2026-05-01T14:22:53Z</time></trkpt><trkpt lat="44.50217144981675" lon="8.905948169462526"><ele>100.5</ele><time>2026-05-01T14:22:54Z</time></trkpt><trkpt lat="44.502048913674116" lon="8.905862727779578"><ele>100.0</ele><time>2026-05-01T14:22:55Z</time></trkpt><trkpt lat="44.5019429505839" lon="8.90578986728857"><ele>99.5</ele><time>2026-05-01T14:22:56Z</time></trkpt><trkpt lat="44.50186527512934" lon="8.905706100206942"><ele>99.0</ele><time>2026-05-01T14:22:57Z</time></trkpt><trkpt lat="44.501763427827086" lon="8.905612069835827"><ele>99.0</ele><time>2026-05-01T14:22:58Z</time></trkpt><trkpt lat="44.501673892662815" lon="8.90555456383724"><ele>99.0</ele><time>2026-05-01T14:22:59Z</time></trkpt><trkpt lat="44.501594547476884" lon="8.905498817721657"><ele>99.0</ele><time>2026-05-01T14:23:00Z</time></trkpt><trkpt lat="44.50153678767917" lon="8.905459528131484"><ele>99.0</ele><time>2026-05-01T14:23:01Z</time></trkpt><trkpt lat="44.501490815329376" lon="8.905383799929146"><ele>99.0</ele><time>2026-05-01T14:23:02Z</time></trkpt><trkpt lat="44.50144037079619" lon="8.905301588760953"><ele>99.0</ele><time>2026-05-01T14:23:04Z</time></trkpt><trkpt lat="44.50141140794665" lon="8.90518894013389"><ele>99.0</ele><time>2026-05-01T14:23:06Z</time></trkpt><trkpt lat="44.50132651034628" lon="8.905092709764919"><ele>99.0</ele><time>2026-05-01T14:23:08Z</time></trkpt><trkpt lat="44.50127574333435" lon="8.904976712526652"><ele>99.0</ele><time>2026-05-01T14:23:10Z</time></trkpt><trkpt lat="44.50128091806904" lon="8.904833905312994"><ele>99.0</ele><time>2026-05-01T14:24:59Z</time></trkpt><trkpt lat="44.50134146074182" lon="8.904669073073068"><ele>99.0</ele><time>2026-05-01T14:25:01Z</time></trkpt><trkpt lat="44.501345915262554" lon="8.904567896036923"><ele>99.25</ele><time>2026-05-01T14:25:02Z</time></trkpt><trkpt lat="44.501305895598016" lon="8.904450658100785"><ele>99.5</ele><time>2026-05-01T14:25:03Z</time></trkpt><trkpt lat="44.501234273863986" lon="8.904317126573257"><ele>99.75</ele><time>2026-05-01T14:25:04Z</time></trkpt><trkpt lat="44.50114568206277" lon="8.904159397018743"><ele>100.0</ele><time>2026-05-01T14:25:05Z</time></trkpt><trkpt lat="44.50106380465543" lon="8.903980104998597"><ele>100.5</ele><time>2026-05-01T14:25:06Z</time></trkpt><trkpt lat="44.50100604746317" lon="8.903804741539034"><ele>101.0</ele><time>2026-05-01T14:25:07Z</time></trkpt><trkpt lat="44.500970511779386" lon="8.903614681261967"><ele>101.5</ele><time>2026-05-01T14:25:08Z</time></trkpt><trkpt lat="44.50092163645542" lon="8.90344474066635"><ele>102.0</ele><time>2026-05-01T14:25:09Z</time></trkpt><trkpt lat="44.50087269022062" lon="8.903309261193508"><ele>104.0</ele><time>2026-05-01T14:25:10Z</time></trkpt><trkpt lat="44.5008355535427" lon="8.90316029994054"><ele>106.0</ele><time>2026-05-01T14:25:11Z</time></trkpt><trkpt lat="44.500791571290854" lon="8.903009880470348"><ele>108.0</ele><time>2026-05-01T14:25:12Z</time></trkpt><trkpt lat="44.50072123565825" lon="8.902854662768394"><ele>110.0</ele><time>2026-05-01T14:25:13Z</time></trkpt><trkpt lat="44.500613228739326" lon="8.902717037315025"><ele>109.0</ele><time>2026-05-01T14:25:14Z</time></trkpt><trkpt lat="44.5005452451588" lon="8.902549364044365"><ele>108.0</ele><time>2026-05-01T14:25:15Z</time></trkpt><trkpt lat="44.50038239332972" lon="8.90243612606416"><ele>107.0</ele><time>2026-05-01T14:25:16Z</time></trkpt><trkpt lat="44.50029495909672" lon="8.902342581298678"><ele>106.0</ele><time>2026-05-01T14:25:17Z</time></trkpt><trkpt lat="44.50023417961067" lon="8.90223228841654"><ele>106.0</ele><time>2026-05-01T14:25:18Z</time></trkpt><trkpt lat="44.50021079497261" lon="8.902108305485791"><ele>106.0</ele><time>2026-05-01T14:25:19Z</time></trkpt><trkpt lat="44.500190973241104" lon="8.902019011040824"><ele>106.0</ele><time>2026-05-01T14:25:20Z</time></trkpt><trkpt lat="44.50025728960947" lon="8.901877211136009"><ele>106.0</ele><time>2026-05-01T14:25:21Z</time></trkpt><trkpt lat="44.500306037902064" lon="8.901748902293312"><ele>106.0</ele><time>2026-05-01T14:25:22Z</time></trkpt><trkpt lat="44.500377594807915" lon="8.901623705986113"><ele>109.5</ele><time>2026-05-01T14:25:23Z</time></trkpt><trkpt lat="44.50046384901612" lon="8.901491468452853"><ele>113.0</ele><time>2026-05-01T14:25:24Z</time></trkpt><trkpt lat="44.50058377271959" lon="8.901396623545358"><ele>116.5</ele><time>2026-05-01T14:25:25Z</time></trkpt><trkpt lat="44.50070647190823" lon="8.90132660437702"><ele>120.0</ele><time>2026-05-01T14:25:26Z</time></trkpt><trkpt lat="44.500840761584286" lon="8.901144244859925"><ele>120.0</ele><time>2026-05-01T14:25:27Z</time></trkpt><trkpt lat="44.50106776246206" lon="8.901119039713926"><ele>120.0</ele><time>2026-05-01T14:25:28Z</time></trkpt><trkpt lat="44.501220304117226" lon="8.901055214286012"><ele>120.0</ele><time>2026-05-01T14:25:29Z</time></trkpt><trkpt lat="44.50136572284156" lon="8.900958364014173"><ele>120.0</ele><time>2026-05-01T14:25:30Z</time></trkpt><trkpt lat="44.50150855260258" lon="8.900838587014974"><ele>120.0</ele><time>2026-05-01T14:25:31Z</time></trkpt><trkpt lat="44.5016450649426" lon="8.900681862264548"><ele>120.0</ele><time>2026-05-01T14:25:32Z</time></trkpt><trkpt lat="44.50177317956808" lon="8.900514205264852"><ele>120.0</ele><time>2026-05-01T14:25:33Z</time></trkpt><trkpt lat="44.5018955439805" lon="8.900410170078452"><ele>120.0</ele><time>2026-05-01T14:25:34Z</time></trkpt><trkpt lat="44.50198765175535" lon="8.900302714136306"><ele>120.0</ele><time>2026-05-01T14:25:35Z</time></trkpt><trkpt lat="44.50209322189626" lon="8.900202316849915"><ele>120.0</ele><time>2026-05-01T14:25:36Z</time></trkpt><trkpt lat="44.50217209653918" lon="8.900095485871784"><ele>118.25</ele><time>2026-05-01T14:25:37Z</time></trkpt><trkpt lat="44.502278964995526" lon="8.899986123235786"><ele>116.5</ele><time>2026-05-01T14:25:38Z</time></trkpt><trkpt lat="44.50237918186664" lon="8.899885469771009"><ele>114.75</ele><time>2026-05-01T14:25:39Z</time></trkpt><trkpt lat="44.50247573803834" lon="8.899815458447192"><ele>113.0</ele><time>2026-05-01T14:25:40Z</time></trkpt><trkpt lat="44.50258682690622" lon="8.899757678033835"><ele>113.0</ele><time>2026-05-01T14:25:41Z</time></trkpt><trkpt lat="44.50270169092658" lon="8.89967920883889"><ele>113.0</ele><time>2026-05-01T14:25:42Z</time></trkpt><trkpt lat="44.50281327381726" lon="8.89959994069709"><ele>113.0</ele><time>2026-05-01T14:25:43Z</time></trkpt><trkpt lat="44.50290554608436" lon="8.899489803440739"><ele>113.0</ele><time>2026-05-01T14:25:44Z</time></trkpt><trkpt lat="44.502985968833265" lon="8.899370378421"><ele>114.25</ele><time>2026-05-01T14:25:45Z</time></trkpt><trkpt lat="44.50306540209045" lon="8.899245246700174"><ele>115.5</ele><time>2026-05-01T14:25:46Z</time></trkpt><trkpt lat="44.50313336338264" lon="8.899113012546435"><ele>116.75</ele><time>2026-05-01T14:25:47Z</time></trkpt><trkpt lat="44.50320523758718" lon="8.898988865915644"><ele>118.0</ele><time>2026-05-01T14:25:48Z</time></trkpt><trkpt lat="44.50327741867853" lon="8.898873524049185"><ele>118.0</ele><time>2026-05-01T14:25:49Z</time></trkpt><trkpt lat="44.50335044212267" lon="8.898758183716314"><ele>118.00000000000001</ele><time>2026-05-01T14:25:50Z</time></trkpt><trkpt lat="44.50340901705261" lon="8.898653934904665"><ele>118.00000000000001</ele><time>2026-05-01T14:25:51Z</time></trkpt><trkpt lat="44.50347435408564" lon="8.898544462303537"><ele>118.0</ele><time>2026-05-01T14:25:52Z</time></trkpt><trkpt lat="44.50354437202746" lon="8.89844532115624"><ele>118.0</ele><time>2026-05-01T14:25:53Z</time></trkpt><trkpt lat="44.503619624023905" lon="8.898356117536819"><ele>118.80000000000001</ele><time>2026-05-01T14:25:54Z</time></trkpt><trkpt lat="44.50371901297483" lon="8.898295160162315"><ele>119.60000000000001</ele><time>2026-05-01T14:25:55Z</time></trkpt><trkpt lat="44.50381499344992" lon="8.898245154345997"><ele>120.39999999999999</ele><time>2026-05-01T14:25:56Z</time></trkpt><trkpt lat="44.503918683927985" lon="8.898177911312864"><ele>121.19999999999999</ele><time>2026-05-01T14:25:57Z</time></trkpt><trkpt lat="44.50401443615363" lon="8.898118132197926"><ele>122.0</ele><time>2026-05-01T14:25:58Z</time></trkpt><trkpt lat="44.504097518709955" lon="8.898052853279989"><ele>122.0</ele><time>2026-05-01T14:25:59Z</time></trkpt><trkpt lat="44.50419740958706" lon="8.897988675572472"><ele>121.99999999999999</ele><time>2026-05-01T14:26:00Z</time></trkpt><trkpt lat="44.50428406384757" lon="8.89792712896106"><ele>121.99999999999999</ele><time>2026-05-01T14:26:01Z</time></trkpt><trkpt lat="44.504379156172334" lon="8.897875927775804"><ele>122.0</ele><time>2026-05-01T14:26:02Z</time></trkpt><trkpt lat="44.50447535996755" lon="8.897806819994376"><ele>122.0</ele><time>2026-05-01T14:26:03Z</time></trkpt><trkpt lat="44.504571678273884" lon="8.89774953589514"><ele>121.8</ele><time>2026-05-01T14:26:04Z</time></trkpt><trkpt lat="44.50465786222328" lon="8.897673891142485"><ele>121.6</ele><time>2026-05-01T14:26:05Z</time></trkpt><trkpt lat="44.50474820804915" lon="8.897639618362879"><ele>121.39999999999999</ele><time>2026-05-01T14:26:06Z</time></trkpt><trkpt lat="44.504839937276664" lon="8.89757997300849"><ele>121.19999999999999</ele><time>2026-05-01T14:26:07Z</time></trkpt><trkpt lat="44.504927944658824" lon="8.897503713666625"><ele>121.0</ele><time>2026-05-01T14:26:08Z</time></trkpt><trkpt lat="44.50500946186482" lon="8.897444452540642"><ele>121.00000000000001</ele><time>2026-05-01T14:26:09Z</time></trkpt><trkpt lat="44.50507270899219" lon="8.897410572229976"><ele>121.0</ele><time>2026-05-01T14:26:10Z</time></trkpt><trkpt lat="44.50513705625567" lon="8.897361941995737"><ele>121.0</ele><time>2026-05-01T14:26:11Z</time></trkpt><trkpt lat="44.505254291615856" lon="8.89726116358194"><ele>121.0</ele><time>2026-05-01T14:26:13Z</time></trkpt><trkpt lat="44.5053249695901" lon="8.897189206126361"><ele>121.00000000000001</ele><time>2026-05-01T14:26:14Z</time></trkpt><trkpt lat="44.50539109943419" lon="8.8971249705174"><ele>121.0</ele><time>2026-05-01T14:26:15Z</time></trkpt><trkpt lat="44.50546150967004" lon="8.89707244250627"><ele>121.4</ele><time>2026-05-01T14:26:16Z</time></trkpt><trkpt lat="44.50553463314387" lon="8.897007361171445"><ele>121.8</ele><time>2026-05-01T14:26:17Z</time></trkpt><trkpt lat="44.5056016025311" lon="8.89692190260949"><ele>122.20000000000002</ele><time>2026-05-01T14:26:18Z</time></trkpt><trkpt lat="44.505670824156496" lon="8.896805403124109"><ele>122.60000000000001</ele><time>2026-05-01T14:26:19Z</time></trkpt><trkpt lat="44.505736591717024" lon="8.896718217267948"><ele>123.0</ele><time>2026-05-01T14:26:19.999Z</time></trkpt><trkpt lat="44.505810146343" lon="8.896637678609853"><ele>122.0</ele><time>2026-05-01T14:26:20.999Z</time></trkpt><trkpt lat="44.50587962751817" lon="8.89655224813358"><ele>121.0</ele><time>2026-05-01T14:26:21.999Z</time></trkpt><trkpt lat="44.505937149536415" lon="8.896472456814122"><ele>120.0</ele><time>2026-05-01T14:26:22.999Z</time></trkpt><trkpt lat="44.50599467447431" lon="8.896400389949855"><ele>119.0</ele><time>2026-05-01T14:26:23.999Z</time></trkpt><trkpt lat="44.506056419983175" lon="8.8963283146285"><ele>118.0</ele><time>2026-05-01T14:26:24.999Z</time></trkpt><trkpt lat="44.506120051789026" lon="8.896247017214533"><ele>117.0</ele><time>2026-05-01T14:26:25.999Z</time></trkpt><trkpt lat="44.506179490096294" lon="8.89615224006103"><ele>117.0</ele><time>2026-05-01T14:26:26.999Z</time></trkpt><trkpt lat="44.50624395565213" lon="8.896047047586322"><ele>116.99999999999999</ele><time>2026-05-01T14:26:27.999Z</time></trkpt><trkpt lat="44.506290962201206" lon="8.895921143211277"><ele>116.99999999999999</ele><time>2026-05-01T14:26:28.999Z</time></trkpt><trkpt lat="44.50632465135857" lon="8.895798636434453"><ele>117.0</ele><time>2026-05-01T14:26:29.999Z</time></trkpt><trkpt lat="44.506347513961984" lon="8.895627663708758"><ele>117.0</ele><time>2026-05-01T14:26:30.999Z</time></trkpt><trkpt lat="44.506355441460364" lon="8.895493696052142"><ele>117.0</ele><time>2026-05-01T14:26:31.999Z</time></trkpt><trkpt lat="44.50636057556171" lon="8.895377547352757"><ele>117.0</ele><time>2026-05-01T14:26:32.999Z</time></trkpt><trkpt lat="44.506358999561066" lon="8.895266933387793"><ele>117.0</ele><time>2026-05-01T14:26:33.999Z</time></trkpt><trkpt lat="44.506373404637756" lon="8.895150412343781"><ele>117.0</ele><time>2026-05-01T14:26:34.999Z</time></trkpt><trkpt lat="44.506397638241474" lon="8.895043414597952"><ele>117.0</ele><time>2026-05-01T14:26:35.999Z</time></trkpt><trkpt lat="44.506406825405875" lon="8.894940370327271"><ele>117.0</ele><time>2026-05-01T14:26:36.999Z</time></trkpt><trkpt lat="44.5064177267134" lon="8.89482635470474"><ele>117.0</ele><time>2026-05-01T14:26:37.999Z</time></trkpt><trkpt lat="44.506427373004215" lon="8.894702867986494"><ele>117.0</ele><time>2026-05-01T14:26:38.999Z</time></trkpt><trkpt lat="44.50644497597138" lon="8.894573662169883"><ele>117.0</ele><time>2026-05-01T14:26:39.999Z</time></trkpt><trkpt lat="44.506453976731905" lon="8.894442773136243"><ele>117.0</ele><time>2026-05-01T14:26:40.999Z</time></trkpt><trkpt lat="44.50646558690926" lon="8.894319483400954"><ele>117.0</ele><time>2026-05-01T14:26:41.999Z</time></trkpt><trkpt lat="44.50647979059652" lon="8.894212794999271"><ele>117.0</ele><time>2026-05-01T14:26:42.999Z</time></trkpt><trkpt lat="44.506499590920136" lon="8.89408962646234"><ele>118.0</ele><time>2026-05-01T14:26:43.999Z</time></trkpt><trkpt lat="44.506503672204005" lon="8.893967676786925"><ele>119.0</ele><time>2026-05-01T14:26:44.999Z</time></trkpt><trkpt lat="44.50650888073514" lon="8.893857612054704"><ele>120.0</ele><time>2026-05-01T14:26:46Z</time></trkpt><trkpt lat="44.50651395361862" lon="8.893745279356013"><ele>121.0</ele><time>2026-05-01T14:26:47Z</time></trkpt><trkpt lat="44.506526500348244" lon="8.893637961899337"><ele>122.0</ele><time>2026-05-01T14:26:48Z</time></trkpt><trkpt lat="44.50652780706011" lon="8.893530178274377"><ele>123.0</ele><time>2026-05-01T14:26:49Z</time></trkpt><trkpt lat="44.50652588138132" lon="8.893431889281649"><ele>123.33333333333333</ele><time>2026-05-01T14:26:50Z</time></trkpt><trkpt lat="44.506513341903776" lon="8.893272579457557"><ele>123.66666666666666</ele><time>2026-05-01T14:26:52Z</time></trkpt><trkpt lat="44.506485172656646" lon="8.893185057991275"><ele>124.0</ele><time>2026-05-01T14:26:53Z</time></trkpt><trkpt lat="44.50647938305211" lon="8.893015933035425"><ele>124.33333333333333</ele><time>2026-05-01T14:26:55Z</time></trkpt><trkpt lat="44.50649235715042" lon="8.892913990989934"><ele>124.66666666666666</ele><time>2026-05-01T14:26:56Z</time></trkpt><trkpt lat="44.50651068179104" lon="8.892822479576775"><ele>125.0</ele><time>2026-05-01T14:26:57Z</time></trkpt><trkpt lat="44.506516287097824" lon="8.892715235631863"><ele>125.16666666666666</ele><time>2026-05-01T14:26:58Z</time></trkpt><trkpt lat="44.506557949694944" lon="8.892577750501987"><ele>125.33333333333333</ele><time>2026-05-01T14:27:00Z</time></trkpt><trkpt lat="44.506619063299354" lon="8.892449465671481"><ele>125.5</ele><time>2026-05-01T14:27:02Z</time></trkpt><trkpt lat="44.50665115007609" lon="8.892370290933165"><ele>125.66666666666666</ele><time>2026-05-01T14:27:03Z</time></trkpt><trkpt lat="44.50668659562158" lon="8.892290087586685"><ele>125.83333333333333</ele><time>2026-05-01T14:27:04Z</time></trkpt><trkpt lat="44.506732287649704" lon="8.892193925468735"><ele>126.0</ele><time>2026-05-01T14:27:05Z</time></trkpt><trkpt lat="44.506778605585204" lon="8.892120334140799"><ele>126.0</ele><time>2026-05-01T14:27:06Z</time></trkpt><trkpt lat="44.50679732111483" lon="8.892026962431403"><ele>126.0</ele><time>2026-05-01T14:27:07Z</time></trkpt><trkpt lat="44.50683487698082" lon="8.891951742109699"><ele>126.0</ele><time>2026-05-01T14:27:08Z</time></trkpt><trkpt lat="44.50690921165506" lon="8.891819413863326"><ele>126.0</ele><time>2026-05-01T14:27:10Z</time></trkpt><trkpt lat="44.50697648082006" lon="8.891710242824171"><ele>126.0</ele><time>2026-05-01T14:27:12Z</time></trkpt><trkpt lat="44.507037677681076" lon="8.891553296678435"><ele>126.4</ele><time>2026-05-01T14:27:14Z</time></trkpt><trkpt lat="44.50707584479213" lon="8.891374390159772"><ele>126.8</ele><time>2026-05-01T14:27:16Z</time></trkpt><trkpt lat="44.50709085664642" lon="8.891274732730894"><ele>127.20000000000002</ele><time>2026-05-01T14:27:17Z</time></trkpt><trkpt lat="44.507106686594625" lon="8.891179195821596"><ele>127.60000000000001</ele><time>2026-05-01T14:27:18Z</time></trkpt><trkpt lat="44.50713330732478" lon="8.891080579466191"><ele>128.0</ele><time>2026-05-01T14:27:19Z</time></trkpt><trkpt lat="44.507176738963835" lon="8.890947591260183"><ele>129.33333333333331</ele><time>2026-05-01T14:27:21Z</time></trkpt><trkpt lat="44.50722326286298" lon="8.890865365023627"><ele>130.66666666666666</ele><time>2026-05-01T14:27:23Z</time></trkpt><trkpt lat="44.50726027316188" lon="8.890742281575841"><ele>132.0</ele><time>2026-05-01T14:27:25Z</time></trkpt><trkpt lat="44.50730643672359" lon="8.890632490679414"><ele>133.33333333333334</ele><time>2026-05-01T14:27:27Z</time></trkpt><trkpt lat="44.50734606759688" lon="8.890527360587111"><ele>134.66666666666669</ele><time>2026-05-01T14:27:29Z</time></trkpt><trkpt lat="44.50740143821219" lon="8.890404824211883"><ele>136.0</ele><time>2026-05-01T14:27:31Z</time></trkpt><trkpt lat="44.50746392077094" lon="8.890255190062001"><ele>136.0</ele><time>2026-05-01T14:27:33Z</time></trkpt><trkpt lat="44.50750705759333" lon="8.890127196365784"><ele>136.0</ele><time>2026-05-01T14:27:35Z</time></trkpt><trkpt lat="44.50755210649929" lon="8.890039550227536"><ele>136.0</ele><time>2026-05-01T14:27:37Z</time></trkpt><trkpt lat="44.50759116706024" lon="8.889913650444655"><ele>136.0</ele><time>2026-05-01T14:27:39Z</time></trkpt><trkpt lat="44.507637224051855" lon="8.889803457010691"><ele>136.0</ele><time>2026-05-01T14:27:41Z</time></trkpt><trkpt lat="44.50769989612418" lon="8.889716815225935"><ele>135.8</ele><time>2026-05-01T14:27:43Z</time></trkpt><trkpt lat="44.50773424518171" lon="8.889578348388765"><ele>135.6</ele><time>2026-05-01T14:27:45Z</time></trkpt><trkpt lat="44.507769361414034" lon="8.889500773857659"><ele>135.4</ele><time>2026-05-01T14:27:46Z</time></trkpt><trkpt lat="44.507825061470236" lon="8.88936820492388"><ele>135.2</ele><time>2026-05-01T14:27:48Z</time></trkpt><trkpt lat="44.50787779568181" lon="8.889246954108126"><ele>135.0</ele><time>2026-05-01T14:27:50Z</time></trkpt><trkpt lat="44.5079657236897" lon="8.88906675363019"><ele>136.16666666666666</ele><time>2026-05-01T14:27:52Z</time></trkpt><trkpt lat="44.50799877493149" lon="8.88897324503774"><ele>137.33333333333334</ele><time>2026-05-01T14:27:53Z</time></trkpt><trkpt lat="44.50803633881147" lon="8.888881924131926"><ele>138.5</ele><time>2026-05-01T14:27:54Z</time></trkpt><trkpt lat="44.50807704107408" lon="8.888758383105161"><ele>139.66666666666669</ele><time>2026-05-01T14:27:55Z</time></trkpt><trkpt lat="44.50812258978123" lon="8.888642944008204"><ele>140.83333333333334</ele><time>2026-05-01T14:27:56Z</time></trkpt><trkpt lat="44.50817221037927" lon="8.888527753122766"><ele>142.0</ele><time>2026-05-01T14:27:57Z</time></trkpt><trkpt lat="44.508217095798706" lon="8.888410029626618"><ele>142.0</ele><time>2026-05-01T14:27:58Z</time></trkpt><trkpt lat="44.50826369597087" lon="8.888307070481055"><ele>142.0</ele><time>2026-05-01T14:27:59Z</time></trkpt><trkpt lat="44.50831010302899" lon="8.888186849369786"><ele>142.0</ele><time>2026-05-01T14:28:00Z</time></trkpt><trkpt lat="44.508351489185706" lon="8.888082332847608"><ele>142.0</ele><time>2026-05-01T14:28:01Z</time></trkpt><trkpt lat="44.508408365100415" lon="8.887988556272882"><ele>142.0</ele><time>2026-05-01T14:28:02Z</time></trkpt><trkpt lat="44.50844974622854" lon="8.887897411724301"><ele>142.0</ele><time>2026-05-01T14:28:03Z</time></trkpt><trkpt lat="44.50849448039704" lon="8.887799598760672"><ele>142.0</ele><time>2026-05-01T14:28:04Z</time></trkpt><trkpt lat="44.50853627160832" lon="8.887710663139384"><ele>142.0</ele><time>2026-05-01T14:28:05Z</time></trkpt><trkpt lat="44.50857823420401" lon="8.887620610083577"><ele>142.0</ele><time>2026-05-01T14:28:06Z</time></trkpt><trkpt lat="44.50863640615286" lon="8.887558818282312"><ele>142.0</ele><time>2026-05-01T14:28:07Z</time></trkpt><trkpt lat="44.508669594502116" lon="8.887477607569886"><ele>142.0</ele><time>2026-05-01T14:28:08Z</time></trkpt><trkpt lat="44.50871356002829" lon="8.887335271396077"><ele>142.0</ele><time>2026-05-01T14:28:10Z</time></trkpt><trkpt lat="44.50876151362933" lon="8.887248300474145"><ele>142.0</ele><time>2026-05-01T14:28:12Z</time></trkpt><trkpt lat="44.5088253723098" lon="8.887135772971336"><ele>142.0</ele><time>2026-05-01T14:28:14Z</time></trkpt><trkpt lat="44.50887461186756" lon="8.887025454536476"><ele>142.0</ele><time>2026-05-01T14:28:16Z</time></trkpt><trkpt lat="44.50891765561005" lon="8.886935690282355"><ele>142.0</ele><time>2026-05-01T14:28:19Z</time></trkpt><trkpt lat="44.508956587602796" lon="8.886840422220839"><ele>142.0</ele><time>2026-05-01T14:28:21Z</time></trkpt><trkpt lat="44.50898756624243" lon="8.886711001996458"><ele>142.0</ele><time>2026-05-01T14:28:23Z</time></trkpt><trkpt lat="44.509042896581256" lon="8.886651518288758"><ele>142.0</ele><time>2026-05-01T14:28:24Z</time></trkpt><trkpt lat="44.509082003588496" lon="8.886566788266531"><ele>142.0</ele><time>2026-05-01T14:28:25Z</time></trkpt><trkpt lat="44.509150621265334" lon="8.886436648024844"><ele>142.0</ele><time>2026-05-01T14:28:27Z</time></trkpt><trkpt lat="44.50919574659976" lon="8.886358105074619"><ele>142.0</ele><time>2026-05-01T14:28:28Z</time></trkpt><trkpt lat="44.50922434321268" lon="8.886266970434912"><ele>142.0</ele><time>2026-05-01T14:28:29Z</time></trkpt><trkpt lat="44.509260931416875" lon="8.886177939618168"><ele>142.0</ele><time>2026-05-01T14:28:30Z</time></trkpt><trkpt lat="44.509305161001976" lon="8.886092870218903"><ele>142.0</ele><time>2026-05-01T14:28:31Z</time></trkpt><trkpt lat="44.509342208013074" lon="8.886006098138111"><ele>142.0</ele><time>2026-05-01T14:28:32Z</time></trkpt><trkpt lat="44.5093831189364" lon="8.885929552532438"><ele>142.0</ele><time>2026-05-01T14:28:33Z</time></trkpt><trkpt lat="44.50946184847842" lon="8.885793091874394"><ele>142.0</ele><time>2026-05-01T14:28:35Z</time></trkpt><trkpt lat="44.50951241053139" lon="8.885683618171745"><ele>142.0</ele><time>2026-05-01T14:28:37Z</time></trkpt><trkpt lat="44.50957454953352" lon="8.88557946082008"><ele>142.16666666666669</ele><time>2026-05-01T14:28:40Z</time></trkpt><trkpt lat="44.50960950158519" lon="8.885485013644479"><ele>142.33333333333334</ele><time>2026-05-01T14:28:42Z</time></trkpt><trkpt lat="44.50967283529978" lon="8.885343681823583"><ele>142.5</ele><time>2026-05-01T14:28:44Z</time></trkpt><trkpt lat="44.50972892856724" lon="8.885228325005647"><ele>142.66666666666666</ele><time>2026-05-01T14:28:46Z</time></trkpt><trkpt lat="44.50976853874101" lon="8.885143467155515"><ele>142.83333333333331</ele><time>2026-05-01T14:28:47Z</time></trkpt><trkpt lat="44.50980349501038" lon="8.885069946374157"><ele>143.0</ele><time>2026-05-01T14:28:48Z</time></trkpt><trkpt lat="44.509873332575744" lon="8.884923061421633"><ele>143.0</ele><time>2026-05-01T14:28:50Z</time></trkpt><trkpt lat="44.509946497249075" lon="8.88481918466712"><ele>143.0</ele><time>2026-05-01T14:28:51Z</time></trkpt><trkpt lat="44.509975325394514" lon="8.884730487598524"><ele>143.0</ele><time>2026-05-01T14:28:52Z</time></trkpt><trkpt lat="44.51002136338071" lon="8.884653339679767"><ele>143.0</ele><time>2026-05-01T14:28:53Z</time></trkpt><trkpt lat="44.51007309562158" lon="8.884548317485418"><ele>143.0</ele><time>2026-05-01T14:28:54Z</time></trkpt><trkpt lat="44.51012928508798" lon="8.884433978323651"><ele>143.0</ele><time>2026-05-01T14:28:55Z</time></trkpt><trkpt lat="44.5101839523871" lon="8.884315818152745"><ele>142.8</ele><time>2026-05-01T14:28:56Z</time></trkpt><trkpt lat="44.510279688447824" lon="8.884239961733904"><ele>142.60000000000002</ele><time>2026-05-01T14:28:57Z</time></trkpt><trkpt lat="44.51037230676497" lon="8.88421578992917"><ele>142.39999999999998</ele><time>2026-05-01T14:28:58Z</time></trkpt><trkpt lat="44.51044831387792" lon="8.884166402776778"><ele>142.2</ele><time>2026-05-01T14:28:59Z</time></trkpt><trkpt lat="44.51052161514594" lon="8.8841245188686"><ele>142.0</ele><time>2026-05-01T14:29:00Z</time></trkpt><trkpt lat="44.51057428924945" lon="8.884012652529016"><ele>142.0</ele><time>2026-05-01T14:29:02Z</time></trkpt><trkpt lat="44.51050016558713" lon="8.883757008626159"><ele>142.0</ele><time>2026-05-01T14:29:04Z</time></trkpt><trkpt lat="44.51046557124429" lon="8.88361233923241"><ele>142.0</ele><time>2026-05-01T14:29:05Z</time></trkpt><trkpt lat="44.51043537457817" lon="8.88350080721767"><ele>142.0</ele><time>2026-05-01T14:29:06Z</time></trkpt><trkpt lat="44.5104150400391" lon="8.883415159579812"><ele>140.4</ele><time>2026-05-01T14:29:07Z</time></trkpt><trkpt lat="44.51041765067259" lon="8.883307925035478"><ele>138.79999999999998</ele><time>2026-05-01T14:29:09Z</time></trkpt><trkpt lat="44.51039227879088" lon="8.883225787797691"><ele>137.2</ele><time>2026-05-01T14:29:11Z</time></trkpt><trkpt lat="44.510549023749476" lon="8.88310876313674"><ele>135.6</ele><time>2026-05-01T14:29:12Z</time></trkpt><trkpt lat="44.510645157737066" lon="8.883009010536288"><ele>134.0</ele><time>2026-05-01T14:29:13Z</time></trkpt><trkpt lat="44.51073083783559" lon="8.882843745489398"><ele>134.66666666666666</ele><time>2026-05-01T14:29:14Z</time></trkpt><trkpt lat="44.510811726356124" lon="8.882614529127984"><ele>135.33333333333334</ele><time>2026-05-01T14:29:15Z</time></trkpt><trkpt lat="44.510885427701915" lon="8.882393908282884"><ele>136.0</ele><time>2026-05-01T14:29:16Z</time></trkpt><trkpt lat="44.5109336816014" lon="8.882127280556292"><ele>136.0</ele><time>2026-05-01T14:29:17Z</time></trkpt><trkpt lat="44.51097579705807" lon="8.881864780056706"><ele>136.0</ele><time>2026-05-01T14:29:18Z</time></trkpt><trkpt lat="44.51099755823847" lon="8.881600199929215"><ele>136.0</ele><time>2026-05-01T14:29:19Z</time></trkpt><trkpt lat="44.51101751891261" lon="8.881323605112922"><ele>138.0</ele><time>2026-05-01T14:29:20Z</time></trkpt><trkpt lat="44.51104464826518" lon="8.881057598630255"><ele>140.0</ele><time>2026-05-01T14:29:21Z</time></trkpt><trkpt lat="44.511075626496854" lon="8.88080936233993"><ele>142.0</ele><time>2026-05-01T14:29:22Z</time></trkpt><trkpt lat="44.51110964501487" lon="8.880590847393142"><ele>144.25</ele><time>2026-05-01T14:29:23Z</time></trkpt><trkpt lat="44.51114780702305" lon="8.880387476914745"><ele>146.5</ele><time>2026-05-01T14:29:24Z</time></trkpt><trkpt lat="44.51117308299891" lon="8.880195115921254"><ele>148.75</ele><time>2026-05-01T14:29:25Z</time></trkpt><trkpt lat="44.511189433784494" lon="8.88003327384652"><ele>151.0</ele><time>2026-05-01T14:29:26Z</time></trkpt><trkpt lat="44.511190970651086" lon="8.879917591209423"><ele>150.4</ele><time>2026-05-01T14:29:27Z</time></trkpt><trkpt lat="44.51121036354013" lon="8.87979694224876"><ele>149.8</ele><time>2026-05-01T14:29:28Z</time></trkpt><trkpt lat="44.5112680256721" lon="8.879668186338762"><ele>149.20000000000002</ele><time>2026-05-01T14:29:29Z</time></trkpt><trkpt lat="44.511336033118376" lon="8.879551530539606"><ele>148.6</ele><time>2026-05-01T14:29:30Z</time></trkpt><trkpt lat="44.51142006558077" lon="8.879435567327954"><ele>148.0</ele><time>2026-05-01T14:29:31Z</time></trkpt><trkpt lat="44.51150115820769" lon="8.879348444421328"><ele>149.75</ele><time>2026-05-01T14:29:32Z</time></trkpt><trkpt lat="44.51158460698144" lon="8.879242541484626"><ele>151.5</ele><time>2026-05-01T14:29:33Z</time></trkpt><trkpt lat="44.51169671680546" lon="8.879105803609674"><ele>153.25</ele><time>2026-05-01T14:29:34Z</time></trkpt><trkpt lat="44.51179647999866" lon="8.87894867514559"><ele>155.0</ele><time>2026-05-01T14:29:35Z</time></trkpt><trkpt lat="44.511922980466046" lon="8.878803821043421"><ele>155.0</ele><time>2026-05-01T14:29:36Z</time></trkpt><trkpt lat="44.512056567002546" lon="8.878713029559576"><ele>155.0</ele><time>2026-05-01T14:29:37Z</time></trkpt><trkpt lat="44.51219621097161" lon="8.87863863989594"><ele>155.0</ele><time>2026-05-01T14:29:38Z</time></trkpt><trkpt lat="44.512341230197144" lon="8.878553464139728"><ele>155.0</ele><time>2026-05-01T14:29:39Z</time></trkpt><trkpt lat="44.51245140452999" lon="8.878440957376409"><ele>155.0</ele><time>2026-05-01T14:29:40Z</time></trkpt><trkpt lat="44.51251172156886" lon="8.87834245471871"><ele>155.0</ele><time>2026-05-01T14:29:41Z</time></trkpt><trkpt lat="44.51253700056616" lon="8.878187106835078"><ele>155.0</ele><time>2026-05-01T14:29:42Z</time></trkpt><trkpt lat="44.51258379442048" lon="8.877979664751726"><ele>155.0</ele><time>2026-05-01T14:29:43Z</time></trkpt><trkpt lat="44.51265743756088" lon="8.877761004755174"><ele>155.0</ele><time>2026-05-01T14:29:44Z</time></trkpt><trkpt lat="44.512734625492065" lon="8.877559879472127"><ele>155.0</ele><time>2026-05-01T14:29:45Z</time></trkpt><trkpt lat="44.51277986726475" lon="8.87738753321918"><ele>154.75</ele><time>2026-05-01T14:29:46Z</time></trkpt><trkpt lat="44.51280893120522" lon="8.877219077662076"><ele>154.5</ele><time>2026-05-01T14:29:47Z</time></trkpt><trkpt lat="44.51286436043858" lon="8.8770344182602"><ele>154.25</ele><time>2026-05-01T14:29:48Z</time></trkpt><trkpt lat="44.512933420235925" lon="8.87683420294059"><ele>154.0</ele><time>2026-05-01T14:29:49Z</time></trkpt><trkpt lat="44.51300237558777" lon="8.87662527346856"><ele>154.0</ele><time>2026-05-01T14:29:50Z</time></trkpt><trkpt lat="44.513055121511314" lon="8.876398910620136"><ele>154.0</ele><time>2026-05-01T14:29:51Z</time></trkpt><trkpt lat="44.5131143552662" lon="8.876202949764476"><ele>154.0</ele><time>2026-05-01T14:29:52Z</time></trkpt><trkpt lat="44.51315890865248" lon="8.875999126948214"><ele>154.5</ele><time>2026-05-01T14:29:53Z</time></trkpt><trkpt lat="44.513190908914495" lon="8.875781911342838"><ele>155.0</ele><time>2026-05-01T14:29:54Z</time></trkpt><trkpt lat="44.513196236746225" lon="8.875587722555956"><ele>155.5</ele><time>2026-05-01T14:29:55Z</time></trkpt><trkpt lat="44.51320761198082" lon="8.875380940272679"><ele>156.0</ele><time>2026-05-01T14:29:56Z</time></trkpt><trkpt lat="44.51322158071525" lon="8.875159776678574"><ele>157.5</ele><time>2026-05-01T14:29:57Z</time></trkpt><trkpt lat="44.513244385013195" lon="8.87495704135337"><ele>159.0</ele><time>2026-05-01T14:29:58Z</time></trkpt><trkpt lat="44.51328903092367" lon="8.874760099369807"><ele>160.5</ele><time>2026-05-01T14:29:59.001Z</time></trkpt><trkpt lat="44.51334735598206" lon="8.874568389127532"><ele>162.0</ele><time>2026-05-01T14:30:00.001Z</time></trkpt><trkpt lat="44.51340489635439" lon="8.874425066993517"><ele>162.0</ele><time>2026-05-01T14:30:01.001Z</time></trkpt><trkpt lat="44.513447005940584" lon="8.874278380968462"><ele>162.0</ele><time>2026-05-01T14:30:02.001Z</time></trkpt><trkpt lat="44.51347725301183" lon="8.87413115012831"><ele>162.0</ele><time>2026-05-01T14:30:03.001Z</time></trkpt><trkpt lat="44.51348794377481" lon="8.873961940634311"><ele>162.0</ele><time>2026-05-01T14:30:04.001Z</time></trkpt><trkpt lat="44.51345192094517" lon="8.873760708350614"><ele>162.0</ele><time>2026-05-01T14:30:05.001Z</time></trkpt><trkpt lat="44.513425485007836" lon="8.873573770730838"><ele>162.0</ele><time>2026-05-01T14:30:06.001Z</time></trkpt><trkpt lat="44.51337525118759" lon="8.8734057997485"><ele>162.0</ele><time>2026-05-01T14:30:07.001Z</time></trkpt><trkpt lat="44.513308334257005" lon="8.873242021224542"><ele>162.0</ele><time>2026-05-01T14:30:08.001Z</time></trkpt><trkpt lat="44.51322683724033" lon="8.873091460450057"><ele>162.0</ele><time>2026-05-01T14:30:09.001Z</time></trkpt><trkpt lat="44.513122503378895" lon="8.872959714137489"><ele>162.0</ele><time>2026-05-01T14:30:10.001Z</time></trkpt><trkpt lat="44.51297637300712" lon="8.872833608981516"><ele>162.0</ele><time>2026-05-01T14:30:11.001Z</time></trkpt><trkpt lat="44.51282870221459" lon="8.872653465990778"><ele>167.5</ele><time>2026-05-01T14:30:12.001Z</time></trkpt><trkpt lat="44.512653648735856" lon="8.872451429698977"><ele>173.0</ele><time>2026-05-01T14:30:13.001Z</time></trkpt><trkpt lat="44.51247311722763" lon="8.872231712254496"><ele>173.0</ele><time>2026-05-01T14:30:14.001Z</time></trkpt><trkpt lat="44.51231950921046" lon="8.872043276890798"><ele>173.0</ele><time>2026-05-01T14:30:15.001Z</time></trkpt><trkpt lat="44.512187298311794" lon="8.871872453976197"><ele>173.0</ele><time>2026-05-01T14:30:16.001Z</time></trkpt><trkpt lat="44.51205880332577" lon="8.871703623899085"><ele>176.0</ele><time>2026-05-01T14:30:17.001Z</time></trkpt><trkpt lat="44.511917915934035" lon="8.87151849921214"><ele>179.0</ele><time>2026-05-01T14:30:18.001Z</time></trkpt><trkpt lat="44.51175226783556" lon="8.871367334154966"><ele>182.0</ele><time>2026-05-01T14:30:19.001Z</time></trkpt><trkpt lat="44.51160834294315" lon="8.871174803945237"><ele>182.0</ele><time>2026-05-01T14:30:20.001Z</time></trkpt><trkpt lat="44.51147300207697" lon="8.870963651127626"><ele>182.0</ele><time>2026-05-01T14:30:21.001Z</time></trkpt><trkpt lat="44.5113399521187" lon="8.870746507845327"><ele>182.0</ele><time>2026-05-01T14:30:22.001Z</time></trkpt><trkpt lat="44.5112121902706" lon="8.870512432796376"><ele>182.5</ele><time>2026-05-01T14:30:23.001Z</time></trkpt><trkpt lat="44.51110847522681" lon="8.870226548267114"><ele>183.0</ele><time>2026-05-01T14:30:24.001Z</time></trkpt><trkpt lat="44.51097806622849" lon="8.869970347112114"><ele>183.0</ele><time>2026-05-01T14:30:25.001Z</time></trkpt><trkpt lat="44.51086671295598" lon="8.869737972639317"><ele>183.0</ele><time>2026-05-01T14:30:26.001Z</time></trkpt><trkpt lat="44.510761565985305" lon="8.869503593239463"><ele>183.0</ele><time>2026-05-01T14:30:27.001Z</time></trkpt><trkpt lat="44.5106725285992" lon="8.869285309865413"><ele>179.0</ele><time>2026-05-01T14:30:28.001Z</time></trkpt><trkpt lat="44.51059388780273" lon="8.869062574103495"><ele>175.0</ele><time>2026-05-01T14:30:29.001Z</time></trkpt><trkpt lat="44.51051998507834" lon="8.868842167459693"><ele>171.0</ele><time>2026-05-01T14:30:30.001Z</time></trkpt><trkpt lat="44.510411225714144" lon="8.868633026550636"><ele>173.0</ele><time>2026-05-01T14:30:31.001Z</time></trkpt><trkpt lat="44.51028255536205" lon="8.868421355771185"><ele>175.0</ele><time>2026-05-01T14:30:32Z</time></trkpt><trkpt lat="44.51013189516008" lon="8.868206058654252"><ele>177.0</ele><time>2026-05-01T14:30:33Z</time></trkpt><trkpt lat="44.510009824111016" lon="8.8679723564112"><ele>177.0</ele><time>2026-05-01T14:30:34Z</time></trkpt><trkpt lat="44.50989710519794" lon="8.86777093350939"><ele>177.0</ele><time>2026-05-01T14:30:35Z</time></trkpt><trkpt lat="44.5097613129345" lon="8.867616138131973"><ele>177.0</ele><time>2026-05-01T14:30:36Z</time></trkpt><trkpt lat="44.50960210814896" lon="8.867500826508778"><ele>179.75</ele><time>2026-05-01T14:30:37Z</time></trkpt><trkpt lat="44.50945453604041" lon="8.867382072211688"><ele>182.5</ele><time>2026-05-01T14:30:38Z</time></trkpt><trkpt lat="44.50934251811742" lon="8.867266623826506"><ele>185.25</ele><time>2026-05-01T14:30:39Z</time></trkpt><trkpt lat="44.50927715616339" lon="8.867125012522886"><ele>188.0</ele><time>2026-05-01T14:30:40Z</time></trkpt><trkpt lat="44.509207214351136" lon="8.866947558533084"><ele>188.0</ele><time>2026-05-01T14:30:41Z</time></trkpt><trkpt lat="44.509144415915664" lon="8.866784977842189"><ele>188.0</ele><time>2026-05-01T14:30:42Z</time></trkpt><trkpt lat="44.509090982767276" lon="8.866639086810869"><ele>188.0</ele><time>2026-05-01T14:30:43Z</time></trkpt><trkpt lat="44.50909490758723" lon="8.866469295359652"><ele>188.0</ele><time>2026-05-01T14:30:44Z</time></trkpt><trkpt lat="44.50910131510926" lon="8.866263915501122"><ele>187.33333333333331</ele><time>2026-05-01T14:30:45Z</time></trkpt><trkpt lat="44.50910415861057" lon="8.866036941102642"><ele>186.66666666666666</ele><time>2026-05-01T14:30:46Z</time></trkpt><trkpt lat="44.50908670460635" lon="8.865811461585267"><ele>186.0</ele><time>2026-05-01T14:30:47Z</time></trkpt><trkpt lat="44.50906000148649" lon="8.865624909033228"><ele>186.0</ele><time>2026-05-01T14:30:48Z</time></trkpt><trkpt lat="44.50902988925666" lon="8.865440812839783"><ele>186.0</ele><time>2026-05-01T14:30:49Z</time></trkpt><trkpt lat="44.50898716753507" lon="8.865243682685477"><ele>186.0</ele><time>2026-05-01T14:30:50Z</time></trkpt><trkpt lat="44.508934219499736" lon="8.865054719591054"><ele>186.0</ele><time>2026-05-01T14:30:51Z</time></trkpt><trkpt lat="44.50889332030411" lon="8.864901269235904"><ele>187.8</ele><time>2026-05-01T14:30:52Z</time></trkpt><trkpt lat="44.508862514602484" lon="8.864779088394677"><ele>189.60000000000002</ele><time>2026-05-01T14:30:53Z</time></trkpt><trkpt lat="44.5088373234951" lon="8.864666123345305"><ele>191.4</ele><time>2026-05-01T14:30:54Z</time></trkpt><trkpt lat="44.50881323106713" lon="8.864488326953534"><ele>193.2</ele><time>2026-05-01T14:30:56Z</time></trkpt><trkpt lat="44.50882294976429" lon="8.864356700780535"><ele>195.0</ele><time>2026-05-01T14:30:57Z</time></trkpt><trkpt lat="44.50883375724495" lon="8.864217480942912"><ele>195.2</ele><time>2026-05-01T14:30:58Z</time></trkpt><trkpt lat="44.50886262693179" lon="8.864112150178828"><ele>195.4</ele><time>2026-05-01T14:30:59Z</time></trkpt><trkpt lat="44.50892080851943" lon="8.863971948852674"><ele>195.60000000000002</ele><time>2026-05-01T14:31:01Z</time></trkpt><trkpt lat="44.50898716110906" lon="8.863894175346308"><ele>195.8</ele><time>2026-05-01T14:31:03Z</time></trkpt><trkpt lat="44.50893764969463" lon="8.863777858596334"><ele>196.0</ele><time>2026-05-01T14:31:05Z</time></trkpt><trkpt lat="44.508892609529916" lon="8.863690743445197"><ele>195.99999999999997</ele><time>2026-05-01T14:31:06Z</time></trkpt><trkpt lat="44.508856417683155" lon="8.86358352808082"><ele>196.0</ele><time>2026-05-01T14:31:07Z</time></trkpt><trkpt lat="44.50882135091868" lon="8.863473642910558"><ele>196.0</ele><time>2026-05-01T14:31:08Z</time></trkpt><trkpt lat="44.508727401580146" lon="8.863449269234106"><ele>196.0</ele><time>2026-05-01T14:31:09Z</time></trkpt><trkpt lat="44.50863992720964" lon="8.863425187964236"><ele>195.99999999999997</ele><time>2026-05-01T14:31:10Z</time></trkpt><trkpt lat="44.50855096558478" lon="8.86338776728823"><ele>196.0</ele><time>2026-05-01T14:31:11Z</time></trkpt><trkpt lat="44.50847722951409" lon="8.863317092884031"><ele>196.0</ele><time>2026-05-01T14:31:12Z</time></trkpt><trkpt lat="44.508394706370275" lon="8.863210721861984"><ele>196.0</ele><time>2026-05-01T14:31:13Z</time></trkpt><trkpt lat="44.50830120385538" lon="8.863085027721185"><ele>196.0</ele><time>2026-05-01T14:31:14Z</time></trkpt><trkpt lat="44.508202158532505" lon="8.862949839655968"><ele>196.0</ele><time>2026-05-01T14:31:15Z</time></trkpt><trkpt lat="44.50811627621745" lon="8.8628032098748"><ele>196.0</ele><time>2026-05-01T14:31:16Z</time></trkpt><trkpt lat="44.50806949403344" lon="8.862634836226507"><ele>196.0</ele><time>2026-05-01T14:31:17Z</time></trkpt><trkpt lat="44.50800977627187" lon="8.862492392315074"><ele>196.0</ele><time>2026-05-01T14:31:18Z</time></trkpt><trkpt lat="44.50791718590422" lon="8.862376081542203"><ele>196.0</ele><time>2026-05-01T14:31:19Z</time></trkpt><trkpt lat="44.5078303649673" lon="8.862258981076925"><ele>198.0</ele><time>2026-05-01T14:31:20Z</time></trkpt><trkpt lat="44.507763269995216" lon="8.862148541394987"><ele>200.0</ele><time>2026-05-01T14:31:21Z</time></trkpt><trkpt lat="44.507750404944765" lon="8.862022999916745"><ele>202.0</ele><time>2026-05-01T14:31:22Z</time></trkpt><trkpt lat="44.50772037831203" lon="8.861895905253593"><ele>204.0</ele><time>2026-05-01T14:31:23Z</time></trkpt><trkpt lat="44.50767838356569" lon="8.861779642973017"><ele>206.0</ele><time>2026-05-01T14:31:24Z</time></trkpt><trkpt lat="44.507557315623856" lon="8.8617082193372"><ele>208.5</ele><time>2026-05-01T14:31:25Z</time></trkpt><trkpt lat="44.50743776225881" lon="8.861665218857338"><ele>211.0</ele><time>2026-05-01T14:31:26Z</time></trkpt><trkpt lat="44.50730650087963" lon="8.861628654958164"><ele>213.5</ele><time>2026-05-01T14:31:27Z</time></trkpt><trkpt lat="44.507146126966376" lon="8.861582345181265"><ele>216.0</ele><time>2026-05-01T14:31:28Z</time></trkpt><trkpt lat="44.506995366199924" lon="8.861562903441232"><ele>216.0</ele><time>2026-05-01T14:31:29Z</time></trkpt><trkpt lat="44.50688089414384" lon="8.861531075685253"><ele>216.0</ele><time>2026-05-01T14:31:30Z</time></trkpt><trkpt lat="44.50676685022738" lon="8.861457695514744"><ele>216.0</ele><time>2026-05-01T14:31:31Z</time></trkpt><trkpt lat="44.506641053431856" lon="8.861404270709814"><ele>216.0</ele><time>2026-05-01T14:31:32Z</time></trkpt><trkpt lat="44.50653306870772" lon="8.86135801042661"><ele>216.0</ele><time>2026-05-01T14:31:33Z</time></trkpt><trkpt lat="44.50643180780723" lon="8.861353796147618"><ele>216.00000000000003</ele><time>2026-05-01T14:31:34Z</time></trkpt><trkpt lat="44.50635426709304" lon="8.861332759931546"><ele>216.00000000000003</ele><time>2026-05-01T14:31:35Z</time></trkpt><trkpt lat="44.50625764837089" lon="8.861302104682043"><ele>216.0</ele><time>2026-05-01T14:31:37Z</time></trkpt><trkpt lat="44.5062169317456" lon="8.861195827847299"><ele>216.0</ele><time>2026-05-01T14:31:39Z</time></trkpt><trkpt lat="44.50630067350103" lon="8.861096026002237"><ele>216.0</ele><time>2026-05-01T14:31:41Z</time></trkpt><trkpt lat="44.50638723897007" lon="8.861111604804305"><ele>216.0</ele><time>2026-05-01T14:31:42Z</time></trkpt><trkpt lat="44.50648577958567" lon="8.861193615723943"><ele>216.0</ele><time>2026-05-01T14:31:43Z</time></trkpt><trkpt lat="44.506627693924486" lon="8.861208704553926"><ele>216.0</ele><time>2026-05-01T14:31:44Z</time></trkpt><trkpt lat="44.50676845538391" lon="8.861233180799223"><ele>216.0</ele><time>2026-05-01T14:31:45Z</time></trkpt><trkpt lat="44.506877613937284" lon="8.861249515604426"><ele>216.00000000000003</ele><time>2026-05-01T14:31:46Z</time></trkpt><trkpt lat="44.506968356620575" lon="8.861232462890191"><ele>216.00000000000003</ele><time>2026-05-01T14:31:47.001Z</time></trkpt><trkpt lat="44.507058032723094" lon="8.861143770379641"><ele>216.0</ele><time>2026-05-01T14:31:48.001Z</time></trkpt><trkpt lat="44.50717017989691" lon="8.861096275700254"><ele>216.0</ele><time>2026-05-01T14:31:49.001Z</time></trkpt><trkpt lat="44.50729222806043" lon="8.861111123333183"><ele>217.5</ele><time>2026-05-01T14:31:50.001Z</time></trkpt><trkpt lat="44.50744012974113" lon="8.861161175231096"><ele>219.0</ele><time>2026-05-01T14:31:51.001Z</time></trkpt><trkpt lat="44.50759001794176" lon="8.861137333111587"><ele>220.5</ele><time>2026-05-01T14:31:52.001Z</time></trkpt><trkpt lat="44.50773112385574" lon="8.861136756207479"><ele>222.0</ele><time>2026-05-01T14:31:53.001Z</time></trkpt><trkpt lat="44.50785269279637" lon="8.861225635329822"><ele>224.0</ele><time>2026-05-01T14:31:54.001Z</time></trkpt><trkpt lat="44.50798925911907" lon="8.861233196995663"><ele>226.0</ele><time>2026-05-01T14:31:55.001Z</time></trkpt><trkpt lat="44.5081277825669" lon="8.861249690050702"><ele>228.0</ele><time>2026-05-01T14:31:56.001Z</time></trkpt><trkpt lat="44.50828443108161" lon="8.861216082402029"><ele>230.0</ele><time>2026-05-01T14:31:57.001Z</time></trkpt><trkpt lat="44.508419952089696" lon="8.86126710158278"><ele>230.0</ele><time>2026-05-01T14:31:58.001Z</time></trkpt><trkpt lat="44.50855027613801" lon="8.861315722419578"><ele>230.0</ele><time>2026-05-01T14:31:59.001Z</time></trkpt><trkpt lat="44.50864310591044" lon="8.8613306351174"><ele>230.0</ele><time>2026-05-01T14:32:00.001Z</time></trkpt><trkpt lat="44.5087453650818" lon="8.861273718614045"><ele>230.0</ele><time>2026-05-01T14:32:01.001Z</time></trkpt><trkpt lat="44.50885319370997" lon="8.861194325554058"><ele>229.2</ele><time>2026-05-01T14:32:02.001Z</time></trkpt><trkpt lat="44.50895326365043" lon="8.861083909962282"><ele>228.4</ele><time>2026-05-01T14:32:03.001Z</time></trkpt><trkpt lat="44.5090134743133" lon="8.860984225730665"><ele>227.60000000000002</ele><time>2026-05-01T14:32:04.001Z</time></trkpt><trkpt lat="44.50903563117328" lon="8.860869505917899"><ele>226.8</ele><time>2026-05-01T14:32:05.001Z</time></trkpt><trkpt lat="44.509012122313585" lon="8.860741598634164"><ele>226.0</ele><time>2026-05-01T14:32:06.001Z</time></trkpt><trkpt lat="44.50896747617898" lon="8.860607252071441"><ele>229.5</ele><time>2026-05-01T14:32:07.001Z</time></trkpt><trkpt lat="44.508944701273094" lon="8.860475948434829"><ele>233.0</ele><time>2026-05-01T14:32:08.001Z</time></trkpt><trkpt lat="44.50898213226736" lon="8.860336058449708"><ele>236.5</ele><time>2026-05-01T14:32:09.001Z</time></trkpt><trkpt lat="44.50904196563292" lon="8.860198908751139"><ele>240.0</ele><time>2026-05-01T14:32:10.001Z</time></trkpt><trkpt lat="44.50911244109215" lon="8.860039334355548"><ele>244.5</ele><time>2026-05-01T14:32:11.001Z</time></trkpt><trkpt lat="44.509205384887274" lon="8.859929749643712"><ele>249.0</ele><time>2026-05-01T14:32:12.001Z</time></trkpt><trkpt lat="44.50932087186483" lon="8.859856068907925"><ele>253.5</ele><time>2026-05-01T14:32:13.001Z</time></trkpt><trkpt lat="44.50943526045926" lon="8.85982673719873"><ele>258.0</ele><time>2026-05-01T14:32:14.001Z</time></trkpt><trkpt lat="44.50954061942227" lon="8.85980136240082"><ele>258.0</ele><time>2026-05-01T14:32:15.001Z</time></trkpt><trkpt lat="44.509609373726065" lon="8.859818943351682"><ele>258.0</ele><time>2026-05-01T14:32:16.001Z</time></trkpt><trkpt lat="44.50970586683952" lon="8.859767939487295"><ele>258.0</ele><time>2026-05-01T14:32:18.001Z</time></trkpt><trkpt lat="44.5097139210605" lon="8.859678915482782"><ele>258.0</ele><time>2026-05-01T14:32:19.001Z</time></trkpt><trkpt lat="44.50968577929183" lon="8.85959647900959"><ele>258.0</ele><time>2026-05-01T14:32:20.001Z</time></trkpt><trkpt lat="44.509623690123796" lon="8.859543225691246"><ele>258.0</ele><time>2026-05-01T14:32:21.001Z</time></trkpt><trkpt lat="44.50954004827424" lon="8.85953365472204"><ele>258.0</ele><time>2026-05-01T14:32:22.001Z</time></trkpt><trkpt lat="44.50941885527012" lon="8.859542084657326"><ele>258.0</ele><time>2026-05-01T14:32:23.001Z</time></trkpt><trkpt lat="44.50929538217609" lon="8.859536676214285"><ele>258.0</ele><time>2026-05-01T14:32:24.001Z</time></trkpt><trkpt lat="44.5091712626561" lon="8.859532966828109"><ele>258.0</ele><time>2026-05-01T14:32:25.001Z</time></trkpt><trkpt lat="44.509053871137795" lon="8.859595381504725"><ele>258.0</ele><time>2026-05-01T14:32:26.001Z</time></trkpt><trkpt lat="44.50895113741317" lon="8.859684838367714"><ele>258.0</ele><time>2026-05-01T14:32:27.001Z</time></trkpt><trkpt lat="44.50885644002357" lon="8.859825030600263"><ele>258.0</ele><time>2026-05-01T14:32:28.001Z</time></trkpt><trkpt lat="44.50874302924942" lon="8.859969284533308"><ele>258.0</ele><time>2026-05-01T14:32:29.001Z</time></trkpt><trkpt lat="44.50861791654896" lon="8.860088742410273"><ele>257.0</ele><time>2026-05-01T14:32:30.001Z</time></trkpt><trkpt lat="44.508507526780335" lon="8.86018544105767"><ele>256.0</ele><time>2026-05-01T14:32:31.001Z</time></trkpt><trkpt lat="44.50841833854747" lon="8.860262127090918"><ele>255.0</ele><time>2026-05-01T14:32:32.001Z</time></trkpt><trkpt lat="44.5083358174357" lon="8.860307468785784"><ele>254.0</ele><time>2026-05-01T14:32:33.001Z</time></trkpt><trkpt lat="44.50825408466086" lon="8.860305351696756"><ele>253.0</ele><time>2026-05-01T14:32:34.001Z</time></trkpt><trkpt lat="44.50815985700265" lon="8.860278938711808"><ele>253.0</ele><time>2026-05-01T14:32:35.001Z</time></trkpt><trkpt lat="44.508074105547514" lon="8.86019589151"><ele>253.0</ele><time>2026-05-01T14:32:36.001Z</time></trkpt><trkpt lat="44.508012173373544" lon="8.86007086763397"><ele>253.0</ele><time>2026-05-01T14:32:37.001Z</time></trkpt><trkpt lat="44.5079616108332" lon="8.859945988577522"><ele>253.0</ele><time>2026-05-01T14:32:38.001Z</time></trkpt><trkpt lat="44.5079355078583" lon="8.859798562490655"><ele>253.0</ele><time>2026-05-01T14:32:39.001Z</time></trkpt><trkpt lat="44.50786705481032" lon="8.859648240348315"><ele>256.25</ele><time>2026-05-01T14:32:40.001Z</time></trkpt><trkpt lat="44.50779004393532" lon="8.859495693082906"><ele>259.5</ele><time>2026-05-01T14:32:41.001Z</time></trkpt><trkpt lat="44.50775639608427" lon="8.859362320862882"><ele>262.75</ele><time>2026-05-01T14:32:42.001Z</time></trkpt><trkpt lat="44.507745978650185" lon="8.85923450424028"><ele>266.0</ele><time>2026-05-01T14:32:43.001Z</time></trkpt><trkpt lat="44.50774040015846" lon="8.859060068624713"><ele>269.25</ele><time>2026-05-01T14:32:44.001Z</time></trkpt><trkpt lat="44.5076869514799" lon="8.85886058303573"><ele>272.5</ele><time>2026-05-01T14:32:45.001Z</time></trkpt><trkpt lat="44.50765822581571" lon="8.858686263527149"><ele>275.75</ele><time>2026-05-01T14:32:46.001Z</time></trkpt><trkpt lat="44.507630112200935" lon="8.858541723116835"><ele>279.0</ele><time>2026-05-01T14:32:47.001Z</time></trkpt><trkpt lat="44.5075779205366" lon="8.85844199655742"><ele>282.75</ele><time>2026-05-01T14:32:48.001Z</time></trkpt><trkpt lat="44.50748025402781" lon="8.858403743486855"><ele>286.5</ele><time>2026-05-01T14:32:49.001Z</time></trkpt><trkpt lat="44.50734076996645" lon="8.858385666785956"><ele>290.25</ele><time>2026-05-01T14:32:50.001Z</time></trkpt><trkpt lat="44.507172196816775" lon="8.858356453090146"><ele>294.0</ele><time>2026-05-01T14:32:51.001Z</time></trkpt><trkpt lat="44.50702401079077" lon="8.858321500376615"><ele>294.0</ele><time>2026-05-01T14:32:52.001Z</time></trkpt><trkpt lat="44.506904252729505" lon="8.858290019559567"><ele>294.0</ele><time>2026-05-01T14:32:53.001Z</time></trkpt><trkpt lat="44.506808375422345" lon="8.858242484261718"><ele>294.0</ele><time>2026-05-01T14:32:54.001Z</time></trkpt><trkpt lat="44.50671986449364" lon="8.85814889975014"><ele>294.0</ele><time>2026-05-01T14:32:55.001Z</time></trkpt><trkpt lat="44.506636076295244" lon="8.858021691793494"><ele>294.0</ele><time>2026-05-01T14:32:56.001Z</time></trkpt><trkpt lat="44.50656746771405" lon="8.857850071523462"><ele>294.0</ele><time>2026-05-01T14:32:57.001Z</time></trkpt><trkpt lat="44.50644285098901" lon="8.857762606822538"><ele>294.0</ele><time>2026-05-01T14:32:58.001Z</time></trkpt><trkpt lat="44.506330245260536" lon="8.857672896399873"><ele>294.0</ele><time>2026-05-01T14:32:59Z</time></trkpt><trkpt lat="44.50622739174073" lon="8.85758711629864"><ele>297.0</ele><time>2026-05-01T14:33:00Z</time></trkpt><trkpt lat="44.50613082280506" lon="8.85750655907077"><ele>300.0</ele><time>2026-05-01T14:33:01Z</time></trkpt><trkpt lat="44.506053495705174" lon="8.857420981598041"><ele>303.0</ele><time>2026-05-01T14:33:02Z</time></trkpt><trkpt lat="44.50594629417537" lon="8.857392983653547"><ele>306.0</ele><time>2026-05-01T14:33:03Z</time></trkpt><trkpt lat="44.50580746082777" lon="8.857414383129253"><ele>306.0</ele><time>2026-05-01T14:33:04Z</time></trkpt><trkpt lat="44.50569580563253" lon="8.857376794792831"><ele>306.0</ele><time>2026-05-01T14:33:05Z</time></trkpt><trkpt lat="44.50560973098761" lon="8.85731175584561"><ele>306.0</ele><time>2026-05-01T14:33:06Z</time></trkpt><trkpt lat="44.50551909966866" lon="8.857193300645173"><ele>306.0</ele><time>2026-05-01T14:33:07Z</time></trkpt><trkpt lat="44.50540581160217" lon="8.857034747800238"><ele>308.0</ele><time>2026-05-01T14:33:08Z</time></trkpt><trkpt lat="44.505306946034985" lon="8.856905621790139"><ele>310.0</ele><time>2026-05-01T14:33:09Z</time></trkpt><trkpt lat="44.50523556396604" lon="8.856816028777333"><ele>312.0</ele><time>2026-05-01T14:33:10Z</time></trkpt><trkpt lat="44.50517143323544" lon="8.856755464294732"><ele>314.0</ele><time>2026-05-01T14:33:11Z</time></trkpt><trkpt lat="44.50510453616428" lon="8.856644661118809"><ele>316.0</ele><time>2026-05-01T14:33:12Z</time></trkpt><trkpt lat="44.505025913099566" lon="8.856545336354959"><ele>316.0</ele><time>2026-05-01T14:33:13Z</time></trkpt><trkpt lat="44.50493155691582" lon="8.856464638426967"><ele>316.0</ele><time>2026-05-01T14:33:14Z</time></trkpt><trkpt lat="44.504872565598774" lon="8.856358723861279"><ele>316.0</ele><time>2026-05-01T14:33:15Z</time></trkpt><trkpt lat="44.50483316085" lon="8.85628213420622"><ele>316.0</ele><time>2026-05-01T14:33:16Z</time></trkpt><trkpt lat="44.50480617389464" lon="8.856183000116314"><ele>316.0</ele><time>2026-05-01T14:33:17Z</time></trkpt><trkpt lat="44.50480689464111" lon="8.856069728172569"><ele>316.0</ele><time>2026-05-01T14:33:18Z</time></trkpt><trkpt lat="44.50481359850461" lon="8.855918115863998"><ele>319.0</ele><time>2026-05-01T14:33:19Z</time></trkpt><trkpt lat="44.50481593102004" lon="8.855774821141416"><ele>322.0</ele><time>2026-05-01T14:33:20Z</time></trkpt><trkpt lat="44.504777166659885" lon="8.855676032140883"><ele>325.0</ele><time>2026-05-01T14:33:21Z</time></trkpt><trkpt lat="44.504707687496854" lon="8.855592423902523"><ele>328.0</ele><time>2026-05-01T14:33:22Z</time></trkpt><trkpt lat="44.504604571528574" lon="8.855523939383115"><ele>331.0</ele><time>2026-05-01T14:33:23Z</time></trkpt><trkpt lat="44.50450112048802" lon="8.855480291480072"><ele>331.0</ele><time>2026-05-01T14:33:24.001Z</time></trkpt><trkpt lat="44.50440971998467" lon="8.855477439452194"><ele>331.0</ele><time>2026-05-01T14:33:25.001Z</time></trkpt><trkpt lat="44.50432686354228" lon="8.855549188190063"><ele>331.0</ele><time>2026-05-01T14:33:26.001Z</time></trkpt><trkpt lat="44.50425763602114" lon="8.855661572447351"><ele>331.0</ele><time>2026-05-01T14:33:27.001Z</time></trkpt><trkpt lat="44.50418906879674" lon="8.855793264111465"><ele>331.0</ele><time>2026-05-01T14:33:28.001Z</time></trkpt><trkpt lat="44.50411590771287" lon="8.855871482886004"><ele>331.0</ele><time>2026-05-01T14:33:29.001Z</time></trkpt><trkpt lat="44.504037762333745" lon="8.855874289281132"><ele>331.0</ele><time>2026-05-01T14:33:30.001Z</time></trkpt><trkpt lat="44.50390972264577" lon="8.85582570748097"><ele>331.0</ele><time>2026-05-01T14:33:32.001Z</time></trkpt><trkpt lat="44.50382716362315" lon="8.855892037584782"><ele>331.0</ele><time>2026-05-01T14:33:34.001Z</time></trkpt><trkpt lat="44.50381479488028" lon="8.855798356271983"><ele>331.0</ele><time>2026-05-01T14:33:35.001Z</time></trkpt><trkpt lat="44.50383085425741" lon="8.855683381733549"><ele>331.0</ele><time>2026-05-01T14:33:37.001Z</time></trkpt><trkpt lat="44.50389017506761" lon="8.855613594487911"><ele>331.0</ele><time>2026-05-01T14:33:38.001Z</time></trkpt><trkpt lat="44.50398475876147" lon="8.855600589074276"><ele>331.0</ele><time>2026-05-01T14:33:39.001Z</time></trkpt><trkpt lat="44.50407759478866" lon="8.855610960740034"><ele>331.0</ele><time>2026-05-01T14:33:40.001Z</time></trkpt><trkpt lat="44.504156311408536" lon="8.85559650110472"><ele>331.0</ele><time>2026-05-01T14:33:41.001Z</time></trkpt><trkpt lat="44.50422909546004" lon="8.855524172135759"><ele>331.0</ele><time>2026-05-01T14:33:42.001Z</time></trkpt><trkpt lat="44.5042732083755" lon="8.855408410473506"><ele>331.0</ele><time>2026-05-01T14:33:43.001Z</time></trkpt><trkpt lat="44.50428735376342" lon="8.855285614338138"><ele>331.0</ele><time>2026-05-01T14:33:44.001Z</time></trkpt><trkpt lat="44.50428949611708" lon="8.85516394596427"><ele>331.0</ele><time>2026-05-01T14:33:45.001Z</time></trkpt><trkpt lat="44.504272954035315" lon="8.855041123842613"><ele>331.0</ele><time>2026-05-01T14:33:46.001Z</time></trkpt><trkpt lat="44.504251862094975" lon="8.854915029891835"><ele>331.0</ele><time>2026-05-01T14:33:47.001Z</time></trkpt><trkpt lat="44.50423943769591" lon="8.854792645909018"><ele>331.0</ele><time>2026-05-01T14:33:48.001Z</time></trkpt><trkpt lat="44.50425532087972" lon="8.854700502512003"><ele>334.16666666666663</ele><time>2026-05-01T14:33:49.001Z</time></trkpt><trkpt lat="44.504283952548235" lon="8.854608806503967"><ele>337.3333333333333</ele><time>2026-05-01T14:33:50.001Z</time></trkpt><trkpt lat="44.50436686258387" lon="8.854629605464341"><ele>340.5</ele><time>2026-05-01T14:33:51.001Z</time></trkpt><trkpt lat="44.504470747718244" lon="8.85470052013579"><ele>343.6666666666667</ele><time>2026-05-01T14:33:53.001Z</time></trkpt><trkpt lat="44.5045399740404" lon="8.85473230494355"><ele>346.83333333333337</ele><time>2026-05-01T14:33:54.001Z</time></trkpt><trkpt lat="44.504608022008874" lon="8.854773365213463"><ele>350.0</ele><time>2026-05-01T14:33:55.001Z</time></trkpt><trkpt lat="44.50465964626126" lon="8.85484562066402"><ele>350.6666666666667</ele><time>2026-05-01T14:33:56.001Z</time></trkpt><trkpt lat="44.50471887231201" lon="8.85492683030612"><ele>351.33333333333337</ele><time>2026-05-01T14:33:57.001Z</time></trkpt><trkpt lat="44.50476295061075" lon="8.855000771337178"><ele>352.0</ele><time>2026-05-01T14:33:58.001Z</time></trkpt><trkpt lat="44.50482036191912" lon="8.855044505747026"><ele>352.6666666666667</ele><time>2026-05-01T14:33:59.001Z</time></trkpt><trkpt lat="44.50489753226045" lon="8.855070865051637"><ele>353.3333333333333</ele><time>2026-05-01T14:34:00.001Z</time></trkpt><trkpt lat="44.50499240710938" lon="8.85503083410916"><ele>354.0</ele><time>2026-05-01T14:34:01.001Z</time></trkpt><trkpt lat="44.50508342104603" lon="8.855034033629357"><ele>354.0</ele><time>2026-05-01T14:34:02.001Z</time></trkpt><trkpt lat="44.50516057394881" lon="8.855098117774363"><ele>354.0</ele><time>2026-05-01T14:34:03.001Z</time></trkpt><trkpt lat="44.50522776494127" lon="8.855193328398846"><ele>354.0</ele><time>2026-05-01T14:34:04.001Z</time></trkpt><trkpt lat="44.50530062205071" lon="8.855273309010343"><ele>354.0</ele><time>2026-05-01T14:34:05.001Z</time></trkpt><trkpt lat="44.505387757795134" lon="8.85531577069505"><ele>354.0</ele><time>2026-05-01T14:34:06.001Z</time></trkpt><trkpt lat="44.50548232014912" lon="8.855310401499755"><ele>352.2</ele><time>2026-05-01T14:34:07.001Z</time></trkpt><trkpt lat="44.50557752037462" lon="8.855265249754344"><ele>350.4</ele><time>2026-05-01T14:34:08.001Z</time></trkpt><trkpt lat="44.50567416620348" lon="8.855207529717804"><ele>348.6</ele><time>2026-05-01T14:34:09.001Z</time></trkpt><trkpt lat="44.50578260038812" lon="8.855175056297757"><ele>346.8</ele><time>2026-05-01T14:34:10.001Z</time></trkpt><trkpt lat="44.50589932309771" lon="8.855120110687462"><ele>345.0</ele><time>2026-05-01T14:34:11.001Z</time></trkpt><trkpt lat="44.50601488381058" lon="8.855064446756788"><ele>348.8</ele><time>2026-05-01T14:34:12.001Z</time></trkpt><trkpt lat="44.50610416560651" lon="8.85499183611298"><ele>352.6</ele><time>2026-05-01T14:34:13.001Z</time></trkpt><trkpt lat="44.506182168681676" lon="8.854929564622914"><ele>356.4</ele><time>2026-05-01T14:34:14.001Z</time></trkpt><trkpt lat="44.5062639050259" lon="8.854861573738651"><ele>360.2</ele><time>2026-05-01T14:34:15.001Z</time></trkpt><trkpt lat="44.506323343709944" lon="8.854762762716375"><ele>364.0</ele><time>2026-05-01T14:34:16.001Z</time></trkpt><trkpt lat="44.50640207758127" lon="8.854712827549218"><ele>365.2</ele><time>2026-05-01T14:34:17.001Z</time></trkpt><trkpt lat="44.50649131106803" lon="8.854696001273336"><ele>366.4</ele><time>2026-05-01T14:34:18.001Z</time></trkpt><trkpt lat="44.50657422406523" lon="8.854742680826638"><ele>367.6</ele><time>2026-05-01T14:34:19.001Z</time></trkpt><trkpt lat="44.50665450333511" lon="8.854785498499439"><ele>368.8</ele><time>2026-05-01T14:34:20.001Z</time></trkpt><trkpt lat="44.50674306095953" lon="8.854828181899123"><ele>370.0</ele><time>2026-05-01T14:34:21.001Z</time></trkpt><trkpt lat="44.50682932162556" lon="8.854887485720774"><ele>370.0</ele><time>2026-05-01T14:34:22.001Z</time></trkpt><trkpt lat="44.50692134335879" lon="8.854934761651073"><ele>370.0</ele><time>2026-05-01T14:34:23.001Z</time></trkpt><trkpt lat="44.507015863377624" lon="8.854990529385466"><ele>370.0</ele><time>2026-05-01T14:34:24.001Z</time></trkpt><trkpt lat="44.50711612012766" lon="8.855055684280568"><ele>370.0</ele><time>2026-05-01T14:34:25.001Z</time></trkpt><trkpt lat="44.507221307386445" lon="8.855109929069481"><ele>370.0</ele><time>2026-05-01T14:34:26.001Z</time></trkpt><trkpt lat="44.50733779965849" lon="8.855153515266627"><ele>368.0</ele><time>2026-05-01T14:34:27.001Z</time></trkpt><trkpt lat="44.50745545262352" lon="8.85518625597733"><ele>366.0</ele><time>2026-05-01T14:34:28.001Z</time></trkpt><trkpt lat="44.50757173250231" lon="8.855208160287805"><ele>364.0</ele><time>2026-05-01T14:34:29.001Z</time></trkpt><trkpt lat="44.50765031095664" lon="8.855247586817436"><ele>362.0</ele><time>2026-05-01T14:34:30.001Z</time></trkpt><trkpt lat="44.50773266983553" lon="8.855263426121782"><ele>360.0</ele><time>2026-05-01T14:34:31.001Z</time></trkpt><trkpt lat="44.50781655124508" lon="8.855266228516262"><ele>360.0</ele><time>2026-05-01T14:34:32.001Z</time></trkpt><trkpt lat="44.50790381964714" lon="8.855237781855834"><ele>360.0</ele><time>2026-05-01T14:34:33.001Z</time></trkpt><trkpt lat="44.507995356756375" lon="8.855188504279399"><ele>360.0</ele><time>2026-05-01T14:34:34.001Z</time></trkpt><trkpt lat="44.50808914201785" lon="8.855156237615956"><ele>360.0</ele><time>2026-05-01T14:34:35.001Z</time></trkpt><trkpt lat="44.50819417752242" lon="8.855154934185942"><ele>360.0</ele><time>2026-05-01T14:34:36.001Z</time></trkpt><trkpt lat="44.50828516127594" lon="8.85519841687265"><ele>362.6</ele><time>2026-05-01T14:34:37.001Z</time></trkpt><trkpt lat="44.50836822662064" lon="8.855254799523559"><ele>365.2</ele><time>2026-05-01T14:34:38.001Z</time></trkpt><trkpt lat="44.50844504828385" lon="8.855276011488657"><ele>367.79999999999995</ele><time>2026-05-01T14:34:39.001Z</time></trkpt><trkpt lat="44.50851252020739" lon="8.855261169342404"><ele>370.4</ele><time>2026-05-01T14:34:40.001Z</time></trkpt><trkpt lat="44.5086110559119" lon="8.855146632917156"><ele>373.0</ele><time>2026-05-01T14:34:42.001Z</time></trkpt><trkpt lat="44.50859317089174" lon="8.855026170195181"><ele>375.8333333333333</ele><time>2026-05-01T14:34:43.001Z</time></trkpt><trkpt lat="44.50855101686739" lon="8.854937568202159"><ele>378.66666666666663</ele><time>2026-05-01T14:34:44.001Z</time></trkpt><trkpt lat="44.50850966395616" lon="8.854860897849017"><ele>381.5</ele><time>2026-05-01T14:34:45.001Z</time></trkpt><trkpt lat="44.508411420635625" lon="8.854832986067253"><ele>384.3333333333333</ele><time>2026-05-01T14:34:46.001Z</time></trkpt><trkpt lat="44.508312240233465" lon="8.854808906616498"><ele>387.1666666666667</ele><time>2026-05-01T14:34:47.001Z</time></trkpt><trkpt lat="44.5082195399362" lon="8.85478395443939"><ele>390.0</ele><time>2026-05-01T14:34:48.001Z</time></trkpt><trkpt lat="44.50815316368048" lon="8.854738106966773"><ele>390.0</ele><time>2026-05-01T14:34:49.001Z</time></trkpt><trkpt lat="44.50808119973528" lon="8.854733958664116"><ele>390.0</ele><time>2026-05-01T14:34:50.001Z</time></trkpt><trkpt lat="44.50801453685884" lon="8.854693277421456"><ele>390.0</ele><time>2026-05-01T14:34:51.001Z</time></trkpt><trkpt lat="44.50793775285534" lon="8.854683780580917"><ele>390.0</ele><time>2026-05-01T14:34:52.001Z</time></trkpt><trkpt lat="44.50785927660069" lon="8.854683831478528"><ele>390.0</ele><time>2026-05-01T14:34:53.001Z</time></trkpt><trkpt lat="44.50778187804529" lon="8.854663489385523"><ele>390.0</ele><time>2026-05-01T14:34:54.001Z</time></trkpt><trkpt lat="44.507713855885775" lon="8.854603689679402"><ele>389.6666666666667</ele><time>2026-05-01T14:34:55.001Z</time></trkpt><trkpt lat="44.50765362289224" lon="8.854520957534362"><ele>389.33333333333337</ele><time>2026-05-01T14:34:56.001Z</time></trkpt><trkpt lat="44.50764358533515" lon="8.854409581354401"><ele>389.0</ele><time>2026-05-01T14:34:57.001Z</time></trkpt><trkpt lat="44.50763067927099" lon="8.854301471923856"><ele>388.6666666666667</ele><time>2026-05-01T14:34:58.001Z</time></trkpt><trkpt lat="44.50761184694379" lon="8.854185006571583"><ele>388.33333333333337</ele><time>2026-05-01T14:34:59.001Z</time></trkpt><trkpt lat="44.50757737500732" lon="8.854058132566589"><ele>388.0</ele><time>2026-05-01T14:35:00.001Z</time></trkpt><trkpt lat="44.50752987249469" lon="8.853939772461814"><ele>390.50000000000006</ele><time>2026-05-01T14:35:01.001Z</time></trkpt><trkpt lat="44.50748773229192" lon="8.853835921206736"><ele>393.0</ele><time>2026-05-01T14:35:02.001Z</time></trkpt><trkpt lat="44.50745876947146" lon="8.853751261452086"><ele>395.5</ele><time>2026-05-01T14:35:03.001Z</time></trkpt><trkpt lat="44.50738889649896" lon="8.853629180748955"><ele>398.0</ele><time>2026-05-01T14:35:05.001Z</time></trkpt><trkpt lat="44.50730616291541" lon="8.853585076030283"><ele>400.50000000000006</ele><time>2026-05-01T14:35:06.001Z</time></trkpt><trkpt lat="44.507218616255805" lon="8.853608151027284"><ele>403.0</ele><time>2026-05-01T14:35:07.001Z</time></trkpt><trkpt lat="44.50714255143373" lon="8.853606537877782"><ele>403.50000000000006</ele><time>2026-05-01T14:35:08.001Z</time></trkpt><trkpt lat="44.50706835138471" lon="8.853610583553483"><ele>404.0</ele><time>2026-05-01T14:35:09.001Z</time></trkpt><trkpt lat="44.50698859714457" lon="8.85363469419261"><ele>404.5</ele><time>2026-05-01T14:35:10.001Z</time></trkpt><trkpt lat="44.506884074006265" lon="8.853698071192055"><ele>405.0</ele><time>2026-05-01T14:35:11.001Z</time></trkpt><trkpt lat="44.50681384876695" lon="8.853751486689259"><ele>405.50000000000006</ele><time>2026-05-01T14:35:12.001Z</time></trkpt><trkpt lat="44.50675335799241" lon="8.853797496480027"><ele>406.0</ele><time>2026-05-01T14:35:13.001Z</time></trkpt><trkpt lat="44.50665054536012" lon="8.853788541525702"><ele>406.00000000000006</ele><time>2026-05-01T14:35:15.001Z</time></trkpt><trkpt lat="44.506567340383754" lon="8.853743329563297"><ele>406.0</ele><time>2026-05-01T14:35:16.001Z</time></trkpt><trkpt lat="44.50649066034385" lon="8.853676246904456"><ele>406.0</ele><time>2026-05-01T14:35:17.001Z</time></trkpt><trkpt lat="44.5064257950358" lon="8.853636891092279"><ele>406.0</ele><time>2026-05-01T14:35:18.001Z</time></trkpt><trkpt lat="44.50635902127055" lon="8.853620769736303"><ele>406.00000000000006</ele><time>2026-05-01T14:35:19.001Z</time></trkpt><trkpt lat="44.50627369592285" lon="8.853583713891402"><ele>406.0</ele><time>2026-05-01T14:35:20.001Z</time></trkpt><trkpt lat="44.50617329693303" lon="8.853566675869228"><ele>404.1666666666667</ele><time>2026-05-01T14:35:21.001Z</time></trkpt><trkpt lat="44.50608976181022" lon="8.85353899154165"><ele>402.33333333333337</ele><time>2026-05-01T14:35:22.001Z</time></trkpt><trkpt lat="44.50602005731736" lon="8.853511152389643"><ele>400.5</ele><time>2026-05-01T14:35:23.001Z</time></trkpt><trkpt lat="44.50596475808686" lon="8.853457220427732"><ele>398.66666666666663</ele><time>2026-05-01T14:35:24.001Z</time></trkpt><trkpt lat="44.505940213762706" lon="8.85337474407604"><ele>396.8333333333333</ele><time>2026-05-01T14:35:25.001Z</time></trkpt><trkpt lat="44.50592886674015" lon="8.853257891747987"><ele>395.0</ele><time>2026-05-01T14:35:26.001Z</time></trkpt><trkpt lat="44.50593460487147" lon="8.85311839351971"><ele>398.66666666666663</ele><time>2026-05-01T14:35:27.001Z</time></trkpt><trkpt lat="44.50594688850208" lon="8.852975803577772"><ele>402.3333333333333</ele><time>2026-05-01T14:35:28.001Z</time></trkpt><trkpt lat="44.505972833548725" lon="8.852863160350667"><ele>406.0</ele><time>2026-05-01T14:35:29.001Z</time></trkpt><trkpt lat="44.506009668072856" lon="8.852754739652564"><ele>409.66666666666663</ele><time>2026-05-01T14:35:30.001Z</time></trkpt><trkpt lat="44.506030892418764" lon="8.852659818277532"><ele>413.3333333333333</ele><time>2026-05-01T14:35:31.001Z</time></trkpt><trkpt lat="44.50607284780149" lon="8.852570850670032"><ele>417.0</ele><time>2026-05-01T14:35:32.001Z</time></trkpt><trkpt lat="44.50612371349121" lon="8.852482452331724"><ele>419.0</ele><time>2026-05-01T14:35:33.001Z</time></trkpt><trkpt lat="44.50615874973567" lon="8.852386862492613"><ele>421.0</ele><time>2026-05-01T14:35:34.001Z</time></trkpt><trkpt lat="44.506183778757254" lon="8.852286035922555"><ele>423.0</ele><time>2026-05-01T14:35:35.001Z</time></trkpt><trkpt lat="44.506194691833805" lon="8.85218409560975"><ele>425.0</ele><time>2026-05-01T14:35:36.001Z</time></trkpt><trkpt lat="44.50618216240661" lon="8.852089303931173"><ele>427.0</ele><time>2026-05-01T14:35:37.001Z</time></trkpt><trkpt lat="44.50611999456855" lon="8.851999910926407"><ele>429.0</ele><time>2026-05-01T14:35:38.001Z</time></trkpt><trkpt lat="44.50604064542833" lon="8.851967856437414"><ele>429.0</ele><time>2026-05-01T14:35:39.001Z</time></trkpt><trkpt lat="44.505950256212536" lon="8.852021619376938"><ele>429.0</ele><time>2026-05-01T14:35:40.001Z</time></trkpt><trkpt lat="44.50588771913833" lon="8.852124499681045"><ele>429.0</ele><time>2026-05-01T14:35:41.001Z</time></trkpt><trkpt lat="44.50583191734942" lon="8.852198892982177"><ele>429.0</ele><time>2026-05-01T14:35:42.001Z</time></trkpt><trkpt lat="44.50576656984439" lon="8.852288062514845"><ele>429.0</ele><time>2026-05-01T14:35:43.001Z</time></trkpt><trkpt lat="44.505716882220895" lon="8.852353216150041"><ele>429.0</ele><time>2026-05-01T14:35:44.001Z</time></trkpt><trkpt lat="44.505609259362416" lon="8.852381925685096"><ele>429.0</ele><time>2026-05-01T14:35:46.001Z</time></trkpt><trkpt lat="44.505501764773655" lon="8.852416358867941"><ele>429.0</ele><time>2026-05-01T14:35:48.001Z</time></trkpt><trkpt lat="44.505393349256344" lon="8.85241128499854"><ele>429.0</ele><time>2026-05-01T14:35:50.001Z</time></trkpt><trkpt lat="44.50530736710679" lon="8.852302293651114"><ele>429.0</ele><time>2026-05-01T14:35:52.001Z</time></trkpt><trkpt lat="44.50529047773241" lon="8.85220217050327"><ele>429.0</ele><time>2026-05-01T14:35:53.001Z</time></trkpt><trkpt lat="44.50526603761168" lon="8.852087739505425"><ele>428.6666666666667</ele><time>2026-05-01T14:35:54.001Z</time></trkpt><trkpt lat="44.50525448001011" lon="8.8519676798236"><ele>428.33333333333337</ele><time>2026-05-01T14:35:55.001Z</time></trkpt><trkpt lat="44.50524964533089" lon="8.851845706869568"><ele>428.0</ele><time>2026-05-01T14:35:56.001Z</time></trkpt><trkpt lat="44.50525044004433" lon="8.851730134738574"><ele>427.6666666666667</ele><time>2026-05-01T14:35:57.001Z</time></trkpt><trkpt lat="44.5052488631271" lon="8.851633988875495"><ele>427.33333333333337</ele><time>2026-05-01T14:35:58.001Z</time></trkpt><trkpt lat="44.5052794675788" lon="8.851539730556564"><ele>427.0</ele><time>2026-05-01T14:35:59.001Z</time></trkpt><trkpt lat="44.50531748157945" lon="8.851454337527594"><ele>430.0</ele><time>2026-05-01T14:36:00.001Z</time></trkpt><trkpt lat="44.505372192096466" lon="8.85139144322198"><ele>433.00000000000006</ele><time>2026-05-01T14:36:01.001Z</time></trkpt><trkpt lat="44.50547035188418" lon="8.851286219969941"><ele>436.00000000000006</ele><time>2026-05-01T14:36:03.001Z</time></trkpt><trkpt lat="44.505488491990384" lon="8.851201521225075"><ele>439.0</ele><time>2026-05-01T14:36:04.001Z</time></trkpt><trkpt lat="44.50543829668424" lon="8.851042590530394"><ele>442.0</ele><time>2026-05-01T14:36:06.001Z</time></trkpt><trkpt lat="44.50532694980013" lon="8.85105953634055"><ele>442.0</ele><time>2026-05-01T14:36:07.001Z</time></trkpt><trkpt lat="44.505239057149936" lon="8.851072887322326"><ele>442.00000000000006</ele><time>2026-05-01T14:36:08.001Z</time></trkpt><trkpt lat="44.505143553130985" lon="8.851076324613805"><ele>442.00000000000006</ele><time>2026-05-01T14:36:09.001Z</time></trkpt><trkpt lat="44.5050463258177" lon="8.851081799733342"><ele>442.0</ele><time>2026-05-01T14:36:10.001Z</time></trkpt><trkpt lat="44.50494717536474" lon="8.851099755529685"><ele>442.0</ele><time>2026-05-01T14:36:11.001Z</time></trkpt><trkpt lat="44.50486219032274" lon="8.851131103783905"><ele>442.00000000000006</ele><time>2026-05-01T14:36:12.001Z</time></trkpt><trkpt lat="44.50479115577406" lon="8.8511655255131"><ele>442.0</ele><time>2026-05-01T14:36:13.001Z</time></trkpt><trkpt lat="44.50471960438648" lon="8.851139196699506"><ele>442.0</ele><time>2026-05-01T14:36:14.001Z</time></trkpt><trkpt lat="44.50464118647091" lon="8.851133863620163"><ele>442.0</ele><time>2026-05-01T14:36:15.001Z</time></trkpt><trkpt lat="44.50456837472774" lon="8.851106265251277"><ele>442.00000000000006</ele><time>2026-05-01T14:36:16.001Z</time></trkpt><trkpt lat="44.50446379028045" lon="8.851045034941185"><ele>442.0</ele><time>2026-05-01T14:36:18.001Z</time></trkpt><trkpt lat="44.50441702644284" lon="8.850963456825706"><ele>443.33333333333337</ele><time>2026-05-01T14:36:19.001Z</time></trkpt><trkpt lat="44.50437702923591" lon="8.850848697304212"><ele>444.6666666666667</ele><time>2026-05-01T14:36:20.001Z</time></trkpt><trkpt lat="44.50432833836783" lon="8.850741355134234"><ele>446.0</ele><time>2026-05-01T14:36:21.001Z</time></trkpt><trkpt lat="44.50428181269851" lon="8.850652053579163"><ele>447.33333333333337</ele><time>2026-05-01T14:36:22.001Z</time></trkpt><trkpt lat="44.50423558960401" lon="8.850570533838281"><ele>448.6666666666667</ele><time>2026-05-01T14:36:23.001Z</time></trkpt><trkpt lat="44.50418606594222" lon="8.850445048352933"><ele>450.0</ele><time>2026-05-01T14:36:24.001Z</time></trkpt><trkpt lat="44.5040976929574" lon="8.850325595313915"><ele>450.0</ele><time>2026-05-01T14:36:25.001Z</time></trkpt><trkpt lat="44.503990278850246" lon="8.850214097921313"><ele>450.0</ele><time>2026-05-01T14:36:26.001Z</time></trkpt><trkpt lat="44.50387881700197" lon="8.850161921097918"><ele>450.0</ele><time>2026-05-01T14:36:27.001Z</time></trkpt><trkpt lat="44.503777244102096" lon="8.850106403255435"><ele>450.0</ele><time>2026-05-01T14:36:28.001Z</time></trkpt><trkpt lat="44.50365141097669" lon="8.850075568696068"><ele>455.33333333333337</ele><time>2026-05-01T14:36:29.001Z</time></trkpt><trkpt lat="44.50348920039321" lon="8.850032574737146"><ele>460.6666666666667</ele><time>2026-05-01T14:36:30.001Z</time></trkpt><trkpt lat="44.503319158254264" lon="8.850043452324629"><ele>466.0</ele><time>2026-05-01T14:36:31.001Z</time></trkpt><trkpt lat="44.503185812236616" lon="8.850022314900874"><ele>466.0</ele><time>2026-05-01T14:36:32.001Z</time></trkpt><trkpt lat="44.50306743737553" lon="8.849992955011844"><ele>466.0</ele><time>2026-05-01T14:36:33.001Z</time></trkpt><trkpt lat="44.50296950788021" lon="8.849966103851338"><ele>466.0</ele><time>2026-05-01T14:36:34.001Z</time></trkpt><trkpt lat="44.502891377207796" lon="8.849903675927438"><ele>466.0</ele><time>2026-05-01T14:36:35.001Z</time></trkpt><trkpt lat="44.50285180920497" lon="8.84974948491207"><ele>466.0</ele><time>2026-05-01T14:36:36.001Z</time></trkpt><trkpt lat="44.50278148908807" lon="8.849575072737132"><ele>466.25</ele><time>2026-05-01T14:36:37.001Z</time></trkpt><trkpt lat="44.50270034123956" lon="8.849401955253253"><ele>466.5</ele><time>2026-05-01T14:36:38.001Z</time></trkpt><trkpt lat="44.50260515323691" lon="8.849289330206885"><ele>466.75</ele><time>2026-05-01T14:36:39.001Z</time></trkpt><trkpt lat="44.50252914378622" lon="8.84922281066369"><ele>467.0</ele><time>2026-05-01T14:36:40.001Z</time></trkpt><trkpt lat="44.5024480115301" lon="8.849148392370472"><ele>471.0</ele><time>2026-05-01T14:36:41.001Z</time></trkpt><trkpt lat="44.502357477533714" lon="8.849067053980889"><ele>475.0</ele><time>2026-05-01T14:36:42.001Z</time></trkpt><trkpt lat="44.50225689209778" lon="8.849016602719214"><ele>479.0</ele><time>2026-05-01T14:36:43.001Z</time></trkpt><trkpt lat="44.502145303843875" lon="8.849034973121306"><ele>483.0</ele><time>2026-05-01T14:36:44.001Z</time></trkpt><trkpt lat="44.50202410758402" lon="8.849101196946439"><ele>485.25</ele><time>2026-05-01T14:36:45.001Z</time></trkpt><trkpt lat="44.50189646761315" lon="8.84916966615137"><ele>487.5</ele><time>2026-05-01T14:36:46.001Z</time></trkpt><trkpt lat="44.501755547106924" lon="8.849194919261834"><ele>489.75</ele><time>2026-05-01T14:36:47.001Z</time></trkpt><trkpt lat="44.50160926358611" lon="8.849184052935275"><ele>492.0</ele><time>2026-05-01T14:36:48.001Z</time></trkpt><trkpt lat="44.50146632966282" lon="8.84922219078697"><ele>486.66666666666663</ele><time>2026-05-01T14:36:49.001Z</time></trkpt><trkpt lat="44.501332770980916" lon="8.849338766129065"><ele>481.3333333333333</ele><time>2026-05-01T14:36:50.001Z</time></trkpt><trkpt lat="44.50118482398684" lon="8.849394321699918"><ele>476.0</ele><time>2026-05-01T14:36:51.001Z</time></trkpt><trkpt lat="44.501003364194766" lon="8.849457036964933"><ele>476.0</ele><time>2026-05-01T14:36:52.001Z</time></trkpt><trkpt lat="44.500801879767316" lon="8.84947592648496"><ele>476.0</ele><time>2026-05-01T14:36:53.001Z</time></trkpt><trkpt lat="44.500602274668275" lon="8.849504677548563"><ele>476.0</ele><time>2026-05-01T14:36:54.001Z</time></trkpt><trkpt lat="44.50039370459063" lon="8.849545712727805"><ele>480.3333333333333</ele><time>2026-05-01T14:36:55.001Z</time></trkpt><trkpt lat="44.50016782673289" lon="8.849618618110844"><ele>484.66666666666663</ele><time>2026-05-01T14:36:56.001Z</time></trkpt><trkpt lat="44.4999641295141" lon="8.849708401231137"><ele>489.0</ele><time>2026-05-01T14:36:57.001Z</time></trkpt><trkpt lat="44.49975999640482" lon="8.849764779835159"><ele>494.33333333333337</ele><time>2026-05-01T14:36:58.001Z</time></trkpt><trkpt lat="44.49955029839471" lon="8.84977152947327"><ele>499.6666666666667</ele><time>2026-05-01T14:36:59.001Z</time></trkpt><trkpt lat="44.49934764090888" lon="8.849809715869531"><ele>505.0</ele><time>2026-05-01T14:37:00.001Z</time></trkpt><trkpt lat="44.499143794895474" lon="8.849866081558824"><ele>505.0</ele><time>2026-05-01T14:37:01.001Z</time></trkpt><trkpt lat="44.49895119299147" lon="8.849926131705105"><ele>505.0</ele><time>2026-05-01T14:37:02.001Z</time></trkpt><trkpt lat="44.49878029553092" lon="8.849976248662264"><ele>505.0</ele><time>2026-05-01T14:37:03.001Z</time></trkpt><trkpt lat="44.49863920940927" lon="8.850038614070565"><ele>508.6666666666667</ele><time>2026-05-01T14:37:04.001Z</time></trkpt><trkpt lat="44.49849734343106" lon="8.850059146177866"><ele>512.3333333333334</ele><time>2026-05-01T14:37:05.001Z</time></trkpt><trkpt lat="44.498349279517655" lon="8.850029360702859"><ele>516.0</ele><time>2026-05-01T14:37:06.001Z</time></trkpt><trkpt lat="44.49818196358131" lon="8.849955784321558"><ele>516.0</ele><time>2026-05-01T14:37:07.001Z</time></trkpt><trkpt lat="44.49799204176831" lon="8.849858862282394"><ele>516.0</ele><time>2026-05-01T14:37:08.001Z</time></trkpt><trkpt lat="44.497787141687276" lon="8.849776489463398"><ele>516.0</ele><time>2026-05-01T14:37:09.001Z</time></trkpt><trkpt lat="44.49758202319844" lon="8.84973392036689"><ele>515.6666666666666</ele><time>2026-05-01T14:37:10.001Z</time></trkpt><trkpt lat="44.49740781152831" lon="8.849710608189401"><ele>515.3333333333333</ele><time>2026-05-01T14:37:11.001Z</time></trkpt><trkpt lat="44.49724751309167" lon="8.849632932792879"><ele>515.0</ele><time>2026-05-01T14:37:12.001Z</time></trkpt><trkpt lat="44.49707834451822" lon="8.84955460625462"><ele>516.6666666666666</ele><time>2026-05-01T14:37:13.001Z</time></trkpt><trkpt lat="44.49691109595342" lon="8.849460853192145"><ele>518.3333333333334</ele><time>2026-05-01T14:37:14.001Z</time></trkpt><trkpt lat="44.496751366695754" lon="8.849355368826265"><ele>520.0</ele><time>2026-05-01T14:37:15Z</time></trkpt><trkpt lat="44.49659535815266" lon="8.849276229524117"><ele>520.0</ele><time>2026-05-01T14:37:16Z</time></trkpt><trkpt lat="44.496493559747506" lon="8.849228780725792"><ele>520.0</ele><time>2026-05-01T14:37:17Z</time></trkpt><trkpt lat="44.496416064121284" lon="8.849246135411017"><ele>520.0</ele><time>2026-05-01T14:37:18Z</time></trkpt><trkpt lat="44.49635101476434" lon="8.849290673869698"><ele>520.0</ele><time>2026-05-01T14:37:19Z</time></trkpt><trkpt lat="44.4962963447105" lon="8.84940727406381"><ele>520.0</ele><time>2026-05-01T14:37:20Z</time></trkpt><trkpt lat="44.496246497426164" lon="8.84957267708692"><ele>529.6666666666667</ele><time>2026-05-01T14:37:21Z</time></trkpt><trkpt lat="44.49618085704299" lon="8.849746564769568"><ele>539.3333333333334</ele><time>2026-05-01T14:37:22Z</time></trkpt><trkpt lat="44.49607779022499" lon="8.849919339152406"><ele>549.0</ele><time>2026-05-01T14:37:23Z</time></trkpt><trkpt lat="44.49591035229878" lon="8.850065390009854"><ele>538.6666666666666</ele><time>2026-05-01T14:37:24Z</time></trkpt><trkpt lat="44.495748607569" lon="8.850267168198286"><ele>528.3333333333333</ele><time>2026-05-01T14:37:25Z</time></trkpt><trkpt lat="44.495598350535694" lon="8.850430680814442"><ele>518.0</ele><time>2026-05-01T14:37:26Z</time></trkpt><trkpt lat="44.495466867633844" lon="8.85049131481851"><ele>520.5</ele><time>2026-05-01T14:37:27Z</time></trkpt><trkpt lat="44.49536448352081" lon="8.850541816368054"><ele>523.0</ele><time>2026-05-01T14:37:28Z</time></trkpt><trkpt lat="44.49523680277152" lon="8.850492629896076"><ele>525.5</ele><time>2026-05-01T14:37:29Z</time></trkpt><trkpt lat="44.495066952823215" lon="8.8504547262074"><ele>528.0</ele><time>2026-05-01T14:37:30Z</time></trkpt><trkpt lat="44.49486976291778" lon="8.85040884497679"><ele>528.0</ele><time>2026-05-01T14:37:31Z</time></trkpt><trkpt lat="44.49470099871296" lon="8.850430958296089"><ele>528.0</ele><time>2026-05-01T14:37:32Z</time></trkpt><trkpt lat="44.494575631550205" lon="8.850351909212934"><ele>528.0</ele><time>2026-05-01T14:37:33Z</time></trkpt><trkpt lat="44.49445318921796" lon="8.85022059512265"><ele>539.6666666666666</ele><time>2026-05-01T14:37:34Z</time></trkpt><trkpt lat="44.49432111938424" lon="8.850038362827338"><ele>551.3333333333333</ele><time>2026-05-01T14:37:35Z</time></trkpt><trkpt lat="44.49421209749971" lon="8.84987548066108"><ele>563.0</ele><time>2026-05-01T14:37:36Z</time></trkpt><trkpt lat="44.49412516210513" lon="8.849775630513523"><ele>563.0</ele><time>2026-05-01T14:37:37Z</time></trkpt><trkpt lat="44.494048053005805" lon="8.849708440080589"><ele>563.0</ele><time>2026-05-01T14:37:38Z</time></trkpt><trkpt lat="44.49395977818855" lon="8.849727367256857"><ele>563.0</ele><time>2026-05-01T14:37:39Z</time></trkpt><trkpt lat="44.49387425506637" lon="8.84980828884438"><ele>563.0</ele><time>2026-05-01T14:37:40Z</time></trkpt><trkpt lat="44.4937888018988" lon="8.849934124134663"><ele>563.0</ele><time>2026-05-01T14:37:41Z</time></trkpt><trkpt lat="44.49366384557616" lon="8.850023432462987"><ele>563.4</ele><time>2026-05-01T14:37:42Z</time></trkpt><trkpt lat="44.493531721128676" lon="8.85003107002986"><ele>563.8</ele><time>2026-05-01T14:37:43Z</time></trkpt><trkpt lat="44.49343831943875" lon="8.85003664076639"><ele>564.2</ele><time>2026-05-01T14:37:44Z</time></trkpt><trkpt lat="44.4933466414148" lon="8.84999440032152"><ele>564.6</ele><time>2026-05-01T14:37:46Z</time></trkpt><trkpt lat="44.493286382996146" lon="8.84995958769042"><ele>565.0</ele><time>2026-05-01T14:37:47Z</time></trkpt><trkpt lat="44.49322807949588" lon="8.84990491366314"><ele>565.0</ele><time>2026-05-01T14:37:48Z</time></trkpt><trkpt lat="44.4931657154586" lon="8.849838387078147"><ele>565.0</ele><time>2026-05-01T14:37:49Z</time></trkpt><trkpt lat="44.49309800907955" lon="8.84978270955349"><ele>565.0</ele><time>2026-05-01T14:37:50Z</time></trkpt><trkpt lat="44.49302290356196" lon="8.849702683728399"><ele>565.0</ele><time>2026-05-01T14:37:52Z</time></trkpt><trkpt lat="44.49295800444897" lon="8.849646765903719"><ele>565.0</ele><time>2026-05-01T14:37:54Z</time></trkpt><trkpt lat="44.49291229359037" lon="8.849555861311682"><ele>565.0</ele><time>2026-05-01T14:37:56Z</time></trkpt><trkpt lat="44.49287252542301" lon="8.849446808925524"><ele>565.2</ele><time>2026-05-01T14:37:58Z</time></trkpt><trkpt lat="44.492878020029956" lon="8.8493106934899"><ele>565.4</ele><time>2026-05-01T14:38:00Z</time></trkpt><trkpt lat="44.49287883151214" lon="8.849181187605708"><ele>565.6</ele><time>2026-05-01T14:38:01Z</time></trkpt><trkpt lat="44.492894778264066" lon="8.849027233424698"><ele>565.8</ele><time>2026-05-01T14:38:02Z</time></trkpt><trkpt lat="44.49286903576651" lon="8.848852283692583"><ele>566.0</ele><time>2026-05-01T14:38:03Z</time></trkpt><trkpt lat="44.492860115562" lon="8.848723612403814"><ele>565.3333333333333</ele><time>2026-05-01T14:38:04Z</time></trkpt><trkpt lat="44.49284305640294" lon="8.848607176760632"><ele>564.6666666666666</ele><time>2026-05-01T14:38:05Z</time></trkpt><trkpt lat="44.49279140076695" lon="8.848504619537355"><ele>564.0</ele><time>2026-05-01T14:38:06Z</time></trkpt><trkpt lat="44.49271489317296" lon="8.848415254944188"><ele>563.3333333333334</ele><time>2026-05-01T14:38:07Z</time></trkpt><trkpt lat="44.49263808547362" lon="8.848355189892745"><ele>562.6666666666667</ele><time>2026-05-01T14:38:08Z</time></trkpt><trkpt lat="44.49259556233075" lon="8.848285076349843"><ele>562.0</ele><time>2026-05-01T14:38:09Z</time></trkpt><trkpt lat="44.49255266298113" lon="8.848114291303876"><ele>562.0</ele><time>2026-05-01T14:38:11Z</time></trkpt><trkpt lat="44.49249232271681" lon="8.84802541970133"><ele>562.0</ele><time>2026-05-01T14:38:12Z</time></trkpt><trkpt lat="44.49242726755566" lon="8.847958318398573"><ele>562.0</ele><time>2026-05-01T14:38:13Z</time></trkpt><trkpt lat="44.492306355574534" lon="8.84793601309159"><ele>562.0</ele><time>2026-05-01T14:38:15Z</time></trkpt><trkpt lat="44.49224391971103" lon="8.847958455397047"><ele>562.0</ele><time>2026-05-01T14:38:16Z</time></trkpt><trkpt lat="44.49214853156505" lon="8.847925943121625"><ele>556.8000000000001</ele><time>2026-05-01T14:38:18Z</time></trkpt><trkpt lat="44.49207271935659" lon="8.847807869487589"><ele>551.6</ele><time>2026-05-01T14:38:20Z</time></trkpt><trkpt lat="44.492031814299814" lon="8.847720905575132"><ele>546.4000000000001</ele><time>2026-05-01T14:38:21Z</time></trkpt><trkpt lat="44.49198285313261" lon="8.847618948998518"><ele>541.2</ele><time>2026-05-01T14:38:22Z</time></trkpt><trkpt lat="44.49194160104838" lon="8.847518033632833"><ele>536.0</ele><time>2026-05-01T14:38:23Z</time></trkpt><trkpt lat="44.49190668199026" lon="8.8473949980034"><ele>536.0</ele><time>2026-05-01T14:38:25Z</time></trkpt><trkpt lat="44.4919596932819" lon="8.847285667291915"><ele>536.0</ele><time>2026-05-01T14:38:27Z</time></trkpt><trkpt lat="44.49206310805433" lon="8.847193892735591"><ele>536.0</ele><time>2026-05-01T14:38:29Z</time></trkpt><trkpt lat="44.492104252410954" lon="8.847123157506209"><ele>536.0</ele><time>2026-05-01T14:38:30Z</time></trkpt><trkpt lat="44.49213504420115" lon="8.847040971945239"><ele>536.0</ele><time>2026-05-01T14:38:31Z</time></trkpt><trkpt lat="44.492091452416304" lon="8.84693823460705"><ele>536.0</ele><time>2026-05-01T14:38:32Z</time></trkpt><trkpt lat="44.49206291697858" lon="8.846832882766865"><ele>536.3333333333333</ele><time>2026-05-01T14:38:33Z</time></trkpt><trkpt lat="44.492023530622895" lon="8.846746846550257"><ele>536.6666666666666</ele><time>2026-05-01T14:38:34Z</time></trkpt><trkpt lat="44.49196749230079" lon="8.846658769983573"><ele>537.0</ele><time>2026-05-01T14:38:35.001Z</time></trkpt><trkpt lat="44.49190311104528" lon="8.846576043768168"><ele>537.3333333333334</ele><time>2026-05-01T14:38:36.001Z</time></trkpt><trkpt lat="44.49185446197981" lon="8.846482730231752"><ele>537.6666666666667</ele><time>2026-05-01T14:38:37.001Z</time></trkpt><trkpt lat="44.4918036919557" lon="8.84641002314591"><ele>538.0</ele><time>2026-05-01T14:38:38.001Z</time></trkpt><trkpt lat="44.49176526904665" lon="8.846332526154912"><ele>538.0</ele><time>2026-05-01T14:38:39.001Z</time></trkpt><trkpt lat="44.4917287358487" lon="8.846233171906226"><ele>538.0</ele><time>2026-05-01T14:38:40.001Z</time></trkpt><trkpt lat="44.491673890359216" lon="8.846145305260263"><ele>538.0</ele><time>2026-05-01T14:38:41.001Z</time></trkpt><trkpt lat="44.491621872743956" lon="8.846048513822351"><ele>538.0</ele><time>2026-05-01T14:38:42.001Z</time></trkpt><trkpt lat="44.491568012839664" lon="8.845971071477031"><ele>538.0</ele><time>2026-05-01T14:38:43.001Z</time></trkpt><trkpt lat="44.4915069602962" lon="8.845904498233729"><ele>538.0</ele><time>2026-05-01T14:38:44.001Z</time></trkpt><trkpt lat="44.49144174853666" lon="8.845850163876003"><ele>542.1999999999999</ele><time>2026-05-01T14:38:45.001Z</time></trkpt><trkpt lat="44.4913771976383" lon="8.845824223751585"><ele>546.4</ele><time>2026-05-01T14:38:46.001Z</time></trkpt><trkpt lat="44.491280004019096" lon="8.845740870440855"><ele>550.5999999999999</ele><time>2026-05-01T14:38:48.001Z</time></trkpt><trkpt lat="44.49119232092538" lon="8.845618427438128"><ele>554.8</ele><time>2026-05-01T14:38:50.001Z</time></trkpt><trkpt lat="44.491105188432975" lon="8.845507267313815"><ele>559.0</ele><time>2026-05-01T14:38:52.001Z</time></trkpt><trkpt lat="44.49108053192794" lon="8.845422269615884"><ele>549.4</ele><time>2026-05-01T14:38:53.001Z</time></trkpt><trkpt lat="44.49103619433926" lon="8.845346293484521"><ele>539.8</ele><time>2026-05-01T14:38:54.001Z</time></trkpt><trkpt lat="44.49100502557342" lon="8.845203222063295"><ele>530.2</ele><time>2026-05-01T14:38:56.001Z</time></trkpt><trkpt lat="44.49097365485865" lon="8.845119508791425"><ele>520.6</ele><time>2026-05-01T14:38:57.001Z</time></trkpt><trkpt lat="44.49094955726858" lon="8.844961890979508"><ele>511.0</ele><time>2026-05-01T14:38:59.001Z</time></trkpt><trkpt lat="44.49094137376495" lon="8.844800479034866"><ele>511.0</ele><time>2026-05-01T14:39:01.001Z</time></trkpt><trkpt lat="44.49100448913434" lon="8.844666268274603"><ele>511.0</ele><time>2026-05-01T14:39:03.001Z</time></trkpt><trkpt lat="44.49106178574103" lon="8.844510736905944"><ele>511.0</ele><time>2026-05-01T14:39:05.001Z</time></trkpt><trkpt lat="44.49109558221741" lon="8.844419243059155"><ele>511.0</ele><time>2026-05-01T14:39:06.001Z</time></trkpt><trkpt lat="44.49116678155245" lon="8.84430569109011"><ele>511.0</ele><time>2026-05-01T14:39:08.001Z</time></trkpt><trkpt lat="44.49119980420034" lon="8.844152943744565"><ele>509.6666666666667</ele><time>2026-05-01T14:39:10.001Z</time></trkpt><trkpt lat="44.49120961550548" lon="8.844052459720816"><ele>508.33333333333337</ele><time>2026-05-01T14:39:11.001Z</time></trkpt><trkpt lat="44.49119744361165" lon="8.843963764124217"><ele>507.0</ele><time>2026-05-01T14:39:12.001Z</time></trkpt><trkpt lat="44.4911927064518" lon="8.843853395214747"><ele>505.66666666666663</ele><time>2026-05-01T14:39:13.001Z</time></trkpt><trkpt lat="44.49116358858259" lon="8.843688686153444"><ele>504.3333333333333</ele><time>2026-05-01T14:39:15.001Z</time></trkpt><trkpt lat="44.491142244304676" lon="8.84360071081013"><ele>503.0</ele><time>2026-05-01T14:39:16.001Z</time></trkpt><trkpt lat="44.49109694839673" lon="8.843483287520636"><ele>501.16666666666663</ele><time>2026-05-01T14:39:18.001Z</time></trkpt><trkpt lat="44.4910879362562" lon="8.843367890484087"><ele>499.3333333333333</ele><time>2026-05-01T14:39:20.001Z</time></trkpt><trkpt lat="44.49113211600184" lon="8.84329745983132"><ele>497.5</ele><time>2026-05-01T14:39:21.001Z</time></trkpt><trkpt lat="44.491216197123016" lon="8.843195566949147"><ele>495.66666666666663</ele><time>2026-05-01T14:39:23.001Z</time></trkpt><trkpt lat="44.49132623075977" lon="8.84313135874807"><ele>493.8333333333333</ele><time>2026-05-01T14:39:25Z</time></trkpt><trkpt lat="44.49138642176996" lon="8.843102795303807"><ele>492.0</ele><time>2026-05-01T14:39:26Z</time></trkpt><trkpt lat="44.491503694960755" lon="8.843053779989244"><ele>493.5</ele><time>2026-05-01T14:39:28Z</time></trkpt><trkpt lat="44.49159371751303" lon="8.842951839471393"><ele>495.0</ele><time>2026-05-01T14:39:30Z</time></trkpt><trkpt lat="44.49163392036845" lon="8.842872635999177"><ele>496.5</ele><time>2026-05-01T14:39:31Z</time></trkpt><trkpt lat="44.491675512916885" lon="8.842787696607791"><ele>498.0</ele><time>2026-05-01T14:39:32Z</time></trkpt><trkpt lat="44.49172079775013" lon="8.842711947644274"><ele>499.5</ele><time>2026-05-01T14:39:33Z</time></trkpt><trkpt lat="44.49175746488091" lon="8.842632631466603"><ele>501.0</ele><time>2026-05-01T14:39:34Z</time></trkpt><trkpt lat="44.49180965563958" lon="8.842470387782758"><ele>501.0</ele><time>2026-05-01T14:39:36Z</time></trkpt><trkpt lat="44.49179792722013" lon="8.842369300790711"><ele>501.0</ele><time>2026-05-01T14:39:37Z</time></trkpt><trkpt lat="44.49176776661742" lon="8.842216954004778"><ele>501.0</ele><time>2026-05-01T14:39:39Z</time></trkpt><trkpt lat="44.49175762681353" lon="8.842113904453745"><ele>501.0</ele><time>2026-05-01T14:39:41Z</time></trkpt><trkpt lat="44.491841530068605" lon="8.84204970588853"><ele>501.0</ele><time>2026-05-01T14:39:43Z</time></trkpt><trkpt lat="44.491963255295104" lon="8.842062674752505"><ele>501.0</ele><time>2026-05-01T14:39:45Z</time></trkpt><trkpt lat="44.4920306143279" lon="8.842054290225011"><ele>501.0</ele><time>2026-05-01T14:39:46Z</time></trkpt><trkpt lat="44.49214351830955" lon="8.842025885117893"><ele>501.0</ele><time>2026-05-01T14:39:48Z</time></trkpt><trkpt lat="44.49225404243946" lon="8.842023730244833"><ele>501.0</ele><time>2026-05-01T14:39:50Z</time></trkpt><trkpt lat="44.492377966156255" lon="8.84204230762643"><ele>501.0</ele><time>2026-05-01T14:39:52Z</time></trkpt><trkpt lat="44.49243939523445" lon="8.842075089732953"><ele>503.6666666666667</ele><time>2026-05-01T14:39:53Z</time></trkpt><trkpt lat="44.492506870136346" lon="8.842114596340673"><ele>506.33333333333337</ele><time>2026-05-01T14:39:54Z</time></trkpt><trkpt lat="44.49257293413043" lon="8.842122011091561"><ele>509.0</ele><time>2026-05-01T14:39:55Z</time></trkpt><trkpt lat="44.49266639815617" lon="8.842150857985436"><ele>511.6666666666667</ele><time>2026-05-01T14:39:57Z</time></trkpt><trkpt lat="44.49274468447694" lon="8.842229182421887"><ele>514.3333333333334</ele><time>2026-05-01T14:39:59Z</time></trkpt><trkpt lat="44.4928587521943" lon="8.842211374232248"><ele>517.0</ele><time>2026-05-01T14:40:01Z</time></trkpt><trkpt lat="44.49292632273441" lon="8.8421956501842"><ele>517.2</ele><time>2026-05-01T14:40:02Z</time></trkpt><trkpt lat="44.492980617327525" lon="8.842121546152981"><ele>517.4000000000001</ele><time>2026-05-01T14:40:03Z</time></trkpt><trkpt lat="44.493049679997725" lon="8.842064341319228"><ele>517.5999999999999</ele><time>2026-05-01T14:40:04Z</time></trkpt><trkpt lat="44.49316383720459" lon="8.84201215824433"><ele>517.8</ele><time>2026-05-01T14:40:06Z</time></trkpt><trkpt lat="44.49323340264141" lon="8.842029613917669"><ele>518.0</ele><time>2026-05-01T14:40:07Z</time></trkpt><trkpt lat="44.49334656645895" lon="8.842075037083644"><ele>518.0</ele><time>2026-05-01T14:40:09Z</time></trkpt><trkpt lat="44.49342426811826" lon="8.842033572824837"><ele>518.0</ele><time>2026-05-01T14:40:11Z</time></trkpt><trkpt lat="44.49348423803337" lon="8.84188043635144"><ele>518.0</ele><time>2026-05-01T14:40:13Z</time></trkpt><trkpt lat="44.49357643385551" lon="8.841804070478528"><ele>518.0</ele><time>2026-05-01T14:40:15Z</time></trkpt><trkpt lat="44.49362959732663" lon="8.841743935473733"><ele>518.0</ele><time>2026-05-01T14:40:16Z</time></trkpt><trkpt lat="44.493698579485866" lon="8.8417162004308"><ele>514.1666666666666</ele><time>2026-05-01T14:40:17Z</time></trkpt><trkpt lat="44.49375968972749" lon="8.84168668654928"><ele>510.3333333333333</ele><time>2026-05-01T14:40:18Z</time></trkpt><trkpt lat="44.49385760188522" lon="8.841580881719606"><ele>506.5</ele><time>2026-05-01T14:40:20Z</time></trkpt><trkpt lat="44.49390399172691" lon="8.841517571069879"><ele>502.66666666666663</ele><time>2026-05-01T14:40:21Z</time></trkpt><trkpt lat="44.4939308699291" lon="8.841434299224922"><ele>498.8333333333333</ele><time>2026-05-01T14:40:22Z</time></trkpt><trkpt lat="44.49396107815458" lon="8.84135240439634"><ele>495.0</ele><time>2026-05-01T14:40:23Z</time></trkpt><trkpt lat="44.49402813315604" lon="8.84121478807592"><ele>495.0</ele><time>2026-05-01T14:40:25Z</time></trkpt><trkpt lat="44.4941223433721" lon="8.841174213247088"><ele>495.0</ele><time>2026-05-01T14:40:27Z</time></trkpt><trkpt lat="44.49416786263824" lon="8.841107161342384"><ele>495.0</ele><time>2026-05-01T14:40:29Z</time></trkpt><trkpt lat="44.49416852841258" lon="8.840982486391876"><ele>495.0</ele><time>2026-05-01T14:40:31Z</time></trkpt><trkpt lat="44.49405986884422" lon="8.840884523815383"><ele>495.0</ele><time>2026-05-01T14:40:33Z</time></trkpt><trkpt lat="44.493971145563194" lon="8.840895547985777"><ele>493.0</ele><time>2026-05-01T14:40:34Z</time></trkpt><trkpt lat="44.49386640879277" lon="8.84088709371278"><ele>491.0</ele><time>2026-05-01T14:40:36Z</time></trkpt><trkpt lat="44.49375694835661" lon="8.84092026935577"><ele>489.0</ele><time>2026-05-01T14:40:38Z</time></trkpt><trkpt lat="44.49364588268895" lon="8.840916841863542"><ele>487.0</ele><time>2026-05-01T14:40:40Z</time></trkpt><trkpt lat="44.493558743600005" lon="8.840908130922962"><ele>485.0</ele><time>2026-05-01T14:40:42Z</time></trkpt><trkpt lat="44.493510359940515" lon="8.840841045667936"><ele>481.8333333333333</ele><time>2026-05-01T14:40:44Z</time></trkpt><trkpt lat="44.493475977586364" lon="8.840706380853371"><ele>478.66666666666663</ele><time>2026-05-01T14:40:46Z</time></trkpt><trkpt lat="44.49341786966884" lon="8.840644705927867"><ele>475.5</ele><time>2026-05-01T14:40:47Z</time></trkpt><trkpt lat="44.493360893779055" lon="8.840600438887767"><ele>472.33333333333337</ele><time>2026-05-01T14:40:48Z</time></trkpt><trkpt lat="44.49329603618447" lon="8.840585549412769"><ele>469.1666666666667</ele><time>2026-05-01T14:40:49Z</time></trkpt><trkpt lat="44.49319636653282" lon="8.840520058943389"><ele>466.0</ele><time>2026-05-01T14:40:51Z</time></trkpt><trkpt lat="44.49310657600258" lon="8.84044536080612"><ele>466.0</ele><time>2026-05-01T14:40:53Z</time></trkpt><trkpt lat="44.49303598637364" lon="8.840317559701225"><ele>466.0</ele><time>2026-05-01T14:40:55Z</time></trkpt><trkpt lat="44.49294977083413" lon="8.840220036586887"><ele>466.0</ele><time>2026-05-01T14:40:57Z</time></trkpt><trkpt lat="44.49287085110491" lon="8.840086081818464"><ele>466.0</ele><time>2026-05-01T14:40:59Z</time></trkpt><trkpt lat="44.49280961169063" lon="8.839973614659394"><ele>462.50000000000006</ele><time>2026-05-01T14:41:01Z</time></trkpt><trkpt lat="44.49278761483661" lon="8.83985868232012"><ele>459.0</ele><time>2026-05-01T14:41:03.001Z</time></trkpt><trkpt lat="44.492825313347836" lon="8.839731742713695"><ele>455.5</ele><time>2026-05-01T14:41:05.001Z</time></trkpt><trkpt lat="44.49286609677723" lon="8.839659530308186"><ele>452.0</ele><time>2026-05-01T14:41:07.001Z</time></trkpt><trkpt lat="44.49284474446373" lon="8.839576374999544"><ele>448.50000000000006</ele><time>2026-05-01T14:41:10.001Z</time></trkpt><trkpt lat="44.49277491557567" lon="8.839532321720295"><ele>445.0</ele><time>2026-05-01T14:41:12.001Z</time></trkpt><trkpt lat="44.49273335854667" lon="8.839691262410284"><ele>445.0</ele><time>2026-05-01T14:41:14.001Z</time></trkpt><trkpt lat="44.49269229910305" lon="8.839845717648128"><ele>445.0</ele><time>2026-05-01T14:41:16.001Z</time></trkpt><trkpt lat="44.4926811149544" lon="8.83994169802804"><ele>445.0</ele><time>2026-05-01T14:41:18.001Z</time></trkpt><trkpt lat="44.492697509504104" lon="8.840104153830652"><ele>445.0</ele><time>2026-05-01T14:41:20.001Z</time></trkpt><trkpt lat="44.49271911028727" lon="8.840246284945705"><ele>445.0</ele><time>2026-05-01T14:41:22.001Z</time></trkpt><trkpt lat="44.492748629731224" lon="8.840362162942007"><ele>446.4</ele><time>2026-05-01T14:41:24Z</time></trkpt><trkpt lat="44.4928014251779" lon="8.84046528270065"><ele>447.8</ele><time>2026-05-01T14:41:26Z</time></trkpt><trkpt lat="44.492864249723816" lon="8.840576926262763"><ele>449.20000000000005</ele><time>2026-05-01T14:41:28Z</time></trkpt><trkpt lat="44.49291652016977" lon="8.840688496059759"><ele>450.6</ele><time>2026-05-01T14:41:30Z</time></trkpt><trkpt lat="44.492948243296155" lon="8.840793841886295"><ele>452.0</ele><time>2026-05-01T14:41:32Z</time></trkpt><trkpt lat="44.49292289135028" lon="8.840926798154612"><ele>451.99999999999994</ele><time>2026-05-01T14:41:34Z</time></trkpt><trkpt lat="44.49280916359794" lon="8.840999009538471"><ele>452.0</ele><time>2026-05-01T14:41:36Z</time></trkpt><trkpt lat="44.49274703414616" lon="8.840977952228135"><ele>452.0</ele><time>2026-05-01T14:41:37Z</time></trkpt><trkpt lat="44.49267881686432" lon="8.840968218580764"><ele>452.0</ele><time>2026-05-01T14:41:38Z</time></trkpt><trkpt lat="44.492607412972184" lon="8.840951839313377"><ele>451.99999999999994</ele><time>2026-05-01T14:41:39Z</time></trkpt><trkpt lat="44.49254511746381" lon="8.840932084370156"><ele>452.0</ele><time>2026-05-01T14:41:40Z</time></trkpt><trkpt lat="44.49242862489518" lon="8.840942559497588"><ele>451.99999999999994</ele><time>2026-05-01T14:41:42Z</time></trkpt><trkpt lat="44.49236344328864" lon="8.8409304370702"><ele>452.0</ele><time>2026-05-01T14:41:43Z</time></trkpt><trkpt lat="44.492295940738366" lon="8.840910498753795"><ele>452.0</ele><time>2026-05-01T14:41:44Z</time></trkpt><trkpt lat="44.49223085526913" lon="8.840886323894741"><ele>452.0</ele><time>2026-05-01T14:41:45Z</time></trkpt><trkpt lat="44.49216925704735" lon="8.84086562317925"><ele>451.99999999999994</ele><time>2026-05-01T14:41:46Z</time></trkpt><trkpt lat="44.49210782338679" lon="8.840835652087195"><ele>452.0</ele><time>2026-05-01T14:41:47Z</time></trkpt><trkpt lat="44.49198538578008" lon="8.840811852719437"><ele>451.8</ele><time>2026-05-01T14:41:49Z</time></trkpt><trkpt lat="44.49191542450032" lon="8.840764425171075"><ele>451.6</ele><time>2026-05-01T14:41:50Z</time></trkpt><trkpt lat="44.49183592524443" lon="8.840737369315788"><ele>451.40000000000003</ele><time>2026-05-01T14:41:51Z</time></trkpt><trkpt lat="44.49175683046163" lon="8.840637820266997"><ele>451.20000000000005</ele><time>2026-05-01T14:41:52Z</time></trkpt><trkpt lat="44.491654574047175" lon="8.840545049386943"><ele>451.0</ele><time>2026-05-01T14:41:53Z</time></trkpt><trkpt lat="44.49154936462708" lon="8.840450835634043"><ele>451.0</ele><time>2026-05-01T14:41:54Z</time></trkpt><trkpt lat="44.4914439657246" lon="8.84038588377105"><ele>451.0</ele><time>2026-05-01T14:41:55Z</time></trkpt><trkpt lat="44.491368804973256" lon="8.84031092833374"><ele>451.0</ele><time>2026-05-01T14:41:56Z</time></trkpt><trkpt lat="44.491283522479655" lon="8.840251999351127"><ele>451.0</ele><time>2026-05-01T14:41:57Z</time></trkpt><trkpt lat="44.491184275268424" lon="8.840231853291996"><ele>451.0</ele><time>2026-05-01T14:41:58Z</time></trkpt><trkpt lat="44.49107707697561" lon="8.840218876717895"><ele>450.0</ele><time>2026-05-01T14:41:59Z</time></trkpt><trkpt lat="44.49095315691905" lon="8.84017866050504"><ele>449.0</ele><time>2026-05-01T14:42:00Z</time></trkpt><trkpt lat="44.49083437825857" lon="8.840115886449983"><ele>448.0</ele><time>2026-05-01T14:42:01Z</time></trkpt><trkpt lat="44.4907179600012" lon="8.840079511314231"><ele>447.0</ele><time>2026-05-01T14:42:02Z</time></trkpt><trkpt lat="44.490610489924244" lon="8.840050746565948"><ele>442.40000000000003</ele><time>2026-05-01T14:42:03Z</time></trkpt><trkpt lat="44.490512540230405" lon="8.840015913521597"><ele>437.80000000000007</ele><time>2026-05-01T14:42:04Z</time></trkpt><trkpt lat="44.49042296131492" lon="8.83994003409183"><ele>433.2</ele><time>2026-05-01T14:42:05Z</time></trkpt><trkpt lat="44.49035414697291" lon="8.839869506049842"><ele>428.6</ele><time>2026-05-01T14:42:06Z</time></trkpt><trkpt lat="44.49028427763975" lon="8.83977051684709"><ele>424.0</ele><time>2026-05-01T14:42:07Z</time></trkpt><trkpt lat="44.49021224516047" lon="8.839640323370899"><ele>423.33333333333337</ele><time>2026-05-01T14:42:08Z</time></trkpt><trkpt lat="44.490147639909544" lon="8.839526085805993"><ele>422.6666666666667</ele><time>2026-05-01T14:42:09Z</time></trkpt><trkpt lat="44.4900848448601" lon="8.83943336999318"><ele>422.0</ele><time>2026-05-01T14:42:10Z</time></trkpt><trkpt lat="44.4900253397106" lon="8.839358893955755"><ele>421.33333333333337</ele><time>2026-05-01T14:42:11Z</time></trkpt><trkpt lat="44.48996824089622" lon="8.839302853666348"><ele>420.6666666666667</ele><time>2026-05-01T14:42:12Z</time></trkpt><trkpt lat="44.48989599495535" lon="8.839270467840977"><ele>420.0</ele><time>2026-05-01T14:42:13Z</time></trkpt><trkpt lat="44.4897983754126" lon="8.839287940845317"><ele>420.0</ele><time>2026-05-01T14:42:14Z</time></trkpt><trkpt lat="44.489704904253365" lon="8.839324446699516"><ele>420.0</ele><time>2026-05-01T14:42:15Z</time></trkpt><trkpt lat="44.489615813148625" lon="8.839397314225764"><ele>420.0</ele><time>2026-05-01T14:42:16Z</time></trkpt><trkpt lat="44.48953446200815" lon="8.839483842667496"><ele>420.0</ele><time>2026-05-01T14:42:17Z</time></trkpt><trkpt lat="44.4894682810688" lon="8.839561084548127"><ele>420.0</ele><time>2026-05-01T14:42:18Z</time></trkpt><trkpt lat="44.48939707266623" lon="8.839608961033298"><ele>416.4</ele><time>2026-05-01T14:42:19Z</time></trkpt><trkpt lat="44.489338563894826" lon="8.839653862827351"><ele>412.8</ele><time>2026-05-01T14:42:20Z</time></trkpt><trkpt lat="44.48931685002534" lon="8.839848480717423"><ele>409.20000000000005</ele><time>2026-05-01T14:42:22Z</time></trkpt><trkpt lat="44.489371968852495" lon="8.839979027593746"><ele>405.6</ele><time>2026-05-01T14:42:23Z</time></trkpt><trkpt lat="44.48944932292868" lon="8.840097357632521"><ele>402.0</ele><time>2026-05-01T14:42:24Z</time></trkpt><trkpt lat="44.48951633127934" lon="8.840229261860879"><ele>402.0</ele><time>2026-05-01T14:42:25Z</time></trkpt><trkpt lat="44.489567826460764" lon="8.840332215300977"><ele>402.0</ele><time>2026-05-01T14:42:26Z</time></trkpt><trkpt lat="44.48959781718672" lon="8.840429675444456"><ele>402.0</ele><time>2026-05-01T14:42:27Z</time></trkpt><trkpt lat="44.48963974829431" lon="8.840565477599993"><ele>402.0</ele><time>2026-05-01T14:42:29Z</time></trkpt><trkpt lat="44.48955027022331" lon="8.840614229623139"><ele>402.0</ele><time>2026-05-01T14:42:32Z</time></trkpt><trkpt lat="44.48950778693376" lon="8.840532308632275"><ele>402.0</ele><time>2026-05-01T14:42:33Z</time></trkpt><trkpt lat="44.48948302182599" lon="8.84041965997115"><ele>402.0</ele><time>2026-05-01T14:42:34Z</time></trkpt><trkpt lat="44.48942992834931" lon="8.8403116303339"><ele>402.0</ele><time>2026-05-01T14:42:35Z</time></trkpt><trkpt lat="44.48937140965542" lon="8.840229258747442"><ele>402.0</ele><time>2026-05-01T14:42:36Z</time></trkpt><trkpt lat="44.48929305764847" lon="8.84017163285498"><ele>402.0</ele><time>2026-05-01T14:42:37Z</time></trkpt><trkpt lat="44.489218631691415" lon="8.84012115417056"><ele>402.0</ele><time>2026-05-01T14:42:38Z</time></trkpt><trkpt lat="44.489142413721915" lon="8.840076046930848"><ele>402.0</ele><time>2026-05-01T14:42:39Z</time></trkpt><trkpt lat="44.489079622363256" lon="8.840030276848506"><ele>400.40000000000003</ele><time>2026-05-01T14:42:40Z</time></trkpt><trkpt lat="44.48902396308871" lon="8.83998616347253"><ele>398.8</ele><time>2026-05-01T14:42:41Z</time></trkpt><trkpt lat="44.48893651580086" lon="8.839910358092656"><ele>397.2</ele><time>2026-05-01T14:42:43Z</time></trkpt><trkpt lat="44.488908432422186" lon="8.839782675925079"><ele>395.6</ele><time>2026-05-01T14:42:45Z</time></trkpt><trkpt lat="44.4889670644875" lon="8.83964100746498"><ele>394.0</ele><time>2026-05-01T14:42:47Z</time></trkpt><trkpt lat="44.489007398139805" lon="8.839518549940713"><ele>394.00000000000006</ele><time>2026-05-01T14:42:48Z</time></trkpt><trkpt lat="44.48904135167143" lon="8.839420180488078"><ele>394.0</ele><time>2026-05-01T14:42:49Z</time></trkpt><trkpt lat="44.489067645961164" lon="8.839315217118132"><ele>394.0</ele><time>2026-05-01T14:42:50Z</time></trkpt><trkpt lat="44.48909724724798" lon="8.839219186882126"><ele>394.0</ele><time>2026-05-01T14:42:51Z</time></trkpt><trkpt lat="44.48910741679206" lon="8.83912535443887"><ele>394.00000000000006</ele><time>2026-05-01T14:42:52Z</time></trkpt><trkpt lat="44.489122488920025" lon="8.839026758933738"><ele>394.0</ele><time>2026-05-01T14:42:53Z</time></trkpt><trkpt lat="44.489085627796946" lon="8.838899061396308"><ele>393.4</ele><time>2026-05-01T14:42:54Z</time></trkpt><trkpt lat="44.48906879446127" lon="8.838796311420221"><ele>392.79999999999995</ele><time>2026-05-01T14:42:55Z</time></trkpt><trkpt lat="44.489058641031875" lon="8.838694025750364"><ele>392.20000000000005</ele><time>2026-05-01T14:42:56Z</time></trkpt><trkpt lat="44.48905151531438" lon="8.838596861386236"><ele>391.6</ele><time>2026-05-01T14:42:57Z</time></trkpt><trkpt lat="44.48902023359342" lon="8.83841669099091"><ele>391.0</ele><time>2026-05-01T14:42:59Z</time></trkpt><trkpt lat="44.48899671097617" lon="8.838269354337758"><ele>391.00000000000006</ele><time>2026-05-01T14:43:01Z</time></trkpt><trkpt lat="44.48888138695777" lon="8.838233744014023"><ele>391.0</ele><time>2026-05-01T14:43:03Z</time></trkpt><trkpt lat="44.48883213261364" lon="8.838318307181257"><ele>391.0</ele><time>2026-05-01T14:43:04Z</time></trkpt><trkpt lat="44.48881436558249" lon="8.83840543407738"><ele>391.0</ele><time>2026-05-01T14:43:05Z</time></trkpt><trkpt lat="44.488819330506985" lon="8.838500595301248"><ele>391.00000000000006</ele><time>2026-05-01T14:43:06Z</time></trkpt><trkpt lat="44.48881431820942" lon="8.838591963904706"><ele>391.0</ele><time>2026-05-01T14:43:07Z</time></trkpt><trkpt lat="44.48876068315542" lon="8.838663099296193"><ele>386.6</ele><time>2026-05-01T14:43:08Z</time></trkpt><trkpt lat="44.488745691807665" lon="8.838756184283863"><ele>382.20000000000005</ele><time>2026-05-01T14:43:09Z</time></trkpt><trkpt lat="44.48871430312984" lon="8.83890421854114"><ele>377.79999999999995</ele><time>2026-05-01T14:43:11Z</time></trkpt><trkpt lat="44.4886618731053" lon="8.83901433050768"><ele>373.4</ele><time>2026-05-01T14:43:13Z</time></trkpt><trkpt lat="44.48855275195367" lon="8.839108945766736"><ele>369.0</ele><time>2026-05-01T14:43:15Z</time></trkpt><trkpt lat="44.488463153739644" lon="8.839216229681108"><ele>369.0</ele><time>2026-05-01T14:43:17Z</time></trkpt><trkpt lat="44.48841031909663" lon="8.839282901914757"><ele>369.0</ele><time>2026-05-01T14:43:18Z</time></trkpt><trkpt lat="44.48829501264805" lon="8.839280905912938"><ele>369.0</ele><time>2026-05-01T14:43:20Z</time></trkpt><trkpt lat="44.48815107877211" lon="8.83925046045518"><ele>369.0</ele><time>2026-05-01T14:43:22Z</time></trkpt><trkpt lat="44.48806995533342" lon="8.839229306775323"><ele>369.0</ele><time>2026-05-01T14:43:23Z</time></trkpt><trkpt lat="44.48800456740917" lon="8.839216010454352"><ele>369.2</ele><time>2026-05-01T14:43:24Z</time></trkpt><trkpt lat="44.4878909326459" lon="8.839192903324925"><ele>369.4</ele><time>2026-05-01T14:43:26Z</time></trkpt><trkpt lat="44.48781865047157" lon="8.839175803908054"><ele>369.6</ele><time>2026-05-01T14:43:27Z</time></trkpt><trkpt lat="44.48773662615852" lon="8.839152969429296"><ele>369.8</ele><time>2026-05-01T14:43:28Z</time></trkpt><trkpt lat="44.48764607118841" lon="8.839148399026703"><ele>370.0</ele><time>2026-05-01T14:43:29Z</time></trkpt><trkpt lat="44.487556787714674" lon="8.839102788508278"><ele>370.0</ele><time>2026-05-01T14:43:30Z</time></trkpt><trkpt lat="44.48746156191959" lon="8.839070133594085"><ele>370.0</ele><time>2026-05-01T14:43:31Z</time></trkpt><trkpt lat="44.48737195278726" lon="8.839039933507594"><ele>370.0</ele><time>2026-05-01T14:43:32Z</time></trkpt><trkpt lat="44.487293854077215" lon="8.83898326660972"><ele>370.0</ele><time>2026-05-01T14:43:33Z</time></trkpt><trkpt lat="44.487217993154594" lon="8.838948802312887"><ele>370.0</ele><time>2026-05-01T14:43:34Z</time></trkpt><trkpt lat="44.48714363083824" lon="8.838947474805922"><ele>370.0</ele><time>2026-05-01T14:43:35Z</time></trkpt><trkpt lat="44.48708061367578" lon="8.838922081832255"><ele>370.6</ele><time>2026-05-01T14:43:36Z</time></trkpt><trkpt lat="44.48696029610448" lon="8.83887324248606"><ele>371.2</ele><time>2026-05-01T14:43:38Z</time></trkpt><trkpt lat="44.48688435179019" lon="8.838842759841716"><ele>371.79999999999995</ele><time>2026-05-01T14:43:39Z</time></trkpt><trkpt lat="44.4868160301167" lon="8.838781222944577"><ele>372.4</ele><time>2026-05-01T14:43:40Z</time></trkpt><trkpt lat="44.486733927744886" lon="8.838700439593145"><ele>373.0</ele><time>2026-05-01T14:43:41Z</time></trkpt><trkpt lat="44.4866616558093" lon="8.83860338900443"><ele>373.0</ele><time>2026-05-01T14:43:42Z</time></trkpt><trkpt lat="44.48659721505203" lon="8.838484574684447"><ele>373.0</ele><time>2026-05-01T14:43:43Z</time></trkpt><trkpt lat="44.48651228376577" lon="8.838424150132807"><ele>373.0</ele><time>2026-05-01T14:43:44Z</time></trkpt><trkpt lat="44.48642107866451" lon="8.838342696617172"><ele>373.0</ele><time>2026-05-01T14:43:45Z</time></trkpt><trkpt lat="44.48633857665713" lon="8.838265147192875"><ele>373.0</ele><time>2026-05-01T14:43:46Z</time></trkpt><trkpt lat="44.48626276480406" lon="8.83820185504175"><ele>370.66666666666663</ele><time>2026-05-01T14:43:47Z</time></trkpt><trkpt lat="44.48620206463645" lon="8.838132904495293"><ele>368.3333333333333</ele><time>2026-05-01T14:43:48Z</time></trkpt><trkpt lat="44.48614792839174" lon="8.838052893608483"><ele>366.0</ele><time>2026-05-01T14:43:49Z</time></trkpt><trkpt lat="44.48610450977909" lon="8.837979370471375"><ele>363.6666666666667</ele><time>2026-05-01T14:43:50Z</time></trkpt><trkpt lat="44.4860642568679" lon="8.83789474602899"><ele>361.33333333333337</ele><time>2026-05-01T14:43:51Z</time></trkpt><trkpt lat="44.486028497555736" lon="8.837821581582476"><ele>359.0</ele><time>2026-05-01T14:43:52Z</time></trkpt><trkpt lat="44.48593713300083" lon="8.837720746101766"><ele>359.0</ele><time>2026-05-01T14:43:54Z</time></trkpt><trkpt lat="44.48582812139769" lon="8.837673512483512"><ele>359.0</ele><time>2026-05-01T14:43:56Z</time></trkpt><trkpt lat="44.485762465285596" lon="8.837720198386853"><ele>359.0</ele><time>2026-05-01T14:43:57Z</time></trkpt><trkpt lat="44.485690918504545" lon="8.837779940180036"><ele>359.0</ele><time>2026-05-01T14:43:58Z</time></trkpt><trkpt lat="44.48561894693156" lon="8.83785718142339"><ele>359.0</ele><time>2026-05-01T14:43:59Z</time></trkpt><trkpt lat="44.48555199997508" lon="8.83792748431484"><ele>359.0</ele><time>2026-05-01T14:44:00Z</time></trkpt><trkpt lat="44.48547707607975" lon="8.837970645987362"><ele>357.0</ele><time>2026-05-01T14:44:01Z</time></trkpt><trkpt lat="44.48536760738668" lon="8.83798977047243"><ele>355.0</ele><time>2026-05-01T14:44:03Z</time></trkpt><trkpt lat="44.485268991230534" lon="8.837965464255925"><ele>353.0</ele><time>2026-05-01T14:44:05Z</time></trkpt><trkpt lat="44.485181788139094" lon="8.837837319435446"><ele>351.0</ele><time>2026-05-01T14:44:07Z</time></trkpt><trkpt lat="44.485153217155485" lon="8.837719898700135"><ele>349.0</ele><time>2026-05-01T14:44:08Z</time></trkpt><trkpt lat="44.485131493091956" lon="8.837584800910516"><ele>349.0</ele><time>2026-05-01T14:44:09Z</time></trkpt><trkpt lat="44.485121454773385" lon="8.837424209552319"><ele>349.0</ele><time>2026-05-01T14:44:10Z</time></trkpt><trkpt lat="44.48506020054284" lon="8.837306171837415"><ele>349.0</ele><time>2026-05-01T14:44:11Z</time></trkpt><trkpt lat="44.4850167249238" lon="8.83720304311062"><ele>349.0</ele><time>2026-05-01T14:44:12Z</time></trkpt><trkpt lat="44.484952780650566" lon="8.837138377394865"><ele>349.0</ele><time>2026-05-01T14:44:13Z</time></trkpt><trkpt lat="44.48488796624378" lon="8.837099984219758"><ele>349.0</ele><time>2026-05-01T14:44:14Z</time></trkpt><trkpt lat="44.484742197546105" lon="8.837204263464356"><ele>349.0</ele><time>2026-05-01T14:44:16Z</time></trkpt><trkpt lat="44.48467191605844" lon="8.837338234228923"><ele>349.0</ele><time>2026-05-01T14:44:17Z</time></trkpt><trkpt lat="44.484584627093916" lon="8.837471703279663"><ele>349.0</ele><time>2026-05-01T14:44:18Z</time></trkpt><trkpt lat="44.48452106449681" lon="8.837552384681768"><ele>348.4</ele><time>2026-05-01T14:44:19Z</time></trkpt><trkpt lat="44.4844588803776" lon="8.837620994056767"><ele>347.79999999999995</ele><time>2026-05-01T14:44:20Z</time></trkpt><trkpt lat="44.48432617811054" lon="8.837651571498396"><ele>347.20000000000005</ele><time>2026-05-01T14:44:22Z</time></trkpt><trkpt lat="44.484215117256596" lon="8.837654578547088"><ele>346.6</ele><time>2026-05-01T14:44:23Z</time></trkpt><trkpt lat="44.4841183470556" lon="8.837567066457886"><ele>346.0</ele><time>2026-05-01T14:44:24Z</time></trkpt><trkpt lat="44.48404156773507" lon="8.837517394817773"><ele>346.0</ele><time>2026-05-01T14:44:25Z</time></trkpt><trkpt lat="44.483989818375086" lon="8.83745199849533"><ele>346.0</ele><time>2026-05-01T14:44:26Z</time></trkpt><trkpt lat="44.48393531667943" lon="8.837321201419044"><ele>346.0</ele><time>2026-05-01T14:44:27Z</time></trkpt><trkpt lat="44.48386521517457" lon="8.837155072490752"><ele>346.0</ele><time>2026-05-01T14:44:28Z</time></trkpt><trkpt lat="44.48379984330962" lon="8.837025073290436"><ele>346.0</ele><time>2026-05-01T14:44:29Z</time></trkpt><trkpt lat="44.483724966230525" lon="8.836919604616876"><ele>346.6</ele><time>2026-05-01T14:44:30Z</time></trkpt><trkpt lat="44.48365867239205" lon="8.836837734615626"><ele>347.20000000000005</ele><time>2026-05-01T14:44:31Z</time></trkpt><trkpt lat="44.48358837499473" lon="8.836767810722911"><ele>347.79999999999995</ele><time>2026-05-01T14:44:32Z</time></trkpt><trkpt lat="44.48350409981467" lon="8.836700507903393"><ele>348.4</ele><time>2026-05-01T14:44:33Z</time></trkpt><trkpt lat="44.48337447429958" lon="8.836683389312068"><ele>349.0</ele><time>2026-05-01T14:44:34Z</time></trkpt><trkpt lat="44.48322122944707" lon="8.836671918466793"><ele>346.25</ele><time>2026-05-01T14:44:35Z</time></trkpt><trkpt lat="44.48307120883867" lon="8.83666580628809"><ele>343.5</ele><time>2026-05-01T14:44:36Z</time></trkpt><trkpt lat="44.48296843329614" lon="8.836665045151081"><ele>340.75</ele><time>2026-05-01T14:44:37Z</time></trkpt><trkpt lat="44.48284499819934" lon="8.836702039825163"><ele>338.0</ele><time>2026-05-01T14:44:39Z</time></trkpt><trkpt lat="44.48276908386997" lon="8.836766737399273"><ele>337.4</ele><time>2026-05-01T14:44:40Z</time></trkpt><trkpt lat="44.48268307936155" lon="8.836853924047492"><ele>336.79999999999995</ele><time>2026-05-01T14:44:41Z</time></trkpt><trkpt lat="44.48259590305956" lon="8.836973603510584"><ele>336.2</ele><time>2026-05-01T14:44:42Z</time></trkpt><trkpt lat="44.482539598728216" lon="8.837086563696523"><ele>335.6</ele><time>2026-05-01T14:44:43Z</time></trkpt><trkpt lat="44.48248418526261" lon="8.83716629233131"><ele>335.0</ele><time>2026-05-01T14:44:44Z</time></trkpt><trkpt lat="44.48241792478378" lon="8.837231844223108"><ele>335.0</ele><time>2026-05-01T14:44:46Z</time></trkpt><trkpt lat="44.48227695200829" lon="8.83720749475731"><ele>335.0</ele><time>2026-05-01T14:44:48Z</time></trkpt><trkpt lat="44.48218110812838" lon="8.837188799249684"><ele>335.0</ele><time>2026-05-01T14:44:49Z</time></trkpt><trkpt lat="44.48211503220751" lon="8.837152915659573"><ele>335.0</ele><time>2026-05-01T14:44:50Z</time></trkpt><trkpt lat="44.48205856409034" lon="8.837098264238689"><ele>335.0</ele><time>2026-05-01T14:44:51Z</time></trkpt><trkpt lat="44.4820255371148" lon="8.83701165907514"><ele>335.0</ele><time>2026-05-01T14:44:52Z</time></trkpt><trkpt lat="44.48200221135727" lon="8.836905886032675"><ele>332.6666666666667</ele><time>2026-05-01T14:44:53Z</time></trkpt><trkpt lat="44.481996140401364" lon="8.836777493872459"><ele>330.33333333333337</ele><time>2026-05-01T14:44:54Z</time></trkpt><trkpt lat="44.48200010182883" lon="8.836615792860616"><ele>328.0</ele><time>2026-05-01T14:44:55Z</time></trkpt><trkpt lat="44.48199224623168" lon="8.836504990697797"><ele>325.6666666666667</ele><time>2026-05-01T14:44:56Z</time></trkpt><trkpt lat="44.481986611270834" lon="8.836397673586308"><ele>323.3333333333333</ele><time>2026-05-01T14:44:57Z</time></trkpt><trkpt lat="44.48196197401719" lon="8.836297898730104"><ele>321.0</ele><time>2026-05-01T14:44:58Z</time></trkpt><trkpt lat="44.481870911914996" lon="8.836204022646351"><ele>321.0</ele><time>2026-05-01T14:44:59Z</time></trkpt><trkpt lat="44.481780846872134" lon="8.83610054129413"><ele>321.0</ele><time>2026-05-01T14:45:00Z</time></trkpt><trkpt lat="44.481706256865955" lon="8.836023932142519"><ele>321.0</ele><time>2026-05-01T14:45:01Z</time></trkpt><trkpt lat="44.481623367145744" lon="8.835967741831869"><ele>321.0</ele><time>2026-05-01T14:45:02Z</time></trkpt><trkpt lat="44.481537667004204" lon="8.835949457447688"><ele>321.0</ele><time>2026-05-01T14:45:03Z</time></trkpt><trkpt lat="44.481440603672766" lon="8.835927834621135"><ele>321.0</ele><time>2026-05-01T14:45:04Z</time></trkpt><trkpt lat="44.48133062374766" lon="8.836010092870776"><ele>321.0</ele><time>2026-05-01T14:45:05Z</time></trkpt><trkpt lat="44.48121327403692" lon="8.836051004336563"><ele>321.0</ele><time>2026-05-01T14:45:06Z</time></trkpt><trkpt lat="44.48113675825203" lon="8.83609526883198"><ele>321.0</ele><time>2026-05-01T14:45:07Z</time></trkpt><trkpt lat="44.481069174535065" lon="8.836116230693905"><ele>321.0</ele><time>2026-05-01T14:45:08Z</time></trkpt><trkpt lat="44.48098812625808" lon="8.836080632484537"><ele>321.5</ele><time>2026-05-01T14:45:09Z</time></trkpt><trkpt lat="44.48088975667177" lon="8.836071133168964"><ele>322.0</ele><time>2026-05-01T14:45:10Z</time></trkpt><trkpt lat="44.480814659937906" lon="8.836065060020017"><ele>322.5</ele><time>2026-05-01T14:45:11Z</time></trkpt><trkpt lat="44.4807480542559" lon="8.836061554457425"><ele>323.0</ele><time>2026-05-01T14:45:12Z</time></trkpt><trkpt lat="44.48067331289994" lon="8.836057236568406"><ele>323.5</ele><time>2026-05-01T14:45:13Z</time></trkpt><trkpt lat="44.480554169093445" lon="8.836045864686637"><ele>324.0</ele><time>2026-05-01T14:45:15Z</time></trkpt><trkpt lat="44.48049347624516" lon="8.836013526813716"><ele>322.5</ele><time>2026-05-01T14:45:16Z</time></trkpt><trkpt lat="44.48040886241319" lon="8.835955254704764"><ele>321.0</ele><time>2026-05-01T14:45:17Z</time></trkpt><trkpt lat="44.480349553608335" lon="8.835842786741928"><ele>319.5</ele><time>2026-05-01T14:45:18Z</time></trkpt><trkpt lat="44.48027768861796" lon="8.835782214998698"><ele>318.0</ele><time>2026-05-01T14:45:19Z</time></trkpt><trkpt lat="44.48020082424255" lon="8.83579883564298"><ele>316.5</ele><time>2026-05-01T14:45:20Z</time></trkpt><trkpt lat="44.480121749668314" lon="8.835780041738458"><ele>315.0</ele><time>2026-05-01T14:45:21Z</time></trkpt><trkpt lat="44.48002512709029" lon="8.835737496095861"><ele>315.0</ele><time>2026-05-01T14:45:22Z</time></trkpt><trkpt lat="44.47993049579044" lon="8.835655261168576"><ele>315.0</ele><time>2026-05-01T14:45:23Z</time></trkpt><trkpt lat="44.47984253345552" lon="8.835584205697758"><ele>315.0</ele><time>2026-05-01T14:45:24Z</time></trkpt><trkpt lat="44.47976626248412" lon="8.83551467225039"><ele>315.0</ele><time>2026-05-01T14:45:25Z</time></trkpt><trkpt lat="44.4797183312751" lon="8.835454207980922"><ele>315.0</ele><time>2026-05-01T14:45:26Z</time></trkpt><trkpt lat="44.47971401592685" lon="8.83528097392879"><ele>315.0</ele><time>2026-05-01T14:45:28Z</time></trkpt><trkpt lat="44.47973049898933" lon="8.835160124383652"><ele>315.0</ele><time>2026-05-01T14:45:29Z</time></trkpt><trkpt lat="44.47971561073154" lon="8.83500420727913"><ele>315.0</ele><time>2026-05-01T14:45:30Z</time></trkpt><trkpt lat="44.47967847001113" lon="8.834818692784156"><ele>315.0</ele><time>2026-05-01T14:45:31Z</time></trkpt><trkpt lat="44.47963963206217" lon="8.834658983736952"><ele>314.2</ele><time>2026-05-01T14:45:32Z</time></trkpt><trkpt lat="44.47961814961727" lon="8.834518546828443"><ele>313.4</ele><time>2026-05-01T14:45:33Z</time></trkpt><trkpt lat="44.47960221405271" lon="8.834384965421595"><ele>312.6</ele><time>2026-05-01T14:45:34Z</time></trkpt><trkpt lat="44.47957295769095" lon="8.834303730964956"><ele>311.8</ele><time>2026-05-01T14:45:35Z</time></trkpt><trkpt lat="44.47949431066692" lon="8.834135421216406"><ele>311.0</ele><time>2026-05-01T14:45:37Z</time></trkpt><trkpt lat="44.479414461445955" lon="8.834054484687638"><ele>308.25</ele><time>2026-05-01T14:45:38Z</time></trkpt><trkpt lat="44.479310272649826" lon="8.833994298122056"><ele>305.5</ele><time>2026-05-01T14:45:39Z</time></trkpt><trkpt lat="44.47919140045785" lon="8.833923983157527"><ele>302.75</ele><time>2026-05-01T14:45:40Z</time></trkpt><trkpt lat="44.479073682115626" lon="8.833921746243625"><ele>300.0</ele><time>2026-05-01T14:45:41Z</time></trkpt><trkpt lat="44.478929440666036" lon="8.833903856171538"><ele>303.0</ele><time>2026-05-01T14:45:42Z</time></trkpt><trkpt lat="44.47875057845946" lon="8.833903443742509"><ele>306.0</ele><time>2026-05-01T14:45:43Z</time></trkpt><trkpt lat="44.478588269222115" lon="8.83390570001706"><ele>309.0</ele><time>2026-05-01T14:45:44Z</time></trkpt><trkpt lat="44.47845802485516" lon="8.833902523831211"><ele>309.0</ele><time>2026-05-01T14:45:45Z</time></trkpt><trkpt lat="44.47833977428722" lon="8.833857079632198"><ele>309.0</ele><time>2026-05-01T14:45:46Z</time></trkpt><trkpt lat="44.47819709245044" lon="8.8337773332921"><ele>309.0</ele><time>2026-05-01T14:45:47Z</time></trkpt><trkpt lat="44.47802808702211" lon="8.833711630877117"><ele>310.25</ele><time>2026-05-01T14:45:48Z</time></trkpt><trkpt lat="44.47789876811209" lon="8.83363006076146"><ele>311.5</ele><time>2026-05-01T14:45:49Z</time></trkpt><trkpt lat="44.477796301071386" lon="8.833552321574146"><ele>312.75</ele><time>2026-05-01T14:45:50Z</time></trkpt><trkpt lat="44.477700786343156" lon="8.833499674114549"><ele>314.0</ele><time>2026-05-01T14:45:51Z</time></trkpt><trkpt lat="44.47760545114932" lon="8.833450079774833"><ele>309.8</ele><time>2026-05-01T14:45:52Z</time></trkpt><trkpt lat="44.477522348468646" lon="8.833383642178216"><ele>305.59999999999997</ele><time>2026-05-01T14:45:53Z</time></trkpt><trkpt lat="44.47743748953892" lon="8.833325427444507"><ele>301.4</ele><time>2026-05-01T14:45:54Z</time></trkpt><trkpt lat="44.47736618357239" lon="8.833228561376991"><ele>297.2</ele><time>2026-05-01T14:45:55Z</time></trkpt><trkpt lat="44.47727512407773" lon="8.833154162414077"><ele>293.0</ele><time>2026-05-01T14:45:56Z</time></trkpt><trkpt lat="44.477187478920776" lon="8.833012550414358"><ele>297.75</ele><time>2026-05-01T14:45:57Z</time></trkpt><trkpt lat="44.47708685789027" lon="8.832879225536258"><ele>302.5</ele><time>2026-05-01T14:45:58Z</time></trkpt><trkpt lat="44.47698653515923" lon="8.832762554309532"><ele>307.25</ele><time>2026-05-01T14:45:59Z</time></trkpt><trkpt lat="44.476903799660874" lon="8.83264906319955"><ele>312.0</ele><time>2026-05-01T14:46:00Z</time></trkpt><trkpt lat="44.476851797661254" lon="8.832513288455566"><ele>312.0</ele><time>2026-05-01T14:46:01Z</time></trkpt><trkpt lat="44.47677262660076" lon="8.83238411976913"><ele>312.0</ele><time>2026-05-01T14:46:02Z</time></trkpt><trkpt lat="44.47673923582601" lon="8.832207670061024"><ele>312.0</ele><time>2026-05-01T14:46:03Z</time></trkpt><trkpt lat="44.47669339918794" lon="8.832063102833557"><ele>312.0</ele><time>2026-05-01T14:46:04Z</time></trkpt><trkpt lat="44.47663742882621" lon="8.831947812083934"><ele>312.0</ele><time>2026-05-01T14:46:05Z</time></trkpt><trkpt lat="44.47657474891766" lon="8.831837638752544"><ele>312.0</ele><time>2026-05-01T14:46:06Z</time></trkpt><trkpt lat="44.476498332754375" lon="8.831729194671668"><ele>312.0</ele><time>2026-05-01T14:46:07Z</time></trkpt><trkpt lat="44.47642102785929" lon="8.831609092142255"><ele>312.0</ele><time>2026-05-01T14:46:08Z</time></trkpt><trkpt lat="44.476342097741984" lon="8.831495151501796"><ele>312.0</ele><time>2026-05-01T14:46:09Z</time></trkpt><trkpt lat="44.4762649429983" lon="8.83140796766781"><ele>310.1666666666667</ele><time>2026-05-01T14:46:10Z</time></trkpt><trkpt lat="44.476220003042094" lon="8.831320476823969"><ele>308.3333333333333</ele><time>2026-05-01T14:46:11Z</time></trkpt><trkpt lat="44.47616571929279" lon="8.83126824974935"><ele>306.5</ele><time>2026-05-01T14:46:12Z</time></trkpt><trkpt lat="44.476099886953634" lon="8.831238055795833"><ele>304.66666666666663</ele><time>2026-05-01T14:46:13Z</time></trkpt><trkpt lat="44.47601416178773" lon="8.831239999547975"><ele>302.8333333333333</ele><time>2026-05-01T14:46:14Z</time></trkpt><trkpt lat="44.47589283286631" lon="8.831283573950511"><ele>301.0</ele><time>2026-05-01T14:46:15Z</time></trkpt><trkpt lat="44.475770450654665" lon="8.831313780181556"><ele>301.0</ele><time>2026-05-01T14:46:16Z</time></trkpt><trkpt lat="44.47566543491476" lon="8.831315546632029"><ele>301.0</ele><time>2026-05-01T14:46:17Z</time></trkpt><trkpt lat="44.47558540871777" lon="8.831317348835405"><ele>301.0</ele><time>2026-05-01T14:46:18Z</time></trkpt><trkpt lat="44.47551252452722" lon="8.831297927659609"><ele>301.0</ele><time>2026-05-01T14:46:19Z</time></trkpt><trkpt lat="44.47544414264418" lon="8.831250333242837"><ele>301.0</ele><time>2026-05-01T14:46:20Z</time></trkpt><trkpt lat="44.47540018712526" lon="8.83113848242807"><ele>301.0</ele><time>2026-05-01T14:46:21Z</time></trkpt><trkpt lat="44.47536085708508" lon="8.83101582303932"><ele>295.5</ele><time>2026-05-01T14:46:22Z</time></trkpt><trkpt lat="44.47534848705369" lon="8.830858831702944"><ele>290.0</ele><time>2026-05-01T14:46:23Z</time></trkpt><trkpt lat="44.47529854388244" lon="8.830714016323613"><ele>284.5</ele><time>2026-05-01T14:46:24Z</time></trkpt><trkpt lat="44.47523508838303" lon="8.830574920715534"><ele>279.0</ele><time>2026-05-01T14:46:25Z</time></trkpt><trkpt lat="44.47517307432464" lon="8.830438853131017"><ele>279.0</ele><time>2026-05-01T14:46:26Z</time></trkpt><trkpt lat="44.47512841021008" lon="8.830313835320757"><ele>279.0</ele><time>2026-05-01T14:46:27Z</time></trkpt><trkpt lat="44.475091948029586" lon="8.830212961116338"><ele>279.0</ele><time>2026-05-01T14:46:28Z</time></trkpt><trkpt lat="44.47505151594342" lon="8.830124622202344"><ele>279.0</ele><time>2026-05-01T14:46:29Z</time></trkpt><trkpt lat="44.474930881117295" lon="8.830073010723869"><ele>279.0</ele><time>2026-05-01T14:46:31Z</time></trkpt><trkpt lat="44.474838297064274" lon="8.830099148769158"><ele>279.0</ele><time>2026-05-01T14:46:32Z</time></trkpt><trkpt lat="44.47473105869126" lon="8.830157437171854"><ele>279.0</ele><time>2026-05-01T14:46:33Z</time></trkpt><trkpt lat="44.47462743251267" lon="8.83021686453353"><ele>279.0</ele><time>2026-05-01T14:46:34Z</time></trkpt><trkpt lat="44.47454140180288" lon="8.83027363343019"><ele>279.0</ele><time>2026-05-01T14:46:35Z</time></trkpt><trkpt lat="44.47447817949249" lon="8.830331900479814"><ele>279.0</ele><time>2026-05-01T14:46:36Z</time></trkpt><trkpt lat="44.47443443853965" lon="8.830403071653754"><ele>276.8</ele><time>2026-05-01T14:46:37Z</time></trkpt><trkpt lat="44.474401786671365" lon="8.830498099699582"><ele>274.59999999999997</ele><time>2026-05-01T14:46:38Z</time></trkpt><trkpt lat="44.47438033527818" lon="8.83061859873675"><ele>272.4</ele><time>2026-05-01T14:46:39Z</time></trkpt><trkpt lat="44.47437275408717" lon="8.830758449173318"><ele>270.2</ele><time>2026-05-01T14:46:40Z</time></trkpt><trkpt lat="44.47434066908051" lon="8.830887698821932"><ele>268.0</ele><time>2026-05-01T14:46:41Z</time></trkpt><trkpt lat="44.47428813528401" lon="8.8310184071498"><ele>268.0</ele><time>2026-05-01T14:46:42Z</time></trkpt><trkpt lat="44.47421042606073" lon="8.831118320168214"><ele>268.0</ele><time>2026-05-01T14:46:43Z</time></trkpt><trkpt lat="44.474138511134605" lon="8.831247373089141"><ele>268.0</ele><time>2026-05-01T14:46:44Z</time></trkpt><trkpt lat="44.47402904772087" lon="8.831346280421911"><ele>268.0</ele><time>2026-05-01T14:46:45Z</time></trkpt><trkpt lat="44.47394014833837" lon="8.831453545011865"><ele>268.0</ele><time>2026-05-01T14:46:46Z</time></trkpt><trkpt lat="44.47386271954038" lon="8.831570986980859"><ele>268.0</ele><time>2026-05-01T14:46:47Z</time></trkpt><trkpt lat="44.473800010013925" lon="8.831693370431264"><ele>268.0</ele><time>2026-05-01T14:46:48Z</time></trkpt><trkpt lat="44.47374102932399" lon="8.831825276104995"><ele>268.0</ele><time>2026-05-01T14:46:49Z</time></trkpt><trkpt lat="44.47369225391613" lon="8.831944139150327"><ele>268.0</ele><time>2026-05-01T14:46:50Z</time></trkpt><trkpt lat="44.47369870397192" lon="8.832074767929791"><ele>267.2</ele><time>2026-05-01T14:46:51Z</time></trkpt><trkpt lat="44.47372101233992" lon="8.832158529784714"><ele>266.4</ele><time>2026-05-01T14:46:52Z</time></trkpt><trkpt lat="44.473792075588705" lon="8.832239857689292"><ele>265.59999999999997</ele><time>2026-05-01T14:46:53Z</time></trkpt><trkpt lat="44.47387271565682" lon="8.832287824783478"><ele>264.8</ele><time>2026-05-01T14:46:54Z</time></trkpt><trkpt lat="44.47397622938007" lon="8.832318016500334"><ele>264.0</ele><time>2026-05-01T14:46:55Z</time></trkpt><trkpt lat="44.47412091613122" lon="8.832352230419309"><ele>263.0</ele><time>2026-05-01T14:46:56Z</time></trkpt><trkpt lat="44.47426815817921" lon="8.832371348614553"><ele>262.0</ele><time>2026-05-01T14:46:57Z</time></trkpt><trkpt lat="44.47440759689214" lon="8.832386752985231"><ele>261.0</ele><time>2026-05-01T14:46:58Z</time></trkpt><trkpt lat="44.4744860898138" lon="8.832406971042863"><ele>260.0</ele><time>2026-05-01T14:46:59Z</time></trkpt><trkpt lat="44.47457980636176" lon="8.832459708369317"><ele>259.4</ele><time>2026-05-01T14:47:00Z</time></trkpt><trkpt lat="44.4746585277549" lon="8.832540332695894"><ele>258.8</ele><time>2026-05-01T14:47:01Z</time></trkpt><trkpt lat="44.4746950649075" lon="8.832614497783013"><ele>258.2</ele><time>2026-05-01T14:47:02Z</time></trkpt><trkpt lat="44.474707640392886" lon="8.832773689204235"><ele>257.6</ele><time>2026-05-01T14:47:04Z</time></trkpt><trkpt lat="44.47463464393784" lon="8.832922328005392"><ele>257.0</ele><time>2026-05-01T14:47:06Z</time></trkpt><trkpt lat="44.47456224997264" lon="8.832998304321363"><ele>257.0</ele><time>2026-05-01T14:47:07Z</time></trkpt><trkpt lat="44.47446814823021" lon="8.833060854670908"><ele>257.0</ele><time>2026-05-01T14:47:08Z</time></trkpt><trkpt lat="44.47436414504237" lon="8.833111345507168"><ele>257.0</ele><time>2026-05-01T14:47:09Z</time></trkpt><trkpt lat="44.47426305723313" lon="8.833150118002957"><ele>257.0</ele><time>2026-05-01T14:47:10Z</time></trkpt><trkpt lat="44.47417894077295" lon="8.833182136941156"><ele>257.0</ele><time>2026-05-01T14:47:11Z</time></trkpt><trkpt lat="44.474103005404096" lon="8.83321145467991"><ele>257.0</ele><time>2026-05-01T14:47:12Z</time></trkpt><trkpt lat="44.47403428363743" lon="8.833231130024487"><ele>257.0</ele><time>2026-05-01T14:47:13Z</time></trkpt><trkpt lat="44.47395256738198" lon="8.833201419644285"><ele>257.0</ele><time>2026-05-01T14:47:14Z</time></trkpt><trkpt lat="44.473850071019434" lon="8.8332060687785"><ele>257.0</ele><time>2026-05-01T14:47:15Z</time></trkpt><trkpt lat="44.47373870637508" lon="8.833213274804379"><ele>257.0</ele><time>2026-05-01T14:47:16Z</time></trkpt><trkpt lat="44.473611970575426" lon="8.833272918827806"><ele>256.4</ele><time>2026-05-01T14:47:17Z</time></trkpt><trkpt lat="44.47349904384026" lon="8.833331525542969"><ele>255.79999999999998</ele><time>2026-05-01T14:47:18Z</time></trkpt><trkpt lat="44.47339641227079" lon="8.833340498764024"><ele>255.2</ele><time>2026-05-01T14:47:19Z</time></trkpt><trkpt lat="44.473305554584456" lon="8.833341348686876"><ele>254.6</ele><time>2026-05-01T14:47:20Z</time></trkpt><trkpt lat="44.47321851955954" lon="8.833307348985976"><ele>254.0</ele><time>2026-05-01T14:47:21Z</time></trkpt><trkpt lat="44.473110230189256" lon="8.83326615481351"><ele>254.0</ele><time>2026-05-01T14:47:22Z</time></trkpt><trkpt lat="44.47297994069989" lon="8.833219140172067"><ele>254.0</ele><time>2026-05-01T14:47:23Z</time></trkpt><trkpt lat="44.47283741957439" lon="8.833196625834919"><ele>254.0</ele><time>2026-05-01T14:47:24Z</time></trkpt><trkpt lat="44.47269107840425" lon="8.83315998685233"><ele>254.0</ele><time>2026-05-01T14:47:25Z</time></trkpt><trkpt lat="44.47255970292366" lon="8.833129682466415"><ele>254.2</ele><time>2026-05-01T14:47:26Z</time></trkpt><trkpt lat="44.4724459844933" lon="8.83309399229697"><ele>254.39999999999998</ele><time>2026-05-01T14:47:27Z</time></trkpt><trkpt lat="44.47234578428137" lon="8.833065276855569"><ele>254.6</ele><time>2026-05-01T14:47:28Z</time></trkpt><trkpt lat="44.472255930720216" lon="8.83306697011037"><ele>254.8</ele><time>2026-05-01T14:47:29Z</time></trkpt><trkpt lat="44.472149379550586" lon="8.833118624007225"><ele>255.0</ele><time>2026-05-01T14:47:30Z</time></trkpt><trkpt lat="44.47203376576118" lon="8.833185173323875"><ele>255.0</ele><time>2026-05-01T14:47:31Z</time></trkpt><trkpt lat="44.47193521875751" lon="8.833239497316676"><ele>255.0</ele><time>2026-05-01T14:47:32Z</time></trkpt><trkpt lat="44.47183769011393" lon="8.833288034496091"><ele>255.0</ele><time>2026-05-01T14:47:33Z</time></trkpt><trkpt lat="44.471757213873616" lon="8.833331118733142"><ele>255.0</ele><time>2026-05-01T14:47:34Z</time></trkpt><trkpt lat="44.471646422412135" lon="8.83320501475442"><ele>255.0</ele><time>2026-05-01T14:47:36Z</time></trkpt><trkpt lat="44.47155714622966" lon="8.833133544393617"><ele>255.0</ele><time>2026-05-01T14:47:37Z</time></trkpt><trkpt lat="44.471479737802674" lon="8.833076636906151"><ele>255.0</ele><time>2026-05-01T14:47:38Z</time></trkpt><trkpt lat="44.47141301400859" lon="8.833001384284788"><ele>255.0</ele><time>2026-05-01T14:47:39Z</time></trkpt><trkpt lat="44.47137819521111" lon="8.832887716882016"><ele>255.0</ele><time>2026-05-01T14:47:40Z</time></trkpt><trkpt lat="44.4713315086186" lon="8.832773554258175"><ele>255.0</ele><time>2026-05-01T14:47:41Z</time></trkpt><trkpt lat="44.471287981263615" lon="8.832664007752264"><ele>255.0</ele><time>2026-05-01T14:47:42Z</time></trkpt><trkpt lat="44.47122391494826" lon="8.83257801003595"><ele>251.8</ele><time>2026-05-01T14:47:43Z</time></trkpt><trkpt lat="44.47114222178761" lon="8.8324967056177"><ele>248.6</ele><time>2026-05-01T14:47:44Z</time></trkpt><trkpt lat="44.47103094690972" lon="8.832438742555514"><ele>245.39999999999998</ele><time>2026-05-01T14:47:45Z</time></trkpt><trkpt lat="44.47091493029024" lon="8.832391773933155"><ele>242.2</ele><time>2026-05-01T14:47:46Z</time></trkpt><trkpt lat="44.470823211422925" lon="8.832331186807558"><ele>239.0</ele><time>2026-05-01T14:47:47Z</time></trkpt><trkpt lat="44.470738704619016" lon="8.83232118236762"><ele>239.0</ele><time>2026-05-01T14:47:48Z</time></trkpt><trkpt lat="44.470666629598384" lon="8.832326342564963"><ele>238.99999999999997</ele><time>2026-05-01T14:47:49Z</time></trkpt><trkpt lat="44.47057761131741" lon="8.832359954827531"><ele>238.99999999999997</ele><time>2026-05-01T14:47:50Z</time></trkpt><trkpt lat="44.47047093612717" lon="8.832380100683224"><ele>239.0</ele><time>2026-05-01T14:47:51Z</time></trkpt><trkpt lat="44.47036552885174" lon="8.832468859192407"><ele>239.0</ele><time>2026-05-01T14:47:52Z</time></trkpt><trkpt lat="44.47025791854393" lon="8.832581638924044"><ele>242.0</ele><time>2026-05-01T14:47:53Z</time></trkpt><trkpt lat="44.47014510941223" lon="8.832707507610476"><ele>245.0</ele><time>2026-05-01T14:47:54Z</time></trkpt><trkpt lat="44.47002753346945" lon="8.832759585590587"><ele>248.0</ele><time>2026-05-01T14:47:55Z</time></trkpt><trkpt lat="44.46992735021712" lon="8.832824683522857"><ele>251.0</ele><time>2026-05-01T14:47:56Z</time></trkpt><trkpt lat="44.469855196517564" lon="8.832876500005645"><ele>251.00000000000003</ele><time>2026-05-01T14:47:57Z</time></trkpt><trkpt lat="44.469796016321354" lon="8.832920953562825"><ele>251.0</ele><time>2026-05-01T14:47:58Z</time></trkpt><trkpt lat="44.46970901196885" lon="8.83285994592071"><ele>251.0</ele><time>2026-05-01T14:48:00Z</time></trkpt><trkpt lat="44.46967743420704" lon="8.832759541320899"><ele>251.0</ele><time>2026-05-01T14:48:01Z</time></trkpt><trkpt lat="44.46963713412339" lon="8.832657988107007"><ele>251.00000000000003</ele><time>2026-05-01T14:48:02Z</time></trkpt><trkpt lat="44.46960143751309" lon="8.832576102004829"><ele>251.0</ele><time>2026-05-01T14:48:03Z</time></trkpt><trkpt lat="44.46953968482521" lon="8.8325565587051"><ele>250.60000000000002</ele><time>2026-05-01T14:48:04Z</time></trkpt><trkpt lat="44.469461763766205" lon="8.832633242500261"><ele>250.20000000000002</ele><time>2026-05-01T14:48:05Z</time></trkpt><trkpt lat="44.4693539433457" lon="8.832663316202547"><ele>249.79999999999998</ele><time>2026-05-01T14:48:06Z</time></trkpt><trkpt lat="44.46924116857446" lon="8.832660957528015"><ele>249.39999999999998</ele><time>2026-05-01T14:48:07Z</time></trkpt><trkpt lat="44.46915383079673" lon="8.832629268594317"><ele>249.0</ele><time>2026-05-01T14:48:08Z</time></trkpt><trkpt lat="44.46904969004866" lon="8.832585453604423"><ele>246.83333333333334</ele><time>2026-05-01T14:48:09Z</time></trkpt><trkpt lat="44.46896122031023" lon="8.832530632019072"><ele>244.66666666666669</ele><time>2026-05-01T14:48:10Z</time></trkpt><trkpt lat="44.468885742150306" lon="8.832475509587388"><ele>242.5</ele><time>2026-05-01T14:48:11Z</time></trkpt><trkpt lat="44.46882111547447" lon="8.83239740559976"><ele>240.33333333333334</ele><time>2026-05-01T14:48:12Z</time></trkpt><trkpt lat="44.46877524992755" lon="8.832295098228844"><ele>238.16666666666669</ele><time>2026-05-01T14:48:13Z</time></trkpt><trkpt lat="44.46872381555352" lon="8.832217554974894"><ele>236.0</ele><time>2026-05-01T14:48:14Z</time></trkpt><trkpt lat="44.4687023546625" lon="8.832102168751117"><ele>234.20000000000002</ele><time>2026-05-01T14:48:15Z</time></trkpt><trkpt lat="44.46866366660168" lon="8.831972758734137"><ele>232.40000000000003</ele><time>2026-05-01T14:48:16Z</time></trkpt><trkpt lat="44.46861536595943" lon="8.831820956255285"><ele>230.6</ele><time>2026-05-01T14:48:17Z</time></trkpt><trkpt lat="44.46855302237208" lon="8.831685173843214"><ele>228.8</ele><time>2026-05-01T14:48:18Z</time></trkpt><trkpt lat="44.46850789142947" lon="8.83156440983359"><ele>227.0</ele><time>2026-05-01T14:48:19Z</time></trkpt><trkpt lat="44.46845446774577" lon="8.831461198977111"><ele>225.75</ele><time>2026-05-01T14:48:20Z</time></trkpt><trkpt lat="44.46838176320378" lon="8.83136268891388"><ele>224.5</ele><time>2026-05-01T14:48:21Z</time></trkpt><trkpt lat="44.46827109411042" lon="8.8312816856317"><ele>223.25</ele><time>2026-05-01T14:48:22Z</time></trkpt><trkpt lat="44.468167079875364" lon="8.831171172584892"><ele>222.0</ele><time>2026-05-01T14:48:23Z</time></trkpt><trkpt lat="44.46807936296516" lon="8.831086233282171"><ele>222.0</ele><time>2026-05-01T14:48:24Z</time></trkpt><trkpt lat="44.4680005594287" lon="8.831008987042075"><ele>222.0</ele><time>2026-05-01T14:48:25Z</time></trkpt><trkpt lat="44.46792607767238" lon="8.830933959126595"><ele>222.0</ele><time>2026-05-01T14:48:26Z</time></trkpt><trkpt lat="44.46783944931994" lon="8.830862738358974"><ele>222.0</ele><time>2026-05-01T14:48:27Z</time></trkpt><trkpt lat="44.467757675263606" lon="8.830769232327658"><ele>222.0</ele><time>2026-05-01T14:48:28Z</time></trkpt><trkpt lat="44.46769969155923" lon="8.830637542716751"><ele>221.2</ele><time>2026-05-01T14:48:29Z</time></trkpt><trkpt lat="44.46763600844487" lon="8.830510125983986"><ele>220.39999999999998</ele><time>2026-05-01T14:48:30Z</time></trkpt><trkpt lat="44.46758395574133" lon="8.830388158806324"><ele>219.60000000000002</ele><time>2026-05-01T14:48:31Z</time></trkpt><trkpt lat="44.46752470590322" lon="8.830290415559979"><ele>218.8</ele><time>2026-05-01T14:48:32Z</time></trkpt><trkpt lat="44.467472267124705" lon="8.830212065520318"><ele>218.0</ele><time>2026-05-01T14:48:33Z</time></trkpt><trkpt lat="44.46740829916339" lon="8.830136376557327"><ele>216.33333333333334</ele><time>2026-05-01T14:48:34Z</time></trkpt><trkpt lat="44.46734877077876" lon="8.83005737115753"><ele>214.66666666666669</ele><time>2026-05-01T14:48:35Z</time></trkpt><trkpt lat="44.46728263893455" lon="8.82996903760713"><ele>213.0</ele><time>2026-05-01T14:48:36Z</time></trkpt><trkpt lat="44.46722705682389" lon="8.829887509095315"><ele>211.33333333333331</ele><time>2026-05-01T14:48:37Z</time></trkpt><trkpt lat="44.46714445672313" lon="8.829818613599059"><ele>209.66666666666666</ele><time>2026-05-01T14:48:38Z</time></trkpt><trkpt lat="44.467063576756026" lon="8.829748733390453"><ele>208.0</ele><time>2026-05-01T14:48:39Z</time></trkpt><trkpt lat="44.46698234093226" lon="8.829677097051395"><ele>208.0</ele><time>2026-05-01T14:48:40Z</time></trkpt><trkpt lat="44.466901052808765" lon="8.829602504422265"><ele>208.0</ele><time>2026-05-01T14:48:41Z</time></trkpt><trkpt lat="44.46681257448617" lon="8.829528512812377"><ele>208.0</ele><time>2026-05-01T14:48:42Z</time></trkpt><trkpt lat="44.466720326291046" lon="8.829456096463714"><ele>208.0</ele><time>2026-05-01T14:48:43Z</time></trkpt><trkpt lat="44.46662197866482" lon="8.829386940969547"><ele>208.0</ele><time>2026-05-01T14:48:44Z</time></trkpt><trkpt lat="44.46652305168319" lon="8.829315608572458"><ele>208.75</ele><time>2026-05-01T14:48:45Z</time></trkpt><trkpt lat="44.46642094256371" lon="8.829241223131394"><ele>209.5</ele><time>2026-05-01T14:48:46Z</time></trkpt><trkpt lat="44.466312740443726" lon="8.829191079359248"><ele>210.25</ele><time>2026-05-01T14:48:47Z</time></trkpt><trkpt lat="44.466205780844994" lon="8.829119290869752"><ele>211.0</ele><time>2026-05-01T14:48:48Z</time></trkpt><trkpt lat="44.46611655589381" lon="8.829033847458089"><ele>211.0</ele><time>2026-05-01T14:48:49Z</time></trkpt><trkpt lat="44.466034206943654" lon="8.828962409523763"><ele>211.0</ele><time>2026-05-01T14:48:50Z</time></trkpt><trkpt lat="44.46595316253622" lon="8.828909953301364"><ele>211.0</ele><time>2026-05-01T14:48:51Z</time></trkpt><trkpt lat="44.46585560118832" lon="8.828836428581777"><ele>211.0</ele><time>2026-05-01T14:48:52Z</time></trkpt><trkpt lat="44.46576264263284" lon="8.828773498526171"><ele>211.0</ele><time>2026-05-01T14:48:53Z</time></trkpt><trkpt lat="44.465685144213566" lon="8.828705490850393"><ele>211.0</ele><time>2026-05-01T14:48:54Z</time></trkpt><trkpt lat="44.465578006822284" lon="8.828676250717397"><ele>211.0</ele><time>2026-05-01T14:48:55Z</time></trkpt><trkpt lat="44.46545413560084" lon="8.828656246816333"><ele>211.0</ele><time>2026-05-01T14:48:56Z</time></trkpt><trkpt lat="44.46532334585456" lon="8.82863313309105"><ele>211.0</ele><time>2026-05-01T14:48:57Z</time></trkpt><trkpt lat="44.46519295909865" lon="8.828595504821461"><ele>209.5</ele><time>2026-05-01T14:48:58Z</time></trkpt><trkpt lat="44.465052108977375" lon="8.828558006598278"><ele>208.0</ele><time>2026-05-01T14:48:59Z</time></trkpt><trkpt lat="44.46493099948954" lon="8.828563155783376"><ele>206.5</ele><time>2026-05-01T14:49:00Z</time></trkpt><trkpt lat="44.4648241552678" lon="8.828565929323632"><ele>205.0</ele><time>2026-05-01T14:49:01Z</time></trkpt><trkpt lat="44.46474012598135" lon="8.828554824582234"><ele>205.0</ele><time>2026-05-01T14:49:02Z</time></trkpt><trkpt lat="44.4646221369475" lon="8.828489161870758"><ele>205.0</ele><time>2026-05-01T14:49:04Z</time></trkpt><trkpt lat="44.464550672548896" lon="8.828423208018476"><ele>205.0</ele><time>2026-05-01T14:49:05Z</time></trkpt><trkpt lat="44.464467363147406" lon="8.82834273303882"><ele>205.0</ele><time>2026-05-01T14:49:06Z</time></trkpt><trkpt lat="44.464377187661235" lon="8.828277707590605"><ele>205.0</ele><time>2026-05-01T14:49:07Z</time></trkpt><trkpt lat="44.46429612402081" lon="8.828216379056732"><ele>204.66666666666666</ele><time>2026-05-01T14:49:08Z</time></trkpt><trkpt lat="44.46422647761333" lon="8.82815296223042"><ele>204.33333333333331</ele><time>2026-05-01T14:49:09Z</time></trkpt><trkpt lat="44.46416342235579" lon="8.828105368386852"><ele>204.0</ele><time>2026-05-01T14:49:10Z</time></trkpt><trkpt lat="44.464111251300736" lon="8.828032345146111"><ele>203.66666666666669</ele><time>2026-05-01T14:49:11Z</time></trkpt><trkpt lat="44.46404491363859" lon="8.827968009431636"><ele>203.33333333333334</ele><time>2026-05-01T14:49:12Z</time></trkpt><trkpt lat="44.46398847158142" lon="8.827905881559362"><ele>203.0</ele><time>2026-05-01T14:49:13Z</time></trkpt><trkpt lat="44.463934245360136" lon="8.827827352851772"><ele>203.0</ele><time>2026-05-01T14:49:14Z</time></trkpt><trkpt lat="44.46387645505195" lon="8.827713708328844"><ele>203.0</ele><time>2026-05-01T14:49:15Z</time></trkpt><trkpt lat="44.463810419800026" lon="8.827579746934646"><ele>203.0</ele><time>2026-05-01T14:49:16Z</time></trkpt><trkpt lat="44.46374736807254" lon="8.827447084939788"><ele>203.0</ele><time>2026-05-01T14:49:17Z</time></trkpt><trkpt lat="44.463702504897356" lon="8.827327288167204"><ele>203.0</ele><time>2026-05-01T14:49:18Z</time></trkpt><trkpt lat="44.463678519681025" lon="8.827209434145342"><ele>203.25</ele><time>2026-05-01T14:49:19Z</time></trkpt><trkpt lat="44.46367741703787" lon="8.827066647314572"><ele>203.5</ele><time>2026-05-01T14:49:20Z</time></trkpt><trkpt lat="44.46368245934148" lon="8.826889917161411"><ele>203.75</ele><time>2026-05-01T14:49:21Z</time></trkpt><trkpt lat="44.4637058444105" lon="8.826701357761817"><ele>204.0</ele><time>2026-05-01T14:49:22Z</time></trkpt><trkpt lat="44.46371660739451" lon="8.826514368372978"><ele>203.5</ele><time>2026-05-01T14:49:23Z</time></trkpt><trkpt lat="44.463715282206124" lon="8.826344903415054"><ele>203.0</ele><time>2026-05-01T14:49:24Z</time></trkpt><trkpt lat="44.4637139884667" lon="8.826178643540112"><ele>202.5</ele><time>2026-05-01T14:49:25Z</time></trkpt><trkpt lat="44.46371336575942" lon="8.82601267706207"><ele>202.0</ele><time>2026-05-01T14:49:26Z</time></trkpt><trkpt lat="44.46371895858488" lon="8.82585815805995"><ele>202.0</ele><time>2026-05-01T14:49:27Z</time></trkpt><trkpt lat="44.46371917428199" lon="8.825722690403941"><ele>202.0</ele><time>2026-05-01T14:49:28Z</time></trkpt><trkpt lat="44.46369872939082" lon="8.825583311990618"><ele>202.0</ele><time>2026-05-01T14:49:29Z</time></trkpt><trkpt lat="44.46366247081039" lon="8.825440040385134"><ele>202.0</ele><time>2026-05-01T14:49:30Z</time></trkpt><trkpt lat="44.46361648176697" lon="8.825288321335922"><ele>202.0</ele><time>2026-05-01T14:49:31Z</time></trkpt><trkpt lat="44.463583582422274" lon="8.825148250964055"><ele>201.39999999999998</ele><time>2026-05-01T14:49:32Z</time></trkpt><trkpt lat="44.463566886535766" lon="8.825052122229636"><ele>200.79999999999998</ele><time>2026-05-01T14:49:33Z</time></trkpt><trkpt lat="44.46359596537836" lon="8.824892031809318"><ele>200.2</ele><time>2026-05-01T14:49:35Z</time></trkpt><trkpt lat="44.463631790306884" lon="8.824779449292498"><ele>199.6</ele><time>2026-05-01T14:49:36Z</time></trkpt><trkpt lat="44.46367381994623" lon="8.82466677297575"><ele>199.0</ele><time>2026-05-01T14:49:37Z</time></trkpt><trkpt lat="44.46368844566508" lon="8.824524915006808"><ele>199.0</ele><time>2026-05-01T14:49:38Z</time></trkpt><trkpt lat="44.46366910484597" lon="8.824352944716862"><ele>199.0</ele><time>2026-05-01T14:49:39Z</time></trkpt><trkpt lat="44.4636473067947" lon="8.824180711009186"><ele>199.0</ele><time>2026-05-01T14:49:40Z</time></trkpt><trkpt lat="44.46364396642255" lon="8.824035811296428"><ele>199.0</ele><time>2026-05-01T14:49:41Z</time></trkpt><trkpt lat="44.46367144799578" lon="8.823903083953887"><ele>198.16666666666666</ele><time>2026-05-01T14:49:42Z</time></trkpt><trkpt lat="44.463655562429715" lon="8.82376929042844"><ele>197.33333333333331</ele><time>2026-05-01T14:49:43Z</time></trkpt><trkpt lat="44.46361848605454" lon="8.823635520360932"><ele>196.5</ele><time>2026-05-01T14:49:44Z</time></trkpt><trkpt lat="44.46358599811813" lon="8.823511419528673"><ele>195.66666666666669</ele><time>2026-05-01T14:49:45Z</time></trkpt><trkpt lat="44.463569113747624" lon="8.823413576752273"><ele>194.83333333333334</ele><time>2026-05-01T14:49:46Z</time></trkpt><trkpt lat="44.463523067317865" lon="8.82334426729038"><ele>194.0</ele><time>2026-05-01T14:49:47Z</time></trkpt><trkpt lat="44.46344552254249" lon="8.823310224152427"><ele>192.0</ele><time>2026-05-01T14:49:48Z</time></trkpt><trkpt lat="44.46335286281075" lon="8.823272262283048"><ele>190.0</ele><time>2026-05-01T14:49:49Z</time></trkpt><trkpt lat="44.46327383694874" lon="8.823198324675262"><ele>188.0</ele><time>2026-05-01T14:49:51Z</time></trkpt><trkpt lat="44.463257738228634" lon="8.823057694992741"><ele>186.0</ele><time>2026-05-01T14:49:53Z</time></trkpt><trkpt lat="44.46323805524066" lon="8.822950776698173"><ele>184.0</ele><time>2026-05-01T14:49:54Z</time></trkpt><trkpt lat="44.46322688729178" lon="8.822810625507739"><ele>184.0</ele><time>2026-05-01T14:49:55Z</time></trkpt><trkpt lat="44.46320049950322" lon="8.822664585538641"><ele>184.0</ele><time>2026-05-01T14:49:56Z</time></trkpt><trkpt lat="44.4631582337051" lon="8.822534792302694"><ele>184.0</ele><time>2026-05-01T14:49:57Z</time></trkpt><trkpt lat="44.46312178810071" lon="8.822413292682313"><ele>184.0</ele><time>2026-05-01T14:49:58Z</time></trkpt><trkpt lat="44.46305254588789" lon="8.82233527856844"><ele>184.0</ele><time>2026-05-01T14:49:59Z</time></trkpt><trkpt lat="44.46300327772462" lon="8.822247732193453"><ele>183.5</ele><time>2026-05-01T14:50:00Z</time></trkpt><trkpt lat="44.462934661777304" lon="8.822189958220882"><ele>183.0</ele><time>2026-05-01T14:50:01Z</time></trkpt><trkpt lat="44.46282754675453" lon="8.822200478510991"><ele>182.5</ele><time>2026-05-01T14:50:02Z</time></trkpt><trkpt lat="44.46266797255607" lon="8.822237210348224"><ele>182.0</ele><time>2026-05-01T14:50:03Z</time></trkpt><trkpt lat="44.46254225324513" lon="8.822251873431679"><ele>182.0</ele><time>2026-05-01T14:50:04Z</time></trkpt><trkpt lat="44.46242006051994" lon="8.822248476164352"><ele>182.0</ele><time>2026-05-01T14:50:05Z</time></trkpt><trkpt lat="44.462308453003864" lon="8.822205223548039"><ele>182.0</ele><time>2026-05-01T14:50:06Z</time></trkpt><trkpt lat="44.462177573556474" lon="8.822162756743682"><ele>182.0</ele><time>2026-05-01T14:50:07Z</time></trkpt><trkpt lat="44.46204863768029" lon="8.82211751510233"><ele>184.2</ele><time>2026-05-01T14:50:08Z</time></trkpt><trkpt lat="44.46194995360445" lon="8.822072749561539"><ele>186.39999999999998</ele><time>2026-05-01T14:50:09Z</time></trkpt><trkpt lat="44.461844973084084" lon="8.822022162631091"><ele>188.60000000000002</ele><time>2026-05-01T14:50:10Z</time></trkpt><trkpt lat="44.461731810042586" lon="8.821975018374962"><ele>190.8</ele><time>2026-05-01T14:50:11Z</time></trkpt><trkpt lat="44.461629018890655" lon="8.821930139117137"><ele>193.0</ele><time>2026-05-01T14:50:12Z</time></trkpt><trkpt lat="44.46154799517796" lon="8.821856308672938"><ele>193.8</ele><time>2026-05-01T14:50:13Z</time></trkpt><trkpt lat="44.46146934169725" lon="8.821784158416971"><ele>194.60000000000002</ele><time>2026-05-01T14:50:14Z</time></trkpt><trkpt lat="44.46140251900347" lon="8.821688711934952"><ele>195.39999999999998</ele><time>2026-05-01T14:50:15Z</time></trkpt><trkpt lat="44.461340993741274" lon="8.82158079254787"><ele>196.2</ele><time>2026-05-01T14:50:16Z</time></trkpt><trkpt lat="44.4612747577577" lon="8.821480166487481"><ele>197.0</ele><time>2026-05-01T14:50:17Z</time></trkpt><trkpt lat="44.46120517356198" lon="8.821397078712153"><ele>197.0</ele><time>2026-05-01T14:50:18Z</time></trkpt><trkpt lat="44.46112273996983" lon="8.821310343510698"><ele>197.0</ele><time>2026-05-01T14:50:19Z</time></trkpt><trkpt lat="44.461029847299635" lon="8.821186624058914"><ele>197.0</ele><time>2026-05-01T14:50:20Z</time></trkpt><trkpt lat="44.460925448286176" lon="8.821067441289328"><ele>197.0</ele><time>2026-05-01T14:50:21Z</time></trkpt><trkpt lat="44.46085479504275" lon="8.820925790454545"><ele>190.6</ele><time>2026-05-01T14:50:22Z</time></trkpt><trkpt lat="44.460798148297954" lon="8.82079991676197"><ele>184.2</ele><time>2026-05-01T14:50:23Z</time></trkpt><trkpt lat="44.46074675319412" lon="8.820666284614594"><ele>177.8</ele><time>2026-05-01T14:50:24Z</time></trkpt><trkpt lat="44.46068690551669" lon="8.820543809431213"><ele>171.4</ele><time>2026-05-01T14:50:25Z</time></trkpt><trkpt lat="44.46064792753167" lon="8.820424756951697"><ele>165.0</ele><time>2026-05-01T14:50:26Z</time></trkpt><trkpt lat="44.46059534311291" lon="8.820332971144754"><ele>165.0</ele><time>2026-05-01T14:50:27Z</time></trkpt><trkpt lat="44.46050528646053" lon="8.820273481105236"><ele>165.0</ele><time>2026-05-01T14:50:28Z</time></trkpt><trkpt lat="44.46040033199047" lon="8.820174718246868"><ele>165.0</ele><time>2026-05-01T14:50:29Z</time></trkpt><trkpt lat="44.46027925378231" lon="8.820081146463405"><ele>165.0</ele><time>2026-05-01T14:50:30Z</time></trkpt><trkpt lat="44.46015106821535" lon="8.820007760050215"><ele>162.75</ele><time>2026-05-01T14:50:31Z</time></trkpt><trkpt lat="44.46001086548783" lon="8.819970379119429"><ele>160.5</ele><time>2026-05-01T14:50:32Z</time></trkpt><trkpt lat="44.459874866382435" lon="8.819896841861649"><ele>158.25</ele><time>2026-05-01T14:50:33Z</time></trkpt><trkpt lat="44.45973771103823" lon="8.819857457293045"><ele>156.0</ele><time>2026-05-01T14:50:34Z</time></trkpt><trkpt lat="44.45961341775043" lon="8.819823688170455"><ele>155.25</ele><time>2026-05-01T14:50:35Z</time></trkpt><trkpt lat="44.4594991829378" lon="8.819789608091732"><ele>154.5</ele><time>2026-05-01T14:50:36Z</time></trkpt><trkpt lat="44.45937482022998" lon="8.819754728948768"><ele>153.75</ele><time>2026-05-01T14:50:37Z</time></trkpt><trkpt lat="44.4592643598827" lon="8.81972901029955"><ele>153.0</ele><time>2026-05-01T14:50:38Z</time></trkpt><trkpt lat="44.4591662749385" lon="8.819695871847799"><ele>153.0</ele><time>2026-05-01T14:50:39Z</time></trkpt><trkpt lat="44.45908774937492" lon="8.81966252540945"><ele>153.0</ele><time>2026-05-01T14:50:40Z</time></trkpt><trkpt lat="44.45901948099269" lon="8.819656210623037"><ele>153.0</ele><time>2026-05-01T14:50:41Z</time></trkpt><trkpt lat="44.4589352148448" lon="8.819682194647747"><ele>153.0</ele><time>2026-05-01T14:50:42Z</time></trkpt><trkpt lat="44.45884847571903" lon="8.81975103259218"><ele>153.0</ele><time>2026-05-01T14:50:43Z</time></trkpt><trkpt lat="44.45873218665183" lon="8.819833847187779"><ele>151.75</ele><time>2026-05-01T14:50:44Z</time></trkpt><trkpt lat="44.45858097863669" lon="8.81992639345335"><ele>150.5</ele><time>2026-05-01T14:50:45Z</time></trkpt><trkpt lat="44.458461640523346" lon="8.820025458281744"><ele>149.25</ele><time>2026-05-01T14:50:46Z</time></trkpt><trkpt lat="44.45834581111619" lon="8.820104864877417"><ele>148.0</ele><time>2026-05-01T14:50:47Z</time></trkpt><trkpt lat="44.45824885760328" lon="8.820159928360964"><ele>150.60000000000002</ele><time>2026-05-01T14:50:48Z</time></trkpt><trkpt lat="44.458151840170736" lon="8.820188876405279"><ele>153.20000000000002</ele><time>2026-05-01T14:50:49Z</time></trkpt><trkpt lat="44.45805830471491" lon="8.820197811630928"><ele>155.8</ele><time>2026-05-01T14:50:50Z</time></trkpt><trkpt lat="44.457959007430276" lon="8.820178685962722"><ele>158.4</ele><time>2026-05-01T14:50:51Z</time></trkpt><trkpt lat="44.45786728751616" lon="8.820152868230675"><ele>161.0</ele><time>2026-05-01T14:50:52Z</time></trkpt><trkpt lat="44.457787361893324" lon="8.820110828338018"><ele>161.0</ele><time>2026-05-01T14:50:53Z</time></trkpt><trkpt lat="44.45765677318919" lon="8.819917217142152"><ele>161.0</ele><time>2026-05-01T14:50:55Z</time></trkpt><trkpt lat="44.45760365745324" lon="8.819747557782817"><ele>161.0</ele><time>2026-05-01T14:50:56Z</time></trkpt><trkpt lat="44.457531704863534" lon="8.819554439393169"><ele>153.66666666666666</ele><time>2026-05-01T14:50:57Z</time></trkpt><trkpt lat="44.45747744882838" lon="8.819282276376603"><ele>146.33333333333334</ele><time>2026-05-01T14:50:58Z</time></trkpt><trkpt lat="44.45742484422471" lon="8.819061207793437"><ele>139.0</ele><time>2026-05-01T14:50:59Z</time></trkpt><trkpt lat="44.457357473992886" lon="8.81890073153094"><ele>139.0</ele><time>2026-05-01T14:51:00Z</time></trkpt><trkpt lat="44.457309479128895" lon="8.818766977549426"><ele>139.0</ele><time>2026-05-01T14:51:01Z</time></trkpt><trkpt lat="44.457265265892254" lon="8.818656888166934"><ele>139.0</ele><time>2026-05-01T14:51:02Z</time></trkpt><trkpt lat="44.45720996677784" lon="8.8185787763534"><ele>139.0</ele><time>2026-05-01T14:51:03Z</time></trkpt><trkpt lat="44.457134189612894" lon="8.818552910153873"><ele>139.0</ele><time>2026-05-01T14:51:04Z</time></trkpt><trkpt lat="44.45703613546838" lon="8.818564996666511"><ele>136.2</ele><time>2026-05-01T14:51:05Z</time></trkpt><trkpt lat="44.4569469492506" lon="8.81860788102093"><ele>133.4</ele><time>2026-05-01T14:51:06Z</time></trkpt><trkpt lat="44.456848898527845" lon="8.818663920968397"><ele>130.6</ele><time>2026-05-01T14:51:07Z</time></trkpt><trkpt lat="44.4567547352857" lon="8.818739343061093"><ele>127.8</ele><time>2026-05-01T14:51:08Z</time></trkpt><trkpt lat="44.456654713418494" lon="8.818822401107681"><ele>125.0</ele><time>2026-05-01T14:51:09Z</time></trkpt><trkpt lat="44.45655773618221" lon="8.818915313445034"><ele>125.0</ele><time>2026-05-01T14:51:10Z</time></trkpt><trkpt lat="44.456473823676696" lon="8.819041106865022"><ele>125.0</ele><time>2026-05-01T14:51:11Z</time></trkpt><trkpt lat="44.45637925451055" lon="8.819164470983443"><ele>125.0</ele><time>2026-05-01T14:51:12Z</time></trkpt><trkpt lat="44.45629089201732" lon="8.819274880246311"><ele>125.0</ele><time>2026-05-01T14:51:13Z</time></trkpt><trkpt lat="44.456218971285146" lon="8.819374100138111"><ele>123.6</ele><time>2026-05-01T14:51:14Z</time></trkpt><trkpt lat="44.4561596412534" lon="8.819477729652125"><ele>122.2</ele><time>2026-05-01T14:51:15Z</time></trkpt><trkpt lat="44.45609840139365" lon="8.81955450023666"><ele>120.80000000000001</ele><time>2026-05-01T14:51:16Z</time></trkpt><trkpt lat="44.45605478584036" lon="8.819667403546404"><ele>119.4</ele><time>2026-05-01T14:51:17Z</time></trkpt><trkpt lat="44.45600282514768" lon="8.819791337298152"><ele>118.0</ele><time>2026-05-01T14:51:18Z</time></trkpt><trkpt lat="44.4559676907449" lon="8.819932776602773"><ele>118.00000000000001</ele><time>2026-05-01T14:51:19Z</time></trkpt><trkpt lat="44.455911157125456" lon="8.820040431406166"><ele>118.0</ele><time>2026-05-01T14:51:20Z</time></trkpt><trkpt lat="44.45587991244784" lon="8.82014895316846"><ele>118.0</ele><time>2026-05-01T14:51:21Z</time></trkpt><trkpt lat="44.45580915587183" lon="8.820208182028292"><ele>118.0</ele><time>2026-05-01T14:51:22Z</time></trkpt><trkpt lat="44.4557363745914" lon="8.820231278107343"><ele>118.00000000000001</ele><time>2026-05-01T14:51:23Z</time></trkpt><trkpt lat="44.45565271313058" lon="8.820242865491583"><ele>118.0</ele><time>2026-05-01T14:51:24Z</time></trkpt><trkpt lat="44.45556163531898" lon="8.820211360950514"><ele>119.0</ele><time>2026-05-01T14:51:25Z</time></trkpt><trkpt lat="44.45544818163212" lon="8.820204995707416"><ele>120.0</ele><time>2026-05-01T14:51:26Z</time></trkpt><trkpt lat="44.45532592199807" lon="8.8202285857078"><ele>121.0</ele><time>2026-05-01T14:51:27Z</time></trkpt><trkpt lat="44.45519988215059" lon="8.82028906871026"><ele>122.0</ele><time>2026-05-01T14:51:28Z</time></trkpt><trkpt lat="44.45510146535499" lon="8.820326639395699"><ele>121.99999999999999</ele><time>2026-05-01T14:51:29Z</time></trkpt><trkpt lat="44.45502684377729" lon="8.820374173205737"><ele>122.0</ele><time>2026-05-01T14:51:30Z</time></trkpt><trkpt lat="44.454947486591756" lon="8.820398186254275"><ele>122.0</ele><time>2026-05-01T14:51:31Z</time></trkpt><trkpt lat="44.454866605734004" lon="8.820423187291421"><ele>122.0</ele><time>2026-05-01T14:51:32Z</time></trkpt><trkpt lat="44.45476777079576" lon="8.820427104761617"><ele>121.99999999999999</ele><time>2026-05-01T14:51:33Z</time></trkpt><trkpt lat="44.4546754231073" lon="8.820398980928966"><ele>122.0</ele><time>2026-05-01T14:51:34Z</time></trkpt><trkpt lat="44.4545830199961" lon="8.820383613367449"><ele>122.6</ele><time>2026-05-01T14:51:35Z</time></trkpt><trkpt lat="44.4545156932937" lon="8.820290248511691"><ele>123.19999999999999</ele><time>2026-05-01T14:51:36Z</time></trkpt><trkpt lat="44.45443098508615" lon="8.82023554588592"><ele>123.8</ele><time>2026-05-01T14:51:37Z</time></trkpt><trkpt lat="44.45433440706342" lon="8.820193107483469"><ele>124.4</ele><time>2026-05-01T14:51:38Z</time></trkpt><trkpt lat="44.45423734972585" lon="8.820183717030364"><ele>125.0</ele><time>2026-05-01T14:51:39Z</time></trkpt><trkpt lat="44.45415531246272" lon="8.820182955733166"><ele>124.99999999999999</ele><time>2026-05-01T14:51:40Z</time></trkpt><trkpt lat="44.45408008451509" lon="8.820177326657268"><ele>125.0</ele><time>2026-05-01T14:51:41Z</time></trkpt><trkpt lat="44.45400877894602" lon="8.82018588275904"><ele>125.0</ele><time>2026-05-01T14:51:42Z</time></trkpt><trkpt lat="44.45393535453791" lon="8.820221944620052"><ele>125.0</ele><time>2026-05-01T14:51:43Z</time></trkpt><trkpt lat="44.45386461115692" lon="8.820300665298559"><ele>124.99999999999999</ele><time>2026-05-01T14:51:44Z</time></trkpt><trkpt lat="44.4537802738861" lon="8.820364341076857"><ele>125.0</ele><time>2026-05-01T14:51:45Z</time></trkpt><trkpt lat="44.4536901039735" lon="8.820420612698946"><ele>124.6</ele><time>2026-05-01T14:51:46Z</time></trkpt><trkpt lat="44.45360822234604" lon="8.82046703863977"><ele>124.2</ele><time>2026-05-01T14:51:47Z</time></trkpt><trkpt lat="44.453500281602416" lon="8.820507213529245"><ele>123.80000000000001</ele><time>2026-05-01T14:51:48Z</time></trkpt><trkpt lat="44.45338708431524" lon="8.82052012415179"><ele>123.4</ele><time>2026-05-01T14:51:49Z</time></trkpt><trkpt lat="44.45326838688905" lon="8.820494123322543"><ele>123.0</ele><time>2026-05-01T14:51:50Z</time></trkpt><trkpt lat="44.45315554889616" lon="8.820471592970247"><ele>123.0</ele><time>2026-05-01T14:51:51Z</time></trkpt><trkpt lat="44.45304030072749" lon="8.820440772646066"><ele>123.00000000000001</ele><time>2026-05-01T14:51:52Z</time></trkpt><trkpt lat="44.45292608294676" lon="8.820388385533812"><ele>123.00000000000001</ele><time>2026-05-01T14:51:53Z</time></trkpt><trkpt lat="44.45283018019853" lon="8.82035272424377"><ele>123.0</ele><time>2026-05-01T14:51:54Z</time></trkpt><trkpt lat="44.45273656933164" lon="8.82030660965147"><ele>123.0</ele><time>2026-05-01T14:51:55Z</time></trkpt><trkpt lat="44.452637028518424" lon="8.820277429182479"><ele>121.0</ele><time>2026-05-01T14:51:56Z</time></trkpt><trkpt lat="44.45255471658073" lon="8.820261185005657"><ele>119.00000000000001</ele><time>2026-05-01T14:51:57Z</time></trkpt><trkpt lat="44.452457616784514" lon="8.82024820803722"><ele>117.00000000000001</ele><time>2026-05-01T14:51:58Z</time></trkpt><trkpt lat="44.45234120490206" lon="8.820248199912557"><ele>115.0</ele><time>2026-05-01T14:51:59Z</time></trkpt><trkpt lat="44.45225153958934" lon="8.820257005907502"><ele>113.0</ele><time>2026-05-01T14:52:00Z</time></trkpt><trkpt lat="44.452181844884834" lon="8.820279528937201"><ele>109.80000000000001</ele><time>2026-05-01T14:52:01Z</time></trkpt><trkpt lat="44.45211367447963" lon="8.820354672223415"><ele>106.60000000000001</ele><time>2026-05-01T14:52:02Z</time></trkpt><trkpt lat="44.45204906723215" lon="8.820478167980031"><ele>103.4</ele><time>2026-05-01T14:52:03Z</time></trkpt><trkpt lat="44.45197685672123" lon="8.820594491110088"><ele>100.19999999999999</ele><time>2026-05-01T14:52:04Z</time></trkpt><trkpt lat="44.45190346045348" lon="8.820708679993018"><ele>97.0</ele><time>2026-05-01T14:52:05Z</time></trkpt><trkpt lat="44.45183903333723" lon="8.820799440245143"><ele>97.0</ele><time>2026-05-01T14:52:06Z</time></trkpt><trkpt lat="44.45178412228085" lon="8.82088422801924"><ele>97.0</ele><time>2026-05-01T14:52:07Z</time></trkpt><trkpt lat="44.4517136630465" lon="8.820965008871037"><ele>97.0</ele><time>2026-05-01T14:52:08Z</time></trkpt><trkpt lat="44.451622174525326" lon="8.821019481612087"><ele>97.0</ele><time>2026-05-01T14:52:09Z</time></trkpt><trkpt lat="44.45152036383597" lon="8.821046177348743"><ele>97.0</ele><time>2026-05-01T14:52:10Z</time></trkpt><trkpt lat="44.45140952696429" lon="8.82103981154109"><ele>99.75</ele><time>2026-05-01T14:52:11Z</time></trkpt><trkpt lat="44.45129444897022" lon="8.821005876313986"><ele>102.5</ele><time>2026-05-01T14:52:12Z</time></trkpt><trkpt lat="44.45117488506185" lon="8.82097060870663"><ele>105.25</ele><time>2026-05-01T14:52:13Z</time></trkpt><trkpt lat="44.45104702635604" lon="8.820936154200972"><ele>108.0</ele><time>2026-05-01T14:52:14Z</time></trkpt><trkpt lat="44.45092550436966" lon="8.820913415943163"><ele>108.0</ele><time>2026-05-01T14:52:15Z</time></trkpt><trkpt lat="44.450811205829915" lon="8.820850980647618"><ele>108.0</ele><time>2026-05-01T14:52:16Z</time></trkpt><trkpt lat="44.45070927207579" lon="8.820774444088878"><ele>108.0</ele><time>2026-05-01T14:52:17Z</time></trkpt><trkpt lat="44.45059237410032" lon="8.820691178672044"><ele>108.0</ele><time>2026-05-01T14:52:18Z</time></trkpt><trkpt lat="44.45049245357099" lon="8.820587010473657"><ele>112.75</ele><time>2026-05-01T14:52:19Z</time></trkpt><trkpt lat="44.450394811055226" lon="8.820469156597115"><ele>117.5</ele><time>2026-05-01T14:52:20Z</time></trkpt><trkpt lat="44.45029433121169" lon="8.820372881416981"><ele>122.25</ele><time>2026-05-01T14:52:21Z</time></trkpt><trkpt lat="44.450188594252865" lon="8.820296069942616"><ele>127.0</ele><time>2026-05-01T14:52:22Z</time></trkpt><trkpt lat="44.450098867047224" lon="8.820190616629707"><ele>120.8</ele><time>2026-05-01T14:52:23Z</time></trkpt><trkpt lat="44.4500053245864" lon="8.820113747175728"><ele>114.6</ele><time>2026-05-01T14:52:24Z</time></trkpt><trkpt lat="44.44989845370468" lon="8.820064842311762"><ele>108.39999999999999</ele><time>2026-05-01T14:52:25Z</time></trkpt><trkpt lat="44.44981130157354" lon="8.82000131285304"><ele>102.19999999999999</ele><time>2026-05-01T14:52:26Z</time></trkpt><trkpt lat="44.44972900971052" lon="8.819969846253718"><ele>96.0</ele><time>2026-05-01T14:52:27Z</time></trkpt><trkpt lat="44.449651318721436" lon="8.819943967295869"><ele>98.0</ele><time>2026-05-01T14:52:28Z</time></trkpt><trkpt lat="44.44957103932074" lon="8.819936477117983"><ele>100.0</ele><time>2026-05-01T14:52:29Z</time></trkpt><trkpt lat="44.44948415214605" lon="8.819935609298986"><ele>102.0</ele><time>2026-05-01T14:52:30Z</time></trkpt><trkpt lat="44.44940618849899" lon="8.8199244237549"><ele>104.0</ele><time>2026-05-01T14:52:31Z</time></trkpt><trkpt lat="44.44932860111363" lon="8.819889816845235"><ele>106.0</ele><time>2026-05-01T14:52:32Z</time></trkpt><trkpt lat="44.449232098412615" lon="8.819818501604974"><ele>108.0</ele><time>2026-05-01T14:52:33Z</time></trkpt><trkpt lat="44.44915476502324" lon="8.81974407962159"><ele>108.0</ele><time>2026-05-01T14:52:34Z</time></trkpt><trkpt lat="44.44909300818473" lon="8.819685493607112"><ele>108.0</ele><time>2026-05-01T14:52:35Z</time></trkpt><trkpt lat="44.44903193134763" lon="8.819607828476295"><ele>108.0</ele><time>2026-05-01T14:52:36Z</time></trkpt><trkpt lat="44.448966265765044" lon="8.819516018863565"><ele>108.0</ele><time>2026-05-01T14:52:37Z</time></trkpt><trkpt lat="44.448904120466615" lon="8.81943315660323"><ele>108.0</ele><time>2026-05-01T14:52:38Z</time></trkpt><trkpt lat="44.44884722751008" lon="8.81933383557291"><ele>108.0</ele><time>2026-05-01T14:52:39Z</time></trkpt><trkpt lat="44.44877823518681" lon="8.819240906430153"><ele>106.14285714285714</ele><time>2026-05-01T14:52:40Z</time></trkpt><trkpt lat="44.44870957110057" lon="8.819163463700862"><ele>104.28571428571428</ele><time>2026-05-01T14:52:41Z</time></trkpt><trkpt lat="44.44864844641548" lon="8.819107417338897"><ele>102.42857142857143</ele><time>2026-05-01T14:52:42Z</time></trkpt><trkpt lat="44.448595254147946" lon="8.819044124860413"><ele>100.57142857142857</ele><time>2026-05-01T14:52:43Z</time></trkpt><trkpt lat="44.44854942691884" lon="8.818979648403909"><ele>98.71428571428572</ele><time>2026-05-01T14:52:44Z</time></trkpt><trkpt lat="44.448493960253934" lon="8.818918695517382"><ele>96.85714285714286</ele><time>2026-05-01T14:52:47Z</time></trkpt><trkpt lat="44.448436315119544" lon="8.818869081779178"><ele>95.0</ele><time>2026-05-01T14:52:50Z</time></trkpt><trkpt lat="44.44834613626561" lon="8.818837099368585"><ele>95.0</ele><time>2026-05-01T14:53:00Z</time></trkpt><trkpt lat="44.448232430771554" lon="8.818802755194955"><ele>95.0</ele><time>2026-05-01T14:53:02Z</time></trkpt><trkpt lat="44.448168002938445" lon="8.818779699484985"><ele>95.0</ele><time>2026-05-01T14:53:03Z</time></trkpt><trkpt lat="44.44810430471282" lon="8.81874162014517"><ele>95.0</ele><time>2026-05-01T14:53:04Z</time></trkpt><trkpt lat="44.4480486062731" lon="8.8186958659029"><ele>95.0</ele><time>2026-05-01T14:53:05Z</time></trkpt><trkpt lat="44.44797653731102" lon="8.818576688384086"><ele>95.0</ele><time>2026-05-01T14:53:07Z</time></trkpt><trkpt lat="44.44798577021592" lon="8.81847496214543"><ele>93.6</ele><time>2026-05-01T14:53:08Z</time></trkpt><trkpt lat="44.44799700255845" lon="8.818383135644883"><ele>92.2</ele><time>2026-05-01T14:53:09Z</time></trkpt><trkpt lat="44.447998607367076" lon="8.818292525524301"><ele>90.80000000000001</ele><time>2026-05-01T14:53:10Z</time></trkpt><trkpt lat="44.4479933736064" lon="8.818140362724343"><ele>89.4</ele><time>2026-05-01T14:53:12Z</time></trkpt><trkpt lat="44.44791036846029" lon="8.817992322965388"><ele>88.0</ele><time>2026-05-01T14:53:14Z</time></trkpt><trkpt lat="44.44781674677658" lon="8.817950220412724"><ele>88.0</ele><time>2026-05-01T14:53:15Z</time></trkpt><trkpt lat="44.44771709378833" lon="8.817903279543389"><ele>88.0</ele><time>2026-05-01T14:53:16Z</time></trkpt><trkpt lat="44.44760846694749" lon="8.817850246257741"><ele>88.0</ele><time>2026-05-01T14:53:17Z</time></trkpt><trkpt lat="44.447490377349524" lon="8.81780579713737"><ele>88.0</ele><time>2026-05-01T14:53:18Z</time></trkpt><trkpt lat="44.44736866762648" lon="8.817780225464853"><ele>88.0</ele><time>2026-05-01T14:53:19Z</time></trkpt><trkpt lat="44.447239710615484" lon="8.8177573893968"><ele>88.0</ele><time>2026-05-01T14:53:20Z</time></trkpt><trkpt lat="44.44711252439371" lon="8.817742487633467"><ele>88.0</ele><time>2026-05-01T14:53:21Z</time></trkpt><trkpt lat="44.44699060971785" lon="8.817729490455475"><ele>88.0</ele><time>2026-05-01T14:53:22Z</time></trkpt><trkpt lat="44.44686743221805" lon="8.817713458551873"><ele>86.0</ele><time>2026-05-01T14:53:23Z</time></trkpt><trkpt lat="44.44675201941446" lon="8.817701905398165"><ele>84.0</ele><time>2026-05-01T14:53:24Z</time></trkpt><trkpt lat="44.44664920603431" lon="8.817683669141166"><ele>82.0</ele><time>2026-05-01T14:53:25Z</time></trkpt><trkpt lat="44.44654856903186" lon="8.8176758591765"><ele>80.0</ele><time>2026-05-01T14:53:26Z</time></trkpt><trkpt lat="44.44645604308839" lon="8.817645742999371"><ele>78.0</ele><time>2026-05-01T14:53:27Z</time></trkpt><trkpt lat="44.44635732539042" lon="8.81763000937618"><ele>79.6</ele><time>2026-05-01T14:53:28Z</time></trkpt><trkpt lat="44.4462631437984" lon="8.817560991816508"><ele>81.19999999999999</ele><time>2026-05-01T14:53:29Z</time></trkpt><trkpt lat="44.446162999227376" lon="8.817498192881414"><ele>82.8</ele><time>2026-05-01T14:53:30Z</time></trkpt><trkpt lat="44.44606518126181" lon="8.817435069201998"><ele>84.39999999999999</ele><time>2026-05-01T14:53:31Z</time></trkpt><trkpt lat="44.445965352582036" lon="8.817353973646481"><ele>86.0</ele><time>2026-05-01T14:53:32Z</time></trkpt><trkpt lat="44.44584761818424" lon="8.817323193512443"><ele>86.0</ele><time>2026-05-01T14:53:33Z</time></trkpt><trkpt lat="44.44573562726011" lon="8.817305525062965"><ele>86.0</ele><time>2026-05-01T14:53:34Z</time></trkpt><trkpt lat="44.445632013157706" lon="8.817272038152458"><ele>86.0</ele><time>2026-05-01T14:53:35Z</time></trkpt><trkpt lat="44.44554339541206" lon="8.817249715955514"><ele>86.0</ele><time>2026-05-01T14:53:36Z</time></trkpt><trkpt lat="44.445455014999496" lon="8.817198910974723"><ele>86.0</ele><time>2026-05-01T14:53:37Z</time></trkpt><trkpt lat="44.445377335673605" lon="8.817111318976144"><ele>84.5</ele><time>2026-05-01T14:53:38Z</time></trkpt><trkpt lat="44.44528224642356" lon="8.817094630686967"><ele>83.0</ele><time>2026-05-01T14:53:39Z</time></trkpt><trkpt lat="44.44519261890626" lon="8.817084568437792"><ele>81.5</ele><time>2026-05-01T14:53:40Z</time></trkpt><trkpt lat="44.44511121042299" lon="8.817080463312063"><ele>80.0</ele><time>2026-05-01T14:53:41Z</time></trkpt><trkpt lat="44.44503506121523" lon="8.817084305547244"><ele>78.5</ele><time>2026-05-01T14:53:42Z</time></trkpt><trkpt lat="44.44496408428308" lon="8.81710553026921"><ele>77.0</ele><time>2026-05-01T14:53:43Z</time></trkpt><trkpt lat="44.444886130662596" lon="8.817146284516218"><ele>77.0</ele><time>2026-05-01T14:53:44Z</time></trkpt><trkpt lat="44.44485703371424" lon="8.817315862642655"><ele>77.0</ele><time>2026-05-01T14:53:45Z</time></trkpt><trkpt lat="44.444826778449915" lon="8.8174164037792"><ele>77.0</ele><time>2026-05-01T14:53:46Z</time></trkpt><trkpt lat="44.444813302174815" lon="8.817536445485722"><ele>77.0</ele><time>2026-05-01T14:53:47Z</time></trkpt><trkpt lat="44.4448117328276" lon="8.81765309422884"><ele>77.0</ele><time>2026-05-01T14:53:48Z</time></trkpt><trkpt lat="44.4448170376604" lon="8.817773790099995"><ele>78.33333333333334</ele><time>2026-05-01T14:53:49Z</time></trkpt><trkpt lat="44.44482213362487" lon="8.817891952005766"><ele>79.66666666666667</ele><time>2026-05-01T14:53:50Z</time></trkpt><trkpt lat="44.444832362180556" lon="8.818009351911604"><ele>81.0</ele><time>2026-05-01T14:53:51Z</time></trkpt><trkpt lat="44.444837769363886" lon="8.818111328904068"><ele>82.33333333333333</ele><time>2026-05-01T14:53:52Z</time></trkpt><trkpt lat="44.44484061909917" lon="8.818203010932766"><ele>83.66666666666666</ele><time>2026-05-01T14:53:53Z</time></trkpt><trkpt lat="44.44483279663182" lon="8.818308440527442"><ele>85.0</ele><time>2026-05-01T14:53:54Z</time></trkpt><trkpt lat="44.44481484454018" lon="8.818415612576807"><ele>84.83333333333333</ele><time>2026-05-01T14:53:55Z</time></trkpt><trkpt lat="44.44477354297588" lon="8.818516208117266"><ele>84.66666666666666</ele><time>2026-05-01T14:53:56Z</time></trkpt><trkpt lat="44.44473285454221" lon="8.818616743311024"><ele>84.5</ele><time>2026-05-01T14:53:57Z</time></trkpt><trkpt lat="44.44472038201121" lon="8.818720605194246"><ele>84.33333333333333</ele><time>2026-05-01T14:53:58Z</time></trkpt><trkpt lat="44.444741526191024" lon="8.818831136423832"><ele>84.16666666666667</ele><time>2026-05-01T14:53:59Z</time></trkpt><trkpt lat="44.444771679452614" lon="8.818940101932638"><ele>84.0</ele><time>2026-05-01T14:54:00Z</time></trkpt><trkpt lat="44.44480055162946" lon="8.81906908249941"><ele>84.0</ele><time>2026-05-01T14:54:01Z</time></trkpt><trkpt lat="44.44481966218477" lon="8.819213122454663"><ele>84.0</ele><time>2026-05-01T14:54:02Z</time></trkpt><trkpt lat="44.444831388002626" lon="8.81936772224502"><ele>84.0</ele><time>2026-05-01T14:54:03Z</time></trkpt><trkpt lat="44.44481955340336" lon="8.819517606457527"><ele>84.0</ele><time>2026-05-01T14:54:04Z</time></trkpt><trkpt lat="44.44479597610233" lon="8.81965593442065"><ele>84.0</ele><time>2026-05-01T14:54:05Z</time></trkpt><trkpt lat="44.44474806345668" lon="8.819800480749313"><ele>85.6</ele><time>2026-05-01T14:54:06Z</time></trkpt><trkpt lat="44.444699679733375" lon="8.819950796407305"><ele>87.2</ele><time>2026-05-01T14:54:07Z</time></trkpt><trkpt lat="44.444656708307214" lon="8.820088960372585"><ele>88.8</ele><time>2026-05-01T14:54:08Z</time></trkpt><trkpt lat="44.44461739270298" lon="8.820210412610722"><ele>90.39999999999999</ele><time>2026-05-01T14:54:09Z</time></trkpt><trkpt lat="44.444580648807936" lon="8.820333424664064"><ele>92.0</ele><time>2026-05-01T14:54:10Z</time></trkpt><trkpt lat="44.44453721959227" lon="8.820460544635747"><ele>91.33333333333334</ele><time>2026-05-01T14:54:11Z</time></trkpt><trkpt lat="44.44451091225427" lon="8.820575198310967"><ele>90.66666666666667</ele><time>2026-05-01T14:54:12Z</time></trkpt><trkpt lat="44.444480072159514" lon="8.820670973889861"><ele>90.0</ele><time>2026-05-01T14:54:13Z</time></trkpt><trkpt lat="44.44444631733442" lon="8.820748410990946"><ele>89.33333333333333</ele><time>2026-05-01T14:54:14Z</time></trkpt><trkpt lat="44.44440318754218" lon="8.82083464557409"><ele>88.66666666666666</ele><time>2026-05-01T14:54:15Z</time></trkpt><trkpt lat="44.44434058693091" lon="8.820922090489"><ele>88.0</ele><time>2026-05-01T14:54:16Z</time></trkpt><trkpt lat="44.444262840781406" lon="8.821001264103572"><ele>88.0</ele><time>2026-05-01T14:54:17Z</time></trkpt><trkpt lat="44.44417715128148" lon="8.821048579081573"><ele>88.0</ele><time>2026-05-01T14:54:18Z</time></trkpt><trkpt lat="44.444087666441554" lon="8.821089363209007"><ele>88.0</ele><time>2026-05-01T14:54:19Z</time></trkpt><trkpt lat="44.44400804745473" lon="8.821131990161811"><ele>88.0</ele><time>2026-05-01T14:54:20Z</time></trkpt><trkpt lat="44.443939854132864" lon="8.821165504667343"><ele>88.0</ele><time>2026-05-01T14:54:21Z</time></trkpt><trkpt lat="44.44384611863316" lon="8.821265128853597"><ele>83.33333333333333</ele><time>2026-05-01T14:54:23Z</time></trkpt><trkpt lat="44.44376995528497" lon="8.821395528653916"><ele>78.66666666666666</ele><time>2026-05-01T14:54:25Z</time></trkpt><trkpt lat="44.44373466004806" lon="8.821486468925153"><ele>74.0</ele><time>2026-05-01T14:54:26Z</time></trkpt><trkpt lat="44.4436928421609" lon="8.821580883467355"><ele>69.33333333333333</ele><time>2026-05-01T14:54:27Z</time></trkpt><trkpt lat="44.44363479476744" lon="8.821658213881577"><ele>64.66666666666667</ele><time>2026-05-01T14:54:28Z</time></trkpt><trkpt lat="44.44355019562158" lon="8.821711205772498"><ele>60.0</ele><time>2026-05-01T14:54:29Z</time></trkpt><trkpt lat="44.44348238357703" lon="8.821751153928291"><ele>60.0</ele><time>2026-05-01T14:54:30Z</time></trkpt><trkpt lat="44.443419177966945" lon="8.821793436602418"><ele>60.0</ele><time>2026-05-01T14:54:31Z</time></trkpt><trkpt lat="44.44335400349462" lon="8.821837443142286"><ele>60.0</ele><time>2026-05-01T14:54:32Z</time></trkpt><trkpt lat="44.44328495699681" lon="8.821872600366449"><ele>60.0</ele><time>2026-05-01T14:54:33Z</time></trkpt><trkpt lat="44.44320875374997" lon="8.82188309453904"><ele>60.0</ele><time>2026-05-01T14:54:34Z</time></trkpt><trkpt lat="44.443142043820984" lon="8.821892031400928"><ele>60.0</ele><time>2026-05-01T14:54:35Z</time></trkpt><trkpt lat="44.44304267984276" lon="8.82194678145165"><ele>63.2</ele><time>2026-05-01T14:54:37Z</time></trkpt><trkpt lat="44.44297624718816" lon="8.82199590809824"><ele>66.4</ele><time>2026-05-01T14:54:39Z</time></trkpt><trkpt lat="44.442915174970175" lon="8.822082611596564"><ele>69.6</ele><time>2026-05-01T14:54:41Z</time></trkpt><trkpt lat="44.44281443275672" lon="8.822080764054029"><ele>72.8</ele><time>2026-05-01T14:54:43Z</time></trkpt><trkpt lat="44.44271539054052" lon="8.82197614218442"><ele>76.0</ele><time>2026-05-01T14:54:45Z</time></trkpt><trkpt lat="44.44265680622104" lon="8.821835561024379"><ele>72.0</ele><time>2026-05-01T14:54:47Z</time></trkpt><trkpt lat="44.442622427939085" lon="8.82167074655418"><ele>68.0</ele><time>2026-05-01T14:54:49Z</time></trkpt><trkpt lat="44.44260839933227" lon="8.821502268366807"><ele>64.0</ele><time>2026-05-01T14:54:51Z</time></trkpt><trkpt lat="44.44254709165389" lon="8.821366721201839"><ele>60.0</ele><time>2026-05-01T14:54:53Z</time></trkpt><trkpt lat="44.44243946780539" lon="8.821273926105544"><ele>60.0</ele><time>2026-05-01T14:54:55Z</time></trkpt><trkpt lat="44.44237953504669" lon="8.821228731360035"><ele>60.0</ele><time>2026-05-01T14:54:56Z</time></trkpt><trkpt lat="44.442292782141216" lon="8.821127653747482"><ele>60.0</ele><time>2026-05-01T14:54:58Z</time></trkpt><trkpt lat="44.442252291758415" lon="8.821000684288947"><ele>60.0</ele><time>2026-05-01T14:55:00Z</time></trkpt><trkpt lat="44.44219529295957" lon="8.820889924289757"><ele>60.0</ele><time>2026-05-01T14:55:02Z</time></trkpt><trkpt lat="44.442135567504366" lon="8.820853111101098"><ele>60.0</ele><time>2026-05-01T14:55:03Z</time></trkpt><trkpt lat="44.44206571540419" lon="8.8208026047314"><ele>59.714285714285715</ele><time>2026-05-01T14:55:04Z</time></trkpt><trkpt lat="44.44200399483263" lon="8.820736896375628"><ele>59.42857142857143</ele><time>2026-05-01T14:55:05Z</time></trkpt><trkpt lat="44.44194313076736" lon="8.820696846318791"><ele>59.142857142857146</ele><time>2026-05-01T14:55:06Z</time></trkpt><trkpt lat="44.44187795593299" lon="8.8206821115533"><ele>58.85714285714286</ele><time>2026-05-01T14:55:07Z</time></trkpt><trkpt lat="44.44181127580298" lon="8.820641343534698"><ele>58.57142857142857</ele><time>2026-05-01T14:55:08Z</time></trkpt><trkpt lat="44.44173699415732" lon="8.820589085713623"><ele>58.28571428571429</ele><time>2026-05-01T14:55:09Z</time></trkpt><trkpt lat="44.44166985602078" lon="8.820552158293282"><ele>58.00000000000001</ele><time>2026-05-01T14:55:10Z</time></trkpt><trkpt lat="44.44160864044339" lon="8.820509354913106"><ele>57.99999999999999</ele><time>2026-05-01T14:55:11Z</time></trkpt><trkpt lat="44.44153368027076" lon="8.820468445355788"><ele>58.0</ele><time>2026-05-01T14:55:12Z</time></trkpt><trkpt lat="44.44145751651084" lon="8.820425936008299"><ele>58.0</ele><time>2026-05-01T14:55:13Z</time></trkpt><trkpt lat="44.44137093095221" lon="8.820400650115328"><ele>58.0</ele><time>2026-05-01T14:55:14Z</time></trkpt><trkpt lat="44.44127912777184" lon="8.820386707351537"><ele>57.99999999999999</ele><time>2026-05-01T14:55:15Z</time></trkpt><trkpt lat="44.44119172549358" lon="8.820404939308698"><ele>58.0</ele><time>2026-05-01T14:55:16Z</time></trkpt><trkpt lat="44.44111322939844" lon="8.820410395246016"><ele>58.49999999999999</ele><time>2026-05-01T14:55:17Z</time></trkpt><trkpt lat="44.44102109455771" lon="8.820392578829464"><ele>59.0</ele><time>2026-05-01T14:55:18Z</time></trkpt><trkpt lat="44.440931480359474" lon="8.820342689190953"><ele>59.5</ele><time>2026-05-01T14:55:19Z</time></trkpt><trkpt lat="44.440858850696884" lon="8.820312561086174"><ele>60.0</ele><time>2026-05-01T14:55:20Z</time></trkpt><trkpt lat="44.440786963070074" lon="8.82028315297795"><ele>60.49999999999999</ele><time>2026-05-01T14:55:21Z</time></trkpt><trkpt lat="44.44070413546794" lon="8.82025275310774"><ele>61.0</ele><time>2026-05-01T14:55:22Z</time></trkpt><trkpt lat="44.440599536240434" lon="8.82022809813691"><ele>61.0</ele><time>2026-05-01T14:55:23Z</time></trkpt><trkpt lat="44.440498321892115" lon="8.820218931393459"><ele>60.99999999999999</ele><time>2026-05-01T14:55:24Z</time></trkpt><trkpt lat="44.440399832703775" lon="8.820204048607195"><ele>60.99999999999999</ele><time>2026-05-01T14:55:25Z</time></trkpt><trkpt lat="44.44031483113478" lon="8.820200845404818"><ele>61.0</ele><time>2026-05-01T14:55:26Z</time></trkpt><trkpt lat="44.440225598559074" lon="8.820188669745292"><ele>61.0</ele><time>2026-05-01T14:55:28Z</time></trkpt><trkpt lat="44.4401314242153" lon="8.820171816964328"><ele>62.599999999999994</ele><time>2026-05-01T14:55:30.999Z</time></trkpt><trkpt lat="44.44003117353401" lon="8.820153602568729"><ele>64.19999999999999</ele><time>2026-05-01T14:55:37.999Z</time></trkpt><trkpt lat="44.43992986492621" lon="8.8201287417562"><ele>65.80000000000001</ele><time>2026-05-01T14:55:39.999Z</time></trkpt><trkpt lat="44.4398375770182" lon="8.820098857151196"><ele>67.4</ele><time>2026-05-01T14:55:41.999Z</time></trkpt><trkpt lat="44.4397462262122" lon="8.820029422991146"><ele>69.0</ele><time>2026-05-01T14:55:44Z</time></trkpt><trkpt lat="44.43970756022921" lon="8.819951645143867"><ele>64.2</ele><time>2026-05-01T14:55:46Z</time></trkpt><trkpt lat="44.439679251428" lon="8.819834832907398"><ele>59.400000000000006</ele><time>2026-05-01T14:55:49Z</time></trkpt><trkpt lat="44.43965792299216" lon="8.819721900145622"><ele>54.6</ele><time>2026-05-01T14:55:51Z</time></trkpt><trkpt lat="44.43964222203234" lon="8.819618734144395"><ele>49.8</ele><time>2026-05-01T14:55:53Z</time></trkpt><trkpt lat="44.439544246414044" lon="8.819557130970066"><ele>45.0</ele><time>2026-05-01T14:55:56Z</time></trkpt><trkpt lat="44.43943662766662" lon="8.819576655086905"><ele>45.0</ele><time>2026-05-01T14:55:58Z</time></trkpt><trkpt lat="44.43933080438999" lon="8.819601172204312"><ele>45.0</ele><time>2026-05-01T14:56:00Z</time></trkpt><trkpt lat="44.439222122969845" lon="8.819601143494651"><ele>45.0</ele><time>2026-05-01T14:56:02Z</time></trkpt><trkpt lat="44.43916841503586" lon="8.819495982262815"><ele>45.0</ele><time>2026-05-01T14:56:04Z</time></trkpt><trkpt lat="44.439129029227225" lon="8.81936539824603"><ele>45.0</ele><time>2026-05-01T14:56:06Z</time></trkpt><trkpt lat="44.43909146047213" lon="8.81926131092471"><ele>44.2</ele><time>2026-05-01T14:56:08Z</time></trkpt><trkpt lat="44.43901538032365" lon="8.819200447794426"><ele>43.4</ele><time>2026-05-01T14:56:10Z</time></trkpt><trkpt lat="44.43891823150111" lon="8.819205222755155"><ele>42.599999999999994</ele><time>2026-05-01T14:56:12Z</time></trkpt><trkpt lat="44.43881298110577" lon="8.819263600724145"><ele>41.8</ele><time>2026-05-01T14:56:14Z</time></trkpt><trkpt lat="44.43872533458125" lon="8.819298458659908"><ele>41.0</ele><time>2026-05-01T14:56:16Z</time></trkpt><trkpt lat="44.43864170810373" lon="8.819338629002079"><ele>40.8</ele><time>2026-05-01T14:56:18Z</time></trkpt><trkpt lat="44.43857089772683" lon="8.819408314377785"><ele>40.599999999999994</ele><time>2026-05-01T14:56:20Z</time></trkpt><trkpt lat="44.43855261049496" lon="8.819521857414411"><ele>40.4</ele><time>2026-05-01T14:56:21Z</time></trkpt><trkpt lat="44.438490377096656" lon="8.819591119015426"><ele>40.2</ele><time>2026-05-01T14:56:25Z</time></trkpt><trkpt lat="44.43838816570143" lon="8.819614825851435"><ele>40.0</ele><time>2026-05-01T14:56:27Z</time></trkpt><trkpt lat="44.43828348104585" lon="8.819609021281588"><ele>40.0</ele><time>2026-05-01T14:56:28Z</time></trkpt><trkpt lat="44.43815101583042" lon="8.819637637526524"><ele>40.0</ele><time>2026-05-01T14:56:29Z</time></trkpt><trkpt lat="44.43803410088361" lon="8.819628457352122"><ele>40.0</ele><time>2026-05-01T14:56:30Z</time></trkpt><trkpt lat="44.43795566811722" lon="8.819604676477352"><ele>40.0</ele><time>2026-05-01T14:56:31Z</time></trkpt><trkpt lat="44.43783728064606" lon="8.819617587093347"><ele>39.0</ele><time>2026-05-01T14:56:33Z</time></trkpt><trkpt lat="44.43773613392555" lon="8.819621693202986"><ele>38.0</ele><time>2026-05-01T14:56:35Z</time></trkpt><trkpt lat="44.43766061154491" lon="8.819627184420847"><ele>37.0</ele><time>2026-05-01T14:56:37Z</time></trkpt><trkpt lat="44.437562120773556" lon="8.819619877997404"><ele>36.0</ele><time>2026-05-01T14:56:39Z</time></trkpt><trkpt lat="44.437495129008866" lon="8.819618881355394"><ele>35.0</ele><time>2026-05-01T14:56:40Z</time></trkpt><trkpt lat="44.43742265528389" lon="8.819623207321232"><ele>34.0</ele><time>2026-05-01T14:56:41Z</time></trkpt><trkpt lat="44.43734364601053" lon="8.819631607541817"><ele>34.0</ele><time>2026-05-01T14:56:42Z</time></trkpt><trkpt lat="44.437272532416955" lon="8.819639367933254"><ele>34.0</ele><time>2026-05-01T14:56:43Z</time></trkpt><trkpt lat="44.43720708978209" lon="8.819641111661321"><ele>34.0</ele><time>2026-05-01T14:56:44Z</time></trkpt><trkpt lat="44.43712436002222" lon="8.819634258547856"><ele>34.0</ele><time>2026-05-01T14:56:45Z</time></trkpt><trkpt lat="44.43703970775014" lon="8.819632322407832"><ele>34.0</ele><time>2026-05-01T14:56:46Z</time></trkpt><trkpt lat="44.43695336072431" lon="8.819626718504255"><ele>34.0</ele><time>2026-05-01T14:56:47Z</time></trkpt><trkpt lat="44.43686429534336" lon="8.8196118094898"><ele>33.5</ele><time>2026-05-01T14:56:48Z</time></trkpt><trkpt lat="44.43676925118779" lon="8.819595271156699"><ele>33.0</ele><time>2026-05-01T14:56:49Z</time></trkpt><trkpt lat="44.43667143220647" lon="8.819579498338072"><ele>32.5</ele><time>2026-05-01T14:56:50Z</time></trkpt><trkpt lat="44.43656404219153" lon="8.819570779483977"><ele>32.0</ele><time>2026-05-01T14:56:51Z</time></trkpt><trkpt lat="44.436401869906064" lon="8.81956326756446"><ele>32.0</ele><time>2026-05-01T14:56:52Z</time></trkpt><trkpt lat="44.436188166032764" lon="8.819524826408133"><ele>32.0</ele><time>2026-05-01T14:56:53Z</time></trkpt><trkpt lat="44.43603653012627" lon="8.819475936222535"><ele>32.0</ele><time>2026-05-01T14:56:54Z</time></trkpt><trkpt lat="44.4359014216181" lon="8.819414784919154"><ele>32.0</ele><time>2026-05-01T14:56:55Z</time></trkpt><trkpt lat="44.43574097187891" lon="8.819320486542193"><ele>32.0</ele><time>2026-05-01T14:56:56Z</time></trkpt><trkpt lat="44.43555254565394" lon="8.819198256624615"><ele>32.0</ele><time>2026-05-01T14:56:57Z</time></trkpt><trkpt lat="44.435349718800445" lon="8.819060527042778"><ele>30.666666666666664</ele><time>2026-05-01T14:56:58Z</time></trkpt><trkpt lat="44.43517410330715" lon="8.818938375328239"><ele>29.333333333333336</ele><time>2026-05-01T14:56:59Z</time></trkpt><trkpt lat="44.43502568625558" lon="8.818839396052006"><ele>28.0</ele><time>2026-05-01T14:57:00Z</time></trkpt><trkpt lat="44.43490547472027" lon="8.818731276865629"><ele>28.0</ele><time>2026-05-01T14:57:01Z</time></trkpt><trkpt lat="44.434796371436086" lon="8.81863204414743"><ele>28.0</ele><time>2026-05-01T14:57:02Z</time></trkpt><trkpt lat="44.43466814056259" lon="8.818564486559618"><ele>28.0</ele><time>2026-05-01T14:57:03Z</time></trkpt><trkpt lat="44.434538414930586" lon="8.818474785147659"><ele>28.0</ele><time>2026-05-01T14:57:04Z</time></trkpt><trkpt lat="44.43440198175985" lon="8.81842350973497"><ele>28.333333333333336</ele><time>2026-05-01T14:57:05Z</time></trkpt><trkpt lat="44.43425969631318" lon="8.818380518046904"><ele>28.666666666666664</ele><time>2026-05-01T14:57:06Z</time></trkpt><trkpt lat="44.43410444717458" lon="8.818337552523852"><ele>29.0</ele><time>2026-05-01T14:57:07Z</time></trkpt><trkpt lat="44.43395095645596" lon="8.818329144811143"><ele>34.0</ele><time>2026-05-01T14:57:08Z</time></trkpt><trkpt lat="44.433797723817946" lon="8.81835254577558"><ele>39.0</ele><time>2026-05-01T14:57:09Z</time></trkpt><trkpt lat="44.43363939458101" lon="8.81838455514536"><ele>44.0</ele><time>2026-05-01T14:57:10Z</time></trkpt><trkpt lat="44.43348835255683" lon="8.818446039871427"><ele>39.0</ele><time>2026-05-01T14:57:11Z</time></trkpt><trkpt lat="44.43337134896883" lon="8.818512958401524"><ele>34.0</ele><time>2026-05-01T14:57:12Z</time></trkpt><trkpt lat="44.433262686712716" lon="8.818635127215309"><ele>29.0</ele><time>2026-05-01T14:57:13Z</time></trkpt><trkpt lat="44.43315861922385" lon="8.818777525055497"><ele>24.0</ele><time>2026-05-01T14:57:14Z</time></trkpt><trkpt lat="44.43306616640535" lon="8.81891107920583"><ele>28.0</ele><time>2026-05-01T14:57:15Z</time></trkpt><trkpt lat="44.432967187310666" lon="8.819007929316378"><ele>32.0</ele><time>2026-05-01T14:57:16Z</time></trkpt><trkpt lat="44.43284121519513" lon="8.819073437000869"><ele>36.0</ele><time>2026-05-01T14:57:17Z</time></trkpt><trkpt lat="44.432675948761286" lon="8.819197126310527"><ele>40.0</ele><time>2026-05-01T14:57:18Z</time></trkpt><trkpt lat="44.43252360410294" lon="8.819287259762"><ele>36.5</ele><time>2026-05-01T14:57:19Z</time></trkpt><trkpt lat="44.432390661569464" lon="8.819332380392096"><ele>33.0</ele><time>2026-05-01T14:57:20Z</time></trkpt><trkpt lat="44.43225318175241" lon="8.819403931692213"><ele>29.5</ele><time>2026-05-01T14:57:21Z</time></trkpt><trkpt lat="44.43210523721757" lon="8.819402396635304"><ele>26.0</ele><time>2026-05-01T14:57:22Z</time></trkpt><trkpt lat="44.431962276864965" lon="8.819458245189592"><ele>24.666666666666664</ele><time>2026-05-01T14:57:23Z</time></trkpt><trkpt lat="44.43179973734229" lon="8.819557797826183"><ele>23.333333333333332</ele><time>2026-05-01T14:57:24Z</time></trkpt><trkpt lat="44.43160284469085" lon="8.819711590688756"><ele>22.0</ele><time>2026-05-01T14:57:25Z</time></trkpt><trkpt lat="44.43144317681672" lon="8.81982217991128"><ele>22.0</ele><time>2026-05-01T14:57:26Z</time></trkpt><trkpt lat="44.43131000706803" lon="8.819893274992783"><ele>22.0</ele><time>2026-05-01T14:57:27Z</time></trkpt><trkpt lat="44.43117523087451" lon="8.819986174610946"><ele>22.0</ele><time>2026-05-01T14:57:28Z</time></trkpt><trkpt lat="44.43105775668001" lon="8.820066838825575"><ele>22.0</ele><time>2026-05-01T14:57:29Z</time></trkpt><trkpt lat="44.43094940658536" lon="8.820150682906311"><ele>20.25</ele><time>2026-05-01T14:57:30Z</time></trkpt><trkpt lat="44.430848177422746" lon="8.820219313094741"><ele>18.5</ele><time>2026-05-01T14:57:31Z</time></trkpt><trkpt lat="44.43073124204401" lon="8.820302401257916"><ele>16.75</ele><time>2026-05-01T14:57:32Z</time></trkpt><trkpt lat="44.43060629270636" lon="8.820406682180694"><ele>15.0</ele><time>2026-05-01T14:57:33Z</time></trkpt><trkpt lat="44.43049472421507" lon="8.82049165437888"><ele>15.25</ele><time>2026-05-01T14:57:34Z</time></trkpt><trkpt lat="44.43037454492476" lon="8.820590289526836"><ele>15.5</ele><time>2026-05-01T14:57:35Z</time></trkpt><trkpt lat="44.430249629116155" lon="8.820669713866774"><ele>15.75</ele><time>2026-05-01T14:57:36Z</time></trkpt><trkpt lat="44.43013139742164" lon="8.820734829603465"><ele>16.0</ele><time>2026-05-01T14:57:37Z</time></trkpt><trkpt lat="44.430019075206765" lon="8.820766772522015"><ele>16.0</ele><time>2026-05-01T14:57:38Z</time></trkpt><trkpt lat="44.42993191156294" lon="8.820814193288363"><ele>16.0</ele><time>2026-05-01T14:57:39Z</time></trkpt><trkpt lat="44.429842032566725" lon="8.820815610373584"><ele>16.0</ele><time>2026-05-01T14:57:40Z</time></trkpt><trkpt lat="44.42976253215885" lon="8.820829921363128"><ele>16.0</ele><time>2026-05-01T14:57:41Z</time></trkpt><trkpt lat="44.42969421080314" lon="8.820840152968142"><ele>16.0</ele><time>2026-05-01T14:57:42Z</time></trkpt><trkpt lat="44.42956123537147" lon="8.820852342155968"><ele>15.999999999999998</ele><time>2026-05-01T14:57:44Z</time></trkpt><trkpt lat="44.42948570306162" lon="8.820860506999425"><ele>16.0</ele><time>2026-05-01T14:57:45Z</time></trkpt><trkpt lat="44.42941599594103" lon="8.820870629936541"><ele>16.0</ele><time>2026-05-01T14:57:46Z</time></trkpt><trkpt lat="44.42933808911956" lon="8.820862885971568"><ele>16.0</ele><time>2026-05-01T14:57:47Z</time></trkpt><trkpt lat="44.4292652243357" lon="8.820863138320265"><ele>15.999999999999998</ele><time>2026-05-01T14:57:48Z</time></trkpt><trkpt lat="44.42917481707333" lon="8.820880722979776"><ele>16.0</ele><time>2026-05-01T14:57:49Z</time></trkpt><trkpt lat="44.42909070101999" lon="8.820889336240867"><ele>16.0</ele><time>2026-05-01T14:57:49.999Z</time></trkpt><trkpt lat="44.42902406143541" lon="8.820900054569904"><ele>15.999999999999998</ele><time>2026-05-01T14:57:50.999Z</time></trkpt><trkpt lat="44.42895181312701" lon="8.82090906536349"><ele>16.0</ele><time>2026-05-01T14:57:51.999Z</time></trkpt><trkpt lat="44.42888153449455" lon="8.82088439513018"><ele>16.0</ele><time>2026-05-01T14:57:52.999Z</time></trkpt><trkpt lat="44.428792908367264" lon="8.820866665396139"><ele>15.999999999999998</ele><time>2026-05-01T14:57:53.999Z</time></trkpt><trkpt lat="44.4287304864041" lon="8.820842714562415"><ele>16.0</ele><time>2026-05-01T14:57:54.999Z</time></trkpt><trkpt lat="44.42865574595173" lon="8.820797679017033"><ele>16.0</ele><time>2026-05-01T14:57:55.999Z</time></trkpt><trkpt lat="44.428573545503355" lon="8.82074604180666"><ele>17.8</ele><time>2026-05-01T14:57:56.999Z</time></trkpt><trkpt lat="44.42850142810705" lon="8.820668434867986"><ele>19.6</ele><time>2026-05-01T14:57:57.999Z</time></trkpt><trkpt lat="44.42841489833784" lon="8.820603397444378"><ele>21.4</ele><time>2026-05-01T14:57:58.999Z</time></trkpt><trkpt lat="44.42834497540977" lon="8.820534240223525"><ele>23.2</ele><time>2026-05-01T14:57:59.999Z</time></trkpt><trkpt lat="44.428265395134254" lon="8.820500683198059"><ele>25.0</ele><time>2026-05-01T14:58:00.999Z</time></trkpt><trkpt lat="44.4281720626078" lon="8.820449354904405"><ele>25.000000000000004</ele><time>2026-05-01T14:58:01.999Z</time></trkpt><trkpt lat="44.42810070165671" lon="8.820419470346526"><ele>25.0</ele><time>2026-05-01T14:58:02.999Z</time></trkpt><trkpt lat="44.42803205452772" lon="8.820341978040082"><ele>25.0</ele><time>2026-05-01T14:58:04Z</time></trkpt><trkpt lat="44.42795521877106" lon="8.820290436079137"><ele>25.0</ele><time>2026-05-01T14:58:05Z</time></trkpt><trkpt lat="44.427882192944224" lon="8.820242721792871"><ele>25.000000000000004</ele><time>2026-05-01T14:58:06Z</time></trkpt><trkpt lat="44.427809914346334" lon="8.82019613338439"><ele>25.0</ele><time>2026-05-01T14:58:07Z</time></trkpt><trkpt lat="44.42773643090022" lon="8.820151976295143"><ele>24.000000000000004</ele><time>2026-05-01T14:58:08Z</time></trkpt><trkpt lat="44.427671541571485" lon="8.820115703115048"><ele>23.0</ele><time>2026-05-01T14:58:09Z</time></trkpt><trkpt lat="44.427557929610764" lon="8.820051778824423"><ele>22.0</ele><time>2026-05-01T14:58:11Z</time></trkpt><trkpt lat="44.42749405638257" lon="8.819996952763034"><ele>21.0</ele><time>2026-05-01T14:58:12Z</time></trkpt><trkpt lat="44.42743194276467" lon="8.819940584946208"><ele>20.0</ele><time>2026-05-01T14:58:13Z</time></trkpt><trkpt lat="44.4273641091677" lon="8.819892360103157"><ele>19.0</ele><time>2026-05-01T14:58:14Z</time></trkpt><trkpt lat="44.42727846997209" lon="8.819857615548525"><ele>19.0</ele><time>2026-05-01T14:58:15Z</time></trkpt><trkpt lat="44.427213705573195" lon="8.81979552466017"><ele>19.0</ele><time>2026-05-01T14:58:16Z</time></trkpt><trkpt lat="44.42713397991076" lon="8.819766459945768"><ele>19.0</ele><time>2026-05-01T14:58:17Z</time></trkpt><trkpt lat="44.427044193545186" lon="8.819743077809193"><ele>19.0</ele><time>2026-05-01T14:58:18Z</time></trkpt><trkpt lat="44.42696363460053" lon="8.819728894393545"><ele>19.0</ele><time>2026-05-01T14:58:19Z</time></trkpt><trkpt lat="44.42689445835582" lon="8.819718242793028"><ele>19.0</ele><time>2026-05-01T14:58:20Z</time></trkpt><trkpt lat="44.42682581888646" lon="8.819711514930903"><ele>18.166666666666664</ele><time>2026-05-01T14:58:21Z</time></trkpt><trkpt lat="44.426746599066306" lon="8.819732734839373"><ele>17.333333333333332</ele><time>2026-05-01T14:58:22Z</time></trkpt><trkpt lat="44.42667506583571" lon="8.819711749692257"><ele>16.5</ele><time>2026-05-01T14:58:23Z</time></trkpt><trkpt lat="44.426593387684505" lon="8.819700002890816"><ele>15.666666666666668</ele><time>2026-05-01T14:58:24Z</time></trkpt><trkpt lat="44.42651079816483" lon="8.819676680708469"><ele>14.833333333333334</ele><time>2026-05-01T14:58:25Z</time></trkpt><trkpt lat="44.42644418151984" lon="8.819644329389522"><ele>14.0</ele><time>2026-05-01T14:58:26Z</time></trkpt><trkpt lat="44.42638410589328" lon="8.819617616938034"><ele>12.6</ele><time>2026-05-01T14:58:27Z</time></trkpt><trkpt lat="44.42631106833593" lon="8.819602266572263"><ele>11.2</ele><time>2026-05-01T14:58:28Z</time></trkpt><trkpt lat="44.426240093022614" lon="8.819582003292206"><ele>9.799999999999999</ele><time>2026-05-01T14:58:29Z</time></trkpt><trkpt lat="44.42611319536182" lon="8.819562944273828"><ele>8.399999999999999</ele><time>2026-05-01T14:58:31Z</time></trkpt><trkpt lat="44.42604787899058" lon="8.81954648509262"><ele>7.0</ele><time>2026-05-01T14:58:32Z</time></trkpt><trkpt lat="44.4259332103417" lon="8.819503262163137"><ele>7.0</ele><time>2026-05-01T14:58:34Z</time></trkpt><trkpt lat="44.42585561158504" lon="8.819493778204302"><ele>6.999999999999999</ele><time>2026-05-01T14:58:47Z</time></trkpt><trkpt lat="44.425804585690834" lon="8.819562327953632"><ele>6.999999999999999</ele><time>2026-05-01T14:58:48Z</time></trkpt><trkpt lat="44.425727477514506" lon="8.81954616346202"><ele>7.0</ele><time>2026-05-01T14:58:49Z</time></trkpt><trkpt lat="44.425601324994375" lon="8.81956757223112"><ele>7.0</ele><time>2026-05-01T14:58:50Z</time></trkpt><trkpt lat="44.425497589749384" lon="8.81956257471224"><ele>7.3999999999999995</ele><time>2026-05-01T14:58:51Z</time></trkpt><trkpt lat="44.42540543076945" lon="8.819552423554626"><ele>7.799999999999999</ele><time>2026-05-01T14:58:52Z</time></trkpt><trkpt lat="44.42531125126522" lon="8.819521738926523"><ele>8.2</ele><time>2026-05-01T14:58:53Z</time></trkpt><trkpt lat="44.42522868674606" lon="8.819542420448977"><ele>8.6</ele><time>2026-05-01T14:58:54Z</time></trkpt><trkpt lat="44.42509629539745" lon="8.819550209620518"><ele>9.0</ele><time>2026-05-01T14:58:56Z</time></trkpt><trkpt lat="44.42503241172468" lon="8.819539131423102"><ele>9.0</ele><time>2026-05-01T14:58:57Z</time></trkpt><trkpt lat="44.42494943792206" lon="8.819538281366748"><ele>9.0</ele><time>2026-05-01T14:58:58Z</time></trkpt><trkpt lat="44.42486095076835" lon="8.819567316008134"><ele>9.0</ele><time>2026-05-01T14:59:00Z</time></trkpt><trkpt lat="44.42478345668064" lon="8.81956821674046"><ele>9.0</ele><time>2026-05-01T14:59:12Z</time></trkpt><trkpt lat="44.42476567283628" lon="8.819435247679666"><ele>9.0</ele><time>2026-05-01T14:59:18Z</time></trkpt><trkpt lat="44.424766780490785" lon="8.819273772317368"><ele>8.666666666666666</ele><time>2026-05-01T14:59:20Z</time></trkpt><trkpt lat="44.42475659481262" lon="8.819174987248276"><ele>8.333333333333334</ele><time>2026-05-01T14:59:21Z</time></trkpt><trkpt lat="44.424744832042926" lon="8.819071087036708"><ele>8.0</ele><time>2026-05-01T14:59:22Z</time></trkpt><trkpt lat="44.42473793511179" lon="8.818952628613227"><ele>7.666666666666667</ele><time>2026-05-01T14:59:23Z</time></trkpt><trkpt lat="44.424732825949256" lon="8.818822136232185"><ele>7.333333333333334</ele><time>2026-05-01T14:59:24Z</time></trkpt><trkpt lat="44.42472909434659" lon="8.818692137348206"><ele>7.0</ele><time>2026-05-01T14:59:25Z</time></trkpt><trkpt lat="44.4247473944098" lon="8.818554456538793"><ele>7.000000000000001</ele><time>2026-05-01T14:59:26Z</time></trkpt><trkpt lat="44.42476877891016" lon="8.81842327178038"><ele>7.0</ele><time>2026-05-01T14:59:27Z</time></trkpt><trkpt lat="44.424793880954006" lon="8.818299020279117"><ele>7.0</ele><time>2026-05-01T14:59:28Z</time></trkpt><trkpt lat="44.424827319990996" lon="8.818190078137684"><ele>7.0</ele><time>2026-05-01T14:59:29Z</time></trkpt><trkpt lat="44.424849538791044" lon="8.818100470438479"><ele>7.000000000000001</ele><time>2026-05-01T14:59:30Z</time></trkpt><trkpt lat="44.42486470235303" lon="8.818011734326767"><ele>7.0</ele><time>2026-05-01T14:59:31Z</time></trkpt><trkpt lat="44.424885029587244" lon="8.817922071957769"><ele>7.0</ele><time>2026-05-01T14:59:32Z</time></trkpt><trkpt lat="44.42491427604784" lon="8.817771913729922"><ele>6.999999999999999</ele><time>2026-05-01T14:59:34Z</time></trkpt><trkpt lat="44.42493539026014" lon="8.817685249129726"><ele>6.999999999999999</ele><time>2026-05-01T14:59:36Z</time></trkpt><trkpt lat="44.424950807692795" lon="8.817563066591402"><ele>7.0</ele><time>2026-05-01T14:59:39Z</time></trkpt><trkpt lat="44.42497319943875" lon="8.817414388691784"><ele>7.0</ele><time>2026-05-01T14:59:41Z</time></trkpt><trkpt lat="44.42499378421896" lon="8.817239575807152"><ele>6.833333333333334</ele><time>2026-05-01T14:59:43Z</time></trkpt><trkpt lat="44.42499413543771" lon="8.817144775529512"><ele>6.666666666666667</ele><time>2026-05-01T14:59:44Z</time></trkpt><trkpt lat="44.42499668761213" lon="8.817041105611239"><ele>6.5</ele><time>2026-05-01T14:59:45Z</time></trkpt><trkpt lat="44.42499180154267" lon="8.816923758590924"><ele>6.333333333333334</ele><time>2026-05-01T14:59:46Z</time></trkpt><trkpt lat="44.42498925473103" lon="8.816800580089295"><ele>6.166666666666667</ele><time>2026-05-01T14:59:47Z</time></trkpt><trkpt lat="44.424977679667826" lon="8.816682682234832"><ele>6.0</ele><time>2026-05-01T14:59:48Z</time></trkpt><trkpt lat="44.42496464142376" lon="8.816564894789995"><ele>6.333333333333333</ele><time>2026-05-01T14:59:49Z</time></trkpt><trkpt lat="44.42495614669016" lon="8.816464173078401"><ele>6.666666666666666</ele><time>2026-05-01T14:59:50Z</time></trkpt><trkpt lat="44.42493891682872" lon="8.816343700831787"><ele>7.0</ele><time>2026-05-01T14:59:51Z</time></trkpt><trkpt lat="44.42491933262892" lon="8.816217861124038"><ele>7.333333333333333</ele><time>2026-05-01T14:59:52Z</time></trkpt><trkpt lat="44.42489785038029" lon="8.816091069902892"><ele>7.666666666666666</ele><time>2026-05-01T14:59:53Z</time></trkpt><trkpt lat="44.424877648856175" lon="8.815984861474954"><ele>8.0</ele><time>2026-05-01T14:59:54Z</time></trkpt><trkpt lat="44.42486176008113" lon="8.815884722018057"><ele>8.5</ele><time>2026-05-01T14:59:55Z</time></trkpt><trkpt lat="44.42483495282126" lon="8.815779805545674"><ele>9.0</ele><time>2026-05-01T14:59:55.999Z</time></trkpt><trkpt lat="44.42481789174472" lon="8.815672840009634"><ele>9.5</ele><time>2026-05-01T14:59:56.999Z</time></trkpt><trkpt lat="44.42480275448814" lon="8.815568586645261"><ele>10.0</ele><time>2026-05-01T14:59:57.999Z</time></trkpt><trkpt lat="44.424781084097546" lon="8.815461866406272"><ele>10.5</ele><time>2026-05-01T14:59:58.999Z</time></trkpt><trkpt lat="44.42475798063577" lon="8.815349266520714"><ele>11.0</ele><time>2026-05-01T14:59:59.999Z</time></trkpt><trkpt lat="44.42472453169808" lon="8.815232454838048"><ele>10.833333333333332</ele><time>2026-05-01T15:00:00.999Z</time></trkpt><trkpt lat="44.42470400295532" lon="8.815116966605286"><ele>10.666666666666666</ele><time>2026-05-01T15:00:01.999Z</time></trkpt><trkpt lat="44.42468539438164" lon="8.815022166004947"><ele>10.5</ele><time>2026-05-01T15:00:02.999Z</time></trkpt><trkpt lat="44.424680085549724" lon="8.81492197847363"><ele>10.333333333333334</ele><time>2026-05-01T15:00:03.999Z</time></trkpt><trkpt lat="44.42468114835059" lon="8.814822818302183"><ele>10.166666666666668</ele><time>2026-05-01T15:00:04.999Z</time></trkpt><trkpt lat="44.424682625087385" lon="8.814715043393413"><ele>10.0</ele><time>2026-05-01T15:00:05.999Z</time></trkpt><trkpt lat="44.42469010752305" lon="8.814602062238908"><ele>10.0</ele><time>2026-05-01T15:00:06.999Z</time></trkpt><trkpt lat="44.42471357524909" lon="8.814474559096855"><ele>10.0</ele><time>2026-05-01T15:00:07.999Z</time></trkpt><trkpt lat="44.42473490737661" lon="8.814347464437862"><ele>10.0</ele><time>2026-05-01T15:00:08.999Z</time></trkpt><trkpt lat="44.42475201254112" lon="8.814228389385953"><ele>10.0</ele><time>2026-05-01T15:00:09.999Z</time></trkpt><trkpt lat="44.424768670485456" lon="8.814129789006287"><ele>10.0</ele><time>2026-05-01T15:00:10.999Z</time></trkpt><trkpt lat="44.424774008654076" lon="8.814017321653637"><ele>10.0</ele><time>2026-05-01T15:00:11.999Z</time></trkpt><trkpt lat="44.424799764341365" lon="8.813900780310048"><ele>9.666666666666668</ele><time>2026-05-01T15:00:12.999Z</time></trkpt><trkpt lat="44.42481890202736" lon="8.813785346374088"><ele>9.333333333333334</ele><time>2026-05-01T15:00:13.999Z</time></trkpt><trkpt lat="44.424834934941465" lon="8.813662502633344"><ele>9.0</ele><time>2026-05-01T15:00:15Z</time></trkpt><trkpt lat="44.42484189467371" lon="8.813532316156117"><ele>8.666666666666666</ele><time>2026-05-01T15:00:16Z</time></trkpt><trkpt lat="44.424857178394" lon="8.813412065690988"><ele>8.333333333333332</ele><time>2026-05-01T15:00:17Z</time></trkpt><trkpt lat="44.42486476482001" lon="8.813287235606108"><ele>8.0</ele><time>2026-05-01T15:00:18Z</time></trkpt><trkpt lat="44.42486622104653" lon="8.813177976611504"><ele>7.999999999999999</ele><time>2026-05-01T15:00:19Z</time></trkpt><trkpt lat="44.42487566637109" lon="8.81307539389681"><ele>8.0</ele><time>2026-05-01T15:00:20Z</time></trkpt><trkpt lat="44.42485625852662" lon="8.812975878837253"><ele>8.0</ele><time>2026-05-01T15:00:21Z</time></trkpt><trkpt lat="44.424833303860986" lon="8.81287149807686"><ele>8.0</ele><time>2026-05-01T15:00:22Z</time></trkpt><trkpt lat="44.424802101059846" lon="8.812779532790774"><ele>7.999999999999999</ele><time>2026-05-01T15:00:23Z</time></trkpt><trkpt lat="44.424747655615874" lon="8.81267125879561"><ele>8.0</ele><time>2026-05-01T15:00:25Z</time></trkpt><trkpt lat="44.42464054922484" lon="8.812838576565849"><ele>5.333333333333333</ele><time>2026-05-01T15:00:30Z</time></trkpt><trkpt lat="44.424634880260726" lon="8.81243327283448"><ele>2.6666666666666665</ele><time>2026-05-01T15:00:50Z</time></trkpt><trkpt lat="44.424619682397044" lon="8.812346992153062"><ele>0.0</ele><time>2026-05-01T15:00:54Z</time></trkpt><trkpt lat="44.42440890864765" lon="8.812377217963885"><ele>0.0</ele><time>2026-05-01T15:03:02Z</time></trkpt><trkpt lat="44.42434622293857" lon="8.812398299947933"><ele>0.0</ele><time>2026-05-01T15:03:08Z</time></trkpt><trkpt lat="44.424273500222846" lon="8.812415631560656"><ele>0.0</ele><time>2026-05-01T15:03:17Z</time></trkpt><trkpt lat="44.42434239460296" lon="8.812373281458727"><ele>0.0</ele><time>2026-05-01T15:11:17Z</time></trkpt><trkpt lat="44.42440289411924" lon="8.812346148581764"><ele>0.0</ele><time>2026-05-01T15:11:22Z</time></trkpt><trkpt lat="44.42446773605621" lon="8.812354404277327"><ele>0.0</ele><time>2026-05-01T15:11:29Z</time></trkpt><trkpt lat="44.42447490475986" lon="8.812466386787301"><ele>0.0</ele><time>2026-05-01T15:12:09Z</time></trkpt><trkpt lat="44.42451991003981" lon="8.8125474944345"><ele>0.0</ele><time>2026-05-01T15:17:28Z</time></trkpt><trkpt lat="44.42454672069536" lon="8.81264977093168"><ele>0.0</ele><time>2026-05-01T15:17:31Z</time></trkpt><trkpt lat="44.42476552113718" lon="8.812730808930617"><ele>0.0</ele><time>2026-05-01T15:17:43.999Z</time></trkpt><trkpt lat="44.424786700803544" lon="8.812816772996333"><ele>0.0</ele><time>2026-05-01T15:17:44.999Z</time></trkpt><trkpt lat="44.424817935428194" lon="8.812901707544661"><ele>0.0</ele><time>2026-05-01T15:17:45.999Z</time></trkpt><trkpt lat="44.42483699744894" lon="8.813000153239551"><ele>1.6</ele><time>2026-05-01T15:17:46.999Z</time></trkpt><trkpt lat="44.424826214155594" lon="8.813184599933914"><ele>3.2</ele><time>2026-05-01T15:17:48.999Z</time></trkpt><trkpt lat="44.424827180358015" lon="8.813287522881822"><ele>4.800000000000001</ele><time>2026-05-01T15:17:49.999Z</time></trkpt><trkpt lat="44.424821388574244" lon="8.813399925299855"><ele>6.4</ele><time>2026-05-01T15:17:50.999Z</time></trkpt><trkpt lat="44.42480865669998" lon="8.813519758641858"><ele>8.0</ele><time>2026-05-01T15:17:51.999Z</time></trkpt><trkpt lat="44.424794479984364" lon="8.81364224815168"><ele>7.999999999999999</ele><time>2026-05-01T15:17:52.999Z</time></trkpt><trkpt lat="44.42478082710044" lon="8.81376021461235"><ele>8.0</ele><time>2026-05-01T15:17:53.999Z</time></trkpt><trkpt lat="44.424765362661766" lon="8.813879831882808"><ele>8.0</ele><time>2026-05-01T15:17:54.999Z</time></trkpt><trkpt lat="44.42475269574512" lon="8.813970170072423"><ele>8.0</ele><time>2026-05-01T15:17:55.999Z</time></trkpt><trkpt lat="44.42472964729422" lon="8.814125926107288"><ele>7.999999999999999</ele><time>2026-05-01T15:17:57.999Z</time></trkpt><trkpt lat="44.42472880912947" lon="8.81421661313203"><ele>8.0</ele><time>2026-05-01T15:17:58.999Z</time></trkpt><trkpt lat="44.42470514297446" lon="8.814367161855607"><ele>8.333333333333332</ele><time>2026-05-01T15:18:00.999Z</time></trkpt><trkpt lat="44.42468570160837" lon="8.814533944558288"><ele>8.666666666666666</ele><time>2026-05-01T15:18:02.999Z</time></trkpt><trkpt lat="44.42465563440984" lon="8.814625558462826"><ele>9.0</ele><time>2026-05-01T15:18:03.999Z</time></trkpt><trkpt lat="44.42464234396146" lon="8.814735690131846"><ele>9.333333333333334</ele><time>2026-05-01T15:18:04.999Z</time></trkpt><trkpt lat="44.424635805954786" lon="8.814839055019359"><ele>9.666666666666668</ele><time>2026-05-01T15:18:05.999Z</time></trkpt><trkpt lat="44.42463728865059" lon="8.814938364752992"><ele>10.0</ele><time>2026-05-01T15:18:06.999Z</time></trkpt><trkpt lat="44.424645101927375" lon="8.815041364263802"><ele>10.0</ele><time>2026-05-01T15:18:07.999Z</time></trkpt><trkpt lat="44.42466116988103" lon="8.81514567545971"><ele>10.0</ele><time>2026-05-01T15:18:08.999Z</time></trkpt><trkpt lat="44.42468628294769" lon="8.815256374772765"><ele>10.0</ele><time>2026-05-01T15:18:09.999Z</time></trkpt><trkpt lat="44.42471336471102" lon="8.815375157452294"><ele>10.0</ele><time>2026-05-01T15:18:10.999Z</time></trkpt><trkpt lat="44.424717812263694" lon="8.815475843723165"><ele>10.0</ele><time>2026-05-01T15:18:11.999Z</time></trkpt><trkpt lat="44.424743259609585" lon="8.815566753113092"><ele>10.0</ele><time>2026-05-01T15:18:12.999Z</time></trkpt><trkpt lat="44.42479654416832" lon="8.815734467149017"><ele>10.142857142857142</ele><time>2026-05-01T15:18:14.999Z</time></trkpt><trkpt lat="44.42481114927362" lon="8.81583309972329"><ele>10.285714285714286</ele><time>2026-05-01T15:18:15.999Z</time></trkpt><trkpt lat="44.42483290955726" lon="8.815928355110405"><ele>10.428571428571429</ele><time>2026-05-01T15:18:16.999Z</time></trkpt><trkpt lat="44.42485083840654" lon="8.816021951165203"><ele>10.571428571428571</ele><time>2026-05-01T15:18:17.999Z</time></trkpt><trkpt lat="44.4248520605687" lon="8.816120588961084"><ele>10.714285714285714</ele><time>2026-05-01T15:18:18.999Z</time></trkpt><trkpt lat="44.42487226206301" lon="8.816208085197957"><ele>10.857142857142858</ele><time>2026-05-01T15:18:19.999Z</time></trkpt><trkpt lat="44.424892118650675" lon="8.816302150668012"><ele>11.0</ele><time>2026-05-01T15:18:20.999Z</time></trkpt><trkpt lat="44.42490953572663" lon="8.81640177121574"><ele>10.5</ele><time>2026-05-01T15:18:21.999Z</time></trkpt><trkpt lat="44.4249322310367" lon="8.81649994194805"><ele>10.0</ele><time>2026-05-01T15:18:22.999Z</time></trkpt><trkpt lat="44.42493281161199" lon="8.81659084272429"><ele>9.5</ele><time>2026-05-01T15:18:23.999Z</time></trkpt><trkpt lat="44.42494518416192" lon="8.816697357095327"><ele>9.0</ele><time>2026-05-01T15:18:24.999Z</time></trkpt><trkpt lat="44.42495447176356" lon="8.816807432613304"><ele>8.5</ele><time>2026-05-01T15:18:25.999Z</time></trkpt><trkpt lat="44.42496052434468" lon="8.816903305034511"><ele>8.0</ele><time>2026-05-01T15:18:26.999Z</time></trkpt><trkpt lat="44.42495651647883" lon="8.81708162396281"><ele>7.857142857142857</ele><time>2026-05-01T15:18:28.999Z</time></trkpt><trkpt lat="44.42495651071402" lon="8.817172234448426"><ele>7.7142857142857135</ele><time>2026-05-01T15:18:29.999Z</time></trkpt><trkpt lat="44.424953099040366" lon="8.817263815577668"><ele>7.571428571428571</ele><time>2026-05-01T15:18:30.999Z</time></trkpt><trkpt lat="44.42492992961277" lon="8.817355130040545"><ele>7.428571428571429</ele><time>2026-05-01T15:18:31.999Z</time></trkpt><trkpt lat="44.42492202051347" lon="8.817456008085742"><ele>7.285714285714286</ele><time>2026-05-01T15:18:32.999Z</time></trkpt><trkpt lat="44.424919020875926" lon="8.8175656838525"><ele>7.142857142857142</ele><time>2026-05-01T15:18:33.999Z</time></trkpt><trkpt lat="44.42489554968986" lon="8.817672167436504"><ele>7.0</ele><time>2026-05-01T15:18:34.999Z</time></trkpt><trkpt lat="44.42488203861022" lon="8.817767451952893"><ele>7.0</ele><time>2026-05-01T15:18:35.999Z</time></trkpt><trkpt lat="44.42485831356698" lon="8.817868345696455"><ele>6.999999999999999</ele><time>2026-05-01T15:18:36.999Z</time></trkpt><trkpt lat="44.424835270923595" lon="8.817963728275375"><ele>6.999999999999999</ele><time>2026-05-01T15:18:37.999Z</time></trkpt><trkpt lat="44.424800411070294" lon="8.818135686933301"><ele>7.0</ele><time>2026-05-01T15:18:39.999Z</time></trkpt><trkpt lat="44.42478472907886" lon="8.81822937494234"><ele>7.0</ele><time>2026-05-01T15:18:40.999Z</time></trkpt><trkpt lat="44.4247379144812" lon="8.818368611004866"><ele>7.000000000000001</ele><time>2026-05-01T15:18:42.999Z</time></trkpt><trkpt lat="44.42470204551991" lon="8.818546812919507"><ele>7.0</ele><time>2026-05-01T15:18:44.999Z</time></trkpt><trkpt lat="44.42469181013682" lon="8.818647231572838"><ele>7.0</ele><time>2026-05-01T15:18:45.999Z</time></trkpt><trkpt lat="44.424695876781136" lon="8.818746563140781"><ele>7.0</ele><time>2026-05-01T15:18:46.999Z</time></trkpt><trkpt lat="44.42470290380003" lon="8.818862520588546"><ele>7.000000000000001</ele><time>2026-05-01T15:18:47.999Z</time></trkpt><trkpt lat="44.42471004714833" lon="8.81897820567243"><ele>7.0</ele><time>2026-05-01T15:18:48.999Z</time></trkpt><trkpt lat="44.42472049432558" lon="8.819092303120083"><ele>7.000000000000001</ele><time>2026-05-01T15:18:49.998Z</time></trkpt><trkpt lat="44.4247277224003" lon="8.819197961720679"><ele>7.0</ele><time>2026-05-01T15:18:50.998Z</time></trkpt><trkpt lat="44.42473763363354" lon="8.819307192047393"><ele>7.0</ele><time>2026-05-01T15:18:51.998Z</time></trkpt><trkpt lat="44.42473552798941" lon="8.81941925644455"><ele>7.0</ele><time>2026-05-01T15:18:52.998Z</time></trkpt><trkpt lat="44.42475099995143" lon="8.819536715726658"><ele>7.000000000000001</ele><time>2026-05-01T15:18:53.998Z</time></trkpt><trkpt lat="44.42475886573986" lon="8.819658272831488"><ele>7.0</ele><time>2026-05-01T15:18:54.998Z</time></trkpt><trkpt lat="44.42475570947429" lon="8.819779945504399"><ele>7.166666666666667</ele><time>2026-05-01T15:18:55.998Z</time></trkpt><trkpt lat="44.42477256300455" lon="8.819895397317254"><ele>7.333333333333334</ele><time>2026-05-01T15:18:56.998Z</time></trkpt><trkpt lat="44.42478704415199" lon="8.820011148642966"><ele>7.5</ele><time>2026-05-01T15:18:57.998Z</time></trkpt><trkpt lat="44.42479744877435" lon="8.820099141879153"><ele>7.666666666666666</ele><time>2026-05-01T15:18:58.998Z</time></trkpt><trkpt lat="44.424790822980874" lon="8.820216945495028"><ele>7.833333333333333</ele><time>2026-05-01T15:19:00.998Z</time></trkpt><trkpt lat="44.424811337817054" lon="8.820300678780795"><ele>8.0</ele><time>2026-05-01T15:19:02.998Z</time></trkpt><trkpt lat="44.42481815042705" lon="8.820509809342672"><ele>8.0</ele><time>2026-05-01T15:19:04.999Z</time></trkpt><trkpt lat="44.42480830959859" lon="8.820707003224982"><ele>8.0</ele><time>2026-05-01T15:19:05.999Z</time></trkpt><trkpt lat="44.424835218101244" lon="8.820916945184514"><ele>8.0</ele><time>2026-05-01T15:19:06.999Z</time></trkpt><trkpt lat="44.42485468476029" lon="8.821097423169283"><ele>8.0</ele><time>2026-05-01T15:19:07.999Z</time></trkpt><trkpt lat="44.424850436052" lon="8.821245524465837"><ele>7.25</ele><time>2026-05-01T15:19:08.999Z</time></trkpt><trkpt lat="44.42486379976412" lon="8.82141873016087"><ele>6.5</ele><time>2026-05-01T15:19:09.999Z</time></trkpt><trkpt lat="44.424877259946584" lon="8.821581372882356"><ele>5.75</ele><time>2026-05-01T15:19:10.999Z</time></trkpt><trkpt lat="44.42488126871808" lon="8.821750412218528"><ele>5.0</ele><time>2026-05-01T15:19:11.999Z</time></trkpt><trkpt lat="44.4248914017591" lon="8.821915264890741"><ele>4.5</ele><time>2026-05-01T15:19:12.999Z</time></trkpt><trkpt lat="44.424898862759306" lon="8.822082998189021"><ele>4.0</ele><time>2026-05-01T15:19:13.999Z</time></trkpt><trkpt lat="44.424904135610184" lon="8.822253782738798"><ele>3.5</ele><time>2026-05-01T15:19:14.999Z</time></trkpt><trkpt lat="44.424917118287475" lon="8.822431222480075"><ele>3.0</ele><time>2026-05-01T15:19:15.999Z</time></trkpt><trkpt lat="44.42493319597929" lon="8.82260274665666"><ele>3.5</ele><time>2026-05-01T15:19:16.999Z</time></trkpt><trkpt lat="44.42494230834459" lon="8.82278088956456"><ele>4.0</ele><time>2026-05-01T15:19:17.999Z</time></trkpt><trkpt lat="44.42495790076106" lon="8.822964194663223"><ele>4.5</ele><time>2026-05-01T15:19:18.999Z</time></trkpt><trkpt lat="44.424974295739965" lon="8.82315605003349"><ele>5.0</ele><time>2026-05-01T15:19:19.999Z</time></trkpt><trkpt lat="44.424990783230264" lon="8.823343910520936"><ele>5.0</ele><time>2026-05-01T15:19:20.999Z</time></trkpt><trkpt lat="44.425010736227556" lon="8.82351685020295"><ele>5.0</ele><time>2026-05-01T15:19:21.999Z</time></trkpt><trkpt lat="44.42503346205254" lon="8.8236944979394"><ele>5.0</ele><time>2026-05-01T15:19:22.999Z</time></trkpt><trkpt lat="44.425056397066434" lon="8.823875010421363"><ele>5.0</ele><time>2026-05-01T15:19:23.999Z</time></trkpt><trkpt lat="44.425077373578546" lon="8.824061197702614"><ele>5.0</ele><time>2026-05-01T15:19:24.999Z</time></trkpt><trkpt lat="44.42509956265039" lon="8.82424000014684"><ele>5.0</ele><time>2026-05-01T15:19:25.999Z</time></trkpt><trkpt lat="44.42512806859542" lon="8.824427090434302"><ele>5.0</ele><time>2026-05-01T15:19:26.999Z</time></trkpt><trkpt lat="44.42516032199722" lon="8.824604878262317"><ele>5.0</ele><time>2026-05-01T15:19:27.999Z</time></trkpt><trkpt lat="44.425194045993734" lon="8.824783054092633"><ele>4.75</ele><time>2026-05-01T15:19:28.999Z</time></trkpt><trkpt lat="44.42522342299632" lon="8.824950186417837"><ele>4.5</ele><time>2026-05-01T15:19:29.999Z</time></trkpt><trkpt lat="44.42525699066551" lon="8.825106729993312"><ele>4.25</ele><time>2026-05-01T15:19:30.999Z</time></trkpt><trkpt lat="44.425289739501224" lon="8.825269353001794"><ele>4.0</ele><time>2026-05-01T15:19:31.999Z</time></trkpt><trkpt lat="44.42532098683499" lon="8.825441310868277"><ele>4.0</ele><time>2026-05-01T15:19:32.999Z</time></trkpt><trkpt lat="44.42534952584856" lon="8.825614706213218"><ele>4.0</ele><time>2026-05-01T15:19:33.999Z</time></trkpt><trkpt lat="44.425381822474584" lon="8.825781796385085"><ele>4.0</ele><time>2026-05-01T15:19:34.999Z</time></trkpt><trkpt lat="44.42540962734568" lon="8.825949132676541"><ele>4.0</ele><time>2026-05-01T15:19:35.999Z</time></trkpt><trkpt lat="44.42542199420064" lon="8.826118070611304"><ele>4.0</ele><time>2026-05-01T15:19:36.999Z</time></trkpt><trkpt lat="44.4254657406838" lon="8.826287203895635"><ele>4.0</ele><time>2026-05-01T15:19:37.999Z</time></trkpt><trkpt lat="44.425491054060615" lon="8.826452156692278"><ele>4.0</ele><time>2026-05-01T15:19:38.999Z</time></trkpt><trkpt lat="44.42551357364422" lon="8.826617078148594"><ele>4.0</ele><time>2026-05-01T15:19:39.999Z</time></trkpt><trkpt lat="44.42554321427786" lon="8.826794881814935"><ele>4.25</ele><time>2026-05-01T15:19:40.999Z</time></trkpt><trkpt lat="44.42556871621083" lon="8.826954925285262"><ele>4.5</ele><time>2026-05-01T15:19:41.999Z</time></trkpt><trkpt lat="44.425600928539666" lon="8.827112234504579"><ele>4.75</ele><time>2026-05-01T15:19:42.999Z</time></trkpt><trkpt lat="44.42563341478486" lon="8.827270375965012"><ele>5.0</ele><time>2026-05-01T15:19:43.999Z</time></trkpt><trkpt lat="44.42566742075322" lon="8.82742048994236"><ele>5.0</ele><time>2026-05-01T15:19:44.999Z</time></trkpt><trkpt lat="44.425705696464526" lon="8.827571209188736"><ele>5.0</ele><time>2026-05-01T15:19:45.999Z</time></trkpt><trkpt lat="44.42574408957303" lon="8.827731493554053"><ele>5.0</ele><time>2026-05-01T15:19:46.999Z</time></trkpt><trkpt lat="44.425791050165266" lon="8.827890605113902"><ele>5.0</ele><time>2026-05-01T15:19:47.999Z</time></trkpt><trkpt lat="44.42584062260819" lon="8.828044350456066"><ele>4.8</ele><time>2026-05-01T15:19:48.999Z</time></trkpt><trkpt lat="44.42588343433677" lon="8.828194709394536"><ele>4.6</ele><time>2026-05-01T15:19:49.999Z</time></trkpt><trkpt lat="44.4259254234274" lon="8.82834168983743"><ele>4.4</ele><time>2026-05-01T15:19:50.999Z</time></trkpt><trkpt lat="44.4259690497129" lon="8.828488568229837"><ele>4.2</ele><time>2026-05-01T15:19:51.999Z</time></trkpt><trkpt lat="44.42602813866978" lon="8.828607135002557"><ele>4.0</ele><time>2026-05-01T15:19:54.999Z</time></trkpt><trkpt lat="44.426081229239756" lon="8.828712961050151"><ele>3.9999999999999996</ele><time>2026-05-01T15:20:50.999Z</time></trkpt><trkpt lat="44.426163175839456" lon="8.82865163182315"><ele>4.0</ele><time>2026-05-01T15:20:52.999Z</time></trkpt><trkpt lat="44.4261709074146" lon="8.82855018807575"><ele>4.0</ele><time>2026-05-01T15:20:53.999Z</time></trkpt><trkpt lat="44.42614660744562" lon="8.828444551770517"><ele>4.0</ele><time>2026-05-01T15:20:54.999Z</time></trkpt><trkpt lat="44.426120181435046" lon="8.828346706075445"><ele>3.9999999999999996</ele><time>2026-05-01T15:20:55.997Z</time></trkpt><trkpt lat="44.426084541781506" lon="8.828225672192962"><ele>4.0</ele><time>2026-05-01T15:20:56.997Z</time></trkpt><trkpt lat="44.42605261016726" lon="8.828085283828845"><ele>4.0</ele><time>2026-05-01T15:20:57.997Z</time></trkpt><trkpt lat="44.42601605931013" lon="8.827947110905637"><ele>4.0</ele><time>2026-05-01T15:20:58.998Z</time></trkpt><trkpt lat="44.42597780743752" lon="8.827796897316714"><ele>4.0</ele><time>2026-05-01T15:20:59.998Z</time></trkpt><trkpt lat="44.42595227070733" lon="8.827635742370893"><ele>4.0</ele><time>2026-05-01T15:21:00.998Z</time></trkpt><trkpt lat="44.42593486989417" lon="8.827475869268383"><ele>4.2</ele><time>2026-05-01T15:21:01.998Z</time></trkpt><trkpt lat="44.42594130025326" lon="8.827321425342301"><ele>4.4</ele><time>2026-05-01T15:21:02.998Z</time></trkpt><trkpt lat="44.42592963887244" lon="8.827164673696414"><ele>4.6</ele><time>2026-05-01T15:21:03.998Z</time></trkpt><trkpt lat="44.425936825764374" lon="8.827009988908872"><ele>4.8</ele><time>2026-05-01T15:21:04.998Z</time></trkpt><trkpt lat="44.42594366713405" lon="8.826871772395096"><ele>5.0</ele><time>2026-05-01T15:21:05.998Z</time></trkpt><trkpt lat="44.42594911038509" lon="8.826762480273445"><ele>5.25</ele><time>2026-05-01T15:21:06.998Z</time></trkpt><trkpt lat="44.42595648295723" lon="8.82661445050741"><ele>5.5</ele><time>2026-05-01T15:21:08.998Z</time></trkpt><trkpt lat="44.42615956403587" lon="8.826620919579703"><ele>5.75</ele><time>2026-05-01T15:21:11.998Z</time></trkpt><trkpt lat="44.426266535312905" lon="8.826628708712576"><ele>6.0</ele><time>2026-05-01T15:21:12.998Z</time></trkpt><trkpt lat="44.4263735448761" lon="8.826637618288807"><ele>6.8</ele><time>2026-05-01T15:21:13.998Z</time></trkpt><trkpt lat="44.4264683722173" lon="8.826656233006052"><ele>7.6</ele><time>2026-05-01T15:21:14.998Z</time></trkpt><trkpt lat="44.42657685618935" lon="8.826655581861733"><ele>8.4</ele><time>2026-05-01T15:21:15.998Z</time></trkpt><trkpt lat="44.426693392831304" lon="8.826667122753708"><ele>9.2</ele><time>2026-05-01T15:21:16.998Z</time></trkpt><trkpt lat="44.42680201466553" lon="8.82666377284862"><ele>10.0</ele><time>2026-05-01T15:21:17.998Z</time></trkpt><trkpt lat="44.426904159119815" lon="8.826658663307825"><ele>10.0</ele><time>2026-05-01T15:21:18.999Z</time></trkpt><trkpt lat="44.42699790573237" lon="8.826691922948019"><ele>10.0</ele><time>2026-05-01T15:21:19.999Z</time></trkpt><trkpt lat="44.427128295657404" lon="8.826701877243595"><ele>10.0</ele><time>2026-05-01T15:21:21.999Z</time></trkpt><trkpt lat="44.42722855160931" lon="8.826689688049216"><ele>10.0</ele><time>2026-05-01T15:21:23.999Z</time></trkpt><trkpt lat="44.42723228491681" lon="8.826439848279875"><ele>10.0</ele><time>2026-05-01T15:21:25.999Z</time></trkpt><trkpt lat="44.42719990714421" lon="8.826297918244757"><ele>10.0</ele><time>2026-05-01T15:21:26.999Z</time></trkpt><trkpt lat="44.42718415437005" lon="8.826146146850487"><ele>10.0</ele><time>2026-05-01T15:21:27.999Z</time></trkpt><trkpt lat="44.427170709296774" lon="8.826002674917113"><ele>10.0</ele><time>2026-05-01T15:21:28.999Z</time></trkpt><trkpt lat="44.42714217995678" lon="8.825851565245713"><ele>10.0</ele><time>2026-05-01T15:21:29.999Z</time></trkpt><trkpt lat="44.427120900160844" lon="8.825700917454814"><ele>10.0</ele><time>2026-05-01T15:21:30.999Z</time></trkpt><trkpt lat="44.42710027054577" lon="8.825560000371254"><ele>10.0</ele><time>2026-05-01T15:21:31.999Z</time></trkpt><trkpt lat="44.42708467973199" lon="8.82544426508392"><ele>10.0</ele><time>2026-05-01T15:21:32.999Z</time></trkpt><trkpt lat="44.427083290298334" lon="8.825325838501074"><ele>10.0</ele><time>2026-05-01T15:21:33.999Z</time></trkpt><trkpt lat="44.427104583222516" lon="8.825217258344187"><ele>10.0</ele><time>2026-05-01T15:21:34.999Z</time></trkpt><trkpt lat="44.427163796313124" lon="8.825103253482858"><ele>11.8</ele><time>2026-05-01T15:21:35.999Z</time></trkpt><trkpt lat="44.42725066494348" lon="8.82503357824823"><ele>13.6</ele><time>2026-05-01T15:21:36.999Z</time></trkpt><trkpt lat="44.42735464734129" lon="8.825001328754615"><ele>15.399999999999999</ele><time>2026-05-01T15:21:37.999Z</time></trkpt><trkpt lat="44.427464070244646" lon="8.825022899847493"><ele>17.2</ele><time>2026-05-01T15:21:38.999Z</time></trkpt><trkpt lat="44.42757821625667" lon="8.825059376600628"><ele>19.0</ele><time>2026-05-01T15:21:39.999Z</time></trkpt><trkpt lat="44.42770773850816" lon="8.82509339536517"><ele>19.0</ele><time>2026-05-01T15:21:40.999Z</time></trkpt><trkpt lat="44.42781981397615" lon="8.825118827096134"><ele>19.0</ele><time>2026-05-01T15:21:41.999Z</time></trkpt><trkpt lat="44.42790769771791" lon="8.82512905984636"><ele>19.0</ele><time>2026-05-01T15:21:42.999Z</time></trkpt><trkpt lat="44.42799201883369" lon="8.825127550628626"><ele>19.0</ele><time>2026-05-01T15:21:43.999Z</time></trkpt><trkpt lat="44.42806722493115" lon="8.825112897247172"><ele>19.0</ele><time>2026-05-01T15:21:44.999Z</time></trkpt><trkpt lat="44.4281290786195" lon="8.825043040389566"><ele>19.0</ele><time>2026-05-01T15:21:45.999Z</time></trkpt><trkpt lat="44.42818601332529" lon="8.824985515622279"><ele>20.333333333333332</ele><time>2026-05-01T15:21:46.999Z</time></trkpt><trkpt lat="44.42824492716119" lon="8.824926358423378"><ele>21.666666666666664</ele><time>2026-05-01T15:21:47.999Z</time></trkpt><trkpt lat="44.42829881321313" lon="8.824874173275003"><ele>23.0</ele><time>2026-05-01T15:21:48.999Z</time></trkpt><trkpt lat="44.42839554281993" lon="8.82479740809488"><ele>24.333333333333332</ele><time>2026-05-01T15:21:50.999Z</time></trkpt><trkpt lat="44.42847205639437" lon="8.824750210107949"><ele>25.666666666666668</ele><time>2026-05-01T15:21:52.999Z</time></trkpt><trkpt lat="44.428542947099274" lon="8.82470907061277"><ele>27.0</ele><time>2026-05-01T15:21:53.999Z</time></trkpt><trkpt lat="44.428627190814595" lon="8.824661646621626"><ele>27.0</ele><time>2026-05-01T15:21:54.999Z</time></trkpt><trkpt lat="44.42876171174703" lon="8.824609766764095"><ele>27.0</ele><time>2026-05-01T15:21:55.999Z</time></trkpt><trkpt lat="44.4288782575638" lon="8.824554987926776"><ele>27.0</ele><time>2026-05-01T15:21:56.999Z</time></trkpt><trkpt lat="44.4289934084454" lon="8.824468230461433"><ele>27.0</ele><time>2026-05-01T15:21:57.999Z</time></trkpt><trkpt lat="44.429118682791135" lon="8.824363187885682"><ele>29.666666666666664</ele><time>2026-05-01T15:21:58.999Z</time></trkpt><trkpt lat="44.42924290878722" lon="8.824232259615963"><ele>32.33333333333333</ele><time>2026-05-01T15:21:59.999Z</time></trkpt><trkpt lat="44.429368378083325" lon="8.824104861777162"><ele>35.0</ele><time>2026-05-01T15:22:00.999Z</time></trkpt><trkpt lat="44.42949397675409" lon="8.823979457166946"><ele>37.666666666666664</ele><time>2026-05-01T15:22:01.999Z</time></trkpt><trkpt lat="44.429679518911044" lon="8.823808431558321"><ele>40.333333333333336</ele><time>2026-05-01T15:22:02.999Z</time></trkpt><trkpt lat="44.42980281899117" lon="8.823687250375695"><ele>43.0</ele><time>2026-05-01T15:22:03.999Z</time></trkpt><trkpt lat="44.429903079682454" lon="8.823578115163874"><ele>41.75</ele><time>2026-05-01T15:22:04.999Z</time></trkpt><trkpt lat="44.42997815960198" lon="8.823451434656528"><ele>40.5</ele><time>2026-05-01T15:22:05.999Z</time></trkpt><trkpt lat="44.43003594394223" lon="8.823307627193264"><ele>39.25</ele><time>2026-05-01T15:22:06.999Z</time></trkpt><trkpt lat="44.43003722890894" lon="8.823133747810136"><ele>38.0</ele><time>2026-05-01T15:22:07.999Z</time></trkpt><trkpt lat="44.429987448629404" lon="8.82297614783415"><ele>38.0</ele><time>2026-05-01T15:22:08.999Z</time></trkpt><trkpt lat="44.42995622270597" lon="8.822802311745088"><ele>38.0</ele><time>2026-05-01T15:22:09.999Z</time></trkpt><trkpt lat="44.42988595849971" lon="8.822606441055447"><ele>38.0</ele><time>2026-05-01T15:22:10.999Z</time></trkpt><trkpt lat="44.429833705267725" lon="8.822434213897136"><ele>38.0</ele><time>2026-05-01T15:22:11.999Z</time></trkpt><trkpt lat="44.429794874386666" lon="8.822292720165153"><ele>35.25</ele><time>2026-05-01T15:22:12.999Z</time></trkpt><trkpt lat="44.42978135050374" lon="8.822155267129647"><ele>32.5</ele><time>2026-05-01T15:22:13.999Z</time></trkpt><trkpt lat="44.42977667706613" lon="8.822004808390187"><ele>29.75</ele><time>2026-05-01T15:22:14.999Z</time></trkpt><trkpt lat="44.429816551675586" lon="8.821839498019079"><ele>27.0</ele><time>2026-05-01T15:22:15.999Z</time></trkpt><trkpt lat="44.42982952536296" lon="8.821638398300932"><ele>24.666666666666668</ele><time>2026-05-01T15:22:16.999Z</time></trkpt><trkpt lat="44.42994845481246" lon="8.821397648158534"><ele>22.333333333333336</ele><time>2026-05-01T15:22:17.999Z</time></trkpt><trkpt lat="44.43002361817178" lon="8.821140316556574"><ele>20.0</ele><time>2026-05-01T15:22:18.999Z</time></trkpt><trkpt lat="44.430120849146846" lon="8.820825467866673"><ele>18.0</ele><time>2026-05-01T15:22:19.999Z</time></trkpt><trkpt lat="44.43019760290641" lon="8.82049893769453"><ele>16.0</ele><time>2026-05-01T15:22:20.999Z</time></trkpt><trkpt lat="44.43028093679547" lon="8.820166988226003"><ele>17.0</ele><time>2026-05-01T15:22:21.999Z</time></trkpt><trkpt lat="44.430369436966906" lon="8.819819653716154"><ele>18.0</ele><time>2026-05-01T15:22:22.999Z</time></trkpt><trkpt lat="44.430450189106004" lon="8.819499197665655"><ele>24.5</ele><time>2026-05-01T15:22:23.999Z</time></trkpt><trkpt lat="44.43053319207075" lon="8.819188600172861"><ele>31.0</ele><time>2026-05-01T15:22:24.999Z</time></trkpt><trkpt lat="44.430618259905515" lon="8.818888766627383"><ele>31.0</ele><time>2026-05-01T15:22:25.999Z</time></trkpt><trkpt lat="44.430694725616725" lon="8.818590847474931"><ele>31.0</ele><time>2026-05-01T15:22:26.999Z</time></trkpt><trkpt lat="44.43077127439737" lon="8.818288381205253"><ele>34.333333333333336</ele><time>2026-05-01T15:22:27.999Z</time></trkpt><trkpt lat="44.43084852878073" lon="8.817997592068764"><ele>37.666666666666664</ele><time>2026-05-01T15:22:28.999Z</time></trkpt><trkpt lat="44.43093769255935" lon="8.817719798223653"><ele>41.0</ele><time>2026-05-01T15:22:29.999Z</time></trkpt><trkpt lat="44.43103199352439" lon="8.817446583100708"><ele>44.33333333333333</ele><time>2026-05-01T15:22:30.999Z</time></trkpt><trkpt lat="44.43113071176437" lon="8.817165088314562"><ele>47.666666666666664</ele><time>2026-05-01T15:22:31.999Z</time></trkpt><trkpt lat="44.43122524019661" lon="8.816885337026097"><ele>51.0</ele><time>2026-05-01T15:22:32.999Z</time></trkpt><trkpt lat="44.431326995292025" lon="8.81660455951928"><ele>63.0</ele><time>2026-05-01T15:22:34.018Z</time></trkpt><trkpt lat="44.43147304359911" lon="8.816373660749708"><ele>75.0</ele><time>2026-05-01T15:22:35.017Z</time></trkpt><trkpt lat="44.431610555799026" lon="8.816126460516402"><ele>87.0</ele><time>2026-05-01T15:22:36.016Z</time></trkpt><trkpt lat="44.431751414371355" lon="8.815870390299217"><ele>98.0</ele><time>2026-05-01T15:22:37.014Z</time></trkpt><trkpt lat="44.43248960084806" lon="8.813302265752585"><ele>70.0</ele><time>2026-05-01T15:22:40.813Z</time></trkpt><trkpt lat="44.43218075208779" lon="8.808424193420269"><ele>70.0</ele><time>2026-05-01T15:22:59.999Z</time></trkpt><trkpt lat="44.432172961129936" lon="8.808129000729954"><ele>70.0</ele><time>2026-05-01T15:23:00.999Z</time></trkpt><trkpt lat="44.43208444999217" lon="8.807761666524133"><ele>70.5</ele><time>2026-05-01T15:23:01.999Z</time></trkpt><trkpt lat="44.43204313681646" lon="8.807433763163338"><ele>71.0</ele><time>2026-05-01T15:23:02.999Z</time></trkpt><trkpt lat="44.432015520259746" lon="8.80710631108275"><ele>81.5</ele><time>2026-05-01T15:23:03.999Z</time></trkpt><trkpt lat="44.43197744546839" lon="8.806770931905298"><ele>92.0</ele><time>2026-05-01T15:23:04.999Z</time></trkpt><trkpt lat="44.43194073261184" lon="8.806429420962873"><ele>92.0</ele><time>2026-05-01T15:23:05.998Z</time></trkpt><trkpt lat="44.431915104711585" lon="8.806095354988235"><ele>92.0</ele><time>2026-05-01T15:23:07.013Z</time></trkpt><trkpt lat="44.43188327701092" lon="8.805754964448724"><ele>95.0</ele><time>2026-05-01T15:23:08.016Z</time></trkpt><trkpt lat="44.43185114488135" lon="8.80541261643339"><ele>98.0</ele><time>2026-05-01T15:23:09.015Z</time></trkpt><trkpt lat="44.43181970803935" lon="8.80507089583034"><ele>101.5</ele><time>2026-05-01T15:23:10.014Z</time></trkpt><trkpt lat="44.43178439071856" lon="8.804724242077675"><ele>105.0</ele><time>2026-05-01T15:23:11.017Z</time></trkpt><trkpt lat="44.43175501069077" lon="8.804381323041337"><ele>112.0</ele><time>2026-05-01T15:23:12.011Z</time></trkpt><trkpt lat="44.43154581383135" lon="8.801576656249273"><ele>96.0</ele><time>2026-05-01T15:23:15.817Z</time></trkpt><trkpt lat="44.431563768899224" lon="8.800195701129088"><ele>108.0</ele><time>2026-05-01T15:23:16.818Z</time></trkpt><trkpt lat="44.43168768706127" lon="8.79882861701946"><ele>102.0</ele><time>2026-05-01T15:23:17.816Z</time></trkpt><trkpt lat="44.431920898326375" lon="8.797483638193881"><ele>113.0</ele><time>2026-05-01T15:23:18.818Z</time></trkpt><trkpt lat="44.43221188459931" lon="8.796162553712222"><ele>75.0</ele><time>2026-05-01T15:23:19.818Z</time></trkpt><trkpt lat="44.43251046724894" lon="8.794845845109165"><ele>93.0</ele><time>2026-05-01T15:23:20.818Z</time></trkpt><trkpt lat="44.432798844567536" lon="8.793524196352706"><ele>71.0</ele><time>2026-05-01T15:23:21.818Z</time></trkpt><trkpt lat="44.43299321937892" lon="8.792177356987139"><ele>48.0</ele><time>2026-05-01T15:23:22.814Z</time></trkpt><trkpt lat="44.43301714029576" lon="8.791079353549323"><ele>42.0</ele><time>2026-05-01T15:23:46.999Z</time></trkpt><trkpt lat="44.433005562980775" lon="8.790703421648944"><ele>36.0</ele><time>2026-05-01T15:23:47.999Z</time></trkpt><trkpt lat="44.432945942256644" lon="8.79029074781838"><ele>39.5</ele><time>2026-05-01T15:23:48.999Z</time></trkpt><trkpt lat="44.43288852798026" lon="8.789961084378211"><ele>43.0</ele><time>2026-05-01T15:23:49.999Z</time></trkpt><trkpt lat="44.43282448199668" lon="8.78961010381853"><ele>53.0</ele><time>2026-05-01T15:23:50.999Z</time></trkpt><trkpt lat="44.43274868518734" lon="8.789255683113426"><ele>63.0</ele><time>2026-05-01T15:23:51.999Z</time></trkpt><trkpt lat="44.432651329312364" lon="8.788915074653984"><ele>63.0</ele><time>2026-05-01T15:23:53.018Z</time></trkpt><trkpt lat="44.43254444309911" lon="8.788589816541815"><ele>63.0</ele><time>2026-05-01T15:23:54.015Z</time></trkpt><trkpt lat="44.432439169692415" lon="8.78827103280198"><ele>58.5</ele><time>2026-05-01T15:23:55.018Z</time></trkpt><trkpt lat="44.432329506465074" lon="8.787941164311333"><ele>54.0</ele><time>2026-05-01T15:23:56.017Z</time></trkpt><trkpt lat="44.432230740060994" lon="8.787632219559086"><ele>40.0</ele><time>2026-05-01T15:23:57.019Z</time></trkpt><trkpt lat="44.43213259805407" lon="8.787306072198588"><ele>26.0</ele><time>2026-05-01T15:23:57.999Z</time></trkpt><trkpt lat="44.432022656310366" lon="8.786976444286505"><ele>25.5</ele><time>2026-05-01T15:23:58.999Z</time></trkpt><trkpt lat="44.431882227353846" lon="8.7866876360599"><ele>25.0</ele><time>2026-05-01T15:23:59.999Z</time></trkpt><trkpt lat="44.431762144721006" lon="8.786326855062924"><ele>29.0</ele><time>2026-05-01T15:24:01Z</time></trkpt><trkpt lat="44.43163945057246" lon="8.785966266329458"><ele>33.0</ele><time>2026-05-01T15:24:02Z</time></trkpt><trkpt lat="44.43151738036853" lon="8.785633008987963"><ele>33.0</ele><time>2026-05-01T15:24:03Z</time></trkpt><trkpt lat="44.43143763097502" lon="8.785315585553425"><ele>33.0</ele><time>2026-05-01T15:24:04Z</time></trkpt><trkpt lat="44.43132764013503" lon="8.784984204166419"><ele>50.5</ele><time>2026-05-01T15:24:05Z</time></trkpt><trkpt lat="44.431227060653406" lon="8.784657506611778"><ele>68.0</ele><time>2026-05-01T15:24:06Z</time></trkpt><trkpt lat="44.43112781841163" lon="8.78432717130923"><ele>77.0</ele><time>2026-05-01T15:24:07.017Z</time></trkpt><trkpt lat="44.431024932800014" lon="8.78400124408631"><ele>86.0</ele><time>2026-05-01T15:24:08.014Z</time></trkpt><trkpt lat="44.43091924063993" lon="8.78367331382488"><ele>91.0</ele><time>2026-05-01T15:24:09.015Z</time></trkpt><trkpt lat="44.430809320248784" lon="8.783350328742086"><ele>96.0</ele><time>2026-05-01T15:24:10.013Z</time></trkpt><trkpt lat="44.4307011536466" lon="8.783023164829784"><ele>67.0</ele><time>2026-05-01T15:24:11.021Z</time></trkpt><trkpt lat="44.430358408348226" lon="8.780247085920445"><ele>47.0</ele><time>2026-05-01T15:24:14.814Z</time></trkpt><trkpt lat="44.43030521891385" lon="8.778866907494228"><ele>17.0</ele><time>2026-05-01T15:24:15.815Z</time></trkpt><trkpt lat="44.430199018720934" lon="8.777197245516607"><ele>13.5</ele><time>2026-05-01T15:24:25Z</time></trkpt><trkpt lat="44.43018276568438" lon="8.77678694774938"><ele>10.0</ele><time>2026-05-01T15:24:26Z</time></trkpt><trkpt lat="44.430171710683716" lon="8.776367895054669"><ele>12.0</ele><time>2026-05-01T15:24:27Z</time></trkpt><trkpt lat="44.43017193465719" lon="8.77594328902813"><ele>14.0</ele><time>2026-05-01T15:24:28Z</time></trkpt><trkpt lat="44.430161337177225" lon="8.775547397272874"><ele>18.5</ele><time>2026-05-01T15:24:29Z</time></trkpt><trkpt lat="44.430153258495125" lon="8.775154472992375"><ele>23.0</ele><time>2026-05-01T15:24:30Z</time></trkpt><trkpt lat="44.430155463293914" lon="8.774771805350285"><ele>23.0</ele><time>2026-05-01T15:24:31Z</time></trkpt><trkpt lat="44.43016146957358" lon="8.774388802056949"><ele>23.0</ele><time>2026-05-01T15:24:32Z</time></trkpt><trkpt lat="44.43019492276534" lon="8.773997407488547"><ele>25.0</ele><time>2026-05-01T15:24:33Z</time></trkpt><trkpt lat="44.43023545559842" lon="8.773627773349334"><ele>27.0</ele><time>2026-05-01T15:24:34Z</time></trkpt><trkpt lat="44.43025690746127" lon="8.77323556019549"><ele>28.0</ele><time>2026-05-01T15:24:35Z</time></trkpt><trkpt lat="44.43028064399111" lon="8.772847879350666"><ele>29.0</ele><time>2026-05-01T15:24:36Z</time></trkpt><trkpt lat="44.43029207428708" lon="8.772467637539132"><ele>30.0</ele><time>2026-05-01T15:24:37Z</time></trkpt><trkpt lat="44.43028655121101" lon="8.772084229265428"><ele>31.0</ele><time>2026-05-01T15:24:38Z</time></trkpt><trkpt lat="44.43027261481692" lon="8.771694244394666"><ele>31.5</ele><time>2026-05-01T15:24:39Z</time></trkpt><trkpt lat="44.43028288619829" lon="8.771314713557326"><ele>32.0</ele><time>2026-05-01T15:24:40Z</time></trkpt><trkpt lat="44.43029001005175" lon="8.770938535811133"><ele>30.0</ele><time>2026-05-01T15:24:41Z</time></trkpt><trkpt lat="44.43030245408314" lon="8.77058972619557"><ele>28.0</ele><time>2026-05-01T15:24:42Z</time></trkpt><trkpt lat="44.430302533497844" lon="8.770255368705078"><ele>28.0</ele><time>2026-05-01T15:24:43Z</time></trkpt><trkpt lat="44.43029902284475" lon="8.769939564177086"><ele>28.0</ele><time>2026-05-01T15:24:44Z</time></trkpt><trkpt lat="44.43027211047329" lon="8.769597726606216"><ele>23.0</ele><time>2026-05-01T15:24:45Z</time></trkpt><trkpt lat="44.43017839207532" lon="8.769265287163282"><ele>18.0</ele><time>2026-05-01T15:24:46Z</time></trkpt><trkpt lat="44.430098411727094" lon="8.768929341918062"><ele>18.0</ele><time>2026-05-01T15:24:47Z</time></trkpt><trkpt lat="44.43001443896132" lon="8.76860189031191"><ele>18.0</ele><time>2026-05-01T15:24:48Z</time></trkpt><trkpt lat="44.42993972858086" lon="8.768261254057096"><ele>17.5</ele><time>2026-05-01T15:24:49Z</time></trkpt><trkpt lat="44.42988711429922" lon="8.767923452153127"><ele>17.0</ele><time>2026-05-01T15:24:50Z</time></trkpt><trkpt lat="44.42985128832375" lon="8.7675626296606"><ele>16.5</ele><time>2026-05-01T15:24:51Z</time></trkpt><trkpt lat="44.4298390530445" lon="8.767195152296306"><ele>16.0</ele><time>2026-05-01T15:24:52Z</time></trkpt><trkpt lat="44.429851077446486" lon="8.766828914887897"><ele>17.0</ele><time>2026-05-01T15:24:53Z</time></trkpt><trkpt lat="44.4298889051316" lon="8.76645197892632"><ele>18.0</ele><time>2026-05-01T15:24:54Z</time></trkpt><trkpt lat="44.42993570803177" lon="8.766083771806594"><ele>19.5</ele><time>2026-05-01T15:24:55Z</time></trkpt><trkpt lat="44.42997860942665" lon="8.765716724419997"><ele>21.0</ele><time>2026-05-01T15:24:56Z</time></trkpt><trkpt lat="44.43001943615827" lon="8.765352804957736"><ele>21.0</ele><time>2026-05-01T15:24:57Z</time></trkpt><trkpt lat="44.430076197493655" lon="8.764996807869604"><ele>21.0</ele><time>2026-05-01T15:24:58Z</time></trkpt><trkpt lat="44.43013649999541" lon="8.764641783703052"><ele>22.0</ele><time>2026-05-01T15:24:59Z</time></trkpt><trkpt lat="44.43020347886658" lon="8.76429324785123"><ele>23.0</ele><time>2026-05-01T15:25:00Z</time></trkpt><trkpt lat="44.430267213521745" lon="8.76395841758606"><ele>23.0</ele><time>2026-05-01T15:25:01Z</time></trkpt><trkpt lat="44.43032922665494" lon="8.763629444668563"><ele>23.0</ele><time>2026-05-01T15:25:02Z</time></trkpt><trkpt lat="44.43038350854703" lon="8.763327739272398"><ele>21.333333333333336</ele><time>2026-05-01T15:25:03Z</time></trkpt><trkpt lat="44.430430884050416" lon="8.763035929318606"><ele>19.666666666666668</ele><time>2026-05-01T15:25:04Z</time></trkpt><trkpt lat="44.43048002338764" lon="8.762755631077681"><ele>18.0</ele><time>2026-05-01T15:25:05Z</time></trkpt><trkpt lat="44.430493039020625" lon="8.76247630079241"><ele>22.333333333333336</ele><time>2026-05-01T15:25:06Z</time></trkpt><trkpt lat="44.43050272715535" lon="8.762182347360348"><ele>26.666666666666668</ele><time>2026-05-01T15:25:07Z</time></trkpt><trkpt lat="44.43049135500762" lon="8.761879096381087"><ele>31.0</ele><time>2026-05-01T15:25:08Z</time></trkpt><trkpt lat="44.4304779912325" lon="8.76157934248192"><ele>30.333333333333336</ele><time>2026-05-01T15:25:09Z</time></trkpt><trkpt lat="44.430460413358084" lon="8.761273397612442"><ele>29.666666666666664</ele><time>2026-05-01T15:25:10.021Z</time></trkpt><trkpt lat="44.430444409619874" lon="8.760971384669125"><ele>29.0</ele><time>2026-05-01T15:25:11.02Z</time></trkpt><trkpt lat="44.43039149817254" lon="8.760664594240126"><ele>29.0</ele><time>2026-05-01T15:25:12Z</time></trkpt><trkpt lat="44.43036266133035" lon="8.760384539907225"><ele>29.0</ele><time>2026-05-01T15:25:13Z</time></trkpt><trkpt lat="44.43026974685683" lon="8.759999849645459"><ele>29.0</ele><time>2026-05-01T15:25:14Z</time></trkpt><trkpt lat="44.43024795662055" lon="8.75966729659637"><ele>29.0</ele><time>2026-05-01T15:25:15Z</time></trkpt><trkpt lat="44.430211748057566" lon="8.759370219771867"><ele>29.333333333333332</ele><time>2026-05-01T15:25:16Z</time></trkpt><trkpt lat="44.430187650054435" lon="8.759067320697552"><ele>29.666666666666664</ele><time>2026-05-01T15:25:17Z</time></trkpt><trkpt lat="44.43016457107562" lon="8.75875997579253"><ele>30.0</ele><time>2026-05-01T15:25:18Z</time></trkpt><trkpt lat="44.43014126151073" lon="8.758435357627759"><ele>31.0</ele><time>2026-05-01T15:25:19Z</time></trkpt><trkpt lat="44.43012383442532" lon="8.75810898510251"><ele>32.0</ele><time>2026-05-01T15:25:20Z</time></trkpt><trkpt lat="44.43016305387699" lon="8.757712863499409"><ele>31.0</ele><time>2026-05-01T15:25:21Z</time></trkpt><trkpt lat="44.430185646250294" lon="8.757353685830392"><ele>30.0</ele><time>2026-05-01T15:25:22Z</time></trkpt><trkpt lat="44.43021308398288" lon="8.75699967958562"><ele>30.5</ele><time>2026-05-01T15:25:23Z</time></trkpt><trkpt lat="44.43025581913992" lon="8.756689729088208"><ele>31.0</ele><time>2026-05-01T15:25:24Z</time></trkpt><trkpt lat="44.43031429367521" lon="8.756383021579314"><ele>31.0</ele><time>2026-05-01T15:25:25Z</time></trkpt><trkpt lat="44.43039733555319" lon="8.756037973331026"><ele>31.0</ele><time>2026-05-01T15:25:26Z</time></trkpt><trkpt lat="44.4304605406796" lon="8.755710777088433"><ele>36.0</ele><time>2026-05-01T15:25:27Z</time></trkpt><trkpt lat="44.430525639555746" lon="8.755378601222613"><ele>41.0</ele><time>2026-05-01T15:25:28Z</time></trkpt><trkpt lat="44.430662111411664" lon="8.755002643622005"><ele>41.0</ele><time>2026-05-01T15:25:29Z</time></trkpt><trkpt lat="44.4308379491934" lon="8.754651509733044"><ele>41.0</ele><time>2026-05-01T15:25:30Z</time></trkpt><trkpt lat="44.43104617928717" lon="8.754330402336276"><ele>41.0</ele><time>2026-05-01T15:25:31Z</time></trkpt><trkpt lat="44.43122142385328" lon="8.754066740554634"><ele>41.0</ele><time>2026-05-01T15:25:32Z</time></trkpt><trkpt lat="44.43133344345919" lon="8.753764897559495"><ele>46.5</ele><time>2026-05-01T15:25:33Z</time></trkpt><trkpt lat="44.4314518957335" lon="8.753450661578109"><ele>52.0</ele><time>2026-05-01T15:25:34Z</time></trkpt><trkpt lat="44.431564597653114" lon="8.753150048655732"><ele>52.0</ele><time>2026-05-01T15:25:35Z</time></trkpt><trkpt lat="44.431696958153346" lon="8.752872684943858"><ele>52.0</ele><time>2026-05-01T15:25:36Z</time></trkpt><trkpt lat="44.43183059995193" lon="8.75259635572906"><ele>45.5</ele><time>2026-05-01T15:25:37Z</time></trkpt><trkpt lat="44.431982113198885" lon="8.752319482015414"><ele>39.0</ele><time>2026-05-01T15:25:38Z</time></trkpt><trkpt lat="44.432136752351475" lon="8.752063187046513"><ele>45.5</ele><time>2026-05-01T15:25:39Z</time></trkpt><trkpt lat="44.432306346405575" lon="8.75182106562279"><ele>52.0</ele><time>2026-05-01T15:25:40Z</time></trkpt><trkpt lat="44.43247957845913" lon="8.751568115166656"><ele>52.0</ele><time>2026-05-01T15:25:41Z</time></trkpt><trkpt lat="44.43262996291646" lon="8.751328511680757"><ele>52.0</ele><time>2026-05-01T15:25:42Z</time></trkpt><trkpt lat="44.43279030862077" lon="8.751077096170475"><ele>54.5</ele><time>2026-05-01T15:25:43Z</time></trkpt><trkpt lat="44.43295200986251" lon="8.750822101505715"><ele>57.0</ele><time>2026-05-01T15:25:44Z</time></trkpt><trkpt lat="44.4331433841267" lon="8.750548116431968"><ele>57.0</ele><time>2026-05-01T15:25:45Z</time></trkpt><trkpt lat="44.43330579614249" lon="8.750272007235091"><ele>57.0</ele><time>2026-05-01T15:25:46Z</time></trkpt><trkpt lat="44.43343695239429" lon="8.74998166433759"><ele>51.0</ele><time>2026-05-01T15:25:47Z</time></trkpt><trkpt lat="44.43358316001865" lon="8.749657038309127"><ele>45.0</ele><time>2026-05-01T15:25:48Z</time></trkpt><trkpt lat="44.43370725302887" lon="8.749338154547221"><ele>60.5</ele><time>2026-05-01T15:25:49Z</time></trkpt><trkpt lat="44.4338234447392" lon="8.749013797787816"><ele>76.0</ele><time>2026-05-01T15:25:50Z</time></trkpt><trkpt lat="44.43391489413184" lon="8.748678110014016"><ele>60.5</ele><time>2026-05-01T15:25:51Z</time></trkpt><trkpt lat="44.43398812694585" lon="8.748338099580238"><ele>45.0</ele><time>2026-05-01T15:25:52Z</time></trkpt><trkpt lat="44.43406588766704" lon="8.748001313683503"><ele>32.0</ele><time>2026-05-01T15:25:53Z</time></trkpt><trkpt lat="44.43412664215732" lon="8.747667880843068"><ele>19.0</ele><time>2026-05-01T15:25:54Z</time></trkpt><trkpt lat="44.434174184346524" lon="8.747329678408304"><ele>19.0</ele><time>2026-05-01T15:25:55Z</time></trkpt><trkpt lat="44.434207007493264" lon="8.746997142412814"><ele>19.0</ele><time>2026-05-01T15:25:56Z</time></trkpt><trkpt lat="44.4342167064052" lon="8.74669273629411"><ele>19.0</ele><time>2026-05-01T15:25:57Z</time></trkpt><trkpt lat="44.43422751392992" lon="8.74640454024376"><ele>19.0</ele><time>2026-05-01T15:25:58Z</time></trkpt><trkpt lat="44.43423020681786" lon="8.746128817348184"><ele>19.0</ele><time>2026-05-01T15:25:59Z</time></trkpt><trkpt lat="44.434226168318816" lon="8.745846974552165"><ele>27.666666666666664</ele><time>2026-05-01T15:26:00Z</time></trkpt><trkpt lat="44.43419160228462" lon="8.74556842139656"><ele>36.333333333333336</ele><time>2026-05-01T15:26:01Z</time></trkpt><trkpt lat="44.43416379096181" lon="8.745300691369911"><ele>45.0</ele><time>2026-05-01T15:26:02Z</time></trkpt><trkpt lat="44.4341251031506" lon="8.745028143053801"><ele>53.33333333333333</ele><time>2026-05-01T15:26:03Z</time></trkpt><trkpt lat="44.43409150346371" lon="8.744757108702164"><ele>61.666666666666664</ele><time>2026-05-01T15:26:04Z</time></trkpt><trkpt lat="44.43404599315466" lon="8.744490324169947"><ele>70.0</ele><time>2026-05-01T15:26:05Z</time></trkpt><trkpt lat="44.433998568656605" lon="8.744222889363918"><ele>79.66666666666666</ele><time>2026-05-01T15:26:06Z</time></trkpt><trkpt lat="44.43395319010832" lon="8.743952197976629"><ele>89.33333333333333</ele><time>2026-05-01T15:26:07Z</time></trkpt><trkpt lat="44.433907300284766" lon="8.743676551914943"><ele>99.0</ele><time>2026-05-01T15:26:08.02Z</time></trkpt><trkpt lat="44.43385974488799" lon="8.743406689047202"><ele>99.0</ele><time>2026-05-01T15:26:09.021Z</time></trkpt><trkpt lat="44.43380510500264" lon="8.743140066550339"><ele>99.0</ele><time>2026-05-01T15:26:10.017Z</time></trkpt><trkpt lat="44.433751223902696" lon="8.7428636067333"><ele>99.0</ele><time>2026-05-01T15:26:11.021Z</time></trkpt><trkpt lat="44.433692288378126" lon="8.742589802235013"><ele>67.0</ele><time>2026-05-01T15:26:12.022Z</time></trkpt><trkpt lat="44.43451347764994" lon="8.739790404223594"><ele>64.0</ele><time>2026-05-01T15:26:23Z</time></trkpt><trkpt lat="44.434638275059996" lon="8.739578170240806"><ele>61.0</ele><time>2026-05-01T15:26:24Z</time></trkpt><trkpt lat="44.43474134384445" lon="8.73927560875532"><ele>58.0</ele><time>2026-05-01T15:26:25Z</time></trkpt><trkpt lat="44.43487839130543" lon="8.739086322862354"><ele>58.0</ele><time>2026-05-01T15:26:26Z</time></trkpt><trkpt lat="44.435015258724995" lon="8.73886969899786"><ele>58.0</ele><time>2026-05-01T15:26:27Z</time></trkpt><trkpt lat="44.435169843874526" lon="8.738700768018623"><ele>58.0</ele><time>2026-05-01T15:26:28Z</time></trkpt><trkpt lat="44.435329574797294" lon="8.738555530182305"><ele>63.33333333333333</ele><time>2026-05-01T15:26:29Z</time></trkpt><trkpt lat="44.4354979338913" lon="8.738416665357848"><ele>68.66666666666667</ele><time>2026-05-01T15:26:30Z</time></trkpt><trkpt lat="44.43566509306032" lon="8.738302720162235"><ele>74.0</ele><time>2026-05-01T15:26:31Z</time></trkpt><trkpt lat="44.43581586460602" lon="8.738213947061588"><ele>74.0</ele><time>2026-05-01T15:26:32Z</time></trkpt><trkpt lat="44.43597898696994" lon="8.738145402068815"><ele>74.0</ele><time>2026-05-01T15:26:33Z</time></trkpt><trkpt lat="44.43613831447131" lon="8.738076014474304"><ele>74.0</ele><time>2026-05-01T15:26:34Z</time></trkpt><trkpt lat="44.43630613065513" lon="8.738020504938174"><ele>84.33333333333334</ele><time>2026-05-01T15:26:35.001Z</time></trkpt><trkpt lat="44.43648970511415" lon="8.737974423283491"><ele>94.66666666666667</ele><time>2026-05-01T15:26:36.001Z</time></trkpt><trkpt lat="44.43665623785457" lon="8.737925647554167"><ele>105.0</ele><time>2026-05-01T15:26:37.001Z</time></trkpt><trkpt lat="44.43684003710424" lon="8.737869090793124"><ele>105.0</ele><time>2026-05-01T15:26:38.001Z</time></trkpt><trkpt lat="44.43702671806013" lon="8.737823651261436"><ele>105.0</ele><time>2026-05-01T15:26:39.001Z</time></trkpt><trkpt lat="44.43722115597063" lon="8.737761171836217"><ele>105.0</ele><time>2026-05-01T15:26:40.001Z</time></trkpt><trkpt lat="44.43742601164118" lon="8.737706619447907"><ele>107.0</ele><time>2026-05-01T15:26:41.001Z</time></trkpt><trkpt lat="44.43761548602283" lon="8.737605718548272"><ele>109.0</ele><time>2026-05-01T15:26:42.001Z</time></trkpt><trkpt lat="44.43782935473872" lon="8.737498334696387"><ele>111.0</ele><time>2026-05-01T15:26:43.001Z</time></trkpt><trkpt lat="44.43802886638198" lon="8.737357283479499"><ele>111.0</ele><time>2026-05-01T15:26:44.001Z</time></trkpt><trkpt lat="44.43823194630247" lon="8.737199552605402"><ele>111.0</ele><time>2026-05-01T15:26:45.001Z</time></trkpt><trkpt lat="44.43843449035602" lon="8.737021972475931"><ele>110.0</ele><time>2026-05-01T15:26:46.001Z</time></trkpt><trkpt lat="44.4386444367151" lon="8.736848314984243"><ele>109.0</ele><time>2026-05-01T15:26:47.001Z</time></trkpt><trkpt lat="44.43885382402529" lon="8.736656448756019"><ele>109.0</ele><time>2026-05-01T15:26:48.001Z</time></trkpt><trkpt lat="44.43906678320401" lon="8.736463582534077"><ele>109.0</ele><time>2026-05-01T15:26:49.001Z</time></trkpt><trkpt lat="44.43928014321734" lon="8.736268966048081"><ele>109.0</ele><time>2026-05-01T15:26:50.001Z</time></trkpt><trkpt lat="44.439503198172375" lon="8.736076887376687"><ele>109.0</ele><time>2026-05-01T15:26:51.001Z</time></trkpt><trkpt lat="44.4397241694927" lon="8.735884106721103"><ele>110.0</ele><time>2026-05-01T15:26:52.001Z</time></trkpt><trkpt lat="44.43995164260396" lon="8.735689946841367"><ele>111.0</ele><time>2026-05-01T15:26:53.001Z</time></trkpt><trkpt lat="44.440175190632274" lon="8.735489156486395"><ele>111.0</ele><time>2026-05-01T15:26:54.001Z</time></trkpt><trkpt lat="44.44040663550793" lon="8.735297518222847"><ele>111.0</ele><time>2026-05-01T15:26:55.001Z</time></trkpt><trkpt lat="44.44063354942176" lon="8.735090644966794"><ele>114.0</ele><time>2026-05-01T15:26:56.001Z</time></trkpt><trkpt lat="44.4408584056396" lon="8.734890001021059"><ele>117.0</ele><time>2026-05-01T15:26:57.001Z</time></trkpt><trkpt lat="44.44108053291487" lon="8.734693763785852"><ele>135.5</ele><time>2026-05-01T15:26:58.001Z</time></trkpt><trkpt lat="44.44130841523154" lon="8.73449387723476"><ele>154.0</ele><time>2026-05-01T15:26:59.001Z</time></trkpt><trkpt lat="44.44153382379936" lon="8.734284986028598"><ele>154.5</ele><time>2026-05-01T15:27:00.015Z</time></trkpt><trkpt lat="44.441731512236856" lon="8.734043007458986"><ele>155.0</ele><time>2026-05-01T15:27:01.018Z</time></trkpt><trkpt lat="44.441903230024806" lon="8.733777648230983"><ele>145.0</ele><time>2026-05-01T15:27:02.019Z</time></trkpt><trkpt lat="44.44206265511318" lon="8.73350999608214"><ele>135.0</ele><time>2026-05-01T15:27:03.02Z</time></trkpt><trkpt lat="44.44220979805047" lon="8.733236877472985"><ele>114.0</ele><time>2026-05-01T15:27:04.02Z</time></trkpt><trkpt lat="44.44254225124087" lon="8.732269406326797"><ele>114.0</ele><time>2026-05-01T15:27:07.001Z</time></trkpt><trkpt lat="44.44265753339099" lon="8.731954542083198"><ele>114.0</ele><time>2026-05-01T15:27:08.001Z</time></trkpt><trkpt lat="44.44271196021444" lon="8.731606814198749"><ele>101.0</ele><time>2026-05-01T15:27:09.001Z</time></trkpt><trkpt lat="44.442790597990815" lon="8.731254377374041"><ele>88.0</ele><time>2026-05-01T15:27:10.001Z</time></trkpt><trkpt lat="44.44285227230163" lon="8.730901282325402"><ele>75.5</ele><time>2026-05-01T15:27:11.001Z</time></trkpt><trkpt lat="44.44289460632267" lon="8.73055151214246"><ele>63.0</ele><time>2026-05-01T15:27:12.001Z</time></trkpt><trkpt lat="44.44293477169477" lon="8.730205766706629"><ele>58.5</ele><time>2026-05-01T15:27:13.001Z</time></trkpt><trkpt lat="44.442973762910626" lon="8.729851757750382"><ele>54.0</ele><time>2026-05-01T15:27:14.001Z</time></trkpt><trkpt lat="44.44301600744949" lon="8.729506496745977"><ele>53.0</ele><time>2026-05-01T15:27:15.001Z</time></trkpt><trkpt lat="44.44305705461248" lon="8.729163096852163"><ele>52.0</ele><time>2026-05-01T15:27:16.001Z</time></trkpt><trkpt lat="44.44309337681547" lon="8.728812687629246"><ele>62.0</ele><time>2026-05-01T15:27:17.001Z</time></trkpt><trkpt lat="44.443127510224464" lon="8.728456603122861"><ele>72.0</ele><time>2026-05-01T15:27:18.001Z</time></trkpt><trkpt lat="44.443166103552535" lon="8.728110032894488"><ele>72.0</ele><time>2026-05-01T15:27:19.001Z</time></trkpt><trkpt lat="44.44320315132097" lon="8.727764667674089"><ele>72.0</ele><time>2026-05-01T15:27:20.001Z</time></trkpt><trkpt lat="44.443243351770334" lon="8.727416307842178"><ele>89.5</ele><time>2026-05-01T15:27:21.001Z</time></trkpt><trkpt lat="44.443282554490956" lon="8.7270637887069"><ele>107.0</ele><time>2026-05-01T15:27:22.001Z</time></trkpt><trkpt lat="44.44332023965445" lon="8.726710095925096"><ele>117.5</ele><time>2026-05-01T15:27:23.001Z</time></trkpt><trkpt lat="44.44335478554987" lon="8.726359616701911"><ele>128.0</ele><time>2026-05-01T15:27:24.001Z</time></trkpt><trkpt lat="44.443380545988305" lon="8.726010487139305"><ele>137.0</ele><time>2026-05-01T15:27:25.001Z</time></trkpt><trkpt lat="44.443394681450684" lon="8.72566234376695"><ele>146.0</ele><time>2026-05-01T15:27:26.001Z</time></trkpt><trkpt lat="44.44339593941295" lon="8.725310791876444"><ele>159.5</ele><time>2026-05-01T15:27:27.001Z</time></trkpt><trkpt lat="44.44339669484407" lon="8.724951650548585"><ele>173.0</ele><time>2026-05-01T15:27:28.019Z</time></trkpt><trkpt lat="44.44340055255955" lon="8.724598992533965"><ele>186.0</ele><time>2026-05-01T15:27:29.02Z</time></trkpt><trkpt lat="44.443370927614936" lon="8.724257381833388"><ele>199.0</ele><time>2026-05-01T15:27:30.018Z</time></trkpt><trkpt lat="44.44331656857783" lon="8.723923574650025"><ele>199.0</ele><time>2026-05-01T15:27:31.018Z</time></trkpt><trkpt lat="44.44325977701975" lon="8.723585715388563"><ele>199.0</ele><time>2026-05-01T15:27:32.02Z</time></trkpt><trkpt lat="44.44320019148938" lon="8.723244019525305"><ele>200.0</ele><time>2026-05-01T15:27:33.02Z</time></trkpt><trkpt lat="44.4431143" lon="8.7231445"><ele>201.0</ele><time>2026-05-01T15:27:36.822Z</time></trkpt><trkpt lat="44.44382183257904" lon="8.717626975857389"><ele>176.0</ele><time>2026-05-01T15:27:50.001Z</time></trkpt><trkpt lat="44.44387107265583" lon="8.717329440260896"><ele>151.0</ele><time>2026-05-01T15:27:51.001Z</time></trkpt><trkpt lat="44.44416537320972" lon="8.717167970055842"><ele>151.0</ele><time>2026-05-01T15:27:52.001Z</time></trkpt><trkpt lat="44.44432157811445" lon="8.716995265699964"><ele>151.0</ele><time>2026-05-01T15:27:53.001Z</time></trkpt><trkpt lat="44.44448995141442" lon="8.716797885219224"><ele>151.0</ele><time>2026-05-01T15:27:54.001Z</time></trkpt><trkpt lat="44.444657268983306" lon="8.716605310939835"><ele>150.66666666666669</ele><time>2026-05-01T15:27:55.001Z</time></trkpt><trkpt lat="44.44483639134732" lon="8.71642190649922"><ele>150.33333333333334</ele><time>2026-05-01T15:27:56.001Z</time></trkpt><trkpt lat="44.44501168415192" lon="8.716264569885729"><ele>150.0</ele><time>2026-05-01T15:27:57.001Z</time></trkpt><trkpt lat="44.44519768538871" lon="8.716114397343825"><ele>151.0</ele><time>2026-05-01T15:27:58.001Z</time></trkpt><trkpt lat="44.44538687508206" lon="8.715970116073926"><ele>152.0</ele><time>2026-05-01T15:27:59.001Z</time></trkpt><trkpt lat="44.44558388411215" lon="8.715836970244288"><ele>153.0</ele><time>2026-05-01T15:28:00.001Z</time></trkpt><trkpt lat="44.44578137182681" lon="8.71573334399143"><ele>153.0</ele><time>2026-05-01T15:28:01.001Z</time></trkpt><trkpt lat="44.445987990608835" lon="8.715631399083987"><ele>153.0</ele><time>2026-05-01T15:28:02.001Z</time></trkpt><trkpt lat="44.44620719424376" lon="8.71553198502617"><ele>153.0</ele><time>2026-05-01T15:28:03.001Z</time></trkpt><trkpt lat="44.44642284916424" lon="8.715456153982647"><ele>143.0</ele><time>2026-05-01T15:28:04.001Z</time></trkpt><trkpt lat="44.44664388265598" lon="8.715407475188591"><ele>133.0</ele><time>2026-05-01T15:28:05.001Z</time></trkpt><trkpt lat="44.446865736683904" lon="8.715349409497053"><ele>123.0</ele><time>2026-05-01T15:28:06.001Z</time></trkpt><trkpt lat="44.44709822698424" lon="8.715322149429538"><ele>117.0</ele><time>2026-05-01T15:28:07.001Z</time></trkpt><trkpt lat="44.44732910739732" lon="8.715318583464313"><ele>111.0</ele><time>2026-05-01T15:28:08.001Z</time></trkpt><trkpt lat="44.447565350589365" lon="8.715327283908433"><ele>111.0</ele><time>2026-05-01T15:28:09.001Z</time></trkpt><trkpt lat="44.44781257839694" lon="8.715357327858515"><ele>111.0</ele><time>2026-05-01T15:28:10.001Z</time></trkpt><trkpt lat="44.4480486456779" lon="8.715384019704711"><ele>120.0</ele><time>2026-05-01T15:28:11.001Z</time></trkpt><trkpt lat="44.44830103630508" lon="8.715472653982511"><ele>129.0</ele><time>2026-05-01T15:28:12.001Z</time></trkpt><trkpt lat="44.44853761241777" lon="8.715519283979855"><ele>129.0</ele><time>2026-05-01T15:28:13.001Z</time></trkpt><trkpt lat="44.4487677600165" lon="8.715670188112222"><ele>129.0</ele><time>2026-05-01T15:28:14.001Z</time></trkpt><trkpt lat="44.44900879949237" lon="8.715799528157437"><ele>160.5</ele><time>2026-05-01T15:28:15.001Z</time></trkpt><trkpt lat="44.44924252357057" lon="8.715886303508734"><ele>192.0</ele><time>2026-05-01T15:28:16.001Z</time></trkpt><trkpt lat="44.44948719337644" lon="8.716014341731746"><ele>216.5</ele><time>2026-05-01T15:28:17.001Z</time></trkpt><trkpt lat="44.44973572746906" lon="8.71614339293479"><ele>241.0</ele><time>2026-05-01T15:28:18.019Z</time></trkpt><trkpt lat="44.4499800336274" lon="8.716269963683633"><ele>241.0</ele><time>2026-05-01T15:28:19.02Z</time></trkpt><trkpt lat="44.450223819530024" lon="8.716396532911324"><ele>241.0</ele><time>2026-05-01T15:28:20.019Z</time></trkpt><trkpt lat="44.4512116536912" lon="8.725595986478707"><ele>224.33333333333331</ele><time>2026-05-01T15:28:55.001Z</time></trkpt><trkpt lat="44.451156637381814" lon="8.725828481551376"><ele>207.66666666666666</ele><time>2026-05-01T15:28:56.001Z</time></trkpt><trkpt lat="44.45106808557935" lon="8.726127302360021"><ele>191.0</ele><time>2026-05-01T15:28:57.001Z</time></trkpt><trkpt lat="44.45095505963589" lon="8.726319048018643"><ele>190.66666666666666</ele><time>2026-05-01T15:28:58.001Z</time></trkpt><trkpt lat="44.45085024521102" lon="8.726541374070482"><ele>190.33333333333334</ele><time>2026-05-01T15:28:59.001Z</time></trkpt><trkpt lat="44.45073070100567" lon="8.72677665126081"><ele>190.0</ele><time>2026-05-01T15:29:00.001Z</time></trkpt><trkpt lat="44.45061642395324" lon="8.727025979040995"><ele>192.33333333333334</ele><time>2026-05-01T15:29:01.001Z</time></trkpt><trkpt lat="44.45048494971682" lon="8.727248816992876"><ele>194.66666666666669</ele><time>2026-05-01T15:29:02.001Z</time></trkpt><trkpt lat="44.45034288892704" lon="8.727476108325282"><ele>197.0</ele><time>2026-05-01T15:29:03.001Z</time></trkpt><trkpt lat="44.45018774969271" lon="8.72770660104567"><ele>205.33333333333334</ele><time>2026-05-01T15:29:04.001Z</time></trkpt><trkpt lat="44.45003140111766" lon="8.727921978707014"><ele>213.66666666666669</ele><time>2026-05-01T15:29:05.001Z</time></trkpt><trkpt lat="44.449865230896464" lon="8.728112673570351"><ele>222.0</ele><time>2026-05-01T15:29:06.001Z</time></trkpt><trkpt lat="44.44969378802999" lon="8.728298105220114"><ele>213.66666666666669</ele><time>2026-05-01T15:29:07.001Z</time></trkpt><trkpt lat="44.44952235419735" lon="8.728478327600639"><ele>205.33333333333334</ele><time>2026-05-01T15:29:08.001Z</time></trkpt><trkpt lat="44.44935122061742" lon="8.728669695032309"><ele>197.0</ele><time>2026-05-01T15:29:09.001Z</time></trkpt><trkpt lat="44.44918190094211" lon="8.728856470278595"><ele>197.0</ele><time>2026-05-01T15:29:10.001Z</time></trkpt><trkpt lat="44.449005043998845" lon="8.729040883514632"><ele>197.0</ele><time>2026-05-01T15:29:11.001Z</time></trkpt><trkpt lat="44.44883373049559" lon="8.729224523265419"><ele>197.0</ele><time>2026-05-01T15:29:12.001Z</time></trkpt><trkpt lat="44.44866046037703" lon="8.729420859203522"><ele>190.66666666666669</ele><time>2026-05-01T15:29:13.001Z</time></trkpt><trkpt lat="44.4484899784598" lon="8.729616670507196"><ele>184.33333333333334</ele><time>2026-05-01T15:29:14.001Z</time></trkpt><trkpt lat="44.448324751925895" lon="8.729830718626019"><ele>178.0</ele><time>2026-05-01T15:29:15.001Z</time></trkpt><trkpt lat="44.448163542668865" lon="8.730056969485736"><ele>185.33333333333334</ele><time>2026-05-01T15:29:16.001Z</time></trkpt><trkpt lat="44.448020056704806" lon="8.730295646989914"><ele>192.66666666666669</ele><time>2026-05-01T15:29:17.001Z</time></trkpt><trkpt lat="44.44788472984085" lon="8.730538489830769"><ele>200.0</ele><time>2026-05-01T15:29:18.001Z</time></trkpt><trkpt lat="44.447761443509144" lon="8.730793368925966"><ele>200.0</ele><time>2026-05-01T15:29:19.001Z</time></trkpt><trkpt lat="44.44766127153772" lon="8.731037796262603"><ele>200.0</ele><time>2026-05-01T15:29:20.001Z</time></trkpt><trkpt lat="44.44755119828727" lon="8.731310350269705"><ele>200.0</ele><time>2026-05-01T15:29:21.001Z</time></trkpt><trkpt lat="44.44745018846829" lon="8.731583473753021"><ele>208.0</ele><time>2026-05-01T15:29:22.001Z</time></trkpt><trkpt lat="44.44735825129455" lon="8.73186942760745"><ele>216.0</ele><time>2026-05-01T15:29:23.001Z</time></trkpt><trkpt lat="44.44728313342066" lon="8.732159405493343"><ele>224.0</ele><time>2026-05-01T15:29:24.001Z</time></trkpt><trkpt lat="44.44722237029413" lon="8.732457283579842"><ele>224.0</ele><time>2026-05-01T15:29:25.001Z</time></trkpt><trkpt lat="44.44717050713829" lon="8.732758213739825"><ele>224.0</ele><time>2026-05-01T15:29:26.001Z</time></trkpt><trkpt lat="44.44713123927282" lon="8.733056708709174"><ele>224.0</ele><time>2026-05-01T15:29:27.001Z</time></trkpt><trkpt lat="44.447106466323405" lon="8.73336809698911"><ele>230.33333333333334</ele><time>2026-05-01T15:29:28.001Z</time></trkpt><trkpt lat="44.44709416011501" lon="8.73367208291545"><ele>236.66666666666669</ele><time>2026-05-01T15:29:29.001Z</time></trkpt><trkpt lat="44.447092717645795" lon="8.733983684858009"><ele>243.0</ele><time>2026-05-01T15:29:30.001Z</time></trkpt><trkpt lat="44.44710232425104" lon="8.734292995786976"><ele>255.33333333333331</ele><time>2026-05-01T15:29:31.001Z</time></trkpt><trkpt lat="44.44713314757612" lon="8.734607291843734"><ele>267.66666666666663</ele><time>2026-05-01T15:29:32.001Z</time></trkpt><trkpt lat="44.44716233702204" lon="8.734911633778237"><ele>280.0</ele><time>2026-05-01T15:29:33.001Z</time></trkpt><trkpt lat="44.44718436048929" lon="8.735215486674381"><ele>286.0</ele><time>2026-05-01T15:29:34.018Z</time></trkpt><trkpt lat="44.44721392031836" lon="8.735515422221365"><ele>292.0</ele><time>2026-05-01T15:29:35.017Z</time></trkpt><trkpt lat="44.44723813389007" lon="8.735825690859215"><ele>298.0</ele><time>2026-05-01T15:29:36.016Z</time></trkpt><trkpt lat="44.44725691070113" lon="8.7361426202251"><ele>298.0</ele><time>2026-05-01T15:29:37.017Z</time></trkpt><trkpt lat="44.44728646883995" lon="8.736450216521973"><ele>298.0</ele><time>2026-05-01T15:29:38.02Z</time></trkpt><trkpt lat="44.44738465603762" lon="8.736719181013159"><ele>298.0</ele><time>2026-05-01T15:29:39.02Z</time></trkpt><trkpt lat="44.44744087388066" lon="8.737003042149103"><ele>288.3333333333333</ele><time>2026-05-01T15:29:40.019Z</time></trkpt><trkpt lat="44.4475230302523" lon="8.737285537758222"><ele>278.6666666666667</ele><time>2026-05-01T15:29:41.021Z</time></trkpt><trkpt lat="44.44752801679489" lon="8.737558554866107"><ele>269.0</ele><time>2026-05-01T15:29:42.001Z</time></trkpt><trkpt lat="44.44757900625988" lon="8.737842724138977"><ele>254.0</ele><time>2026-05-01T15:29:43.001Z</time></trkpt><trkpt lat="44.44820918995822" lon="8.73787329710386"><ele>254.0</ele><time>2026-05-01T15:29:44.001Z</time></trkpt><trkpt lat="44.44841666421181" lon="8.738091512740702"><ele>254.0</ele><time>2026-05-01T15:29:45.001Z</time></trkpt><trkpt lat="44.44859060326392" lon="8.738298223080612"><ele>254.0</ele><time>2026-05-01T15:29:46.001Z</time></trkpt><trkpt lat="44.44877732238616" lon="8.738516434997413"><ele>254.0</ele><time>2026-05-01T15:29:47.001Z</time></trkpt><trkpt lat="44.448965071678316" lon="8.738776931033957"><ele>254.0</ele><time>2026-05-01T15:29:48.001Z</time></trkpt><trkpt lat="44.4491839602165" lon="8.73908035522442"><ele>254.0</ele><time>2026-05-01T15:29:49.001Z</time></trkpt><trkpt lat="44.44937233927493" lon="8.739341233153988"><ele>238.5</ele><time>2026-05-01T15:29:50.001Z</time></trkpt><trkpt lat="44.44957288818171" lon="8.739611990140016"><ele>223.0</ele><time>2026-05-01T15:29:51.001Z</time></trkpt><trkpt lat="44.449771391944175" lon="8.739876567241538"><ele>221.5</ele><time>2026-05-01T15:29:52.001Z</time></trkpt><trkpt lat="44.449986380801" lon="8.740131254412054"><ele>220.0</ele><time>2026-05-01T15:29:53.001Z</time></trkpt><trkpt lat="44.4501851311669" lon="8.740398887503616"><ele>211.0</ele><time>2026-05-01T15:29:54.001Z</time></trkpt><trkpt lat="44.45038311687707" lon="8.740658269670606"><ele>202.0</ele><time>2026-05-01T15:29:55.001Z</time></trkpt><trkpt lat="44.450581452323156" lon="8.74092340926919"><ele>179.5</ele><time>2026-05-01T15:29:56.001Z</time></trkpt><trkpt lat="44.45078088357055" lon="8.741192671244654"><ele>157.0</ele><time>2026-05-01T15:29:57.001Z</time></trkpt><trkpt lat="44.45097981458528" lon="8.741460768413443"><ele>157.0</ele><time>2026-05-01T15:29:58.001Z</time></trkpt><trkpt lat="44.45117748329095" lon="8.741729759667267"><ele>157.0</ele><time>2026-05-01T15:29:59.001Z</time></trkpt><trkpt lat="44.4513801514289" lon="8.741994377391302"><ele>136.5</ele><time>2026-05-01T15:30:00.001Z</time></trkpt><trkpt lat="44.451568091563516" lon="8.74224391075609"><ele>116.0</ele><time>2026-05-01T15:30:01.001Z</time></trkpt><trkpt lat="44.4517506536393" lon="8.742482733783307"><ele>127.0</ele><time>2026-05-01T15:30:02.001Z</time></trkpt><trkpt lat="44.45192806683477" lon="8.742715212227727"><ele>138.0</ele><time>2026-05-01T15:30:03.001Z</time></trkpt><trkpt lat="44.452105974405306" lon="8.742948147264144"><ele>161.0</ele><time>2026-05-01T15:30:04.001Z</time></trkpt><trkpt lat="44.45227871246492" lon="8.743174205815745"><ele>184.0</ele><time>2026-05-01T15:30:05.001Z</time></trkpt><trkpt lat="44.45245170874315" lon="8.7433942339313"><ele>209.0</ele><time>2026-05-01T15:30:06.001Z</time></trkpt><trkpt lat="44.452637020656425" lon="8.74360176480768"><ele>234.0</ele><time>2026-05-01T15:30:07.001Z</time></trkpt><trkpt lat="44.45282924790706" lon="8.743788539028763"><ele>241.5</ele><time>2026-05-01T15:30:08.001Z</time></trkpt><trkpt lat="44.453029196133" lon="8.743960529488085"><ele>249.0</ele><time>2026-05-01T15:30:09.001Z</time></trkpt><trkpt lat="44.45323515043166" lon="8.744122401410053"><ele>249.0</ele><time>2026-05-01T15:30:10.001Z</time></trkpt><trkpt lat="44.453449819989224" lon="8.744268825443578"><ele>249.0</ele><time>2026-05-01T15:30:11.001Z</time></trkpt><trkpt lat="44.45366753540344" lon="8.744398000699029"><ele>265.5</ele><time>2026-05-01T15:30:12.001Z</time></trkpt><trkpt lat="44.453893406124386" lon="8.744515718867227"><ele>282.0</ele><time>2026-05-01T15:30:13.001Z</time></trkpt><trkpt lat="44.4541237019198" lon="8.744623582431526"><ele>282.0</ele><time>2026-05-01T15:30:14.001Z</time></trkpt><trkpt lat="44.45435934710138" lon="8.74471115827338"><ele>282.0</ele><time>2026-05-01T15:30:15.001Z</time></trkpt><trkpt lat="44.45460545845603" lon="8.744774446146966"><ele>281.5</ele><time>2026-05-01T15:30:16.001Z</time></trkpt><trkpt lat="44.45486085094046" lon="8.744816691018238"><ele>281.0</ele><time>2026-05-01T15:30:17.001Z</time></trkpt><trkpt lat="44.45512000288298" lon="8.74484465426485"><ele>281.0</ele><time>2026-05-01T15:30:18.001Z</time></trkpt><trkpt lat="44.45538667466467" lon="8.744847597372592"><ele>281.0</ele><time>2026-05-01T15:30:19.001Z</time></trkpt><trkpt lat="44.45565548207057" lon="8.744826440524589"><ele>277.0</ele><time>2026-05-01T15:30:20.001Z</time></trkpt><trkpt lat="44.45592620127146" lon="8.744797637026888"><ele>273.0</ele><time>2026-05-01T15:30:21.001Z</time></trkpt><trkpt lat="44.45620120724714" lon="8.744772546965075"><ele>270.0</ele><time>2026-05-01T15:30:22.001Z</time></trkpt><trkpt lat="44.456477728829505" lon="8.74475181713019"><ele>267.0</ele><time>2026-05-01T15:30:23.001Z</time></trkpt><trkpt lat="44.45675627804386" lon="8.744732808556451"><ele>267.0</ele><time>2026-05-01T15:30:24.001Z</time></trkpt><trkpt lat="44.457036931736155" lon="8.74471785043076"><ele>267.0</ele><time>2026-05-01T15:30:25.001Z</time></trkpt><trkpt lat="44.45731316311264" lon="8.744701658838336"><ele>265.5</ele><time>2026-05-01T15:30:26.001Z</time></trkpt><trkpt lat="44.45758582817095" lon="8.744688564527928"><ele>264.0</ele><time>2026-05-01T15:30:27.001Z</time></trkpt><trkpt lat="44.45786140083638" lon="8.744671636088185"><ele>274.5</ele><time>2026-05-01T15:30:28.001Z</time></trkpt><trkpt lat="44.458132649604295" lon="8.744657174863638"><ele>285.0</ele><time>2026-05-01T15:30:29.001Z</time></trkpt><trkpt lat="44.45840323569912" lon="8.744636918251828"><ele>285.0</ele><time>2026-05-01T15:30:30.001Z</time></trkpt><trkpt lat="44.45867537116463" lon="8.744614606967657"><ele>285.0</ele><time>2026-05-01T15:30:31.001Z</time></trkpt><trkpt lat="44.458938579287064" lon="8.744591199529967"><ele>304.5</ele><time>2026-05-01T15:30:32.001Z</time></trkpt><trkpt lat="44.45918389064018" lon="8.744571334479877"><ele>324.0</ele><time>2026-05-01T15:30:33.001Z</time></trkpt><trkpt lat="44.45942305115265" lon="8.744557625918993"><ele>338.0</ele><time>2026-05-01T15:30:34.001Z</time></trkpt><trkpt lat="44.45967051215018" lon="8.74454356805388"><ele>352.0</ele><time>2026-05-01T15:30:35.02Z</time></trkpt><trkpt lat="44.459912769061404" lon="8.744528411254883"><ele>352.0</ele><time>2026-05-01T15:30:36.02Z</time></trkpt><trkpt lat="44.46015324429489" lon="8.74451421567493"><ele>352.0</ele><time>2026-05-01T15:30:37.024Z</time></trkpt><trkpt lat="44.46039186751569" lon="8.744501354192217"><ele>414.0</ele><time>2026-05-01T15:30:38.018Z</time></trkpt><trkpt lat="44.46241455786986" lon="8.744270030202685"><ele>353.0</ele><time>2026-05-01T15:30:41.821Z</time></trkpt><trkpt lat="44.4680470833969" lon="8.742910483860172"><ele>353.0</ele><time>2026-05-01T15:31:12.001Z</time></trkpt><trkpt lat="44.468283764416356" lon="8.742763974523843"><ele>353.0</ele><time>2026-05-01T15:31:13.001Z</time></trkpt><trkpt lat="44.46840126987218" lon="8.742478038837124"><ele>349.0</ele><time>2026-05-01T15:31:14.001Z</time></trkpt><trkpt lat="44.46860930540923" lon="8.742285428630526"><ele>345.0</ele><time>2026-05-01T15:31:15.001Z</time></trkpt><trkpt lat="44.46881888617504" lon="8.742095612508944"><ele>359.5</ele><time>2026-05-01T15:31:16.001Z</time></trkpt><trkpt lat="44.46901117566666" lon="8.74189683441149"><ele>374.0</ele><time>2026-05-01T15:31:17.001Z</time></trkpt><trkpt lat="44.469217432041795" lon="8.741705636231794"><ele>374.0</ele><time>2026-05-01T15:31:18.001Z</time></trkpt><trkpt lat="44.46942474933393" lon="8.741508052521377"><ele>374.0</ele><time>2026-05-01T15:31:19.023Z</time></trkpt><trkpt lat="44.46962739098588" lon="8.741319615931314"><ele>371.0</ele><time>2026-05-01T15:31:20.018Z</time></trkpt><trkpt lat="44.46982939604785" lon="8.741128690147766"><ele>368.0</ele><time>2026-05-01T15:31:21.017Z</time></trkpt><trkpt lat="44.47002920078824" lon="8.740934855006085"><ele>368.0</ele><time>2026-05-01T15:31:22.017Z</time></trkpt><trkpt lat="44.47021838074892" lon="8.740736272669212"><ele>368.0</ele><time>2026-05-01T15:31:23.001Z</time></trkpt><trkpt lat="44.47031543634453" lon="8.740381847130282"><ele>355.5</ele><time>2026-05-01T15:31:24.001Z</time></trkpt><trkpt lat="44.47049434234767" lon="8.740140144617115"><ele>343.0</ele><time>2026-05-01T15:31:25.001Z</time></trkpt><trkpt lat="44.470683370214296" lon="8.739910302425551"><ele>343.0</ele><time>2026-05-01T15:31:26.001Z</time></trkpt><trkpt lat="44.470878665237365" lon="8.739673059943312"><ele>343.0</ele><time>2026-05-01T15:31:27.001Z</time></trkpt><trkpt lat="44.47106693971264" lon="8.73942835077782"><ele>336.0</ele><time>2026-05-01T15:31:28.001Z</time></trkpt><trkpt lat="44.47125622116902" lon="8.739184977657182"><ele>329.0</ele><time>2026-05-01T15:31:29.001Z</time></trkpt><trkpt lat="44.47144138803466" lon="8.738939299914303"><ele>339.0</ele><time>2026-05-01T15:31:30.001Z</time></trkpt><trkpt lat="44.471630721672646" lon="8.738690657983732"><ele>349.0</ele><time>2026-05-01T15:31:31.001Z</time></trkpt><trkpt lat="44.4718210634308" lon="8.738450701099811"><ele>349.0</ele><time>2026-05-01T15:31:32.001Z</time></trkpt><trkpt lat="44.47201163707147" lon="8.738210113804326"><ele>349.0</ele><time>2026-05-01T15:31:33.001Z</time></trkpt><trkpt lat="44.47220246603859" lon="8.737970051649674"><ele>351.0</ele><time>2026-05-01T15:31:34.001Z</time></trkpt><trkpt lat="44.47239302348101" lon="8.737732206167996"><ele>353.0</ele><time>2026-05-01T15:31:35.001Z</time></trkpt><trkpt lat="44.47258825331801" lon="8.737501488887084"><ele>353.0</ele><time>2026-05-01T15:31:36.001Z</time></trkpt><trkpt lat="44.4727819947857" lon="8.73727002420717"><ele>353.0</ele><time>2026-05-01T15:31:37.001Z</time></trkpt><trkpt lat="44.47297551938603" lon="8.73704240172323"><ele>355.5</ele><time>2026-05-01T15:31:38.001Z</time></trkpt><trkpt lat="44.47316608568128" lon="8.736820049051884"><ele>358.0</ele><time>2026-05-01T15:31:39.001Z</time></trkpt><trkpt lat="44.473353605357055" lon="8.736600193392997"><ele>358.0</ele><time>2026-05-01T15:31:40.001Z</time></trkpt><trkpt lat="44.47354110239165" lon="8.736387647511508"><ele>358.0</ele><time>2026-05-01T15:31:41.001Z</time></trkpt><trkpt lat="44.47373684951535" lon="8.73618873336481"><ele>366.0</ele><time>2026-05-01T15:31:42.001Z</time></trkpt><trkpt lat="44.47393794837252" lon="8.73600657423736"><ele>374.0</ele><time>2026-05-01T15:31:43.001Z</time></trkpt><trkpt lat="44.47415000569416" lon="8.735848518772084"><ele>374.0</ele><time>2026-05-01T15:31:44.001Z</time></trkpt><trkpt lat="44.474369291523104" lon="8.735709138247238"><ele>374.0</ele><time>2026-05-01T15:31:45.001Z</time></trkpt><trkpt lat="44.47459835964133" lon="8.735583426337302"><ele>391.0</ele><time>2026-05-01T15:31:46.001Z</time></trkpt><trkpt lat="44.47482377960448" lon="8.73548341595717"><ele>408.0</ele><time>2026-05-01T15:31:47.001Z</time></trkpt><trkpt lat="44.47505243249288" lon="8.735399509431808"><ele>408.0</ele><time>2026-05-01T15:31:48.001Z</time></trkpt><trkpt lat="44.47527499078874" lon="8.735327405366366"><ele>408.0</ele><time>2026-05-01T15:31:49.001Z</time></trkpt><trkpt lat="44.47549915534549" lon="8.73527688406671"><ele>413.0</ele><time>2026-05-01T15:31:50.001Z</time></trkpt><trkpt lat="44.475739451442315" lon="8.73524215614085"><ele>418.0</ele><time>2026-05-01T15:31:51.001Z</time></trkpt><trkpt lat="44.47597225560976" lon="8.735238444511424"><ele>418.0</ele><time>2026-05-01T15:31:52.001Z</time></trkpt><trkpt lat="44.47621525878834" lon="8.73525913667733"><ele>418.0</ele><time>2026-05-01T15:31:53.001Z</time></trkpt><trkpt lat="44.47645446644958" lon="8.735291126286246"><ele>415.5</ele><time>2026-05-01T15:31:54.001Z</time></trkpt><trkpt lat="44.47669670677418" lon="8.73533725012142"><ele>413.0</ele><time>2026-05-01T15:31:55.001Z</time></trkpt><trkpt lat="44.47695538183524" lon="8.735405895288075"><ele>405.0</ele><time>2026-05-01T15:31:56.001Z</time></trkpt><trkpt lat="44.47721178937854" lon="8.735459517523825"><ele>397.0</ele><time>2026-05-01T15:31:57.001Z</time></trkpt><trkpt lat="44.47746220979066" lon="8.735505107494161"><ele>397.0</ele><time>2026-05-01T15:31:58.001Z</time></trkpt><trkpt lat="44.47771497610861" lon="8.735537638673415"><ele>397.0</ele><time>2026-05-01T15:31:59.001Z</time></trkpt><trkpt lat="44.47796415229853" lon="8.735555277595664"><ele>404.5</ele><time>2026-05-01T15:32:00.001Z</time></trkpt><trkpt lat="44.47819241636832" lon="8.735544472407515"><ele>412.0</ele><time>2026-05-01T15:32:01.001Z</time></trkpt><trkpt lat="44.478433757778255" lon="8.735519374004793"><ele>412.0</ele><time>2026-05-01T15:32:02.001Z</time></trkpt><trkpt lat="44.478679113925075" lon="8.735469560888863"><ele>412.0</ele><time>2026-05-01T15:32:03.001Z</time></trkpt><trkpt lat="44.47892709940411" lon="8.735403892416066"><ele>409.5</ele><time>2026-05-01T15:32:04.001Z</time></trkpt><trkpt lat="44.47916965099674" lon="8.735323469917937"><ele>407.0</ele><time>2026-05-01T15:32:05Z</time></trkpt><trkpt lat="44.479396300751915" lon="8.735222659797254"><ele>404.5</ele><time>2026-05-01T15:32:06Z</time></trkpt><trkpt lat="44.479605965264966" lon="8.735102296742127"><ele>402.0</ele><time>2026-05-01T15:32:07Z</time></trkpt><trkpt lat="44.47981467629977" lon="8.734973540094545"><ele>402.0</ele><time>2026-05-01T15:32:08Z</time></trkpt><trkpt lat="44.48002870311408" lon="8.734829333688177"><ele>402.0</ele><time>2026-05-01T15:32:09Z</time></trkpt><trkpt lat="44.48024263205922" lon="8.734680196311245"><ele>417.0</ele><time>2026-05-01T15:32:10Z</time></trkpt><trkpt lat="44.48045360364752" lon="8.734531132087424"><ele>432.0</ele><time>2026-05-01T15:32:11Z</time></trkpt><trkpt lat="44.48066559176526" lon="8.734392313559605"><ele>416.5</ele><time>2026-05-01T15:32:12Z</time></trkpt><trkpt lat="44.480879556519234" lon="8.73427767514755"><ele>401.0</ele><time>2026-05-01T15:32:13Z</time></trkpt><trkpt lat="44.48109156082446" lon="8.734167446202344"><ele>411.5</ele><time>2026-05-01T15:32:14Z</time></trkpt><trkpt lat="44.481314006622256" lon="8.734076638505124"><ele>422.0</ele><time>2026-05-01T15:32:15Z</time></trkpt><trkpt lat="44.48154169836874" lon="8.734001885545759"><ele>422.0</ele><time>2026-05-01T15:32:16Z</time></trkpt><trkpt lat="44.48176161620377" lon="8.733938395274427"><ele>422.0</ele><time>2026-05-01T15:32:17Z</time></trkpt><trkpt lat="44.48198481438369" lon="8.73388949718397"><ele>431.5</ele><time>2026-05-01T15:32:18Z</time></trkpt><trkpt lat="44.48220793882415" lon="8.733843451347004"><ele>441.0</ele><time>2026-05-01T15:32:19Z</time></trkpt><trkpt lat="44.482430220708146" lon="8.733799431598522"><ele>441.0</ele><time>2026-05-01T15:32:20Z</time></trkpt><trkpt lat="44.48266154865989" lon="8.733754309264125"><ele>441.0</ele><time>2026-05-01T15:32:21.022Z</time></trkpt><trkpt lat="44.482887098666545" lon="8.733712421327567"><ele>456.0</ele><time>2026-05-01T15:32:22.02Z</time></trkpt><trkpt lat="44.483120708707986" lon="8.733675975496316"><ele>471.0</ele><time>2026-05-01T15:32:23.019Z</time></trkpt><trkpt lat="44.483353394502764" lon="8.733633997781753"><ele>471.0</ele><time>2026-05-01T15:32:24.021Z</time></trkpt><trkpt lat="44.48358700196816" lon="8.73358882955783"><ele>471.0</ele><time>2026-05-01T15:32:25.021Z</time></trkpt><trkpt lat="44.48380785228794" lon="8.733536273306603"><ele>484.33333333333337</ele><time>2026-05-01T15:32:26.016Z</time></trkpt><trkpt lat="44.48402239717073" lon="8.733490702032235"><ele>497.6666666666667</ele><time>2026-05-01T15:32:27.02Z</time></trkpt><trkpt lat="44.48422589749268" lon="8.733464175865695"><ele>511.0</ele><time>2026-05-01T15:32:28.017Z</time></trkpt><trkpt lat="44.48661269391312" lon="8.732931427112373"><ele>432.0</ele><time>2026-05-01T15:32:41.48Z</time></trkpt><trkpt lat="44.49100628965021" lon="8.733020424850967"><ele>429.0</ele><time>2026-05-01T15:32:49Z</time></trkpt><trkpt lat="44.49130094082372" lon="8.73292798863301"><ele>426.0</ele><time>2026-05-01T15:32:50Z</time></trkpt><trkpt lat="44.49152637915877" lon="8.732582813019476"><ele>426.0</ele><time>2026-05-01T15:32:51Z</time></trkpt><trkpt lat="44.491779504598135" lon="8.732383918470894"><ele>426.0</ele><time>2026-05-01T15:32:52Z</time></trkpt><trkpt lat="44.49203130433657" lon="8.73218189563346"><ele>425.5</ele><time>2026-05-01T15:32:53Z</time></trkpt><trkpt lat="44.492289753153216" lon="8.731985816681703"><ele>425.0</ele><time>2026-05-01T15:32:54Z</time></trkpt><trkpt lat="44.49254606345462" lon="8.73179078873777"><ele>425.0</ele><time>2026-05-01T15:32:55Z</time></trkpt><trkpt lat="44.49280496093528" lon="8.73159426060597"><ele>425.0</ele><time>2026-05-01T15:32:56Z</time></trkpt><trkpt lat="44.493067946150894" lon="8.731404049298332"><ele>426.0</ele><time>2026-05-01T15:32:57Z</time></trkpt><trkpt lat="44.493325313001115" lon="8.731211530214818"><ele>427.0</ele><time>2026-05-01T15:32:58Z</time></trkpt><trkpt lat="44.49358032579161" lon="8.731016569571452"><ele>426.0</ele><time>2026-05-01T15:32:59Z</time></trkpt><trkpt lat="44.49383947856738" lon="8.730806817773885"><ele>425.0</ele><time>2026-05-01T15:33:00Z</time></trkpt><trkpt lat="44.49409448686597" lon="8.730612831861459"><ele>425.0</ele><time>2026-05-01T15:33:01Z</time></trkpt><trkpt lat="44.49433346048662" lon="8.730425891444643"><ele>425.0</ele><time>2026-05-01T15:33:02Z</time></trkpt><trkpt lat="44.49455585602928" lon="8.730240496605411"><ele>422.5</ele><time>2026-05-01T15:33:03Z</time></trkpt><trkpt lat="44.494769268031774" lon="8.73003111402091"><ele>420.0</ele><time>2026-05-01T15:33:04Z</time></trkpt><trkpt lat="44.49497668224795" lon="8.72978902634168"><ele>420.0</ele><time>2026-05-01T15:33:05Z</time></trkpt><trkpt lat="44.4951731160858" lon="8.729519615135061"><ele>420.0</ele><time>2026-05-01T15:33:06Z</time></trkpt><trkpt lat="44.49534970801031" lon="8.7292392758499"><ele>421.0</ele><time>2026-05-01T15:33:07Z</time></trkpt><trkpt lat="44.49552527329522" lon="8.728935442007053"><ele>422.0</ele><time>2026-05-01T15:33:08Z</time></trkpt><trkpt lat="44.49568027070629" lon="8.728628593345965"><ele>435.5</ele><time>2026-05-01T15:33:09Z</time></trkpt><trkpt lat="44.49581172229146" lon="8.728310140126485"><ele>449.0</ele><time>2026-05-01T15:33:10Z</time></trkpt><trkpt lat="44.49593613675768" lon="8.727989695015747"><ele>467.5</ele><time>2026-05-01T15:33:11Z</time></trkpt><trkpt lat="44.49605826830518" lon="8.727653595405508"><ele>486.0</ele><time>2026-05-01T15:33:12.021Z</time></trkpt><trkpt lat="44.49618382861036" lon="8.727330462256347"><ele>477.5</ele><time>2026-05-01T15:33:13.018Z</time></trkpt><trkpt lat="44.49630779180089" lon="8.72700273238214"><ele>469.0</ele><time>2026-05-01T15:33:14.02Z</time></trkpt><trkpt lat="44.496426645780474" lon="8.726671677796766"><ele>468.5</ele><time>2026-05-01T15:33:15.02Z</time></trkpt><trkpt lat="44.49653913610099" lon="8.7263376463252"><ele>468.0</ele><time>2026-05-01T15:33:16.017Z</time></trkpt><trkpt lat="44.496653513814415" lon="8.726003707636034"><ele>441.0</ele><time>2026-05-01T15:33:17.016Z</time></trkpt><trkpt lat="44.49654299769969" lon="8.725249394782562"><ele>441.5</ele><time>2026-05-01T15:33:19Z</time></trkpt><trkpt lat="44.49659110193205" lon="8.724867073809849"><ele>442.0</ele><time>2026-05-01T15:33:20Z</time></trkpt><trkpt lat="44.49665907986217" lon="8.724502239687936"><ele>455.5</ele><time>2026-05-01T15:33:21Z</time></trkpt><trkpt lat="44.496754919665314" lon="8.724193359470275"><ele>469.0</ele><time>2026-05-01T15:33:22Z</time></trkpt><trkpt lat="44.49684823822824" lon="8.723874316145698"><ele>482.0</ele><time>2026-05-01T15:33:23.016Z</time></trkpt><trkpt lat="44.496939609351415" lon="8.723562857662214"><ele>495.0</ele><time>2026-05-01T15:33:24.019Z</time></trkpt><trkpt lat="44.49702975436398" lon="8.723251554409048"><ele>481.5</ele><time>2026-05-01T15:33:25.019Z</time></trkpt><trkpt lat="44.49716811194657" lon="8.722987159643607"><ele>468.0</ele><time>2026-05-01T15:33:26.016Z</time></trkpt><trkpt lat="44.497303322559944" lon="8.722725718068302"><ele>440.0</ele><time>2026-05-01T15:33:27.019Z</time></trkpt><trkpt lat="44.49869739827187" lon="8.720236262314693"><ele>430.5</ele><time>2026-05-01T15:33:35Z</time></trkpt><trkpt lat="44.498854745462516" lon="8.719932099990169"><ele>421.0</ele><time>2026-05-01T15:33:36Z</time></trkpt><trkpt lat="44.49884011864363" lon="8.719494095658291"><ele>424.5</ele><time>2026-05-01T15:33:37Z</time></trkpt><trkpt lat="44.498954770269165" lon="8.719151372850844"><ele>428.0</ele><time>2026-05-01T15:33:38Z</time></trkpt><trkpt lat="44.49901583199104" lon="8.718787693472583"><ele>480.0</ele><time>2026-05-01T15:33:39.018Z</time></trkpt><trkpt lat="44.4990127290392" lon="8.714566762634075"><ele>511.0</ele><time>2026-05-01T15:33:43.82Z</time></trkpt><trkpt lat="44.49900680427426" lon="8.713183527965693"><ele>511.0</ele><time>2026-05-01T15:33:44.82Z</time></trkpt><trkpt lat="44.4990081" lon="8.7130662"><ele>511.0</ele><time>2026-05-01T15:33:45.82Z</time></trkpt><trkpt lat="44.49910746417479" lon="8.711694435920952"><ele>483.0</ele><time>2026-05-01T15:33:57.818Z</time></trkpt><trkpt lat="44.499426155255385" lon="8.710392887670181"><ele>422.0</ele><time>2026-05-01T15:33:58.815Z</time></trkpt><trkpt lat="44.50048827570351" lon="8.709005853169327"><ele>422.0</ele><time>2026-05-01T15:34:08Z</time></trkpt><trkpt lat="44.50066930846075" lon="8.708743415062083"><ele>422.0</ele><time>2026-05-01T15:34:09.001Z</time></trkpt><trkpt lat="44.50072098222331" lon="8.708199132242235"><ele>411.5</ele><time>2026-05-01T15:34:10.001Z</time></trkpt><trkpt lat="44.50093324228985" lon="8.707987857927243"><ele>401.0</ele><time>2026-05-01T15:34:11.001Z</time></trkpt><trkpt lat="44.50116017493175" lon="8.707801223121917"><ele>401.0</ele><time>2026-05-01T15:34:12.001Z</time></trkpt><trkpt lat="44.50139497965934" lon="8.707638261117129"><ele>401.0</ele><time>2026-05-01T15:34:13.001Z</time></trkpt><trkpt lat="44.5016350142091" lon="8.70748094951264"><ele>401.0</ele><time>2026-05-01T15:34:14.001Z</time></trkpt><trkpt lat="44.50187735628899" lon="8.707323588485531"><ele>401.0</ele><time>2026-05-01T15:34:15.001Z</time></trkpt><trkpt lat="44.502122026298814" lon="8.707177521811746"><ele>403.0</ele><time>2026-05-01T15:34:16.001Z</time></trkpt><trkpt lat="44.50236420369296" lon="8.707026393406403"><ele>405.0</ele><time>2026-05-01T15:34:17.001Z</time></trkpt><trkpt lat="44.50259875024276" lon="8.706871526565651"><ele>405.0</ele><time>2026-05-01T15:34:18.001Z</time></trkpt><trkpt lat="44.5028417525631" lon="8.706722318732341"><ele>405.0</ele><time>2026-05-01T15:34:19.001Z</time></trkpt><trkpt lat="44.50308000032527" lon="8.706586278719248"><ele>397.0</ele><time>2026-05-01T15:34:20.001Z</time></trkpt><trkpt lat="44.503323101477804" lon="8.706433153172748"><ele>389.0</ele><time>2026-05-01T15:34:21.001Z</time></trkpt><trkpt lat="44.50355970975595" lon="8.70628264417646"><ele>388.0</ele><time>2026-05-01T15:34:22.001Z</time></trkpt><trkpt lat="44.503802337789914" lon="8.706133795225604"><ele>387.0</ele><time>2026-05-01T15:34:23.001Z</time></trkpt><trkpt lat="44.50403509906531" lon="8.705972059337391"><ele>389.5</ele><time>2026-05-01T15:34:24.001Z</time></trkpt><trkpt lat="44.504274740759676" lon="8.705817498163789"><ele>392.0</ele><time>2026-05-01T15:34:25.001Z</time></trkpt><trkpt lat="44.50451461915404" lon="8.705670250504962"><ele>391.5</ele><time>2026-05-01T15:34:26.001Z</time></trkpt><trkpt lat="44.504754384592275" lon="8.70552019531294"><ele>391.0</ele><time>2026-05-01T15:34:27.001Z</time></trkpt><trkpt lat="44.50499949330977" lon="8.705368176829964"><ele>392.0</ele><time>2026-05-01T15:34:28.001Z</time></trkpt><trkpt lat="44.505236472258154" lon="8.705221381846739"><ele>393.0</ele><time>2026-05-01T15:34:29.001Z</time></trkpt><trkpt lat="44.50547380563652" lon="8.705077745106903"><ele>390.5</ele><time>2026-05-01T15:34:30.001Z</time></trkpt><trkpt lat="44.5057146652391" lon="8.704936264066134"><ele>388.0</ele><time>2026-05-01T15:34:31.001Z</time></trkpt><trkpt lat="44.505963234272315" lon="8.704815103554772"><ele>388.0</ele><time>2026-05-01T15:34:32.001Z</time></trkpt><trkpt lat="44.506213941375655" lon="8.704706359528055"><ele>388.0</ele><time>2026-05-01T15:34:33.001Z</time></trkpt><trkpt lat="44.506464887578375" lon="8.70459661660006"><ele>387.0</ele><time>2026-05-01T15:34:34.001Z</time></trkpt><trkpt lat="44.50672014493442" lon="8.70449393631097"><ele>386.0</ele><time>2026-05-01T15:34:35.001Z</time></trkpt><trkpt lat="44.50697323059547" lon="8.704401292392038"><ele>386.5</ele><time>2026-05-01T15:34:36.001Z</time></trkpt><trkpt lat="44.507226815937734" lon="8.704298394146099"><ele>387.0</ele><time>2026-05-01T15:34:37.001Z</time></trkpt><trkpt lat="44.507474240481635" lon="8.704191967452891"><ele>387.0</ele><time>2026-05-01T15:34:38.001Z</time></trkpt><trkpt lat="44.507731267202054" lon="8.704086437531206"><ele>387.0</ele><time>2026-05-01T15:34:39.001Z</time></trkpt><trkpt lat="44.50797951776626" lon="8.703971436926171"><ele>383.0</ele><time>2026-05-01T15:34:40.001Z</time></trkpt><trkpt lat="44.508224075154686" lon="8.703858661581853"><ele>379.0</ele><time>2026-05-01T15:34:41.001Z</time></trkpt><trkpt lat="44.508473976641916" lon="8.703736242125698"><ele>379.0</ele><time>2026-05-01T15:34:42.001Z</time></trkpt><trkpt lat="44.50872188467493" lon="8.70360938005452"><ele>379.0</ele><time>2026-05-01T15:34:43.001Z</time></trkpt><trkpt lat="44.50896300170042" lon="8.70346868002923"><ele>380.0</ele><time>2026-05-01T15:34:44.001Z</time></trkpt><trkpt lat="44.50920402298316" lon="8.70332679860795"><ele>381.0</ele><time>2026-05-01T15:34:45.001Z</time></trkpt><trkpt lat="44.50944397322147" lon="8.703179445196719"><ele>379.5</ele><time>2026-05-01T15:34:46.001Z</time></trkpt><trkpt lat="44.50967591322537" lon="8.70301800431075"><ele>378.0</ele><time>2026-05-01T15:34:47Z</time></trkpt><trkpt lat="44.5099133128441" lon="8.702845497150445"><ele>380.5</ele><time>2026-05-01T15:34:48Z</time></trkpt><trkpt lat="44.51013835508984" lon="8.702665264438265"><ele>383.0</ele><time>2026-05-01T15:34:49Z</time></trkpt><trkpt lat="44.510364954757016" lon="8.702484294558928"><ele>380.0</ele><time>2026-05-01T15:34:50Z</time></trkpt><trkpt lat="44.51058678926285" lon="8.702289292947688"><ele>377.0</ele><time>2026-05-01T15:34:51Z</time></trkpt><trkpt lat="44.51080599959286" lon="8.702092644804774"><ele>377.0</ele><time>2026-05-01T15:34:52Z</time></trkpt><trkpt lat="44.511023633317144" lon="8.701890790407395"><ele>377.0</ele><time>2026-05-01T15:34:53Z</time></trkpt><trkpt lat="44.51124485586188" lon="8.701685657588554"><ele>377.0</ele><time>2026-05-01T15:34:54Z</time></trkpt><trkpt lat="44.511458337135984" lon="8.701477178278417"><ele>377.0</ele><time>2026-05-01T15:34:55Z</time></trkpt><trkpt lat="44.511677084449964" lon="8.701272895710789"><ele>378.0</ele><time>2026-05-01T15:34:56Z</time></trkpt><trkpt lat="44.511894367291816" lon="8.70107015226398"><ele>379.0</ele><time>2026-05-01T15:34:57Z</time></trkpt><trkpt lat="44.51211447019027" lon="8.700874094046142"><ele>379.0</ele><time>2026-05-01T15:34:58Z</time></trkpt><trkpt lat="44.51234236820854" lon="8.700684164198787"><ele>379.0</ele><time>2026-05-01T15:34:59Z</time></trkpt><trkpt lat="44.512578352039625" lon="8.700515802908658"><ele>379.0</ele><time>2026-05-01T15:35:00Z</time></trkpt><trkpt lat="44.512819009937445" lon="8.700366069785279"><ele>379.0</ele><time>2026-05-01T15:35:01Z</time></trkpt><trkpt lat="44.51305771103875" lon="8.7002435252567"><ele>381.5</ele><time>2026-05-01T15:35:02Z</time></trkpt><trkpt lat="44.51330622502398" lon="8.70014525477126"><ele>384.0</ele><time>2026-05-01T15:35:03Z</time></trkpt><trkpt lat="44.51355765933485" lon="8.700052658516274"><ele>380.0</ele><time>2026-05-01T15:35:04Z</time></trkpt><trkpt lat="44.51381093940826" lon="8.699962375558494"><ele>376.0</ele><time>2026-05-01T15:35:05Z</time></trkpt><trkpt lat="44.51406445994941" lon="8.699864870981514"><ele>376.0</ele><time>2026-05-01T15:35:06Z</time></trkpt><trkpt lat="44.514318330260444" lon="8.699771605932142"><ele>376.0</ele><time>2026-05-01T15:35:07Z</time></trkpt><trkpt lat="44.51456697891396" lon="8.699671627678173"><ele>376.0</ele><time>2026-05-01T15:35:08Z</time></trkpt><trkpt lat="44.51482309029678" lon="8.699572411738977"><ele>376.0</ele><time>2026-05-01T15:35:09Z</time></trkpt><trkpt lat="44.5150756911102" lon="8.699468359624172"><ele>378.5</ele><time>2026-05-01T15:35:10Z</time></trkpt><trkpt lat="44.51533107273816" lon="8.69936377667602"><ele>381.0</ele><time>2026-05-01T15:35:11Z</time></trkpt><trkpt lat="44.515580205954265" lon="8.69926364157351"><ele>381.0</ele><time>2026-05-01T15:35:12Z</time></trkpt><trkpt lat="44.51583338962211" lon="8.699161165639834"><ele>381.0</ele><time>2026-05-01T15:35:13Z</time></trkpt><trkpt lat="44.5160946674871" lon="8.699048790632133"><ele>377.0</ele><time>2026-05-01T15:35:14Z</time></trkpt><trkpt lat="44.51638030322929" lon="8.698931577170004"><ele>373.0</ele><time>2026-05-01T15:35:15Z</time></trkpt><trkpt lat="44.516656823106615" lon="8.69881228314619"><ele>373.0</ele><time>2026-05-01T15:35:16Z</time></trkpt><trkpt lat="44.51691793840439" lon="8.698710570569473"><ele>373.0</ele><time>2026-05-01T15:35:17Z</time></trkpt><trkpt lat="44.51717579856292" lon="8.698630148425842"><ele>375.5</ele><time>2026-05-01T15:35:18Z</time></trkpt><trkpt lat="44.51743374971877" lon="8.698557178254658"><ele>378.0</ele><time>2026-05-01T15:35:19Z</time></trkpt><trkpt lat="44.51769910165563" lon="8.698518882711612"><ele>376.5</ele><time>2026-05-01T15:35:20Z</time></trkpt><trkpt lat="44.5179639215279" lon="8.6985015810584"><ele>375.0</ele><time>2026-05-01T15:35:21Z</time></trkpt><trkpt lat="44.518221415902694" lon="8.698515543692904"><ele>375.0</ele><time>2026-05-01T15:35:22Z</time></trkpt><trkpt lat="44.51847576755996" lon="8.69855381226661"><ele>375.0</ele><time>2026-05-01T15:35:23Z</time></trkpt><trkpt lat="44.51872689350632" lon="8.698614463996542"><ele>372.0</ele><time>2026-05-01T15:35:24Z</time></trkpt><trkpt lat="44.51897688353979" lon="8.698689232017365"><ele>369.0</ele><time>2026-05-01T15:35:25Z</time></trkpt><trkpt lat="44.519223786388054" lon="8.698778360618906"><ele>369.0</ele><time>2026-05-01T15:35:26Z</time></trkpt><trkpt lat="44.51945936311638" lon="8.698895216434945"><ele>369.0</ele><time>2026-05-01T15:35:27Z</time></trkpt><trkpt lat="44.51969524473821" lon="8.699009667144916"><ele>372.5</ele><time>2026-05-01T15:35:28Z</time></trkpt><trkpt lat="44.51992807809043" lon="8.699124106725789"><ele>376.0</ele><time>2026-05-01T15:35:29Z</time></trkpt><trkpt lat="44.52015443975889" lon="8.699237933684214"><ele>376.0</ele><time>2026-05-01T15:35:30Z</time></trkpt><trkpt lat="44.520382410642405" lon="8.699343871529345"><ele>376.0</ele><time>2026-05-01T15:35:31Z</time></trkpt><trkpt lat="44.520609110686976" lon="8.699446262907598"><ele>371.5</ele><time>2026-05-01T15:35:32Z</time></trkpt><trkpt lat="44.52083755561892" lon="8.699550886019917"><ele>367.0</ele><time>2026-05-01T15:35:33Z</time></trkpt><trkpt lat="44.52106071022247" lon="8.699650477781097"><ele>371.3333333333333</ele><time>2026-05-01T15:35:34Z</time></trkpt><trkpt lat="44.52127908388982" lon="8.699731112689472"><ele>375.6666666666667</ele><time>2026-05-01T15:35:35Z</time></trkpt><trkpt lat="44.521493235176614" lon="8.699790706847955"><ele>380.0</ele><time>2026-05-01T15:35:36Z</time></trkpt><trkpt lat="44.521708839288195" lon="8.699836395647194"><ele>380.0</ele><time>2026-05-01T15:35:37Z</time></trkpt><trkpt lat="44.52194017567535" lon="8.6998650387668"><ele>380.0</ele><time>2026-05-01T15:35:38Z</time></trkpt><trkpt lat="44.522161802091404" lon="8.69988294466377"><ele>386.6666666666667</ele><time>2026-05-01T15:35:39Z</time></trkpt><trkpt lat="44.522386880829515" lon="8.699882336461085"><ele>393.33333333333337</ele><time>2026-05-01T15:35:40Z</time></trkpt><trkpt lat="44.52260425393205" lon="8.69988375833737"><ele>400.0</ele><time>2026-05-01T15:35:41Z</time></trkpt><trkpt lat="44.52282190722192" lon="8.699884147383823"><ele>400.33333333333337</ele><time>2026-05-01T15:35:42Z</time></trkpt><trkpt lat="44.52304397822887" lon="8.699886854754117"><ele>400.66666666666663</ele><time>2026-05-01T15:35:43.022Z</time></trkpt><trkpt lat="44.523259575113094" lon="8.699884688998258"><ele>401.0</ele><time>2026-05-01T15:35:44.019Z</time></trkpt><trkpt lat="44.52347373546776" lon="8.699872816254702"><ele>401.0</ele><time>2026-05-01T15:35:45.022Z</time></trkpt><trkpt lat="44.52369089487611" lon="8.699871348285374"><ele>401.0</ele><time>2026-05-01T15:35:46.02Z</time></trkpt><trkpt lat="44.523903439637586" lon="8.699871891376528"><ele>401.0</ele><time>2026-05-01T15:35:47Z</time></trkpt><trkpt lat="44.524089626772444" lon="8.699775447952161"><ele>397.66666666666663</ele><time>2026-05-01T15:35:48Z</time></trkpt><trkpt lat="44.52430201108324" lon="8.699740911252128"><ele>394.33333333333337</ele><time>2026-05-01T15:35:49Z</time></trkpt><trkpt lat="44.524511099048105" lon="8.6997247634043"><ele>391.0</ele><time>2026-05-01T15:35:50Z</time></trkpt><trkpt lat="44.52472450118332" lon="8.699696408560346"><ele>388.33333333333337</ele><time>2026-05-01T15:35:51Z</time></trkpt><trkpt lat="44.52494077074862" lon="8.699675845335088"><ele>385.6666666666667</ele><time>2026-05-01T15:35:52Z</time></trkpt><trkpt lat="44.525167557065295" lon="8.699653685404414"><ele>383.0</ele><time>2026-05-01T15:35:53Z</time></trkpt><trkpt lat="44.52539524234922" lon="8.699625307452049"><ele>373.5</ele><time>2026-05-01T15:35:54Z</time></trkpt><trkpt lat="44.52563125050549" lon="8.699607708496488"><ele>364.0</ele><time>2026-05-01T15:35:55Z</time></trkpt><trkpt lat="44.52586823852829" lon="8.699583104649255"><ele>364.0</ele><time>2026-05-01T15:35:56Z</time></trkpt><trkpt lat="44.526111197847364" lon="8.699561241814921"><ele>364.0</ele><time>2026-05-01T15:35:57Z</time></trkpt><trkpt lat="44.52635834879887" lon="8.699531546330086"><ele>359.5</ele><time>2026-05-01T15:35:58Z</time></trkpt><trkpt lat="44.526606773087835" lon="8.699508421833809"><ele>355.0</ele><time>2026-05-01T15:35:59Z</time></trkpt><trkpt lat="44.52685371158985" lon="8.699486106948852"><ele>354.5</ele><time>2026-05-01T15:36:00Z</time></trkpt><trkpt lat="44.52709875374402" lon="8.699447358361725"><ele>354.0</ele><time>2026-05-01T15:36:01Z</time></trkpt><trkpt lat="44.527339402414945" lon="8.69941831748287"><ele>361.0</ele><time>2026-05-01T15:36:02Z</time></trkpt><trkpt lat="44.527578969843034" lon="8.699382019349086"><ele>368.0</ele><time>2026-05-01T15:36:03Z</time></trkpt><trkpt lat="44.52780612340981" lon="8.69933312044971"><ele>366.5</ele><time>2026-05-01T15:36:04Z</time></trkpt><trkpt lat="44.528026552584635" lon="8.699271436733087"><ele>365.0</ele><time>2026-05-01T15:36:05Z</time></trkpt><trkpt lat="44.52824627336007" lon="8.69918583296748"><ele>365.0</ele><time>2026-05-01T15:36:06Z</time></trkpt><trkpt lat="44.52845498282449" lon="8.699082789592715"><ele>365.0</ele><time>2026-05-01T15:36:07Z</time></trkpt><trkpt lat="44.52865622528013" lon="8.69897096099179"><ele>365.0</ele><time>2026-05-01T15:36:08Z</time></trkpt><trkpt lat="44.52885837788213" lon="8.698856269641242"><ele>368.0</ele><time>2026-05-01T15:36:09Z</time></trkpt><trkpt lat="44.529059280402926" lon="8.698732155713545"><ele>371.0</ele><time>2026-05-01T15:36:10Z</time></trkpt><trkpt lat="44.52925200807504" lon="8.698592876575972"><ele>374.0</ele><time>2026-05-01T15:36:11Z</time></trkpt><trkpt lat="44.52944479532521" lon="8.698456725204696"><ele>385.0</ele><time>2026-05-01T15:36:12Z</time></trkpt><trkpt lat="44.52964362989954" lon="8.698316357562396"><ele>396.0</ele><time>2026-05-01T15:36:13.021Z</time></trkpt><trkpt lat="44.52983769799251" lon="8.698179997764937"><ele>407.0</ele><time>2026-05-01T15:36:14.021Z</time></trkpt><trkpt lat="44.53003030727836" lon="8.698040447483612"><ele>407.0</ele><time>2026-05-01T15:36:15.017Z</time></trkpt><trkpt lat="44.53022424405645" lon="8.697900470681114"><ele>407.0</ele><time>2026-05-01T15:36:16.02Z</time></trkpt><trkpt lat="44.53083612960254" lon="8.697571763776892"><ele>399.66666666666663</ele><time>2026-05-01T15:36:19Z</time></trkpt><trkpt lat="44.53103803132011" lon="8.697478518690739"><ele>392.33333333333337</ele><time>2026-05-01T15:36:20Z</time></trkpt><trkpt lat="44.53123918876912" lon="8.697414012828363"><ele>385.0</ele><time>2026-05-01T15:36:21Z</time></trkpt><trkpt lat="44.53141804055601" lon="8.69741910323079"><ele>385.0</ele><time>2026-05-01T15:36:22Z</time></trkpt><trkpt lat="44.53160315109894" lon="8.697364580968168"><ele>385.0</ele><time>2026-05-01T15:36:23Z</time></trkpt><trkpt lat="44.53179986173161" lon="8.697295601610021"><ele>385.0</ele><time>2026-05-01T15:36:24Z</time></trkpt><trkpt lat="44.53203068761576" lon="8.697284877278431"><ele>384.0</ele><time>2026-05-01T15:36:25.001Z</time></trkpt><trkpt lat="44.532241006126306" lon="8.697257929428769"><ele>383.0</ele><time>2026-05-01T15:36:26.001Z</time></trkpt><trkpt lat="44.53245026101056" lon="8.69723216613936"><ele>382.0</ele><time>2026-05-01T15:36:27.001Z</time></trkpt><trkpt lat="44.53265906541333" lon="8.697193018771884"><ele>382.0</ele><time>2026-05-01T15:36:28.001Z</time></trkpt><trkpt lat="44.532858496419315" lon="8.697152253823331"><ele>382.0</ele><time>2026-05-01T15:36:29.001Z</time></trkpt><trkpt lat="44.533058760990755" lon="8.697117494748412"><ele>382.0</ele><time>2026-05-01T15:36:30.001Z</time></trkpt><trkpt lat="44.53325847264517" lon="8.697083869128459"><ele>381.3333333333333</ele><time>2026-05-01T15:36:31.001Z</time></trkpt><trkpt lat="44.533460912599864" lon="8.697033437750646"><ele>380.6666666666667</ele><time>2026-05-01T15:36:32.001Z</time></trkpt><trkpt lat="44.53366369098609" lon="8.696962961485713"><ele>380.0</ele><time>2026-05-01T15:36:33.001Z</time></trkpt><trkpt lat="44.53386810694938" lon="8.696876212129407"><ele>380.0</ele><time>2026-05-01T15:36:34.001Z</time></trkpt><trkpt lat="44.53407518236756" lon="8.696771957131519"><ele>380.0</ele><time>2026-05-01T15:36:35.001Z</time></trkpt><trkpt lat="44.534282977538076" lon="8.696653442523305"><ele>380.0</ele><time>2026-05-01T15:36:36.001Z</time></trkpt><trkpt lat="44.5344975703689" lon="8.69654298151861"><ele>375.6666666666667</ele><time>2026-05-01T15:36:37.001Z</time></trkpt><trkpt lat="44.53470644086587" lon="8.696430499656808"><ele>371.3333333333333</ele><time>2026-05-01T15:36:38.001Z</time></trkpt><trkpt lat="44.534899185625605" lon="8.696314873584553"><ele>367.0</ele><time>2026-05-01T15:36:39.001Z</time></trkpt><trkpt lat="44.53508834579005" lon="8.696217447519182"><ele>367.0</ele><time>2026-05-01T15:36:40.001Z</time></trkpt><trkpt lat="44.53528248214439" lon="8.696129631451534"><ele>367.0</ele><time>2026-05-01T15:36:41.001Z</time></trkpt><trkpt lat="44.53548879909185" lon="8.696046664457029"><ele>367.0</ele><time>2026-05-01T15:36:42.001Z</time></trkpt><trkpt lat="44.535700845467254" lon="8.695970800945613"><ele>369.66666666666663</ele><time>2026-05-01T15:36:43.001Z</time></trkpt><trkpt lat="44.5359190369017" lon="8.695918864339266"><ele>372.3333333333333</ele><time>2026-05-01T15:36:44.001Z</time></trkpt><trkpt lat="44.53614078116626" lon="8.695877489783049"><ele>375.0</ele><time>2026-05-01T15:36:45.001Z</time></trkpt><trkpt lat="44.5363594459637" lon="8.695840238133595"><ele>375.0</ele><time>2026-05-01T15:36:46Z</time></trkpt><trkpt lat="44.53656961573582" lon="8.695806719912262"><ele>375.0</ele><time>2026-05-01T15:36:47Z</time></trkpt><trkpt lat="44.536774928863366" lon="8.695770863290326"><ele>375.0</ele><time>2026-05-01T15:36:48Z</time></trkpt><trkpt lat="44.536970653629204" lon="8.695730986319715"><ele>373.0</ele><time>2026-05-01T15:36:49Z</time></trkpt><trkpt lat="44.53716573243684" lon="8.69568214764636"><ele>371.0</ele><time>2026-05-01T15:36:50Z</time></trkpt><trkpt lat="44.5373631374987" lon="8.695632151470155"><ele>369.0</ele><time>2026-05-01T15:36:51Z</time></trkpt><trkpt lat="44.5375686724246" lon="8.695550517783916"><ele>369.0</ele><time>2026-05-01T15:36:52Z</time></trkpt><trkpt lat="44.53777856080124" lon="8.695453093726288"><ele>369.0</ele><time>2026-05-01T15:36:53Z</time></trkpt><trkpt lat="44.537985412847476" lon="8.695343547857638"><ele>369.0</ele><time>2026-05-01T15:36:54Z</time></trkpt><trkpt lat="44.538194363166966" lon="8.695211524152395"><ele>370.0</ele><time>2026-05-01T15:36:55Z</time></trkpt><trkpt lat="44.538402585356636" lon="8.695056868025082"><ele>371.0</ele><time>2026-05-01T15:36:56Z</time></trkpt><trkpt lat="44.538606045210024" lon="8.69487264001366"><ele>363.0</ele><time>2026-05-01T15:36:57Z</time></trkpt><trkpt lat="44.53880565143601" lon="8.694670808133193"><ele>355.0</ele><time>2026-05-01T15:36:58Z</time></trkpt><trkpt lat="44.539000435671376" lon="8.694453895128762"><ele>361.0</ele><time>2026-05-01T15:36:59Z</time></trkpt><trkpt lat="44.539183697078464" lon="8.694218179796787"><ele>367.0</ele><time>2026-05-01T15:37:00Z</time></trkpt><trkpt lat="44.539370150719485" lon="8.693998176946941"><ele>364.0</ele><time>2026-05-01T15:37:01Z</time></trkpt><trkpt lat="44.53955937874577" lon="8.693787716608746"><ele>361.0</ele><time>2026-05-01T15:37:02Z</time></trkpt><trkpt lat="44.53969147013321" lon="8.693463320246755"><ele>361.0</ele><time>2026-05-01T15:37:03Z</time></trkpt><trkpt lat="44.539848797717944" lon="8.693223513882337"><ele>361.0</ele><time>2026-05-01T15:37:04Z</time></trkpt><trkpt lat="44.53999387715072" lon="8.692994359831964"><ele>361.0</ele><time>2026-05-01T15:37:05Z</time></trkpt><trkpt lat="44.54014327375433" lon="8.692773785320725"><ele>361.0</ele><time>2026-05-01T15:37:06Z</time></trkpt><trkpt lat="44.54028504560271" lon="8.692568484237356"><ele>361.0</ele><time>2026-05-01T15:37:07Z</time></trkpt><trkpt lat="44.54041962397647" lon="8.692351514329493"><ele>359.66666666666663</ele><time>2026-05-01T15:37:08Z</time></trkpt><trkpt lat="44.540542570174054" lon="8.692124414731055"><ele>358.3333333333333</ele><time>2026-05-01T15:37:09Z</time></trkpt><trkpt lat="44.54065968982894" lon="8.69189301782136"><ele>357.0</ele><time>2026-05-01T15:37:10Z</time></trkpt><trkpt lat="44.54077595089686" lon="8.691647219685354"><ele>362.0</ele><time>2026-05-01T15:37:11Z</time></trkpt><trkpt lat="44.54088370430004" lon="8.69138872310897"><ele>367.0</ele><time>2026-05-01T15:37:12Z</time></trkpt><trkpt lat="44.5409849594187" lon="8.691120191985545"><ele>372.0</ele><time>2026-05-01T15:37:13Z</time></trkpt><trkpt lat="44.541079166536775" lon="8.690848344345882"><ele>378.0</ele><time>2026-05-01T15:37:14Z</time></trkpt><trkpt lat="44.541173808347274" lon="8.690569310741816"><ele>384.0</ele><time>2026-05-01T15:37:15.022Z</time></trkpt><trkpt lat="44.541266960997746" lon="8.690301058859127"><ele>390.0</ele><time>2026-05-01T15:37:16.017Z</time></trkpt><trkpt lat="44.54136096772077" lon="8.690032950467803"><ele>399.0</ele><time>2026-05-01T15:37:17.019Z</time></trkpt><trkpt lat="44.541452248624914" lon="8.689763601132734"><ele>408.0</ele><time>2026-05-01T15:37:18.018Z</time></trkpt><trkpt lat="44.54154111572154" lon="8.689489495186042"><ele>417.0</ele><time>2026-05-01T15:37:19.022Z</time></trkpt><trkpt lat="44.541630904994925" lon="8.689217560454924"><ele>434.0</ele><time>2026-05-01T15:37:20.02Z</time></trkpt><trkpt lat="44.542688171342625" lon="8.686137484458062"><ele>433.5</ele><time>2026-05-01T15:37:32.622Z</time></trkpt><trkpt lat="44.54273210670263" lon="8.686009177727549"><ele>433.0</ele><time>2026-05-01T15:37:33.213Z</time></trkpt><trkpt lat="44.542061551515516" lon="8.680526912220456"><ele>399.6666666666667</ele><time>2026-05-01T15:37:47Z</time></trkpt><trkpt lat="44.54210020763769" lon="8.680255175908876"><ele>366.33333333333337</ele><time>2026-05-01T15:37:48Z</time></trkpt><trkpt lat="44.54217749837697" lon="8.679990371227172"><ele>333.0</ele><time>2026-05-01T15:37:49Z</time></trkpt><trkpt lat="44.542245472426146" lon="8.679733900930694"><ele>333.0</ele><time>2026-05-01T15:37:50Z</time></trkpt><trkpt lat="44.542301421554384" lon="8.679492659784826"><ele>333.0</ele><time>2026-05-01T15:37:51Z</time></trkpt><trkpt lat="44.54236841760105" lon="8.679262068096214"><ele>333.0</ele><time>2026-05-01T15:37:52Z</time></trkpt><trkpt lat="44.542454604529794" lon="8.679044233073208"><ele>339.3333333333333</ele><time>2026-05-01T15:37:53Z</time></trkpt><trkpt lat="44.542548113136014" lon="8.6788340423011"><ele>345.66666666666663</ele><time>2026-05-01T15:37:54Z</time></trkpt><trkpt lat="44.54264664153544" lon="8.678601523712153"><ele>352.0</ele><time>2026-05-01T15:37:55Z</time></trkpt><trkpt lat="44.54275491634634" lon="8.67837918333328"><ele>350.66666666666663</ele><time>2026-05-01T15:37:56Z</time></trkpt><trkpt lat="44.54287040512685" lon="8.678164875407584"><ele>349.3333333333333</ele><time>2026-05-01T15:37:57Z</time></trkpt><trkpt lat="44.542988777529686" lon="8.677961765647067"><ele>348.0</ele><time>2026-05-01T15:37:58Z</time></trkpt><trkpt lat="44.543109496260264" lon="8.677765339907282"><ele>353.0</ele><time>2026-05-01T15:37:59Z</time></trkpt><trkpt lat="44.54323413000455" lon="8.677581038345007"><ele>358.0</ele><time>2026-05-01T15:38:00Z</time></trkpt><trkpt lat="44.54335901683953" lon="8.677394211254681"><ele>363.0</ele><time>2026-05-01T15:38:01Z</time></trkpt><trkpt lat="44.54348242252395" lon="8.677211497148175"><ele>363.0</ele><time>2026-05-01T15:38:02Z</time></trkpt><trkpt lat="44.543601488840245" lon="8.677026603277078"><ele>363.0</ele><time>2026-05-01T15:38:03Z</time></trkpt><trkpt lat="44.54373075258656" lon="8.676844133228174"><ele>363.0</ele><time>2026-05-01T15:38:04Z</time></trkpt><trkpt lat="44.54385826733933" lon="8.676659760997545"><ele>365.3333333333333</ele><time>2026-05-01T15:38:05Z</time></trkpt><trkpt lat="44.54398967347857" lon="8.67646623938168"><ele>367.66666666666663</ele><time>2026-05-01T15:38:06Z</time></trkpt><trkpt lat="44.54413044742729" lon="8.676264913832375"><ele>370.0</ele><time>2026-05-01T15:38:07Z</time></trkpt><trkpt lat="44.54427324254172" lon="8.676070197490908"><ele>371.66666666666663</ele><time>2026-05-01T15:38:08Z</time></trkpt><trkpt lat="44.544423773958506" lon="8.675880253459578"><ele>373.3333333333333</ele><time>2026-05-01T15:38:09Z</time></trkpt><trkpt lat="44.54457405210487" lon="8.675687109487525"><ele>375.0</ele><time>2026-05-01T15:38:10Z</time></trkpt><trkpt lat="44.544729645780855" lon="8.675481312101969"><ele>373.3333333333333</ele><time>2026-05-01T15:38:11Z</time></trkpt><trkpt lat="44.54488965597842" lon="8.675274720438749"><ele>371.66666666666663</ele><time>2026-05-01T15:38:12Z</time></trkpt><trkpt lat="44.5450431452815" lon="8.67506046509397"><ele>370.0</ele><time>2026-05-01T15:38:13Z</time></trkpt><trkpt lat="44.54519048057506" lon="8.674846791604688"><ele>370.0</ele><time>2026-05-01T15:38:14Z</time></trkpt><trkpt lat="44.54533025970672" lon="8.674655053045665"><ele>370.0</ele><time>2026-05-01T15:38:15Z</time></trkpt><trkpt lat="44.545466810735036" lon="8.674470378394473"><ele>370.0</ele><time>2026-05-01T15:38:16Z</time></trkpt><trkpt lat="44.54560271526229" lon="8.674294999706866"><ele>370.0</ele><time>2026-05-01T15:38:17Z</time></trkpt><trkpt lat="44.54574060870244" lon="8.674119627845727"><ele>370.0</ele><time>2026-05-01T15:38:18Z</time></trkpt><trkpt lat="44.54587575648719" lon="8.673952657616232"><ele>370.0</ele><time>2026-05-01T15:38:19Z</time></trkpt><trkpt lat="44.54601610209221" lon="8.673783389010236"><ele>370.0</ele><time>2026-05-01T15:38:20Z</time></trkpt><trkpt lat="44.54615954114097" lon="8.673619522270846"><ele>370.0</ele><time>2026-05-01T15:38:21Z</time></trkpt><trkpt lat="44.54630447080285" lon="8.673459338623427"><ele>370.0</ele><time>2026-05-01T15:38:22Z</time></trkpt><trkpt lat="44.54645589531265" lon="8.673308995963772"><ele>368.66666666666663</ele><time>2026-05-01T15:38:23Z</time></trkpt><trkpt lat="44.54659809936716" lon="8.673167626284064"><ele>367.3333333333333</ele><time>2026-05-01T15:38:24Z</time></trkpt><trkpt lat="44.5467362826344" lon="8.673033019246136"><ele>366.0</ele><time>2026-05-01T15:38:25Z</time></trkpt><trkpt lat="44.54687766967848" lon="8.672901986063376"><ele>366.0</ele><time>2026-05-01T15:38:26Z</time></trkpt><trkpt lat="44.54701777929144" lon="8.672773001947283"><ele>366.0</ele><time>2026-05-01T15:38:27Z</time></trkpt><trkpt lat="44.547160254217914" lon="8.672647521825839"><ele>366.0</ele><time>2026-05-01T15:38:28Z</time></trkpt><trkpt lat="44.54730350224374" lon="8.672525655468677"><ele>364.0</ele><time>2026-05-01T15:38:29Z</time></trkpt><trkpt lat="44.54744691604292" lon="8.672404226935168"><ele>362.0</ele><time>2026-05-01T15:38:30Z</time></trkpt><trkpt lat="44.547591681044025" lon="8.6722830159926"><ele>360.0</ele><time>2026-05-01T15:38:31.001Z</time></trkpt><trkpt lat="44.54774407091493" lon="8.672159624529778"><ele>364.3333333333333</ele><time>2026-05-01T15:38:32.001Z</time></trkpt><trkpt lat="44.5479024467628" lon="8.672040915635423"><ele>368.66666666666663</ele><time>2026-05-01T15:38:33.001Z</time></trkpt><trkpt lat="44.54806880522081" lon="8.671929414366916"><ele>373.0</ele><time>2026-05-01T15:38:34.001Z</time></trkpt><trkpt lat="44.54824574465742" lon="8.671824700623702"><ele>373.0</ele><time>2026-05-01T15:38:35.001Z</time></trkpt><trkpt lat="44.54842761397654" lon="8.671724158865429"><ele>373.0</ele><time>2026-05-01T15:38:36.001Z</time></trkpt><trkpt lat="44.54861664626776" lon="8.671611924888241"><ele>373.0</ele><time>2026-05-01T15:38:37.001Z</time></trkpt><trkpt lat="44.548811434073734" lon="8.67150169668731"><ele>377.0</ele><time>2026-05-01T15:38:38.001Z</time></trkpt><trkpt lat="44.549018122855244" lon="8.671393497326655"><ele>381.0</ele><time>2026-05-01T15:38:39.021Z</time></trkpt><trkpt lat="44.549225853351764" lon="8.67129100897471"><ele>385.0</ele><time>2026-05-01T15:38:40.016Z</time></trkpt><trkpt lat="44.549440164218915" lon="8.671192356341782"><ele>407.5</ele><time>2026-05-01T15:38:41.02Z</time></trkpt><trkpt lat="44.549653975874705" lon="8.671090960964436"><ele>430.0</ele><time>2026-05-01T15:38:42.021Z</time></trkpt><trkpt lat="44.55288828820414" lon="8.670334601782887"><ele>387.0</ele><time>2026-05-01T15:38:54Z</time></trkpt><trkpt lat="44.5531680640665" lon="8.670254273649455"><ele>344.0</ele><time>2026-05-01T15:38:55Z</time></trkpt><trkpt lat="44.5534090030846" lon="8.670148287798161"><ele>344.0</ele><time>2026-05-01T15:38:56Z</time></trkpt><trkpt lat="44.55368196512786" lon="8.6700448120667"><ele>344.0</ele><time>2026-05-01T15:38:57Z</time></trkpt><trkpt lat="44.553947620364134" lon="8.669945542998807"><ele>343.5</ele><time>2026-05-01T15:38:58Z</time></trkpt><trkpt lat="44.554224369039105" lon="8.669845605906575"><ele>343.0</ele><time>2026-05-01T15:38:59Z</time></trkpt><trkpt lat="44.554494373111766" lon="8.669742263582288"><ele>341.5</ele><time>2026-05-01T15:39:00Z</time></trkpt><trkpt lat="44.554770943547574" lon="8.669639219561224"><ele>340.0</ele><time>2026-05-01T15:39:01Z</time></trkpt><trkpt lat="44.55504424027128" lon="8.669528828555096"><ele>344.0</ele><time>2026-05-01T15:39:02Z</time></trkpt><trkpt lat="44.55532027595686" lon="8.669418504480623"><ele>348.0</ele><time>2026-05-01T15:39:03Z</time></trkpt><trkpt lat="44.55559667008747" lon="8.669311390639225"><ele>348.0</ele><time>2026-05-01T15:39:04Z</time></trkpt><trkpt lat="44.55586954136813" lon="8.669207532537406"><ele>348.0</ele><time>2026-05-01T15:39:05Z</time></trkpt><trkpt lat="44.556141860265576" lon="8.669101662641452"><ele>348.0</ele><time>2026-05-01T15:39:06Z</time></trkpt><trkpt lat="44.55641714024175" lon="8.66899738095969"><ele>348.0</ele><time>2026-05-01T15:39:07Z</time></trkpt><trkpt lat="44.556691665942395" lon="8.668891029190426"><ele>348.0</ele><time>2026-05-01T15:39:08Z</time></trkpt><trkpt lat="44.55697250981653" lon="8.668777037374795"><ele>348.0</ele><time>2026-05-01T15:39:09Z</time></trkpt><trkpt lat="44.557251099010145" lon="8.66866621976825"><ele>352.5</ele><time>2026-05-01T15:39:10Z</time></trkpt><trkpt lat="44.557526923226206" lon="8.668556948243161"><ele>357.0</ele><time>2026-05-01T15:39:11Z</time></trkpt><trkpt lat="44.557808282306674" lon="8.668449082509323"><ele>358.0</ele><time>2026-05-01T15:39:12Z</time></trkpt><trkpt lat="44.55808574659592" lon="8.668334395812796"><ele>359.0</ele><time>2026-05-01T15:39:13Z</time></trkpt><trkpt lat="44.55835068150457" lon="8.66819056273292"><ele>359.0</ele><time>2026-05-01T15:39:14Z</time></trkpt><trkpt lat="44.55864503404407" lon="8.668110290217511"><ele>359.0</ele><time>2026-05-01T15:39:15Z</time></trkpt><trkpt lat="44.55892723830125" lon="8.668003446947356"><ele>358.5</ele><time>2026-05-01T15:39:16Z</time></trkpt><trkpt lat="44.559210730916014" lon="8.667891358195668"><ele>358.0</ele><time>2026-05-01T15:39:17Z</time></trkpt><trkpt lat="44.55949230590065" lon="8.667787925261376"><ele>356.5</ele><time>2026-05-01T15:39:18Z</time></trkpt><trkpt lat="44.55977418517315" lon="8.667681908932028"><ele>355.0</ele><time>2026-05-01T15:39:19Z</time></trkpt><trkpt lat="44.56005278236503" lon="8.667559297810103"><ele>355.0</ele><time>2026-05-01T15:39:20Z</time></trkpt><trkpt lat="44.560324184781784" lon="8.667431699147704"><ele>355.0</ele><time>2026-05-01T15:39:21Z</time></trkpt><trkpt lat="44.56058839308231" lon="8.667299820260556"><ele>357.5</ele><time>2026-05-01T15:39:22Z</time></trkpt><trkpt lat="44.56083561989681" lon="8.667155483379762"><ele>360.0</ele><time>2026-05-01T15:39:23Z</time></trkpt><trkpt lat="44.56107330549844" lon="8.666993524902276"><ele>365.5</ele><time>2026-05-01T15:39:24Z</time></trkpt><trkpt lat="44.56130483102183" lon="8.666827398935354"><ele>371.0</ele><time>2026-05-01T15:39:25Z</time></trkpt><trkpt lat="44.56154155002713" lon="8.66666013948672"><ele>371.0</ele><time>2026-05-01T15:39:26.015Z</time></trkpt><trkpt lat="44.5617575027999" lon="8.666470386415298"><ele>371.0</ele><time>2026-05-01T15:39:27.018Z</time></trkpt><trkpt lat="44.56194935700506" lon="8.666242912253384"><ele>364.5</ele><time>2026-05-01T15:39:28.015Z</time></trkpt><trkpt lat="44.5621266581316" lon="8.666013907108411"><ele>358.0</ele><time>2026-05-01T15:39:29.022Z</time></trkpt><trkpt lat="44.5623796121144" lon="8.665533592604339"><ele>363.0</ele><time>2026-05-01T15:39:30Z</time></trkpt><trkpt lat="44.56256652622463" lon="8.665240483710242"><ele>368.0</ele><time>2026-05-01T15:39:31Z</time></trkpt><trkpt lat="44.562771916064285" lon="8.664919091442563"><ele>383.0</ele><time>2026-05-01T15:39:32Z</time></trkpt><trkpt lat="44.56297734332985" lon="8.664592519018743"><ele>398.0</ele><time>2026-05-01T15:39:33.021Z</time></trkpt><trkpt lat="44.56319228455162" lon="8.664293690928963"><ele>402.5</ele><time>2026-05-01T15:39:34.02Z</time></trkpt><trkpt lat="44.56342000162935" lon="8.664009062682162"><ele>407.0</ele><time>2026-05-01T15:39:35.021Z</time></trkpt><trkpt lat="44.56365217807222" lon="8.663748572029297"><ele>396.5</ele><time>2026-05-01T15:39:36.018Z</time></trkpt><trkpt lat="44.56388942939198" lon="8.663508040511925"><ele>386.0</ele><time>2026-05-01T15:39:37.017Z</time></trkpt><trkpt lat="44.565739386307484" lon="8.66246103923743"><ele>374.5</ele><time>2026-05-01T15:39:40.817Z</time></trkpt><trkpt lat="44.5658347" lon="8.6624253"><ele>363.0</ele><time>2026-05-01T15:39:41.815Z</time></trkpt><trkpt lat="44.56658591054805" lon="8.662127042197307"><ele>347.5</ele><time>2026-05-01T15:39:48Z</time></trkpt><trkpt lat="44.566858696271325" lon="8.662026467047447"><ele>332.0</ele><time>2026-05-01T15:39:49Z</time></trkpt><trkpt lat="44.567143748423234" lon="8.661915239435611"><ele>320.5</ele><time>2026-05-01T15:39:50Z</time></trkpt><trkpt lat="44.56741953726361" lon="8.661814160336062"><ele>309.0</ele><time>2026-05-01T15:39:51Z</time></trkpt><trkpt lat="44.567691341318586" lon="8.661720216035304"><ele>312.5</ele><time>2026-05-01T15:39:52Z</time></trkpt><trkpt lat="44.567968477379786" lon="8.661624211112825"><ele>316.0</ele><time>2026-05-01T15:39:53Z</time></trkpt><trkpt lat="44.56824008578608" lon="8.661533014559382"><ele>316.0</ele><time>2026-05-01T15:39:54Z</time></trkpt><trkpt lat="44.568511076415625" lon="8.661424448430306"><ele>316.0</ele><time>2026-05-01T15:39:55Z</time></trkpt><trkpt lat="44.56878942556853" lon="8.661329655083163"><ele>333.0</ele><time>2026-05-01T15:39:56Z</time></trkpt><trkpt lat="44.56907009978594" lon="8.661221354409651"><ele>350.0</ele><time>2026-05-01T15:39:57Z</time></trkpt><trkpt lat="44.569352853073994" lon="8.661102996848806"><ele>365.5</ele><time>2026-05-01T15:39:58Z</time></trkpt><trkpt lat="44.569635664619284" lon="8.660981471922618"><ele>381.0</ele><time>2026-05-01T15:39:59Z</time></trkpt><trkpt lat="44.5699240230424" lon="8.660857425965395"><ele>381.0</ele><time>2026-05-01T15:40:00.017Z</time></trkpt><trkpt lat="44.57020031270834" lon="8.660735370003229"><ele>381.0</ele><time>2026-05-01T15:40:01.017Z</time></trkpt><trkpt lat="44.57049026359983" lon="8.66062891963826"><ele>390.5</ele><time>2026-05-01T15:40:02.017Z</time></trkpt><trkpt lat="44.570779190554255" lon="8.660523815583126"><ele>400.0</ele><time>2026-05-01T15:40:03.019Z</time></trkpt><trkpt lat="44.57275520600153" lon="8.659898106998453"><ele>377.0</ele><time>2026-05-01T15:40:06.817Z</time></trkpt><trkpt lat="44.57372615524399" lon="8.659642619442504"><ele>331.0</ele><time>2026-05-01T15:40:07.815Z</time></trkpt><trkpt lat="44.574708551044836" lon="8.65945307479544"><ele>337.5</ele><time>2026-05-01T15:40:08.817Z</time></trkpt><trkpt lat="44.5748174" lon="8.6594329"><ele>344.0</ele><time>2026-05-01T15:40:09.818Z</time></trkpt><trkpt lat="44.57551309843042" lon="8.659559916712958"><ele>330.0</ele><time>2026-05-01T15:40:20Z</time></trkpt><trkpt lat="44.57579879457146" lon="8.659510617169358"><ele>316.0</ele><time>2026-05-01T15:40:21Z</time></trkpt><trkpt lat="44.57605175513664" lon="8.659185056362919"><ele>319.5</ele><time>2026-05-01T15:40:22Z</time></trkpt><trkpt lat="44.57631547031963" lon="8.659165303163535"><ele>323.0</ele><time>2026-05-01T15:40:23Z</time></trkpt><trkpt lat="44.57658086403991" lon="8.659144026858362"><ele>323.0</ele><time>2026-05-01T15:40:24Z</time></trkpt><trkpt lat="44.57684848456871" lon="8.659131651712293"><ele>323.0</ele><time>2026-05-01T15:40:25Z</time></trkpt><trkpt lat="44.57711902865862" lon="8.659119348614412"><ele>330.5</ele><time>2026-05-01T15:40:26Z</time></trkpt><trkpt lat="44.577393537944495" lon="8.659108421867925"><ele>338.0</ele><time>2026-05-01T15:40:27.016Z</time></trkpt><trkpt lat="44.577663016286586" lon="8.659098060880117"><ele>332.5</ele><time>2026-05-01T15:40:28.016Z</time></trkpt><trkpt lat="44.577921312535196" lon="8.659170793187819"><ele>327.0</ele><time>2026-05-01T15:40:29.017Z</time></trkpt><trkpt lat="44.578183878987836" lon="8.659234251270469"><ele>327.0</ele><time>2026-05-01T15:40:30.016Z</time></trkpt><trkpt lat="44.5784328657808" lon="8.659314502240585"><ele>327.0</ele><time>2026-05-01T15:40:31.017Z</time></trkpt><trkpt lat="44.57896602344194" lon="8.659654967494923"><ele>312.0</ele><time>2026-05-01T15:40:33Z</time></trkpt><trkpt lat="44.57921462273536" lon="8.659765159375578"><ele>297.0</ele><time>2026-05-01T15:40:34Z</time></trkpt><trkpt lat="44.579441012777544" lon="8.659906265624434"><ele>315.5</ele><time>2026-05-01T15:40:35Z</time></trkpt><trkpt lat="44.579668703912375" lon="8.660049335358858"><ele>334.0</ele><time>2026-05-01T15:40:36Z</time></trkpt><trkpt lat="44.579920405705536" lon="8.660189620143267"><ele>327.5</ele><time>2026-05-01T15:40:37Z</time></trkpt><trkpt lat="44.58017430236933" lon="8.660335219939636"><ele>321.0</ele><time>2026-05-01T15:40:38.016Z</time></trkpt><trkpt lat="44.58252696145636" lon="8.662993399402094"><ele>273.0</ele><time>2026-05-01T15:40:42.816Z</time></trkpt><trkpt lat="44.583269669715854" lon="8.664060663439951"><ele>273.0</ele><time>2026-05-01T15:40:52.999Z</time></trkpt><trkpt lat="44.58347114955052" lon="8.664303851952015"><ele>273.0</ele><time>2026-05-01T15:40:54Z</time></trkpt><trkpt lat="44.583812042822515" lon="8.66433419643168"><ele>261.0</ele><time>2026-05-01T15:40:55Z</time></trkpt><trkpt lat="44.58403417991519" lon="8.664499593631158"><ele>249.0</ele><time>2026-05-01T15:40:56Z</time></trkpt><trkpt lat="44.584260506989104" lon="8.664625058498052"><ele>249.0</ele><time>2026-05-01T15:40:57Z</time></trkpt><trkpt lat="44.584483098139266" lon="8.664751631889459"><ele>249.0</ele><time>2026-05-01T15:40:58Z</time></trkpt><trkpt lat="44.58471523340426" lon="8.66485395964457"><ele>250.0</ele><time>2026-05-01T15:40:59Z</time></trkpt><trkpt lat="44.58495500515061" lon="8.664951647743234"><ele>251.0</ele><time>2026-05-01T15:41:00Z</time></trkpt><trkpt lat="44.5851924497304" lon="8.665033654955687"><ele>254.5</ele><time>2026-05-01T15:41:01Z</time></trkpt><trkpt lat="44.585441548188015" lon="8.665088510209216"><ele>258.0</ele><time>2026-05-01T15:41:02Z</time></trkpt><trkpt lat="44.5856943769155" lon="8.665128692656644"><ele>258.0</ele><time>2026-05-01T15:41:03Z</time></trkpt><trkpt lat="44.58595343016736" lon="8.665152106135523"><ele>258.0</ele><time>2026-05-01T15:41:04Z</time></trkpt><trkpt lat="44.58621190372393" lon="8.665148655554468"><ele>256.5</ele><time>2026-05-01T15:41:05Z</time></trkpt><trkpt lat="44.58648305779505" lon="8.665125642633964"><ele>255.0</ele><time>2026-05-01T15:41:06Z</time></trkpt><trkpt lat="44.58675497391767" lon="8.665079571054326"><ele>254.0</ele><time>2026-05-01T15:41:07Z</time></trkpt><trkpt lat="44.58703137727946" lon="8.665010289394868"><ele>253.0</ele><time>2026-05-01T15:41:08Z</time></trkpt><trkpt lat="44.587300949917946" lon="8.66492954742014"><ele>253.0</ele><time>2026-05-01T15:41:09Z</time></trkpt><trkpt lat="44.58756999126475" lon="8.664838713390417"><ele>253.0</ele><time>2026-05-01T15:41:10Z</time></trkpt><trkpt lat="44.58784557487731" lon="8.66475679103722"><ele>253.0</ele><time>2026-05-01T15:41:11Z</time></trkpt><trkpt lat="44.58812395441675" lon="8.66467864801836"><ele>253.0</ele><time>2026-05-01T15:41:12Z</time></trkpt><trkpt lat="44.58839846912115" lon="8.664610690948315"><ele>253.0</ele><time>2026-05-01T15:41:13Z</time></trkpt><trkpt lat="44.588674736931054" lon="8.664560298078623"><ele>253.0</ele><time>2026-05-01T15:41:14Z</time></trkpt><trkpt lat="44.58895903045996" lon="8.664535153267547"><ele>250.5</ele><time>2026-05-01T15:41:15Z</time></trkpt><trkpt lat="44.58923732053313" lon="8.664526203418298"><ele>248.0</ele><time>2026-05-01T15:41:16Z</time></trkpt><trkpt lat="44.5895123786214" lon="8.664532422960187"><ele>245.5</ele><time>2026-05-01T15:41:17Z</time></trkpt><trkpt lat="44.58978835093533" lon="8.664557280025582"><ele>243.0</ele><time>2026-05-01T15:41:18Z</time></trkpt><trkpt lat="44.590060346488805" lon="8.664597324791819"><ele>243.0</ele><time>2026-05-01T15:41:19Z</time></trkpt><trkpt lat="44.59033419196313" lon="8.664657484587975"><ele>243.0</ele><time>2026-05-01T15:41:20Z</time></trkpt><trkpt lat="44.59060060257443" lon="8.664733570367762"><ele>243.0</ele><time>2026-05-01T15:41:21Z</time></trkpt><trkpt lat="44.59086661926388" lon="8.664819112046228"><ele>243.0</ele><time>2026-05-01T15:41:22Z</time></trkpt><trkpt lat="44.591133035407786" lon="8.664922470212522"><ele>241.0</ele><time>2026-05-01T15:41:23Z</time></trkpt><trkpt lat="44.59139176989273" lon="8.665042857565526"><ele>239.0</ele><time>2026-05-01T15:41:24Z</time></trkpt><trkpt lat="44.59164922355353" lon="8.665176247423025"><ele>238.5</ele><time>2026-05-01T15:41:25Z</time></trkpt><trkpt lat="44.591905229326564" lon="8.665319225706561"><ele>238.0</ele><time>2026-05-01T15:41:26Z</time></trkpt><trkpt lat="44.592156067317596" lon="8.665462983329723"><ele>238.0</ele><time>2026-05-01T15:41:27Z</time></trkpt><trkpt lat="44.59240964339769" lon="8.665615657311376"><ele>238.0</ele><time>2026-05-01T15:41:28Z</time></trkpt><trkpt lat="44.59266240667419" lon="8.665755125494485"><ele>238.0</ele><time>2026-05-01T15:41:29Z</time></trkpt><trkpt lat="44.59290487528435" lon="8.665885082488103"><ele>238.0</ele><time>2026-05-01T15:41:30Z</time></trkpt><trkpt lat="44.59314845952513" lon="8.666019113212785"><ele>240.0</ele><time>2026-05-01T15:41:31Z</time></trkpt><trkpt lat="44.593400655112106" lon="8.666165548578343"><ele>242.0</ele><time>2026-05-01T15:41:32Z</time></trkpt><trkpt lat="44.593657484944494" lon="8.666317274972949"><ele>240.0</ele><time>2026-05-01T15:41:33Z</time></trkpt><trkpt lat="44.59390947194127" lon="8.666470436039331"><ele>238.0</ele><time>2026-05-01T15:41:34Z</time></trkpt><trkpt lat="44.59415560632501" lon="8.666621879721323"><ele>238.0</ele><time>2026-05-01T15:41:35Z</time></trkpt><trkpt lat="44.594392142946774" lon="8.666767964754392"><ele>238.0</ele><time>2026-05-01T15:41:36Z</time></trkpt><trkpt lat="44.594636149646014" lon="8.666904304577063"><ele>240.5</ele><time>2026-05-01T15:41:37Z</time></trkpt><trkpt lat="44.59489134663525" lon="8.667017960359495"><ele>243.0</ele><time>2026-05-01T15:41:38Z</time></trkpt><trkpt lat="44.59514992666603" lon="8.667118292697394"><ele>240.5</ele><time>2026-05-01T15:41:39Z</time></trkpt><trkpt lat="44.59541827094466" lon="8.667186677493106"><ele>238.0</ele><time>2026-05-01T15:41:40Z</time></trkpt><trkpt lat="44.5956847678219" lon="8.667233266798624"><ele>238.0</ele><time>2026-05-01T15:41:41Z</time></trkpt><trkpt lat="44.595944301883854" lon="8.667263061652223"><ele>238.0</ele><time>2026-05-01T15:41:42Z</time></trkpt><trkpt lat="44.596222398701805" lon="8.667268152270603"><ele>238.5</ele><time>2026-05-01T15:41:43Z</time></trkpt><trkpt lat="44.59649112126369" lon="8.667265726267042"><ele>239.0</ele><time>2026-05-01T15:41:44Z</time></trkpt><trkpt lat="44.596764813325386" lon="8.667257754601437"><ele>240.5</ele><time>2026-05-01T15:41:45Z</time></trkpt><trkpt lat="44.59703699901557" lon="8.667245664369641"><ele>242.0</ele><time>2026-05-01T15:41:46Z</time></trkpt><trkpt lat="44.59731413206793" lon="8.667242804253132"><ele>242.0</ele><time>2026-05-01T15:41:47Z</time></trkpt><trkpt lat="44.597584701368284" lon="8.66724511929328"><ele>242.0</ele><time>2026-05-01T15:41:48Z</time></trkpt><trkpt lat="44.59785964690432" lon="8.667246849983727"><ele>241.0</ele><time>2026-05-01T15:41:49Z</time></trkpt><trkpt lat="44.59813565913563" lon="8.667242631473627"><ele>240.0</ele><time>2026-05-01T15:41:50Z</time></trkpt><trkpt lat="44.59842110275723" lon="8.667237758511423"><ele>239.5</ele><time>2026-05-01T15:41:51Z</time></trkpt><trkpt lat="44.5986884694337" lon="8.66722907791034"><ele>239.0</ele><time>2026-05-01T15:41:52Z</time></trkpt><trkpt lat="44.59896712165475" lon="8.667217579093194"><ele>239.0</ele><time>2026-05-01T15:41:53Z</time></trkpt><trkpt lat="44.59922747262754" lon="8.667201437196404"><ele>239.0</ele><time>2026-05-01T15:41:54Z</time></trkpt><trkpt lat="44.599495891845336" lon="8.667169644323888"><ele>240.5</ele><time>2026-05-01T15:41:55Z</time></trkpt><trkpt lat="44.59976137033807" lon="8.667123727074495"><ele>242.0</ele><time>2026-05-01T15:41:56Z</time></trkpt><trkpt lat="44.60002046614623" lon="8.667047243722065"><ele>242.0</ele><time>2026-05-01T15:41:57Z</time></trkpt><trkpt lat="44.600267980773516" lon="8.666945082899044"><ele>242.0</ele><time>2026-05-01T15:41:58Z</time></trkpt><trkpt lat="44.60050291306817" lon="8.666833867627473"><ele>237.0</ele><time>2026-05-01T15:41:59Z</time></trkpt><trkpt lat="44.600741840674424" lon="8.66669524617886"><ele>232.0</ele><time>2026-05-01T15:42:00Z</time></trkpt><trkpt lat="44.600964411479644" lon="8.666544786501587"><ele>237.0</ele><time>2026-05-01T15:42:01Z</time></trkpt><trkpt lat="44.601177580558904" lon="8.666367032800956"><ele>242.0</ele><time>2026-05-01T15:42:02Z</time></trkpt><trkpt lat="44.60139434471733" lon="8.666175195151252"><ele>236.5</ele><time>2026-05-01T15:42:03Z</time></trkpt><trkpt lat="44.60158041591812" lon="8.665979148176799"><ele>231.0</ele><time>2026-05-01T15:42:04Z</time></trkpt><trkpt lat="44.60175942229641" lon="8.665760801901959"><ele>231.0</ele><time>2026-05-01T15:42:05Z</time></trkpt><trkpt lat="44.60193659897668" lon="8.665532217677274"><ele>231.0</ele><time>2026-05-01T15:42:06Z</time></trkpt><trkpt lat="44.60211312197125" lon="8.66529048438128"><ele>232.5</ele><time>2026-05-01T15:42:07Z</time></trkpt><trkpt lat="44.60228955179297" lon="8.665031662666035"><ele>234.0</ele><time>2026-05-01T15:42:08Z</time></trkpt><trkpt lat="44.60247746933957" lon="8.664782730133156"><ele>234.0</ele><time>2026-05-01T15:42:09Z</time></trkpt><trkpt lat="44.60268109980654" lon="8.664549487296425"><ele>234.0</ele><time>2026-05-01T15:42:10Z</time></trkpt><trkpt lat="44.602907712081795" lon="8.664321041328863"><ele>231.5</ele><time>2026-05-01T15:42:11Z</time></trkpt><trkpt lat="44.603149148119535" lon="8.664111359523105"><ele>229.0</ele><time>2026-05-01T15:42:12Z</time></trkpt><trkpt lat="44.6033922295678" lon="8.663922824559284"><ele>231.5</ele><time>2026-05-01T15:42:13Z</time></trkpt><trkpt lat="44.6036695493019" lon="8.663776916143767"><ele>234.0</ele><time>2026-05-01T15:42:14Z</time></trkpt><trkpt lat="44.60394291454372" lon="8.663631095661085"><ele>229.0</ele><time>2026-05-01T15:42:15Z</time></trkpt><trkpt lat="44.60423435702218" lon="8.663559658351149"><ele>224.0</ele><time>2026-05-01T15:42:16Z</time></trkpt><trkpt lat="44.60451529703965" lon="8.663463703075571"><ele>224.0</ele><time>2026-05-01T15:42:17Z</time></trkpt><trkpt lat="44.60479408486955" lon="8.663410460898818"><ele>224.0</ele><time>2026-05-01T15:42:18Z</time></trkpt><trkpt lat="44.605081207982806" lon="8.663358197631968"><ele>225.5</ele><time>2026-05-01T15:42:19Z</time></trkpt><trkpt lat="44.60538821047322" lon="8.663323610551142"><ele>227.0</ele><time>2026-05-01T15:42:20Z</time></trkpt><trkpt lat="44.60568775851465" lon="8.663298861365007"><ele>227.0</ele><time>2026-05-01T15:42:21Z</time></trkpt><trkpt lat="44.605985304950075" lon="8.663247817194364"><ele>227.0</ele><time>2026-05-01T15:42:22Z</time></trkpt><trkpt lat="44.60628119412297" lon="8.663207856491262"><ele>226.5</ele><time>2026-05-01T15:42:23Z</time></trkpt><trkpt lat="44.606586962913916" lon="8.663153795051997"><ele>226.0</ele><time>2026-05-01T15:42:24Z</time></trkpt><trkpt lat="44.6068803346698" lon="8.663103781550477"><ele>222.5</ele><time>2026-05-01T15:42:25Z</time></trkpt><trkpt lat="44.607178195816296" lon="8.663051613385138"><ele>219.0</ele><time>2026-05-01T15:42:26Z</time></trkpt><trkpt lat="44.60745619619911" lon="8.662977242281118"><ele>219.0</ele><time>2026-05-01T15:42:27Z</time></trkpt><trkpt lat="44.60774588616166" lon="8.662872783603218"><ele>219.0</ele><time>2026-05-01T15:42:28Z</time></trkpt><trkpt lat="44.60802899915612" lon="8.662740150620055"><ele>240.0</ele><time>2026-05-01T15:42:29Z</time></trkpt><trkpt lat="44.6083126096412" lon="8.66255355613885"><ele>261.0</ele><time>2026-05-01T15:42:29.999Z</time></trkpt><trkpt lat="44.60858516117105" lon="8.662358666632345"><ele>287.0</ele><time>2026-05-01T15:42:30.999Z</time></trkpt><trkpt lat="44.60885628698232" lon="8.662162236544036"><ele>313.0</ele><time>2026-05-01T15:42:31.999Z</time></trkpt><trkpt lat="44.60912963578726" lon="8.661976256057553"><ele>318.5</ele><time>2026-05-01T15:42:33.02Z</time></trkpt><trkpt lat="44.60940226266927" lon="8.661780206505979"><ele>324.0</ele><time>2026-05-01T15:42:34.018Z</time></trkpt><trkpt lat="44.60964665872144" lon="8.661574767821683"><ele>324.0</ele><time>2026-05-01T15:42:35.015Z</time></trkpt><trkpt lat="44.60991744947143" lon="8.661370270946495"><ele>324.0</ele><time>2026-05-01T15:42:36.02Z</time></trkpt><trkpt lat="44.61238498974037" lon="8.659657276280361"><ele>253.0</ele><time>2026-05-01T15:42:46.399Z</time></trkpt><trkpt lat="44.61264132526201" lon="8.658298607923703"><ele>253.0</ele><time>2026-05-01T15:42:47.999Z</time></trkpt><trkpt lat="44.612841162318496" lon="8.658080275885618"><ele>253.0</ele><time>2026-05-01T15:42:48.999Z</time></trkpt><trkpt lat="44.613042171379334" lon="8.657849563049915"><ele>248.0</ele><time>2026-05-01T15:42:49.999Z</time></trkpt><trkpt lat="44.6132657832543" lon="8.65764397862557"><ele>243.0</ele><time>2026-05-01T15:42:50.999Z</time></trkpt><trkpt lat="44.61348328402521" lon="8.657441108699802"><ele>240.5</ele><time>2026-05-01T15:42:51.999Z</time></trkpt><trkpt lat="44.613716940095806" lon="8.657248174738312"><ele>238.0</ele><time>2026-05-01T15:42:52.999Z</time></trkpt><trkpt lat="44.613960709125735" lon="8.657105717144944"><ele>238.0</ele><time>2026-05-01T15:42:53.999Z</time></trkpt><trkpt lat="44.614210427756966" lon="8.656953445147064"><ele>238.0</ele><time>2026-05-01T15:42:54.999Z</time></trkpt><trkpt lat="44.61447225520046" lon="8.656799038144088"><ele>230.5</ele><time>2026-05-01T15:42:55.999Z</time></trkpt><trkpt lat="44.614733250992565" lon="8.656661209313405"><ele>223.0</ele><time>2026-05-01T15:42:56.999Z</time></trkpt><trkpt lat="44.61500931107593" lon="8.65654803205712"><ele>223.0</ele><time>2026-05-01T15:42:57.999Z</time></trkpt><trkpt lat="44.61529567343223" lon="8.656440370031117"><ele>223.0</ele><time>2026-05-01T15:42:58.999Z</time></trkpt><trkpt lat="44.61559425103968" lon="8.656352093272286"><ele>218.5</ele><time>2026-05-01T15:43:00Z</time></trkpt><trkpt lat="44.61588622222112" lon="8.656282251701851"><ele>214.0</ele><time>2026-05-01T15:43:01Z</time></trkpt><trkpt lat="44.616179277313215" lon="8.656208472856834"><ele>214.0</ele><time>2026-05-01T15:43:02Z</time></trkpt><trkpt lat="44.61643436162837" lon="8.656132135552943"><ele>214.0</ele><time>2026-05-01T15:43:03Z</time></trkpt><trkpt lat="44.61669800558436" lon="8.656054892873932"><ele>208.5</ele><time>2026-05-01T15:43:04Z</time></trkpt><trkpt lat="44.61695653731746" lon="8.655978585689443"><ele>203.0</ele><time>2026-05-01T15:43:05Z</time></trkpt><trkpt lat="44.61722635904458" lon="8.655916214667581"><ele>215.5</ele><time>2026-05-01T15:43:06Z</time></trkpt><trkpt lat="44.6174990145469" lon="8.655869433819722"><ele>228.0</ele><time>2026-05-01T15:43:07Z</time></trkpt><trkpt lat="44.617769042876226" lon="8.655856346416451"><ele>226.0</ele><time>2026-05-01T15:43:08Z</time></trkpt><trkpt lat="44.61803600498861" lon="8.655860499782088"><ele>224.0</ele><time>2026-05-01T15:43:09Z</time></trkpt><trkpt lat="44.61829759688957" lon="8.655866728823387"><ele>224.0</ele><time>2026-05-01T15:43:10Z</time></trkpt><trkpt lat="44.618560213693925" lon="8.655872626427223"><ele>224.0</ele><time>2026-05-01T15:43:11Z</time></trkpt><trkpt lat="44.61886156538503" lon="8.656045698652276"><ele>227.5</ele><time>2026-05-01T15:43:12Z</time></trkpt><trkpt lat="44.619143266085615" lon="8.656169919111903"><ele>231.0</ele><time>2026-05-01T15:43:13Z</time></trkpt><trkpt lat="44.61942172641307" lon="8.656305360476956"><ele>222.5</ele><time>2026-05-01T15:43:14Z</time></trkpt><trkpt lat="44.61969111972111" lon="8.656439331207277"><ele>214.0</ele><time>2026-05-01T15:43:15Z</time></trkpt><trkpt lat="44.619964685741806" lon="8.656579985313538"><ele>214.0</ele><time>2026-05-01T15:43:16Z</time></trkpt><trkpt lat="44.620214696054845" lon="8.656709620461598"><ele>214.0</ele><time>2026-05-01T15:43:17Z</time></trkpt><trkpt lat="44.62045687376701" lon="8.656831478419162"><ele>206.0</ele><time>2026-05-01T15:43:18Z</time></trkpt><trkpt lat="44.620700007863306" lon="8.656940651754123"><ele>198.0</ele><time>2026-05-01T15:43:19Z</time></trkpt><trkpt lat="44.62091548857642" lon="8.657040258729735"><ele>209.33333333333331</ele><time>2026-05-01T15:43:20Z</time></trkpt><trkpt lat="44.62112894536425" lon="8.657135669284319"><ele>220.66666666666666</ele><time>2026-05-01T15:43:21Z</time></trkpt><trkpt lat="44.62133167921035" lon="8.657232502741719"><ele>232.0</ele><time>2026-05-01T15:43:22Z</time></trkpt><trkpt lat="44.621526951012974" lon="8.657318633333514"><ele>238.0</ele><time>2026-05-01T15:43:23Z</time></trkpt><trkpt lat="44.62172963583762" lon="8.657398599387173"><ele>244.0</ele><time>2026-05-01T15:43:24Z</time></trkpt><trkpt lat="44.62194720593644" lon="8.657480263473444"><ele>250.0</ele><time>2026-05-01T15:43:25Z</time></trkpt><trkpt lat="44.62216822724348" lon="8.657564959065521"><ele>262.0</ele><time>2026-05-01T15:43:26.021Z</time></trkpt><trkpt lat="44.62238236234501" lon="8.657644751958713"><ele>274.0</ele><time>2026-05-01T15:43:27.019Z</time></trkpt><trkpt lat="44.62262592764798" lon="8.657731877302973"><ele>269.0</ele><time>2026-05-01T15:43:28.02Z</time></trkpt><trkpt lat="44.62286156283933" lon="8.657770941636237"><ele>264.0</ele><time>2026-05-01T15:43:29.019Z</time></trkpt><trkpt lat="44.62488539438172" lon="8.65789148856623"><ele>248.66666666666669</ele><time>2026-05-01T15:43:32.815Z</time></trkpt><trkpt lat="44.6250346396534" lon="8.657887307935075"><ele>233.33333333333334</ele><time>2026-05-01T15:43:36Z</time></trkpt><trkpt lat="44.625326606347734" lon="8.657914944215515"><ele>218.0</ele><time>2026-05-01T15:43:37Z</time></trkpt><trkpt lat="44.62567709914366" lon="8.65798915168584"><ele>214.5</ele><time>2026-05-01T15:43:38Z</time></trkpt><trkpt lat="44.62590414153396" lon="8.657946543292555"><ele>211.0</ele><time>2026-05-01T15:43:39Z</time></trkpt><trkpt lat="44.62619460256902" lon="8.657956465449121"><ele>210.5</ele><time>2026-05-01T15:43:40Z</time></trkpt><trkpt lat="44.62652167814417" lon="8.65805238514162"><ele>210.0</ele><time>2026-05-01T15:43:41Z</time></trkpt><trkpt lat="44.62682314446612" lon="8.658149284744077"><ele>209.0</ele><time>2026-05-01T15:43:42Z</time></trkpt><trkpt lat="44.62711850002282" lon="8.658260206959827"><ele>208.0</ele><time>2026-05-01T15:43:43Z</time></trkpt><trkpt lat="44.62741443618448" lon="8.658394453786896"><ele>208.0</ele><time>2026-05-01T15:43:44Z</time></trkpt><trkpt lat="44.62770693084622" lon="8.658553281281915"><ele>208.0</ele><time>2026-05-01T15:43:45Z</time></trkpt><trkpt lat="44.627990559993165" lon="8.658729168366825"><ele>207.5</ele><time>2026-05-01T15:43:46Z</time></trkpt><trkpt lat="44.62827138002098" lon="8.658914653915215"><ele>207.0</ele><time>2026-05-01T15:43:47Z</time></trkpt><trkpt lat="44.62854841808315" lon="8.659117555245325"><ele>206.0</ele><time>2026-05-01T15:43:48Z</time></trkpt><trkpt lat="44.62881600414611" lon="8.65933374974231"><ele>205.0</ele><time>2026-05-01T15:43:49Z</time></trkpt><trkpt lat="44.62908192359915" lon="8.659571906152824"><ele>207.0</ele><time>2026-05-01T15:43:50Z</time></trkpt><trkpt lat="44.62933364079451" lon="8.659821396412147"><ele>209.0</ele><time>2026-05-01T15:43:51Z</time></trkpt><trkpt lat="44.6295873285005" lon="8.660067001683192"><ele>211.0</ele><time>2026-05-01T15:43:52Z</time></trkpt><trkpt lat="44.62983464290877" lon="8.660299884945747"><ele>213.0</ele><time>2026-05-01T15:43:53Z</time></trkpt><trkpt lat="44.63008056082604" lon="8.660527384357904"><ele>213.0</ele><time>2026-05-01T15:43:54Z</time></trkpt><trkpt lat="44.63032819516269" lon="8.660753139981571"><ele>213.0</ele><time>2026-05-01T15:43:55Z</time></trkpt><trkpt lat="44.63057430736163" lon="8.66098325159058"><ele>217.5</ele><time>2026-05-01T15:43:56Z</time></trkpt><trkpt lat="44.630816776089034" lon="8.661207234876962"><ele>222.0</ele><time>2026-05-01T15:43:57Z</time></trkpt><trkpt lat="44.63105958058882" lon="8.66143239766182"><ele>221.0</ele><time>2026-05-01T15:43:58Z</time></trkpt><trkpt lat="44.631301075324416" lon="8.661654547499714"><ele>220.0</ele><time>2026-05-01T15:43:59Z</time></trkpt><trkpt lat="44.631537009026175" lon="8.661869123167975"><ele>219.0</ele><time>2026-05-01T15:44:00Z</time></trkpt><trkpt lat="44.63177680750644" lon="8.662074184736277"><ele>218.0</ele><time>2026-05-01T15:44:01Z</time></trkpt><trkpt lat="44.63202509812266" lon="8.662253561579869"><ele>218.0</ele><time>2026-05-01T15:44:02Z</time></trkpt><trkpt lat="44.632282555945196" lon="8.662423554245574"><ele>218.0</ele><time>2026-05-01T15:44:03Z</time></trkpt><trkpt lat="44.63254157392607" lon="8.662570875315609"><ele>212.0</ele><time>2026-05-01T15:44:04Z</time></trkpt><trkpt lat="44.63280928973829" lon="8.662691150631563"><ele>206.0</ele><time>2026-05-01T15:44:05Z</time></trkpt><trkpt lat="44.63307762294211" lon="8.662794481952863"><ele>205.5</ele><time>2026-05-01T15:44:06Z</time></trkpt><trkpt lat="44.63334483683526" lon="8.662875884990749"><ele>205.0</ele><time>2026-05-01T15:44:07Z</time></trkpt><trkpt lat="44.63360766161495" lon="8.662943135610321"><ele>208.5</ele><time>2026-05-01T15:44:08Z</time></trkpt><trkpt lat="44.63386833447" lon="8.662989478457092"><ele>212.0</ele><time>2026-05-01T15:44:09Z</time></trkpt><trkpt lat="44.63412865865609" lon="8.663016715688547"><ele>212.0</ele><time>2026-05-01T15:44:10Z</time></trkpt><trkpt lat="44.63438715426927" lon="8.663028680712054"><ele>212.0</ele><time>2026-05-01T15:44:11Z</time></trkpt><trkpt lat="44.63464279425464" lon="8.66302426578105"><ele>223.5</ele><time>2026-05-01T15:44:12Z</time></trkpt><trkpt lat="44.63489688403535" lon="8.663002985470966"><ele>235.0</ele><time>2026-05-01T15:44:13Z</time></trkpt><trkpt lat="44.63515051872979" lon="8.662960874294134"><ele>243.0</ele><time>2026-05-01T15:44:14Z</time></trkpt><trkpt lat="44.63539766284864" lon="8.662912470336295"><ele>251.0</ele><time>2026-05-01T15:44:15Z</time></trkpt><trkpt lat="44.63564080881893" lon="8.662844959334521"><ele>247.5</ele><time>2026-05-01T15:44:16Z</time></trkpt><trkpt lat="44.63588496428386" lon="8.662771360341084"><ele>244.0</ele><time>2026-05-01T15:44:17Z</time></trkpt><trkpt lat="44.63612892399042" lon="8.662703271834415"><ele>247.0</ele><time>2026-05-01T15:44:18Z</time></trkpt><trkpt lat="44.63637851332043" lon="8.662635224347794"><ele>250.0</ele><time>2026-05-01T15:44:19.018Z</time></trkpt><trkpt lat="44.63662308562913" lon="8.66256505286006"><ele>250.0</ele><time>2026-05-01T15:44:20.017Z</time></trkpt><trkpt lat="44.63686974417083" lon="8.66249139583047"><ele>250.0</ele><time>2026-05-01T15:44:21.015Z</time></trkpt><trkpt lat="44.63711817268643" lon="8.662422295877262"><ele>246.0</ele><time>2026-05-01T15:44:22.016Z</time></trkpt><trkpt lat="44.63978704069242" lon="8.661311063923558"><ele>246.0</ele><time>2026-05-01T15:44:32.999Z</time></trkpt><trkpt lat="44.64004912509658" lon="8.661214311673316"><ele>246.0</ele><time>2026-05-01T15:44:33.999Z</time></trkpt><trkpt lat="44.64028959337965" lon="8.661143716219415"><ele>244.5</ele><time>2026-05-01T15:44:34.999Z</time></trkpt><trkpt lat="44.64056672952814" lon="8.661057120321587"><ele>243.0</ele><time>2026-05-01T15:44:35.999Z</time></trkpt><trkpt lat="44.640839354737196" lon="8.660960211179367"><ele>243.0</ele><time>2026-05-01T15:44:36.999Z</time></trkpt><trkpt lat="44.6411168929988" lon="8.660854751540235"><ele>243.0</ele><time>2026-05-01T15:44:37.999Z</time></trkpt><trkpt lat="44.641400732658525" lon="8.66075936318759"><ele>241.5</ele><time>2026-05-01T15:44:38.999Z</time></trkpt><trkpt lat="44.64168499644219" lon="8.660663429415639"><ele>240.0</ele><time>2026-05-01T15:44:39.999Z</time></trkpt><trkpt lat="44.64196586289463" lon="8.660573374073469"><ele>240.0</ele><time>2026-05-01T15:44:40.999Z</time></trkpt><trkpt lat="44.64224920467414" lon="8.660500688271982"><ele>240.0</ele><time>2026-05-01T15:44:41.999Z</time></trkpt><trkpt lat="44.64253664705385" lon="8.66045453857384"><ele>236.0</ele><time>2026-05-01T15:44:42.999Z</time></trkpt><trkpt lat="44.64282101457335" lon="8.66043512267494"><ele>232.0</ele><time>2026-05-01T15:44:43.999Z</time></trkpt><trkpt lat="44.64311809024888" lon="8.660437382207292"><ele>232.0</ele><time>2026-05-01T15:44:44.999Z</time></trkpt><trkpt lat="44.64340712969037" lon="8.660458210526174"><ele>232.0</ele><time>2026-05-01T15:44:45.999Z</time></trkpt><trkpt lat="44.64369979713943" lon="8.660493188493932"><ele>232.0</ele><time>2026-05-01T15:44:46.999Z</time></trkpt><trkpt lat="44.64400045977521" lon="8.660550764409308"><ele>232.0</ele><time>2026-05-01T15:44:47.999Z</time></trkpt><trkpt lat="44.64429950745472" lon="8.660627775332559"><ele>233.0</ele><time>2026-05-01T15:44:48.999Z</time></trkpt><trkpt lat="44.64459862041981" lon="8.660706397128722"><ele>234.0</ele><time>2026-05-01T15:44:49.999Z</time></trkpt><trkpt lat="44.64489798243022" lon="8.660794542801986"><ele>234.0</ele><time>2026-05-01T15:44:50.999Z</time></trkpt><trkpt lat="44.645192010403385" lon="8.660881803097451"><ele>234.0</ele><time>2026-05-01T15:44:51.999Z</time></trkpt><trkpt lat="44.6454882471114" lon="8.660967098817453"><ele>232.0</ele><time>2026-05-01T15:44:52.999Z</time></trkpt><trkpt lat="44.64577986148966" lon="8.661057236130581"><ele>230.0</ele><time>2026-05-01T15:44:53.999Z</time></trkpt><trkpt lat="44.64605999123025" lon="8.661139749888813"><ele>226.5</ele><time>2026-05-01T15:44:54.999Z</time></trkpt><trkpt lat="44.64632251103128" lon="8.6612250397255"><ele>223.0</ele><time>2026-05-01T15:44:55.999Z</time></trkpt><trkpt lat="44.64657613165188" lon="8.66130129715239"><ele>223.0</ele><time>2026-05-01T15:44:56.999Z</time></trkpt><trkpt lat="44.646820418352505" lon="8.661370391731674"><ele>223.0</ele><time>2026-05-01T15:44:57.999Z</time></trkpt><trkpt lat="44.647047204114834" lon="8.661434090156144"><ele>222.66666666666666</ele><time>2026-05-01T15:44:58.999Z</time></trkpt><trkpt lat="44.6472689702125" lon="8.661495945621398"><ele>222.33333333333331</ele><time>2026-05-01T15:44:59.999Z</time></trkpt><trkpt lat="44.647484349372334" lon="8.661557743420408"><ele>222.0</ele><time>2026-05-01T15:45:00.999Z</time></trkpt><trkpt lat="44.64769490143034" lon="8.661614743761625"><ele>221.66666666666669</ele><time>2026-05-01T15:45:01.999Z</time></trkpt><trkpt lat="44.647903355305324" lon="8.661667237893852"><ele>221.33333333333334</ele><time>2026-05-01T15:45:02.999Z</time></trkpt><trkpt lat="44.648112267026015" lon="8.661710913183981"><ele>221.0</ele><time>2026-05-01T15:45:03.999Z</time></trkpt><trkpt lat="44.648334121943904" lon="8.66174883019823"><ele>221.0</ele><time>2026-05-01T15:45:04.999Z</time></trkpt><trkpt lat="44.64856143518792" lon="8.661774177815886"><ele>221.0</ele><time>2026-05-01T15:45:06Z</time></trkpt><trkpt lat="44.6487873656607" lon="8.66179139369692"><ele>217.5</ele><time>2026-05-01T15:45:07Z</time></trkpt><trkpt lat="44.649023554028794" lon="8.661802129573454"><ele>214.0</ele><time>2026-05-01T15:45:08Z</time></trkpt><trkpt lat="44.64925516408901" lon="8.66180182805599"><ele>209.5</ele><time>2026-05-01T15:45:09Z</time></trkpt><trkpt lat="44.64948927548175" lon="8.6617869347426"><ele>205.0</ele><time>2026-05-01T15:45:10Z</time></trkpt><trkpt lat="44.64972015199396" lon="8.661759750772946"><ele>205.0</ele><time>2026-05-01T15:45:11Z</time></trkpt><trkpt lat="44.64995048798575" lon="8.6617094785057"><ele>205.0</ele><time>2026-05-01T15:45:12Z</time></trkpt><trkpt lat="44.65017588839519" lon="8.661657537994854"><ele>208.5</ele><time>2026-05-01T15:45:13Z</time></trkpt><trkpt lat="44.65039469571511" lon="8.661593573863712"><ele>212.0</ele><time>2026-05-01T15:45:14Z</time></trkpt><trkpt lat="44.65061490980057" lon="8.661506060844482"><ele>212.0</ele><time>2026-05-01T15:45:15Z</time></trkpt><trkpt lat="44.650833592163764" lon="8.661414372985734"><ele>212.0</ele><time>2026-05-01T15:45:16Z</time></trkpt><trkpt lat="44.651048905462055" lon="8.661307056804281"><ele>212.33333333333334</ele><time>2026-05-01T15:45:17Z</time></trkpt><trkpt lat="44.6512558503408" lon="8.661192237626347"><ele>212.66666666666669</ele><time>2026-05-01T15:45:18Z</time></trkpt><trkpt lat="44.651464713843964" lon="8.661078424758871"><ele>213.0</ele><time>2026-05-01T15:45:19Z</time></trkpt><trkpt lat="44.65167735195726" lon="8.660950359505431"><ele>211.0</ele><time>2026-05-01T15:45:20Z</time></trkpt><trkpt lat="44.651891958499306" lon="8.660823552686002"><ele>209.0</ele><time>2026-05-01T15:45:21Z</time></trkpt><trkpt lat="44.65211007693649" lon="8.66070559639778"><ele>209.0</ele><time>2026-05-01T15:45:22Z</time></trkpt><trkpt lat="44.652329231648544" lon="8.660573908848926"><ele>209.0</ele><time>2026-05-01T15:45:23Z</time></trkpt><trkpt lat="44.65255734045762" lon="8.660444623548797"><ele>209.0</ele><time>2026-05-01T15:45:24Z</time></trkpt><trkpt lat="44.652788283963574" lon="8.660320788291845"><ele>209.0</ele><time>2026-05-01T15:45:25Z</time></trkpt><trkpt lat="44.653018925435106" lon="8.660199201430652"><ele>206.0</ele><time>2026-05-01T15:45:26Z</time></trkpt><trkpt lat="44.653258882550645" lon="8.660092945132815"><ele>203.0</ele><time>2026-05-01T15:45:27Z</time></trkpt><trkpt lat="44.65349581541804" lon="8.659994896039613"><ele>200.0</ele><time>2026-05-01T15:45:28Z</time></trkpt><trkpt lat="44.65372732480601" lon="8.659912084887793"><ele>197.0</ele><time>2026-05-01T15:45:29Z</time></trkpt><trkpt lat="44.65394261404797" lon="8.659841722807618"><ele>197.0</ele><time>2026-05-01T15:45:30Z</time></trkpt><trkpt lat="44.65415051966714" lon="8.659781965848376"><ele>197.0</ele><time>2026-05-01T15:45:31Z</time></trkpt><trkpt lat="44.65435882597218" lon="8.659726659498734"><ele>197.0</ele><time>2026-05-01T15:45:32Z</time></trkpt><trkpt lat="44.65457102600997" lon="8.659681287331527"><ele>195.5</ele><time>2026-05-01T15:45:33Z</time></trkpt><trkpt lat="44.65479382123757" lon="8.659641031841609"><ele>194.0</ele><time>2026-05-01T15:45:34Z</time></trkpt><trkpt lat="44.65502685928277" lon="8.65960646270409"><ele>194.0</ele><time>2026-05-01T15:45:35Z</time></trkpt><trkpt lat="44.65526932806984" lon="8.65957051584465"><ele>194.0</ele><time>2026-05-01T15:45:36Z</time></trkpt><trkpt lat="44.65551858492335" lon="8.659540732943173"><ele>193.5</ele><time>2026-05-01T15:45:37Z</time></trkpt><trkpt lat="44.65578240557632" lon="8.659516066185718"><ele>193.0</ele><time>2026-05-01T15:45:38Z</time></trkpt><trkpt lat="44.65604174719313" lon="8.65948656180599"><ele>194.5</ele><time>2026-05-01T15:45:39Z</time></trkpt><trkpt lat="44.65629964282576" lon="8.659456996899225"><ele>196.0</ele><time>2026-05-01T15:45:40Z</time></trkpt><trkpt lat="44.65654967560842" lon="8.659423925048106"><ele>192.5</ele><time>2026-05-01T15:45:41Z</time></trkpt><trkpt lat="44.65680042536789" lon="8.659395459458949"><ele>189.0</ele><time>2026-05-01T15:45:42Z</time></trkpt><trkpt lat="44.657058101136236" lon="8.659366582388484"><ele>187.0</ele><time>2026-05-01T15:45:43Z</time></trkpt><trkpt lat="44.657308950167106" lon="8.659336840292603"><ele>185.0</ele><time>2026-05-01T15:45:44Z</time></trkpt><trkpt lat="44.65756662446688" lon="8.659308100905724"><ele>181.5</ele><time>2026-05-01T15:45:45Z</time></trkpt><trkpt lat="44.65782668623094" lon="8.659279449347702"><ele>178.0</ele><time>2026-05-01T15:45:46Z</time></trkpt><trkpt lat="44.658085957177065" lon="8.659255706368652"><ele>178.0</ele><time>2026-05-01T15:45:47Z</time></trkpt><trkpt lat="44.65835391770528" lon="8.65922666290638"><ele>178.0</ele><time>2026-05-01T15:45:48Z</time></trkpt><trkpt lat="44.658620508343546" lon="8.659196303163904"><ele>178.0</ele><time>2026-05-01T15:45:49Z</time></trkpt><trkpt lat="44.658882586030394" lon="8.659169623226381"><ele>178.0</ele><time>2026-05-01T15:45:50Z</time></trkpt><trkpt lat="44.65914085284575" lon="8.659138430894517"><ele>178.0</ele><time>2026-05-01T15:45:51Z</time></trkpt><trkpt lat="44.65940000203507" lon="8.659110630204369"><ele>178.0</ele><time>2026-05-01T15:45:52Z</time></trkpt><trkpt lat="44.659661075022036" lon="8.659080807421532"><ele>177.0</ele><time>2026-05-01T15:45:53Z</time></trkpt><trkpt lat="44.65992501257387" lon="8.659049807906827"><ele>176.0</ele><time>2026-05-01T15:45:54Z</time></trkpt><trkpt lat="44.66018936383085" lon="8.659022877554461"><ele>176.0</ele><time>2026-05-01T15:45:55Z</time></trkpt><trkpt lat="44.66045417034908" lon="8.658999675720533"><ele>176.0</ele><time>2026-05-01T15:45:56Z</time></trkpt><trkpt lat="44.660717719616535" lon="8.658981124677767"><ele>176.0</ele><time>2026-05-01T15:45:57Z</time></trkpt><trkpt lat="44.66098231910062" lon="8.658970046950522"><ele>176.0</ele><time>2026-05-01T15:45:58Z</time></trkpt><trkpt lat="44.661243508187944" lon="8.658963807137518"><ele>175.5</ele><time>2026-05-01T15:45:59Z</time></trkpt><trkpt lat="44.661505134941805" lon="8.65897209399712"><ele>175.0</ele><time>2026-05-01T15:46:00Z</time></trkpt><trkpt lat="44.6617578508579" lon="8.658987301794529"><ele>174.5</ele><time>2026-05-01T15:46:01Z</time></trkpt><trkpt lat="44.66199693003699" lon="8.65900996159116"><ele>174.0</ele><time>2026-05-01T15:46:02Z</time></trkpt><trkpt lat="44.662233955771384" lon="8.659024345489996"><ele>174.0</ele><time>2026-05-01T15:46:03Z</time></trkpt><trkpt lat="44.66246637278217" lon="8.659051957004982"><ele>174.0</ele><time>2026-05-01T15:46:04Z</time></trkpt><trkpt lat="44.662707213215235" lon="8.659085415058456"><ele>173.0</ele><time>2026-05-01T15:46:05Z</time></trkpt><trkpt lat="44.66294427784229" lon="8.659126238023385"><ele>172.0</ele><time>2026-05-01T15:46:06Z</time></trkpt><trkpt lat="44.66317974447987" lon="8.659160454655892"><ele>172.0</ele><time>2026-05-01T15:46:07Z</time></trkpt><trkpt lat="44.663413645221624" lon="8.659203837779119"><ele>172.0</ele><time>2026-05-01T15:46:08Z</time></trkpt><trkpt lat="44.6636501239817" lon="8.659249684235336"><ele>172.5</ele><time>2026-05-01T15:46:09Z</time></trkpt><trkpt lat="44.663888844729634" lon="8.659293363368228"><ele>173.0</ele><time>2026-05-01T15:46:10Z</time></trkpt><trkpt lat="44.66412807020678" lon="8.659340353953928"><ele>173.0</ele><time>2026-05-01T15:46:11Z</time></trkpt><trkpt lat="44.66437370755191" lon="8.65938759782796"><ele>173.0</ele><time>2026-05-01T15:46:12Z</time></trkpt><trkpt lat="44.66461340341896" lon="8.659436773988748"><ele>172.5</ele><time>2026-05-01T15:46:13Z</time></trkpt><trkpt lat="44.66485474834598" lon="8.659485535052251"><ele>172.0</ele><time>2026-05-01T15:46:14Z</time></trkpt><trkpt lat="44.66509568439774" lon="8.659534628226714"><ele>171.0</ele><time>2026-05-01T15:46:15Z</time></trkpt><trkpt lat="44.66533786761443" lon="8.659580230209967"><ele>170.0</ele><time>2026-05-01T15:46:16Z</time></trkpt><trkpt lat="44.66558057658642" lon="8.659632855353504"><ele>170.0</ele><time>2026-05-01T15:46:17Z</time></trkpt><trkpt lat="44.665820586612305" lon="8.659681042058544"><ele>170.0</ele><time>2026-05-01T15:46:18Z</time></trkpt><trkpt lat="44.66607169978895" lon="8.659700261558262"><ele>169.0</ele><time>2026-05-01T15:46:19Z</time></trkpt><trkpt lat="44.666308056753344" lon="8.659767090732911"><ele>168.0</ele><time>2026-05-01T15:46:19.999Z</time></trkpt><trkpt lat="44.666533851825484" lon="8.659819697312676"><ele>168.0</ele><time>2026-05-01T15:46:20.999Z</time></trkpt><trkpt lat="44.66676446377706" lon="8.659867452679563"><ele>168.0</ele><time>2026-05-01T15:46:21.999Z</time></trkpt><trkpt lat="44.66699829573496" lon="8.659914450386108"><ele>167.5</ele><time>2026-05-01T15:46:22.999Z</time></trkpt><trkpt lat="44.66723356671423" lon="8.659956210145026"><ele>167.0</ele><time>2026-05-01T15:46:23.999Z</time></trkpt><trkpt lat="44.66747251227226" lon="8.659994927438326"><ele>167.0</ele><time>2026-05-01T15:46:24.999Z</time></trkpt><trkpt lat="44.66771393401809" lon="8.660027299172818"><ele>167.0</ele><time>2026-05-01T15:46:25.999Z</time></trkpt><trkpt lat="44.6679526480057" lon="8.660048797149722"><ele>167.5</ele><time>2026-05-01T15:46:26.999Z</time></trkpt><trkpt lat="44.66819450068013" lon="8.660065715875936"><ele>168.0</ele><time>2026-05-01T15:46:27.999Z</time></trkpt><trkpt lat="44.668432273793655" lon="8.660072479605578"><ele>167.0</ele><time>2026-05-01T15:46:28.999Z</time></trkpt><trkpt lat="44.668661387449944" lon="8.660069213104151"><ele>166.0</ele><time>2026-05-01T15:46:29.999Z</time></trkpt><trkpt lat="44.66888222937603" lon="8.660058596276098"><ele>166.0</ele><time>2026-05-01T15:46:30.999Z</time></trkpt><trkpt lat="44.66912217057911" lon="8.660051038663347"><ele>166.0</ele><time>2026-05-01T15:46:31.999Z</time></trkpt><trkpt lat="44.669345626328784" lon="8.660033548684032"><ele>163.5</ele><time>2026-05-01T15:46:32.999Z</time></trkpt><trkpt lat="44.66957299684195" lon="8.660010152991584"><ele>161.0</ele><time>2026-05-01T15:46:33.999Z</time></trkpt><trkpt lat="44.669800290137196" lon="8.659979071295941"><ele>161.0</ele><time>2026-05-01T15:46:34.999Z</time></trkpt><trkpt lat="44.6700249616826" lon="8.659942366175374"><ele>161.0</ele><time>2026-05-01T15:46:35.999Z</time></trkpt><trkpt lat="44.67024771731093" lon="8.659903402613606"><ele>159.66666666666666</ele><time>2026-05-01T15:46:36.999Z</time></trkpt><trkpt lat="44.67046569535473" lon="8.659852033694905"><ele>158.33333333333334</ele><time>2026-05-01T15:46:37.999Z</time></trkpt><trkpt lat="44.670681710295746" lon="8.659796866774077"><ele>157.0</ele><time>2026-05-01T15:46:38.999Z</time></trkpt><trkpt lat="44.67089811898965" lon="8.65973112306372"><ele>156.0</ele><time>2026-05-01T15:46:39.999Z</time></trkpt><trkpt lat="44.67111552624792" lon="8.659662944439724"><ele>155.0</ele><time>2026-05-01T15:46:40.999Z</time></trkpt><trkpt lat="44.67133043909921" lon="8.659589929882314"><ele>154.0</ele><time>2026-05-01T15:46:41.999Z</time></trkpt><trkpt lat="44.67154643312332" lon="8.659512669268823"><ele>154.0</ele><time>2026-05-01T15:46:42.999Z</time></trkpt><trkpt lat="44.67176226287141" lon="8.659432896606324"><ele>154.0</ele><time>2026-05-01T15:46:43.999Z</time></trkpt><trkpt lat="44.671983070678415" lon="8.659358976521824"><ele>154.0</ele><time>2026-05-01T15:46:44.999Z</time></trkpt><trkpt lat="44.672203007783494" lon="8.659275661621866"><ele>154.0</ele><time>2026-05-01T15:46:45.999Z</time></trkpt><trkpt lat="44.67241995668973" lon="8.659195727106772"><ele>154.0</ele><time>2026-05-01T15:46:46.999Z</time></trkpt><trkpt lat="44.67263342180935" lon="8.659122191391887"><ele>154.0</ele><time>2026-05-01T15:46:47.999Z</time></trkpt><trkpt lat="44.67283472711003" lon="8.659048817268118"><ele>154.0</ele><time>2026-05-01T15:46:48.999Z</time></trkpt><trkpt lat="44.67302992435224" lon="8.658977961941181"><ele>154.33333333333334</ele><time>2026-05-01T15:46:49.999Z</time></trkpt><trkpt lat="44.6732127130049" lon="8.658910803907288"><ele>154.66666666666666</ele><time>2026-05-01T15:46:50.999Z</time></trkpt><trkpt lat="44.67339688456395" lon="8.658845904481694"><ele>155.0</ele><time>2026-05-01T15:46:51.999Z</time></trkpt><trkpt lat="44.67358336345884" lon="8.65878121639866"><ele>153.33333333333331</ele><time>2026-05-01T15:46:52.999Z</time></trkpt><trkpt lat="44.673777357889165" lon="8.658713458004875"><ele>151.66666666666666</ele><time>2026-05-01T15:46:53.999Z</time></trkpt><trkpt lat="44.67397723411306" lon="8.658638429980249"><ele>150.0</ele><time>2026-05-01T15:46:54.999Z</time></trkpt><trkpt lat="44.67417595551544" lon="8.658571974033908"><ele>150.0</ele><time>2026-05-01T15:46:55.999Z</time></trkpt><trkpt lat="44.674383038299375" lon="8.658505279383832"><ele>150.0</ele><time>2026-05-01T15:46:56.999Z</time></trkpt><trkpt lat="44.674594863839246" lon="8.658439646504304"><ele>150.0</ele><time>2026-05-01T15:46:57.999Z</time></trkpt><trkpt lat="44.67480249598353" lon="8.65838684709357"><ele>151.33333333333334</ele><time>2026-05-01T15:46:58.999Z</time></trkpt><trkpt lat="44.67501961753581" lon="8.658341716723292"><ele>152.66666666666669</ele><time>2026-05-01T15:46:59.999Z</time></trkpt><trkpt lat="44.67523766424221" lon="8.658305370559598"><ele>154.0</ele><time>2026-05-01T15:47:00.999Z</time></trkpt><trkpt lat="44.67546343496312" lon="8.658276299336606"><ele>154.66666666666669</ele><time>2026-05-01T15:47:01.999Z</time></trkpt><trkpt lat="44.67567716612973" lon="8.658261414478188"><ele>155.33333333333334</ele><time>2026-05-01T15:47:02.999Z</time></trkpt><trkpt lat="44.67588688030286" lon="8.658251232267336"><ele>156.0</ele><time>2026-05-01T15:47:03.999Z</time></trkpt><trkpt lat="44.67609284145011" lon="8.658247626561419"><ele>157.0</ele><time>2026-05-01T15:47:04.999Z</time></trkpt><trkpt lat="44.676304823242035" lon="8.658243223954553"><ele>158.0</ele><time>2026-05-01T15:47:05.999Z</time></trkpt><trkpt lat="44.67651043864048" lon="8.658261356944923"><ele>159.0</ele><time>2026-05-01T15:47:06.999Z</time></trkpt><trkpt lat="44.67671334925579" lon="8.658284339025919"><ele>159.0</ele><time>2026-05-01T15:47:07.999Z</time></trkpt><trkpt lat="44.676917690601705" lon="8.65831558934143"><ele>159.0</ele><time>2026-05-01T15:47:08.999Z</time></trkpt><trkpt lat="44.67712153204921" lon="8.658353897075425"><ele>159.0</ele><time>2026-05-01T15:47:09.999Z</time></trkpt><trkpt lat="44.677324082563885" lon="8.658408341801561"><ele>158.33333333333334</ele><time>2026-05-01T15:47:10.999Z</time></trkpt><trkpt lat="44.67750980055678" lon="8.658472450986809"><ele>157.66666666666669</ele><time>2026-05-01T15:47:12Z</time></trkpt><trkpt lat="44.677695744266074" lon="8.658543433527138"><ele>157.0</ele><time>2026-05-01T15:47:13Z</time></trkpt><trkpt lat="44.67786959905329" lon="8.658633860448962"><ele>156.0</ele><time>2026-05-01T15:47:14Z</time></trkpt><trkpt lat="44.67804757567195" lon="8.658730137089417"><ele>155.0</ele><time>2026-05-01T15:47:15Z</time></trkpt><trkpt lat="44.67821655533597" lon="8.658812891018544"><ele>154.0</ele><time>2026-05-01T15:47:16Z</time></trkpt><trkpt lat="44.67839148982301" lon="8.658895504170445"><ele>154.0</ele><time>2026-05-01T15:47:17Z</time></trkpt><trkpt lat="44.678571606181954" lon="8.658985211354553"><ele>154.0</ele><time>2026-05-01T15:47:18Z</time></trkpt><trkpt lat="44.67876184264112" lon="8.65908314231821"><ele>154.0</ele><time>2026-05-01T15:47:19Z</time></trkpt><trkpt lat="44.67894907743058" lon="8.65918131932297"><ele>154.0</ele><time>2026-05-01T15:47:20Z</time></trkpt><trkpt lat="44.679144080106376" lon="8.659294412492738"><ele>154.0</ele><time>2026-05-01T15:47:21Z</time></trkpt><trkpt lat="44.67933804150209" lon="8.659402609504802"><ele>154.0</ele><time>2026-05-01T15:47:22Z</time></trkpt><trkpt lat="44.679530162164035" lon="8.659513860999205"><ele>154.0</ele><time>2026-05-01T15:47:23Z</time></trkpt><trkpt lat="44.6797117696125" lon="8.659613210256296"><ele>154.0</ele><time>2026-05-01T15:47:24Z</time></trkpt><trkpt lat="44.679897304101814" lon="8.659707853930252"><ele>154.0</ele><time>2026-05-01T15:47:25Z</time></trkpt><trkpt lat="44.68008572216853" lon="8.659802808514465"><ele>154.66666666666669</ele><time>2026-05-01T15:47:26Z</time></trkpt><trkpt lat="44.680272376173725" lon="8.6598947676314"><ele>155.33333333333334</ele><time>2026-05-01T15:47:27Z</time></trkpt><trkpt lat="44.6804626588235" lon="8.659992161098288"><ele>156.0</ele><time>2026-05-01T15:47:28Z</time></trkpt><trkpt lat="44.6806563740566" lon="8.660089694786146"><ele>156.0</ele><time>2026-05-01T15:47:29Z</time></trkpt><trkpt lat="44.68084954177592" lon="8.660193671225315"><ele>156.0</ele><time>2026-05-01T15:47:30Z</time></trkpt><trkpt lat="44.68104081469716" lon="8.6603040988664"><ele>156.0</ele><time>2026-05-01T15:47:31Z</time></trkpt><trkpt lat="44.68123010126009" lon="8.660414909838869"><ele>155.33333333333334</ele><time>2026-05-01T15:47:32Z</time></trkpt><trkpt lat="44.681425226111685" lon="8.660520225753402"><ele>154.66666666666669</ele><time>2026-05-01T15:47:33Z</time></trkpt><trkpt lat="44.68162760882652" lon="8.660633862500026"><ele>154.0</ele><time>2026-05-01T15:47:34Z</time></trkpt><trkpt lat="44.681846153561" lon="8.66075128981452"><ele>156.5</ele><time>2026-05-01T15:47:35Z</time></trkpt><trkpt lat="44.68207746109356" lon="8.660876130418275"><ele>159.0</ele><time>2026-05-01T15:47:36Z</time></trkpt><trkpt lat="44.68232044888291" lon="8.66101742239926"><ele>158.0</ele><time>2026-05-01T15:47:37Z</time></trkpt><trkpt lat="44.682566821154246" lon="8.661156179086346"><ele>157.0</ele><time>2026-05-01T15:47:38Z</time></trkpt><trkpt lat="44.68281976429741" lon="8.661295734338335"><ele>157.0</ele><time>2026-05-01T15:47:39Z</time></trkpt><trkpt lat="44.68307698538506" lon="8.661437970357403"><ele>157.0</ele><time>2026-05-01T15:47:40Z</time></trkpt><trkpt lat="44.68333391870113" lon="8.661576281483129"><ele>158.0</ele><time>2026-05-01T15:47:41Z</time></trkpt><trkpt lat="44.68359894705002" lon="8.661704822676512"><ele>159.0</ele><time>2026-05-01T15:47:42Z</time></trkpt><trkpt lat="44.683855417588944" lon="8.6618375320982"><ele>156.0</ele><time>2026-05-01T15:47:43Z</time></trkpt><trkpt lat="44.68410510879003" lon="8.661972607627844"><ele>153.0</ele><time>2026-05-01T15:47:44Z</time></trkpt><trkpt lat="44.68434846875065" lon="8.662104440333836"><ele>154.0</ele><time>2026-05-01T15:47:45Z</time></trkpt><trkpt lat="44.684599509864086" lon="8.662231631441028"><ele>155.0</ele><time>2026-05-01T15:47:46Z</time></trkpt><trkpt lat="44.68485762357827" lon="8.662379770588863"><ele>155.0</ele><time>2026-05-01T15:47:47Z</time></trkpt><trkpt lat="44.68511924503891" lon="8.662520328610228"><ele>155.0</ele><time>2026-05-01T15:47:48Z</time></trkpt><trkpt lat="44.68538328848646" lon="8.662673558678346"><ele>154.0</ele><time>2026-05-01T15:47:49Z</time></trkpt><trkpt lat="44.6856515555344" lon="8.662830707964515"><ele>153.0</ele><time>2026-05-01T15:47:50Z</time></trkpt><trkpt lat="44.685915440584324" lon="8.662969661664714"><ele>155.0</ele><time>2026-05-01T15:47:51Z</time></trkpt><trkpt lat="44.68618792186962" lon="8.663114698904131"><ele>157.0</ele><time>2026-05-01T15:47:52Z</time></trkpt><trkpt lat="44.686447540233026" lon="8.66325871791653"><ele>157.0</ele><time>2026-05-01T15:47:53Z</time></trkpt><trkpt lat="44.68668530526612" lon="8.663391185691708"><ele>157.0</ele><time>2026-05-01T15:47:54Z</time></trkpt><trkpt lat="44.68692321237049" lon="8.663533064695168"><ele>157.0</ele><time>2026-05-01T15:47:55Z</time></trkpt><trkpt lat="44.68715346600291" lon="8.663661739333113"><ele>157.0</ele><time>2026-05-01T15:47:56Z</time></trkpt><trkpt lat="44.68738897061474" lon="8.663781193036302"><ele>157.0</ele><time>2026-05-01T15:47:57Z</time></trkpt><trkpt lat="44.68761866458881" lon="8.663922169085899"><ele>157.0</ele><time>2026-05-01T15:47:58Z</time></trkpt><trkpt lat="44.68786072216395" lon="8.664061594546002"><ele>159.0</ele><time>2026-05-01T15:47:59Z</time></trkpt><trkpt lat="44.68811186660154" lon="8.664194351040965"><ele>161.0</ele><time>2026-05-01T15:48:00Z</time></trkpt><trkpt lat="44.68836705212865" lon="8.664332988576938"><ele>159.5</ele><time>2026-05-01T15:48:01Z</time></trkpt><trkpt lat="44.6886352444497" lon="8.664479516191118"><ele>158.0</ele><time>2026-05-01T15:48:02Z</time></trkpt><trkpt lat="44.68890927611183" lon="8.664619547744898"><ele>158.0</ele><time>2026-05-01T15:48:03Z</time></trkpt><trkpt lat="44.689181796220296" lon="8.664757080993699"><ele>158.0</ele><time>2026-05-01T15:48:04Z</time></trkpt><trkpt lat="44.68946603834442" lon="8.664883464520807"><ele>158.0</ele><time>2026-05-01T15:48:05Z</time></trkpt><trkpt lat="44.689757171442075" lon="8.665002413081027"><ele>158.0</ele><time>2026-05-01T15:48:06Z</time></trkpt><trkpt lat="44.69005425556599" lon="8.665113074003365"><ele>158.5</ele><time>2026-05-01T15:48:07Z</time></trkpt><trkpt lat="44.69035814663133" lon="8.665212715452355"><ele>159.0</ele><time>2026-05-01T15:48:08Z</time></trkpt><trkpt lat="44.690660308825045" lon="8.66531306911818"><ele>159.0</ele><time>2026-05-01T15:48:09Z</time></trkpt><trkpt lat="44.69096528046415" lon="8.665399844021234"><ele>159.0</ele><time>2026-05-01T15:48:10Z</time></trkpt><trkpt lat="44.691266502073134" lon="8.665472827584818"><ele>156.5</ele><time>2026-05-01T15:48:11Z</time></trkpt><trkpt lat="44.69158063896688" lon="8.665539894900844"><ele>154.0</ele><time>2026-05-01T15:48:12Z</time></trkpt><trkpt lat="44.691890797745366" lon="8.66559510914033"><ele>152.0</ele><time>2026-05-01T15:48:13Z</time></trkpt><trkpt lat="44.692210359708895" lon="8.66565193232547"><ele>150.0</ele><time>2026-05-01T15:48:14Z</time></trkpt><trkpt lat="44.69252045099931" lon="8.665709782174433"><ele>149.0</ele><time>2026-05-01T15:48:15Z</time></trkpt><trkpt lat="44.69283394114016" lon="8.665758952464715"><ele>148.0</ele><time>2026-05-01T15:48:16Z</time></trkpt><trkpt lat="44.6931487801184" lon="8.665812244831859"><ele>148.0</ele><time>2026-05-01T15:48:17Z</time></trkpt><trkpt lat="44.69345831223585" lon="8.665866372242546"><ele>148.0</ele><time>2026-05-01T15:48:18Z</time></trkpt><trkpt lat="44.693770949126105" lon="8.665918631051355"><ele>149.0</ele><time>2026-05-01T15:48:18.999Z</time></trkpt><trkpt lat="44.694085217707304" lon="8.665975326267807"><ele>150.0</ele><time>2026-05-01T15:48:19.999Z</time></trkpt><trkpt lat="44.694401336630115" lon="8.666036054012759"><ele>150.0</ele><time>2026-05-01T15:48:20.999Z</time></trkpt><trkpt lat="44.69471456726944" lon="8.666095685944017"><ele>150.0</ele><time>2026-05-01T15:48:21.999Z</time></trkpt><trkpt lat="44.69503007229684" lon="8.666151781625071"><ele>148.0</ele><time>2026-05-01T15:48:22.999Z</time></trkpt><trkpt lat="44.69534298544905" lon="8.666207797149756"><ele>146.0</ele><time>2026-05-01T15:48:23.999Z</time></trkpt><trkpt lat="44.695657830279" lon="8.666268721379575"><ele>146.0</ele><time>2026-05-01T15:48:24.999Z</time></trkpt><trkpt lat="44.69597555157201" lon="8.666322569953504"><ele>146.0</ele><time>2026-05-01T15:48:25.999Z</time></trkpt><trkpt lat="44.696287626270234" lon="8.666370925699244"><ele>145.5</ele><time>2026-05-01T15:48:26.999Z</time></trkpt><trkpt lat="44.696594466230046" lon="8.666420276850614"><ele>145.0</ele><time>2026-05-01T15:48:27.999Z</time></trkpt><trkpt lat="44.69690380618821" lon="8.666474301072059"><ele>145.0</ele><time>2026-05-01T15:48:28.999Z</time></trkpt><trkpt lat="44.697208732396504" lon="8.666523532804286"><ele>145.0</ele><time>2026-05-01T15:48:29.999Z</time></trkpt><trkpt lat="44.697516068319395" lon="8.666575631923667"><ele>145.0</ele><time>2026-05-01T15:48:30.999Z</time></trkpt><trkpt lat="44.697820070083544" lon="8.66663147515582"><ele>145.0</ele><time>2026-05-01T15:48:31.999Z</time></trkpt><trkpt lat="44.6981235224123" lon="8.66668561122064"><ele>145.0</ele><time>2026-05-01T15:48:32.999Z</time></trkpt><trkpt lat="44.69842658653928" lon="8.66673626537005"><ele>145.0</ele><time>2026-05-01T15:48:33.999Z</time></trkpt><trkpt lat="44.69873044129932" lon="8.666788165288944"><ele>146.0</ele><time>2026-05-01T15:48:34.999Z</time></trkpt><trkpt lat="44.699031887715286" lon="8.666843484696178"><ele>147.0</ele><time>2026-05-01T15:48:35.999Z</time></trkpt><trkpt lat="44.69932863885487" lon="8.666894387090974"><ele>145.5</ele><time>2026-05-01T15:48:36.999Z</time></trkpt><trkpt lat="44.69962455463483" lon="8.666944760881929"><ele>144.0</ele><time>2026-05-01T15:48:37.999Z</time></trkpt><trkpt lat="44.69992462374239" lon="8.666995165783732"><ele>144.0</ele><time>2026-05-01T15:48:38.999Z</time></trkpt><trkpt lat="44.7002275324461" lon="8.667042568980982"><ele>144.0</ele><time>2026-05-01T15:48:39.999Z</time></trkpt><trkpt lat="44.700526216406296" lon="8.667093479800586"><ele>143.0</ele><time>2026-05-01T15:48:40.999Z</time></trkpt><trkpt lat="44.700822482945" lon="8.667140500220947"><ele>142.0</ele><time>2026-05-01T15:48:41.999Z</time></trkpt><trkpt lat="44.701126188365876" lon="8.66719606532161"><ele>142.0</ele><time>2026-05-01T15:48:42.999Z</time></trkpt><trkpt lat="44.70142425197278" lon="8.667247141682077"><ele>142.0</ele><time>2026-05-01T15:48:43.999Z</time></trkpt><trkpt lat="44.701726206273754" lon="8.66730344872208"><ele>142.0</ele><time>2026-05-01T15:48:44.999Z</time></trkpt><trkpt lat="44.70202922566519" lon="8.667356211548443"><ele>142.0</ele><time>2026-05-01T15:48:45.999Z</time></trkpt><trkpt lat="44.70233518380035" lon="8.667406949529958"><ele>142.0</ele><time>2026-05-01T15:48:46.999Z</time></trkpt><trkpt lat="44.702640744932886" lon="8.667456989578337"><ele>142.0</ele><time>2026-05-01T15:48:47.999Z</time></trkpt><trkpt lat="44.702942122645105" lon="8.667503797993456"><ele>141.5</ele><time>2026-05-01T15:48:48.999Z</time></trkpt><trkpt lat="44.70325090765628" lon="8.667544678857842"><ele>141.0</ele><time>2026-05-01T15:48:49.999Z</time></trkpt><trkpt lat="44.70356237236848" lon="8.667581547562639"><ele>141.5</ele><time>2026-05-01T15:48:50.999Z</time></trkpt><trkpt lat="44.703869656198435" lon="8.667613119466319"><ele>142.0</ele><time>2026-05-01T15:48:51.999Z</time></trkpt><trkpt lat="44.70418047826836" lon="8.667640782009787"><ele>141.5</ele><time>2026-05-01T15:48:52.999Z</time></trkpt><trkpt lat="44.70449659935839" lon="8.667661611056717"><ele>141.0</ele><time>2026-05-01T15:48:53.999Z</time></trkpt><trkpt lat="44.70480934534272" lon="8.667679533900497"><ele>141.0</ele><time>2026-05-01T15:48:54.999Z</time></trkpt><trkpt lat="44.70512606682326" lon="8.667690906054553"><ele>141.0</ele><time>2026-05-01T15:48:55.999Z</time></trkpt><trkpt lat="44.705440751220415" lon="8.667695477478597"><ele>142.0</ele><time>2026-05-01T15:48:56.999Z</time></trkpt><trkpt lat="44.70575352616153" lon="8.667699568875552"><ele>143.0</ele><time>2026-05-01T15:48:57.999Z</time></trkpt><trkpt lat="44.7060681866565" lon="8.667693897961254"><ele>142.5</ele><time>2026-05-01T15:48:58.999Z</time></trkpt><trkpt lat="44.70638253152673" lon="8.667684389358321"><ele>142.0</ele><time>2026-05-01T15:48:59.999Z</time></trkpt><trkpt lat="44.706697136649176" lon="8.6676654285418"><ele>142.5</ele><time>2026-05-01T15:49:00.999Z</time></trkpt><trkpt lat="44.70700816878961" lon="8.667644379210163"><ele>143.0</ele><time>2026-05-01T15:49:01.999Z</time></trkpt><trkpt lat="44.70731773545886" lon="8.667620836864664"><ele>143.0</ele><time>2026-05-01T15:49:02.999Z</time></trkpt><trkpt lat="44.707626105384804" lon="8.667592524601696"><ele>143.0</ele><time>2026-05-01T15:49:03.999Z</time></trkpt><trkpt lat="44.70793614282237" lon="8.66755711663411"><ele>142.5</ele><time>2026-05-01T15:49:04.999Z</time></trkpt><trkpt lat="44.70824217525847" lon="8.667516844238715"><ele>142.0</ele><time>2026-05-01T15:49:05.999Z</time></trkpt><trkpt lat="44.70855148178168" lon="8.6674691328452"><ele>142.0</ele><time>2026-05-01T15:49:06.999Z</time></trkpt><trkpt lat="44.70885914737922" lon="8.667421605631324"><ele>142.0</ele><time>2026-05-01T15:49:07.999Z</time></trkpt><trkpt lat="44.709169641301855" lon="8.667371970186492"><ele>141.0</ele><time>2026-05-01T15:49:08.999Z</time></trkpt><trkpt lat="44.7094791100378" lon="8.667327292333121"><ele>140.0</ele><time>2026-05-01T15:49:09.999Z</time></trkpt><trkpt lat="44.70979001487925" lon="8.66728320632448"><ele>140.0</ele><time>2026-05-01T15:49:10.999Z</time></trkpt><trkpt lat="44.71009928667115" lon="8.667237450449786"><ele>140.0</ele><time>2026-05-01T15:49:11.999Z</time></trkpt><trkpt lat="44.71041000730041" lon="8.667189153827394"><ele>140.5</ele><time>2026-05-01T15:49:12.999Z</time></trkpt><trkpt lat="44.71071346966578" lon="8.667138106212878"><ele>141.0</ele><time>2026-05-01T15:49:13.999Z</time></trkpt><trkpt lat="44.71101917551122" lon="8.667088707623876"><ele>141.5</ele><time>2026-05-01T15:49:14.999Z</time></trkpt><trkpt lat="44.71132244458653" lon="8.66704245275035"><ele>142.0</ele><time>2026-05-01T15:49:15.999Z</time></trkpt><trkpt lat="44.711624717254914" lon="8.666998714196275"><ele>141.0</ele><time>2026-05-01T15:49:16.999Z</time></trkpt><trkpt lat="44.71192437773155" lon="8.666955020107887"><ele>140.0</ele><time>2026-05-01T15:49:17.999Z</time></trkpt><trkpt lat="44.71222547094099" lon="8.666909074488531"><ele>140.0</ele><time>2026-05-01T15:49:18.999Z</time></trkpt><trkpt lat="44.71252636976525" lon="8.666872593997862"><ele>140.0</ele><time>2026-05-01T15:49:19.999Z</time></trkpt><trkpt lat="44.712825340270896" lon="8.666837673966572"><ele>140.0</ele><time>2026-05-01T15:49:20.999Z</time></trkpt><trkpt lat="44.71312559897254" lon="8.666807638964936"><ele>140.0</ele><time>2026-05-01T15:49:22Z</time></trkpt><trkpt lat="44.713426138307774" lon="8.666785042124488"><ele>140.5</ele><time>2026-05-01T15:49:23Z</time></trkpt><trkpt lat="44.713727069400676" lon="8.66676476735963"><ele>141.0</ele><time>2026-05-01T15:49:24Z</time></trkpt><trkpt lat="44.71402890298875" lon="8.666749280852997"><ele>141.0</ele><time>2026-05-01T15:49:25Z</time></trkpt><trkpt lat="44.71432424689339" lon="8.666737595603163"><ele>141.0</ele><time>2026-05-01T15:49:26Z</time></trkpt><trkpt lat="44.71462470781013" lon="8.666731944815213"><ele>140.5</ele><time>2026-05-01T15:49:27Z</time></trkpt><trkpt lat="44.71493098237585" lon="8.666727316301024"><ele>140.0</ele><time>2026-05-01T15:49:28Z</time></trkpt><trkpt lat="44.71523118124449" lon="8.666726461982275"><ele>139.0</ele><time>2026-05-01T15:49:29Z</time></trkpt><trkpt lat="44.7155333684176" lon="8.666737346368091"><ele>138.0</ele><time>2026-05-01T15:49:30Z</time></trkpt><trkpt lat="44.7158338976214" lon="8.666747024828913"><ele>137.5</ele><time>2026-05-01T15:49:31Z</time></trkpt><trkpt lat="44.71613542823101" lon="8.66676616958231"><ele>137.0</ele><time>2026-05-01T15:49:32Z</time></trkpt><trkpt lat="44.716439200607894" lon="8.666789908965578"><ele>137.0</ele><time>2026-05-01T15:49:33Z</time></trkpt><trkpt lat="44.71674143681484" lon="8.666819664181846"><ele>137.0</ele><time>2026-05-01T15:49:34Z</time></trkpt><trkpt lat="44.717038218794" lon="8.66685688497619"><ele>139.5</ele><time>2026-05-01T15:49:35Z</time></trkpt><trkpt lat="44.71734155439796" lon="8.666889648881199"><ele>142.0</ele><time>2026-05-01T15:49:36Z</time></trkpt><trkpt lat="44.71764133597327" lon="8.666928537567054"><ele>140.5</ele><time>2026-05-01T15:49:37Z</time></trkpt><trkpt lat="44.71794118325048" lon="8.66696417859584"><ele>139.0</ele><time>2026-05-01T15:49:38Z</time></trkpt><trkpt lat="44.718242000072" lon="8.667000916224953"><ele>139.0</ele><time>2026-05-01T15:49:39Z</time></trkpt><trkpt lat="44.71853993399705" lon="8.667045187420532"><ele>139.0</ele><time>2026-05-01T15:49:40Z</time></trkpt><trkpt lat="44.71883778834374" lon="8.66709079774017"><ele>140.0</ele><time>2026-05-01T15:49:41Z</time></trkpt><trkpt lat="44.71913748331197" lon="8.667143474820088"><ele>141.0</ele><time>2026-05-01T15:49:42Z</time></trkpt><trkpt lat="44.71943537338128" lon="8.667193784308765"><ele>141.0</ele><time>2026-05-01T15:49:43Z</time></trkpt><trkpt lat="44.71973350500929" lon="8.667255033577815"><ele>141.0</ele><time>2026-05-01T15:49:44Z</time></trkpt><trkpt lat="44.72003563875425" lon="8.667303156136917"><ele>141.0</ele><time>2026-05-01T15:49:45Z</time></trkpt><trkpt lat="44.72033598067091" lon="8.667338532088154"><ele>141.0</ele><time>2026-05-01T15:49:46Z</time></trkpt><trkpt lat="44.72063645740269" lon="8.667359468334903"><ele>141.0</ele><time>2026-05-01T15:49:47Z</time></trkpt><trkpt lat="44.72093576534129" lon="8.667367531689807"><ele>141.0</ele><time>2026-05-01T15:49:48Z</time></trkpt><trkpt lat="44.72123465077049" lon="8.667374220859646"><ele>141.0</ele><time>2026-05-01T15:49:49Z</time></trkpt><trkpt lat="44.721538041969595" lon="8.66737884082026"><ele>141.0</ele><time>2026-05-01T15:49:50Z</time></trkpt><trkpt lat="44.721838391707635" lon="8.667380976424415"><ele>141.0</ele><time>2026-05-01T15:49:51Z</time></trkpt><trkpt lat="44.7221389224186" lon="8.667375318506862"><ele>141.0</ele><time>2026-05-01T15:49:52Z</time></trkpt><trkpt lat="44.72243681916213" lon="8.667352723063166"><ele>140.0</ele><time>2026-05-01T15:49:53Z</time></trkpt><trkpt lat="44.72273369707849" lon="8.66731859391487"><ele>139.0</ele><time>2026-05-01T15:49:54Z</time></trkpt><trkpt lat="44.72303561188645" lon="8.667266244701795"><ele>139.0</ele><time>2026-05-01T15:49:55Z</time></trkpt><trkpt lat="44.72333613061773" lon="8.667199081427828"><ele>139.0</ele><time>2026-05-01T15:49:56Z</time></trkpt><trkpt lat="44.723637879479575" lon="8.667123544905317"><ele>140.0</ele><time>2026-05-01T15:49:57Z</time></trkpt><trkpt lat="44.72393481693878" lon="8.667039222972882"><ele>141.0</ele><time>2026-05-01T15:49:58Z</time></trkpt><trkpt lat="44.724231977321885" lon="8.666951970731601"><ele>143.0</ele><time>2026-05-01T15:49:59Z</time></trkpt><trkpt lat="44.72452642547735" lon="8.666858922990755"><ele>145.0</ele><time>2026-05-01T15:50:00Z</time></trkpt><trkpt lat="44.724819240637" lon="8.666754857039896"><ele>145.0</ele><time>2026-05-01T15:50:01Z</time></trkpt><trkpt lat="44.7251023420063" lon="8.666643159600842"><ele>145.0</ele><time>2026-05-01T15:50:02Z</time></trkpt><trkpt lat="44.725388707131735" lon="8.666514502422611"><ele>143.0</ele><time>2026-05-01T15:50:03Z</time></trkpt><trkpt lat="44.72567368915431" lon="8.666382717678921"><ele>141.0</ele><time>2026-05-01T15:50:04Z</time></trkpt><trkpt lat="44.72595188817315" lon="8.666242043188719"><ele>140.5</ele><time>2026-05-01T15:50:05Z</time></trkpt><trkpt lat="44.726226106294455" lon="8.666098472499618"><ele>140.0</ele><time>2026-05-01T15:50:06Z</time></trkpt><trkpt lat="44.726491401613075" lon="8.66595696263496"><ele>140.0</ele><time>2026-05-01T15:50:07Z</time></trkpt><trkpt lat="44.726750843703016" lon="8.665814435911967"><ele>140.0</ele><time>2026-05-01T15:50:08Z</time></trkpt><trkpt lat="44.727013094193865" lon="8.66566226181313"><ele>140.0</ele><time>2026-05-01T15:50:09Z</time></trkpt><trkpt lat="44.72726541960736" lon="8.665521033417553"><ele>140.0</ele><time>2026-05-01T15:50:10Z</time></trkpt><trkpt lat="44.72751140686603" lon="8.66537302485646"><ele>142.0</ele><time>2026-05-01T15:50:11Z</time></trkpt><trkpt lat="44.727752992742374" lon="8.66523476512154"><ele>144.0</ele><time>2026-05-01T15:50:12Z</time></trkpt><trkpt lat="44.72799537679182" lon="8.665101286508612"><ele>144.0</ele><time>2026-05-01T15:50:13Z</time></trkpt><trkpt lat="44.728234718633374" lon="8.664965751933426"><ele>144.0</ele><time>2026-05-01T15:50:14Z</time></trkpt><trkpt lat="44.72847509307233" lon="8.664829029841638"><ele>144.0</ele><time>2026-05-01T15:50:15Z</time></trkpt><trkpt lat="44.72871355513001" lon="8.664690457723214"><ele>144.0</ele><time>2026-05-01T15:50:16Z</time></trkpt><trkpt lat="44.72895424848318" lon="8.664544254403607"><ele>145.0</ele><time>2026-05-01T15:50:17Z</time></trkpt><trkpt lat="44.729194178741864" lon="8.664404203668838"><ele>146.0</ele><time>2026-05-01T15:50:18Z</time></trkpt><trkpt lat="44.72943480421395" lon="8.664266164036645"><ele>146.0</ele><time>2026-05-01T15:50:19Z</time></trkpt><trkpt lat="44.729679472156285" lon="8.664127949072988"><ele>146.0</ele><time>2026-05-01T15:50:20Z</time></trkpt><trkpt lat="44.729919142525006" lon="8.663989316828934"><ele>146.0</ele><time>2026-05-01T15:50:21Z</time></trkpt><trkpt lat="44.7301652693651" lon="8.663848290791611"><ele>146.0</ele><time>2026-05-01T15:50:22Z</time></trkpt><trkpt lat="44.73040707252366" lon="8.663708358784417"><ele>144.0</ele><time>2026-05-01T15:50:23Z</time></trkpt><trkpt lat="44.73064771640948" lon="8.663564841744327"><ele>142.0</ele><time>2026-05-01T15:50:24Z</time></trkpt><trkpt lat="44.73088478535204" lon="8.663424797160229"><ele>142.5</ele><time>2026-05-01T15:50:25Z</time></trkpt><trkpt lat="44.73112690877639" lon="8.663283678101113"><ele>143.0</ele><time>2026-05-01T15:50:26Z</time></trkpt><trkpt lat="44.731368025953664" lon="8.663142830760407"><ele>143.0</ele><time>2026-05-01T15:50:26.999Z</time></trkpt><trkpt lat="44.731609040511685" lon="8.66300237823109"><ele>143.0</ele><time>2026-05-01T15:50:27.999Z</time></trkpt><trkpt lat="44.73185041694127" lon="8.662856642449732"><ele>143.0</ele><time>2026-05-01T15:50:28.999Z</time></trkpt><trkpt lat="44.73208897544421" lon="8.662713330722552"><ele>143.0</ele><time>2026-05-01T15:50:29.999Z</time></trkpt><trkpt lat="44.73232758799878" lon="8.662561968984367"><ele>143.0</ele><time>2026-05-01T15:50:30.999Z</time></trkpt><trkpt lat="44.73256553807424" lon="8.662401176391093"><ele>143.0</ele><time>2026-05-01T15:50:31.999Z</time></trkpt><trkpt lat="44.73279918844095" lon="8.662233831777373"><ele>143.0</ele><time>2026-05-01T15:50:32.999Z</time></trkpt><trkpt lat="44.73303111064928" lon="8.662059780956865"><ele>143.0</ele><time>2026-05-01T15:50:33.999Z</time></trkpt><trkpt lat="44.733259062802915" lon="8.661879530577203"><ele>143.0</ele><time>2026-05-01T15:50:34.999Z</time></trkpt><trkpt lat="44.73348539577036" lon="8.661697465480879"><ele>143.0</ele><time>2026-05-01T15:50:35.999Z</time></trkpt><trkpt lat="44.733705856939004" lon="8.661506512191693"><ele>143.0</ele><time>2026-05-01T15:50:36.999Z</time></trkpt><trkpt lat="44.73392451740818" lon="8.661309430050345"><ele>143.0</ele><time>2026-05-01T15:50:37.999Z</time></trkpt><trkpt lat="44.73414027274905" lon="8.661107618227565"><ele>143.0</ele><time>2026-05-01T15:50:38.999Z</time></trkpt><trkpt lat="44.73435808431621" lon="8.660899670164596"><ele>143.0</ele><time>2026-05-01T15:50:39.999Z</time></trkpt><trkpt lat="44.734568744146394" lon="8.660689892286795"><ele>143.0</ele><time>2026-05-01T15:50:40.999Z</time></trkpt><trkpt lat="44.73477653069323" lon="8.660474602527719"><ele>143.0</ele><time>2026-05-01T15:50:41.999Z</time></trkpt><trkpt lat="44.73498311462649" lon="8.660246652836246"><ele>143.5</ele><time>2026-05-01T15:50:42.999Z</time></trkpt><trkpt lat="44.73518193589558" lon="8.660016792169685"><ele>144.0</ele><time>2026-05-01T15:50:43.999Z</time></trkpt><trkpt lat="44.7353814491112" lon="8.659773194202401"><ele>144.0</ele><time>2026-05-01T15:50:44.999Z</time></trkpt><trkpt lat="44.73557512985983" lon="8.659529034680132"><ele>144.0</ele><time>2026-05-01T15:50:45.999Z</time></trkpt><trkpt lat="44.735765489290685" lon="8.659281592358312"><ele>144.0</ele><time>2026-05-01T15:50:46.999Z</time></trkpt><trkpt lat="44.73595537890477" lon="8.659031204388077"><ele>144.0</ele><time>2026-05-01T15:50:47.999Z</time></trkpt><trkpt lat="44.736144065049004" lon="8.658773106376298"><ele>144.5</ele><time>2026-05-01T15:50:48.999Z</time></trkpt><trkpt lat="44.73632986925984" lon="8.65851201773363"><ele>145.0</ele><time>2026-05-01T15:50:49.999Z</time></trkpt><trkpt lat="44.73651096998897" lon="8.65824522130266"><ele>145.0</ele><time>2026-05-01T15:50:50.999Z</time></trkpt><trkpt lat="44.73668621703874" lon="8.657977689743964"><ele>145.0</ele><time>2026-05-01T15:50:51.999Z</time></trkpt><trkpt lat="44.736858696892206" lon="8.657700751235426"><ele>145.0</ele><time>2026-05-01T15:50:52.999Z</time></trkpt><trkpt lat="44.73702831953535" lon="8.657413565153286"><ele>145.0</ele><time>2026-05-01T15:50:53.999Z</time></trkpt><trkpt lat="44.73718933124979" lon="8.65713296456513"><ele>145.5</ele><time>2026-05-01T15:50:54.999Z</time></trkpt><trkpt lat="44.73734717160709" lon="8.656848572435356"><ele>146.0</ele><time>2026-05-01T15:50:55.999Z</time></trkpt><trkpt lat="44.737501575999666" lon="8.656553753660829"><ele>146.0</ele><time>2026-05-01T15:50:56.999Z</time></trkpt><trkpt lat="44.73765673356533" lon="8.656252274345437"><ele>146.0</ele><time>2026-05-01T15:50:57.999Z</time></trkpt><trkpt lat="44.73780796864597" lon="8.655948937574074"><ele>146.5</ele><time>2026-05-01T15:50:58.999Z</time></trkpt><trkpt lat="44.737959369997945" lon="8.655648626376445"><ele>147.0</ele><time>2026-05-01T15:50:59.999Z</time></trkpt><trkpt lat="44.738110445185164" lon="8.655352339112428"><ele>148.0</ele><time>2026-05-01T15:51:00.999Z</time></trkpt><trkpt lat="44.73826783332826" lon="8.655053032293015"><ele>149.0</ele><time>2026-05-01T15:51:01.999Z</time></trkpt><trkpt lat="44.73842398246401" lon="8.654760578393347"><ele>148.0</ele><time>2026-05-01T15:51:02.999Z</time></trkpt><trkpt lat="44.73858475716156" lon="8.654469544215107"><ele>147.0</ele><time>2026-05-01T15:51:03.999Z</time></trkpt><trkpt lat="44.73875048418358" lon="8.65418441559383"><ele>147.0</ele><time>2026-05-01T15:51:04.999Z</time></trkpt><trkpt lat="44.73892088619343" lon="8.65390421422273"><ele>147.0</ele><time>2026-05-01T15:51:05.999Z</time></trkpt><trkpt lat="44.739094941566556" lon="8.653628596894135"><ele>147.5</ele><time>2026-05-01T15:51:06.999Z</time></trkpt><trkpt lat="44.739273688438594" lon="8.653360944192539"><ele>148.0</ele><time>2026-05-01T15:51:07.999Z</time></trkpt><trkpt lat="44.73945826357938" lon="8.653098140395645"><ele>147.5</ele><time>2026-05-01T15:51:08.999Z</time></trkpt><trkpt lat="44.73964468321764" lon="8.652842440259473"><ele>147.0</ele><time>2026-05-01T15:51:09.999Z</time></trkpt><trkpt lat="44.73983921591499" lon="8.6525982695283"><ele>147.0</ele><time>2026-05-01T15:51:10.999Z</time></trkpt><trkpt lat="44.74003913894368" lon="8.652357211813412"><ele>147.0</ele><time>2026-05-01T15:51:11.999Z</time></trkpt><trkpt lat="44.74024023337248" lon="8.652121822744238"><ele>146.5</ele><time>2026-05-01T15:51:12.999Z</time></trkpt><trkpt lat="44.74044628619595" lon="8.651894571578786"><ele>146.0</ele><time>2026-05-01T15:51:13.999Z</time></trkpt><trkpt lat="44.74065193336677" lon="8.651672598280143"><ele>146.0</ele><time>2026-05-01T15:51:14.999Z</time></trkpt><trkpt lat="44.740862658165454" lon="8.651454609238465"><ele>146.0</ele><time>2026-05-01T15:51:15.999Z</time></trkpt><trkpt lat="44.74108019536106" lon="8.651246927520347"><ele>146.5</ele><time>2026-05-01T15:51:16.999Z</time></trkpt><trkpt lat="44.74130038216352" lon="8.651046751020383"><ele>147.0</ele><time>2026-05-01T15:51:17.999Z</time></trkpt><trkpt lat="44.7415209211462" lon="8.650856500927697"><ele>147.0</ele><time>2026-05-01T15:51:18.999Z</time></trkpt><trkpt lat="44.74174905773678" lon="8.650675137546658"><ele>147.0</ele><time>2026-05-01T15:51:19.999Z</time></trkpt><trkpt lat="44.741977839624475" lon="8.650501522639386"><ele>145.0</ele><time>2026-05-01T15:51:20.999Z</time></trkpt><trkpt lat="44.742207267342096" lon="8.650331112732959"><ele>143.0</ele><time>2026-05-01T15:51:21.999Z</time></trkpt><trkpt lat="44.74243904695799" lon="8.650170224466986"><ele>143.0</ele><time>2026-05-01T15:51:22.999Z</time></trkpt><trkpt lat="44.74267855410773" lon="8.650017992222894"><ele>143.0</ele><time>2026-05-01T15:51:24Z</time></trkpt><trkpt lat="44.7429217403128" lon="8.649868184182477"><ele>142.5</ele><time>2026-05-01T15:51:25Z</time></trkpt><trkpt lat="44.743163713774926" lon="8.649732205395013"><ele>142.0</ele><time>2026-05-01T15:51:26Z</time></trkpt><trkpt lat="44.74341168121516" lon="8.649611986630177"><ele>141.5</ele><time>2026-05-01T15:51:27Z</time></trkpt><trkpt lat="44.743656982806996" lon="8.649497308368947"><ele>141.0</ele><time>2026-05-01T15:51:28Z</time></trkpt><trkpt lat="44.74390870482268" lon="8.649390693154322"><ele>141.0</ele><time>2026-05-01T15:51:29Z</time></trkpt><trkpt lat="44.74415687912732" lon="8.649283586754995"><ele>141.0</ele><time>2026-05-01T15:51:30Z</time></trkpt><trkpt lat="44.74440613533323" lon="8.649172496027866"><ele>141.0</ele><time>2026-05-01T15:51:31Z</time></trkpt><trkpt lat="44.74465108086372" lon="8.649059692707658"><ele>141.0</ele><time>2026-05-01T15:51:32Z</time></trkpt><trkpt lat="44.744900740698114" lon="8.648942593055017"><ele>141.0</ele><time>2026-05-01T15:51:33Z</time></trkpt><trkpt lat="44.74514788487162" lon="8.648825544188309"><ele>141.0</ele><time>2026-05-01T15:51:34Z</time></trkpt><trkpt lat="44.74539437493228" lon="8.648708667178775"><ele>142.0</ele><time>2026-05-01T15:51:35Z</time></trkpt><trkpt lat="44.74564393202858" lon="8.6485917226924"><ele>143.0</ele><time>2026-05-01T15:51:36Z</time></trkpt><trkpt lat="44.745894157998244" lon="8.64847808850225"><ele>142.5</ele><time>2026-05-01T15:51:37Z</time></trkpt><trkpt lat="44.74614294791737" lon="8.64836178765331"><ele>142.0</ele><time>2026-05-01T15:51:38Z</time></trkpt><trkpt lat="44.74638991745809" lon="8.648247360123388"><ele>142.0</ele><time>2026-05-01T15:51:39Z</time></trkpt><trkpt lat="44.74663881026161" lon="8.648133260451832"><ele>142.0</ele><time>2026-05-01T15:51:40Z</time></trkpt><trkpt lat="44.74688620526219" lon="8.648021890906406"><ele>141.0</ele><time>2026-05-01T15:51:41Z</time></trkpt><trkpt lat="44.747138642391214" lon="8.647912967382146"><ele>140.0</ele><time>2026-05-01T15:51:42Z</time></trkpt><trkpt lat="44.74739210254929" lon="8.647806918749627"><ele>141.0</ele><time>2026-05-01T15:51:43Z</time></trkpt><trkpt lat="44.74764055100296" lon="8.647711266776016"><ele>142.0</ele><time>2026-05-01T15:51:44Z</time></trkpt><trkpt lat="44.74789520723686" lon="8.647617541676263"><ele>142.0</ele><time>2026-05-01T15:51:45Z</time></trkpt><trkpt lat="44.74815020667256" lon="8.647532465809363"><ele>142.0</ele><time>2026-05-01T15:51:46Z</time></trkpt><trkpt lat="44.74840862246394" lon="8.647438155245933"><ele>141.0</ele><time>2026-05-01T15:51:47Z</time></trkpt><trkpt lat="44.74866305306049" lon="8.647360164264384"><ele>140.0</ele><time>2026-05-01T15:51:48Z</time></trkpt><trkpt lat="44.74891601722406" lon="8.647278369017542"><ele>140.0</ele><time>2026-05-01T15:51:49Z</time></trkpt><trkpt lat="44.74917350201611" lon="8.647200109707363"><ele>140.0</ele><time>2026-05-01T15:51:50Z</time></trkpt><trkpt lat="44.74942899642678" lon="8.647130398971445"><ele>139.5</ele><time>2026-05-01T15:51:51Z</time></trkpt><trkpt lat="44.74968442831139" lon="8.647056876165216"><ele>139.0</ele><time>2026-05-01T15:51:52Z</time></trkpt><trkpt lat="44.749938058625936" lon="8.646994999913018"><ele>140.5</ele><time>2026-05-01T15:51:53Z</time></trkpt><trkpt lat="44.75019534150127" lon="8.646927129387649"><ele>142.0</ele><time>2026-05-01T15:51:54Z</time></trkpt><trkpt lat="44.75045403874" lon="8.646868296314464"><ele>142.5</ele><time>2026-05-01T15:51:55Z</time></trkpt><trkpt lat="44.750711915789196" lon="8.646812404984159"><ele>143.0</ele><time>2026-05-01T15:51:56Z</time></trkpt><trkpt lat="44.75097115807831" lon="8.646757239181234"><ele>143.0</ele><time>2026-05-01T15:51:57Z</time></trkpt><trkpt lat="44.75123204554056" lon="8.646713664142688"><ele>143.0</ele><time>2026-05-01T15:51:58Z</time></trkpt><trkpt lat="44.751490474940844" lon="8.64666761656652"><ele>143.0</ele><time>2026-05-01T15:51:59Z</time></trkpt><trkpt lat="44.75175350824376" lon="8.646620395352853"><ele>143.0</ele><time>2026-05-01T15:52:00Z</time></trkpt><trkpt lat="44.752015666402215" lon="8.64658168998897"><ele>143.0</ele><time>2026-05-01T15:52:01Z</time></trkpt><trkpt lat="44.752276303000905" lon="8.64654090539572"><ele>143.0</ele><time>2026-05-01T15:52:02Z</time></trkpt><trkpt lat="44.752534147333826" lon="8.64650195631993"><ele>143.5</ele><time>2026-05-01T15:52:03Z</time></trkpt><trkpt lat="44.752793796439995" lon="8.646456684166733"><ele>144.0</ele><time>2026-05-01T15:52:04Z</time></trkpt><trkpt lat="44.75305371677419" lon="8.64641260351629"><ele>144.0</ele><time>2026-05-01T15:52:05Z</time></trkpt><trkpt lat="44.75331332696141" lon="8.646372025489871"><ele>144.0</ele><time>2026-05-01T15:52:06Z</time></trkpt><trkpt lat="44.753573585457204" lon="8.64633254136435"><ele>143.5</ele><time>2026-05-01T15:52:07Z</time></trkpt><trkpt lat="44.75383189893509" lon="8.646293056488476"><ele>143.0</ele><time>2026-05-01T15:52:08Z</time></trkpt><trkpt lat="44.754089549146464" lon="8.646245870662106"><ele>143.0</ele><time>2026-05-01T15:52:09Z</time></trkpt><trkpt lat="44.754354504181805" lon="8.646187986410427"><ele>143.0</ele><time>2026-05-01T15:52:10Z</time></trkpt><trkpt lat="44.75460874250667" lon="8.646163334026712"><ele>142.5</ele><time>2026-05-01T15:52:11Z</time></trkpt><trkpt lat="44.7548670620826" lon="8.646123420953689"><ele>142.0</ele><time>2026-05-01T15:52:12Z</time></trkpt><trkpt lat="44.75512710013776" lon="8.646085142951272"><ele>141.0</ele><time>2026-05-01T15:52:13Z</time></trkpt><trkpt lat="44.755386670789534" lon="8.646039988486555"><ele>140.0</ele><time>2026-05-01T15:52:14Z</time></trkpt><trkpt lat="44.7556488363455" lon="8.645999378355953"><ele>140.0</ele><time>2026-05-01T15:52:15Z</time></trkpt><trkpt lat="44.75591161463315" lon="8.645962979468672"><ele>140.0</ele><time>2026-05-01T15:52:16Z</time></trkpt><trkpt lat="44.756174573428034" lon="8.645928059550558"><ele>140.5</ele><time>2026-05-01T15:52:17Z</time></trkpt><trkpt lat="44.75643445158149" lon="8.645878672459842"><ele>141.0</ele><time>2026-05-01T15:52:18Z</time></trkpt><trkpt lat="44.756697010532996" lon="8.64584481750267"><ele>140.5</ele><time>2026-05-01T15:52:19Z</time></trkpt><trkpt lat="44.756951378380094" lon="8.645806553371482"><ele>140.0</ele><time>2026-05-01T15:52:20Z</time></trkpt><trkpt lat="44.75720960822697" lon="8.645757965839293"><ele>140.0</ele><time>2026-05-01T15:52:21Z</time></trkpt><trkpt lat="44.757469081106265" lon="8.645712774218062"><ele>140.0</ele><time>2026-05-01T15:52:22Z</time></trkpt><trkpt lat="44.75773226271019" lon="8.64566451449628"><ele>139.0</ele><time>2026-05-01T15:52:23Z</time></trkpt><trkpt lat="44.75799116661561" lon="8.64561723129737"><ele>138.0</ele><time>2026-05-01T15:52:24Z</time></trkpt><trkpt lat="44.75825276199592" lon="8.645574367212195"><ele>138.0</ele><time>2026-05-01T15:52:25Z</time></trkpt><trkpt lat="44.75850927554626" lon="8.645539054408667"><ele>138.0</ele><time>2026-05-01T15:52:26Z</time></trkpt><trkpt lat="44.75876611107948" lon="8.645505630593606"><ele>137.0</ele><time>2026-05-01T15:52:27Z</time></trkpt><trkpt lat="44.759024213812935" lon="8.6454871106184"><ele>136.0</ele><time>2026-05-01T15:52:28Z</time></trkpt><trkpt lat="44.7592843083561" lon="8.645480764642674"><ele>137.0</ele><time>2026-05-01T15:52:29Z</time></trkpt><trkpt lat="44.75954387934408" lon="8.645463034456974"><ele>138.0</ele><time>2026-05-01T15:52:30Z</time></trkpt><trkpt lat="44.75980588256446" lon="8.645488177074292"><ele>138.0</ele><time>2026-05-01T15:52:31Z</time></trkpt><trkpt lat="44.76006825008957" lon="8.645539162658542"><ele>138.0</ele><time>2026-05-01T15:52:32Z</time></trkpt><trkpt lat="44.76032606596869" lon="8.645593388672822"><ele>138.0</ele><time>2026-05-01T15:52:33Z</time></trkpt><trkpt lat="44.7605830508539" lon="8.645656584647641"><ele>138.0</ele><time>2026-05-01T15:52:34Z</time></trkpt><trkpt lat="44.760835236123086" lon="8.645748967103254"><ele>138.5</ele><time>2026-05-01T15:52:35Z</time></trkpt><trkpt lat="44.761089211060295" lon="8.645848173913876"><ele>139.0</ele><time>2026-05-01T15:52:36Z</time></trkpt><trkpt lat="44.761338231992156" lon="8.645971155322027"><ele>139.0</ele><time>2026-05-01T15:52:37Z</time></trkpt><trkpt lat="44.76157671406334" lon="8.64611986377603"><ele>139.0</ele><time>2026-05-01T15:52:38Z</time></trkpt><trkpt lat="44.76180538427906" lon="8.646293249749029"><ele>139.0</ele><time>2026-05-01T15:52:39Z</time></trkpt><trkpt lat="44.762028022667465" lon="8.64648060680229"><ele>139.0</ele><time>2026-05-01T15:52:40Z</time></trkpt><trkpt lat="44.76225011074791" lon="8.646680594938351"><ele>139.0</ele><time>2026-05-01T15:52:41Z</time></trkpt><trkpt lat="44.76245875359989" lon="8.64689652444744"><ele>139.0</ele><time>2026-05-01T15:52:42Z</time></trkpt><trkpt lat="44.76266402957831" lon="8.647128928663877"><ele>138.5</ele><time>2026-05-01T15:52:43Z</time></trkpt><trkpt lat="44.76285947937916" lon="8.647372671125634"><ele>138.0</ele><time>2026-05-01T15:52:44Z</time></trkpt><trkpt lat="44.76305134768891" lon="8.647627941239886"><ele>138.0</ele><time>2026-05-01T15:52:45Z</time></trkpt><trkpt lat="44.76323315441467" lon="8.647891126235274"><ele>138.0</ele><time>2026-05-01T15:52:46Z</time></trkpt><trkpt lat="44.763405083094845" lon="8.648174004120177"><ele>136.0</ele><time>2026-05-01T15:52:47Z</time></trkpt><trkpt lat="44.76356296009665" lon="8.648460909162063"><ele>134.0</ele><time>2026-05-01T15:52:48Z</time></trkpt><trkpt lat="44.76372065606226" lon="8.648755972067002"><ele>134.0</ele><time>2026-05-01T15:52:49Z</time></trkpt><trkpt lat="44.763877936633655" lon="8.649055605612538"><ele>134.0</ele><time>2026-05-01T15:52:50Z</time></trkpt><trkpt lat="44.764030123552104" lon="8.649353530091677"><ele>133.5</ele><time>2026-05-01T15:52:51Z</time></trkpt><trkpt lat="44.7641784899392" lon="8.649653579485928"><ele>133.0</ele><time>2026-05-01T15:52:52Z</time></trkpt><trkpt lat="44.76432189364755" lon="8.649961950493822"><ele>133.0</ele><time>2026-05-01T15:52:53Z</time></trkpt><trkpt lat="44.764459710554476" lon="8.65026966069262"><ele>133.0</ele><time>2026-05-01T15:52:54Z</time></trkpt><trkpt lat="44.76459575465238" lon="8.65058549838973"><ele>133.0</ele><time>2026-05-01T15:52:55Z</time></trkpt><trkpt lat="44.764727350715056" lon="8.650898955314846"><ele>133.0</ele><time>2026-05-01T15:52:56Z</time></trkpt><trkpt lat="44.764863917998575" lon="8.651216531941467"><ele>132.5</ele><time>2026-05-01T15:52:57Z</time></trkpt><trkpt lat="44.76499894984805" lon="8.651532142471877"><ele>132.0</ele><time>2026-05-01T15:52:58Z</time></trkpt><trkpt lat="44.76513783011464" lon="8.651841548137021"><ele>132.0</ele><time>2026-05-01T15:52:59Z</time></trkpt><trkpt lat="44.76527474818698" lon="8.652153420143966"><ele>132.0</ele><time>2026-05-01T15:53:00Z</time></trkpt><trkpt lat="44.76541178213014" lon="8.652465742433623"><ele>132.0</ele><time>2026-05-01T15:53:01Z</time></trkpt><trkpt lat="44.76554857796756" lon="8.652776884908903"><ele>132.0</ele><time>2026-05-01T15:53:02Z</time></trkpt><trkpt lat="44.76568482333155" lon="8.653088218758896"><ele>132.0</ele><time>2026-05-01T15:53:03Z</time></trkpt><trkpt lat="44.765820886465704" lon="8.653400314038704"><ele>132.0</ele><time>2026-05-01T15:53:04Z</time></trkpt><trkpt lat="44.76595894568608" lon="8.653717387100807"><ele>130.5</ele><time>2026-05-01T15:53:05Z</time></trkpt><trkpt lat="44.76609735528652" lon="8.654032441876923"><ele>129.0</ele><time>2026-05-01T15:53:06Z</time></trkpt><trkpt lat="44.76623341150378" lon="8.654343793811394"><ele>129.5</ele><time>2026-05-01T15:53:07Z</time></trkpt><trkpt lat="44.76636813204355" lon="8.65466008209989"><ele>130.0</ele><time>2026-05-01T15:53:08Z</time></trkpt><trkpt lat="44.766502108659715" lon="8.654974304995791"><ele>130.0</ele><time>2026-05-01T15:53:09Z</time></trkpt><trkpt lat="44.76663762738165" lon="8.655288671128583"><ele>130.0</ele><time>2026-05-01T15:53:10Z</time></trkpt><trkpt lat="44.76677651019088" lon="8.655604030175391"><ele>130.0</ele><time>2026-05-01T15:53:11Z</time></trkpt><trkpt lat="44.766913076743045" lon="8.655918892587254"><ele>130.0</ele><time>2026-05-01T15:53:12Z</time></trkpt><trkpt lat="44.7670516991279" lon="8.656231303289326"><ele>130.0</ele><time>2026-05-01T15:53:13Z</time></trkpt><trkpt lat="44.76718519146367" lon="8.656547930182303"><ele>130.0</ele><time>2026-05-01T15:53:14Z</time></trkpt><trkpt lat="44.767321610144066" lon="8.656859150455764"><ele>129.5</ele><time>2026-05-01T15:53:15Z</time></trkpt><trkpt lat="44.76745680526931" lon="8.65716848154751"><ele>129.0</ele><time>2026-05-01T15:53:16Z</time></trkpt><trkpt lat="44.767592521719244" lon="8.657474188379705"><ele>127.0</ele><time>2026-05-01T15:53:17Z</time></trkpt><trkpt lat="44.767728528249094" lon="8.657796869227136"><ele>125.0</ele><time>2026-05-01T15:53:18Z</time></trkpt><trkpt lat="44.767863550039706" lon="8.658110796532979"><ele>125.0</ele><time>2026-05-01T15:53:19Z</time></trkpt><trkpt lat="44.76800081758127" lon="8.658420104954132"><ele>125.0</ele><time>2026-05-01T15:53:20Z</time></trkpt><trkpt lat="44.7681343061309" lon="8.658731657300049"><ele>125.5</ele><time>2026-05-01T15:53:21Z</time></trkpt><trkpt lat="44.76827283150793" lon="8.659045862246922"><ele>126.0</ele><time>2026-05-01T15:53:22Z</time></trkpt><trkpt lat="44.768410688805105" lon="8.659360310054566"><ele>127.5</ele><time>2026-05-01T15:53:23Z</time></trkpt><trkpt lat="44.768547233865185" lon="8.659672428799473"><ele>129.0</ele><time>2026-05-01T15:53:24Z</time></trkpt><trkpt lat="44.76868210150755" lon="8.659984296826213"><ele>128.5</ele><time>2026-05-01T15:53:25Z</time></trkpt><trkpt lat="44.76882057874512" lon="8.660300557890572"><ele>128.0</ele><time>2026-05-01T15:53:26Z</time></trkpt><trkpt lat="44.768959653555974" lon="8.660609647004542"><ele>128.0</ele><time>2026-05-01T15:53:26.999Z</time></trkpt><trkpt lat="44.76909821075394" lon="8.660928816212074"><ele>128.0</ele><time>2026-05-01T15:53:27.999Z</time></trkpt><trkpt lat="44.76923211522407" lon="8.661242297930787"><ele>126.0</ele><time>2026-05-01T15:53:28.999Z</time></trkpt><trkpt lat="44.76936604082552" lon="8.661553141998153"><ele>124.0</ele><time>2026-05-01T15:53:30Z</time></trkpt><trkpt lat="44.769502237466156" lon="8.661865221207872"><ele>123.0</ele><time>2026-05-01T15:53:31Z</time></trkpt><trkpt lat="44.76963832725633" lon="8.662176629677438"><ele>122.0</ele><time>2026-05-01T15:53:32Z</time></trkpt><trkpt lat="44.76977456921827" lon="8.662493954234401"><ele>121.5</ele><time>2026-05-01T15:53:33Z</time></trkpt><trkpt lat="44.76990945179291" lon="8.662812508803844"><ele>121.0</ele><time>2026-05-01T15:53:34Z</time></trkpt><trkpt lat="44.7700429016461" lon="8.663126382912012"><ele>121.0</ele><time>2026-05-01T15:53:35Z</time></trkpt><trkpt lat="44.770180798846525" lon="8.663438046880353"><ele>121.0</ele><time>2026-05-01T15:53:36Z</time></trkpt><trkpt lat="44.77032214977165" lon="8.663753651322246"><ele>121.0</ele><time>2026-05-01T15:53:37Z</time></trkpt><trkpt lat="44.77046188557293" lon="8.664068894357552"><ele>121.0</ele><time>2026-05-01T15:53:38Z</time></trkpt><trkpt lat="44.7705998909217" lon="8.664381829610598"><ele>121.0</ele><time>2026-05-01T15:53:39Z</time></trkpt><trkpt lat="44.770737716941014" lon="8.66469313922629"><ele>121.0</ele><time>2026-05-01T15:53:40Z</time></trkpt><trkpt lat="44.770875308781555" lon="8.665008501741431"><ele>121.5</ele><time>2026-05-01T15:53:41Z</time></trkpt><trkpt lat="44.771010018904015" lon="8.665319458534873"><ele>122.0</ele><time>2026-05-01T15:53:42Z</time></trkpt><trkpt lat="44.771145102628076" lon="8.665636676253026"><ele>122.5</ele><time>2026-05-01T15:53:43Z</time></trkpt><trkpt lat="44.771279585320876" lon="8.665953921094609"><ele>123.0</ele><time>2026-05-01T15:53:44Z</time></trkpt><trkpt lat="44.771412470741446" lon="8.666265004102524"><ele>121.5</ele><time>2026-05-01T15:53:45Z</time></trkpt><trkpt lat="44.77154937962747" lon="8.666584410314858"><ele>120.0</ele><time>2026-05-01T15:53:46Z</time></trkpt><trkpt lat="44.77168287644725" lon="8.666899271800421"><ele>120.0</ele><time>2026-05-01T15:53:47Z</time></trkpt><trkpt lat="44.77181831219858" lon="8.667212244651717"><ele>120.0</ele><time>2026-05-01T15:53:48Z</time></trkpt><trkpt lat="44.77195384741471" lon="8.667524394167275"><ele>120.5</ele><time>2026-05-01T15:53:49Z</time></trkpt><trkpt lat="44.77209057063952" lon="8.667833436471"><ele>121.0</ele><time>2026-05-01T15:53:50Z</time></trkpt><trkpt lat="44.77222963236324" lon="8.668149366821929"><ele>121.0</ele><time>2026-05-01T15:53:51Z</time></trkpt><trkpt lat="44.77236567138293" lon="8.668462883662375"><ele>121.0</ele><time>2026-05-01T15:53:52Z</time></trkpt><trkpt lat="44.772501528495425" lon="8.6687786832196"><ele>121.0</ele><time>2026-05-01T15:53:53Z</time></trkpt><trkpt lat="44.772638544322405" lon="8.669092901228385"><ele>121.0</ele><time>2026-05-01T15:53:54Z</time></trkpt><trkpt lat="44.772774393330934" lon="8.669406905920704"><ele>121.0</ele><time>2026-05-01T15:53:55Z</time></trkpt><trkpt lat="44.77291227110892" lon="8.669721763390369"><ele>121.0</ele><time>2026-05-01T15:53:56Z</time></trkpt><trkpt lat="44.77304624896293" lon="8.670033708374143"><ele>121.0</ele><time>2026-05-01T15:53:57Z</time></trkpt><trkpt lat="44.773183758821844" lon="8.670349741580695"><ele>121.0</ele><time>2026-05-01T15:53:58Z</time></trkpt><trkpt lat="44.773318355257324" lon="8.670663791624925"><ele>121.0</ele><time>2026-05-01T15:53:59Z</time></trkpt><trkpt lat="44.773454425389865" lon="8.670976952220741"><ele>121.0</ele><time>2026-05-01T15:54:00Z</time></trkpt><trkpt lat="44.77359030654819" lon="8.671292163657654"><ele>121.5</ele><time>2026-05-01T15:54:01Z</time></trkpt><trkpt lat="44.773722294434336" lon="8.671607457844372"><ele>122.0</ele><time>2026-05-01T15:54:02Z</time></trkpt><trkpt lat="44.773852919382534" lon="8.671922792455964"><ele>122.5</ele><time>2026-05-01T15:54:03Z</time></trkpt><trkpt lat="44.773983954085864" lon="8.67224267283114"><ele>123.0</ele><time>2026-05-01T15:54:04Z</time></trkpt><trkpt lat="44.77411075381747" lon="8.67256148014435"><ele>122.5</ele><time>2026-05-01T15:54:05Z</time></trkpt><trkpt lat="44.7742328521347" lon="8.672887416067507"><ele>122.0</ele><time>2026-05-01T15:54:06Z</time></trkpt><trkpt lat="44.77435456848979" lon="8.673217595707024"><ele>122.0</ele><time>2026-05-01T15:54:07Z</time></trkpt><trkpt lat="44.77447036930045" lon="8.67354984136943"><ele>122.0</ele><time>2026-05-01T15:54:08Z</time></trkpt><trkpt lat="44.774581686275106" lon="8.67388240447059"><ele>122.0</ele><time>2026-05-01T15:54:09Z</time></trkpt><trkpt lat="44.77468569614495" lon="8.674215767546377"><ele>122.0</ele><time>2026-05-01T15:54:10Z</time></trkpt><trkpt lat="44.7747891413479" lon="8.674550967165166"><ele>123.0</ele><time>2026-05-01T15:54:11Z</time></trkpt><trkpt lat="44.77489286639583" lon="8.674890537040625"><ele>124.0</ele><time>2026-05-01T15:54:12Z</time></trkpt><trkpt lat="44.774992455079925" lon="8.675232791776097"><ele>123.5</ele><time>2026-05-01T15:54:13Z</time></trkpt><trkpt lat="44.775086705964725" lon="8.67557252981587"><ele>123.0</ele><time>2026-05-01T15:54:14Z</time></trkpt><trkpt lat="44.77517659593594" lon="8.675915962673166"><ele>122.5</ele><time>2026-05-01T15:54:15Z</time></trkpt><trkpt lat="44.77526434596659" lon="8.67626412063541"><ele>122.0</ele><time>2026-05-01T15:54:16Z</time></trkpt><trkpt lat="44.77534716409813" lon="8.676617607306495"><ele>122.0</ele><time>2026-05-01T15:54:17Z</time></trkpt><trkpt lat="44.775423645367546" lon="8.6769646009382"><ele>122.0</ele><time>2026-05-01T15:54:18Z</time></trkpt><trkpt lat="44.77550030629881" lon="8.67731555847152"><ele>122.0</ele><time>2026-05-01T15:54:19Z</time></trkpt><trkpt lat="44.775572342746145" lon="8.677670896203248"><ele>122.0</ele><time>2026-05-01T15:54:20Z</time></trkpt><trkpt lat="44.775639864483324" lon="8.678024633305267"><ele>122.0</ele><time>2026-05-01T15:54:21Z</time></trkpt><trkpt lat="44.77570306623191" lon="8.678382736184686"><ele>122.0</ele><time>2026-05-01T15:54:22Z</time></trkpt><trkpt lat="44.7757648367444" lon="8.67873829972725"><ele>122.0</ele><time>2026-05-01T15:54:23Z</time></trkpt><trkpt lat="44.7758231788675" lon="8.67909533515497"><ele>122.0</ele><time>2026-05-01T15:54:24Z</time></trkpt><trkpt lat="44.77587271479666" lon="8.679453706886944"><ele>122.5</ele><time>2026-05-01T15:54:25Z</time></trkpt><trkpt lat="44.77591919848899" lon="8.679813613951646"><ele>123.0</ele><time>2026-05-01T15:54:26Z</time></trkpt><trkpt lat="44.77596364763817" lon="8.680173211819298"><ele>122.5</ele><time>2026-05-01T15:54:27Z</time></trkpt><trkpt lat="44.776007503527495" lon="8.680531540077451"><ele>122.0</ele><time>2026-05-01T15:54:28Z</time></trkpt><trkpt lat="44.77604655738996" lon="8.680893623886162"><ele>122.0</ele><time>2026-05-01T15:54:29Z</time></trkpt><trkpt lat="44.776084004760214" lon="8.681255193564432"><ele>122.0</ele><time>2026-05-01T15:54:30Z</time></trkpt><trkpt lat="44.77612404327269" lon="8.681619498664782"><ele>121.5</ele><time>2026-05-01T15:54:31Z</time></trkpt><trkpt lat="44.77616240515032" lon="8.681985601913189"><ele>121.0</ele><time>2026-05-01T15:54:32Z</time></trkpt><trkpt lat="44.776207131883204" lon="8.682348956262764"><ele>121.0</ele><time>2026-05-01T15:54:33Z</time></trkpt><trkpt lat="44.776252617058866" lon="8.682711401491694"><ele>121.0</ele><time>2026-05-01T15:54:34Z</time></trkpt><trkpt lat="44.776297355640644" lon="8.683072987911409"><ele>122.5</ele><time>2026-05-01T15:54:35Z</time></trkpt><trkpt lat="44.776339139411874" lon="8.683434285724783"><ele>124.0</ele><time>2026-05-01T15:54:36Z</time></trkpt><trkpt lat="44.77637962636865" lon="8.683795801064063"><ele>125.5</ele><time>2026-05-01T15:54:37Z</time></trkpt><trkpt lat="44.77642084103376" lon="8.684162508008978"><ele>127.0</ele><time>2026-05-01T15:54:38Z</time></trkpt><trkpt lat="44.77645993376503" lon="8.684523533128848"><ele>128.5</ele><time>2026-05-01T15:54:39Z</time></trkpt><trkpt lat="44.7764996287069" lon="8.684887606708264"><ele>130.0</ele><time>2026-05-01T15:54:40Z</time></trkpt><trkpt lat="44.77653891135827" lon="8.685249531936877"><ele>131.5</ele><time>2026-05-01T15:54:41Z</time></trkpt><trkpt lat="44.77657719626875" lon="8.68562010054548"><ele>133.0</ele><time>2026-05-01T15:54:42Z</time></trkpt><trkpt lat="44.77661500487304" lon="8.685982594189761"><ele>134.5</ele><time>2026-05-01T15:54:43Z</time></trkpt><trkpt lat="44.77665603030428" lon="8.686346853129798"><ele>136.0</ele><time>2026-05-01T15:54:44Z</time></trkpt><trkpt lat="44.77669888658855" lon="8.686711110410545"><ele>136.5</ele><time>2026-05-01T15:54:45Z</time></trkpt><trkpt lat="44.77674208951299" lon="8.687072803017164"><ele>137.0</ele><time>2026-05-01T15:54:46Z</time></trkpt><trkpt lat="44.776784834778056" lon="8.687438366523239"><ele>137.0</ele><time>2026-05-01T15:54:47Z</time></trkpt><trkpt lat="44.776825842771416" lon="8.687798147021006"><ele>137.0</ele><time>2026-05-01T15:54:48Z</time></trkpt><trkpt lat="44.77686974078809" lon="8.688160882055932"><ele>138.0</ele><time>2026-05-01T15:54:49Z</time></trkpt><trkpt lat="44.77691648873881" lon="8.688522937558703"><ele>139.0</ele><time>2026-05-01T15:54:50Z</time></trkpt><trkpt lat="44.77696475828385" lon="8.688886819748529"><ele>140.0</ele><time>2026-05-01T15:54:51Z</time></trkpt><trkpt lat="44.77701532011149" lon="8.689241777079747"><ele>141.0</ele><time>2026-05-01T15:54:52Z</time></trkpt><trkpt lat="44.77706793782805" lon="8.689599881331006"><ele>142.0</ele><time>2026-05-01T15:54:53Z</time></trkpt><trkpt lat="44.777120541591586" lon="8.689957627373095"><ele>143.0</ele><time>2026-05-01T15:54:54Z</time></trkpt><trkpt lat="44.77717558038009" lon="8.690315163038818"><ele>143.5</ele><time>2026-05-01T15:54:55Z</time></trkpt><trkpt lat="44.77723149781597" lon="8.69067780796918"><ele>144.0</ele><time>2026-05-01T15:54:56Z</time></trkpt><trkpt lat="44.77729037114482" lon="8.691035090081472"><ele>143.5</ele><time>2026-05-01T15:54:57Z</time></trkpt><trkpt lat="44.77734832990518" lon="8.691390872170988"><ele>143.0</ele><time>2026-05-01T15:54:58Z</time></trkpt><trkpt lat="44.77740686621727" lon="8.69174935628734"><ele>143.0</ele><time>2026-05-01T15:54:59Z</time></trkpt><trkpt lat="44.777467725767835" lon="8.692109149669415"><ele>143.0</ele><time>2026-05-01T15:55:00Z</time></trkpt><trkpt lat="44.77752890347929" lon="8.69246597035174"><ele>144.0</ele><time>2026-05-01T15:55:01Z</time></trkpt><trkpt lat="44.77759089575409" lon="8.692822408949212"><ele>145.0</ele><time>2026-05-01T15:55:02Z</time></trkpt><trkpt lat="44.7776589198558" lon="8.693181073832882"><ele>145.0</ele><time>2026-05-01T15:55:03Z</time></trkpt><trkpt lat="44.77772602947418" lon="8.693534436245754"><ele>145.0</ele><time>2026-05-01T15:55:04Z</time></trkpt><trkpt lat="44.77779651842962" lon="8.693885482068405"><ele>145.5</ele><time>2026-05-01T15:55:05Z</time></trkpt><trkpt lat="44.77786642739785" lon="8.69423558803313"><ele>146.0</ele><time>2026-05-01T15:55:06Z</time></trkpt><trkpt lat="44.77794002548064" lon="8.69459363691459"><ele>146.0</ele><time>2026-05-01T15:55:07Z</time></trkpt><trkpt lat="44.778014502347744" lon="8.694946740636013"><ele>146.0</ele><time>2026-05-01T15:55:08Z</time></trkpt><trkpt lat="44.77808982250604" lon="8.695307219208694"><ele>146.0</ele><time>2026-05-01T15:55:09Z</time></trkpt><trkpt lat="44.77816474227089" lon="8.695647918657043"><ele>146.0</ele><time>2026-05-01T15:55:10Z</time></trkpt><trkpt lat="44.77824479600208" lon="8.69600041979787"><ele>145.0</ele><time>2026-05-01T15:55:11Z</time></trkpt><trkpt lat="44.77832164689835" lon="8.696354040389611"><ele>144.0</ele><time>2026-05-01T15:55:12Z</time></trkpt><trkpt lat="44.77839929807904" lon="8.696701752143722"><ele>144.5</ele><time>2026-05-01T15:55:13Z</time></trkpt><trkpt lat="44.778481144406996" lon="8.69705144254814"><ele>145.0</ele><time>2026-05-01T15:55:14Z</time></trkpt><trkpt lat="44.77856286583778" lon="8.697399693903552"><ele>146.0</ele><time>2026-05-01T15:55:15Z</time></trkpt><trkpt lat="44.778646509977094" lon="8.697746525769395"><ele>147.0</ele><time>2026-05-01T15:55:16Z</time></trkpt><trkpt lat="44.77873057662219" lon="8.69809138789571"><ele>147.0</ele><time>2026-05-01T15:55:17Z</time></trkpt><trkpt lat="44.77881683636594" lon="8.698438978842747"><ele>147.0</ele><time>2026-05-01T15:55:18Z</time></trkpt><trkpt lat="44.7789071344946" lon="8.698784507180108"><ele>147.0</ele><time>2026-05-01T15:55:19Z</time></trkpt><trkpt lat="44.778998491971244" lon="8.699121774937609"><ele>147.0</ele><time>2026-05-01T15:55:20Z</time></trkpt><trkpt lat="44.77908969242491" lon="8.699462198447414"><ele>147.5</ele><time>2026-05-01T15:55:21Z</time></trkpt><trkpt lat="44.77918379586178" lon="8.699804218148595"><ele>148.0</ele><time>2026-05-01T15:55:22Z</time></trkpt><trkpt lat="44.77927919641768" lon="8.700146523485287"><ele>147.5</ele><time>2026-05-01T15:55:23Z</time></trkpt><trkpt lat="44.779373911926655" lon="8.700489352163808"><ele>147.0</ele><time>2026-05-01T15:55:24Z</time></trkpt><trkpt lat="44.779469020937576" lon="8.70083149933668"><ele>147.5</ele><time>2026-05-01T15:55:25Z</time></trkpt><trkpt lat="44.77956310609268" lon="8.70117553084725"><ele>148.0</ele><time>2026-05-01T15:55:26Z</time></trkpt><trkpt lat="44.77966197619865" lon="8.701521315231918"><ele>148.0</ele><time>2026-05-01T15:55:27Z</time></trkpt><trkpt lat="44.77975963741629" lon="8.701859853931413"><ele>148.0</ele><time>2026-05-01T15:55:28Z</time></trkpt><trkpt lat="44.779858922008856" lon="8.702200610658094"><ele>148.0</ele><time>2026-05-01T15:55:29Z</time></trkpt><trkpt lat="44.77995694402572" lon="8.702542269950234"><ele>148.0</ele><time>2026-05-01T15:55:30Z</time></trkpt><trkpt lat="44.78005557623953" lon="8.702887667796158"><ele>148.0</ele><time>2026-05-01T15:55:31Z</time></trkpt><trkpt lat="44.78015244011796" lon="8.703228105923651"><ele>148.0</ele><time>2026-05-01T15:55:32Z</time></trkpt><trkpt lat="44.780246026394735" lon="8.703569404448631"><ele>148.5</ele><time>2026-05-01T15:55:33Z</time></trkpt><trkpt lat="44.78034252714905" lon="8.70391555826343"><ele>149.0</ele><time>2026-05-01T15:55:34Z</time></trkpt><trkpt lat="44.78044331432217" lon="8.704254575269657"><ele>149.5</ele><time>2026-05-01T15:55:35Z</time></trkpt><trkpt lat="44.780543412005365" lon="8.704594599562364"><ele>150.0</ele><time>2026-05-01T15:55:36Z</time></trkpt><trkpt lat="44.78064062377848" lon="8.704935587502074"><ele>150.5</ele><time>2026-05-01T15:55:37Z</time></trkpt><trkpt lat="44.78073671059343" lon="8.705275502812468"><ele>151.0</ele><time>2026-05-01T15:55:38Z</time></trkpt><trkpt lat="44.78083347212898" lon="8.705617532258184"><ele>151.0</ele><time>2026-05-01T15:55:39Z</time></trkpt><trkpt lat="44.780934338757866" lon="8.705959736463608"><ele>151.0</ele><time>2026-05-01T15:55:40Z</time></trkpt><trkpt lat="44.7810361483163" lon="8.706300595248717"><ele>151.0</ele><time>2026-05-01T15:55:41Z</time></trkpt><trkpt lat="44.78113536182974" lon="8.706640781445435"><ele>151.0</ele><time>2026-05-01T15:55:42Z</time></trkpt><trkpt lat="44.78122838282362" lon="8.706976805267555"><ele>151.5</ele><time>2026-05-01T15:55:43Z</time></trkpt><trkpt lat="44.78132326435371" lon="8.707319623791866"><ele>152.0</ele><time>2026-05-01T15:55:44Z</time></trkpt><trkpt lat="44.78141721471984" lon="8.707661484502225"><ele>153.0</ele><time>2026-05-01T15:55:45Z</time></trkpt><trkpt lat="44.78150935506629" lon="8.708002784177644"><ele>154.0</ele><time>2026-05-01T15:55:46Z</time></trkpt><trkpt lat="44.78160408614861" lon="8.708341394586041"><ele>154.0</ele><time>2026-05-01T15:55:47Z</time></trkpt><trkpt lat="44.78170153226871" lon="8.708682249518827"><ele>154.0</ele><time>2026-05-01T15:55:48Z</time></trkpt><trkpt lat="44.78179684448154" lon="8.709029453282348"><ele>153.0</ele><time>2026-05-01T15:55:49Z</time></trkpt><trkpt lat="44.78189310051007" lon="8.709370418603658"><ele>152.0</ele><time>2026-05-01T15:55:50Z</time></trkpt><trkpt lat="44.78198878404709" lon="8.709711091448483"><ele>152.0</ele><time>2026-05-01T15:55:51Z</time></trkpt><trkpt lat="44.78208703188338" lon="8.710050528389704"><ele>152.0</ele><time>2026-05-01T15:55:52Z</time></trkpt><trkpt lat="44.782186652546926" lon="8.710388395502244"><ele>151.5</ele><time>2026-05-01T15:55:53Z</time></trkpt><trkpt lat="44.78228951321839" lon="8.710731047090501"><ele>151.0</ele><time>2026-05-01T15:55:54Z</time></trkpt><trkpt lat="44.78239324984251" lon="8.711075751831796"><ele>151.0</ele><time>2026-05-01T15:55:55Z</time></trkpt><trkpt lat="44.78249525832451" lon="8.711411625537657"><ele>151.0</ele><time>2026-05-01T15:55:56Z</time></trkpt><trkpt lat="44.78259622760184" lon="8.711750420467022"><ele>151.5</ele><time>2026-05-01T15:55:57Z</time></trkpt><trkpt lat="44.78270048645109" lon="8.712085086863446"><ele>152.0</ele><time>2026-05-01T15:55:58Z</time></trkpt><trkpt lat="44.782798700204175" lon="8.712422649995668"><ele>151.5</ele><time>2026-05-01T15:55:59Z</time></trkpt><trkpt lat="44.782900485553235" lon="8.712762962202289"><ele>151.0</ele><time>2026-05-01T15:56:00Z</time></trkpt><trkpt lat="44.7829991920003" lon="8.713101318717175"><ele>151.0</ele><time>2026-05-01T15:56:01Z</time></trkpt><trkpt lat="44.78309047536532" lon="8.713439677391289"><ele>151.0</ele><time>2026-05-01T15:56:02Z</time></trkpt><trkpt lat="44.78318212411036" lon="8.713779927825879"><ele>151.5</ele><time>2026-05-01T15:56:03Z</time></trkpt><trkpt lat="44.78328096422081" lon="8.714120956376444"><ele>152.0</ele><time>2026-05-01T15:56:04Z</time></trkpt><trkpt lat="44.7833795722293" lon="8.714464753938527"><ele>152.0</ele><time>2026-05-01T15:56:05Z</time></trkpt><trkpt lat="44.78347691844336" lon="8.714808499050237"><ele>152.0</ele><time>2026-05-01T15:56:06Z</time></trkpt><trkpt lat="44.78357446791808" lon="8.71514855914525"><ele>151.0</ele><time>2026-05-01T15:56:07Z</time></trkpt><trkpt lat="44.78367330243981" lon="8.715490598897407"><ele>150.0</ele><time>2026-05-01T15:56:08Z</time></trkpt><trkpt lat="44.78377117847748" lon="8.715830433667765"><ele>151.0</ele><time>2026-05-01T15:56:09Z</time></trkpt><trkpt lat="44.783870655342206" lon="8.716178272411234"><ele>152.0</ele><time>2026-05-01T15:56:10Z</time></trkpt><trkpt lat="44.783975745452125" lon="8.716549025432059"><ele>152.5</ele><time>2026-05-01T15:56:11Z</time></trkpt><trkpt lat="44.7840889936753" lon="8.716946347433808"><ele>153.0</ele><time>2026-05-01T15:56:12Z</time></trkpt><trkpt lat="44.7842133111195" lon="8.71737172815279"><ele>152.5</ele><time>2026-05-01T15:56:13Z</time></trkpt><trkpt lat="44.78434271835016" lon="8.717818129632601"><ele>152.0</ele><time>2026-05-01T15:56:14Z</time></trkpt><trkpt lat="44.78447221740425" lon="8.718273483325587"><ele>150.5</ele><time>2026-05-01T15:56:15Z</time></trkpt><trkpt lat="44.78460188973563" lon="8.718738431297298"><ele>149.0</ele><time>2026-05-01T15:56:16Z</time></trkpt><trkpt lat="44.7847302957249" lon="8.719198426458158"><ele>150.5</ele><time>2026-05-01T15:56:17Z</time></trkpt><trkpt lat="44.78485154508808" lon="8.719645661655832"><ele>152.0</ele><time>2026-05-01T15:56:18Z</time></trkpt><trkpt lat="44.78496625940527" lon="8.720080689251203"><ele>152.0</ele><time>2026-05-01T15:56:19Z</time></trkpt><trkpt lat="44.785070695695104" lon="8.720481055972243"><ele>152.0</ele><time>2026-05-01T15:56:20Z</time></trkpt><trkpt lat="44.78517222086835" lon="8.720849517058626"><ele>151.0</ele><time>2026-05-01T15:56:21Z</time></trkpt><trkpt lat="44.78527915199136" lon="8.721206743265656"><ele>150.0</ele><time>2026-05-01T15:56:22Z</time></trkpt><trkpt lat="44.785393014601226" lon="8.721559889936099"><ele>150.5</ele><time>2026-05-01T15:56:23Z</time></trkpt><trkpt lat="44.78551339099632" lon="8.721912099812691"><ele>151.0</ele><time>2026-05-01T15:56:24Z</time></trkpt><trkpt lat="44.78563692889331" lon="8.722264522007704"><ele>151.0</ele><time>2026-05-01T15:56:25Z</time></trkpt><trkpt lat="44.78576278779492" lon="8.722613980643214"><ele>151.0</ele><time>2026-05-01T15:56:26Z</time></trkpt><trkpt lat="44.7858916687501" lon="8.722967314536213"><ele>150.5</ele><time>2026-05-01T15:56:27Z</time></trkpt><trkpt lat="44.78602490518894" lon="8.723309973526938"><ele>150.0</ele><time>2026-05-01T15:56:28Z</time></trkpt><trkpt lat="44.78616171132171" lon="8.723652811865671"><ele>149.5</ele><time>2026-05-01T15:56:29Z</time></trkpt><trkpt lat="44.78630335531551" lon="8.723982632476835"><ele>149.0</ele><time>2026-05-01T15:56:30Z</time></trkpt><trkpt lat="44.78645306479773" lon="8.724320046680344"><ele>149.5</ele><time>2026-05-01T15:56:31Z</time></trkpt><trkpt lat="44.786603880667506" lon="8.72465490882791"><ele>150.0</ele><time>2026-05-01T15:56:32Z</time></trkpt><trkpt lat="44.786759503630705" lon="8.724989167444189"><ele>147.5</ele><time>2026-05-01T15:56:33Z</time></trkpt><trkpt lat="44.78691354888858" lon="8.725316037784237"><ele>145.0</ele><time>2026-05-01T15:56:34Z</time></trkpt><trkpt lat="44.787069167096575" lon="8.725630558758123"><ele>145.0</ele><time>2026-05-01T15:56:35Z</time></trkpt><trkpt lat="44.78721855829365" lon="8.725920939116188"><ele>145.0</ele><time>2026-05-01T15:56:36Z</time></trkpt><trkpt lat="44.78736952198656" lon="8.726206636434128"><ele>145.5</ele><time>2026-05-01T15:56:37Z</time></trkpt><trkpt lat="44.78752590240401" lon="8.726489919895283"><ele>146.0</ele><time>2026-05-01T15:56:38Z</time></trkpt><trkpt lat="44.78768696542105" lon="8.726774364906179"><ele>148.5</ele><time>2026-05-01T15:56:39Z</time></trkpt><trkpt lat="44.7878522475564" lon="8.72706406014034"><ele>151.0</ele><time>2026-05-01T15:56:40Z</time></trkpt><trkpt lat="44.78801511129043" lon="8.727353886759857"><ele>151.0</ele><time>2026-05-01T15:56:41Z</time></trkpt><trkpt lat="44.78817923129018" lon="8.727642528750263"><ele>151.0</ele><time>2026-05-01T15:56:42Z</time></trkpt><trkpt lat="44.78833637545193" lon="8.727934908429264"><ele>151.0</ele><time>2026-05-01T15:56:43Z</time></trkpt><trkpt lat="44.78849628140746" lon="8.728226587344002"><ele>151.0</ele><time>2026-05-01T15:56:44Z</time></trkpt><trkpt lat="44.788655939413175" lon="8.728522215128569"><ele>152.0</ele><time>2026-05-01T15:56:45Z</time></trkpt><trkpt lat="44.78881664634488" lon="8.728809136935329"><ele>153.0</ele><time>2026-05-01T15:56:46Z</time></trkpt><trkpt lat="44.78897243604039" lon="8.729098282905108"><ele>153.0</ele><time>2026-05-01T15:56:47Z</time></trkpt><trkpt lat="44.78913321924741" lon="8.72938348929697"><ele>153.0</ele><time>2026-05-01T15:56:48Z</time></trkpt><trkpt lat="44.789299118438564" lon="8.72967593819689"><ele>153.0</ele><time>2026-05-01T15:56:49Z</time></trkpt><trkpt lat="44.78946245176714" lon="8.72996002910868"><ele>153.0</ele><time>2026-05-01T15:56:50Z</time></trkpt><trkpt lat="44.789624805565005" lon="8.730244749253012"><ele>153.0</ele><time>2026-05-01T15:56:51Z</time></trkpt><trkpt lat="44.78978819277372" lon="8.73053337830467"><ele>153.0</ele><time>2026-05-01T15:56:52Z</time></trkpt><trkpt lat="44.78994912815532" lon="8.730825531958383"><ele>154.0</ele><time>2026-05-01T15:56:53Z</time></trkpt><trkpt lat="44.79011097629467" lon="8.73111476504192"><ele>155.0</ele><time>2026-05-01T15:56:54Z</time></trkpt><trkpt lat="44.79027052461554" lon="8.731405591191823"><ele>155.0</ele><time>2026-05-01T15:56:55Z</time></trkpt><trkpt lat="44.79043406209115" lon="8.7316933512737"><ele>155.0</ele><time>2026-05-01T15:56:56Z</time></trkpt><trkpt lat="44.790593051883015" lon="8.73198204249334"><ele>155.0</ele><time>2026-05-01T15:56:57Z</time></trkpt><trkpt lat="44.790761260256645" lon="8.732280900193159"><ele>155.0</ele><time>2026-05-01T15:56:58Z</time></trkpt><trkpt lat="44.79092302681072" lon="8.732564154908726"><ele>154.0</ele><time>2026-05-01T15:56:59Z</time></trkpt><trkpt lat="44.791082860717715" lon="8.732848670605081"><ele>153.0</ele><time>2026-05-01T15:57:00Z</time></trkpt><trkpt lat="44.79124612288089" lon="8.733137517078168"><ele>153.0</ele><time>2026-05-01T15:57:01Z</time></trkpt><trkpt lat="44.791407515280284" lon="8.733428932640217"><ele>153.0</ele><time>2026-05-01T15:57:02Z</time></trkpt><trkpt lat="44.79156877915271" lon="8.73371845484427"><ele>153.0</ele><time>2026-05-01T15:57:03Z</time></trkpt><trkpt lat="44.79173013211456" lon="8.734005367927898"><ele>153.0</ele><time>2026-05-01T15:57:04Z</time></trkpt><trkpt lat="44.79189400107593" lon="8.73429566513316"><ele>153.5</ele><time>2026-05-01T15:57:05Z</time></trkpt><trkpt lat="44.79205617120237" lon="8.73458151255676"><ele>154.0</ele><time>2026-05-01T15:57:06Z</time></trkpt><trkpt lat="44.7922173716414" lon="8.73486852928014"><ele>154.0</ele><time>2026-05-01T15:57:07Z</time></trkpt><trkpt lat="44.792378963916214" lon="8.735160754611448"><ele>154.0</ele><time>2026-05-01T15:57:08Z</time></trkpt><trkpt lat="44.79254052163308" lon="8.73545297335575"><ele>154.0</ele><time>2026-05-01T15:57:09Z</time></trkpt><trkpt lat="44.79270103231492" lon="8.735739246748777"><ele>154.0</ele><time>2026-05-01T15:57:10Z</time></trkpt><trkpt lat="44.79286571749416" lon="8.736029719340337"><ele>155.0</ele><time>2026-05-01T15:57:11Z</time></trkpt><trkpt lat="44.79302768651971" lon="8.73631549607702"><ele>156.0</ele><time>2026-05-01T15:57:12Z</time></trkpt><trkpt lat="44.793188133136944" lon="8.736603716475107"><ele>155.5</ele><time>2026-05-01T15:57:13Z</time></trkpt><trkpt lat="44.793346138446175" lon="8.73689146429318"><ele>155.0</ele><time>2026-05-01T15:57:14Z</time></trkpt><trkpt lat="44.793507571406046" lon="8.737179613784894"><ele>155.0</ele><time>2026-05-01T15:57:15Z</time></trkpt><trkpt lat="44.793666910020534" lon="8.73747006711712"><ele>155.0</ele><time>2026-05-01T15:57:16Z</time></trkpt><trkpt lat="44.79382744941658" lon="8.737757468494399"><ele>155.0</ele><time>2026-05-01T15:57:17Z</time></trkpt><trkpt lat="44.79398991971107" lon="8.73804169432839"><ele>155.0</ele><time>2026-05-01T15:57:18Z</time></trkpt><trkpt lat="44.794153551553485" lon="8.738329272990143"><ele>155.0</ele><time>2026-05-01T15:57:19Z</time></trkpt><trkpt lat="44.794320144887344" lon="8.738614089039077"><ele>155.0</ele><time>2026-05-01T15:57:20Z</time></trkpt><trkpt lat="44.794483276089395" lon="8.738902302281028"><ele>155.5</ele><time>2026-05-01T15:57:21Z</time></trkpt><trkpt lat="44.7946416237008" lon="8.739188753830547"><ele>156.0</ele><time>2026-05-01T15:57:22Z</time></trkpt><trkpt lat="44.79480617581423" lon="8.739478457878269"><ele>156.5</ele><time>2026-05-01T15:57:23Z</time></trkpt><trkpt lat="44.79496488167044" lon="8.739767830541298"><ele>157.0</ele><time>2026-05-01T15:57:24Z</time></trkpt><trkpt lat="44.79512597872408" lon="8.740055855995271"><ele>156.0</ele><time>2026-05-01T15:57:25Z</time></trkpt><trkpt lat="44.79528585394698" lon="8.740342260309362"><ele>155.0</ele><time>2026-05-01T15:57:26Z</time></trkpt><trkpt lat="44.79544728019667" lon="8.740633611185322"><ele>155.0</ele><time>2026-05-01T15:57:27Z</time></trkpt><trkpt lat="44.795609035415886" lon="8.740923377847196"><ele>155.0</ele><time>2026-05-01T15:57:28Z</time></trkpt><trkpt lat="44.79577130979243" lon="8.741214006749736"><ele>155.0</ele><time>2026-05-01T15:57:29Z</time></trkpt><trkpt lat="44.79593233811343" lon="8.74150120694259"><ele>155.0</ele><time>2026-05-01T15:57:30Z</time></trkpt><trkpt lat="44.7960955043489" lon="8.74179092873613"><ele>155.5</ele><time>2026-05-01T15:57:31Z</time></trkpt><trkpt lat="44.796256044839595" lon="8.742076555500976"><ele>156.0</ele><time>2026-05-01T15:57:32Z</time></trkpt><trkpt lat="44.7964192021543" lon="8.742364917985853"><ele>156.0</ele><time>2026-05-01T15:57:33Z</time></trkpt><trkpt lat="44.79658203623264" lon="8.742645524731078"><ele>156.0</ele><time>2026-05-01T15:57:34Z</time></trkpt><trkpt lat="44.7967457377634" lon="8.742936195717812"><ele>155.0</ele><time>2026-05-01T15:57:35Z</time></trkpt><trkpt lat="44.796908132898174" lon="8.743225726693437"><ele>154.0</ele><time>2026-05-01T15:57:36Z</time></trkpt><trkpt lat="44.797070719352455" lon="8.743515595438053"><ele>155.0</ele><time>2026-05-01T15:57:37Z</time></trkpt><trkpt lat="44.79723407968479" lon="8.743807877251376"><ele>156.0</ele><time>2026-05-01T15:57:38Z</time></trkpt><trkpt lat="44.79739443105673" lon="8.744096650293812"><ele>156.0</ele><time>2026-05-01T15:57:39Z</time></trkpt><trkpt lat="44.79755611749163" lon="8.744385700565749"><ele>156.0</ele><time>2026-05-01T15:57:40Z</time></trkpt><trkpt lat="44.79772074181937" lon="8.744679668343132"><ele>155.5</ele><time>2026-05-01T15:57:41Z</time></trkpt><trkpt lat="44.797882533150066" lon="8.744968404515536"><ele>155.0</ele><time>2026-05-01T15:57:42Z</time></trkpt><trkpt lat="44.79804227411375" lon="8.745258995636329"><ele>155.0</ele><time>2026-05-01T15:57:43Z</time></trkpt><trkpt lat="44.79820481624512" lon="8.74554777842396"><ele>155.0</ele><time>2026-05-01T15:57:44Z</time></trkpt><trkpt lat="44.79835748771258" lon="8.745834311230682"><ele>155.0</ele><time>2026-05-01T15:57:45Z</time></trkpt><trkpt lat="44.79849974519532" lon="8.746088444078797"><ele>155.0</ele><time>2026-05-01T15:57:46Z</time></trkpt><trkpt lat="44.79862951106544" lon="8.746337301924095"><ele>155.0</ele><time>2026-05-01T15:57:47Z</time></trkpt><trkpt lat="44.79875807551719" lon="8.746581340683456"><ele>154.66666666666666</ele><time>2026-05-01T15:57:48Z</time></trkpt><trkpt lat="44.798871073128225" lon="8.746803762177498"><ele>154.33333333333334</ele><time>2026-05-01T15:57:49Z</time></trkpt><trkpt lat="44.79898503128392" lon="8.747013083043562"><ele>154.0</ele><time>2026-05-01T15:57:50Z</time></trkpt><trkpt lat="44.799095521357" lon="8.747214996500457"><ele>154.0</ele><time>2026-05-01T15:57:51Z</time></trkpt><trkpt lat="44.79919641248593" lon="8.747403088661097"><ele>154.0</ele><time>2026-05-01T15:57:52Z</time></trkpt><trkpt lat="44.79929834820113" lon="8.747601790611785"><ele>154.0</ele><time>2026-05-01T15:57:53Z</time></trkpt><trkpt lat="44.79938957935097" lon="8.7477929892074"><ele>155.0</ele><time>2026-05-01T15:57:54Z</time></trkpt><trkpt lat="44.79947442959585" lon="8.747990494160947"><ele>156.0</ele><time>2026-05-01T15:57:55Z</time></trkpt><trkpt lat="44.79954803165031" lon="8.748187147454539"><ele>157.0</ele><time>2026-05-01T15:57:56Z</time></trkpt><trkpt lat="44.79961170974522" lon="8.748382186590922"><ele>156.75</ele><time>2026-05-01T15:57:57Z</time></trkpt><trkpt lat="44.79966070469719" lon="8.748569462179239"><ele>156.5</ele><time>2026-05-01T15:57:58Z</time></trkpt><trkpt lat="44.79969823135753" lon="8.748744625401145"><ele>156.25</ele><time>2026-05-01T15:57:59Z</time></trkpt><trkpt lat="44.7997358426168" lon="8.748898634140174"><ele>156.0</ele><time>2026-05-01T15:58:00Z</time></trkpt><trkpt lat="44.799778276201685" lon="8.749038656210837"><ele>156.0</ele><time>2026-05-01T15:58:01Z</time></trkpt><trkpt lat="44.799827784918904" lon="8.749167563448724"><ele>156.0</ele><time>2026-05-01T15:58:02Z</time></trkpt><trkpt lat="44.79990354155194" lon="8.749261200743273"><ele>156.0</ele><time>2026-05-01T15:58:03Z</time></trkpt><trkpt lat="44.79989573563972" lon="8.749419406860737"><ele>156.0</ele><time>2026-05-01T15:58:04Z</time></trkpt><trkpt lat="44.79991090048888" lon="8.749526343756084"><ele>156.0</ele><time>2026-05-01T15:58:05Z</time></trkpt><trkpt lat="44.79993601581139" lon="8.749619201495195"><ele>155.66666666666666</ele><time>2026-05-01T15:58:06Z</time></trkpt><trkpt lat="44.79997290194793" lon="8.74970912935056"><ele>155.33333333333334</ele><time>2026-05-01T15:58:07Z</time></trkpt><trkpt lat="44.80001675394377" lon="8.74978209881355"><ele>155.0</ele><time>2026-05-01T15:58:08Z</time></trkpt><trkpt lat="44.80006055783481" lon="8.749853386991683"><ele>154.66666666666669</ele><time>2026-05-01T15:58:09Z</time></trkpt><trkpt lat="44.80014275633438" lon="8.749995571298323"><ele>154.33333333333334</ele><time>2026-05-01T15:58:11Z</time></trkpt><trkpt lat="44.80018498050635" lon="8.750069896799475"><ele>154.0</ele><time>2026-05-01T15:58:12Z</time></trkpt><trkpt lat="44.800222826013766" lon="8.750148520457408"><ele>154.0</ele><time>2026-05-01T15:58:13Z</time></trkpt><trkpt lat="44.80026270406219" lon="8.750221247799791"><ele>154.0</ele><time>2026-05-01T15:58:14Z</time></trkpt><trkpt lat="44.80030643908682" lon="8.750292157851472"><ele>154.0</ele><time>2026-05-01T15:58:15Z</time></trkpt><trkpt lat="44.800351056359716" lon="8.75036057159707"><ele>154.0</ele><time>2026-05-01T15:58:16Z</time></trkpt><trkpt lat="44.80039806406515" lon="8.750430309982441"><ele>154.0</ele><time>2026-05-01T15:58:17Z</time></trkpt><trkpt lat="44.80044150330642" lon="8.750495064928447"><ele>154.0</ele><time>2026-05-01T15:58:18Z</time></trkpt><trkpt lat="44.80051876659098" lon="8.750601882810534"><ele>154.0</ele><time>2026-05-01T15:58:20Z</time></trkpt><trkpt lat="44.80058102225577" lon="8.750703187791647"><ele>154.0</ele><time>2026-05-01T15:58:22Z</time></trkpt><trkpt lat="44.80064608205002" lon="8.75076154993963"><ele>154.0</ele><time>2026-05-01T15:58:24Z</time></trkpt><trkpt lat="44.80058795803241" lon="8.750697835520413"><ele>154.0</ele><time>2026-05-01T15:59:36Z</time></trkpt><trkpt lat="44.80053653986212" lon="8.750631896843819"><ele>154.0</ele><time>2026-05-01T15:59:44Z</time></trkpt><trkpt lat="44.80045729374627" lon="8.750729024131395"><ele>154.0</ele><time>2026-05-01T15:59:45Z</time></trkpt><trkpt lat="44.80052934369194" lon="8.750746976412216"><ele>154.0</ele><time>2026-05-01T16:00:13Z</time></trkpt><trkpt lat="44.800443410461625" lon="8.750940304508116"><ele>154.0</ele><time>2026-05-01T16:06:26Z</time></trkpt><trkpt lat="44.80045563947616" lon="8.750695360000835"><ele>154.0</ele><time>2026-05-01T16:06:27Z</time></trkpt><trkpt lat="44.8005240395427" lon="8.750714056985908"><ele>154.0</ele><time>2026-05-01T16:06:32Z</time></trkpt><trkpt lat="44.800557272441296" lon="8.750800166234143"><ele>154.0</ele><time>2026-05-01T16:06:36Z</time></trkpt><trkpt lat="44.800614509413094" lon="8.750842847505757"><ele>154.0</ele><time>2026-05-01T16:06:43Z</time></trkpt><trkpt lat="44.80063694212965" lon="8.750926148804151"><ele>154.0</ele><time>2026-05-01T16:22:27.999Z</time></trkpt><trkpt lat="44.80067208904524" lon="8.751006133791359"><ele>153.83333333333334</ele><time>2026-05-01T16:22:28.999Z</time></trkpt><trkpt lat="44.800719103200834" lon="8.751113743000808"><ele>153.66666666666669</ele><time>2026-05-01T16:22:30.999Z</time></trkpt><trkpt lat="44.800741555574824" lon="8.751223100841301"><ele>153.5</ele><time>2026-05-01T16:22:32.999Z</time></trkpt><trkpt lat="44.800775211811086" lon="8.751320153895167"><ele>153.33333333333334</ele><time>2026-05-01T16:24:12.999Z</time></trkpt><trkpt lat="44.80083520633308" lon="8.751365419132554"><ele>153.16666666666666</ele><time>2026-05-01T16:24:14.999Z</time></trkpt><trkpt lat="44.80093501541173" lon="8.751369533144207"><ele>153.0</ele><time>2026-05-01T16:24:16.999Z</time></trkpt><trkpt lat="44.80100871368605" lon="8.751397601857636"><ele>152.8</ele><time>2026-05-01T16:24:17.999Z</time></trkpt><trkpt lat="44.801077929612674" lon="8.751459624830243"><ele>152.60000000000002</ele><time>2026-05-01T16:24:18.999Z</time></trkpt><trkpt lat="44.80115332208813" lon="8.751542572737412"><ele>152.39999999999998</ele><time>2026-05-01T16:24:19.999Z</time></trkpt><trkpt lat="44.80124336319338" lon="8.751634317034359"><ele>152.2</ele><time>2026-05-01T16:24:20.999Z</time></trkpt><trkpt lat="44.80136072891455" lon="8.751741094508882"><ele>152.0</ele><time>2026-05-01T16:24:21.999Z</time></trkpt><trkpt lat="44.801479121442185" lon="8.75183386999498"><ele>152.0</ele><time>2026-05-01T16:24:22.999Z</time></trkpt><trkpt lat="44.80160500472123" lon="8.751934950669645"><ele>152.0</ele><time>2026-05-01T16:24:23.999Z</time></trkpt><trkpt lat="44.8017274205336" lon="8.752058148158216"><ele>152.0</ele><time>2026-05-01T16:24:24.999Z</time></trkpt><trkpt lat="44.80185361181" lon="8.752211866893697"><ele>151.66666666666666</ele><time>2026-05-01T16:24:25.999Z</time></trkpt><trkpt lat="44.80197053970069" lon="8.752389703296533"><ele>151.33333333333334</ele><time>2026-05-01T16:24:26.999Z</time></trkpt><trkpt lat="44.80210137326729" lon="8.752563166295397"><ele>151.0</ele><time>2026-05-01T16:24:27.999Z</time></trkpt><trkpt lat="44.80221027407014" lon="8.752798158047558"><ele>150.66666666666669</ele><time>2026-05-01T16:24:28.999Z</time></trkpt><trkpt lat="44.802339215711136" lon="8.753016902796274"><ele>150.33333333333334</ele><time>2026-05-01T16:24:29.999Z</time></trkpt><trkpt lat="44.802473918194075" lon="8.753250265480478"><ele>150.0</ele><time>2026-05-01T16:24:30.999Z</time></trkpt><trkpt lat="44.80261855540206" lon="8.753497246317165"><ele>150.5</ele><time>2026-05-01T16:24:31.999Z</time></trkpt><trkpt lat="44.80277457102639" lon="8.753754302803115"><ele>151.0</ele><time>2026-05-01T16:24:32.999Z</time></trkpt><trkpt lat="44.802933656480896" lon="8.75401888381319"><ele>151.0</ele><time>2026-05-01T16:24:33.999Z</time></trkpt><trkpt lat="44.80309636594321" lon="8.754296277203434"><ele>151.0</ele><time>2026-05-01T16:24:34.999Z</time></trkpt><trkpt lat="44.80325592186789" lon="8.754578456811648"><ele>150.5</ele><time>2026-05-01T16:24:35.999Z</time></trkpt><trkpt lat="44.80342178243355" lon="8.754874150120155"><ele>150.0</ele><time>2026-05-01T16:24:36.999Z</time></trkpt><trkpt lat="44.8035873619569" lon="8.75518007389484"><ele>150.0</ele><time>2026-05-01T16:24:38Z</time></trkpt><trkpt lat="44.80375481303628" lon="8.755486214870066"><ele>150.0</ele><time>2026-05-01T16:24:39Z</time></trkpt><trkpt lat="44.803928046784726" lon="8.755790418408292"><ele>150.0</ele><time>2026-05-01T16:24:40Z</time></trkpt><trkpt lat="44.804104377738646" lon="8.756097761092006"><ele>150.0</ele><time>2026-05-01T16:24:41Z</time></trkpt><trkpt lat="44.80428110883267" lon="8.756408619244569"><ele>150.0</ele><time>2026-05-01T16:24:42Z</time></trkpt><trkpt lat="44.80446108184775" lon="8.756724752991692"><ele>150.0</ele><time>2026-05-01T16:24:43Z</time></trkpt><trkpt lat="44.804639686757135" lon="8.757042059312479"><ele>150.5</ele><time>2026-05-01T16:24:44Z</time></trkpt><trkpt lat="44.80481542401944" lon="8.757356584042421"><ele>151.0</ele><time>2026-05-01T16:24:45Z</time></trkpt><trkpt lat="44.804990279433" lon="8.75767346638327"><ele>150.0</ele><time>2026-05-01T16:24:46Z</time></trkpt><trkpt lat="44.80517238152618" lon="8.757995183609694"><ele>149.0</ele><time>2026-05-01T16:24:47Z</time></trkpt><trkpt lat="44.805358351202386" lon="8.758325935217252"><ele>149.5</ele><time>2026-05-01T16:24:48Z</time></trkpt><trkpt lat="44.80553962226891" lon="8.758647806160617"><ele>150.0</ele><time>2026-05-01T16:24:49Z</time></trkpt><trkpt lat="44.80571492210978" lon="8.758962197719363"><ele>150.0</ele><time>2026-05-01T16:24:50Z</time></trkpt><trkpt lat="44.80589365882754" lon="8.75928114752376"><ele>150.0</ele><time>2026-05-01T16:24:51Z</time></trkpt><trkpt lat="44.80607381060694" lon="8.75960037501955"><ele>149.0</ele><time>2026-05-01T16:24:52Z</time></trkpt><trkpt lat="44.8062528502571" lon="8.759916743121709"><ele>148.0</ele><time>2026-05-01T16:24:53Z</time></trkpt><trkpt lat="44.80643458969208" lon="8.760235832846773"><ele>148.0</ele><time>2026-05-01T16:24:54Z</time></trkpt><trkpt lat="44.80661749466433" lon="8.760558111162396"><ele>148.0</ele><time>2026-05-01T16:24:55Z</time></trkpt><trkpt lat="44.80679761520331" lon="8.760878369626809"><ele>149.0</ele><time>2026-05-01T16:24:56Z</time></trkpt><trkpt lat="44.80697034000021" lon="8.761194331501413"><ele>150.0</ele><time>2026-05-01T16:24:57Z</time></trkpt><trkpt lat="44.807130437395664" lon="8.761501543924687"><ele>150.0</ele><time>2026-05-01T16:24:58Z</time></trkpt><trkpt lat="44.807311056033605" lon="8.76182476033458"><ele>150.0</ele><time>2026-05-01T16:24:59Z</time></trkpt><trkpt lat="44.807505240545765" lon="8.762147661624642"><ele>150.0</ele><time>2026-05-01T16:25:00Z</time></trkpt><trkpt lat="44.80769142835474" lon="8.76247754879556"><ele>150.0</ele><time>2026-05-01T16:25:01Z</time></trkpt><trkpt lat="44.807873918754154" lon="8.762796908336025"><ele>150.0</ele><time>2026-05-01T16:25:02Z</time></trkpt><trkpt lat="44.80805515920257" lon="8.763120342851739"><ele>150.0</ele><time>2026-05-01T16:25:03Z</time></trkpt><trkpt lat="44.80823430693045" lon="8.763438305890658"><ele>149.5</ele><time>2026-05-01T16:25:04Z</time></trkpt><trkpt lat="44.80841461776622" lon="8.763758227890973"><ele>149.0</ele><time>2026-05-01T16:25:05Z</time></trkpt><trkpt lat="44.80859806167914" lon="8.764086563011181"><ele>149.5</ele><time>2026-05-01T16:25:06Z</time></trkpt><trkpt lat="44.80878184422436" lon="8.764413743775957"><ele>150.0</ele><time>2026-05-01T16:25:07Z</time></trkpt><trkpt lat="44.808963481259745" lon="8.764738866598654"><ele>150.0</ele><time>2026-05-01T16:25:08Z</time></trkpt><trkpt lat="44.809136340618096" lon="8.765057666555233"><ele>150.0</ele><time>2026-05-01T16:25:09Z</time></trkpt><trkpt lat="44.809311202020034" lon="8.765370536820491"><ele>149.5</ele><time>2026-05-01T16:25:10Z</time></trkpt><trkpt lat="44.809489683347664" lon="8.765681939200077"><ele>149.0</ele><time>2026-05-01T16:25:11Z</time></trkpt><trkpt lat="44.80966222149283" lon="8.76598814506239"><ele>149.5</ele><time>2026-05-01T16:25:12Z</time></trkpt><trkpt lat="44.80983058355762" lon="8.76628340459305"><ele>150.0</ele><time>2026-05-01T16:25:13Z</time></trkpt><trkpt lat="44.80999154572807" lon="8.766576891309278"><ele>150.5</ele><time>2026-05-01T16:25:14Z</time></trkpt><trkpt lat="44.81015814042681" lon="8.7668711116647"><ele>151.0</ele><time>2026-05-01T16:25:15Z</time></trkpt><trkpt lat="44.810331585504805" lon="8.767168587895977"><ele>151.0</ele><time>2026-05-01T16:25:16Z</time></trkpt><trkpt lat="44.81049713370609" lon="8.767462188820073"><ele>151.0</ele><time>2026-05-01T16:25:17Z</time></trkpt><trkpt lat="44.81066853984238" lon="8.76775617601416"><ele>150.5</ele><time>2026-05-01T16:25:18Z</time></trkpt><trkpt lat="44.810839972401496" lon="8.768045676612248"><ele>150.0</ele><time>2026-05-01T16:25:19Z</time></trkpt><trkpt lat="44.811011269195276" lon="8.76833311945611"><ele>149.5</ele><time>2026-05-01T16:25:20Z</time></trkpt><trkpt lat="44.811183845266896" lon="8.768620184677118"><ele>149.0</ele><time>2026-05-01T16:25:21Z</time></trkpt><trkpt lat="44.81135827281619" lon="8.768907411030856"><ele>149.0</ele><time>2026-05-01T16:25:22Z</time></trkpt><trkpt lat="44.81153338575686" lon="8.769197331674167"><ele>149.0</ele><time>2026-05-01T16:25:23Z</time></trkpt><trkpt lat="44.81170809480592" lon="8.769484070496661"><ele>148.5</ele><time>2026-05-01T16:25:24Z</time></trkpt><trkpt lat="44.81188466943052" lon="8.769767239425287"><ele>148.0</ele><time>2026-05-01T16:25:25Z</time></trkpt><trkpt lat="44.81206176228607" lon="8.770057276858207"><ele>149.0</ele><time>2026-05-01T16:25:26Z</time></trkpt><trkpt lat="44.812237669102046" lon="8.770341637883385"><ele>150.0</ele><time>2026-05-01T16:25:27Z</time></trkpt><trkpt lat="44.812414800507675" lon="8.770628259537686"><ele>150.0</ele><time>2026-05-01T16:25:28Z</time></trkpt><trkpt lat="44.81258752443404" lon="8.7709149561816"><ele>150.0</ele><time>2026-05-01T16:25:29Z</time></trkpt><trkpt lat="44.81276068343621" lon="8.771203792431022"><ele>149.0</ele><time>2026-05-01T16:25:30Z</time></trkpt><trkpt lat="44.812935255099724" lon="8.771492013072965"><ele>148.0</ele><time>2026-05-01T16:25:31Z</time></trkpt><trkpt lat="44.81310902950721" lon="8.771779449817556"><ele>149.0</ele><time>2026-05-01T16:25:32Z</time></trkpt><trkpt lat="44.81328325194363" lon="8.77206788688591"><ele>150.0</ele><time>2026-05-01T16:25:33Z</time></trkpt><trkpt lat="44.81345863338525" lon="8.772355184980734"><ele>150.0</ele><time>2026-05-01T16:25:34Z</time></trkpt><trkpt lat="44.813634335184226" lon="8.772638040342475"><ele>150.0</ele><time>2026-05-01T16:25:35Z</time></trkpt><trkpt lat="44.81380808703978" lon="8.77292434172505"><ele>150.0</ele><time>2026-05-01T16:25:36Z</time></trkpt><trkpt lat="44.81398174276814" lon="8.7732103449389"><ele>150.0</ele><time>2026-05-01T16:25:37Z</time></trkpt><trkpt lat="44.81415082124832" lon="8.773506595345745"><ele>149.0</ele><time>2026-05-01T16:25:38Z</time></trkpt><trkpt lat="44.814332780285234" lon="8.773788156710431"><ele>148.0</ele><time>2026-05-01T16:25:39Z</time></trkpt><trkpt lat="44.81450427125603" lon="8.774075177649276"><ele>149.0</ele><time>2026-05-01T16:25:40Z</time></trkpt><trkpt lat="44.81467926941689" lon="8.774362564369854"><ele>150.0</ele><time>2026-05-01T16:25:41Z</time></trkpt><trkpt lat="44.81485444936568" lon="8.774647092631279"><ele>150.0</ele><time>2026-05-01T16:25:42Z</time></trkpt><trkpt lat="44.81503052900229" lon="8.774931482332645"><ele>150.0</ele><time>2026-05-01T16:25:43Z</time></trkpt><trkpt lat="44.815204215625684" lon="8.77521423321259"><ele>150.0</ele><time>2026-05-01T16:25:44Z</time></trkpt><trkpt lat="44.815382604699224" lon="8.775504204150973"><ele>150.0</ele><time>2026-05-01T16:25:45Z</time></trkpt><trkpt lat="44.815556267816525" lon="8.77578823674546"><ele>149.0</ele><time>2026-05-01T16:25:46Z</time></trkpt><trkpt lat="44.815732329123016" lon="8.776075211275723"><ele>148.0</ele><time>2026-05-01T16:25:47Z</time></trkpt><trkpt lat="44.8159078216492" lon="8.776363312185499"><ele>148.5</ele><time>2026-05-01T16:25:48Z</time></trkpt><trkpt lat="44.8160822612786" lon="8.776651766452806"><ele>149.0</ele><time>2026-05-01T16:25:49Z</time></trkpt><trkpt lat="44.816259390515896" lon="8.776939179441746"><ele>149.0</ele><time>2026-05-01T16:25:50Z</time></trkpt><trkpt lat="44.816425907108" lon="8.777212500391807"><ele>149.0</ele><time>2026-05-01T16:25:51Z</time></trkpt><trkpt lat="44.81658088410277" lon="8.77746510370573"><ele>149.5</ele><time>2026-05-01T16:25:52Z</time></trkpt><trkpt lat="44.816738449363335" lon="8.777719731032827"><ele>150.0</ele><time>2026-05-01T16:25:53Z</time></trkpt><trkpt lat="44.81691364135902" lon="8.777987417462414"><ele>150.0</ele><time>2026-05-01T16:25:54Z</time></trkpt><trkpt lat="44.817102772397455" lon="8.778274217359883"><ele>150.0</ele><time>2026-05-01T16:25:55Z</time></trkpt><trkpt lat="44.81730810559051" lon="8.778588430472144"><ele>149.0</ele><time>2026-05-01T16:25:56Z</time></trkpt><trkpt lat="44.81750536795436" lon="8.778900628792073"><ele>148.0</ele><time>2026-05-01T16:25:56.999Z</time></trkpt><trkpt lat="44.81770332120588" lon="8.779220360630385"><ele>148.0</ele><time>2026-05-01T16:25:57.999Z</time></trkpt><trkpt lat="44.81789804620332" lon="8.779547567194202"><ele>148.0</ele><time>2026-05-01T16:25:58.999Z</time></trkpt><trkpt lat="44.818099828919216" lon="8.779877650358873"><ele>148.5</ele><time>2026-05-01T16:25:59.999Z</time></trkpt><trkpt lat="44.818294530621785" lon="8.780216835933567"><ele>149.0</ele><time>2026-05-01T16:26:00.999Z</time></trkpt><trkpt lat="44.818486607497604" lon="8.780552483880806"><ele>149.0</ele><time>2026-05-01T16:26:01.999Z</time></trkpt><trkpt lat="44.81867885287208" lon="8.780883577501294"><ele>149.0</ele><time>2026-05-01T16:26:02.999Z</time></trkpt><trkpt lat="44.818864236802305" lon="8.78119713301847"><ele>149.5</ele><time>2026-05-01T16:26:03.999Z</time></trkpt><trkpt lat="44.81904070816307" lon="8.781487797687271"><ele>150.0</ele><time>2026-05-01T16:26:04.999Z</time></trkpt><trkpt lat="44.81921144520443" lon="8.781764058260011"><ele>149.0</ele><time>2026-05-01T16:26:05.999Z</time></trkpt><trkpt lat="44.8193821154807" lon="8.78203989322528"><ele>148.0</ele><time>2026-05-01T16:26:06.999Z</time></trkpt><trkpt lat="44.819555006324244" lon="8.782315692333308"><ele>148.0</ele><time>2026-05-01T16:26:07.999Z</time></trkpt><trkpt lat="44.819728742006234" lon="8.782598265653188"><ele>148.0</ele><time>2026-05-01T16:26:08.999Z</time></trkpt><trkpt lat="44.81989985680612" lon="8.78288253393182"><ele>148.0</ele><time>2026-05-01T16:26:09.999Z</time></trkpt><trkpt lat="44.82006891075548" lon="8.783168684345798"><ele>148.0</ele><time>2026-05-01T16:26:10.999Z</time></trkpt><trkpt lat="44.82023748852325" lon="8.783451752464801"><ele>148.0</ele><time>2026-05-01T16:26:11.999Z</time></trkpt><trkpt lat="44.82040921975116" lon="8.783735268797061"><ele>148.0</ele><time>2026-05-01T16:26:12.999Z</time></trkpt><trkpt lat="44.820580939265824" lon="8.784015058585332"><ele>148.0</ele><time>2026-05-01T16:26:13.999Z</time></trkpt><trkpt lat="44.82075360740614" lon="8.784296751995482"><ele>148.0</ele><time>2026-05-01T16:26:14.999Z</time></trkpt><trkpt lat="44.82092397771487" lon="8.784577981409644"><ele>147.5</ele><time>2026-05-01T16:26:15.999Z</time></trkpt><trkpt lat="44.82109271850894" lon="8.78486172119158"><ele>147.0</ele><time>2026-05-01T16:26:16.999Z</time></trkpt><trkpt lat="44.82126440547286" lon="8.785146541220694"><ele>147.5</ele><time>2026-05-01T16:26:17.999Z</time></trkpt><trkpt lat="44.82142927497978" lon="8.785432831075395"><ele>148.0</ele><time>2026-05-01T16:26:18.999Z</time></trkpt><trkpt lat="44.821592788425214" lon="8.785720803835144"><ele>148.5</ele><time>2026-05-01T16:26:19.999Z</time></trkpt><trkpt lat="44.82175775433273" lon="8.786015261945654"><ele>149.0</ele><time>2026-05-01T16:26:20.999Z</time></trkpt><trkpt lat="44.821920114695494" lon="8.786309760563695"><ele>149.0</ele><time>2026-05-01T16:26:21.999Z</time></trkpt><trkpt lat="44.822079373582085" lon="8.786603213264993"><ele>149.0</ele><time>2026-05-01T16:26:22.999Z</time></trkpt><trkpt lat="44.82223607450408" lon="8.786904213464526"><ele>149.0</ele><time>2026-05-01T16:26:23.999Z</time></trkpt><trkpt lat="44.82238936963274" lon="8.787203502726511"><ele>149.0</ele><time>2026-05-01T16:26:24.999Z</time></trkpt><trkpt lat="44.82254278554874" lon="8.787517976068626"><ele>148.0</ele><time>2026-05-01T16:26:25.999Z</time></trkpt><trkpt lat="44.82269281848822" lon="8.787821568710248"><ele>147.0</ele><time>2026-05-01T16:26:26.999Z</time></trkpt><trkpt lat="44.822844161494565" lon="8.788118536973695"><ele>147.0</ele><time>2026-05-01T16:26:27.999Z</time></trkpt><trkpt lat="44.822991501015565" lon="8.788431717961261"><ele>147.0</ele><time>2026-05-01T16:26:28.999Z</time></trkpt><trkpt lat="44.823132695566464" lon="8.788743251787036"><ele>146.5</ele><time>2026-05-01T16:26:29.999Z</time></trkpt><trkpt lat="44.82327383710519" lon="8.789055619061594"><ele>146.0</ele><time>2026-05-01T16:26:30.999Z</time></trkpt><trkpt lat="44.823411526808044" lon="8.789364771739805"><ele>146.5</ele><time>2026-05-01T16:26:32Z</time></trkpt><trkpt lat="44.823551695103205" lon="8.789680672893619"><ele>147.0</ele><time>2026-05-01T16:26:33Z</time></trkpt><trkpt lat="44.82368501279315" lon="8.78999735246477"><ele>147.5</ele><time>2026-05-01T16:26:34Z</time></trkpt><trkpt lat="44.823813922787565" lon="8.790315171402407"><ele>148.0</ele><time>2026-05-01T16:26:35Z</time></trkpt><trkpt lat="44.82394560989395" lon="8.790639764820272"><ele>148.0</ele><time>2026-05-01T16:26:36Z</time></trkpt><trkpt lat="44.82407263234751" lon="8.790964931780485"><ele>148.0</ele><time>2026-05-01T16:26:37Z</time></trkpt><trkpt lat="44.824197951627944" lon="8.791285738150986"><ele>147.5</ele><time>2026-05-01T16:26:38Z</time></trkpt><trkpt lat="44.82431540198739" lon="8.791613259125231"><ele>147.0</ele><time>2026-05-01T16:26:39Z</time></trkpt><trkpt lat="44.824437081744875" lon="8.791942423629697"><ele>147.0</ele><time>2026-05-01T16:26:40Z</time></trkpt><trkpt lat="44.8245487137413" lon="8.792274736384147"><ele>147.0</ele><time>2026-05-01T16:26:41Z</time></trkpt><trkpt lat="44.82466047909366" lon="8.792617744416637"><ele>147.0</ele><time>2026-05-01T16:26:42Z</time></trkpt><trkpt lat="44.82476400458254" lon="8.792950990357186"><ele>147.0</ele><time>2026-05-01T16:26:43Z</time></trkpt><trkpt lat="44.82487120082787" lon="8.793289297834178"><ele>146.5</ele><time>2026-05-01T16:26:44Z</time></trkpt><trkpt lat="44.824982890385634" lon="8.793626249679729"><ele>146.0</ele><time>2026-05-01T16:26:45Z</time></trkpt><trkpt lat="44.82509532633047" lon="8.793970997560015"><ele>146.5</ele><time>2026-05-01T16:26:46Z</time></trkpt><trkpt lat="44.82519794673577" lon="8.794296825501357"><ele>147.0</ele><time>2026-05-01T16:26:47Z</time></trkpt><trkpt lat="44.82530038991548" lon="8.794626721317899"><ele>147.5</ele><time>2026-05-01T16:26:48Z</time></trkpt><trkpt lat="44.82540409793344" lon="8.794975657425963"><ele>148.0</ele><time>2026-05-01T16:26:49Z</time></trkpt><trkpt lat="44.82550182195667" lon="8.795323424396038"><ele>149.5</ele><time>2026-05-01T16:26:50Z</time></trkpt><trkpt lat="44.82559812762582" lon="8.795663126803786"><ele>151.0</ele><time>2026-05-01T16:26:51Z</time></trkpt><trkpt lat="44.82569325660457" lon="8.79601710681688"><ele>151.0</ele><time>2026-05-01T16:26:52Z</time></trkpt><trkpt lat="44.82578064689576" lon="8.796363556029915"><ele>151.0</ele><time>2026-05-01T16:26:53Z</time></trkpt><trkpt lat="44.82586664530619" lon="8.796719750346993"><ele>150.5</ele><time>2026-05-01T16:26:54Z</time></trkpt><trkpt lat="44.825947847170866" lon="8.797069399904275"><ele>150.0</ele><time>2026-05-01T16:26:55Z</time></trkpt><trkpt lat="44.82603029231389" lon="8.79742473593143"><ele>149.0</ele><time>2026-05-01T16:26:56Z</time></trkpt><trkpt lat="44.82611400805491" lon="8.797777022422851"><ele>148.0</ele><time>2026-05-01T16:26:57Z</time></trkpt><trkpt lat="44.82619589674501" lon="8.798122348132752"><ele>148.0</ele><time>2026-05-01T16:26:58Z</time></trkpt><trkpt lat="44.82628115371546" lon="8.798477644349672"><ele>148.0</ele><time>2026-05-01T16:26:59Z</time></trkpt><trkpt lat="44.82636514854912" lon="8.798825748070717"><ele>149.5</ele><time>2026-05-01T16:27:00Z</time></trkpt><trkpt lat="44.826451891149766" lon="8.799180594249975"><ele>151.0</ele><time>2026-05-01T16:27:01Z</time></trkpt><trkpt lat="44.82653903870474" lon="8.799529205316098"><ele>151.5</ele><time>2026-05-01T16:27:02Z</time></trkpt><trkpt lat="44.826628827301136" lon="8.799882142313452"><ele>152.0</ele><time>2026-05-01T16:27:03Z</time></trkpt><trkpt lat="44.82671727850155" lon="8.800232389272708"><ele>151.0</ele><time>2026-05-01T16:27:04Z</time></trkpt><trkpt lat="44.826804343376935" lon="8.800584687635277"><ele>150.0</ele><time>2026-05-01T16:27:05Z</time></trkpt><trkpt lat="44.82689154066215" lon="8.800935743090664"><ele>149.0</ele><time>2026-05-01T16:27:06Z</time></trkpt><trkpt lat="44.82697066414182" lon="8.801283059580706"><ele>148.0</ele><time>2026-05-01T16:27:07Z</time></trkpt><trkpt lat="44.827051560430185" lon="8.80163264689796"><ele>149.0</ele><time>2026-05-01T16:27:08Z</time></trkpt><trkpt lat="44.82713605716872" lon="8.801990167983655"><ele>150.0</ele><time>2026-05-01T16:27:09Z</time></trkpt><trkpt lat="44.8272200880361" lon="8.802344406020728"><ele>150.5</ele><time>2026-05-01T16:27:10Z</time></trkpt><trkpt lat="44.82730414349659" lon="8.802707608735602"><ele>151.0</ele><time>2026-05-01T16:27:11Z</time></trkpt><trkpt lat="44.82739309244584" lon="8.803045543032027"><ele>151.0</ele><time>2026-05-01T16:27:12Z</time></trkpt><trkpt lat="44.82748747532849" lon="8.803392360717996"><ele>151.0</ele><time>2026-05-01T16:27:13Z</time></trkpt><trkpt lat="44.827576274083164" lon="8.803738419484134"><ele>149.5</ele><time>2026-05-01T16:27:14Z</time></trkpt><trkpt lat="44.82766435665091" lon="8.80409079237184"><ele>148.0</ele><time>2026-05-01T16:27:15Z</time></trkpt><trkpt lat="44.827746255741765" lon="8.804438504646981"><ele>147.5</ele><time>2026-05-01T16:27:16Z</time></trkpt><trkpt lat="44.827833840411905" lon="8.80479694599088"><ele>147.0</ele><time>2026-05-01T16:27:17Z</time></trkpt><trkpt lat="44.82791305271032" lon="8.80514354219652"><ele>147.0</ele><time>2026-05-01T16:27:18Z</time></trkpt><trkpt lat="44.82799910808662" lon="8.805495316859743"><ele>147.0</ele><time>2026-05-01T16:27:19Z</time></trkpt><trkpt lat="44.82808253837031" lon="8.805850340610556"><ele>146.5</ele><time>2026-05-01T16:27:20Z</time></trkpt><trkpt lat="44.828165116084826" lon="8.806202227914053"><ele>146.0</ele><time>2026-05-01T16:27:21Z</time></trkpt><trkpt lat="44.828247656338675" lon="8.806551236319205"><ele>145.0</ele><time>2026-05-01T16:27:22Z</time></trkpt><trkpt lat="44.828329040802906" lon="8.806899833015615"><ele>144.0</ele><time>2026-05-01T16:27:23Z</time></trkpt><trkpt lat="44.82841155902937" lon="8.807251421734117"><ele>144.5</ele><time>2026-05-01T16:27:24Z</time></trkpt><trkpt lat="44.828492263592025" lon="8.807605495861251"><ele>145.0</ele><time>2026-05-01T16:27:25Z</time></trkpt><trkpt lat="44.8285786068968" lon="8.807959512644379"><ele>145.0</ele><time>2026-05-01T16:27:26Z</time></trkpt><trkpt lat="44.82866845864708" lon="8.80831699323955"><ele>145.0</ele><time>2026-05-01T16:27:27Z</time></trkpt><trkpt lat="44.82874963418471" lon="8.808661483889255"><ele>144.5</ele><time>2026-05-01T16:27:28Z</time></trkpt><trkpt lat="44.828836810537794" lon="8.80901442514826"><ele>144.0</ele><time>2026-05-01T16:27:29Z</time></trkpt><trkpt lat="44.828920626315494" lon="8.809365721159034"><ele>144.0</ele><time>2026-05-01T16:27:30Z</time></trkpt><trkpt lat="44.829000007987425" lon="8.809712357252874"><ele>144.0</ele><time>2026-05-01T16:27:31Z</time></trkpt><trkpt lat="44.82908202157985" lon="8.810065531546861"><ele>145.5</ele><time>2026-05-01T16:27:32Z</time></trkpt><trkpt lat="44.82916535530986" lon="8.81042110088122"><ele>147.0</ele><time>2026-05-01T16:27:33Z</time></trkpt><trkpt lat="44.82924836153098" lon="8.81076985717152"><ele>146.5</ele><time>2026-05-01T16:27:34Z</time></trkpt><trkpt lat="44.82933452145475" lon="8.811122050800213"><ele>146.0</ele><time>2026-05-01T16:27:35Z</time></trkpt><trkpt lat="44.829418537724436" lon="8.811473655657172"><ele>146.0</ele><time>2026-05-01T16:27:36Z</time></trkpt><trkpt lat="44.829504653006964" lon="8.811827670537948"><ele>146.0</ele><time>2026-05-01T16:27:37Z</time></trkpt><trkpt lat="44.82958728492754" lon="8.81217671393324"><ele>146.0</ele><time>2026-05-01T16:27:38Z</time></trkpt><trkpt lat="44.82967456039566" lon="8.812530596440386"><ele>146.0</ele><time>2026-05-01T16:27:39Z</time></trkpt><trkpt lat="44.82975884095206" lon="8.812880936768845"><ele>145.5</ele><time>2026-05-01T16:27:40Z</time></trkpt><trkpt lat="44.829842059125184" lon="8.8132342638599"><ele>145.0</ele><time>2026-05-01T16:27:41Z</time></trkpt><trkpt lat="44.829925163824285" lon="8.813582366727172"><ele>145.0</ele><time>2026-05-01T16:27:42Z</time></trkpt><trkpt lat="44.83000817171588" lon="8.813936309320285"><ele>145.0</ele><time>2026-05-01T16:27:43Z</time></trkpt><trkpt lat="44.83008920238328" lon="8.814287539125651"><ele>145.5</ele><time>2026-05-01T16:27:44Z</time></trkpt><trkpt lat="44.83016810395452" lon="8.814636791966757"><ele>146.0</ele><time>2026-05-01T16:27:45Z</time></trkpt><trkpt lat="44.83024992753513" lon="8.814990981483435"><ele>146.0</ele><time>2026-05-01T16:27:46Z</time></trkpt><trkpt lat="44.8303298659341" lon="8.815341529318319"><ele>146.0</ele><time>2026-05-01T16:27:47Z</time></trkpt><trkpt lat="44.83041184177435" lon="8.815691722218702"><ele>146.5</ele><time>2026-05-01T16:27:48Z</time></trkpt><trkpt lat="44.83049466176831" lon="8.81604208588194"><ele>147.0</ele><time>2026-05-01T16:27:49Z</time></trkpt><trkpt lat="44.830579781185826" lon="8.81639587282296"><ele>147.0</ele><time>2026-05-01T16:27:50Z</time></trkpt><trkpt lat="44.83066364468449" lon="8.816746817287655"><ele>147.0</ele><time>2026-05-01T16:27:51Z</time></trkpt><trkpt lat="44.830747412543396" lon="8.817091900228982"><ele>147.0</ele><time>2026-05-01T16:27:52Z</time></trkpt><trkpt lat="44.83083158754819" lon="8.817442638295818"><ele>147.0</ele><time>2026-05-01T16:27:53Z</time></trkpt><trkpt lat="44.830915646616695" lon="8.817799952502506"><ele>146.0</ele><time>2026-05-01T16:27:54Z</time></trkpt><trkpt lat="44.83099802659926" lon="8.818149054838031"><ele>145.0</ele><time>2026-05-01T16:27:55Z</time></trkpt><trkpt lat="44.83107340177959" lon="8.818488167742919"><ele>147.0</ele><time>2026-05-01T16:27:56Z</time></trkpt><trkpt lat="44.831161514077635" lon="8.818842774464223"><ele>149.0</ele><time>2026-05-01T16:27:57Z</time></trkpt><trkpt lat="44.831245960524036" lon="8.819195136503067"><ele>148.5</ele><time>2026-05-01T16:27:58Z</time></trkpt><trkpt lat="44.83133391047776" lon="8.819548507478617"><ele>148.0</ele><time>2026-05-01T16:27:59Z</time></trkpt><trkpt lat="44.83141758745211" lon="8.819897509196009"><ele>148.0</ele><time>2026-05-01T16:28:00Z</time></trkpt><trkpt lat="44.83150037258988" lon="8.820245836482036"><ele>148.0</ele><time>2026-05-01T16:28:01Z</time></trkpt><trkpt lat="44.831584106023165" lon="8.820599990411832"><ele>148.0</ele><time>2026-05-01T16:28:02Z</time></trkpt><trkpt lat="44.831668799994" lon="8.820957928625969"><ele>148.0</ele><time>2026-05-01T16:28:02.999Z</time></trkpt><trkpt lat="44.83176238376809" lon="8.82130400099242"><ele>147.5</ele><time>2026-05-01T16:28:03.999Z</time></trkpt><trkpt lat="44.83183904559501" lon="8.821660573741713"><ele>147.0</ele><time>2026-05-01T16:28:04.999Z</time></trkpt><trkpt lat="44.831918273852395" lon="8.822007750876612"><ele>147.0</ele><time>2026-05-01T16:28:05.999Z</time></trkpt><trkpt lat="44.83200350698288" lon="8.822360767695256"><ele>147.0</ele><time>2026-05-01T16:28:06.999Z</time></trkpt><trkpt lat="44.83208649746649" lon="8.822711085279723"><ele>147.0</ele><time>2026-05-01T16:28:07.999Z</time></trkpt><trkpt lat="44.83217582816856" lon="8.823065674498828"><ele>147.0</ele><time>2026-05-01T16:28:08.999Z</time></trkpt><trkpt lat="44.832253924683044" lon="8.823414814179653"><ele>148.0</ele><time>2026-05-01T16:28:09.999Z</time></trkpt><trkpt lat="44.83233563846255" lon="8.823768964070693"><ele>149.0</ele><time>2026-05-01T16:28:10.999Z</time></trkpt><trkpt lat="44.832417373671056" lon="8.82412159339086"><ele>148.0</ele><time>2026-05-01T16:28:11.999Z</time></trkpt><trkpt lat="44.832499118439365" lon="8.824473348460588"><ele>147.0</ele><time>2026-05-01T16:28:12.999Z</time></trkpt><trkpt lat="44.8325777261438" lon="8.824821209200419"><ele>146.5</ele><time>2026-05-01T16:28:13.999Z</time></trkpt><trkpt lat="44.83266090024041" lon="8.825172221377054"><ele>146.0</ele><time>2026-05-01T16:28:14.999Z</time></trkpt><trkpt lat="44.832744711620066" lon="8.825524857380628"><ele>146.0</ele><time>2026-05-01T16:28:15.999Z</time></trkpt><trkpt lat="44.83283038027364" lon="8.825877702133107"><ele>146.0</ele><time>2026-05-01T16:28:16.999Z</time></trkpt><trkpt lat="44.83291379917574" lon="8.826227753258538"><ele>147.0</ele><time>2026-05-01T16:28:18Z</time></trkpt><trkpt lat="44.83299349638833" lon="8.826562149702537"><ele>148.0</ele><time>2026-05-01T16:28:19Z</time></trkpt><trkpt lat="44.83307307334692" lon="8.826912092350012"><ele>148.0</ele><time>2026-05-01T16:28:20Z</time></trkpt><trkpt lat="44.83314665109799" lon="8.827229793382303"><ele>148.0</ele><time>2026-05-01T16:28:21Z</time></trkpt><trkpt lat="44.833220130699225" lon="8.827532558335266"><ele>147.5</ele><time>2026-05-01T16:28:22Z</time></trkpt><trkpt lat="44.833290532759996" lon="8.827836487382841"><ele>147.0</ele><time>2026-05-01T16:28:23Z</time></trkpt><trkpt lat="44.83336247344501" lon="8.828138766909248"><ele>147.0</ele><time>2026-05-01T16:28:24Z</time></trkpt><trkpt lat="44.83344069344747" lon="8.828435750775887"><ele>147.0</ele><time>2026-05-01T16:28:25Z</time></trkpt><trkpt lat="44.83352633794538" lon="8.828726337701763"><ele>147.0</ele><time>2026-05-01T16:28:26Z</time></trkpt><trkpt lat="44.83362292340071" lon="8.829001799711149"><ele>146.33333333333334</ele><time>2026-05-01T16:28:27Z</time></trkpt><trkpt lat="44.83373885618966" lon="8.829259488567484"><ele>145.66666666666669</ele><time>2026-05-01T16:28:28Z</time></trkpt><trkpt lat="44.833872055614755" lon="8.829506644107484"><ele>145.0</ele><time>2026-05-01T16:28:29Z</time></trkpt><trkpt lat="44.834030306633124" lon="8.829723938874936"><ele>144.66666666666669</ele><time>2026-05-01T16:28:30Z</time></trkpt><trkpt lat="44.834203845870384" lon="8.829917022466104"><ele>144.33333333333334</ele><time>2026-05-01T16:28:31Z</time></trkpt><trkpt lat="44.83438545629275" lon="8.830075252739842"><ele>144.0</ele><time>2026-05-01T16:28:32Z</time></trkpt><trkpt lat="44.83458259151117" lon="8.830192232105128"><ele>143.66666666666666</ele><time>2026-05-01T16:28:33Z</time></trkpt><trkpt lat="44.83478922445827" lon="8.830273247693823"><ele>143.33333333333331</ele><time>2026-05-01T16:28:34Z</time></trkpt><trkpt lat="44.83500201720751" lon="8.830332160377763"><ele>143.0</ele><time>2026-05-01T16:28:35Z</time></trkpt><trkpt lat="44.83521447744231" lon="8.830352382284225"><ele>142.33333333333331</ele><time>2026-05-01T16:28:36Z</time></trkpt><trkpt lat="44.835427135530246" lon="8.83034028422353"><ele>141.66666666666666</ele><time>2026-05-01T16:28:37Z</time></trkpt><trkpt lat="44.8356404891962" lon="8.83030921687883"><ele>141.0</ele><time>2026-05-01T16:28:38Z</time></trkpt><trkpt lat="44.83585241154367" lon="8.83024667266574"><ele>141.33333333333334</ele><time>2026-05-01T16:28:39Z</time></trkpt><trkpt lat="44.83606666767817" lon="8.830166885950025"><ele>141.66666666666669</ele><time>2026-05-01T16:28:40Z</time></trkpt><trkpt lat="44.83627351065888" lon="8.830049575378014"><ele>142.0</ele><time>2026-05-01T16:28:41Z</time></trkpt><trkpt lat="44.836487219243814" lon="8.82991219098214"><ele>142.0</ele><time>2026-05-01T16:28:42Z</time></trkpt><trkpt lat="44.836704718166864" lon="8.829773361176708"><ele>142.0</ele><time>2026-05-01T16:28:43Z</time></trkpt><trkpt lat="44.83692717811385" lon="8.829635506564657"><ele>141.5</ele><time>2026-05-01T16:28:44Z</time></trkpt><trkpt lat="44.837152955877215" lon="8.829507067334786"><ele>141.0</ele><time>2026-05-01T16:28:45Z</time></trkpt><trkpt lat="44.83738692892949" lon="8.829387488664588"><ele>141.0</ele><time>2026-05-01T16:28:46Z</time></trkpt><trkpt lat="44.83762657226717" lon="8.829282156326778"><ele>141.0</ele><time>2026-05-01T16:28:47Z</time></trkpt><trkpt lat="44.83787213632836" lon="8.829198268638065"><ele>142.0</ele><time>2026-05-01T16:28:48Z</time></trkpt><trkpt lat="44.838131362846795" lon="8.829126254261203"><ele>143.0</ele><time>2026-05-01T16:28:49Z</time></trkpt><trkpt lat="44.838387537897674" lon="8.829069887982271"><ele>141.5</ele><time>2026-05-01T16:28:50Z</time></trkpt><trkpt lat="44.83864855955225" lon="8.829032430521865"><ele>140.0</ele><time>2026-05-01T16:28:51Z</time></trkpt><trkpt lat="44.838912876150324" lon="8.829004602124552"><ele>140.0</ele><time>2026-05-01T16:28:52Z</time></trkpt><trkpt lat="44.83917649702043" lon="8.828981562240667"><ele>140.0</ele><time>2026-05-01T16:28:53Z</time></trkpt><trkpt lat="44.839441618499286" lon="8.828963601245334"><ele>139.5</ele><time>2026-05-01T16:28:54Z</time></trkpt><trkpt lat="44.839704608186366" lon="8.82895768114571"><ele>139.0</ele><time>2026-05-01T16:28:55Z</time></trkpt><trkpt lat="44.839968576839325" lon="8.828951364787809"><ele>139.5</ele><time>2026-05-01T16:28:56Z</time></trkpt><trkpt lat="44.84022650115669" lon="8.8289505346615"><ele>140.0</ele><time>2026-05-01T16:28:57Z</time></trkpt><trkpt lat="44.84045674311819" lon="8.828947340952917"><ele>140.0</ele><time>2026-05-01T16:28:58Z</time></trkpt><trkpt lat="44.8406695890807" lon="8.828909119305361"><ele>140.0</ele><time>2026-05-01T16:28:59Z</time></trkpt><trkpt lat="44.84086807591281" lon="8.828841015316724"><ele>140.0</ele><time>2026-05-01T16:29:00Z</time></trkpt><trkpt lat="44.84106291378371" lon="8.828782836787918"><ele>140.0</ele><time>2026-05-01T16:29:01Z</time></trkpt><trkpt lat="44.84131570792492" lon="8.828979732808762"><ele>140.0</ele><time>2026-05-01T16:29:02Z</time></trkpt><trkpt lat="44.841544133150244" lon="8.828982684364505"><ele>140.0</ele><time>2026-05-01T16:29:03Z</time></trkpt><trkpt lat="44.84178989271125" lon="8.828987308743054"><ele>140.0</ele><time>2026-05-01T16:29:04Z</time></trkpt><trkpt lat="44.842049320966545" lon="8.828999092535776"><ele>139.5</ele><time>2026-05-01T16:29:05Z</time></trkpt><trkpt lat="44.84231220713601" lon="8.829011056019942"><ele>139.0</ele><time>2026-05-01T16:29:06Z</time></trkpt><trkpt lat="44.842586822419875" lon="8.829021270101398"><ele>138.5</ele><time>2026-05-01T16:29:07Z</time></trkpt><trkpt lat="44.84286589588574" lon="8.829035333224288"><ele>138.0</ele><time>2026-05-01T16:29:08Z</time></trkpt><trkpt lat="44.843149325293965" lon="8.82906026592073"><ele>138.0</ele><time>2026-05-01T16:29:09Z</time></trkpt><trkpt lat="44.843440569360105" lon="8.82908255839643"><ele>138.0</ele><time>2026-05-01T16:29:10Z</time></trkpt><trkpt lat="44.843735459396875" lon="8.829112855978446"><ele>138.0</ele><time>2026-05-01T16:29:11Z</time></trkpt><trkpt lat="44.84402976833893" lon="8.829144978381748"><ele>138.0</ele><time>2026-05-01T16:29:12Z</time></trkpt><trkpt lat="44.84432836439521" lon="8.829174034336685"><ele>138.0</ele><time>2026-05-01T16:29:13Z</time></trkpt><trkpt lat="44.84462376421507" lon="8.829196905628015"><ele>138.0</ele><time>2026-05-01T16:29:14Z</time></trkpt><trkpt lat="44.844895280604064" lon="8.829206585430594"><ele>138.0</ele><time>2026-05-01T16:29:15Z</time></trkpt><trkpt lat="44.845153243286205" lon="8.829219836154325"><ele>138.0</ele><time>2026-05-01T16:29:16Z</time></trkpt><trkpt lat="44.84540327868097" lon="8.829227479694525"><ele>138.0</ele><time>2026-05-01T16:29:17Z</time></trkpt><trkpt lat="44.84566076906097" lon="8.82923882450469"><ele>138.0</ele><time>2026-05-01T16:29:18Z</time></trkpt><trkpt lat="44.84591665147943" lon="8.8292517286065"><ele>137.0</ele><time>2026-05-01T16:29:19Z</time></trkpt><trkpt lat="44.84616942851646" lon="8.82926431213601"><ele>136.0</ele><time>2026-05-01T16:29:20Z</time></trkpt><trkpt lat="44.84642892662324" lon="8.829278828900172"><ele>136.0</ele><time>2026-05-01T16:29:21Z</time></trkpt><trkpt lat="44.84668363531099" lon="8.829298735627276"><ele>136.0</ele><time>2026-05-01T16:29:22Z</time></trkpt><trkpt lat="44.846944852666" lon="8.829308189406015"><ele>136.0</ele><time>2026-05-01T16:29:23Z</time></trkpt><trkpt lat="44.84719649989289" lon="8.829322900286506"><ele>136.0</ele><time>2026-05-01T16:29:24Z</time></trkpt><trkpt lat="44.847449309058774" lon="8.829332666806101"><ele>136.0</ele><time>2026-05-01T16:29:25Z</time></trkpt><trkpt lat="44.847704892400095" lon="8.829346158125434"><ele>136.0</ele><time>2026-05-01T16:29:26Z</time></trkpt><trkpt lat="44.847965730141695" lon="8.829357396302287"><ele>136.0</ele><time>2026-05-01T16:29:27Z</time></trkpt><trkpt lat="44.84822536695609" lon="8.829372350167654"><ele>136.0</ele><time>2026-05-01T16:29:28Z</time></trkpt><trkpt lat="44.84849329220237" lon="8.829387332707348"><ele>135.5</ele><time>2026-05-01T16:29:29Z</time></trkpt><trkpt lat="44.84876043449122" lon="8.829403052286963"><ele>135.0</ele><time>2026-05-01T16:29:30Z</time></trkpt><trkpt lat="44.8490269808346" lon="8.829417928398774"><ele>135.0</ele><time>2026-05-01T16:29:31Z</time></trkpt><trkpt lat="44.84929728329755" lon="8.829436641894196"><ele>135.0</ele><time>2026-05-01T16:29:32Z</time></trkpt><trkpt lat="44.84956345863001" lon="8.829454454240969"><ele>135.0</ele><time>2026-05-01T16:29:33Z</time></trkpt><trkpt lat="44.84983159923817" lon="8.829458938007612"><ele>135.0</ele><time>2026-05-01T16:29:34Z</time></trkpt><trkpt lat="44.85008979191642" lon="8.829488078269156"><ele>135.5</ele><time>2026-05-01T16:29:35Z</time></trkpt><trkpt lat="44.850356536043314" lon="8.829507288224022"><ele>136.0</ele><time>2026-05-01T16:29:36Z</time></trkpt><trkpt lat="44.8506228372316" lon="8.829521586044418"><ele>136.0</ele><time>2026-05-01T16:29:37Z</time></trkpt><trkpt lat="44.850888832485296" lon="8.829534749847017"><ele>136.0</ele><time>2026-05-01T16:29:38Z</time></trkpt><trkpt lat="44.85115446433346" lon="8.829549229373422"><ele>135.0</ele><time>2026-05-01T16:29:39Z</time></trkpt><trkpt lat="44.8514232976973" lon="8.829562797081106"><ele>134.0</ele><time>2026-05-01T16:29:40Z</time></trkpt><trkpt lat="44.85168747149298" lon="8.829575284647506"><ele>134.0</ele><time>2026-05-01T16:29:41Z</time></trkpt><trkpt lat="44.851949303647345" lon="8.82958502999712"><ele>134.0</ele><time>2026-05-01T16:29:42Z</time></trkpt><trkpt lat="44.85221938017614" lon="8.82959414917101"><ele>134.0</ele><time>2026-05-01T16:29:43Z</time></trkpt><trkpt lat="44.852485662555964" lon="8.829604544123741"><ele>134.0</ele><time>2026-05-01T16:29:44Z</time></trkpt><trkpt lat="44.85275120229566" lon="8.829618769020597"><ele>135.0</ele><time>2026-05-01T16:29:45Z</time></trkpt><trkpt lat="44.85302038578374" lon="8.829631994274472"><ele>136.0</ele><time>2026-05-01T16:29:46Z</time></trkpt><trkpt lat="44.85328486070499" lon="8.829644881265947"><ele>135.0</ele><time>2026-05-01T16:29:47Z</time></trkpt><trkpt lat="44.85355830270503" lon="8.829654918502078"><ele>134.0</ele><time>2026-05-01T16:29:48Z</time></trkpt><trkpt lat="44.85382101607159" lon="8.829671823249388"><ele>134.0</ele><time>2026-05-01T16:29:49Z</time></trkpt><trkpt lat="44.85408535460907" lon="8.829692328639041"><ele>134.0</ele><time>2026-05-01T16:29:50Z</time></trkpt><trkpt lat="44.85434658442265" lon="8.829708939195145"><ele>133.0</ele><time>2026-05-01T16:29:51Z</time></trkpt><trkpt lat="44.854610808216165" lon="8.829724469077455"><ele>132.0</ele><time>2026-05-01T16:29:52Z</time></trkpt><trkpt lat="44.854879791175804" lon="8.829742529461283"><ele>131.5</ele><time>2026-05-01T16:29:53Z</time></trkpt><trkpt lat="44.855141913030465" lon="8.829756856017484"><ele>131.0</ele><time>2026-05-01T16:29:54Z</time></trkpt><trkpt lat="44.8554065782535" lon="8.829770559669505"><ele>131.0</ele><time>2026-05-01T16:29:55Z</time></trkpt><trkpt lat="44.855671199079254" lon="8.8297855733951"><ele>131.0</ele><time>2026-05-01T16:29:56Z</time></trkpt><trkpt lat="44.85593609464644" lon="8.829802440991084"><ele>130.0</ele><time>2026-05-01T16:29:57Z</time></trkpt><trkpt lat="44.85620245074167" lon="8.829817074435233"><ele>129.0</ele><time>2026-05-01T16:29:58Z</time></trkpt><trkpt lat="44.856463462554515" lon="8.829833026400303"><ele>129.0</ele><time>2026-05-01T16:29:59Z</time></trkpt><trkpt lat="44.8567256965755" lon="8.829845783735543"><ele>129.0</ele><time>2026-05-01T16:30:00Z</time></trkpt><trkpt lat="44.85698852188155" lon="8.829861570632486"><ele>129.5</ele><time>2026-05-01T16:30:01Z</time></trkpt><trkpt lat="44.85725640680983" lon="8.829875638614618"><ele>130.0</ele><time>2026-05-01T16:30:02Z</time></trkpt><trkpt lat="44.85752417775438" lon="8.829890446264605"><ele>129.5</ele><time>2026-05-01T16:30:03Z</time></trkpt><trkpt lat="44.857790966816836" lon="8.82990305356731"><ele>129.0</ele><time>2026-05-01T16:30:04Z</time></trkpt><trkpt lat="44.85805736575047" lon="8.829918736003524"><ele>129.0</ele><time>2026-05-01T16:30:05Z</time></trkpt><trkpt lat="44.85832324049833" lon="8.829931171784429"><ele>129.0</ele><time>2026-05-01T16:30:06Z</time></trkpt><trkpt lat="44.85858177858952" lon="8.829945195288165"><ele>128.5</ele><time>2026-05-01T16:30:07Z</time></trkpt><trkpt lat="44.85884855648348" lon="8.829960368645262"><ele>128.0</ele><time>2026-05-01T16:30:08Z</time></trkpt><trkpt lat="44.85911138556897" lon="8.829976855469727"><ele>128.5</ele><time>2026-05-01T16:30:09Z</time></trkpt><trkpt lat="44.85937914123769" lon="8.829996290530204"><ele>129.0</ele><time>2026-05-01T16:30:10Z</time></trkpt><trkpt lat="44.85964348216178" lon="8.830010804671135"><ele>129.0</ele><time>2026-05-01T16:30:11Z</time></trkpt><trkpt lat="44.85991227128681" lon="8.830023402681825"><ele>129.0</ele><time>2026-05-01T16:30:12Z</time></trkpt><trkpt lat="44.86018090966488" lon="8.830034198636168"><ele>129.0</ele><time>2026-05-01T16:30:13Z</time></trkpt><trkpt lat="44.86044615836657" lon="8.830048084675017"><ele>129.0</ele><time>2026-05-01T16:30:14Z</time></trkpt><trkpt lat="44.86071484470444" lon="8.83006014156934"><ele>128.0</ele><time>2026-05-01T16:30:15Z</time></trkpt><trkpt lat="44.86097918585952" lon="8.830079231096526"><ele>127.0</ele><time>2026-05-01T16:30:16Z</time></trkpt><trkpt lat="44.861245594473395" lon="8.830093644491521"><ele>127.0</ele><time>2026-05-01T16:30:17Z</time></trkpt><trkpt lat="44.86150980670699" lon="8.830107116153293"><ele>127.0</ele><time>2026-05-01T16:30:18Z</time></trkpt><trkpt lat="44.86177454189052" lon="8.830125971757315"><ele>128.0</ele><time>2026-05-01T16:30:19Z</time></trkpt><trkpt lat="44.8620416932543" lon="8.830137882581704"><ele>129.0</ele><time>2026-05-01T16:30:20Z</time></trkpt><trkpt lat="44.86230774380883" lon="8.830155597599326"><ele>129.5</ele><time>2026-05-01T16:30:21Z</time></trkpt><trkpt lat="44.86257527131701" lon="8.830172996944636"><ele>130.0</ele><time>2026-05-01T16:30:22Z</time></trkpt><trkpt lat="44.862841251681225" lon="8.83018562636997"><ele>130.5</ele><time>2026-05-01T16:30:23Z</time></trkpt><trkpt lat="44.86311214577765" lon="8.830200523618167"><ele>131.0</ele><time>2026-05-01T16:30:24Z</time></trkpt><trkpt lat="44.8633715357319" lon="8.83022759339482"><ele>129.5</ele><time>2026-05-01T16:30:25Z</time></trkpt><trkpt lat="44.863639366292084" lon="8.830237224178608"><ele>128.0</ele><time>2026-05-01T16:30:26Z</time></trkpt><trkpt lat="44.86390708736047" lon="8.830248792190757"><ele>128.0</ele><time>2026-05-01T16:30:27Z</time></trkpt><trkpt lat="44.86417371307182" lon="8.8302683943366"><ele>128.0</ele><time>2026-05-01T16:30:28Z</time></trkpt><trkpt lat="44.86443783396607" lon="8.83028729538793"><ele>127.5</ele><time>2026-05-01T16:30:29Z</time></trkpt><trkpt lat="44.86470212918662" lon="8.830308301490001"><ele>127.0</ele><time>2026-05-01T16:30:30Z</time></trkpt><trkpt lat="44.86496854373603" lon="8.830342100674997"><ele>127.0</ele><time>2026-05-01T16:30:31Z</time></trkpt><trkpt lat="44.86523186423717" lon="8.830382761735526"><ele>127.0</ele><time>2026-05-01T16:30:32.001Z</time></trkpt><trkpt lat="44.865495768308996" lon="8.830431645041704"><ele>127.0</ele><time>2026-05-01T16:30:33Z</time></trkpt><trkpt lat="44.865756221532685" lon="8.830488966603752"><ele>127.0</ele><time>2026-05-01T16:30:34Z</time></trkpt><trkpt lat="44.86601563236852" lon="8.83054886646972"><ele>126.0</ele><time>2026-05-01T16:30:35Z</time></trkpt><trkpt lat="44.866280103283124" lon="8.83060713868592"><ele>125.0</ele><time>2026-05-01T16:30:36Z</time></trkpt><trkpt lat="44.866542450822315" lon="8.830670554847297"><ele>124.5</ele><time>2026-05-01T16:30:37Z</time></trkpt><trkpt lat="44.866806435731476" lon="8.830746683698"><ele>124.0</ele><time>2026-05-01T16:30:38Z</time></trkpt><trkpt lat="44.86707128625424" lon="8.830820336249909"><ele>124.0</ele><time>2026-05-01T16:30:39Z</time></trkpt><trkpt lat="44.86732975178917" lon="8.830899315074737"><ele>124.0</ele><time>2026-05-01T16:30:40Z</time></trkpt><trkpt lat="44.86758793292614" lon="8.830988365848903"><ele>125.0</ele><time>2026-05-01T16:30:41Z</time></trkpt><trkpt lat="44.86784758031367" lon="8.831085363185023"><ele>126.0</ele><time>2026-05-01T16:30:42Z</time></trkpt><trkpt lat="44.86810061602655" lon="8.831189245214114"><ele>126.0</ele><time>2026-05-01T16:30:43Z</time></trkpt><trkpt lat="44.86835347585966" lon="8.83130057533026"><ele>126.0</ele><time>2026-05-01T16:30:44Z</time></trkpt><trkpt lat="44.86860722607505" lon="8.831416216790656"><ele>126.0</ele><time>2026-05-01T16:30:45Z</time></trkpt><trkpt lat="44.86886502204862" lon="8.831522321577303"><ele>126.0</ele><time>2026-05-01T16:30:46Z</time></trkpt><trkpt lat="44.869114316525035" lon="8.831630108070309"><ele>125.0</ele><time>2026-05-01T16:30:47Z</time></trkpt><trkpt lat="44.86936950298592" lon="8.831742343489934"><ele>124.0</ele><time>2026-05-01T16:30:48Z</time></trkpt><trkpt lat="44.8696253792746" lon="8.831854501323896"><ele>124.0</ele><time>2026-05-01T16:30:49Z</time></trkpt><trkpt lat="44.86987701107543" lon="8.831959301152148"><ele>124.0</ele><time>2026-05-01T16:30:50Z</time></trkpt><trkpt lat="44.870128339195546" lon="8.832066324278273"><ele>123.5</ele><time>2026-05-01T16:30:51Z</time></trkpt><trkpt lat="44.87038272112774" lon="8.832180775041586"><ele>123.0</ele><time>2026-05-01T16:30:52Z</time></trkpt><trkpt lat="44.870635708077316" lon="8.832288696166792"><ele>123.0</ele><time>2026-05-01T16:30:53Z</time></trkpt><trkpt lat="44.870893871826404" lon="8.832395899093969"><ele>123.0</ele><time>2026-05-01T16:30:54Z</time></trkpt><trkpt lat="44.87114616635611" lon="8.832500910646562"><ele>123.0</ele><time>2026-05-01T16:30:55Z</time></trkpt><trkpt lat="44.871397922241556" lon="8.832615206213944"><ele>123.0</ele><time>2026-05-01T16:30:56Z</time></trkpt><trkpt lat="44.87165348487649" lon="8.832730104307151"><ele>123.5</ele><time>2026-05-01T16:30:57Z</time></trkpt><trkpt lat="44.87190606583403" lon="8.832843691183983"><ele>124.0</ele><time>2026-05-01T16:30:58Z</time></trkpt><trkpt lat="44.87215726509345" lon="8.83295161423328"><ele>124.0</ele><time>2026-05-01T16:30:59Z</time></trkpt><trkpt lat="44.87240966922693" lon="8.833060214741383"><ele>124.0</ele><time>2026-05-01T16:31:00Z</time></trkpt><trkpt lat="44.87266587454534" lon="8.83316737472889"><ele>124.0</ele><time>2026-05-01T16:31:01Z</time></trkpt><trkpt lat="44.87292030815501" lon="8.833273175080805"><ele>124.0</ele><time>2026-05-01T16:31:02Z</time></trkpt><trkpt lat="44.87317676581766" lon="8.83338631823038"><ele>124.5</ele><time>2026-05-01T16:31:03Z</time></trkpt><trkpt lat="44.87342604605284" lon="8.833495524130534"><ele>125.0</ele><time>2026-05-01T16:31:04Z</time></trkpt><trkpt lat="44.873683297233114" lon="8.833606749858507"><ele>125.0</ele><time>2026-05-01T16:31:05Z</time></trkpt><trkpt lat="44.87393605105107" lon="8.833715047422366"><ele>125.0</ele><time>2026-05-01T16:31:06Z</time></trkpt><trkpt lat="44.874188012465375" lon="8.833826204050546"><ele>124.5</ele><time>2026-05-01T16:31:07Z</time></trkpt><trkpt lat="44.87444217449784" lon="8.83393614042792"><ele>124.0</ele><time>2026-05-01T16:31:08Z</time></trkpt><trkpt lat="44.874698364343594" lon="8.834047643839238"><ele>124.0</ele><time>2026-05-01T16:31:09Z</time></trkpt><trkpt lat="44.874953262933786" lon="8.834155328762996"><ele>124.0</ele><time>2026-05-01T16:31:10Z</time></trkpt><trkpt lat="44.875208018755444" lon="8.834265165047782"><ele>124.5</ele><time>2026-05-01T16:31:11Z</time></trkpt><trkpt lat="44.87546106014673" lon="8.834374621246944"><ele>125.0</ele><time>2026-05-01T16:31:12Z</time></trkpt><trkpt lat="44.87571883820291" lon="8.834486694844298"><ele>123.5</ele><time>2026-05-01T16:31:13Z</time></trkpt><trkpt lat="44.87598274830543" lon="8.834593597394322"><ele>122.0</ele><time>2026-05-01T16:31:14Z</time></trkpt><trkpt lat="44.87622965470312" lon="8.834706428676347"><ele>122.0</ele><time>2026-05-01T16:31:15Z</time></trkpt><trkpt lat="44.87648164991554" lon="8.834818407889625"><ele>122.0</ele><time>2026-05-01T16:31:16Z</time></trkpt><trkpt lat="44.87673389133407" lon="8.834926525752113"><ele>122.5</ele><time>2026-05-01T16:31:17Z</time></trkpt><trkpt lat="44.87698839993747" lon="8.835034466328693"><ele>123.0</ele><time>2026-05-01T16:31:18Z</time></trkpt><trkpt lat="44.87724471378602" lon="8.835144147125243"><ele>123.0</ele><time>2026-05-01T16:31:19Z</time></trkpt><trkpt lat="44.877497239980265" lon="8.835256161330921"><ele>123.0</ele><time>2026-05-01T16:31:20Z</time></trkpt><trkpt lat="44.877749742858775" lon="8.83537255009808"><ele>123.0</ele><time>2026-05-01T16:31:21Z</time></trkpt><trkpt lat="44.87800553124806" lon="8.835496623443646"><ele>123.0</ele><time>2026-05-01T16:31:22Z</time></trkpt><trkpt lat="44.87825578744439" lon="8.835614278574429"><ele>123.5</ele><time>2026-05-01T16:31:23Z</time></trkpt><trkpt lat="44.87850812977002" lon="8.835735769896004"><ele>124.0</ele><time>2026-05-01T16:31:24Z</time></trkpt><trkpt lat="44.878756936169815" lon="8.835854349053859"><ele>123.5</ele><time>2026-05-01T16:31:25.001Z</time></trkpt><trkpt lat="44.879014898787524" lon="8.835976431895153"><ele>123.0</ele><time>2026-05-01T16:31:26.001Z</time></trkpt><trkpt lat="44.87926773570186" lon="8.836094302134276"><ele>123.0</ele><time>2026-05-01T16:31:27.001Z</time></trkpt><trkpt lat="44.87951895429726" lon="8.836211481960495"><ele>123.0</ele><time>2026-05-01T16:31:28.001Z</time></trkpt><trkpt lat="44.879771368338474" lon="8.836331659162756"><ele>123.0</ele><time>2026-05-01T16:31:29.001Z</time></trkpt><trkpt lat="44.88002537757327" lon="8.836449997491263"><ele>123.0</ele><time>2026-05-01T16:31:30.001Z</time></trkpt><trkpt lat="44.88027778860839" lon="8.836563747051848"><ele>122.0</ele><time>2026-05-01T16:31:31.001Z</time></trkpt><trkpt lat="44.88052582752861" lon="8.836684398036644"><ele>121.0</ele><time>2026-05-01T16:31:32.001Z</time></trkpt><trkpt lat="44.880774278250385" lon="8.836803074525823"><ele>119.5</ele><time>2026-05-01T16:31:33.001Z</time></trkpt><trkpt lat="44.88102761547425" lon="8.836928785140495"><ele>118.0</ele><time>2026-05-01T16:31:34.001Z</time></trkpt><trkpt lat="44.88127990703844" lon="8.837048208514261"><ele>118.0</ele><time>2026-05-01T16:31:35.001Z</time></trkpt><trkpt lat="44.88152953308659" lon="8.837168765177374"><ele>118.0</ele><time>2026-05-01T16:31:36.001Z</time></trkpt><trkpt lat="44.8817812554927" lon="8.837290462636147"><ele>119.0</ele><time>2026-05-01T16:31:37.001Z</time></trkpt><trkpt lat="44.88204871659904" lon="8.837414362740143"><ele>120.0</ele><time>2026-05-01T16:31:38.001Z</time></trkpt><trkpt lat="44.88229493740225" lon="8.837530455249166"><ele>120.0</ele><time>2026-05-01T16:31:39.001Z</time></trkpt><trkpt lat="44.88254538567904" lon="8.837646678828785"><ele>120.0</ele><time>2026-05-01T16:31:40.001Z</time></trkpt><trkpt lat="44.88279746620466" lon="8.837764718462934"><ele>120.0</ele><time>2026-05-01T16:31:41.001Z</time></trkpt><trkpt lat="44.88305109360632" lon="8.837878604398169"><ele>120.0</ele><time>2026-05-01T16:31:42.001Z</time></trkpt><trkpt lat="44.88330418968323" lon="8.837994858698513"><ele>118.5</ele><time>2026-05-01T16:31:43.001Z</time></trkpt><trkpt lat="44.88355551874685" lon="8.83811126249896"><ele>117.0</ele><time>2026-05-01T16:31:44.001Z</time></trkpt><trkpt lat="44.883808369173885" lon="8.838228491527211"><ele>117.0</ele><time>2026-05-01T16:31:45.001Z</time></trkpt><trkpt lat="44.88405660526418" lon="8.838348983248839"><ele>117.0</ele><time>2026-05-01T16:31:46.001Z</time></trkpt><trkpt lat="44.88431190384348" lon="8.838469136597473"><ele>118.5</ele><time>2026-05-01T16:31:47.001Z</time></trkpt><trkpt lat="44.88456380650096" lon="8.83858947617309"><ele>120.0</ele><time>2026-05-01T16:31:48.001Z</time></trkpt><trkpt lat="44.884814909981216" lon="8.838710912889663"><ele>120.0</ele><time>2026-05-01T16:31:49.001Z</time></trkpt><trkpt lat="44.88506719818472" lon="8.838828943013404"><ele>120.0</ele><time>2026-05-01T16:31:50.001Z</time></trkpt><trkpt lat="44.885320892454736" lon="8.838945071234027"><ele>119.5</ele><time>2026-05-01T16:31:51.001Z</time></trkpt><trkpt lat="44.885567457348166" lon="8.839062271653944"><ele>119.0</ele><time>2026-05-01T16:31:52.001Z</time></trkpt><trkpt lat="44.885820404286605" lon="8.83918930983212"><ele>118.0</ele><time>2026-05-01T16:31:53.001Z</time></trkpt><trkpt lat="44.88607070261847" lon="8.83930527024738"><ele>117.0</ele><time>2026-05-01T16:31:54.001Z</time></trkpt><trkpt lat="44.88633480870599" lon="8.839423392316705"><ele>117.0</ele><time>2026-05-01T16:31:55.001Z</time></trkpt><trkpt lat="44.88657820938988" lon="8.839536503878032"><ele>117.0</ele><time>2026-05-01T16:31:56.001Z</time></trkpt><trkpt lat="44.88683016834575" lon="8.839656978138434"><ele>117.0</ele><time>2026-05-01T16:31:57.001Z</time></trkpt><trkpt lat="44.88708218466035" lon="8.83977809124326"><ele>117.0</ele><time>2026-05-01T16:31:58.001Z</time></trkpt><trkpt lat="44.8873354205925" lon="8.839899539464346"><ele>117.0</ele><time>2026-05-01T16:31:59.001Z</time></trkpt><trkpt lat="44.88758488972021" lon="8.840019486410853"><ele>117.0</ele><time>2026-05-01T16:32:00.001Z</time></trkpt><trkpt lat="44.887838770732834" lon="8.840136982521766"><ele>117.0</ele><time>2026-05-01T16:32:01.001Z</time></trkpt><trkpt lat="44.88808904084379" lon="8.840255334128889"><ele>117.0</ele><time>2026-05-01T16:32:02.001Z</time></trkpt><trkpt lat="44.888340250767484" lon="8.840368675484868"><ele>117.0</ele><time>2026-05-01T16:32:03.001Z</time></trkpt><trkpt lat="44.88859636338692" lon="8.84047736091951"><ele>117.0</ele><time>2026-05-01T16:32:04.001Z</time></trkpt><trkpt lat="44.88884959450604" lon="8.840582424240587"><ele>117.0</ele><time>2026-05-01T16:32:05.001Z</time></trkpt><trkpt lat="44.8891059245848" lon="8.84068292404517"><ele>117.0</ele><time>2026-05-01T16:32:06.001Z</time></trkpt><trkpt lat="44.88936249471634" lon="8.8407757411611"><ele>117.5</ele><time>2026-05-01T16:32:07.001Z</time></trkpt><trkpt lat="44.88962184180117" lon="8.84086805904694"><ele>118.0</ele><time>2026-05-01T16:32:08.001Z</time></trkpt><trkpt lat="44.88988105394896" lon="8.840960662927259"><ele>117.5</ele><time>2026-05-01T16:32:09.001Z</time></trkpt><trkpt lat="44.89013730065479" lon="8.841048700874092"><ele>117.0</ele><time>2026-05-01T16:32:10.001Z</time></trkpt><trkpt lat="44.89039195268168" lon="8.841133547835067"><ele>117.0</ele><time>2026-05-01T16:32:11.001Z</time></trkpt><trkpt lat="44.890654319224964" lon="8.841215747772512"><ele>117.0</ele><time>2026-05-01T16:32:12.001Z</time></trkpt><trkpt lat="44.890915796372965" lon="8.841294201010395"><ele>116.0</ele><time>2026-05-01T16:32:13.001Z</time></trkpt><trkpt lat="44.891172725760356" lon="8.841365382012254"><ele>115.0</ele><time>2026-05-01T16:32:14.001Z</time></trkpt><trkpt lat="44.891430171335884" lon="8.841434866875414"><ele>115.0</ele><time>2026-05-01T16:32:15.001Z</time></trkpt><trkpt lat="44.89169176921903" lon="8.84149821000266"><ele>115.0</ele><time>2026-05-01T16:32:16.001Z</time></trkpt><trkpt lat="44.89194814040338" lon="8.841559825072562"><ele>115.5</ele><time>2026-05-01T16:32:17.001Z</time></trkpt><trkpt lat="44.892211520434266" lon="8.841623049753927"><ele>116.0</ele><time>2026-05-01T16:32:18.001Z</time></trkpt><trkpt lat="44.892477320801156" lon="8.841682560939274"><ele>116.5</ele><time>2026-05-01T16:32:19.001Z</time></trkpt><trkpt lat="44.89273972916606" lon="8.84173693914688"><ele>117.0</ele><time>2026-05-01T16:32:20.001Z</time></trkpt><trkpt lat="44.893002380729264" lon="8.841785317961772"><ele>117.5</ele><time>2026-05-01T16:32:21.001Z</time></trkpt><trkpt lat="44.8932641357491" lon="8.841831766064546"><ele>118.0</ele><time>2026-05-01T16:32:22.001Z</time></trkpt><trkpt lat="44.893531416310324" lon="8.841875949816869"><ele>118.0</ele><time>2026-05-01T16:32:23.001Z</time></trkpt><trkpt lat="44.893793927988895" lon="8.84191961620273"><ele>118.0</ele><time>2026-05-01T16:32:24.001Z</time></trkpt><trkpt lat="44.894060415619975" lon="8.841962843070997"><ele>117.0</ele><time>2026-05-01T16:32:25.001Z</time></trkpt><trkpt lat="44.89432550356019" lon="8.842002550529543"><ele>116.0</ele><time>2026-05-01T16:32:26.001Z</time></trkpt><trkpt lat="44.89459123667655" lon="8.842045583983396"><ele>116.0</ele><time>2026-05-01T16:32:27.001Z</time></trkpt><trkpt lat="44.89485369384407" lon="8.842092106524776"><ele>116.0</ele><time>2026-05-01T16:32:28.001Z</time></trkpt><trkpt lat="44.89511624055401" lon="8.842137069216271"><ele>116.5</ele><time>2026-05-01T16:32:29.001Z</time></trkpt><trkpt lat="44.89538467941348" lon="8.842184670584862"><ele>117.0</ele><time>2026-05-01T16:32:30.001Z</time></trkpt><trkpt lat="44.89564627269936" lon="8.842230399474373"><ele>117.0</ele><time>2026-05-01T16:32:31.001Z</time></trkpt><trkpt lat="44.895906377294295" lon="8.84227838156955"><ele>117.0</ele><time>2026-05-01T16:32:32.001Z</time></trkpt><trkpt lat="44.896169185512704" lon="8.84232287199125"><ele>115.5</ele><time>2026-05-01T16:32:33.001Z</time></trkpt><trkpt lat="44.89642878741886" lon="8.84237121284554"><ele>114.0</ele><time>2026-05-01T16:32:34.001Z</time></trkpt><trkpt lat="44.896693830176" lon="8.842412347576468"><ele>115.0</ele><time>2026-05-01T16:32:35.001Z</time></trkpt><trkpt lat="44.896959850384235" lon="8.842456403022222"><ele>116.0</ele><time>2026-05-01T16:32:36.001Z</time></trkpt><trkpt lat="44.89722590593386" lon="8.842504002654751"><ele>116.0</ele><time>2026-05-01T16:32:37.001Z</time></trkpt><trkpt lat="44.89749136073564" lon="8.84254551153817"><ele>116.0</ele><time>2026-05-01T16:32:38.001Z</time></trkpt><trkpt lat="44.897758327924294" lon="8.842584983727455"><ele>115.5</ele><time>2026-05-01T16:32:39.001Z</time></trkpt><trkpt lat="44.898024844433365" lon="8.842626378358299"><ele>115.0</ele><time>2026-05-01T16:32:40.001Z</time></trkpt><trkpt lat="44.89828945107289" lon="8.842671985396926"><ele>113.0</ele><time>2026-05-01T16:32:41.001Z</time></trkpt><trkpt lat="44.898551902949194" lon="8.84271583405945"><ele>111.0</ele><time>2026-05-01T16:32:42.001Z</time></trkpt><trkpt lat="44.89881210914775" lon="8.842757021039255"><ele>111.0</ele><time>2026-05-01T16:32:43.001Z</time></trkpt><trkpt lat="44.899077432258515" lon="8.84279944707881"><ele>111.0</ele><time>2026-05-01T16:32:44.001Z</time></trkpt><trkpt lat="44.89934790287018" lon="8.842837786260832"><ele>112.0</ele><time>2026-05-01T16:32:45.001Z</time></trkpt><trkpt lat="44.89961274871121" lon="8.842878120685672"><ele>113.0</ele><time>2026-05-01T16:32:46.001Z</time></trkpt><trkpt lat="44.899878308080815" lon="8.842922993186225"><ele>111.5</ele><time>2026-05-01T16:32:47.001Z</time></trkpt><trkpt lat="44.900144276323196" lon="8.842968526570692"><ele>110.0</ele><time>2026-05-01T16:32:48.001Z</time></trkpt><trkpt lat="44.9004045532421" lon="8.843009963480222"><ele>110.0</ele><time>2026-05-01T16:32:49.001Z</time></trkpt><trkpt lat="44.9006682654027" lon="8.843040522359077"><ele>110.0</ele><time>2026-05-01T16:32:50.001Z</time></trkpt><trkpt lat="44.900930541310345" lon="8.843078514374994"><ele>110.0</ele><time>2026-05-01T16:32:51.001Z</time></trkpt><trkpt lat="44.901198647123614" lon="8.843111368657876"><ele>110.0</ele><time>2026-05-01T16:32:52.001Z</time></trkpt><trkpt lat="44.901461924569034" lon="8.8431442164665"><ele>110.0</ele><time>2026-05-01T16:32:53.001Z</time></trkpt><trkpt lat="44.90172619287622" lon="8.8431754374853"><ele>110.0</ele><time>2026-05-01T16:32:54.001Z</time></trkpt><trkpt lat="44.901995243530855" lon="8.843206578572829"><ele>111.0</ele><time>2026-05-01T16:32:55.001Z</time></trkpt><trkpt lat="44.90225982841312" lon="8.84323523596725"><ele>112.0</ele><time>2026-05-01T16:32:56.001Z</time></trkpt><trkpt lat="44.90252460982377" lon="8.84325951218657"><ele>110.5</ele><time>2026-05-01T16:32:57.001Z</time></trkpt><trkpt lat="44.90278764252973" lon="8.843288632448363"><ele>109.0</ele><time>2026-05-01T16:32:58.001Z</time></trkpt><trkpt lat="44.90305278930527" lon="8.843314464391273"><ele>109.0</ele><time>2026-05-01T16:32:59.001Z</time></trkpt><trkpt lat="44.9033175722077" lon="8.843343139874701"><ele>109.0</ele><time>2026-05-01T16:33:00.001Z</time></trkpt><trkpt lat="44.90358313340268" lon="8.843370019357184"><ele>110.0</ele><time>2026-05-01T16:33:01.001Z</time></trkpt><trkpt lat="44.903846435051086" lon="8.843394778759853"><ele>111.0</ele><time>2026-05-01T16:33:02.001Z</time></trkpt><trkpt lat="44.90411350266937" lon="8.843418127454036"><ele>110.0</ele><time>2026-05-01T16:33:03.001Z</time></trkpt><trkpt lat="44.904385908651136" lon="8.843446063136781"><ele>109.0</ele><time>2026-05-01T16:33:04.001Z</time></trkpt><trkpt lat="44.90464195695741" lon="8.843475825276537"><ele>109.0</ele><time>2026-05-01T16:33:05.001Z</time></trkpt><trkpt lat="44.90490670404929" lon="8.843499626683833"><ele>109.0</ele><time>2026-05-01T16:33:06.001Z</time></trkpt><trkpt lat="44.90516996965233" lon="8.843521882884932"><ele>109.0</ele><time>2026-05-01T16:33:07.001Z</time></trkpt><trkpt lat="44.90543535216804" lon="8.843539280360016"><ele>109.0</ele><time>2026-05-01T16:33:08.001Z</time></trkpt><trkpt lat="44.90570282305805" lon="8.843561273793092"><ele>109.0</ele><time>2026-05-01T16:33:09.001Z</time></trkpt><trkpt lat="44.90596612200251" lon="8.843590411540347"><ele>109.0</ele><time>2026-05-01T16:33:10.001Z</time></trkpt><trkpt lat="44.906233048863164" lon="8.843620196717195"><ele>109.0</ele><time>2026-05-01T16:33:11.001Z</time></trkpt><trkpt lat="44.90649708577285" lon="8.8436433866328"><ele>109.0</ele><time>2026-05-01T16:33:12.001Z</time></trkpt><trkpt lat="44.90676189341432" lon="8.84366800319532"><ele>109.0</ele><time>2026-05-01T16:33:13.001Z</time></trkpt><trkpt lat="44.90702205310065" lon="8.843697627669801"><ele>109.0</ele><time>2026-05-01T16:33:14.001Z</time></trkpt><trkpt lat="44.90728937749499" lon="8.84371801923358"><ele>109.0</ele><time>2026-05-01T16:33:15.001Z</time></trkpt><trkpt lat="44.907553181188845" lon="8.843745301322029"><ele>109.0</ele><time>2026-05-01T16:33:16.001Z</time></trkpt><trkpt lat="44.90781740654117" lon="8.843765038431927"><ele>109.0</ele><time>2026-05-01T16:33:17.001Z</time></trkpt><trkpt lat="44.908084974973995" lon="8.843783176609533"><ele>109.0</ele><time>2026-05-01T16:33:18.001Z</time></trkpt><trkpt lat="44.90835137746219" lon="8.843794566685895"><ele>108.5</ele><time>2026-05-01T16:33:19.001Z</time></trkpt><trkpt lat="44.90861867014086" lon="8.843817957496748"><ele>108.0</ele><time>2026-05-01T16:33:20.001Z</time></trkpt><trkpt lat="44.908879503294116" lon="8.843847602570573"><ele>108.0</ele><time>2026-05-01T16:33:21.001Z</time></trkpt><trkpt lat="44.90914030998888" lon="8.843885247918958"><ele>108.0</ele><time>2026-05-01T16:33:22.001Z</time></trkpt><trkpt lat="44.90941300938201" lon="8.843912397793762"><ele>108.0</ele><time>2026-05-01T16:33:23.001Z</time></trkpt><trkpt lat="44.90967942361217" lon="8.843940717356164"><ele>108.0</ele><time>2026-05-01T16:33:24.001Z</time></trkpt><trkpt lat="44.90994449862211" lon="8.843963292909622"><ele>107.5</ele><time>2026-05-01T16:33:25.001Z</time></trkpt><trkpt lat="44.91021109703372" lon="8.843991593911571"><ele>107.0</ele><time>2026-05-01T16:33:26.001Z</time></trkpt><trkpt lat="44.910474931700676" lon="8.844017835978423"><ele>107.0</ele><time>2026-05-01T16:33:27.001Z</time></trkpt><trkpt lat="44.91073925179324" lon="8.844039382406619"><ele>107.0</ele><time>2026-05-01T16:33:28.001Z</time></trkpt><trkpt lat="44.911007414980304" lon="8.84406035126525"><ele>106.0</ele><time>2026-05-01T16:33:29.001Z</time></trkpt><trkpt lat="44.91127411477345" lon="8.844083561047274"><ele>105.0</ele><time>2026-05-01T16:33:30.001Z</time></trkpt><trkpt lat="44.91153769161338" lon="8.844112892907889"><ele>105.0</ele><time>2026-05-01T16:33:31.001Z</time></trkpt><trkpt lat="44.91180492658684" lon="8.844129181856172"><ele>105.0</ele><time>2026-05-01T16:33:32.001Z</time></trkpt><trkpt lat="44.91207222192203" lon="8.844154828496885"><ele>105.0</ele><time>2026-05-01T16:33:33.001Z</time></trkpt><trkpt lat="44.9123361972539" lon="8.844175382386581"><ele>105.0</ele><time>2026-05-01T16:33:34.001Z</time></trkpt><trkpt lat="44.912604232563666" lon="8.84420354297959"><ele>105.5</ele><time>2026-05-01T16:33:35.001Z</time></trkpt><trkpt lat="44.91286810067303" lon="8.844233498974189"><ele>106.0</ele><time>2026-05-01T16:33:36.001Z</time></trkpt><trkpt lat="44.913133583369536" lon="8.844257204240602"><ele>106.0</ele><time>2026-05-01T16:33:37.001Z</time></trkpt><trkpt lat="44.91339396114885" lon="8.844288180875532"><ele>106.0</ele><time>2026-05-01T16:33:38.001Z</time></trkpt><trkpt lat="44.913662442006185" lon="8.844310166558978"><ele>104.0</ele><time>2026-05-01T16:33:39.001Z</time></trkpt><trkpt lat="44.91392862122347" lon="8.84433228272251"><ele>102.0</ele><time>2026-05-01T16:33:40.001Z</time></trkpt><trkpt lat="44.914194467854884" lon="8.844358935601491"><ele>102.5</ele><time>2026-05-01T16:33:41.001Z</time></trkpt><trkpt lat="44.91446004238054" lon="8.844380660704497"><ele>103.0</ele><time>2026-05-01T16:33:42.001Z</time></trkpt><trkpt lat="44.914725846142595" lon="8.844399078562914"><ele>103.0</ele><time>2026-05-01T16:33:43.001Z</time></trkpt><trkpt lat="44.9149891654005" lon="8.844427479604601"><ele>103.0</ele><time>2026-05-01T16:33:44.001Z</time></trkpt><trkpt lat="44.91525168858699" lon="8.844456402512412"><ele>104.5</ele><time>2026-05-01T16:33:45.001Z</time></trkpt><trkpt lat="44.915519749046666" lon="8.844481563099407"><ele>106.0</ele><time>2026-05-01T16:33:46.001Z</time></trkpt><trkpt lat="44.91579014306068" lon="8.84450670616629"><ele>108.0</ele><time>2026-05-01T16:33:47.001Z</time></trkpt><trkpt lat="44.91605355470415" lon="8.844533162140241"><ele>110.0</ele><time>2026-05-01T16:33:48.001Z</time></trkpt><trkpt lat="44.91631048773683" lon="8.844562733061531"><ele>110.0</ele><time>2026-05-01T16:33:49.001Z</time></trkpt><trkpt lat="44.916574079755854" lon="8.844591570954682"><ele>110.0</ele><time>2026-05-01T16:33:50.001Z</time></trkpt><trkpt lat="44.916832206975094" lon="8.844624024055033"><ele>108.0</ele><time>2026-05-01T16:33:51.001Z</time></trkpt><trkpt lat="44.91710770495709" lon="8.844619601728187"><ele>106.0</ele><time>2026-05-01T16:33:52.001Z</time></trkpt><trkpt lat="44.917374241023644" lon="8.844662483893721"><ele>105.5</ele><time>2026-05-01T16:33:53.001Z</time></trkpt><trkpt lat="44.91764367822703" lon="8.844685104439606"><ele>105.0</ele><time>2026-05-01T16:33:54.001Z</time></trkpt><trkpt lat="44.91791047728729" lon="8.844704941755682"><ele>105.0</ele><time>2026-05-01T16:33:55.001Z</time></trkpt><trkpt lat="44.91817586759766" lon="8.844730695961228"><ele>105.0</ele><time>2026-05-01T16:33:56.001Z</time></trkpt><trkpt lat="44.918438829026854" lon="8.844761188569443"><ele>105.5</ele><time>2026-05-01T16:33:57.001Z</time></trkpt><trkpt lat="44.91870659201354" lon="8.844790660744511"><ele>106.0</ele><time>2026-05-01T16:33:58.001Z</time></trkpt><trkpt lat="44.918974754396714" lon="8.8448204535891"><ele>105.5</ele><time>2026-05-01T16:33:59.001Z</time></trkpt><trkpt lat="44.91923733926443" lon="8.844870645415929"><ele>105.0</ele><time>2026-05-01T16:34:00.001Z</time></trkpt><trkpt lat="44.91949985893907" lon="8.844919155864032"><ele>105.0</ele><time>2026-05-01T16:34:01.001Z</time></trkpt><trkpt lat="44.919768906014056" lon="8.844970872595336"><ele>105.0</ele><time>2026-05-01T16:34:02.001Z</time></trkpt><trkpt lat="44.92002974171597" lon="8.84503511512413"><ele>106.0</ele><time>2026-05-01T16:34:03.001Z</time></trkpt><trkpt lat="44.9202980872988" lon="8.845096140034643"><ele>107.0</ele><time>2026-05-01T16:34:04.001Z</time></trkpt><trkpt lat="44.92055841164802" lon="8.845174689582201"><ele>107.0</ele><time>2026-05-01T16:34:05.001Z</time></trkpt><trkpt lat="44.920815852406285" lon="8.845237043407483"><ele>107.0</ele><time>2026-05-01T16:34:06.001Z</time></trkpt><trkpt lat="44.92107409090764" lon="8.84530983051179"><ele>107.5</ele><time>2026-05-01T16:34:07.001Z</time></trkpt><trkpt lat="44.92133258942857" lon="8.84540152198461"><ele>108.0</ele><time>2026-05-01T16:34:08.001Z</time></trkpt><trkpt lat="44.9215916481319" lon="8.84549029078795"><ele>106.5</ele><time>2026-05-01T16:34:09.001Z</time></trkpt><trkpt lat="44.921849290188206" lon="8.845590265436305"><ele>105.0</ele><time>2026-05-01T16:34:10.001Z</time></trkpt><trkpt lat="44.92210406208735" lon="8.845693232638542"><ele>105.0</ele><time>2026-05-01T16:34:11.001Z</time></trkpt><trkpt lat="44.922355961108394" lon="8.845801086741623"><ele>105.0</ele><time>2026-05-01T16:34:12.001Z</time></trkpt><trkpt lat="44.92260587049919" lon="8.84591018020775"><ele>104.0</ele><time>2026-05-01T16:34:13.001Z</time></trkpt><trkpt lat="44.92285970962603" lon="8.846026504447892"><ele>103.0</ele><time>2026-05-01T16:34:14.001Z</time></trkpt><trkpt lat="44.92311447148207" lon="8.846143119955201"><ele>103.0</ele><time>2026-05-01T16:34:15.001Z</time></trkpt><trkpt lat="44.923362271824054" lon="8.84627424475178"><ele>103.0</ele><time>2026-05-01T16:34:16.001Z</time></trkpt><trkpt lat="44.92360535120506" lon="8.846409197959943"><ele>103.0</ele><time>2026-05-01T16:34:17.001Z</time></trkpt><trkpt lat="44.92385461633244" lon="8.846545752228952"><ele>103.0</ele><time>2026-05-01T16:34:18.001Z</time></trkpt><trkpt lat="44.92410312248088" lon="8.846685509453682"><ele>102.5</ele><time>2026-05-01T16:34:19.001Z</time></trkpt><trkpt lat="44.92434852088995" lon="8.84683215978592"><ele>102.0</ele><time>2026-05-01T16:34:20.001Z</time></trkpt><trkpt lat="44.92459084531657" lon="8.846981171753518"><ele>102.0</ele><time>2026-05-01T16:34:21.001Z</time></trkpt><trkpt lat="44.924829774485204" lon="8.847134276054065"><ele>102.0</ele><time>2026-05-01T16:34:22.001Z</time></trkpt><trkpt lat="44.925072011078555" lon="8.847289736385793"><ele>101.0</ele><time>2026-05-01T16:34:23.001Z</time></trkpt><trkpt lat="44.925319288405284" lon="8.847442072162014"><ele>100.0</ele><time>2026-05-01T16:34:24.001Z</time></trkpt><trkpt lat="44.92555871376749" lon="8.847595126247196"><ele>100.0</ele><time>2026-05-01T16:34:25.001Z</time></trkpt><trkpt lat="44.925798390759255" lon="8.847748494966728"><ele>100.0</ele><time>2026-05-01T16:34:26.001Z</time></trkpt><trkpt lat="44.92604690503165" lon="8.847897931574916"><ele>100.0</ele><time>2026-05-01T16:34:27.001Z</time></trkpt><trkpt lat="44.926287542280974" lon="8.848051569784252"><ele>100.0</ele><time>2026-05-01T16:34:28.001Z</time></trkpt><trkpt lat="44.92653213656636" lon="8.848204550203727"><ele>100.0</ele><time>2026-05-01T16:34:29.001Z</time></trkpt><trkpt lat="44.92677620101226" lon="8.848357725659904"><ele>100.0</ele><time>2026-05-01T16:34:30.001Z</time></trkpt><trkpt lat="44.92702238778309" lon="8.848515114562202"><ele>100.5</ele><time>2026-05-01T16:34:31.001Z</time></trkpt><trkpt lat="44.92728071796149" lon="8.848676936677155"><ele>101.0</ele><time>2026-05-01T16:34:32.001Z</time></trkpt><trkpt lat="44.92755081380077" lon="8.848850959442894"><ele>100.0</ele><time>2026-05-01T16:34:33.001Z</time></trkpt><trkpt lat="44.9278321440673" lon="8.849031009749972"><ele>99.0</ele><time>2026-05-01T16:34:34.001Z</time></trkpt><trkpt lat="44.9281106276032" lon="8.849212870782623"><ele>100.0</ele><time>2026-05-01T16:34:35.001Z</time></trkpt><trkpt lat="44.92839734365996" lon="8.84938646914518"><ele>101.0</ele><time>2026-05-01T16:34:36.001Z</time></trkpt><trkpt lat="44.92867988263472" lon="8.849563908619592"><ele>101.0</ele><time>2026-05-01T16:34:37.001Z</time></trkpt><trkpt lat="44.92895675680623" lon="8.849736316423318"><ele>101.0</ele><time>2026-05-01T16:34:38.001Z</time></trkpt><trkpt lat="44.929236274254315" lon="8.849912608120142"><ele>101.0</ele><time>2026-05-01T16:34:39.001Z</time></trkpt><trkpt lat="44.929514086599745" lon="8.850084707706811"><ele>101.0</ele><time>2026-05-01T16:34:40.001Z</time></trkpt><trkpt lat="44.929791024894314" lon="8.850256225534084"><ele>100.0</ele><time>2026-05-01T16:34:41.001Z</time></trkpt><trkpt lat="44.9300715032369" lon="8.850434979291876"><ele>99.0</ele><time>2026-05-01T16:34:42.001Z</time></trkpt><trkpt lat="44.930351673804516" lon="8.850613326858985"><ele>99.0</ele><time>2026-05-01T16:34:43.001Z</time></trkpt><trkpt lat="44.93062836076331" lon="8.850773705255197"><ele>99.0</ele><time>2026-05-01T16:34:44.001Z</time></trkpt><trkpt lat="44.930902566470536" lon="8.850953631111398"><ele>100.0</ele><time>2026-05-01T16:34:45.001Z</time></trkpt><trkpt lat="44.93118308661322" lon="8.85112650427419"><ele>101.0</ele><time>2026-05-01T16:34:46.001Z</time></trkpt><trkpt lat="44.931463991001216" lon="8.851304775222445"><ele>101.0</ele><time>2026-05-01T16:34:47.001Z</time></trkpt><trkpt lat="44.931747997547106" lon="8.851483226897948"><ele>101.0</ele><time>2026-05-01T16:34:48.001Z</time></trkpt><trkpt lat="44.9320241110337" lon="8.851655498528874"><ele>101.5</ele><time>2026-05-01T16:34:49.001Z</time></trkpt><trkpt lat="44.93230159748142" lon="8.851828162831943"><ele>102.0</ele><time>2026-05-01T16:34:50.001Z</time></trkpt><trkpt lat="44.93257955186874" lon="8.852000033832185"><ele>102.0</ele><time>2026-05-01T16:34:51.001Z</time></trkpt><trkpt lat="44.93286008869337" lon="8.852173464476481"><ele>102.0</ele><time>2026-05-01T16:34:52.001Z</time></trkpt><trkpt lat="44.93313758109446" lon="8.85234653646566"><ele>101.5</ele><time>2026-05-01T16:34:53.001Z</time></trkpt><trkpt lat="44.93341653893284" lon="8.852521388977992"><ele>101.0</ele><time>2026-05-01T16:34:54.001Z</time></trkpt><trkpt lat="44.93369428612157" lon="8.852694926910592"><ele>100.5</ele><time>2026-05-01T16:34:55.001Z</time></trkpt><trkpt lat="44.93397394805155" lon="8.852867712441157"><ele>100.0</ele><time>2026-05-01T16:34:56.001Z</time></trkpt><trkpt lat="44.93425194203733" lon="8.853042443233381"><ele>100.0</ele><time>2026-05-01T16:34:57.001Z</time></trkpt><trkpt lat="44.93453093171357" lon="8.853217203153884"><ele>100.0</ele><time>2026-05-01T16:34:58.001Z</time></trkpt><trkpt lat="44.934813386818824" lon="8.853392632425598"><ele>98.0</ele><time>2026-05-01T16:34:59.001Z</time></trkpt><trkpt lat="44.93509125314911" lon="8.853560649785013"><ele>96.0</ele><time>2026-05-01T16:35:00.001Z</time></trkpt><trkpt lat="44.93537416627235" lon="8.85372635839205"><ele>96.0</ele><time>2026-05-01T16:35:01.001Z</time></trkpt><trkpt lat="44.93565192529954" lon="8.853896998230589"><ele>96.0</ele><time>2026-05-01T16:35:02.001Z</time></trkpt><trkpt lat="44.93593345896084" lon="8.854066619320813"><ele>96.5</ele><time>2026-05-01T16:35:03Z</time></trkpt><trkpt lat="44.93621185895319" lon="8.854241296976856"><ele>97.0</ele><time>2026-05-01T16:35:04Z</time></trkpt><trkpt lat="44.93649236553229" lon="8.854421187778415"><ele>97.0</ele><time>2026-05-01T16:35:05Z</time></trkpt><trkpt lat="44.93677273656581" lon="8.854596918682407"><ele>97.0</ele><time>2026-05-01T16:35:06Z</time></trkpt><trkpt lat="44.93705305897772" lon="8.854771377803521"><ele>97.0</ele><time>2026-05-01T16:35:07Z</time></trkpt><trkpt lat="44.937330311358636" lon="8.85494887125537"><ele>97.0</ele><time>2026-05-01T16:35:08Z</time></trkpt><trkpt lat="44.93760188027427" lon="8.855129160428913"><ele>95.5</ele><time>2026-05-01T16:35:09Z</time></trkpt><trkpt lat="44.937875745059465" lon="8.855316758374117"><ele>94.0</ele><time>2026-05-01T16:35:10Z</time></trkpt><trkpt lat="44.93815112786034" lon="8.855504928715993"><ele>95.0</ele><time>2026-05-01T16:35:11Z</time></trkpt><trkpt lat="44.93842748895396" lon="8.855684843015267"><ele>96.0</ele><time>2026-05-01T16:35:12Z</time></trkpt><trkpt lat="44.938701534517556" lon="8.855864697981268"><ele>95.5</ele><time>2026-05-01T16:35:13Z</time></trkpt><trkpt lat="44.93897947761894" lon="8.8560405865974"><ele>95.0</ele><time>2026-05-01T16:35:14Z</time></trkpt><trkpt lat="44.939259229037035" lon="8.856213004613851"><ele>95.0</ele><time>2026-05-01T16:35:15Z</time></trkpt><trkpt lat="44.939540125463026" lon="8.856384255176964"><ele>95.0</ele><time>2026-05-01T16:35:16Z</time></trkpt><trkpt lat="44.93981704205849" lon="8.856555850790079"><ele>95.0</ele><time>2026-05-01T16:35:17Z</time></trkpt><trkpt lat="44.94009653772582" lon="8.856728050645776"><ele>95.0</ele><time>2026-05-01T16:35:18Z</time></trkpt><trkpt lat="44.94037610355473" lon="8.856902613177684"><ele>94.5</ele><time>2026-05-01T16:35:19Z</time></trkpt><trkpt lat="44.94065919723183" lon="8.857083140878991"><ele>94.0</ele><time>2026-05-01T16:35:20Z</time></trkpt><trkpt lat="44.940936468926076" lon="8.857260061917446"><ele>94.0</ele><time>2026-05-01T16:35:21Z</time></trkpt><trkpt lat="44.94121153454112" lon="8.857433775052714"><ele>94.0</ele><time>2026-05-01T16:35:22Z</time></trkpt><trkpt lat="44.94149184009198" lon="8.857608996278504"><ele>94.5</ele><time>2026-05-01T16:35:23Z</time></trkpt><trkpt lat="44.94177338671173" lon="8.85778392947039"><ele>95.0</ele><time>2026-05-01T16:35:24Z</time></trkpt><trkpt lat="44.94205282302795" lon="8.85795774612826"><ele>95.0</ele><time>2026-05-01T16:35:25Z</time></trkpt><trkpt lat="44.942330905846696" lon="8.858130128957367"><ele>95.0</ele><time>2026-05-01T16:35:26Z</time></trkpt><trkpt lat="44.942610597820845" lon="8.858306757172825"><ele>95.5</ele><time>2026-05-01T16:35:27Z</time></trkpt><trkpt lat="44.94289084067661" lon="8.858479819168984"><ele>96.0</ele><time>2026-05-01T16:35:28Z</time></trkpt><trkpt lat="44.94316975945638" lon="8.85865559291618"><ele>96.0</ele><time>2026-05-01T16:35:29Z</time></trkpt><trkpt lat="44.943448002350046" lon="8.8588297864299"><ele>96.0</ele><time>2026-05-01T16:35:30Z</time></trkpt><trkpt lat="44.94372606116816" lon="8.859005840663873"><ele>96.0</ele><time>2026-05-01T16:35:31Z</time></trkpt><trkpt lat="44.94400362167335" lon="8.859182239282795"><ele>96.0</ele><time>2026-05-01T16:35:32Z</time></trkpt><trkpt lat="44.94428746159467" lon="8.85935593738867"><ele>94.5</ele><time>2026-05-01T16:35:33Z</time></trkpt><trkpt lat="44.9445635553766" lon="8.859526278939295"><ele>93.0</ele><time>2026-05-01T16:35:34Z</time></trkpt><trkpt lat="44.944842518731534" lon="8.859702850103456"><ele>93.0</ele><time>2026-05-01T16:35:35Z</time></trkpt><trkpt lat="44.94511863643485" lon="8.859880821267666"><ele>93.0</ele><time>2026-05-01T16:35:36Z</time></trkpt><trkpt lat="44.94539257466524" lon="8.860057261218968"><ele>93.0</ele><time>2026-05-01T16:35:37Z</time></trkpt><trkpt lat="44.945670875033514" lon="8.860232236676257"><ele>93.0</ele><time>2026-05-01T16:35:38Z</time></trkpt><trkpt lat="44.9459484112211" lon="8.86040547167272"><ele>93.0</ele><time>2026-05-01T16:35:39Z</time></trkpt><trkpt lat="44.94622758096815" lon="8.860579682101733"><ele>93.0</ele><time>2026-05-01T16:35:40Z</time></trkpt><trkpt lat="44.946506082383145" lon="8.860754535399385"><ele>93.0</ele><time>2026-05-01T16:35:41.001Z</time></trkpt><trkpt lat="44.94678222160661" lon="8.860928998575293"><ele>93.0</ele><time>2026-05-01T16:35:42.001Z</time></trkpt><trkpt lat="44.947060613225766" lon="8.86110430778013"><ele>92.5</ele><time>2026-05-01T16:35:43.001Z</time></trkpt><trkpt lat="44.947342320532826" lon="8.861279841369383"><ele>92.0</ele><time>2026-05-01T16:35:44.001Z</time></trkpt><trkpt lat="44.94761815178061" lon="8.86145664626206"><ele>92.0</ele><time>2026-05-01T16:35:45.001Z</time></trkpt><trkpt lat="44.94789374870318" lon="8.861639491807535"><ele>92.0</ele><time>2026-05-01T16:35:46.001Z</time></trkpt><trkpt lat="44.9481638522681" lon="8.861830600029442"><ele>91.5</ele><time>2026-05-01T16:35:47.001Z</time></trkpt><trkpt lat="44.94843020536371" lon="8.862043627810356"><ele>91.0</ele><time>2026-05-01T16:35:48.001Z</time></trkpt><trkpt lat="44.94869958692416" lon="8.86225509383764"><ele>91.0</ele><time>2026-05-01T16:35:49.001Z</time></trkpt><trkpt lat="44.948957054134226" lon="8.862486755276567"><ele>91.0</ele><time>2026-05-01T16:35:50.001Z</time></trkpt><trkpt lat="44.94920823162659" lon="8.862728156836516"><ele>90.5</ele><time>2026-05-01T16:35:51.001Z</time></trkpt><trkpt lat="44.94945214873313" lon="8.862980268364707"><ele>90.0</ele><time>2026-05-01T16:35:52.001Z</time></trkpt><trkpt lat="44.949692801835475" lon="8.863243682243771"><ele>90.0</ele><time>2026-05-01T16:35:53.001Z</time></trkpt><trkpt lat="44.9499263685115" lon="8.863526603186303"><ele>90.0</ele><time>2026-05-01T16:35:54.001Z</time></trkpt><trkpt lat="44.95015092310002" lon="8.86381483464395"><ele>90.5</ele><time>2026-05-01T16:35:55.001Z</time></trkpt><trkpt lat="44.95036948402144" lon="8.86411584391597"><ele>91.0</ele><time>2026-05-01T16:35:56.001Z</time></trkpt><trkpt lat="44.95057964088444" lon="8.86443038393989"><ele>91.5</ele><time>2026-05-01T16:35:57.001Z</time></trkpt><trkpt lat="44.95078437521493" lon="8.864751924341153"><ele>92.0</ele><time>2026-05-01T16:35:58.001Z</time></trkpt><trkpt lat="44.9509791009783" lon="8.86508548532723"><ele>93.5</ele><time>2026-05-01T16:35:59.001Z</time></trkpt><trkpt lat="44.95116923871907" lon="8.865426806280992"><ele>95.0</ele><time>2026-05-01T16:36:00.001Z</time></trkpt><trkpt lat="44.951344020065356" lon="8.865771466105608"><ele>95.0</ele><time>2026-05-01T16:36:01.001Z</time></trkpt><trkpt lat="44.951511291640784" lon="8.86612262884391"><ele>95.0</ele><time>2026-05-01T16:36:02.001Z</time></trkpt><trkpt lat="44.951668026206704" lon="8.866489054398324"><ele>94.0</ele><time>2026-05-01T16:36:03.001Z</time></trkpt><trkpt lat="44.9518165295955" lon="8.866862844127786"><ele>93.0</ele><time>2026-05-01T16:36:04.001Z</time></trkpt><trkpt lat="44.95196477552025" lon="8.867238927006186"><ele>92.0</ele><time>2026-05-01T16:36:05.001Z</time></trkpt><trkpt lat="44.95210693651459" lon="8.867620615663549"><ele>91.0</ele><time>2026-05-01T16:36:06.001Z</time></trkpt><trkpt lat="44.95225271864964" lon="8.8679956677495"><ele>91.0</ele><time>2026-05-01T16:36:07.001Z</time></trkpt><trkpt lat="44.952395918270135" lon="8.868373607092881"><ele>91.0</ele><time>2026-05-01T16:36:08.001Z</time></trkpt><trkpt lat="44.95254520128061" lon="8.868746776849644"><ele>90.5</ele><time>2026-05-01T16:36:09.001Z</time></trkpt><trkpt lat="44.9526906966825" lon="8.869119916455075"><ele>90.0</ele><time>2026-05-01T16:36:10.001Z</time></trkpt><trkpt lat="44.95283664763799" lon="8.869496984781682"><ele>90.0</ele><time>2026-05-01T16:36:11.001Z</time></trkpt><trkpt lat="44.95298361682788" lon="8.869875890493084"><ele>90.0</ele><time>2026-05-01T16:36:12.001Z</time></trkpt><trkpt lat="44.95312746433298" lon="8.87025327924793"><ele>90.0</ele><time>2026-05-01T16:36:13.001Z</time></trkpt><trkpt lat="44.95327697966227" lon="8.870635320172195"><ele>90.0</ele><time>2026-05-01T16:36:14.001Z</time></trkpt><trkpt lat="44.95342216731479" lon="8.871010458862973"><ele>90.5</ele><time>2026-05-01T16:36:15.001Z</time></trkpt><trkpt lat="44.95357044361026" lon="8.871382494321784"><ele>91.0</ele><time>2026-05-01T16:36:16.001Z</time></trkpt><trkpt lat="44.95372476049091" lon="8.871752647514223"><ele>90.5</ele><time>2026-05-01T16:36:17.001Z</time></trkpt><trkpt lat="44.953884732137084" lon="8.872120399622519"><ele>90.0</ele><time>2026-05-01T16:36:18.001Z</time></trkpt><trkpt lat="44.95405232651961" lon="8.872481878397762"><ele>89.5</ele><time>2026-05-01T16:36:19.001Z</time></trkpt><trkpt lat="44.95423139810315" lon="8.872825434000399"><ele>89.0</ele><time>2026-05-01T16:36:20.001Z</time></trkpt><trkpt lat="44.95442181868239" lon="8.873156540357432"><ele>89.5</ele><time>2026-05-01T16:36:21.001Z</time></trkpt><trkpt lat="44.9546220799928" lon="8.873482935429545"><ele>90.0</ele><time>2026-05-01T16:36:22.001Z</time></trkpt><trkpt lat="44.95482864032684" lon="8.873803919567228"><ele>90.0</ele><time>2026-05-01T16:36:23.001Z</time></trkpt><trkpt lat="44.955043461626865" lon="8.874114150812781"><ele>90.0</ele><time>2026-05-01T16:36:24.001Z</time></trkpt><trkpt lat="44.955263332564805" lon="8.874415182015175"><ele>90.0</ele><time>2026-05-01T16:36:25.001Z</time></trkpt><trkpt lat="44.955489129827455" lon="8.874709793686723"><ele>90.0</ele><time>2026-05-01T16:36:26.001Z</time></trkpt><trkpt lat="44.955720743496414" lon="8.874994100191113"><ele>90.0</ele><time>2026-05-01T16:36:27.001Z</time></trkpt><trkpt lat="44.95595668171648" lon="8.8752660837825"><ele>90.0</ele><time>2026-05-01T16:36:28.001Z</time></trkpt><trkpt lat="44.95619758561953" lon="8.875530203846477"><ele>90.0</ele><time>2026-05-01T16:36:29.001Z</time></trkpt><trkpt lat="44.956441704167425" lon="8.875786304688011"><ele>90.0</ele><time>2026-05-01T16:36:30.001Z</time></trkpt><trkpt lat="44.95668711220631" lon="8.876041078381936"><ele>89.5</ele><time>2026-05-01T16:36:31.001Z</time></trkpt><trkpt lat="44.9569345077869" lon="8.876293979931706"><ele>89.0</ele><time>2026-05-01T16:36:32.001Z</time></trkpt><trkpt lat="44.95717912224438" lon="8.876549640309848"><ele>89.5</ele><time>2026-05-01T16:36:33.001Z</time></trkpt><trkpt lat="44.9574236262994" lon="8.876806695342186"><ele>90.0</ele><time>2026-05-01T16:36:34.001Z</time></trkpt><trkpt lat="44.95766773521754" lon="8.877064971482863"><ele>90.0</ele><time>2026-05-01T16:36:35.001Z</time></trkpt><trkpt lat="44.957910113802726" lon="8.877321248105948"><ele>90.0</ele><time>2026-05-01T16:36:36.001Z</time></trkpt><trkpt lat="44.95815482121984" lon="8.877581981872929"><ele>90.0</ele><time>2026-05-01T16:36:37.001Z</time></trkpt><trkpt lat="44.9584002717089" lon="8.877841681385924"><ele>90.0</ele><time>2026-05-01T16:36:38.001Z</time></trkpt><trkpt lat="44.958642518985364" lon="8.878103247766838"><ele>90.0</ele><time>2026-05-01T16:36:39.001Z</time></trkpt><trkpt lat="44.95888530839116" lon="8.878362856987422"><ele>90.0</ele><time>2026-05-01T16:36:40.001Z</time></trkpt><trkpt lat="44.959129856679596" lon="8.878619618053907"><ele>88.5</ele><time>2026-05-01T16:36:41.001Z</time></trkpt><trkpt lat="44.959371994173516" lon="8.878877957051746"><ele>87.0</ele><time>2026-05-01T16:36:42.001Z</time></trkpt><trkpt lat="44.959615904167855" lon="8.879135950858053"><ele>88.0</ele><time>2026-05-01T16:36:43.001Z</time></trkpt><trkpt lat="44.9598643729976" lon="8.87939454293678"><ele>89.0</ele><time>2026-05-01T16:36:44.001Z</time></trkpt><trkpt lat="44.960107804748944" lon="8.87965081891953"><ele>89.0</ele><time>2026-05-01T16:36:45.001Z</time></trkpt><trkpt lat="44.96034974460085" lon="8.87990983960515"><ele>89.0</ele><time>2026-05-01T16:36:46.001Z</time></trkpt><trkpt lat="44.96059424107982" lon="8.880168612616693"><ele>89.0</ele><time>2026-05-01T16:36:47.001Z</time></trkpt><trkpt lat="44.960835112078286" lon="8.880426006515446"><ele>89.0</ele><time>2026-05-01T16:36:48.001Z</time></trkpt><trkpt lat="44.961080581434906" lon="8.880678725120013"><ele>90.5</ele><time>2026-05-01T16:36:49.001Z</time></trkpt><trkpt lat="44.96132636388947" lon="8.880932776860137"><ele>92.0</ele><time>2026-05-01T16:36:50.001Z</time></trkpt><trkpt lat="44.96157896293938" lon="8.881185315773513"><ele>91.5</ele><time>2026-05-01T16:36:51.001Z</time></trkpt><trkpt lat="44.9618291154105" lon="8.881436705767882"><ele>91.0</ele><time>2026-05-01T16:36:52.001Z</time></trkpt><trkpt lat="44.96207376866552" lon="8.881699966189919"><ele>90.5</ele><time>2026-05-01T16:36:53.001Z</time></trkpt><trkpt lat="44.962314959309964" lon="8.881941791401907"><ele>90.0</ele><time>2026-05-01T16:36:54.001Z</time></trkpt><trkpt lat="44.96256491769609" lon="8.88220182676017"><ele>90.0</ele><time>2026-05-01T16:36:55.001Z</time></trkpt><trkpt lat="44.96281105229959" lon="8.882460385559384"><ele>90.0</ele><time>2026-05-01T16:36:56.001Z</time></trkpt><trkpt lat="44.963051348307246" lon="8.882722627660558"><ele>90.0</ele><time>2026-05-01T16:36:57.001Z</time></trkpt><trkpt lat="44.96329580114736" lon="8.882982441979372"><ele>90.0</ele><time>2026-05-01T16:36:58Z</time></trkpt><trkpt lat="44.963534314855124" lon="8.883240664999239"><ele>88.0</ele><time>2026-05-01T16:36:59Z</time></trkpt><trkpt lat="44.9637805821283" lon="8.883505133921346"><ele>86.0</ele><time>2026-05-01T16:37:00Z</time></trkpt><trkpt lat="44.96402074359488" lon="8.883762746739611"><ele>86.5</ele><time>2026-05-01T16:37:01Z</time></trkpt><trkpt lat="44.96426223625188" lon="8.884021175472073"><ele>87.0</ele><time>2026-05-01T16:37:02Z</time></trkpt><trkpt lat="44.96450316978458" lon="8.884283923278128"><ele>87.0</ele><time>2026-05-01T16:37:03Z</time></trkpt><trkpt lat="44.964743709683596" lon="8.8845417805813"><ele>87.0</ele><time>2026-05-01T16:37:04Z</time></trkpt><trkpt lat="44.96498731600743" lon="8.884799947632787"><ele>87.0</ele><time>2026-05-01T16:37:05Z</time></trkpt><trkpt lat="44.96523494510692" lon="8.885054785929194"><ele>87.0</ele><time>2026-05-01T16:37:06Z</time></trkpt><trkpt lat="44.96547674062414" lon="8.885314706692942"><ele>87.0</ele><time>2026-05-01T16:37:07Z</time></trkpt><trkpt lat="44.965719101446474" lon="8.885573297442846"><ele>87.0</ele><time>2026-05-01T16:37:08Z</time></trkpt><trkpt lat="44.96596620366822" lon="8.885827956262007"><ele>88.0</ele><time>2026-05-01T16:37:09Z</time></trkpt><trkpt lat="44.96621262901945" lon="8.88608881690133"><ele>89.0</ele><time>2026-05-01T16:37:10Z</time></trkpt><trkpt lat="44.96645098479796" lon="8.886348914530634"><ele>89.0</ele><time>2026-05-01T16:37:11Z</time></trkpt><trkpt lat="44.96669204094569" lon="8.886607177843715"><ele>89.0</ele><time>2026-05-01T16:37:12Z</time></trkpt><trkpt lat="44.96693667031765" lon="8.886866599179424"><ele>89.5</ele><time>2026-05-01T16:37:13Z</time></trkpt><trkpt lat="44.967180379996385" lon="8.887127833092826"><ele>90.0</ele><time>2026-05-01T16:37:14Z</time></trkpt><trkpt lat="44.967424570634336" lon="8.887390656251434"><ele>89.0</ele><time>2026-05-01T16:37:15Z</time></trkpt><trkpt lat="44.96766716789901" lon="8.887652619068566"><ele>88.0</ele><time>2026-05-01T16:37:16Z</time></trkpt><trkpt lat="44.96791407979993" lon="8.887909692879274"><ele>88.0</ele><time>2026-05-01T16:37:17Z</time></trkpt><trkpt lat="44.968156490477945" lon="8.888172741034229"><ele>88.0</ele><time>2026-05-01T16:37:18Z</time></trkpt><trkpt lat="44.968402446174544" lon="8.888427348041578"><ele>88.5</ele><time>2026-05-01T16:37:19Z</time></trkpt><trkpt lat="44.968645103750575" lon="8.888692647486792"><ele>89.0</ele><time>2026-05-01T16:37:20Z</time></trkpt><trkpt lat="44.96888583532404" lon="8.888948475147979"><ele>89.0</ele><time>2026-05-01T16:37:21Z</time></trkpt><trkpt lat="44.96912970946053" lon="8.889213641972045"><ele>89.0</ele><time>2026-05-01T16:37:22Z</time></trkpt><trkpt lat="44.9693765168264" lon="8.88946954505565"><ele>88.0</ele><time>2026-05-01T16:37:23Z</time></trkpt><trkpt lat="44.96961951877818" lon="8.889720776803713"><ele>87.0</ele><time>2026-05-01T16:37:24Z</time></trkpt><trkpt lat="44.96986889855514" lon="8.889979776349756"><ele>86.5</ele><time>2026-05-01T16:37:25Z</time></trkpt><trkpt lat="44.97011580275843" lon="8.890237795407527"><ele>86.0</ele><time>2026-05-01T16:37:26Z</time></trkpt><trkpt lat="44.97036236563709" lon="8.890491083720212"><ele>86.0</ele><time>2026-05-01T16:37:27Z</time></trkpt><trkpt lat="44.97060454207752" lon="8.89074983188386"><ele>86.0</ele><time>2026-05-01T16:37:28Z</time></trkpt><trkpt lat="44.97084920468385" lon="8.891007715036979"><ele>84.0</ele><time>2026-05-01T16:37:29Z</time></trkpt><trkpt lat="44.9710877470381" lon="8.891261648749646"><ele>82.0</ele><time>2026-05-01T16:37:30Z</time></trkpt><trkpt lat="44.97132937185751" lon="8.891521541947334"><ele>83.0</ele><time>2026-05-01T16:37:31Z</time></trkpt><trkpt lat="44.971571924570895" lon="8.891777522675506"><ele>84.0</ele><time>2026-05-01T16:37:32Z</time></trkpt><trkpt lat="44.97181839433739" lon="8.892036556743477"><ele>84.0</ele><time>2026-05-01T16:37:33Z</time></trkpt><trkpt lat="44.97205958151833" lon="8.892297384232327"><ele>84.0</ele><time>2026-05-01T16:37:34Z</time></trkpt><trkpt lat="44.97230329138901" lon="8.892552696328806"><ele>84.5</ele><time>2026-05-01T16:37:35Z</time></trkpt><trkpt lat="44.97254481372084" lon="8.892811265610927"><ele>85.0</ele><time>2026-05-01T16:37:36Z</time></trkpt><trkpt lat="44.97278847262953" lon="8.893069114285334"><ele>85.0</ele><time>2026-05-01T16:37:37Z</time></trkpt><trkpt lat="44.97303400240277" lon="8.89332801008313"><ele>85.0</ele><time>2026-05-01T16:37:38Z</time></trkpt><trkpt lat="44.973269577342435" lon="8.893593362906522"><ele>84.5</ele><time>2026-05-01T16:37:39Z</time></trkpt><trkpt lat="44.973516681284785" lon="8.893855280224995"><ele>84.0</ele><time>2026-05-01T16:37:40Z</time></trkpt><trkpt lat="44.97375881223513" lon="8.89410873313058"><ele>83.0</ele><time>2026-05-01T16:37:41Z</time></trkpt><trkpt lat="44.97399927936036" lon="8.894372194984962"><ele>82.0</ele><time>2026-05-01T16:37:42Z</time></trkpt><trkpt lat="44.9742384802034" lon="8.894635018314593"><ele>82.0</ele><time>2026-05-01T16:37:43Z</time></trkpt><trkpt lat="44.97447595444108" lon="8.894902177635734"><ele>82.0</ele><time>2026-05-01T16:37:44Z</time></trkpt><trkpt lat="44.97471469960217" lon="8.895172055891845"><ele>82.0</ele><time>2026-05-01T16:37:45Z</time></trkpt><trkpt lat="44.97495206624759" lon="8.895435485877965"><ele>82.0</ele><time>2026-05-01T16:37:46Z</time></trkpt><trkpt lat="44.97519252060414" lon="8.895694234326225"><ele>82.0</ele><time>2026-05-01T16:37:47Z</time></trkpt><trkpt lat="44.975442628582044" lon="8.895945289627424"><ele>82.0</ele><time>2026-05-01T16:37:48Z</time></trkpt><trkpt lat="44.97568621031514" lon="8.896193842786912"><ele>82.5</ele><time>2026-05-01T16:37:49Z</time></trkpt><trkpt lat="44.97594322919661" lon="8.896439215187847"><ele>83.0</ele><time>2026-05-01T16:37:50Z</time></trkpt><trkpt lat="44.976200624250296" lon="8.896681571765521"><ele>83.5</ele><time>2026-05-01T16:37:51Z</time></trkpt><trkpt lat="44.97645695902259" lon="8.896903873042858"><ele>84.0</ele><time>2026-05-01T16:37:52Z</time></trkpt><trkpt lat="44.976726618604616" lon="8.897106937090358"><ele>84.5</ele><time>2026-05-01T16:37:53Z</time></trkpt><trkpt lat="44.97700079084027" lon="8.897298456166162"><ele>85.0</ele><time>2026-05-01T16:37:54Z</time></trkpt><trkpt lat="44.97727393617689" lon="8.897484718304352"><ele>85.0</ele><time>2026-05-01T16:37:55Z</time></trkpt><trkpt lat="44.97754914479422" lon="8.897676503022693"><ele>85.0</ele><time>2026-05-01T16:37:56Z</time></trkpt><trkpt lat="44.97782317164715" lon="8.897871847684526"><ele>85.0</ele><time>2026-05-01T16:37:57Z</time></trkpt><trkpt lat="44.978094463039795" lon="8.898072312318284"><ele>85.0</ele><time>2026-05-01T16:37:58Z</time></trkpt><trkpt lat="44.97836438903904" lon="8.898265729362954"><ele>84.5</ele><time>2026-05-01T16:37:59Z</time></trkpt><trkpt lat="44.97863075598163" lon="8.898459366867641"><ele>84.0</ele><time>2026-05-01T16:38:00Z</time></trkpt><trkpt lat="44.97890084346185" lon="8.898655084866961"><ele>84.0</ele><time>2026-05-01T16:38:01Z</time></trkpt><trkpt lat="44.97917349048669" lon="8.898850554971482"><ele>84.0</ele><time>2026-05-01T16:38:02Z</time></trkpt><trkpt lat="44.979445433131936" lon="8.899043725903905"><ele>83.5</ele><time>2026-05-01T16:38:03Z</time></trkpt><trkpt lat="44.97971440015209" lon="8.899247980433538"><ele>83.0</ele><time>2026-05-01T16:38:04Z</time></trkpt><trkpt lat="44.97998729562306" lon="8.899436429083131"><ele>83.0</ele><time>2026-05-01T16:38:05Z</time></trkpt><trkpt lat="44.980257283999144" lon="8.899628561983704"><ele>83.0</ele><time>2026-05-01T16:38:06Z</time></trkpt><trkpt lat="44.980530575909334" lon="8.899822642571703"><ele>83.0</ele><time>2026-05-01T16:38:07Z</time></trkpt><trkpt lat="44.98080257298691" lon="8.900021622559192"><ele>83.0</ele><time>2026-05-01T16:38:08Z</time></trkpt><trkpt lat="44.981075950265506" lon="8.900217351590516"><ele>82.5</ele><time>2026-05-01T16:38:09Z</time></trkpt><trkpt lat="44.98134930297324" lon="8.900411100342554"><ele>82.0</ele><time>2026-05-01T16:38:10Z</time></trkpt><trkpt lat="44.98162143844273" lon="8.900603879040974"><ele>82.0</ele><time>2026-05-01T16:38:11Z</time></trkpt><trkpt lat="44.981892898305304" lon="8.90079754382079"><ele>82.0</ele><time>2026-05-01T16:38:12Z</time></trkpt><trkpt lat="44.98216249657269" lon="8.90099063160999"><ele>82.5</ele><time>2026-05-01T16:38:13Z</time></trkpt><trkpt lat="44.98243679258809" lon="8.901184470557133"><ele>83.0</ele><time>2026-05-01T16:38:14Z</time></trkpt><trkpt lat="44.98270924948774" lon="8.901380684355505"><ele>83.0</ele><time>2026-05-01T16:38:15Z</time></trkpt><trkpt lat="44.982980908111195" lon="8.901577688558826"><ele>83.0</ele><time>2026-05-01T16:38:16Z</time></trkpt><trkpt lat="44.983256819901754" lon="8.901772884302487"><ele>82.5</ele><time>2026-05-01T16:38:17Z</time></trkpt><trkpt lat="44.98352579155837" lon="8.901965085315712"><ele>82.0</ele><time>2026-05-01T16:38:18Z</time></trkpt><trkpt lat="44.98379612162582" lon="8.902158794734103"><ele>82.0</ele><time>2026-05-01T16:38:19Z</time></trkpt><trkpt lat="44.98406982119931" lon="8.902353018579415"><ele>82.0</ele><time>2026-05-01T16:38:20Z</time></trkpt><trkpt lat="44.98434217387037" lon="8.902547442778134"><ele>81.5</ele><time>2026-05-01T16:38:21Z</time></trkpt><trkpt lat="44.98461116276058" lon="8.90273832016134"><ele>81.0</ele><time>2026-05-01T16:38:22Z</time></trkpt><trkpt lat="44.98488798961148" lon="8.902931778928531"><ele>81.0</ele><time>2026-05-01T16:38:23Z</time></trkpt><trkpt lat="44.985159813744346" lon="8.903122462331845"><ele>81.0</ele><time>2026-05-01T16:38:24Z</time></trkpt><trkpt lat="44.98543335021165" lon="8.903314109328145"><ele>81.0</ele><time>2026-05-01T16:38:25Z</time></trkpt><trkpt lat="44.98570198926086" lon="8.903509737211852"><ele>81.0</ele><time>2026-05-01T16:38:26Z</time></trkpt><trkpt lat="44.98596917022536" lon="8.903705890219152"><ele>80.0</ele><time>2026-05-01T16:38:27Z</time></trkpt><trkpt lat="44.986245379706524" lon="8.903904328978399"><ele>79.0</ele><time>2026-05-01T16:38:28Z</time></trkpt><trkpt lat="44.986517143934094" lon="8.904101688263216"><ele>79.5</ele><time>2026-05-01T16:38:29Z</time></trkpt><trkpt lat="44.986789531120294" lon="8.904299486667156"><ele>80.0</ele><time>2026-05-01T16:38:30Z</time></trkpt><trkpt lat="44.98706205241322" lon="8.904495187151992"><ele>80.0</ele><time>2026-05-01T16:38:31Z</time></trkpt><trkpt lat="44.987337706291704" lon="8.904687398639071"><ele>80.0</ele><time>2026-05-01T16:38:32Z</time></trkpt><trkpt lat="44.98760986725787" lon="8.904881933031874"><ele>80.5</ele><time>2026-05-01T16:38:33Z</time></trkpt><trkpt lat="44.98788081747776" lon="8.905076722374845"><ele>81.0</ele><time>2026-05-01T16:38:34Z</time></trkpt><trkpt lat="44.98815285736111" lon="8.905271628540788"><ele>81.5</ele><time>2026-05-01T16:38:35Z</time></trkpt><trkpt lat="44.98842393607248" lon="8.905464901904942"><ele>82.0</ele><time>2026-05-01T16:38:36Z</time></trkpt><trkpt lat="44.988696288613454" lon="8.905660419835044"><ele>82.0</ele><time>2026-05-01T16:38:37Z</time></trkpt><trkpt lat="44.98897208392064" lon="8.905858584961523"><ele>82.0</ele><time>2026-05-01T16:38:38Z</time></trkpt><trkpt lat="44.98924474282123" lon="8.906049469111675"><ele>82.0</ele><time>2026-05-01T16:38:39Z</time></trkpt><trkpt lat="44.98951747364504" lon="8.906245913429554"><ele>82.0</ele><time>2026-05-01T16:38:40Z</time></trkpt><trkpt lat="44.989788005226146" lon="8.906437586017804"><ele>82.0</ele><time>2026-05-01T16:38:41Z</time></trkpt><trkpt lat="44.990061688477425" lon="8.906636166474975"><ele>82.0</ele><time>2026-05-01T16:38:42Z</time></trkpt><trkpt lat="44.99033220417849" lon="8.906834833888258"><ele>82.0</ele><time>2026-05-01T16:38:43Z</time></trkpt><trkpt lat="44.990603825289995" lon="8.907032480160359"><ele>82.0</ele><time>2026-05-01T16:38:44Z</time></trkpt><trkpt lat="44.990877809787065" lon="8.907228033508847"><ele>82.0</ele><time>2026-05-01T16:38:45Z</time></trkpt><trkpt lat="44.99115935251904" lon="8.907421259132807"><ele>82.0</ele><time>2026-05-01T16:38:46Z</time></trkpt><trkpt lat="44.991433678509125" lon="8.907619925530012"><ele>81.0</ele><time>2026-05-01T16:38:47Z</time></trkpt><trkpt lat="44.991698880687" lon="8.907809291501298"><ele>80.0</ele><time>2026-05-01T16:38:48Z</time></trkpt><trkpt lat="44.99196680327989" lon="8.908003652604688"><ele>80.0</ele><time>2026-05-01T16:38:49Z</time></trkpt><trkpt lat="44.992238420200195" lon="8.908195813819177"><ele>80.0</ele><time>2026-05-01T16:38:50Z</time></trkpt><trkpt lat="44.9925115550313" lon="8.9083903153124"><ele>79.5</ele><time>2026-05-01T16:38:51Z</time></trkpt><trkpt lat="44.992786349178544" lon="8.908578838281498"><ele>79.0</ele><time>2026-05-01T16:38:52Z</time></trkpt><trkpt lat="44.99306442157642" lon="8.908771021295536"><ele>79.0</ele><time>2026-05-01T16:38:53Z</time></trkpt><trkpt lat="44.99334000928644" lon="8.90896056332331"><ele>79.0</ele><time>2026-05-01T16:38:54Z</time></trkpt><trkpt lat="44.993608421939214" lon="8.909147750678756"><ele>79.5</ele><time>2026-05-01T16:38:55Z</time></trkpt><trkpt lat="44.993879338700886" lon="8.909331454225429"><ele>80.0</ele><time>2026-05-01T16:38:56Z</time></trkpt><trkpt lat="44.99414969060163" lon="8.909524259488396"><ele>79.0</ele><time>2026-05-01T16:38:57Z</time></trkpt><trkpt lat="44.99442969732595" lon="8.9097213811988"><ele>78.0</ele><time>2026-05-01T16:38:58Z</time></trkpt><trkpt lat="44.99473162945957" lon="8.909937686654574"><ele>78.0</ele><time>2026-05-01T16:38:59Z</time></trkpt><trkpt lat="44.99504493379904" lon="8.910161161680339"><ele>78.0</ele><time>2026-05-01T16:39:00Z</time></trkpt><trkpt lat="44.99536633549351" lon="8.910389113740946"><ele>78.0</ele><time>2026-05-01T16:39:01Z</time></trkpt><trkpt lat="44.9956831912392" lon="8.910618519415781"><ele>78.0</ele><time>2026-05-01T16:39:02Z</time></trkpt><trkpt lat="44.9959915290654" lon="8.910848426257335"><ele>78.5</ele><time>2026-05-01T16:39:03Z</time></trkpt><trkpt lat="44.996290079820355" lon="8.911066005502642"><ele>79.0</ele><time>2026-05-01T16:39:04Z</time></trkpt><trkpt lat="44.99657600498726" lon="8.911264357356478"><ele>79.0</ele><time>2026-05-01T16:39:05Z</time></trkpt><trkpt lat="44.99684222803122" lon="8.911452149501391"><ele>79.0</ele><time>2026-05-01T16:39:06Z</time></trkpt><trkpt lat="44.99710750711721" lon="8.911644313700052"><ele>79.0</ele><time>2026-05-01T16:39:07Z</time></trkpt><trkpt lat="44.997372320257526" lon="8.911838863151123"><ele>79.0</ele><time>2026-05-01T16:39:08Z</time></trkpt><trkpt lat="44.9976406749042" lon="8.912036943693874"><ele>79.0</ele><time>2026-05-01T16:39:09Z</time></trkpt><trkpt lat="44.99791046495789" lon="8.912229121715422"><ele>79.0</ele><time>2026-05-01T16:39:10Z</time></trkpt><trkpt lat="44.9981819507554" lon="8.912424262095108"><ele>79.5</ele><time>2026-05-01T16:39:11Z</time></trkpt><trkpt lat="44.998453870475075" lon="8.912616387744539"><ele>80.0</ele><time>2026-05-01T16:39:12Z</time></trkpt><trkpt lat="44.9987283081236" lon="8.912812921426966"><ele>80.0</ele><time>2026-05-01T16:39:13Z</time></trkpt><trkpt lat="44.99900162914349" lon="8.913005987026144"><ele>80.0</ele><time>2026-05-01T16:39:14Z</time></trkpt><trkpt lat="44.99927302542547" lon="8.91319452386071"><ele>80.0</ele><time>2026-05-01T16:39:15Z</time></trkpt><trkpt lat="44.999544148239494" lon="8.913391746258098"><ele>80.0</ele><time>2026-05-01T16:39:16Z</time></trkpt><trkpt lat="44.9998157802563" lon="8.91358988262171"><ele>79.5</ele><time>2026-05-01T16:39:17Z</time></trkpt><trkpt lat="45.00008786762705" lon="8.913785985924866"><ele>79.0</ele><time>2026-05-01T16:39:18Z</time></trkpt><trkpt lat="45.0003577229075" lon="8.913979608145574"><ele>79.0</ele><time>2026-05-01T16:39:19Z</time></trkpt><trkpt lat="45.00062831602901" lon="8.914176285634852"><ele>79.0</ele><time>2026-05-01T16:39:20Z</time></trkpt><trkpt lat="45.00090288561407" lon="8.91437716596207"><ele>77.5</ele><time>2026-05-01T16:39:21Z</time></trkpt><trkpt lat="45.00117524626786" lon="8.91457599710402"><ele>76.0</ele><time>2026-05-01T16:39:22Z</time></trkpt><trkpt lat="45.00144717180961" lon="8.914769419623703"><ele>76.0</ele><time>2026-05-01T16:39:23Z</time></trkpt><trkpt lat="45.001718577146356" lon="8.914958427882466"><ele>76.0</ele><time>2026-05-01T16:39:24Z</time></trkpt><trkpt lat="45.00199343666553" lon="8.915149863026476"><ele>76.0</ele><time>2026-05-01T16:39:25Z</time></trkpt><trkpt lat="45.00226448477952" lon="8.915343695562786"><ele>76.0</ele><time>2026-05-01T16:39:26Z</time></trkpt><trkpt lat="45.002534470703395" lon="8.915538905392044"><ele>76.5</ele><time>2026-05-01T16:39:27Z</time></trkpt><trkpt lat="45.00280864713447" lon="8.915732208468423"><ele>77.0</ele><time>2026-05-01T16:39:28Z</time></trkpt><trkpt lat="45.00307996182236" lon="8.91592795123985"><ele>78.0</ele><time>2026-05-01T16:39:29Z</time></trkpt><trkpt lat="45.003350904255136" lon="8.91612535989221"><ele>79.0</ele><time>2026-05-01T16:39:30Z</time></trkpt><trkpt lat="45.00362346566367" lon="8.91632147986407"><ele>79.0</ele><time>2026-05-01T16:39:31Z</time></trkpt><trkpt lat="45.00389167064756" lon="8.916519205129195"><ele>79.0</ele><time>2026-05-01T16:39:32Z</time></trkpt><trkpt lat="45.00415773337081" lon="8.916729423482783"><ele>77.5</ele><time>2026-05-01T16:39:33Z</time></trkpt><trkpt lat="45.004423836476064" lon="8.916940434455146"><ele>76.0</ele><time>2026-05-01T16:39:34Z</time></trkpt><trkpt lat="45.004690993534" lon="8.917143904814727"><ele>76.0</ele><time>2026-05-01T16:39:35Z</time></trkpt><trkpt lat="45.004960792115554" lon="8.917334770487997"><ele>76.0</ele><time>2026-05-01T16:39:36Z</time></trkpt><trkpt lat="45.00523398983875" lon="8.917527499098469"><ele>76.5</ele><time>2026-05-01T16:39:37Z</time></trkpt><trkpt lat="45.005508940913536" lon="8.917720468035006"><ele>77.0</ele><time>2026-05-01T16:39:38Z</time></trkpt><trkpt lat="45.005781337208084" lon="8.917915159530848"><ele>78.0</ele><time>2026-05-01T16:39:39Z</time></trkpt><trkpt lat="45.00605327466323" lon="8.918111418786005"><ele>79.0</ele><time>2026-05-01T16:39:40Z</time></trkpt><trkpt lat="45.00632507916415" lon="8.918310262252895"><ele>79.0</ele><time>2026-05-01T16:39:41Z</time></trkpt><trkpt lat="45.006580246192755" lon="8.918512314433556"><ele>79.0</ele><time>2026-05-01T16:39:42Z</time></trkpt><trkpt lat="45.0068553560609" lon="8.918712323944765"><ele>78.0</ele><time>2026-05-01T16:39:43Z</time></trkpt><trkpt lat="45.00712551012643" lon="8.918902029427738"><ele>77.0</ele><time>2026-05-01T16:39:44Z</time></trkpt><trkpt lat="45.00740155433369" lon="8.919090681094364"><ele>76.5</ele><time>2026-05-01T16:39:45Z</time></trkpt><trkpt lat="45.00767376859949" lon="8.91928572906859"><ele>76.0</ele><time>2026-05-01T16:39:46Z</time></trkpt><trkpt lat="45.00794335080428" lon="8.919478883282743"><ele>76.0</ele><time>2026-05-01T16:39:47Z</time></trkpt><trkpt lat="45.008217444361826" lon="8.91967796425678"><ele>76.0</ele><time>2026-05-01T16:39:48Z</time></trkpt><trkpt lat="45.00848870320144" lon="8.919873759515363"><ele>76.5</ele><time>2026-05-01T16:39:49Z</time></trkpt><trkpt lat="45.00875872790134" lon="8.920070461652537"><ele>77.0</ele><time>2026-05-01T16:39:50Z</time></trkpt><trkpt lat="45.00903329834052" lon="8.920267587584743"><ele>77.5</ele><time>2026-05-01T16:39:51Z</time></trkpt><trkpt lat="45.00930640263156" lon="8.920459273710298"><ele>78.0</ele><time>2026-05-01T16:39:52Z</time></trkpt><trkpt lat="45.00957802556863" lon="8.920651274435164"><ele>78.0</ele><time>2026-05-01T16:39:53Z</time></trkpt><trkpt lat="45.009853372479945" lon="8.92084487670928"><ele>78.0</ele><time>2026-05-01T16:39:54Z</time></trkpt><trkpt lat="45.010125919784436" lon="8.921036645802184"><ele>78.0</ele><time>2026-05-01T16:39:55Z</time></trkpt><trkpt lat="45.01039740386106" lon="8.921233742802421"><ele>78.0</ele><time>2026-05-01T16:39:56Z</time></trkpt><trkpt lat="45.010668057855966" lon="8.921431444890215"><ele>78.5</ele><time>2026-05-01T16:39:57Z</time></trkpt><trkpt lat="45.01094406394026" lon="8.921621809057969"><ele>79.0</ele><time>2026-05-01T16:39:58Z</time></trkpt><trkpt lat="45.01121269550357" lon="8.92181876439542"><ele>78.0</ele><time>2026-05-01T16:39:59Z</time></trkpt><trkpt lat="45.01148158764595" lon="8.922012020171259"><ele>77.0</ele><time>2026-05-01T16:40:00Z</time></trkpt><trkpt lat="45.011751300192806" lon="8.922204578506385"><ele>78.0</ele><time>2026-05-01T16:40:01Z</time></trkpt><trkpt lat="45.01202077061449" lon="8.922407576276129"><ele>79.0</ele><time>2026-05-01T16:40:02Z</time></trkpt><trkpt lat="45.01229719840132" lon="8.922604487896058"><ele>77.5</ele><time>2026-05-01T16:40:03Z</time></trkpt><trkpt lat="45.012585830634954" lon="8.922813187815377"><ele>76.0</ele><time>2026-05-01T16:40:04Z</time></trkpt><trkpt lat="45.01284869986806" lon="8.922993702154725"><ele>76.0</ele><time>2026-05-01T16:40:05Z</time></trkpt><trkpt lat="45.013120397938444" lon="8.923181454408327"><ele>76.0</ele><time>2026-05-01T16:40:06Z</time></trkpt><trkpt lat="45.01339295138948" lon="8.923375977397537"><ele>76.5</ele><time>2026-05-01T16:40:07Z</time></trkpt><trkpt lat="45.013666173813625" lon="8.92357084440853"><ele>77.0</ele><time>2026-05-01T16:40:08Z</time></trkpt><trkpt lat="45.01394231753351" lon="8.923767245745719"><ele>77.5</ele><time>2026-05-01T16:40:09Z</time></trkpt><trkpt lat="45.01421701494434" lon="8.923958676244387"><ele>78.0</ele><time>2026-05-01T16:40:10Z</time></trkpt><trkpt lat="45.0144889367843" lon="8.924153678915424"><ele>78.5</ele><time>2026-05-01T16:40:11Z</time></trkpt><trkpt lat="45.014767030766734" lon="8.92434387767078"><ele>79.0</ele><time>2026-05-01T16:40:12Z</time></trkpt><trkpt lat="45.015031152147955" lon="8.924535771833916"><ele>78.0</ele><time>2026-05-01T16:40:13Z</time></trkpt><trkpt lat="45.01531018147966" lon="8.924737206528624"><ele>77.0</ele><time>2026-05-01T16:40:14Z</time></trkpt><trkpt lat="45.01557829697627" lon="8.92492311860264"><ele>77.5</ele><time>2026-05-01T16:40:15Z</time></trkpt><trkpt lat="45.01585596712714" lon="8.925106694959513"><ele>78.0</ele><time>2026-05-01T16:40:16Z</time></trkpt><trkpt lat="45.016129119298476" lon="8.925286957633201"><ele>78.0</ele><time>2026-05-01T16:40:17Z</time></trkpt><trkpt lat="45.01640157021166" lon="8.925468448429303"><ele>78.0</ele><time>2026-05-01T16:40:18Z</time></trkpt><trkpt lat="45.01667529058111" lon="8.92566015016845"><ele>78.5</ele><time>2026-05-01T16:40:19Z</time></trkpt><trkpt lat="45.016951353006924" lon="8.92585724217127"><ele>79.0</ele><time>2026-05-01T16:40:20Z</time></trkpt><trkpt lat="45.0172245209643" lon="8.926048432680503"><ele>78.5</ele><time>2026-05-01T16:40:21Z</time></trkpt><trkpt lat="45.01749427690267" lon="8.926244663846795"><ele>78.0</ele><time>2026-05-01T16:40:22Z</time></trkpt><trkpt lat="45.01776931733544" lon="8.926446907235674"><ele>78.0</ele><time>2026-05-01T16:40:23Z</time></trkpt><trkpt lat="45.01804283779335" lon="8.92664532252826"><ele>78.0</ele><time>2026-05-01T16:40:24Z</time></trkpt><trkpt lat="45.01831335731603" lon="8.926839129020593"><ele>79.0</ele><time>2026-05-01T16:40:25Z</time></trkpt><trkpt lat="45.01858567535013" lon="8.9270330130756"><ele>80.0</ele><time>2026-05-01T16:40:26Z</time></trkpt><trkpt lat="45.018863053427665" lon="8.927217908842533"><ele>80.0</ele><time>2026-05-01T16:40:27Z</time></trkpt><trkpt lat="45.019130428518785" lon="8.927409237205145"><ele>80.0</ele><time>2026-05-01T16:40:28Z</time></trkpt><trkpt lat="45.0194053174846" lon="8.927604066260937"><ele>80.5</ele><time>2026-05-01T16:40:29Z</time></trkpt><trkpt lat="45.019672682134406" lon="8.927792576135694"><ele>81.0</ele><time>2026-05-01T16:40:30Z</time></trkpt><trkpt lat="45.01994144119693" lon="8.927986563272736"><ele>81.0</ele><time>2026-05-01T16:40:31Z</time></trkpt><trkpt lat="45.020215580934554" lon="8.928177170499037"><ele>81.0</ele><time>2026-05-01T16:40:32Z</time></trkpt><trkpt lat="45.02048652189201" lon="8.928387806286992"><ele>80.5</ele><time>2026-05-01T16:40:33Z</time></trkpt><trkpt lat="45.02075371288374" lon="8.928595043433234"><ele>80.0</ele><time>2026-05-01T16:40:34Z</time></trkpt><trkpt lat="45.021025047271955" lon="8.928796958584375"><ele>79.5</ele><time>2026-05-01T16:40:35Z</time></trkpt><trkpt lat="45.02129681945186" lon="8.92899471143478"><ele>79.0</ele><time>2026-05-01T16:40:36Z</time></trkpt><trkpt lat="45.021571992381745" lon="8.92918724767286"><ele>79.5</ele><time>2026-05-01T16:40:37Z</time></trkpt><trkpt lat="45.02184704106321" lon="8.929378540769555"><ele>80.0</ele><time>2026-05-01T16:40:38Z</time></trkpt><trkpt lat="45.02212222384803" lon="8.929565386396435"><ele>80.0</ele><time>2026-05-01T16:40:39Z</time></trkpt><trkpt lat="45.022392935937695" lon="8.929755487015447"><ele>80.0</ele><time>2026-05-01T16:40:40Z</time></trkpt><trkpt lat="45.0226626611113" lon="8.929946079219397"><ele>79.5</ele><time>2026-05-01T16:40:41Z</time></trkpt><trkpt lat="45.022937590139136" lon="8.930132016689848"><ele>79.0</ele><time>2026-05-01T16:40:42Z</time></trkpt><trkpt lat="45.02321305666314" lon="8.930325212347856"><ele>78.0</ele><time>2026-05-01T16:40:43Z</time></trkpt><trkpt lat="45.02348540559935" lon="8.930514108950689"><ele>77.0</ele><time>2026-05-01T16:40:44Z</time></trkpt><trkpt lat="45.023756274497444" lon="8.93070635192477"><ele>77.5</ele><time>2026-05-01T16:40:45Z</time></trkpt><trkpt lat="45.024028409432674" lon="8.930902357713366"><ele>78.0</ele><time>2026-05-01T16:40:46Z</time></trkpt><trkpt lat="45.0243023744793" lon="8.931098429626767"><ele>78.5</ele><time>2026-05-01T16:40:47Z</time></trkpt><trkpt lat="45.02458019158779" lon="8.931280040798834"><ele>79.0</ele><time>2026-05-01T16:40:48Z</time></trkpt><trkpt lat="45.024847294724545" lon="8.93146962783621"><ele>78.5</ele><time>2026-05-01T16:40:49Z</time></trkpt><trkpt lat="45.02511843633896" lon="8.9316630809055"><ele>78.0</ele><time>2026-05-01T16:40:50Z</time></trkpt><trkpt lat="45.02539147471682" lon="8.931854361079475"><ele>78.0</ele><time>2026-05-01T16:40:51Z</time></trkpt><trkpt lat="45.02566554380027" lon="8.932058117076531"><ele>78.0</ele><time>2026-05-01T16:40:52Z</time></trkpt><trkpt lat="45.025937190167475" lon="8.932234579734672"><ele>77.0</ele><time>2026-05-01T16:40:53Z</time></trkpt><trkpt lat="45.026215245101355" lon="8.932427907624438"><ele>76.0</ele><time>2026-05-01T16:40:54Z</time></trkpt><trkpt lat="45.02649225712388" lon="8.932622582456823"><ele>75.5</ele><time>2026-05-01T16:40:55Z</time></trkpt><trkpt lat="45.02677394747185" lon="8.932814443076065"><ele>75.0</ele><time>2026-05-01T16:40:56Z</time></trkpt><trkpt lat="45.027043062366964" lon="8.933007964633543"><ele>75.0</ele><time>2026-05-01T16:40:57Z</time></trkpt><trkpt lat="45.027315086052916" lon="8.933197526102175"><ele>75.0</ele><time>2026-05-01T16:40:58Z</time></trkpt><trkpt lat="45.02758803482539" lon="8.933382133219064"><ele>77.5</ele><time>2026-05-01T16:40:59Z</time></trkpt><trkpt lat="45.02784711252471" lon="8.93356146927819"><ele>80.0</ele><time>2026-05-01T16:41:00Z</time></trkpt><trkpt lat="45.02809354053915" lon="8.933737992971329"><ele>78.5</ele><time>2026-05-01T16:41:01Z</time></trkpt><trkpt lat="45.028348515469744" lon="8.933911307449906"><ele>77.0</ele><time>2026-05-01T16:41:02Z</time></trkpt><trkpt lat="45.028604546697416" lon="8.934089593102094"><ele>77.0</ele><time>2026-05-01T16:41:03Z</time></trkpt><trkpt lat="45.02885764093871" lon="8.934265761795945"><ele>77.0</ele><time>2026-05-01T16:41:04Z</time></trkpt><trkpt lat="45.029114273884176" lon="8.934448484895242"><ele>77.5</ele><time>2026-05-01T16:41:05Z</time></trkpt><trkpt lat="45.0293702886207" lon="8.934629985611073"><ele>78.0</ele><time>2026-05-01T16:41:06Z</time></trkpt><trkpt lat="45.02962464373868" lon="8.934811407763847"><ele>78.0</ele><time>2026-05-01T16:41:07Z</time></trkpt><trkpt lat="45.02987841987958" lon="8.934995373614617"><ele>78.0</ele><time>2026-05-01T16:41:08Z</time></trkpt><trkpt lat="45.030135127720094" lon="8.93516777056403"><ele>77.5</ele><time>2026-05-01T16:41:09Z</time></trkpt><trkpt lat="45.03039396156317" lon="8.935345020412107"><ele>77.0</ele><time>2026-05-01T16:41:10Z</time></trkpt><trkpt lat="45.03065298763226" lon="8.935522325745136"><ele>76.5</ele><time>2026-05-01T16:41:11Z</time></trkpt><trkpt lat="45.03090732924638" lon="8.935700378968978"><ele>76.0</ele><time>2026-05-01T16:41:12Z</time></trkpt><trkpt lat="45.031151224586054" lon="8.935872178206555"><ele>76.5</ele><time>2026-05-01T16:41:13Z</time></trkpt><trkpt lat="45.03139229343173" lon="8.936042401402968"><ele>77.0</ele><time>2026-05-01T16:41:14Z</time></trkpt><trkpt lat="45.03163806015563" lon="8.936212245328797"><ele>76.0</ele><time>2026-05-01T16:41:15Z</time></trkpt><trkpt lat="45.03188425156015" lon="8.936384665016487"><ele>75.0</ele><time>2026-05-01T16:41:16Z</time></trkpt><trkpt lat="45.0321329997532" lon="8.936555054760744"><ele>74.0</ele><time>2026-05-01T16:41:17Z</time></trkpt><trkpt lat="45.03237903974162" lon="8.936730023473178"><ele>73.0</ele><time>2026-05-01T16:41:18Z</time></trkpt><trkpt lat="45.032617720309766" lon="8.936901563480637"><ele>73.0</ele><time>2026-05-01T16:41:19Z</time></trkpt><trkpt lat="45.03285011011293" lon="8.937067346609975"><ele>73.0</ele><time>2026-05-01T16:41:20Z</time></trkpt><trkpt lat="45.03308262235404" lon="8.9372325254157"><ele>74.0</ele><time>2026-05-01T16:41:21Z</time></trkpt><trkpt lat="45.03331942778461" lon="8.937392365109986"><ele>75.0</ele><time>2026-05-01T16:41:22Z</time></trkpt><trkpt lat="45.03356219556677" lon="8.93755820248962"><ele>75.0</ele><time>2026-05-01T16:41:23Z</time></trkpt><trkpt lat="45.03380270624065" lon="8.93772516166026"><ele>75.0</ele><time>2026-05-01T16:41:24Z</time></trkpt><trkpt lat="45.034038706542184" lon="8.937891910577896"><ele>75.5</ele><time>2026-05-01T16:41:25Z</time></trkpt><trkpt lat="45.03428228057342" lon="8.938056258111141"><ele>76.0</ele><time>2026-05-01T16:41:26Z</time></trkpt><trkpt lat="45.03452046095523" lon="8.938224350896514"><ele>75.5</ele><time>2026-05-01T16:41:27Z</time></trkpt><trkpt lat="45.0347522305267" lon="8.938389783887184"><ele>75.0</ele><time>2026-05-01T16:41:28Z</time></trkpt><trkpt lat="45.03498373621387" lon="8.938549808032807"><ele>74.0</ele><time>2026-05-01T16:41:29Z</time></trkpt><trkpt lat="45.03522681777106" lon="8.938718048468873"><ele>73.0</ele><time>2026-05-01T16:41:30Z</time></trkpt><trkpt lat="45.035470513646764" lon="8.938887799344542"><ele>73.0</ele><time>2026-05-01T16:41:31Z</time></trkpt><trkpt lat="45.03571055685188" lon="8.939054322733622"><ele>73.0</ele><time>2026-05-01T16:41:32Z</time></trkpt><trkpt lat="45.035946164304" lon="8.939223312183989"><ele>72.5</ele><time>2026-05-01T16:41:33Z</time></trkpt><trkpt lat="45.036186586176974" lon="8.93938805367056"><ele>72.0</ele><time>2026-05-01T16:41:34Z</time></trkpt><trkpt lat="45.036427092703086" lon="8.939552244004194"><ele>72.0</ele><time>2026-05-01T16:41:35Z</time></trkpt><trkpt lat="45.03666784940644" lon="8.939721293127539"><ele>72.0</ele><time>2026-05-01T16:41:36Z</time></trkpt><trkpt lat="45.03690228401264" lon="8.939886600358388"><ele>72.0</ele><time>2026-05-01T16:41:37Z</time></trkpt><trkpt lat="45.03713845338958" lon="8.940049173820602"><ele>72.0</ele><time>2026-05-01T16:41:38Z</time></trkpt><trkpt lat="45.03738543083519" lon="8.940213868081598"><ele>73.0</ele><time>2026-05-01T16:41:39Z</time></trkpt><trkpt lat="45.037618934801856" lon="8.940381985218428"><ele>74.0</ele><time>2026-05-01T16:41:40Z</time></trkpt><trkpt lat="45.03785626178702" lon="8.940544480747413"><ele>74.0</ele><time>2026-05-01T16:41:41Z</time></trkpt><trkpt lat="45.03809999927431" lon="8.940709391717915"><ele>74.0</ele><time>2026-05-01T16:41:42Z</time></trkpt><trkpt lat="45.03833353829214" lon="8.940878624621114"><ele>75.0</ele><time>2026-05-01T16:41:43Z</time></trkpt><trkpt lat="45.03856980655256" lon="8.941048463467306"><ele>76.0</ele><time>2026-05-01T16:41:44Z</time></trkpt><trkpt lat="45.03880887699537" lon="8.941216111759395"><ele>76.0</ele><time>2026-05-01T16:41:45Z</time></trkpt><trkpt lat="45.0390477995075" lon="8.941387776306708"><ele>76.0</ele><time>2026-05-01T16:41:46Z</time></trkpt><trkpt lat="45.03928534671777" lon="8.941553775012805"><ele>75.5</ele><time>2026-05-01T16:41:47Z</time></trkpt><trkpt lat="45.0395234422374" lon="8.941721134754696"><ele>75.0</ele><time>2026-05-01T16:41:48Z</time></trkpt><trkpt lat="45.039753588409916" lon="8.941883518871588"><ele>75.0</ele><time>2026-05-01T16:41:49Z</time></trkpt><trkpt lat="45.03999568504394" lon="8.942057623394685"><ele>75.0</ele><time>2026-05-01T16:41:50Z</time></trkpt><trkpt lat="45.040234659612224" lon="8.942230535234316"><ele>75.0</ele><time>2026-05-01T16:41:51Z</time></trkpt><trkpt lat="45.040466673566584" lon="8.942400967334429"><ele>75.0</ele><time>2026-05-01T16:41:52Z</time></trkpt><trkpt lat="45.04070471858928" lon="8.942568434239535"><ele>73.5</ele><time>2026-05-01T16:41:53Z</time></trkpt><trkpt lat="45.040940978561174" lon="8.942740441764505"><ele>72.0</ele><time>2026-05-01T16:41:54Z</time></trkpt><trkpt lat="45.041177906697264" lon="8.942908765082068"><ele>72.0</ele><time>2026-05-01T16:41:55Z</time></trkpt><trkpt lat="45.04141229289027" lon="8.943086895344258"><ele>72.0</ele><time>2026-05-01T16:41:56Z</time></trkpt><trkpt lat="45.04164674673707" lon="8.943263492739732"><ele>72.0</ele><time>2026-05-01T16:41:57Z</time></trkpt><trkpt lat="45.0418829862128" lon="8.943427592062871"><ele>72.0</ele><time>2026-05-01T16:41:58Z</time></trkpt><trkpt lat="45.04212099179341" lon="8.943601388767279"><ele>72.0</ele><time>2026-05-01T16:41:59Z</time></trkpt><trkpt lat="45.04236112673056" lon="8.943770286974486"><ele>72.0</ele><time>2026-05-01T16:42:00Z</time></trkpt><trkpt lat="45.04259800323669" lon="8.943927639812456"><ele>72.0</ele><time>2026-05-01T16:42:01Z</time></trkpt><trkpt lat="45.04283606020263" lon="8.944109987331576"><ele>72.0</ele><time>2026-05-01T16:42:02Z</time></trkpt><trkpt lat="45.043067493177304" lon="8.944280697685592"><ele>71.5</ele><time>2026-05-01T16:42:03Z</time></trkpt><trkpt lat="45.04330305003916" lon="8.944452614154741"><ele>71.0</ele><time>2026-05-01T16:42:04Z</time></trkpt><trkpt lat="45.04354615280065" lon="8.944627487754394"><ele>71.0</ele><time>2026-05-01T16:42:05Z</time></trkpt><trkpt lat="45.043781704960345" lon="8.944792458274364"><ele>71.0</ele><time>2026-05-01T16:42:06Z</time></trkpt><trkpt lat="45.04401977254419" lon="8.9449585429323"><ele>71.5</ele><time>2026-05-01T16:42:07Z</time></trkpt><trkpt lat="45.04425847658328" lon="8.945131946487232"><ele>72.0</ele><time>2026-05-01T16:42:08Z</time></trkpt><trkpt lat="45.04449955028247" lon="8.945296855588296"><ele>72.0</ele><time>2026-05-01T16:42:09Z</time></trkpt><trkpt lat="45.044735962254855" lon="8.945467337068013"><ele>72.0</ele><time>2026-05-01T16:42:10Z</time></trkpt><trkpt lat="45.04497150135388" lon="8.945640169558818"><ele>73.5</ele><time>2026-05-01T16:42:11Z</time></trkpt><trkpt lat="45.045210839140275" lon="8.945806965271967"><ele>75.0</ele><time>2026-05-01T16:42:12Z</time></trkpt><trkpt lat="45.04545015684613" lon="8.945974822784832"><ele>75.0</ele><time>2026-05-01T16:42:13Z</time></trkpt><trkpt lat="45.04568499293838" lon="8.946143914147981"><ele>75.0</ele><time>2026-05-01T16:42:14Z</time></trkpt><trkpt lat="45.04592633433945" lon="8.946309776867613"><ele>75.5</ele><time>2026-05-01T16:42:15Z</time></trkpt><trkpt lat="45.04616950198893" lon="8.946484752109624"><ele>76.0</ele><time>2026-05-01T16:42:16Z</time></trkpt><trkpt lat="45.04640252211048" lon="8.946650595326718"><ele>75.0</ele><time>2026-05-01T16:42:17Z</time></trkpt><trkpt lat="45.04664253208598" lon="8.946818361265748"><ele>74.0</ele><time>2026-05-01T16:42:18Z</time></trkpt><trkpt lat="45.046885213651045" lon="8.946965066426243"><ele>74.0</ele><time>2026-05-01T16:42:19Z</time></trkpt><trkpt lat="45.0471168982872" lon="8.947142846868298"><ele>74.0</ele><time>2026-05-01T16:42:20Z</time></trkpt><trkpt lat="45.04735460492191" lon="8.947313054891257"><ele>73.5</ele><time>2026-05-01T16:42:21Z</time></trkpt><trkpt lat="45.04759579220295" lon="8.947481065064235"><ele>73.0</ele><time>2026-05-01T16:42:22Z</time></trkpt><trkpt lat="45.04783398061709" lon="8.947645936061123"><ele>73.0</ele><time>2026-05-01T16:42:23Z</time></trkpt><trkpt lat="45.048066777425724" lon="8.947812142227441"><ele>73.0</ele><time>2026-05-01T16:42:24Z</time></trkpt><trkpt lat="45.04830792373946" lon="8.947984483858933"><ele>73.0</ele><time>2026-05-01T16:42:25Z</time></trkpt><trkpt lat="45.04854733724678" lon="8.948155760164795"><ele>73.0</ele><time>2026-05-01T16:42:26Z</time></trkpt><trkpt lat="45.04878638755641" lon="8.948321005553217"><ele>72.5</ele><time>2026-05-01T16:42:27Z</time></trkpt><trkpt lat="45.049023763829354" lon="8.948487636706817"><ele>72.0</ele><time>2026-05-01T16:42:28Z</time></trkpt><trkpt lat="45.04926047911482" lon="8.948659707244152"><ele>72.0</ele><time>2026-05-01T16:42:29Z</time></trkpt><trkpt lat="45.04950322753437" lon="8.948835166600576"><ele>72.0</ele><time>2026-05-01T16:42:30Z</time></trkpt><trkpt lat="45.04974391846395" lon="8.949004161334917"><ele>72.5</ele><time>2026-05-01T16:42:31Z</time></trkpt><trkpt lat="45.04998064730513" lon="8.949173703387096"><ele>73.0</ele><time>2026-05-01T16:42:32Z</time></trkpt><trkpt lat="45.050212059688704" lon="8.949343619238267"><ele>72.0</ele><time>2026-05-01T16:42:33Z</time></trkpt><trkpt lat="45.05045152723725" lon="8.949505460680474"><ele>71.0</ele><time>2026-05-01T16:42:34Z</time></trkpt><trkpt lat="45.05068953521036" lon="8.949679575464945"><ele>70.5</ele><time>2026-05-01T16:42:35Z</time></trkpt><trkpt lat="45.05092863410713" lon="8.949850153203052"><ele>70.0</ele><time>2026-05-01T16:42:36Z</time></trkpt><trkpt lat="45.05116735291446" lon="8.950014802642238"><ele>70.5</ele><time>2026-05-01T16:42:37Z</time></trkpt><trkpt lat="45.051404667291024" lon="8.950185421812108"><ele>71.0</ele><time>2026-05-01T16:42:38Z</time></trkpt><trkpt lat="45.051642297929995" lon="8.950353185210867"><ele>72.0</ele><time>2026-05-01T16:42:39Z</time></trkpt><trkpt lat="45.05187835889215" lon="8.950521185482332"><ele>73.0</ele><time>2026-05-01T16:42:40Z</time></trkpt><trkpt lat="45.052115228733875" lon="8.950690693885992"><ele>73.0</ele><time>2026-05-01T16:42:41Z</time></trkpt><trkpt lat="45.05235162097963" lon="8.950856738985788"><ele>73.0</ele><time>2026-05-01T16:42:42Z</time></trkpt><trkpt lat="45.05258839228685" lon="8.951029798973186"><ele>74.0</ele><time>2026-05-01T16:42:43Z</time></trkpt><trkpt lat="45.0528270931114" lon="8.951198697979612"><ele>75.0</ele><time>2026-05-01T16:42:44Z</time></trkpt><trkpt lat="45.05306449618595" lon="8.951371985882494"><ele>73.5</ele><time>2026-05-01T16:42:45Z</time></trkpt><trkpt lat="45.053303679405374" lon="8.951543234964676"><ele>72.0</ele><time>2026-05-01T16:42:46Z</time></trkpt><trkpt lat="45.05353866771938" lon="8.95170983807108"><ele>71.0</ele><time>2026-05-01T16:42:47Z</time></trkpt><trkpt lat="45.05377615182042" lon="8.951884511108956"><ele>70.0</ele><time>2026-05-01T16:42:48Z</time></trkpt><trkpt lat="45.054009395407846" lon="8.952056440565574"><ele>71.0</ele><time>2026-05-01T16:42:49Z</time></trkpt><trkpt lat="45.054246305757836" lon="8.95222216314932"><ele>72.0</ele><time>2026-05-01T16:42:50Z</time></trkpt><trkpt lat="45.05448161294909" lon="8.952391661237074"><ele>71.0</ele><time>2026-05-01T16:42:51Z</time></trkpt><trkpt lat="45.05471884332596" lon="8.952559890304212"><ele>70.0</ele><time>2026-05-01T16:42:52Z</time></trkpt><trkpt lat="45.054955422690114" lon="8.952731053839411"><ele>69.5</ele><time>2026-05-01T16:42:53Z</time></trkpt><trkpt lat="45.05519051613742" lon="8.952902264693416"><ele>69.0</ele><time>2026-05-01T16:42:54Z</time></trkpt><trkpt lat="45.055429225340674" lon="8.953077117636548"><ele>69.0</ele><time>2026-05-01T16:42:55Z</time></trkpt><trkpt lat="45.055663477073445" lon="8.953247804206507"><ele>69.0</ele><time>2026-05-01T16:42:56Z</time></trkpt><trkpt lat="45.05589680026854" lon="8.953424999705755"><ele>68.0</ele><time>2026-05-01T16:42:57Z</time></trkpt><trkpt lat="45.056124507364345" lon="8.953612640133553"><ele>67.0</ele><time>2026-05-01T16:42:58Z</time></trkpt><trkpt lat="45.05634714012738" lon="8.953814257660218"><ele>67.0</ele><time>2026-05-01T16:42:59Z</time></trkpt><trkpt lat="45.05656311212603" lon="8.95402969643999"><ele>67.0</ele><time>2026-05-01T16:43:00Z</time></trkpt><trkpt lat="45.05677406725531" lon="8.954257138523015"><ele>68.5</ele><time>2026-05-01T16:43:01Z</time></trkpt><trkpt lat="45.056980183242885" lon="8.954490813392907"><ele>70.0</ele><time>2026-05-01T16:43:02Z</time></trkpt><trkpt lat="45.05718653330887" lon="8.954730161545658"><ele>70.0</ele><time>2026-05-01T16:43:03Z</time></trkpt><trkpt lat="45.05739768200547" lon="8.954964854422116"><ele>70.0</ele><time>2026-05-01T16:43:04Z</time></trkpt><trkpt lat="45.057608357228126" lon="8.95519743117008"><ele>69.5</ele><time>2026-05-01T16:43:05Z</time></trkpt><trkpt lat="45.05782045122846" lon="8.955421794904026"><ele>69.0</ele><time>2026-05-01T16:43:06Z</time></trkpt><trkpt lat="45.0580331724483" lon="8.955645152318873"><ele>69.0</ele><time>2026-05-01T16:43:07Z</time></trkpt><trkpt lat="45.05824337457839" lon="8.955873015602052"><ele>69.0</ele><time>2026-05-01T16:43:08Z</time></trkpt><trkpt lat="45.05845330196593" lon="8.95609996125693"><ele>69.0</ele><time>2026-05-01T16:43:09Z</time></trkpt><trkpt lat="45.058664370137755" lon="8.95632645105929"><ele>69.0</ele><time>2026-05-01T16:43:10Z</time></trkpt><trkpt lat="45.058876371396394" lon="8.95655888928571"><ele>69.0</ele><time>2026-05-01T16:43:11Z</time></trkpt><trkpt lat="45.05908609701338" lon="8.95679275083597"><ele>69.0</ele><time>2026-05-01T16:43:12Z</time></trkpt><trkpt lat="45.05929506472338" lon="8.957024093004465"><ele>69.0</ele><time>2026-05-01T16:43:13Z</time></trkpt><trkpt lat="45.05950304323985" lon="8.957253879272324"><ele>69.0</ele><time>2026-05-01T16:43:14Z</time></trkpt><trkpt lat="45.05971004954025" lon="8.957482120838188"><ele>68.5</ele><time>2026-05-01T16:43:15Z</time></trkpt><trkpt lat="45.05992471480277" lon="8.957711387458247"><ele>68.0</ele><time>2026-05-01T16:43:16Z</time></trkpt><trkpt lat="45.06013657439276" lon="8.957940155776893"><ele>68.0</ele><time>2026-05-01T16:43:17Z</time></trkpt><trkpt lat="45.06034665160249" lon="8.958169425386801"><ele>68.0</ele><time>2026-05-01T16:43:18Z</time></trkpt><trkpt lat="45.06055915586238" lon="8.958400940189577"><ele>68.5</ele><time>2026-05-01T16:43:19Z</time></trkpt><trkpt lat="45.06077038374875" lon="8.958631337753156"><ele>69.0</ele><time>2026-05-01T16:43:20Z</time></trkpt><trkpt lat="45.06098214605759" lon="8.958861213690765"><ele>69.0</ele><time>2026-05-01T16:43:21Z</time></trkpt><trkpt lat="45.061191494843044" lon="8.959088266609111"><ele>69.0</ele><time>2026-05-01T16:43:22Z</time></trkpt><trkpt lat="45.06140098970832" lon="8.95931817508309"><ele>69.0</ele><time>2026-05-01T16:43:23Z</time></trkpt><trkpt lat="45.06161133379416" lon="8.959548824778912"><ele>69.0</ele><time>2026-05-01T16:43:24Z</time></trkpt><trkpt lat="45.0618187186799" lon="8.959777994153011"><ele>69.0</ele><time>2026-05-01T16:43:25Z</time></trkpt><trkpt lat="45.06203295971685" lon="8.96001136203263"><ele>69.0</ele><time>2026-05-01T16:43:26Z</time></trkpt><trkpt lat="45.06224219722615" lon="8.960244374257407"><ele>68.5</ele><time>2026-05-01T16:43:27Z</time></trkpt><trkpt lat="45.06245227779906" lon="8.960473791942313"><ele>68.0</ele><time>2026-05-01T16:43:28Z</time></trkpt><trkpt lat="45.06265964544653" lon="8.960704464419793"><ele>67.5</ele><time>2026-05-01T16:43:29Z</time></trkpt><trkpt lat="45.06287540484905" lon="8.960928945930501"><ele>67.0</ele><time>2026-05-01T16:43:30Z</time></trkpt><trkpt lat="45.063080505161466" lon="8.961159028214107"><ele>67.0</ele><time>2026-05-01T16:43:31Z</time></trkpt><trkpt lat="45.06327608484129" lon="8.961383932067758"><ele>67.0</ele><time>2026-05-01T16:43:32Z</time></trkpt><trkpt lat="45.063459604365946" lon="8.961584438607845"><ele>67.33333333333333</ele><time>2026-05-01T16:43:33Z</time></trkpt><trkpt lat="45.063633358199" lon="8.961774443741742"><ele>67.66666666666667</ele><time>2026-05-01T16:43:34Z</time></trkpt><trkpt lat="45.063797744360464" lon="8.961952768203158"><ele>68.0</ele><time>2026-05-01T16:43:35Z</time></trkpt><trkpt lat="45.063968413702696" lon="8.962148371001259"><ele>68.33333333333334</ele><time>2026-05-01T16:43:36Z</time></trkpt><trkpt lat="45.06414056090767" lon="8.96233292526588"><ele>68.66666666666667</ele><time>2026-05-01T16:43:37Z</time></trkpt><trkpt lat="45.06430655352632" lon="8.962508250712375"><ele>69.0</ele><time>2026-05-01T16:43:38Z</time></trkpt><trkpt lat="45.06446204240796" lon="8.962674753780414"><ele>69.0</ele><time>2026-05-01T16:43:39Z</time></trkpt><trkpt lat="45.06461656941455" lon="8.96284186274366"><ele>69.0</ele><time>2026-05-01T16:43:40Z</time></trkpt><trkpt lat="45.06476865663075" lon="8.963004836109825"><ele>69.0</ele><time>2026-05-01T16:43:41Z</time></trkpt><trkpt lat="45.06492014638627" lon="8.96317359684339"><ele>69.0</ele><time>2026-05-01T16:43:42Z</time></trkpt><trkpt lat="45.06507062905083" lon="8.963338416549982"><ele>69.0</ele><time>2026-05-01T16:43:43Z</time></trkpt><trkpt lat="45.06522271614331" lon="8.963505790825534"><ele>69.0</ele><time>2026-05-01T16:43:44Z</time></trkpt><trkpt lat="45.06537506466812" lon="8.963668187305002"><ele>69.0</ele><time>2026-05-01T16:43:45Z</time></trkpt><trkpt lat="45.065528315752395" lon="8.963836211207441"><ele>69.0</ele><time>2026-05-01T16:43:46Z</time></trkpt><trkpt lat="45.06568429262872" lon="8.96400685892315"><ele>69.0</ele><time>2026-05-01T16:43:47Z</time></trkpt><trkpt lat="45.06583959646606" lon="8.964177980443493"><ele>69.33333333333333</ele><time>2026-05-01T16:43:48Z</time></trkpt><trkpt lat="45.065991420029235" lon="8.964347429324583"><ele>69.66666666666666</ele><time>2026-05-01T16:43:49Z</time></trkpt><trkpt lat="45.066150413340175" lon="8.964521010325416"><ele>70.0</ele><time>2026-05-01T16:43:50Z</time></trkpt><trkpt lat="45.06631400160592" lon="8.9647028287695"><ele>70.0</ele><time>2026-05-01T16:43:51Z</time></trkpt><trkpt lat="45.06648022225491" lon="8.964884524923777"><ele>70.0</ele><time>2026-05-01T16:43:52Z</time></trkpt><trkpt lat="45.06665374275846" lon="8.96507219837087"><ele>70.0</ele><time>2026-05-01T16:43:53Z</time></trkpt><trkpt lat="45.066826667257054" lon="8.965261973461887"><ele>69.66666666666666</ele><time>2026-05-01T16:43:54Z</time></trkpt><trkpt lat="45.06700162710817" lon="8.965452166451982"><ele>69.33333333333333</ele><time>2026-05-01T16:43:55Z</time></trkpt><trkpt lat="45.067184652415854" lon="8.965641967264604"><ele>69.0</ele><time>2026-05-01T16:43:56Z</time></trkpt><trkpt lat="45.06735546109436" lon="8.965834574301827"><ele>69.0</ele><time>2026-05-01T16:43:57Z</time></trkpt><trkpt lat="45.067528769034176" lon="8.966028717947848"><ele>69.0</ele><time>2026-05-01T16:43:58Z</time></trkpt><trkpt lat="45.06769291418022" lon="8.966207230437051"><ele>69.0</ele><time>2026-05-01T16:43:59Z</time></trkpt><trkpt lat="45.06786707002464" lon="8.96639625497852"><ele>69.0</ele><time>2026-05-01T16:44:00Z</time></trkpt><trkpt lat="45.068043945104826" lon="8.966588611771495"><ele>69.0</ele><time>2026-05-01T16:44:01Z</time></trkpt><trkpt lat="45.06821934630222" lon="8.966780740660646"><ele>69.0</ele><time>2026-05-01T16:44:02Z</time></trkpt><trkpt lat="45.06839912784174" lon="8.966972919869574"><ele>68.0</ele><time>2026-05-01T16:44:03Z</time></trkpt><trkpt lat="45.0685822528998" lon="8.967176241767266"><ele>67.0</ele><time>2026-05-01T16:44:04Z</time></trkpt><trkpt lat="45.06876169395208" lon="8.967370746406553"><ele>68.0</ele><time>2026-05-01T16:44:05Z</time></trkpt><trkpt lat="45.068940913475494" lon="8.96757210511581"><ele>69.0</ele><time>2026-05-01T16:44:06Z</time></trkpt><trkpt lat="45.06912252441508" lon="8.967768521778462"><ele>69.0</ele><time>2026-05-01T16:44:07Z</time></trkpt><trkpt lat="45.069304815095414" lon="8.967970950887754"><ele>69.0</ele><time>2026-05-01T16:44:08Z</time></trkpt><trkpt lat="45.06948531391165" lon="8.968169716971826"><ele>69.5</ele><time>2026-05-01T16:44:09Z</time></trkpt><trkpt lat="45.06966745035841" lon="8.96836412541356"><ele>70.0</ele><time>2026-05-01T16:44:10Z</time></trkpt><trkpt lat="45.06984440048405" lon="8.968562661550047"><ele>69.5</ele><time>2026-05-01T16:44:11Z</time></trkpt><trkpt lat="45.07002535642708" lon="8.96875804147292"><ele>69.0</ele><time>2026-05-01T16:44:12Z</time></trkpt><trkpt lat="45.070204760275615" lon="8.96895542172988"><ele>69.0</ele><time>2026-05-01T16:44:13Z</time></trkpt><trkpt lat="45.07038221716982" lon="8.969150732754095"><ele>69.0</ele><time>2026-05-01T16:44:14Z</time></trkpt><trkpt lat="45.070556521259206" lon="8.969339872001271"><ele>69.0</ele><time>2026-05-01T16:44:15Z</time></trkpt><trkpt lat="45.070730550276075" lon="8.969529244060542"><ele>69.0</ele><time>2026-05-01T16:44:16Z</time></trkpt><trkpt lat="45.070910437638176" lon="8.96972531757199"><ele>69.0</ele><time>2026-05-01T16:44:17Z</time></trkpt><trkpt lat="45.07108788518533" lon="8.969920634239552"><ele>68.0</ele><time>2026-05-01T16:44:18Z</time></trkpt><trkpt lat="45.071272091782205" lon="8.970123053949875"><ele>67.0</ele><time>2026-05-01T16:44:19Z</time></trkpt><trkpt lat="45.07146127094372" lon="8.970331097667993"><ele>67.5</ele><time>2026-05-01T16:44:20Z</time></trkpt><trkpt lat="45.071640626761116" lon="8.970525058199645"><ele>68.0</ele><time>2026-05-01T16:44:21Z</time></trkpt><trkpt lat="45.071828083428905" lon="8.970730642130313"><ele>69.0</ele><time>2026-05-01T16:44:22Z</time></trkpt><trkpt lat="45.07201412264994" lon="8.970929926493675"><ele>70.0</ele><time>2026-05-01T16:44:23Z</time></trkpt><trkpt lat="45.0722020179394" lon="8.97113810437484"><ele>70.0</ele><time>2026-05-01T16:44:24Z</time></trkpt><trkpt lat="45.072389394457254" lon="8.97134740017153"><ele>70.0</ele><time>2026-05-01T16:44:25Z</time></trkpt><trkpt lat="45.07258247532038" lon="8.971552069965878"><ele>69.5</ele><time>2026-05-01T16:44:26Z</time></trkpt><trkpt lat="45.07277767014741" lon="8.97176397986886"><ele>69.0</ele><time>2026-05-01T16:44:27Z</time></trkpt><trkpt lat="45.072977409490754" lon="8.971974266107281"><ele>69.0</ele><time>2026-05-01T16:44:28Z</time></trkpt><trkpt lat="45.073184655337066" lon="8.972186561032583"><ele>69.0</ele><time>2026-05-01T16:44:29Z</time></trkpt><trkpt lat="45.073395168702845" lon="8.972385039975233"><ele>68.5</ele><time>2026-05-01T16:44:30Z</time></trkpt><trkpt lat="45.07361147180741" lon="8.972568061337064"><ele>68.0</ele><time>2026-05-01T16:44:31Z</time></trkpt><trkpt lat="45.07383591714974" lon="8.972749500226604"><ele>68.0</ele><time>2026-05-01T16:44:32Z</time></trkpt><trkpt lat="45.07406341950389" lon="8.97291379630114"><ele>68.0</ele><time>2026-05-01T16:44:33Z</time></trkpt><trkpt lat="45.07429795904493" lon="8.973073017844731"><ele>67.5</ele><time>2026-05-01T16:44:34Z</time></trkpt><trkpt lat="45.074540927065094" lon="8.973219412093165"><ele>67.0</ele><time>2026-05-01T16:44:35Z</time></trkpt><trkpt lat="45.07478219747193" lon="8.973360129460485"><ele>67.0</ele><time>2026-05-01T16:44:36Z</time></trkpt><trkpt lat="45.07502592765881" lon="8.973494075355445"><ele>67.0</ele><time>2026-05-01T16:44:37Z</time></trkpt><trkpt lat="45.07526932131432" lon="8.973612193560177"><ele>67.0</ele><time>2026-05-01T16:44:38Z</time></trkpt><trkpt lat="45.07552324541745" lon="8.973713897655992"><ele>67.0</ele><time>2026-05-01T16:44:39Z</time></trkpt><trkpt lat="45.07577753643301" lon="8.973807262892445"><ele>67.5</ele><time>2026-05-01T16:44:40Z</time></trkpt><trkpt lat="45.076036956410285" lon="8.973886414578343"><ele>68.0</ele><time>2026-05-01T16:44:41Z</time></trkpt><trkpt lat="45.07629807163276" lon="8.973952944995753"><ele>68.0</ele><time>2026-05-01T16:44:42Z</time></trkpt><trkpt lat="45.07656069142954" lon="8.974010897679403"><ele>68.0</ele><time>2026-05-01T16:44:43Z</time></trkpt><trkpt lat="45.07682670748615" lon="8.9740543773107"><ele>68.5</ele><time>2026-05-01T16:44:44Z</time></trkpt><trkpt lat="45.0770950598814" lon="8.974085383693692"><ele>69.0</ele><time>2026-05-01T16:44:45Z</time></trkpt><trkpt lat="45.07736358376118" lon="8.974107932392773"><ele>69.0</ele><time>2026-05-01T16:44:46Z</time></trkpt><trkpt lat="45.07763710136748" lon="8.974116935668969"><ele>69.0</ele><time>2026-05-01T16:44:47Z</time></trkpt><trkpt lat="45.07791193481409" lon="8.974108863725212"><ele>69.0</ele><time>2026-05-01T16:44:48Z</time></trkpt><trkpt lat="45.07819059887961" lon="8.974086809479994"><ele>69.0</ele><time>2026-05-01T16:44:49Z</time></trkpt><trkpt lat="45.07846696620744" lon="8.974056116199417"><ele>69.5</ele><time>2026-05-01T16:44:50Z</time></trkpt><trkpt lat="45.07874556115968" lon="8.974011180466805"><ele>70.0</ele><time>2026-05-01T16:44:51Z</time></trkpt><trkpt lat="45.07902355200775" lon="8.973946578245082"><ele>70.0</ele><time>2026-05-01T16:44:52Z</time></trkpt><trkpt lat="45.07930201602677" lon="8.973867550529416"><ele>70.0</ele><time>2026-05-01T16:44:53Z</time></trkpt><trkpt lat="45.07957304545685" lon="8.973776974314527"><ele>70.0</ele><time>2026-05-01T16:44:54Z</time></trkpt><trkpt lat="45.07984286500983" lon="8.973678988574296"><ele>70.0</ele><time>2026-05-01T16:44:55Z</time></trkpt><trkpt lat="45.08010694497337" lon="8.973571892583399"><ele>70.0</ele><time>2026-05-01T16:44:56Z</time></trkpt><trkpt lat="45.08037122082845" lon="8.973455840677481"><ele>70.0</ele><time>2026-05-01T16:44:57Z</time></trkpt><trkpt lat="45.08063895192861" lon="8.973337464735954"><ele>67.5</ele><time>2026-05-01T16:44:58Z</time></trkpt><trkpt lat="45.08090501257312" lon="8.973225687101472"><ele>65.0</ele><time>2026-05-01T16:44:59Z</time></trkpt><trkpt lat="45.08117034934182" lon="8.97311549986094"><ele>65.0</ele><time>2026-05-01T16:45:00Z</time></trkpt><trkpt lat="45.0814384115833" lon="8.973001549702508"><ele>65.0</ele><time>2026-05-01T16:45:01Z</time></trkpt><trkpt lat="45.081706094904916" lon="8.972887372826365"><ele>64.0</ele><time>2026-05-01T16:45:02Z</time></trkpt><trkpt lat="45.08197125111756" lon="8.972775557735675"><ele>63.0</ele><time>2026-05-01T16:45:03Z</time></trkpt><trkpt lat="45.082230651832305" lon="8.972661643792408"><ele>63.0</ele><time>2026-05-01T16:45:04Z</time></trkpt><trkpt lat="45.08249989724082" lon="8.972545586555142"><ele>63.0</ele><time>2026-05-01T16:45:05Z</time></trkpt><trkpt lat="45.08276976012057" lon="8.97243419754959"><ele>63.0</ele><time>2026-05-01T16:45:06Z</time></trkpt><trkpt lat="45.083038658185046" lon="8.972322734399885"><ele>63.0</ele><time>2026-05-01T16:45:07Z</time></trkpt><trkpt lat="45.083305872258286" lon="8.972209904296468"><ele>62.5</ele><time>2026-05-01T16:45:08Z</time></trkpt><trkpt lat="45.0835738694559" lon="8.972098113398074"><ele>62.0</ele><time>2026-05-01T16:45:09Z</time></trkpt><trkpt lat="45.0838431525282" lon="8.97198321670245"><ele>61.5</ele><time>2026-05-01T16:45:10Z</time></trkpt><trkpt lat="45.084112669120884" lon="8.971874634110648"><ele>61.0</ele><time>2026-05-01T16:45:11Z</time></trkpt><trkpt lat="45.084377634537255" lon="8.971761068414487"><ele>62.5</ele><time>2026-05-01T16:45:12Z</time></trkpt><trkpt lat="45.08464448553543" lon="8.97165008880529"><ele>64.0</ele><time>2026-05-01T16:45:13Z</time></trkpt><trkpt lat="45.08491258638769" lon="8.971542342609958"><ele>65.5</ele><time>2026-05-01T16:45:14Z</time></trkpt><trkpt lat="45.085179510549395" lon="8.971427612948695"><ele>67.0</ele><time>2026-05-01T16:45:15Z</time></trkpt><trkpt lat="45.08544419771181" lon="8.97131530856584"><ele>67.0</ele><time>2026-05-01T16:45:16Z</time></trkpt><trkpt lat="45.08571532706364" lon="8.97120222070485"><ele>67.0</ele><time>2026-05-01T16:45:17Z</time></trkpt><trkpt lat="45.085981027603886" lon="8.971092763989923"><ele>65.5</ele><time>2026-05-01T16:45:18Z</time></trkpt><trkpt lat="45.086250020395546" lon="8.97097977080286"><ele>64.0</ele><time>2026-05-01T16:45:19Z</time></trkpt><trkpt lat="45.08651760155002" lon="8.970870312910137"><ele>66.0</ele><time>2026-05-01T16:45:20Z</time></trkpt><trkpt lat="45.08678443204164" lon="8.970757186815135"><ele>68.0</ele><time>2026-05-01T16:45:21Z</time></trkpt><trkpt lat="45.0870506624729" lon="8.970648956005238"><ele>68.0</ele><time>2026-05-01T16:45:22Z</time></trkpt><trkpt lat="45.08731803095205" lon="8.970536756518042"><ele>68.0</ele><time>2026-05-01T16:45:23Z</time></trkpt><trkpt lat="45.087586551760516" lon="8.970424138918895"><ele>67.5</ele><time>2026-05-01T16:45:24Z</time></trkpt><trkpt lat="45.08785761034307" lon="8.970310340691922"><ele>67.0</ele><time>2026-05-01T16:45:25Z</time></trkpt><trkpt lat="45.08812807019898" lon="8.970195808151948"><ele>68.0</ele><time>2026-05-01T16:45:26Z</time></trkpt><trkpt lat="45.088402044881896" lon="8.970081949750696"><ele>69.0</ele><time>2026-05-01T16:45:27Z</time></trkpt><trkpt lat="45.08866943335896" lon="8.969970498510872"><ele>68.5</ele><time>2026-05-01T16:45:28Z</time></trkpt><trkpt lat="45.08893846181419" lon="8.969860399689818"><ele>68.0</ele><time>2026-05-01T16:45:29Z</time></trkpt><trkpt lat="45.08920733925396" lon="8.969751438823758"><ele>68.0</ele><time>2026-05-01T16:45:30Z</time></trkpt><trkpt lat="45.08947769002217" lon="8.96964089488685"><ele>68.0</ele><time>2026-05-01T16:45:31Z</time></trkpt><trkpt lat="45.089747516563" lon="8.969533444988745"><ele>68.0</ele><time>2026-05-01T16:45:32Z</time></trkpt><trkpt lat="45.09001766243552" lon="8.969427339165406"><ele>68.0</ele><time>2026-05-01T16:45:33Z</time></trkpt><trkpt lat="45.09028932291864" lon="8.96932036204485"><ele>68.0</ele><time>2026-05-01T16:45:34Z</time></trkpt><trkpt lat="45.090558564441764" lon="8.96922515619687"><ele>68.0</ele><time>2026-05-01T16:45:35Z</time></trkpt><trkpt lat="45.09083257102099" lon="8.969130734789927"><ele>68.0</ele><time>2026-05-01T16:45:36Z</time></trkpt><trkpt lat="45.0911073997533" lon="8.969043104345237"><ele>68.0</ele><time>2026-05-01T16:45:37Z</time></trkpt><trkpt lat="45.09138313730959" lon="8.96896541772149"><ele>68.5</ele><time>2026-05-01T16:45:38Z</time></trkpt><trkpt lat="45.09165734971793" lon="8.968895611381853"><ele>69.0</ele><time>2026-05-01T16:45:39Z</time></trkpt><trkpt lat="45.091932579691935" lon="8.968833950449284"><ele>69.0</ele><time>2026-05-01T16:45:40Z</time></trkpt><trkpt lat="45.09220836319337" lon="8.968783404627283"><ele>69.0</ele><time>2026-05-01T16:45:41Z</time></trkpt><trkpt lat="45.092486078647006" lon="8.968739231899459"><ele>68.5</ele><time>2026-05-01T16:45:42Z</time></trkpt><trkpt lat="45.09276323648246" lon="8.968697906922708"><ele>68.0</ele><time>2026-05-01T16:45:43Z</time></trkpt><trkpt lat="45.09304591545665" lon="8.96866547641823"><ele>67.0</ele><time>2026-05-01T16:45:44Z</time></trkpt><trkpt lat="45.0933253930429" lon="8.968641205649746"><ele>66.0</ele><time>2026-05-01T16:45:45Z</time></trkpt><trkpt lat="45.09360202919437" lon="8.968630610471948"><ele>66.0</ele><time>2026-05-01T16:45:46Z</time></trkpt><trkpt lat="45.09388740331087" lon="8.968624064404011"><ele>66.0</ele><time>2026-05-01T16:45:47Z</time></trkpt><trkpt lat="45.0941817457387" lon="8.968632028790852"><ele>66.0</ele><time>2026-05-01T16:45:48Z</time></trkpt><trkpt lat="45.09448640043191" lon="8.968639594595352"><ele>66.0</ele><time>2026-05-01T16:45:49Z</time></trkpt><trkpt lat="45.09479277945329" lon="8.968660495001291"><ele>66.5</ele><time>2026-05-01T16:45:50Z</time></trkpt><trkpt lat="45.09509916850216" lon="8.9687016839266"><ele>67.0</ele><time>2026-05-01T16:45:51Z</time></trkpt><trkpt lat="45.095412968757586" lon="8.96876660539599"><ele>67.0</ele><time>2026-05-01T16:45:52Z</time></trkpt><trkpt lat="45.095727469124384" lon="8.968845816846486"><ele>67.0</ele><time>2026-05-01T16:45:53Z</time></trkpt><trkpt lat="45.09604915429787" lon="8.9689249328085"><ele>67.0</ele><time>2026-05-01T16:45:54Z</time></trkpt><trkpt lat="45.096365091637416" lon="8.96899701157083"><ele>67.0</ele><time>2026-05-01T16:45:55Z</time></trkpt><trkpt lat="45.096673579359695" lon="8.969089594187361"><ele>67.0</ele><time>2026-05-01T16:45:56Z</time></trkpt><trkpt lat="45.096976039158804" lon="8.96917755807933"><ele>67.0</ele><time>2026-05-01T16:45:57Z</time></trkpt><trkpt lat="45.09725118535962" lon="8.969264423787978"><ele>66.5</ele><time>2026-05-01T16:45:58Z</time></trkpt><trkpt lat="45.09751366186418" lon="8.969358830513428"><ele>66.0</ele><time>2026-05-01T16:45:59Z</time></trkpt><trkpt lat="45.09777800157522" lon="8.969459008703003"><ele>66.0</ele><time>2026-05-01T16:46:00Z</time></trkpt><trkpt lat="45.0980448757936" lon="8.969582817639632"><ele>66.0</ele><time>2026-05-01T16:46:01Z</time></trkpt><trkpt lat="45.09831163288475" lon="8.969713295123503"><ele>66.0</ele><time>2026-05-01T16:46:02Z</time></trkpt><trkpt lat="45.09857811093396" lon="8.969836808816778"><ele>66.0</ele><time>2026-05-01T16:46:03Z</time></trkpt><trkpt lat="45.098840327774376" lon="8.96995873851329"><ele>65.5</ele><time>2026-05-01T16:46:04Z</time></trkpt><trkpt lat="45.09910810354212" lon="8.970076188213708"><ele>65.0</ele><time>2026-05-01T16:46:05Z</time></trkpt><trkpt lat="45.099379788981324" lon="8.970191929549024"><ele>65.0</ele><time>2026-05-01T16:46:06Z</time></trkpt><trkpt lat="45.099646336930434" lon="8.970305957697644"><ele>65.0</ele><time>2026-05-01T16:46:07Z</time></trkpt><trkpt lat="45.09991895908626" lon="8.97042045686822"><ele>65.5</ele><time>2026-05-01T16:46:08Z</time></trkpt><trkpt lat="45.10018382445442" lon="8.970528496372284"><ele>66.0</ele><time>2026-05-01T16:46:09Z</time></trkpt><trkpt lat="45.10045141522151" lon="8.970647065398696"><ele>66.0</ele><time>2026-05-01T16:46:10Z</time></trkpt><trkpt lat="45.10071850044208" lon="8.970766927308002"><ele>66.0</ele><time>2026-05-01T16:46:11Z</time></trkpt><trkpt lat="45.1009853744249" lon="8.97088525138415"><ele>66.0</ele><time>2026-05-01T16:46:12Z</time></trkpt><trkpt lat="45.10125289806415" lon="8.971004056920568"><ele>66.0</ele><time>2026-05-01T16:46:13Z</time></trkpt><trkpt lat="45.10151791492872" lon="8.971123019699903"><ele>66.0</ele><time>2026-05-01T16:46:14Z</time></trkpt><trkpt lat="45.10178213306743" lon="8.971240780050932"><ele>66.0</ele><time>2026-05-01T16:46:15Z</time></trkpt><trkpt lat="45.102047509365406" lon="8.971357140834922"><ele>66.0</ele><time>2026-05-01T16:46:16Z</time></trkpt><trkpt lat="45.10231499558587" lon="8.971471914393268"><ele>66.0</ele><time>2026-05-01T16:46:17Z</time></trkpt><trkpt lat="45.102583297497226" lon="8.971590870044894"><ele>66.5</ele><time>2026-05-01T16:46:18Z</time></trkpt><trkpt lat="45.102850779442335" lon="8.971706959349177"><ele>67.0</ele><time>2026-05-01T16:46:19Z</time></trkpt><trkpt lat="45.103120142550104" lon="8.971825589720275"><ele>67.5</ele><time>2026-05-01T16:46:20Z</time></trkpt><trkpt lat="45.103385594987074" lon="8.971946225453632"><ele>68.0</ele><time>2026-05-01T16:46:21Z</time></trkpt><trkpt lat="45.103653317268765" lon="8.97205925611426"><ele>68.0</ele><time>2026-05-01T16:46:22Z</time></trkpt><trkpt lat="45.10392058835359" lon="8.97216971793501"><ele>68.0</ele><time>2026-05-01T16:46:23Z</time></trkpt><trkpt lat="45.10418840210281" lon="8.972287299143018"><ele>66.5</ele><time>2026-05-01T16:46:24Z</time></trkpt><trkpt lat="45.10445314127778" lon="8.972402398658083"><ele>65.0</ele><time>2026-05-01T16:46:25Z</time></trkpt><trkpt lat="45.10471992490794" lon="8.972519430184683"><ele>65.5</ele><time>2026-05-01T16:46:26Z</time></trkpt><trkpt lat="45.10498638743063" lon="8.972635484120122"><ele>66.0</ele><time>2026-05-01T16:46:27Z</time></trkpt><trkpt lat="45.1052540242499" lon="8.97275180791206"><ele>66.0</ele><time>2026-05-01T16:46:28Z</time></trkpt><trkpt lat="45.105521154899456" lon="8.97286863641379"><ele>66.0</ele><time>2026-05-01T16:46:29Z</time></trkpt><trkpt lat="45.105790305090416" lon="8.97298557465812"><ele>65.5</ele><time>2026-05-01T16:46:30Z</time></trkpt><trkpt lat="45.10605730151702" lon="8.973104919515853"><ele>65.0</ele><time>2026-05-01T16:46:31Z</time></trkpt><trkpt lat="45.10632096226738" lon="8.973222197140919"><ele>65.0</ele><time>2026-05-01T16:46:32Z</time></trkpt><trkpt lat="45.10658798322181" lon="8.973340127191157"><ele>65.0</ele><time>2026-05-01T16:46:33Z</time></trkpt><trkpt lat="45.10685493689113" lon="8.973456964665749"><ele>65.5</ele><time>2026-05-01T16:46:34Z</time></trkpt><trkpt lat="45.10712391693867" lon="8.973571517863215"><ele>66.0</ele><time>2026-05-01T16:46:35Z</time></trkpt><trkpt lat="45.107388667963" lon="8.973685103720307"><ele>65.5</ele><time>2026-05-01T16:46:36Z</time></trkpt><trkpt lat="45.10765768633594" lon="8.973795205085455"><ele>65.0</ele><time>2026-05-01T16:46:37Z</time></trkpt><trkpt lat="45.10792422075287" lon="8.973901265133817"><ele>65.0</ele><time>2026-05-01T16:46:38Z</time></trkpt><trkpt lat="45.10819199490936" lon="8.974010171165512"><ele>65.0</ele><time>2026-05-01T16:46:39Z</time></trkpt><trkpt lat="45.1084602886332" lon="8.974114581906925"><ele>65.0</ele><time>2026-05-01T16:46:40Z</time></trkpt><trkpt lat="45.10873320300141" lon="8.974224174867583"><ele>65.0</ele><time>2026-05-01T16:46:41Z</time></trkpt><trkpt lat="45.10900159188337" lon="8.97434145796728"><ele>65.5</ele><time>2026-05-01T16:46:42Z</time></trkpt><trkpt lat="45.10926965607636" lon="8.974459181920684"><ele>66.0</ele><time>2026-05-01T16:46:43Z</time></trkpt><trkpt lat="45.10953572498062" lon="8.97457834759777"><ele>66.0</ele><time>2026-05-01T16:46:44Z</time></trkpt><trkpt lat="45.10979896765355" lon="8.974699815296981"><ele>66.0</ele><time>2026-05-01T16:46:45Z</time></trkpt><trkpt lat="45.11006679279366" lon="8.974817256653138"><ele>67.0</ele><time>2026-05-01T16:46:46Z</time></trkpt><trkpt lat="45.11033330703697" lon="8.974933359765057"><ele>68.0</ele><time>2026-05-01T16:46:47Z</time></trkpt><trkpt lat="45.11060292055297" lon="8.975049152288316"><ele>70.0</ele><time>2026-05-01T16:46:48Z</time></trkpt><trkpt lat="45.110871695232994" lon="8.975162071892814"><ele>72.0</ele><time>2026-05-01T16:46:49Z</time></trkpt><trkpt lat="45.11114130070876" lon="8.97526969702212"><ele>72.0</ele><time>2026-05-01T16:46:50Z</time></trkpt><trkpt lat="45.111411872154" lon="8.975373495612688"><ele>72.0</ele><time>2026-05-01T16:46:51Z</time></trkpt><trkpt lat="45.1116818926087" lon="8.975467057511457"><ele>70.5</ele><time>2026-05-01T16:46:52Z</time></trkpt><trkpt lat="45.11195473112292" lon="8.975549901381767"><ele>69.0</ele><time>2026-05-01T16:46:53Z</time></trkpt><trkpt lat="45.11223484399017" lon="8.975616974481193"><ele>68.5</ele><time>2026-05-01T16:46:54Z</time></trkpt><trkpt lat="45.1125121102351" lon="8.975679056038368"><ele>68.0</ele><time>2026-05-01T16:46:55Z</time></trkpt><trkpt lat="45.112791372915154" lon="8.975735199843308"><ele>68.0</ele><time>2026-05-01T16:46:56Z</time></trkpt><trkpt lat="45.113075018668624" lon="8.975780663431534"><ele>68.0</ele><time>2026-05-01T16:46:57Z</time></trkpt><trkpt lat="45.11338653909661" lon="8.97582632056982"><ele>67.5</ele><time>2026-05-01T16:46:58Z</time></trkpt><trkpt lat="45.11371829161001" lon="8.97588630378085"><ele>67.0</ele><time>2026-05-01T16:46:59Z</time></trkpt><trkpt lat="45.114059342688826" lon="8.975958296632356"><ele>69.0</ele><time>2026-05-01T16:47:00Z</time></trkpt><trkpt lat="45.114421401664885" lon="8.97602849449094"><ele>71.0</ele><time>2026-05-01T16:47:01Z</time></trkpt><trkpt lat="45.11478282002713" lon="8.976114216275194"><ele>73.5</ele><time>2026-05-01T16:47:02Z</time></trkpt><trkpt lat="45.11514392186703" lon="8.97618756715011"><ele>76.0</ele><time>2026-05-01T16:47:03Z</time></trkpt><trkpt lat="45.11550883925876" lon="8.976253049698077"><ele>76.5</ele><time>2026-05-01T16:47:04Z</time></trkpt><trkpt lat="45.115873519305154" lon="8.976322615807234"><ele>77.0</ele><time>2026-05-01T16:47:05Z</time></trkpt><trkpt lat="45.11623920019252" lon="8.976387390623973"><ele>76.5</ele><time>2026-05-01T16:47:06Z</time></trkpt><trkpt lat="45.11660087483655" lon="8.976452124387896"><ele>76.0</ele><time>2026-05-01T16:47:07Z</time></trkpt><trkpt lat="45.11696628331924" lon="8.97651338845771"><ele>76.0</ele><time>2026-05-01T16:47:08Z</time></trkpt><trkpt lat="45.11732699200527" lon="8.976582063535085"><ele>76.0</ele><time>2026-05-01T16:47:09Z</time></trkpt><trkpt lat="45.11768674773554" lon="8.976649518827754"><ele>77.5</ele><time>2026-05-01T16:47:10Z</time></trkpt><trkpt lat="45.11803955450101" lon="8.976722327101518"><ele>79.0</ele><time>2026-05-01T16:47:11Z</time></trkpt><trkpt lat="45.1183968921496" lon="8.976784749216078"><ele>79.0</ele><time>2026-05-01T16:47:12Z</time></trkpt><trkpt lat="45.1187488868125" lon="8.976857876887792"><ele>79.0</ele><time>2026-05-01T16:47:13Z</time></trkpt><trkpt lat="45.11909697349395" lon="8.976925944817669"><ele>77.0</ele><time>2026-05-01T16:47:14Z</time></trkpt><trkpt lat="45.11944593913653" lon="8.97699059839154"><ele>75.0</ele><time>2026-05-01T16:47:15Z</time></trkpt><trkpt lat="45.119793041683266" lon="8.977053316853638"><ele>73.5</ele><time>2026-05-01T16:47:16Z</time></trkpt><trkpt lat="45.12013802962001" lon="8.977114850265846"><ele>72.0</ele><time>2026-05-01T16:47:17Z</time></trkpt><trkpt lat="45.12048157600029" lon="8.977173080832053"><ele>71.5</ele><time>2026-05-01T16:47:18Z</time></trkpt><trkpt lat="45.1208223308165" lon="8.977231191418761"><ele>71.0</ele><time>2026-05-01T16:47:19Z</time></trkpt><trkpt lat="45.12116081939265" lon="8.97729163190443"><ele>71.0</ele><time>2026-05-01T16:47:20Z</time></trkpt><trkpt lat="45.12149542834304" lon="8.977352603576547"><ele>71.0</ele><time>2026-05-01T16:47:21Z</time></trkpt><trkpt lat="45.12183200128923" lon="8.977416906673078"><ele>71.0</ele><time>2026-05-01T16:47:22Z</time></trkpt><trkpt lat="45.12216634253352" lon="8.977482038940982"><ele>71.0</ele><time>2026-05-01T16:47:23Z</time></trkpt><trkpt lat="45.12250280882742" lon="8.977543559617128"><ele>71.0</ele><time>2026-05-01T16:47:24Z</time></trkpt><trkpt lat="45.12284165556849" lon="8.977605295571374"><ele>71.0</ele><time>2026-05-01T16:47:25Z</time></trkpt><trkpt lat="45.1231785546036" lon="8.977666223389415"><ele>73.0</ele><time>2026-05-01T16:47:26Z</time></trkpt><trkpt lat="45.12351463706308" lon="8.97772825747722"><ele>75.0</ele><time>2026-05-01T16:47:27Z</time></trkpt><trkpt lat="45.123849230034516" lon="8.977786746674715"><ele>76.5</ele><time>2026-05-01T16:47:28Z</time></trkpt><trkpt lat="45.12418450391999" lon="8.97784870340273"><ele>78.0</ele><time>2026-05-01T16:47:29Z</time></trkpt><trkpt lat="45.12451823915653" lon="8.977908349119737"><ele>78.0</ele><time>2026-05-01T16:47:30Z</time></trkpt><trkpt lat="45.12484834445029" lon="8.977970397376554"><ele>78.0</ele><time>2026-05-01T16:47:31Z</time></trkpt><trkpt lat="45.12517205535905" lon="8.978038623529024"><ele>78.0</ele><time>2026-05-01T16:47:32Z</time></trkpt><trkpt lat="45.12549239007002" lon="8.978116664101675"><ele>78.0</ele><time>2026-05-01T16:47:33Z</time></trkpt><trkpt lat="45.125812979128824" lon="8.978197409990788"><ele>79.0</ele><time>2026-05-01T16:47:34Z</time></trkpt><trkpt lat="45.126128654601125" lon="8.978292371123684"><ele>80.0</ele><time>2026-05-01T16:47:35Z</time></trkpt><trkpt lat="45.12644167782112" lon="8.978402877792503"><ele>79.5</ele><time>2026-05-01T16:47:36Z</time></trkpt><trkpt lat="45.12675990431005" lon="8.978529611909803"><ele>79.0</ele><time>2026-05-01T16:47:37Z</time></trkpt><trkpt lat="45.127063973070484" lon="8.978667521600347"><ele>79.0</ele><time>2026-05-01T16:47:38Z</time></trkpt><trkpt lat="45.12736888936953" lon="8.97881397394221"><ele>79.0</ele><time>2026-05-01T16:47:39Z</time></trkpt><trkpt lat="45.127679995472135" lon="8.978970968945655"><ele>79.0</ele><time>2026-05-01T16:47:40Z</time></trkpt><trkpt lat="45.12797628570375" lon="8.979143405228923"><ele>79.0</ele><time>2026-05-01T16:47:41Z</time></trkpt><trkpt lat="45.128267057223276" lon="8.979333124282743"><ele>79.0</ele><time>2026-05-01T16:47:42Z</time></trkpt><trkpt lat="45.128555661519016" lon="8.97952034527047"><ele>79.0</ele><time>2026-05-01T16:47:43Z</time></trkpt><trkpt lat="45.1288463278491" lon="8.979704530376635"><ele>79.5</ele><time>2026-05-01T16:47:44Z</time></trkpt><trkpt lat="45.12913766137944" lon="8.97988716056651"><ele>80.0</ele><time>2026-05-01T16:47:45Z</time></trkpt><trkpt lat="45.129427635035555" lon="8.980066027197608"><ele>80.0</ele><time>2026-05-01T16:47:46Z</time></trkpt><trkpt lat="45.12971651619603" lon="8.980244990385419"><ele>80.0</ele><time>2026-05-01T16:47:47Z</time></trkpt><trkpt lat="45.13000437395675" lon="8.980421379144632"><ele>80.0</ele><time>2026-05-01T16:47:48Z</time></trkpt><trkpt lat="45.130292063628055" lon="8.980596511263856"><ele>80.0</ele><time>2026-05-01T16:47:49Z</time></trkpt><trkpt lat="45.13057605699064" lon="8.980767816003235"><ele>82.0</ele><time>2026-05-01T16:47:50Z</time></trkpt><trkpt lat="45.13086340991455" lon="8.98094248385266"><ele>84.0</ele><time>2026-05-01T16:47:51Z</time></trkpt><trkpt lat="45.13114949836904" lon="8.981120677941803"><ele>84.0</ele><time>2026-05-01T16:47:52Z</time></trkpt><trkpt lat="45.131437743902254" lon="8.98128003936519"><ele>84.0</ele><time>2026-05-01T16:47:53Z</time></trkpt><trkpt lat="45.13172200290958" lon="8.98146597579734"><ele>83.5</ele><time>2026-05-01T16:47:54Z</time></trkpt><trkpt lat="45.13201062994548" lon="8.981650134502624"><ele>83.0</ele><time>2026-05-01T16:47:55Z</time></trkpt><trkpt lat="45.132296241290746" lon="8.981832434111155"><ele>82.5</ele><time>2026-05-01T16:47:56Z</time></trkpt><trkpt lat="45.13258142349365" lon="8.9820149609353"><ele>82.0</ele><time>2026-05-01T16:47:57Z</time></trkpt><trkpt lat="45.132867827931605" lon="8.982188940252534"><ele>82.0</ele><time>2026-05-01T16:47:58Z</time></trkpt><trkpt lat="45.133154205703214" lon="8.982363280377847"><ele>82.0</ele><time>2026-05-01T16:47:59Z</time></trkpt><trkpt lat="45.133441528935236" lon="8.982545057896223"><ele>81.0</ele><time>2026-05-01T16:48:00Z</time></trkpt><trkpt lat="45.13372960072674" lon="8.982724313230467"><ele>80.0</ele><time>2026-05-01T16:48:01Z</time></trkpt><trkpt lat="45.13401660494392" lon="8.982902645816829"><ele>80.5</ele><time>2026-05-01T16:48:02Z</time></trkpt><trkpt lat="45.13430270027712" lon="8.983079923784443"><ele>81.0</ele><time>2026-05-01T16:48:03Z</time></trkpt><trkpt lat="45.13459045258699" lon="8.983261351810153"><ele>82.0</ele><time>2026-05-01T16:48:04Z</time></trkpt><trkpt lat="45.13487354270085" lon="8.98343752581513"><ele>83.0</ele><time>2026-05-01T16:48:05Z</time></trkpt><trkpt lat="45.135158039185754" lon="8.983617692706416"><ele>83.0</ele><time>2026-05-01T16:48:06Z</time></trkpt><trkpt lat="45.13544377626122" lon="8.983790484848788"><ele>83.0</ele><time>2026-05-01T16:48:07Z</time></trkpt><trkpt lat="45.13573080900438" lon="8.983963684944843"><ele>82.5</ele><time>2026-05-01T16:48:08Z</time></trkpt><trkpt lat="45.13601337038659" lon="8.984139904788343"><ele>82.0</ele><time>2026-05-01T16:48:09Z</time></trkpt><trkpt lat="45.13628256378658" lon="8.984298034388464"><ele>82.0</ele><time>2026-05-01T16:48:10Z</time></trkpt><trkpt lat="45.1365317873415" lon="8.984455593390479"><ele>82.0</ele><time>2026-05-01T16:48:11Z</time></trkpt><trkpt lat="45.13678540772274" lon="8.9846148931713"><ele>82.0</ele><time>2026-05-01T16:48:12Z</time></trkpt><trkpt lat="45.13703854563222" lon="8.984771264663042"><ele>82.0</ele><time>2026-05-01T16:48:13Z</time></trkpt><trkpt lat="45.13729737212918" lon="8.984933838769166"><ele>83.0</ele><time>2026-05-01T16:48:14Z</time></trkpt><trkpt lat="45.13754891139182" lon="8.985091666818498"><ele>84.0</ele><time>2026-05-01T16:48:15Z</time></trkpt><trkpt lat="45.13780132518986" lon="8.985250195412018"><ele>84.0</ele><time>2026-05-01T16:48:16Z</time></trkpt><trkpt lat="45.138060283930336" lon="8.985409951389467"><ele>84.0</ele><time>2026-05-01T16:48:17Z</time></trkpt><trkpt lat="45.13832419128411" lon="8.985572102383834"><ele>83.5</ele><time>2026-05-01T16:48:18Z</time></trkpt><trkpt lat="45.138578307337724" lon="8.985729800853285"><ele>83.0</ele><time>2026-05-01T16:48:19Z</time></trkpt><trkpt lat="45.13883133352883" lon="8.985883622082948"><ele>83.0</ele><time>2026-05-01T16:48:20Z</time></trkpt><trkpt lat="45.139089590813896" lon="8.986033129392046"><ele>83.0</ele><time>2026-05-01T16:48:21Z</time></trkpt><trkpt lat="45.13934416792687" lon="8.986189377726923"><ele>83.0</ele><time>2026-05-01T16:48:22Z</time></trkpt><trkpt lat="45.13959937186972" lon="8.986344166719475"><ele>83.0</ele><time>2026-05-01T16:48:23Z</time></trkpt><trkpt lat="45.13985468126557" lon="8.98649938909687"><ele>83.0</ele><time>2026-05-01T16:48:24Z</time></trkpt><trkpt lat="45.14011192397297" lon="8.986655845132987"><ele>83.0</ele><time>2026-05-01T16:48:25Z</time></trkpt><trkpt lat="45.14036776072393" lon="8.9868164285557"><ele>83.0</ele><time>2026-05-01T16:48:26Z</time></trkpt><trkpt lat="45.1406250241207" lon="8.986976432965303"><ele>83.0</ele><time>2026-05-01T16:48:27Z</time></trkpt><trkpt lat="45.14087914394622" lon="8.987136747550895"><ele>83.0</ele><time>2026-05-01T16:48:28Z</time></trkpt><trkpt lat="45.141133195819286" lon="8.987295651268997"><ele>83.0</ele><time>2026-05-01T16:48:29Z</time></trkpt><trkpt lat="45.14138787105143" lon="8.987455829923373"><ele>83.5</ele><time>2026-05-01T16:48:30Z</time></trkpt><trkpt lat="45.141643813608916" lon="8.987614501666044"><ele>84.0</ele><time>2026-05-01T16:48:31Z</time></trkpt><trkpt lat="45.14189680502031" lon="8.98777210522723"><ele>84.0</ele><time>2026-05-01T16:48:32Z</time></trkpt><trkpt lat="45.14215288901891" lon="8.98793146696268"><ele>84.0</ele><time>2026-05-01T16:48:33Z</time></trkpt><trkpt lat="45.14241340313834" lon="8.98809149486741"><ele>84.5</ele><time>2026-05-01T16:48:34Z</time></trkpt><trkpt lat="45.14266928730814" lon="8.988250463454968"><ele>85.0</ele><time>2026-05-01T16:48:35Z</time></trkpt><trkpt lat="45.142925303425436" lon="8.988404239617388"><ele>85.0</ele><time>2026-05-01T16:48:36Z</time></trkpt><trkpt lat="45.14317656255687" lon="8.988563294000175"><ele>85.0</ele><time>2026-05-01T16:48:37Z</time></trkpt><trkpt lat="45.14343125157837" lon="8.988722336875993"><ele>84.5</ele><time>2026-05-01T16:48:38Z</time></trkpt><trkpt lat="45.14368705223793" lon="8.988879973059763"><ele>84.0</ele><time>2026-05-01T16:48:39Z</time></trkpt><trkpt lat="45.14394777421434" lon="8.989035558231677"><ele>82.5</ele><time>2026-05-01T16:48:40Z</time></trkpt><trkpt lat="45.144203802296694" lon="8.989187641956725"><ele>81.0</ele><time>2026-05-01T16:48:41Z</time></trkpt><trkpt lat="45.14446067833144" lon="8.989346260181945"><ele>81.0</ele><time>2026-05-01T16:48:42Z</time></trkpt><trkpt lat="45.14471562406605" lon="8.98950721753426"><ele>81.0</ele><time>2026-05-01T16:48:43Z</time></trkpt><trkpt lat="45.1449740297367" lon="8.98966738430962"><ele>81.5</ele><time>2026-05-01T16:48:44Z</time></trkpt><trkpt lat="45.14523369846426" lon="8.989822474661622"><ele>82.0</ele><time>2026-05-01T16:48:45Z</time></trkpt><trkpt lat="45.145488587015684" lon="8.989985925784412"><ele>83.5</ele><time>2026-05-01T16:48:46Z</time></trkpt><trkpt lat="45.14574762354216" lon="8.990141898734555"><ele>85.0</ele><time>2026-05-01T16:48:47Z</time></trkpt><trkpt lat="45.146002215229785" lon="8.990297526268927"><ele>85.0</ele><time>2026-05-01T16:48:48Z</time></trkpt><trkpt lat="45.14625718304062" lon="8.990455515906307"><ele>85.0</ele><time>2026-05-01T16:48:49Z</time></trkpt><trkpt lat="45.14651038306854" lon="8.990609050739053"><ele>86.5</ele><time>2026-05-01T16:48:50Z</time></trkpt><trkpt lat="45.14676152537133" lon="8.990774090456302"><ele>88.0</ele><time>2026-05-01T16:48:51Z</time></trkpt><trkpt lat="45.14702374708617" lon="8.990937275760682"><ele>88.0</ele><time>2026-05-01T16:48:52Z</time></trkpt><trkpt lat="45.147281954716945" lon="8.991096216965317"><ele>88.0</ele><time>2026-05-01T16:48:53Z</time></trkpt><trkpt lat="45.147537594258125" lon="8.991256331001846"><ele>88.5</ele><time>2026-05-01T16:48:54Z</time></trkpt><trkpt lat="45.14779030630878" lon="8.991417821327003"><ele>89.0</ele><time>2026-05-01T16:48:55Z</time></trkpt><trkpt lat="45.148046656396204" lon="8.991574762426186"><ele>88.0</ele><time>2026-05-01T16:48:56Z</time></trkpt><trkpt lat="45.14830752216292" lon="8.991730360348267"><ele>87.0</ele><time>2026-05-01T16:48:57Z</time></trkpt><trkpt lat="45.14855103456577" lon="8.991874216777978"><ele>87.0</ele><time>2026-05-01T16:48:58Z</time></trkpt><trkpt lat="45.148820505222844" lon="8.992036505114761"><ele>87.0</ele><time>2026-05-01T16:48:59Z</time></trkpt><trkpt lat="45.14907722232928" lon="8.992197431520884"><ele>87.0</ele><time>2026-05-01T16:49:00Z</time></trkpt><trkpt lat="45.14933079871807" lon="8.992354476930995"><ele>87.0</ele><time>2026-05-01T16:49:01Z</time></trkpt><trkpt lat="45.14958752336156" lon="8.992510469920784"><ele>87.0</ele><time>2026-05-01T16:49:02Z</time></trkpt><trkpt lat="45.149847683738535" lon="8.992667086886055"><ele>87.0</ele><time>2026-05-01T16:49:03Z</time></trkpt><trkpt lat="45.150107628611096" lon="8.992813202188284"><ele>87.0</ele><time>2026-05-01T16:49:04Z</time></trkpt><trkpt lat="45.15036700636685" lon="8.992952352744327"><ele>87.0</ele><time>2026-05-01T16:49:05Z</time></trkpt><trkpt lat="45.15062823632572" lon="8.993086794343938"><ele>86.5</ele><time>2026-05-01T16:49:06Z</time></trkpt><trkpt lat="45.150893661253164" lon="8.993214350060915"><ele>86.0</ele><time>2026-05-01T16:49:07Z</time></trkpt><trkpt lat="45.15116060607948" lon="8.993339936172966"><ele>85.5</ele><time>2026-05-01T16:49:08Z</time></trkpt><trkpt lat="45.15142078107107" lon="8.99346583925948"><ele>85.0</ele><time>2026-05-01T16:49:09Z</time></trkpt><trkpt lat="45.151688752227685" lon="8.993594876168398"><ele>84.0</ele><time>2026-05-01T16:49:10Z</time></trkpt><trkpt lat="45.15195138998984" lon="8.99372322688246"><ele>83.0</ele><time>2026-05-01T16:49:11Z</time></trkpt><trkpt lat="45.152219009729535" lon="8.993848799760013"><ele>83.5</ele><time>2026-05-01T16:49:12Z</time></trkpt><trkpt lat="45.152483788430565" lon="8.99397969609555"><ele>84.0</ele><time>2026-05-01T16:49:13Z</time></trkpt><trkpt lat="45.152742845850156" lon="8.99410923391444"><ele>84.0</ele><time>2026-05-01T16:49:14Z</time></trkpt><trkpt lat="45.1530066115703" lon="8.99424138287635"><ele>84.0</ele><time>2026-05-01T16:49:15Z</time></trkpt><trkpt lat="45.15326956326712" lon="8.994368637456919"><ele>84.0</ele><time>2026-05-01T16:49:16Z</time></trkpt><trkpt lat="45.15353673099979" lon="8.99449797799038"><ele>84.0</ele><time>2026-05-01T16:49:17Z</time></trkpt><trkpt lat="45.153802391635026" lon="8.994624288284237"><ele>84.5</ele><time>2026-05-01T16:49:18Z</time></trkpt><trkpt lat="45.15406396890444" lon="8.994753335006324"><ele>85.0</ele><time>2026-05-01T16:49:19Z</time></trkpt><trkpt lat="45.1543269211996" lon="8.994879382769694"><ele>85.0</ele><time>2026-05-01T16:49:20Z</time></trkpt><trkpt lat="45.15459372223261" lon="8.99500646733555"><ele>85.0</ele><time>2026-05-01T16:49:21Z</time></trkpt><trkpt lat="45.154857696631176" lon="8.995135193450745"><ele>84.5</ele><time>2026-05-01T16:49:22Z</time></trkpt><trkpt lat="45.155122987463464" lon="8.995266111340765"><ele>84.0</ele><time>2026-05-01T16:49:23Z</time></trkpt><trkpt lat="45.155386854889606" lon="8.995389824896602"><ele>84.0</ele><time>2026-05-01T16:49:24Z</time></trkpt><trkpt lat="45.15565396323393" lon="8.995515029446546"><ele>84.0</ele><time>2026-05-01T16:49:25Z</time></trkpt><trkpt lat="45.1559175895787" lon="8.995643620821985"><ele>85.0</ele><time>2026-05-01T16:49:26Z</time></trkpt><trkpt lat="45.15618134557479" lon="8.995774334349678"><ele>86.0</ele><time>2026-05-01T16:49:27Z</time></trkpt><trkpt lat="45.15644355692054" lon="8.9959024118436"><ele>87.5</ele><time>2026-05-01T16:49:28Z</time></trkpt><trkpt lat="45.15670854550096" lon="8.996034790874516"><ele>89.0</ele><time>2026-05-01T16:49:29Z</time></trkpt><trkpt lat="45.15697328677052" lon="8.9961612121446"><ele>89.0</ele><time>2026-05-01T16:49:30Z</time></trkpt><trkpt lat="45.15723832626033" lon="8.996290443103971"><ele>89.0</ele><time>2026-05-01T16:49:31Z</time></trkpt><trkpt lat="45.15749883485751" lon="8.996413942364633"><ele>88.5</ele><time>2026-05-01T16:49:32Z</time></trkpt><trkpt lat="45.157758155172814" lon="8.996545420508907"><ele>88.0</ele><time>2026-05-01T16:49:33Z</time></trkpt><trkpt lat="45.15802924445957" lon="8.996675194836985"><ele>87.5</ele><time>2026-05-01T16:49:34Z</time></trkpt><trkpt lat="45.15829741165016" lon="8.996805255315211"><ele>87.0</ele><time>2026-05-01T16:49:35Z</time></trkpt><trkpt lat="45.158563539304026" lon="8.996922959776555"><ele>87.0</ele><time>2026-05-01T16:49:36Z</time></trkpt><trkpt lat="45.15882385464879" lon="8.997055885950209"><ele>87.0</ele><time>2026-05-01T16:49:37Z</time></trkpt><trkpt lat="45.15909044657034" lon="8.9971854385046"><ele>86.5</ele><time>2026-05-01T16:49:38Z</time></trkpt><trkpt lat="45.15935545683285" lon="8.997313804049513"><ele>86.0</ele><time>2026-05-01T16:49:39Z</time></trkpt><trkpt lat="45.159620168954895" lon="8.997444435487813"><ele>86.5</ele><time>2026-05-01T16:49:40Z</time></trkpt><trkpt lat="45.15988636762811" lon="8.997576592988434"><ele>87.0</ele><time>2026-05-01T16:49:41Z</time></trkpt><trkpt lat="45.16015096494785" lon="8.997701797056477"><ele>87.0</ele><time>2026-05-01T16:49:42Z</time></trkpt><trkpt lat="45.16041510942319" lon="8.997825265865293"><ele>87.0</ele><time>2026-05-01T16:49:43Z</time></trkpt><trkpt lat="45.16068249742129" lon="8.997950323591452"><ele>87.0</ele><time>2026-05-01T16:49:44Z</time></trkpt><trkpt lat="45.16094588956388" lon="8.998076842786043"><ele>87.0</ele><time>2026-05-01T16:49:45Z</time></trkpt><trkpt lat="45.161210706351795" lon="8.998203503601221"><ele>87.0</ele><time>2026-05-01T16:49:46Z</time></trkpt><trkpt lat="45.16147206677447" lon="8.998326894349185"><ele>87.0</ele><time>2026-05-01T16:49:47Z</time></trkpt><trkpt lat="45.16170849290609" lon="8.99844405449856"><ele>86.5</ele><time>2026-05-01T16:49:48Z</time></trkpt><trkpt lat="45.16193561356885" lon="8.998550315714052"><ele>86.0</ele><time>2026-05-01T16:49:49Z</time></trkpt><trkpt lat="45.16216332090744" lon="8.998661561997226"><ele>85.5</ele><time>2026-05-01T16:49:50Z</time></trkpt><trkpt lat="45.162400387672506" lon="8.998774533229632"><ele>85.0</ele><time>2026-05-01T16:49:51Z</time></trkpt><trkpt lat="45.16263407947994" lon="8.998889700469777"><ele>85.0</ele><time>2026-05-01T16:49:52Z</time></trkpt><trkpt lat="45.162868855283186" lon="8.999003836402755"><ele>85.0</ele><time>2026-05-01T16:49:53Z</time></trkpt><trkpt lat="45.163104094057175" lon="8.99911805714514"><ele>84.5</ele><time>2026-05-01T16:49:54Z</time></trkpt><trkpt lat="45.16334126910714" lon="8.999233044133511"><ele>84.0</ele><time>2026-05-01T16:49:55Z</time></trkpt><trkpt lat="45.1635770818807" lon="8.999341482863954"><ele>84.0</ele><time>2026-05-01T16:49:56Z</time></trkpt><trkpt lat="45.16381595510553" lon="8.999445561854511"><ele>84.0</ele><time>2026-05-01T16:49:57Z</time></trkpt><trkpt lat="45.16405191534376" lon="8.999557647595239"><ele>85.0</ele><time>2026-05-01T16:49:58Z</time></trkpt><trkpt lat="45.16429270882338" lon="8.999672269554662"><ele>86.0</ele><time>2026-05-01T16:49:59Z</time></trkpt><trkpt lat="45.164533361648125" lon="8.999788343307438"><ele>86.0</ele><time>2026-05-01T16:50:00Z</time></trkpt><trkpt lat="45.16477464134478" lon="8.999898186760703"><ele>86.0</ele><time>2026-05-01T16:50:01Z</time></trkpt><trkpt lat="45.165020675220056" lon="9.000002819213895"><ele>86.5</ele><time>2026-05-01T16:50:02Z</time></trkpt><trkpt lat="45.165266786903594" lon="9.000117748873825"><ele>87.0</ele><time>2026-05-01T16:50:03Z</time></trkpt><trkpt lat="45.1655181797179" lon="9.000235068420038"><ele>86.5</ele><time>2026-05-01T16:50:04Z</time></trkpt><trkpt lat="45.16576213777032" lon="9.000353542897662"><ele>86.0</ele><time>2026-05-01T16:50:05Z</time></trkpt><trkpt lat="45.166014165012704" lon="9.000473538887503"><ele>86.0</ele><time>2026-05-01T16:50:06Z</time></trkpt><trkpt lat="45.16626870104572" lon="9.000596416632087"><ele>86.0</ele><time>2026-05-01T16:50:07Z</time></trkpt><trkpt lat="45.16652242902144" lon="9.000717251483787"><ele>86.0</ele><time>2026-05-01T16:50:08Z</time></trkpt><trkpt lat="45.16677699087877" lon="9.000841526280126"><ele>86.0</ele><time>2026-05-01T16:50:09Z</time></trkpt><trkpt lat="45.16703291446942" lon="9.000963602229739"><ele>86.0</ele><time>2026-05-01T16:50:10Z</time></trkpt><trkpt lat="45.167289114103085" lon="9.001084003776846"><ele>86.0</ele><time>2026-05-01T16:50:11Z</time></trkpt><trkpt lat="45.16754774278369" lon="9.00120860758838"><ele>85.5</ele><time>2026-05-01T16:50:12Z</time></trkpt><trkpt lat="45.16780787315593" lon="9.001336809652397"><ele>85.0</ele><time>2026-05-01T16:50:13Z</time></trkpt><trkpt lat="45.16807007784183" lon="9.001464751262482"><ele>85.0</ele><time>2026-05-01T16:50:14Z</time></trkpt><trkpt lat="45.16833196767576" lon="9.001587027273908"><ele>85.0</ele><time>2026-05-01T16:50:15Z</time></trkpt><trkpt lat="45.168594362447145" lon="9.001714195811639"><ele>85.0</ele><time>2026-05-01T16:50:16Z</time></trkpt><trkpt lat="45.168858822222255" lon="9.001842359935244"><ele>85.0</ele><time>2026-05-01T16:50:17Z</time></trkpt><trkpt lat="45.16912425614211" lon="9.001968829252284"><ele>85.0</ele><time>2026-05-01T16:50:18Z</time></trkpt><trkpt lat="45.169390759195615" lon="9.002095756971265"><ele>85.0</ele><time>2026-05-01T16:50:19Z</time></trkpt><trkpt lat="45.16965846346181" lon="9.0022251014847"><ele>85.5</ele><time>2026-05-01T16:50:20Z</time></trkpt><trkpt lat="45.16992732592246" lon="9.002354505695447"><ele>86.0</ele><time>2026-05-01T16:50:21Z</time></trkpt><trkpt lat="45.17018997967366" lon="9.002492555661114"><ele>86.0</ele><time>2026-05-01T16:50:22Z</time></trkpt><trkpt lat="45.17045592854538" lon="9.002623166032077"><ele>86.0</ele><time>2026-05-01T16:50:23Z</time></trkpt><trkpt lat="45.170728860201244" lon="9.002765016228304"><ele>86.0</ele><time>2026-05-01T16:50:24Z</time></trkpt><trkpt lat="45.1709990285517" lon="9.002909542363035"><ele>86.0</ele><time>2026-05-01T16:50:25Z</time></trkpt><trkpt lat="45.17127271783838" lon="9.003053263327239"><ele>85.5</ele><time>2026-05-01T16:50:26Z</time></trkpt><trkpt lat="45.17155176227356" lon="9.003194006064206"><ele>85.0</ele><time>2026-05-01T16:50:27Z</time></trkpt><trkpt lat="45.17182821475614" lon="9.003331540814928"><ele>85.5</ele><time>2026-05-01T16:50:28Z</time></trkpt><trkpt lat="45.1721067534331" lon="9.003470284849676"><ele>86.0</ele><time>2026-05-01T16:50:29Z</time></trkpt><trkpt lat="45.17238854817893" lon="9.003603757961583"><ele>86.0</ele><time>2026-05-01T16:50:30Z</time></trkpt><trkpt lat="45.172672547284904" lon="9.003736634413988"><ele>86.0</ele><time>2026-05-01T16:50:31Z</time></trkpt><trkpt lat="45.17295804425735" lon="9.003872894387326"><ele>86.5</ele><time>2026-05-01T16:50:32Z</time></trkpt><trkpt lat="45.17324836504264" lon="9.004012715073253"><ele>87.0</ele><time>2026-05-01T16:50:33Z</time></trkpt><trkpt lat="45.173534795713444" lon="9.004152839909565"><ele>87.0</ele><time>2026-05-01T16:50:34Z</time></trkpt><trkpt lat="45.1738231706198" lon="9.004293977814397"><ele>87.0</ele><time>2026-05-01T16:50:35Z</time></trkpt><trkpt lat="45.174115654883636" lon="9.00443537613046"><ele>87.0</ele><time>2026-05-01T16:50:36Z</time></trkpt><trkpt lat="45.17440771587993" lon="9.00457558948862"><ele>87.0</ele><time>2026-05-01T16:50:37Z</time></trkpt><trkpt lat="45.17470684055047" lon="9.004722917841924"><ele>87.0</ele><time>2026-05-01T16:50:38Z</time></trkpt><trkpt lat="45.17499344328739" lon="9.004857592458546"><ele>87.0</ele><time>2026-05-01T16:50:39Z</time></trkpt><trkpt lat="45.17528815955909" lon="9.004995317162653"><ele>86.5</ele><time>2026-05-01T16:50:40Z</time></trkpt><trkpt lat="45.17558158506897" lon="9.005132743683397"><ele>86.0</ele><time>2026-05-01T16:50:41Z</time></trkpt><trkpt lat="45.17587737153371" lon="9.005274120009393"><ele>85.5</ele><time>2026-05-01T16:50:42Z</time></trkpt><trkpt lat="45.17617318890025" lon="9.005416328641655"><ele>85.0</ele><time>2026-05-01T16:50:43Z</time></trkpt><trkpt lat="45.17646779750915" lon="9.005563415070446"><ele>85.0</ele><time>2026-05-01T16:50:44Z</time></trkpt><trkpt lat="45.17676384679275" lon="9.005718694818272"><ele>85.0</ele><time>2026-05-01T16:50:45Z</time></trkpt><trkpt lat="45.17705698865266" lon="9.005881592638497"><ele>85.0</ele><time>2026-05-01T16:50:46Z</time></trkpt><trkpt lat="45.177340677266386" lon="9.006059141892486"><ele>85.0</ele><time>2026-05-01T16:50:47Z</time></trkpt><trkpt lat="45.177633836713134" lon="9.006231420167078"><ele>82.5</ele><time>2026-05-01T16:50:48Z</time></trkpt><trkpt lat="45.177920799156695" lon="9.00640343874596"><ele>80.0</ele><time>2026-05-01T16:50:49Z</time></trkpt><trkpt lat="45.17820292576172" lon="9.006581008886402"><ele>77.5</ele><time>2026-05-01T16:50:50Z</time></trkpt><trkpt lat="45.17846377884949" lon="9.006741794061222"><ele>75.0</ele><time>2026-05-01T16:50:51Z</time></trkpt><trkpt lat="45.178709386170894" lon="9.006885690861507"><ele>75.0</ele><time>2026-05-01T16:50:52Z</time></trkpt><trkpt lat="45.17894750988952" lon="9.007027481007027"><ele>75.0</ele><time>2026-05-01T16:50:53Z</time></trkpt><trkpt lat="45.17917362867624" lon="9.00715634071627"><ele>73.5</ele><time>2026-05-01T16:50:54Z</time></trkpt><trkpt lat="45.17940514531035" lon="9.007297924241298"><ele>72.0</ele><time>2026-05-01T16:50:55Z</time></trkpt><trkpt lat="45.17964164500926" lon="9.007439863759137"><ele>69.5</ele><time>2026-05-01T16:50:56Z</time></trkpt><trkpt lat="45.179880098401846" lon="9.007578511219203"><ele>67.0</ele><time>2026-05-01T16:50:57Z</time></trkpt><trkpt lat="45.18011937989616" lon="9.00771990855821"><ele>67.0</ele><time>2026-05-01T16:50:58Z</time></trkpt><trkpt lat="45.18035583421411" lon="9.007861959283272"><ele>67.0</ele><time>2026-05-01T16:50:59Z</time></trkpt><trkpt lat="45.18059258675978" lon="9.008002538543172"><ele>66.5</ele><time>2026-05-01T16:51:00Z</time></trkpt><trkpt lat="45.18082418689867" lon="9.008147357084136"><ele>66.0</ele><time>2026-05-01T16:51:01Z</time></trkpt><trkpt lat="45.18106352061783" lon="9.00829088779"><ele>66.5</ele><time>2026-05-01T16:51:02Z</time></trkpt><trkpt lat="45.18130210252089" lon="9.0084320661234"><ele>67.0</ele><time>2026-05-01T16:51:03Z</time></trkpt><trkpt lat="45.181539588760245" lon="9.008574143395027"><ele>67.5</ele><time>2026-05-01T16:51:04Z</time></trkpt><trkpt lat="45.1817756724607" lon="9.00871245935722"><ele>68.0</ele><time>2026-05-01T16:51:05Z</time></trkpt><trkpt lat="45.18201452416025" lon="9.00885219702228"><ele>68.0</ele><time>2026-05-01T16:51:06Z</time></trkpt><trkpt lat="45.182253274698446" lon="9.008992548260379"><ele>68.0</ele><time>2026-05-01T16:51:07Z</time></trkpt><trkpt lat="45.18249045927789" lon="9.00914048811815"><ele>67.0</ele><time>2026-05-01T16:51:08Z</time></trkpt><trkpt lat="45.18273066377365" lon="9.009278978613247"><ele>66.0</ele><time>2026-05-01T16:51:09Z</time></trkpt><trkpt lat="45.18296879151354" lon="9.009419198489072"><ele>65.5</ele><time>2026-05-01T16:51:10Z</time></trkpt><trkpt lat="45.18320425880663" lon="9.009561919877111"><ele>65.0</ele><time>2026-05-01T16:51:11Z</time></trkpt><trkpt lat="45.183439424963595" lon="9.009704153337065"><ele>65.0</ele><time>2026-05-01T16:51:12Z</time></trkpt><trkpt lat="45.183676776981144" lon="9.009848377176448"><ele>65.0</ele><time>2026-05-01T16:51:13Z</time></trkpt><trkpt lat="45.183915125479444" lon="9.009984903358458"><ele>64.0</ele><time>2026-05-01T16:51:14Z</time></trkpt><trkpt lat="45.184150803189475" lon="9.010120394201996"><ele>63.0</ele><time>2026-05-01T16:51:15Z</time></trkpt><trkpt lat="45.184386689654765" lon="9.010270650384852"><ele>63.0</ele><time>2026-05-01T16:51:16Z</time></trkpt><trkpt lat="45.18462743293669" lon="9.01040839039476"><ele>63.0</ele><time>2026-05-01T16:51:17Z</time></trkpt><trkpt lat="45.184863660007935" lon="9.010547686821774"><ele>63.5</ele><time>2026-05-01T16:51:18Z</time></trkpt><trkpt lat="45.18510061723813" lon="9.010690852345613"><ele>64.0</ele><time>2026-05-01T16:51:19Z</time></trkpt><trkpt lat="45.185334885031644" lon="9.01083431102326"><ele>64.0</ele><time>2026-05-01T16:51:20Z</time></trkpt><trkpt lat="45.18557335563057" lon="9.010976515715596"><ele>64.0</ele><time>2026-05-01T16:51:21Z</time></trkpt><trkpt lat="45.185810888106765" lon="9.011115384483274"><ele>64.0</ele><time>2026-05-01T16:51:22Z</time></trkpt><trkpt lat="45.186048539623" lon="9.011257182103332"><ele>64.0</ele><time>2026-05-01T16:51:23Z</time></trkpt><trkpt lat="45.186287202778274" lon="9.011398721393379"><ele>65.0</ele><time>2026-05-01T16:51:24Z</time></trkpt><trkpt lat="45.18652365033672" lon="9.011536493329496"><ele>66.0</ele><time>2026-05-01T16:51:25Z</time></trkpt><trkpt lat="45.18676159235492" lon="9.01167504016798"><ele>66.0</ele><time>2026-05-01T16:51:26Z</time></trkpt><trkpt lat="45.18699653253878" lon="9.011811702279566"><ele>66.0</ele><time>2026-05-01T16:51:27Z</time></trkpt><trkpt lat="45.187234380536296" lon="9.01195122514138"><ele>66.0</ele><time>2026-05-01T16:51:28Z</time></trkpt><trkpt lat="45.18747088141232" lon="9.01209458855067"><ele>66.0</ele><time>2026-05-01T16:51:29Z</time></trkpt><trkpt lat="45.18770612223084" lon="9.012237552986198"><ele>66.0</ele><time>2026-05-01T16:51:30Z</time></trkpt><trkpt lat="45.18794106724989" lon="9.012382636658604"><ele>66.0</ele><time>2026-05-01T16:51:31Z</time></trkpt><trkpt lat="45.18817714828658" lon="9.012518917799774"><ele>66.5</ele><time>2026-05-01T16:51:32Z</time></trkpt><trkpt lat="45.18841179232527" lon="9.01265861612386"><ele>67.0</ele><time>2026-05-01T16:51:33Z</time></trkpt><trkpt lat="45.1886522769825" lon="9.012780213432066"><ele>67.0</ele><time>2026-05-01T16:51:34Z</time></trkpt><trkpt lat="45.188887286010775" lon="9.012932055874401"><ele>67.0</ele><time>2026-05-01T16:51:35Z</time></trkpt><trkpt lat="45.189126470955046" lon="9.01307526801062"><ele>66.0</ele><time>2026-05-01T16:51:36Z</time></trkpt><trkpt lat="45.18936414224543" lon="9.013211060876381"><ele>65.0</ele><time>2026-05-01T16:51:37Z</time></trkpt><trkpt lat="45.18960404579446" lon="9.013347438085221"><ele>65.0</ele><time>2026-05-01T16:51:38Z</time></trkpt><trkpt lat="45.18984163563264" lon="9.01348997447381"><ele>65.0</ele><time>2026-05-01T16:51:39Z</time></trkpt><trkpt lat="45.19007608610826" lon="9.013637073670326"><ele>65.0</ele><time>2026-05-01T16:51:40Z</time></trkpt><trkpt lat="45.190311756085656" lon="9.013780327543655"><ele>65.0</ele><time>2026-05-01T16:51:41Z</time></trkpt><trkpt lat="45.190549858531504" lon="9.013923726453404"><ele>65.0</ele><time>2026-05-01T16:51:42Z</time></trkpt><trkpt lat="45.19078388333362" lon="9.014061559192251"><ele>65.0</ele><time>2026-05-01T16:51:43Z</time></trkpt><trkpt lat="45.191020088110335" lon="9.01419812959397"><ele>66.0</ele><time>2026-05-01T16:51:44Z</time></trkpt><trkpt lat="45.1912583742121" lon="9.014338147057476"><ele>67.0</ele><time>2026-05-01T16:51:45Z</time></trkpt><trkpt lat="45.19149632989792" lon="9.014478322122745"><ele>66.0</ele><time>2026-05-01T16:51:46Z</time></trkpt><trkpt lat="45.191738781525565" lon="9.014619585222595"><ele>65.0</ele><time>2026-05-01T16:51:47Z</time></trkpt><trkpt lat="45.191972748574656" lon="9.01475780207693"><ele>65.0</ele><time>2026-05-01T16:51:48Z</time></trkpt><trkpt lat="45.192213213473195" lon="9.014902874585443"><ele>65.0</ele><time>2026-05-01T16:51:49Z</time></trkpt><trkpt lat="45.19244703319208" lon="9.015042019683333"><ele>65.5</ele><time>2026-05-01T16:51:50Z</time></trkpt><trkpt lat="45.192683992303316" lon="9.015188497833192"><ele>66.0</ele><time>2026-05-01T16:51:51Z</time></trkpt><trkpt lat="45.19292163361003" lon="9.015332174260898"><ele>66.0</ele><time>2026-05-01T16:51:52Z</time></trkpt><trkpt lat="45.19315767088188" lon="9.015474041851045"><ele>66.0</ele><time>2026-05-01T16:51:53Z</time></trkpt><trkpt lat="45.19339768314512" lon="9.01561133474549"><ele>65.5</ele><time>2026-05-01T16:51:54Z</time></trkpt><trkpt lat="45.19363651398645" lon="9.015752283498689"><ele>65.0</ele><time>2026-05-01T16:51:55Z</time></trkpt><trkpt lat="45.193877280688476" lon="9.015895543907495"><ele>65.0</ele><time>2026-05-01T16:51:56Z</time></trkpt><trkpt lat="45.194113568925445" lon="9.016039749656176"><ele>65.0</ele><time>2026-05-01T16:51:57Z</time></trkpt><trkpt lat="45.1943474886074" lon="9.016178102275969"><ele>65.0</ele><time>2026-05-01T16:51:58Z</time></trkpt><trkpt lat="45.194586963597914" lon="9.016317265826617"><ele>65.0</ele><time>2026-05-01T16:51:59Z</time></trkpt><trkpt lat="45.194827097696376" lon="9.0164610794892"><ele>65.0</ele><time>2026-05-01T16:52:00Z</time></trkpt><trkpt lat="45.19506028565032" lon="9.016600467404388"><ele>65.0</ele><time>2026-05-01T16:52:01Z</time></trkpt><trkpt lat="45.195300495654436" lon="9.016741807835153"><ele>65.0</ele><time>2026-05-01T16:52:02Z</time></trkpt><trkpt lat="45.195537139145564" lon="9.016885208133816"><ele>65.0</ele><time>2026-05-01T16:52:03Z</time></trkpt><trkpt lat="45.19577625373213" lon="9.017022869830155"><ele>65.0</ele><time>2026-05-01T16:52:04Z</time></trkpt><trkpt lat="45.19601323291934" lon="9.017162324445563"><ele>65.0</ele><time>2026-05-01T16:52:05Z</time></trkpt><trkpt lat="45.19623584487398" lon="9.017302228769363"><ele>65.0</ele><time>2026-05-01T16:52:06Z</time></trkpt><trkpt lat="45.19648181246826" lon="9.017445225972361"><ele>65.0</ele><time>2026-05-01T16:52:07Z</time></trkpt><trkpt lat="45.19672079973753" lon="9.017582462006253"><ele>65.0</ele><time>2026-05-01T16:52:08Z</time></trkpt><trkpt lat="45.19695654616428" lon="9.017719730344785"><ele>65.0</ele><time>2026-05-01T16:52:09Z</time></trkpt><trkpt lat="45.197196439067724" lon="9.017838540535754"><ele>64.5</ele><time>2026-05-01T16:52:10Z</time></trkpt><trkpt lat="45.19744321308017" lon="9.01794802157794"><ele>64.0</ele><time>2026-05-01T16:52:11Z</time></trkpt><trkpt lat="45.19769207279889" lon="9.018046608940809"><ele>64.0</ele><time>2026-05-01T16:52:12Z</time></trkpt><trkpt lat="45.19794037986656" lon="9.01813671474653"><ele>64.0</ele><time>2026-05-01T16:52:13Z</time></trkpt><trkpt lat="45.198192809556666" lon="9.018209834708017"><ele>64.0</ele><time>2026-05-01T16:52:14Z</time></trkpt><trkpt lat="45.19844330940885" lon="9.018278604930073"><ele>64.0</ele><time>2026-05-01T16:52:15Z</time></trkpt><trkpt lat="45.19869879957654" lon="9.018340463241499"><ele>63.5</ele><time>2026-05-01T16:52:16Z</time></trkpt><trkpt lat="45.19895274330989" lon="9.018388223443571"><ele>63.0</ele><time>2026-05-01T16:52:17Z</time></trkpt><trkpt lat="45.199208445359595" lon="9.018426881107935"><ele>65.0</ele><time>2026-05-01T16:52:18Z</time></trkpt><trkpt lat="45.199466007882606" lon="9.018454088579974"><ele>67.0</ele><time>2026-05-01T16:52:19Z</time></trkpt><trkpt lat="45.19973304250631" lon="9.018471423362373"><ele>67.0</ele><time>2026-05-01T16:52:20Z</time></trkpt><trkpt lat="45.19998602050522" lon="9.018482584714837"><ele>67.0</ele><time>2026-05-01T16:52:21Z</time></trkpt><trkpt lat="45.200236887902165" lon="9.018473342526425"><ele>67.0</ele><time>2026-05-01T16:52:22Z</time></trkpt><trkpt lat="45.200484676364816" lon="9.018455013585648"><ele>67.0</ele><time>2026-05-01T16:52:23Z</time></trkpt><trkpt lat="45.200748465127894" lon="9.018436191443046"><ele>65.5</ele><time>2026-05-01T16:52:24Z</time></trkpt><trkpt lat="45.200999628620515" lon="9.0184090466153"><ele>64.0</ele><time>2026-05-01T16:52:25Z</time></trkpt><trkpt lat="45.20125518674655" lon="9.018361502580069"><ele>64.0</ele><time>2026-05-01T16:52:26Z</time></trkpt><trkpt lat="45.20150063707737" lon="9.018330164900977"><ele>64.0</ele><time>2026-05-01T16:52:27Z</time></trkpt><trkpt lat="45.20174689721504" lon="9.018272983886858"><ele>64.0</ele><time>2026-05-01T16:52:28Z</time></trkpt><trkpt lat="45.20198165512547" lon="9.018231370507367"><ele>64.0</ele><time>2026-05-01T16:52:29Z</time></trkpt><trkpt lat="45.20224841714894" lon="9.018152681568244"><ele>65.0</ele><time>2026-05-01T16:52:30Z</time></trkpt><trkpt lat="45.20250546706642" lon="9.01809612136178"><ele>66.0</ele><time>2026-05-01T16:52:31Z</time></trkpt><trkpt lat="45.20276478648755" lon="9.018038714594681"><ele>66.0</ele><time>2026-05-01T16:52:32Z</time></trkpt><trkpt lat="45.20301959980425" lon="9.017984892530215"><ele>66.0</ele><time>2026-05-01T16:52:33Z</time></trkpt><trkpt lat="45.20327216137812" lon="9.01792045155607"><ele>66.5</ele><time>2026-05-01T16:52:34Z</time></trkpt><trkpt lat="45.20353138980793" lon="9.017858120353818"><ele>67.0</ele><time>2026-05-01T16:52:35Z</time></trkpt><trkpt lat="45.20378718289235" lon="9.01780540130357"><ele>67.5</ele><time>2026-05-01T16:52:36Z</time></trkpt><trkpt lat="45.204050024165255" lon="9.017742283953673"><ele>68.0</ele><time>2026-05-01T16:52:37Z</time></trkpt><trkpt lat="45.20430108875423" lon="9.017686925633107"><ele>68.0</ele><time>2026-05-01T16:52:38Z</time></trkpt><trkpt lat="45.20455780712811" lon="9.017645552680662"><ele>68.0</ele><time>2026-05-01T16:52:39Z</time></trkpt><trkpt lat="45.20481316053881" lon="9.017573505070569"><ele>68.5</ele><time>2026-05-01T16:52:40Z</time></trkpt><trkpt lat="45.20506699345151" lon="9.017519931716164"><ele>69.0</ele><time>2026-05-01T16:52:41Z</time></trkpt><trkpt lat="45.20532425427282" lon="9.017469751315735"><ele>68.0</ele><time>2026-05-01T16:52:42Z</time></trkpt><trkpt lat="45.20557768654069" lon="9.017418623376505"><ele>67.0</ele><time>2026-05-01T16:52:43Z</time></trkpt><trkpt lat="45.205832243111345" lon="9.017363331617574"><ele>66.5</ele><time>2026-05-01T16:52:44Z</time></trkpt><trkpt lat="45.20608873293578" lon="9.017305446216202"><ele>66.0</ele><time>2026-05-01T16:52:45Z</time></trkpt><trkpt lat="45.206341332710466" lon="9.017250934523096"><ele>66.0</ele><time>2026-05-01T16:52:46Z</time></trkpt><trkpt lat="45.20659490967392" lon="9.017198190592747"><ele>66.0</ele><time>2026-05-01T16:52:47Z</time></trkpt><trkpt lat="45.20685270649748" lon="9.017146691574437"><ele>66.0</ele><time>2026-05-01T16:52:48Z</time></trkpt><trkpt lat="45.20710356095327" lon="9.017096739961273"><ele>66.0</ele><time>2026-05-01T16:52:49Z</time></trkpt><trkpt lat="45.20735827331276" lon="9.017043455143295"><ele>66.0</ele><time>2026-05-01T16:52:50Z</time></trkpt><trkpt lat="45.20761193007008" lon="9.016992588636743"><ele>66.0</ele><time>2026-05-01T16:52:51Z</time></trkpt><trkpt lat="45.207866352438074" lon="9.016940954306614"><ele>66.0</ele><time>2026-05-01T16:52:52Z</time></trkpt><trkpt lat="45.20812028941802" lon="9.016889610097534"><ele>66.0</ele><time>2026-05-01T16:52:53Z</time></trkpt><trkpt lat="45.20837405442345" lon="9.016837951989388"><ele>66.5</ele><time>2026-05-01T16:52:54Z</time></trkpt><trkpt lat="45.20863102571688" lon="9.016785651056768"><ele>67.0</ele><time>2026-05-01T16:52:55Z</time></trkpt><trkpt lat="45.20888296694147" lon="9.016739615429197"><ele>66.5</ele><time>2026-05-01T16:52:56Z</time></trkpt><trkpt lat="45.209141227638696" lon="9.016699569588363"><ele>66.0</ele><time>2026-05-01T16:52:57Z</time></trkpt><trkpt lat="45.20939697827258" lon="9.016669528298301"><ele>65.5</ele><time>2026-05-01T16:52:58Z</time></trkpt><trkpt lat="45.20965272476453" lon="9.01664924692436"><ele>65.0</ele><time>2026-05-01T16:52:59Z</time></trkpt><trkpt lat="45.20991106469179" lon="9.016641317162485"><ele>65.0</ele><time>2026-05-01T16:53:00Z</time></trkpt><trkpt lat="45.210170552091306" lon="9.01664065708637"><ele>65.0</ele><time>2026-05-01T16:53:01Z</time></trkpt><trkpt lat="45.21042901146798" lon="9.016651907148852"><ele>64.5</ele><time>2026-05-01T16:53:02Z</time></trkpt><trkpt lat="45.21068555364875" lon="9.016669445735184"><ele>64.0</ele><time>2026-05-01T16:53:03Z</time></trkpt><trkpt lat="45.21094018771876" lon="9.016695784694923"><ele>64.0</ele><time>2026-05-01T16:53:04Z</time></trkpt><trkpt lat="45.211198277326574" lon="9.01672799837968"><ele>64.0</ele><time>2026-05-01T16:53:05Z</time></trkpt><trkpt lat="45.211455260354164" lon="9.016771995589432"><ele>63.5</ele><time>2026-05-01T16:53:06Z</time></trkpt><trkpt lat="45.21171081841317" lon="9.016819605860952"><ele>63.0</ele><time>2026-05-01T16:53:07Z</time></trkpt><trkpt lat="45.21196369793029" lon="9.016875576968962"><ele>63.0</ele><time>2026-05-01T16:53:08Z</time></trkpt><trkpt lat="45.212215232354694" lon="9.016939440674074"><ele>63.0</ele><time>2026-05-01T16:53:09Z</time></trkpt><trkpt lat="45.21246696279245" lon="9.017001487039124"><ele>63.5</ele><time>2026-05-01T16:53:10Z</time></trkpt><trkpt lat="45.21272460527322" lon="9.01705940583847"><ele>64.0</ele><time>2026-05-01T16:53:11Z</time></trkpt><trkpt lat="45.21297837396902" lon="9.017118184316928"><ele>64.0</ele><time>2026-05-01T16:53:12Z</time></trkpt><trkpt lat="45.21323430455641" lon="9.017171140697632"><ele>64.0</ele><time>2026-05-01T16:53:13Z</time></trkpt><trkpt lat="45.213486711942785" lon="9.017228382421218"><ele>64.0</ele><time>2026-05-01T16:53:14Z</time></trkpt><trkpt lat="45.213739417665664" lon="9.017275697861791"><ele>64.0</ele><time>2026-05-01T16:53:15Z</time></trkpt><trkpt lat="45.21399679319612" lon="9.0173379466629"><ele>64.0</ele><time>2026-05-01T16:53:16Z</time></trkpt><trkpt lat="45.21425365987414" lon="9.017391142105271"><ele>64.0</ele><time>2026-05-01T16:53:17Z</time></trkpt><trkpt lat="45.214508847621644" lon="9.01744755289208"><ele>64.5</ele><time>2026-05-01T16:53:18Z</time></trkpt><trkpt lat="45.214764550260654" lon="9.017501607879652"><ele>65.0</ele><time>2026-05-01T16:53:19Z</time></trkpt><trkpt lat="45.2150183162321" lon="9.017556515454727"><ele>64.0</ele><time>2026-05-01T16:53:20Z</time></trkpt><trkpt lat="45.21527574758288" lon="9.017610500402425"><ele>63.0</ele><time>2026-05-01T16:53:21Z</time></trkpt><trkpt lat="45.2155293570694" lon="9.017667031274764"><ele>63.0</ele><time>2026-05-01T16:53:22Z</time></trkpt><trkpt lat="45.21578700631171" lon="9.01771733429153"><ele>63.0</ele><time>2026-05-01T16:53:23Z</time></trkpt><trkpt lat="45.216038350351184" lon="9.017780853328615"><ele>63.0</ele><time>2026-05-01T16:53:24Z</time></trkpt><trkpt lat="45.21629503609344" lon="9.01784322175645"><ele>63.0</ele><time>2026-05-01T16:53:25Z</time></trkpt><trkpt lat="45.21654789869969" lon="9.017915762361824"><ele>64.5</ele><time>2026-05-01T16:53:26Z</time></trkpt><trkpt lat="45.21679271114596" lon="9.018003171688887"><ele>66.0</ele><time>2026-05-01T16:53:27Z</time></trkpt><trkpt lat="45.21701922615542" lon="9.01811040316273"><ele>66.0</ele><time>2026-05-01T16:53:28Z</time></trkpt><trkpt lat="45.21727474644288" lon="9.018228692752793"><ele>66.0</ele><time>2026-05-01T16:53:29Z</time></trkpt><trkpt lat="45.21752512858529" lon="9.018348190171846"><ele>65.5</ele><time>2026-05-01T16:53:30Z</time></trkpt><trkpt lat="45.21777178972148" lon="9.018465288643906"><ele>65.0</ele><time>2026-05-01T16:53:31Z</time></trkpt><trkpt lat="45.21800954074129" lon="9.018594002795192"><ele>64.5</ele><time>2026-05-01T16:53:32Z</time></trkpt><trkpt lat="45.21824800705248" lon="9.018723956812117"><ele>64.0</ele><time>2026-05-01T16:53:33Z</time></trkpt><trkpt lat="45.21848421877886" lon="9.01887291235784"><ele>64.0</ele><time>2026-05-01T16:53:34Z</time></trkpt><trkpt lat="45.21871731420459" lon="9.01902584114471"><ele>64.0</ele><time>2026-05-01T16:53:35Z</time></trkpt><trkpt lat="45.21894663063225" lon="9.019193354416446"><ele>64.0</ele><time>2026-05-01T16:53:36Z</time></trkpt><trkpt lat="45.21917728020856" lon="9.019365287186615"><ele>64.0</ele><time>2026-05-01T16:53:37Z</time></trkpt><trkpt lat="45.219402884510245" lon="9.019552840534548"><ele>64.0</ele><time>2026-05-01T16:53:38Z</time></trkpt><trkpt lat="45.21962643237482" lon="9.019738996783675"><ele>64.0</ele><time>2026-05-01T16:53:39Z</time></trkpt><trkpt lat="45.21984697360509" lon="9.019930440729958"><ele>64.5</ele><time>2026-05-01T16:53:40Z</time></trkpt><trkpt lat="45.2200615556631" lon="9.020123468510505"><ele>65.0</ele><time>2026-05-01T16:53:41Z</time></trkpt><trkpt lat="45.22027956881884" lon="9.020316266951411"><ele>65.0</ele><time>2026-05-01T16:53:42Z</time></trkpt><trkpt lat="45.22049527949996" lon="9.020510711580407"><ele>65.0</ele><time>2026-05-01T16:53:43Z</time></trkpt><trkpt lat="45.220713529372674" lon="9.020699120655681"><ele>64.0</ele><time>2026-05-01T16:53:44Z</time></trkpt><trkpt lat="45.220931334833466" lon="9.02088819913968"><ele>63.0</ele><time>2026-05-01T16:53:45Z</time></trkpt><trkpt lat="45.22115202637337" lon="9.021076618756158"><ele>63.0</ele><time>2026-05-01T16:53:46Z</time></trkpt><trkpt lat="45.221373187688926" lon="9.021265024863839"><ele>63.0</ele><time>2026-05-01T16:53:47Z</time></trkpt><trkpt lat="45.22159803255099" lon="9.021455092693545"><ele>63.5</ele><time>2026-05-01T16:53:48Z</time></trkpt><trkpt lat="45.22181264947791" lon="9.021647911246509"><ele>64.0</ele><time>2026-05-01T16:53:49Z</time></trkpt><trkpt lat="45.22203521723598" lon="9.02183723073627"><ele>65.0</ele><time>2026-05-01T16:53:50Z</time></trkpt><trkpt lat="45.222253548182195" lon="9.022029982646334"><ele>66.0</ele><time>2026-05-01T16:53:51Z</time></trkpt><trkpt lat="45.22247097540559" lon="9.022220632692786"><ele>64.0</ele><time>2026-05-01T16:53:52Z</time></trkpt><trkpt lat="45.2226936046832" lon="9.022414278294514"><ele>62.0</ele><time>2026-05-01T16:53:53Z</time></trkpt><trkpt lat="45.22290881619163" lon="9.022603705869967"><ele>62.0</ele><time>2026-05-01T16:53:54Z</time></trkpt><trkpt lat="45.223127998043175" lon="9.022790986767228"><ele>62.0</ele><time>2026-05-01T16:53:55Z</time></trkpt><trkpt lat="45.22335317367556" lon="9.022994149987905"><ele>63.0</ele><time>2026-05-01T16:53:56Z</time></trkpt><trkpt lat="45.223577260212906" lon="9.023171113970594"><ele>64.0</ele><time>2026-05-01T16:53:57Z</time></trkpt><trkpt lat="45.22378765441934" lon="9.023360313321765"><ele>63.5</ele><time>2026-05-01T16:53:58Z</time></trkpt><trkpt lat="45.22400923811485" lon="9.023553014442442"><ele>63.0</ele><time>2026-05-01T16:53:59Z</time></trkpt><trkpt lat="45.22422622512344" lon="9.023745619763456"><ele>63.0</ele><time>2026-05-01T16:54:00Z</time></trkpt><trkpt lat="45.2244430002438" lon="9.023939725098193"><ele>63.0</ele><time>2026-05-01T16:54:01Z</time></trkpt><trkpt lat="45.224661632019156" lon="9.024128906138158"><ele>62.0</ele><time>2026-05-01T16:54:02Z</time></trkpt><trkpt lat="45.22487620397915" lon="9.024313388402073"><ele>61.0</ele><time>2026-05-01T16:54:03Z</time></trkpt><trkpt lat="45.225095647549594" lon="9.02450292505545"><ele>61.0</ele><time>2026-05-01T16:54:04Z</time></trkpt><trkpt lat="45.22531337947346" lon="9.024695443730037"><ele>61.0</ele><time>2026-05-01T16:54:05Z</time></trkpt><trkpt lat="45.2255301263089" lon="9.02488753573793"><ele>61.5</ele><time>2026-05-01T16:54:06Z</time></trkpt><trkpt lat="45.225748020784344" lon="9.025078064540041"><ele>62.0</ele><time>2026-05-01T16:54:07Z</time></trkpt><trkpt lat="45.2259677178926" lon="9.025265306165062"><ele>62.0</ele><time>2026-05-01T16:54:08Z</time></trkpt><trkpt lat="45.22618667707855" lon="9.025457718702095"><ele>62.0</ele><time>2026-05-01T16:54:09Z</time></trkpt><trkpt lat="45.22640892983262" lon="9.025644620087899"><ele>63.5</ele><time>2026-05-01T16:54:10Z</time></trkpt><trkpt lat="45.22662926088837" lon="9.025834045102634"><ele>65.0</ele><time>2026-05-01T16:54:11Z</time></trkpt><trkpt lat="45.22684916401281" lon="9.02601988259596"><ele>65.0</ele><time>2026-05-01T16:54:12Z</time></trkpt><trkpt lat="45.227069926844806" lon="9.02621143218357"><ele>65.0</ele><time>2026-05-01T16:54:13Z</time></trkpt><trkpt lat="45.22728861007613" lon="9.026403608100189"><ele>65.0</ele><time>2026-05-01T16:54:14Z</time></trkpt><trkpt lat="45.227503303145554" lon="9.02659765960859"><ele>65.0</ele><time>2026-05-01T16:54:15Z</time></trkpt><trkpt lat="45.22772374852244" lon="9.026785963974017"><ele>65.0</ele><time>2026-05-01T16:54:16Z</time></trkpt><trkpt lat="45.227945105938225" lon="9.026975715163033"><ele>65.0</ele><time>2026-05-01T16:54:17Z</time></trkpt><trkpt lat="45.22816577389825" lon="9.027162121278751"><ele>65.0</ele><time>2026-05-01T16:54:18Z</time></trkpt><trkpt lat="45.228387545136066" lon="9.027349259331949"><ele>65.0</ele><time>2026-05-01T16:54:19Z</time></trkpt><trkpt lat="45.22860644398728" lon="9.027540587512535"><ele>66.0</ele><time>2026-05-01T16:54:20Z</time></trkpt><trkpt lat="45.2288231017732" lon="9.027736081510241"><ele>67.0</ele><time>2026-05-01T16:54:21Z</time></trkpt><trkpt lat="45.22904514886839" lon="9.027929470840657"><ele>67.0</ele><time>2026-05-01T16:54:22Z</time></trkpt><trkpt lat="45.22926472252374" lon="9.028122415928568"><ele>67.0</ele><time>2026-05-01T16:54:23Z</time></trkpt><trkpt lat="45.229482323967986" lon="9.028317368779378"><ele>66.5</ele><time>2026-05-01T16:54:24Z</time></trkpt><trkpt lat="45.229700624730654" lon="9.02851303824789"><ele>66.0</ele><time>2026-05-01T16:54:25Z</time></trkpt><trkpt lat="45.229913787466536" lon="9.028700329696902"><ele>65.0</ele><time>2026-05-01T16:54:26Z</time></trkpt><trkpt lat="45.23013864672774" lon="9.028890524638737"><ele>64.0</ele><time>2026-05-01T16:54:27Z</time></trkpt><trkpt lat="45.230357784746985" lon="9.029081227533368"><ele>64.0</ele><time>2026-05-01T16:54:28Z</time></trkpt><trkpt lat="45.23056913261036" lon="9.029274992129416"><ele>64.0</ele><time>2026-05-01T16:54:29Z</time></trkpt><trkpt lat="45.230778891982474" lon="9.029474044499912"><ele>64.0</ele><time>2026-05-01T16:54:30Z</time></trkpt><trkpt lat="45.23100709999805" lon="9.02965593096582"><ele>64.0</ele><time>2026-05-01T16:54:31Z</time></trkpt><trkpt lat="45.231227527723924" lon="9.029847071444786"><ele>64.0</ele><time>2026-05-01T16:54:32Z</time></trkpt><trkpt lat="45.23144867856238" lon="9.030040092257183"><ele>64.0</ele><time>2026-05-01T16:54:33Z</time></trkpt><trkpt lat="45.2316690422191" lon="9.03023474093252"><ele>64.0</ele><time>2026-05-01T16:54:34Z</time></trkpt><trkpt lat="45.23188097004098" lon="9.030428059293191"><ele>64.0</ele><time>2026-05-01T16:54:35Z</time></trkpt><trkpt lat="45.232102711279914" lon="9.03062277258682"><ele>64.5</ele><time>2026-05-01T16:54:36Z</time></trkpt><trkpt lat="45.232320300136195" lon="9.030812969382197"><ele>65.0</ele><time>2026-05-01T16:54:37Z</time></trkpt><trkpt lat="45.23253922312515" lon="9.031006330026296"><ele>65.0</ele><time>2026-05-01T16:54:38Z</time></trkpt><trkpt lat="45.23276030344497" lon="9.031191051712526"><ele>65.0</ele><time>2026-05-01T16:54:39Z</time></trkpt><trkpt lat="45.23297794561223" lon="9.03138043038276"><ele>65.0</ele><time>2026-05-01T16:54:40Z</time></trkpt><trkpt lat="45.23319726387446" lon="9.031577845869004"><ele>65.0</ele><time>2026-05-01T16:54:41Z</time></trkpt><trkpt lat="45.23341986599703" lon="9.031772072699138"><ele>65.0</ele><time>2026-05-01T16:54:42Z</time></trkpt><trkpt lat="45.2336350966247" lon="9.031962332558297"><ele>65.0</ele><time>2026-05-01T16:54:43Z</time></trkpt><trkpt lat="45.233856477861195" lon="9.03216015128813"><ele>66.0</ele><time>2026-05-01T16:54:44Z</time></trkpt><trkpt lat="45.234076428647576" lon="9.03235302212862"><ele>67.0</ele><time>2026-05-01T16:54:45Z</time></trkpt><trkpt lat="45.234295559853955" lon="9.0325386193386"><ele>67.0</ele><time>2026-05-01T16:54:46Z</time></trkpt><trkpt lat="45.23451947825286" lon="9.032732838135637"><ele>67.0</ele><time>2026-05-01T16:54:47Z</time></trkpt><trkpt lat="45.234722137988285" lon="9.032918241059212"><ele>67.5</ele><time>2026-05-01T16:54:48Z</time></trkpt><trkpt lat="45.23495116933568" lon="9.033109984822195"><ele>68.0</ele><time>2026-05-01T16:54:49Z</time></trkpt><trkpt lat="45.23517441535993" lon="9.033302952620867"><ele>67.0</ele><time>2026-05-01T16:54:50Z</time></trkpt><trkpt lat="45.23539299772646" lon="9.033498094266408"><ele>66.0</ele><time>2026-05-01T16:54:51Z</time></trkpt><trkpt lat="45.23561492381883" lon="9.033683958695162"><ele>65.5</ele><time>2026-05-01T16:54:52Z</time></trkpt><trkpt lat="45.23583218055118" lon="9.033875426364284"><ele>65.0</ele><time>2026-05-01T16:54:53Z</time></trkpt><trkpt lat="45.23604976403702" lon="9.034064436477788"><ele>66.0</ele><time>2026-05-01T16:54:54Z</time></trkpt><trkpt lat="45.23626949580953" lon="9.034258267318307"><ele>67.0</ele><time>2026-05-01T16:54:55Z</time></trkpt><trkpt lat="45.23649050759641" lon="9.034453330711788"><ele>68.0</ele><time>2026-05-01T16:54:56Z</time></trkpt><trkpt lat="45.23670757895449" lon="9.034644866840742"><ele>69.0</ele><time>2026-05-01T16:54:57Z</time></trkpt><trkpt lat="45.236927819026214" lon="9.034818529133153"><ele>69.0</ele><time>2026-05-01T16:54:58Z</time></trkpt><trkpt lat="45.23715513303217" lon="9.035008048142837"><ele>69.0</ele><time>2026-05-01T16:54:59Z</time></trkpt><trkpt lat="45.237368394190256" lon="9.035204127146795"><ele>69.0</ele><time>2026-05-01T16:55:00Z</time></trkpt><trkpt lat="45.2375850707788" lon="9.035401702233585"><ele>69.0</ele><time>2026-05-01T16:55:01Z</time></trkpt><trkpt lat="45.23780575344425" lon="9.035589107448097"><ele>69.0</ele><time>2026-05-01T16:55:02Z</time></trkpt><trkpt lat="45.23802600912278" lon="9.035776305596825"><ele>69.0</ele><time>2026-05-01T16:55:03Z</time></trkpt><trkpt lat="45.238240707633665" lon="9.035966828408325"><ele>70.5</ele><time>2026-05-01T16:55:04Z</time></trkpt><trkpt lat="45.23845809260918" lon="9.0361683756082"><ele>72.0</ele><time>2026-05-01T16:55:05Z</time></trkpt><trkpt lat="45.23868002719042" lon="9.0363438724158"><ele>72.0</ele><time>2026-05-01T16:55:06Z</time></trkpt><trkpt lat="45.238898938295776" lon="9.036535190913243"><ele>72.0</ele><time>2026-05-01T16:55:07Z</time></trkpt><trkpt lat="45.23911405558976" lon="9.036724745246692"><ele>75.5</ele><time>2026-05-01T16:55:08Z</time></trkpt><trkpt lat="45.23932938570069" lon="9.03691662337791"><ele>79.0</ele><time>2026-05-01T16:55:09Z</time></trkpt><trkpt lat="45.23954797589171" lon="9.037102871926349"><ele>79.0</ele><time>2026-05-01T16:55:10Z</time></trkpt><trkpt lat="45.23975815199368" lon="9.037273178282897"><ele>79.0</ele><time>2026-05-01T16:55:11Z</time></trkpt><trkpt lat="45.23997902222862" lon="9.037476172709871"><ele>80.0</ele><time>2026-05-01T16:55:12Z</time></trkpt><trkpt lat="45.24020789976533" lon="9.037657570279206"><ele>81.0</ele><time>2026-05-01T16:55:13Z</time></trkpt><trkpt lat="45.240418386917135" lon="9.037852465985058"><ele>81.5</ele><time>2026-05-01T16:55:14Z</time></trkpt><trkpt lat="45.24063892851367" lon="9.038043952464598"><ele>82.0</ele><time>2026-05-01T16:55:15Z</time></trkpt><trkpt lat="45.24085812896588" lon="9.038234271490387"><ele>83.0</ele><time>2026-05-01T16:55:16Z</time></trkpt><trkpt lat="45.24107168243755" lon="9.038432040738668"><ele>84.0</ele><time>2026-05-01T16:55:17Z</time></trkpt><trkpt lat="45.24129605019056" lon="9.038618712045196"><ele>84.5</ele><time>2026-05-01T16:55:17.999Z</time></trkpt><trkpt lat="45.24151903480503" lon="9.038804843393152"><ele>85.0</ele><time>2026-05-01T16:55:18.999Z</time></trkpt><trkpt lat="45.24174205489191" lon="9.038991836542664"><ele>85.5</ele><time>2026-05-01T16:55:19.999Z</time></trkpt><trkpt lat="45.24195558009107" lon="9.039191062922283"><ele>86.0</ele><time>2026-05-01T16:55:21Z</time></trkpt><trkpt lat="45.24217875456323" lon="9.039380321745341"><ele>85.0</ele><time>2026-05-01T16:55:22Z</time></trkpt><trkpt lat="45.24239964600866" lon="9.039571821967735"><ele>84.0</ele><time>2026-05-01T16:55:23Z</time></trkpt><trkpt lat="45.24261961486546" lon="9.039754164141781"><ele>84.0</ele><time>2026-05-01T16:55:24Z</time></trkpt><trkpt lat="45.24283941372578" lon="9.039942317708023"><ele>84.0</ele><time>2026-05-01T16:55:25Z</time></trkpt><trkpt lat="45.24306974229071" lon="9.040136738624263"><ele>85.5</ele><time>2026-05-01T16:55:26Z</time></trkpt><trkpt lat="45.24328375673166" lon="9.040320735114337"><ele>87.0</ele><time>2026-05-01T16:55:27Z</time></trkpt><trkpt lat="45.24349415142921" lon="9.040520121329616"><ele>87.0</ele><time>2026-05-01T16:55:28Z</time></trkpt><trkpt lat="45.243709377532795" lon="9.04071216657288"><ele>87.0</ele><time>2026-05-01T16:55:29Z</time></trkpt><trkpt lat="45.24392407541052" lon="9.040901908673986"><ele>88.0</ele><time>2026-05-01T16:55:30Z</time></trkpt><trkpt lat="45.24415307850794" lon="9.04108359911237"><ele>89.0</ele><time>2026-05-01T16:55:31Z</time></trkpt><trkpt lat="45.24438174668366" lon="9.041266081401075"><ele>89.0</ele><time>2026-05-01T16:55:32Z</time></trkpt><trkpt lat="45.244614238430465" lon="9.041429435688759"><ele>89.0</ele><time>2026-05-01T16:55:33Z</time></trkpt><trkpt lat="45.244839297278205" lon="9.041593696154685"><ele>90.0</ele><time>2026-05-01T16:55:34Z</time></trkpt><trkpt lat="45.24506139350464" lon="9.041735219396411"><ele>91.0</ele><time>2026-05-01T16:55:35Z</time></trkpt><trkpt lat="45.24529613891159" lon="9.041887660776457"><ele>91.0</ele><time>2026-05-01T16:55:36Z</time></trkpt><trkpt lat="45.245547169104604" lon="9.042030416261635"><ele>91.0</ele><time>2026-05-01T16:55:37Z</time></trkpt><trkpt lat="45.24578079513141" lon="9.042174391855806"><ele>91.0</ele><time>2026-05-01T16:55:38Z</time></trkpt><trkpt lat="45.246012386580624" lon="9.042321214383719"><ele>91.0</ele><time>2026-05-01T16:55:39Z</time></trkpt><trkpt lat="45.24623441596343" lon="9.042484163321827"><ele>90.0</ele><time>2026-05-01T16:55:40Z</time></trkpt><trkpt lat="45.246474983867344" lon="9.042638020215328"><ele>89.0</ele><time>2026-05-01T16:55:41Z</time></trkpt><trkpt lat="45.246712509069695" lon="9.042787164181737"><ele>89.0</ele><time>2026-05-01T16:55:42Z</time></trkpt><trkpt lat="45.246949243534935" lon="9.04293623417276"><ele>89.0</ele><time>2026-05-01T16:55:43Z</time></trkpt><trkpt lat="45.247184037411266" lon="9.043082945488516"><ele>89.0</ele><time>2026-05-01T16:55:44Z</time></trkpt><trkpt lat="45.24741542442232" lon="9.04322717519092"><ele>89.0</ele><time>2026-05-01T16:55:45Z</time></trkpt><trkpt lat="45.24765369188275" lon="9.04337586128628"><ele>89.0</ele><time>2026-05-01T16:55:46Z</time></trkpt><trkpt lat="45.247890297676946" lon="9.043527679867724"><ele>89.0</ele><time>2026-05-01T16:55:47Z</time></trkpt><trkpt lat="45.24812596857949" lon="9.043680965898327"><ele>90.5</ele><time>2026-05-01T16:55:48Z</time></trkpt><trkpt lat="45.248360557896845" lon="9.0438340715186"><ele>92.0</ele><time>2026-05-01T16:55:49Z</time></trkpt><trkpt lat="45.248599071649316" lon="9.043981528802371"><ele>91.5</ele><time>2026-05-01T16:55:50Z</time></trkpt><trkpt lat="45.24883418495745" lon="9.044132089320307"><ele>91.0</ele><time>2026-05-01T16:55:51Z</time></trkpt><trkpt lat="45.24906775233598" lon="9.044281642389434"><ele>92.0</ele><time>2026-05-01T16:55:52Z</time></trkpt><trkpt lat="45.2493060997551" lon="9.044431154330093"><ele>93.0</ele><time>2026-05-01T16:55:53Z</time></trkpt><trkpt lat="45.2495374368742" lon="9.044589296601163"><ele>93.0</ele><time>2026-05-01T16:55:54Z</time></trkpt><trkpt lat="45.24978179116215" lon="9.0447378927795"><ele>93.0</ele><time>2026-05-01T16:55:55Z</time></trkpt><trkpt lat="45.250010526599674" lon="9.044889087122545"><ele>91.5</ele><time>2026-05-01T16:55:56Z</time></trkpt><trkpt lat="45.250246324210245" lon="9.04504142570878"><ele>90.0</ele><time>2026-05-01T16:55:57Z</time></trkpt><trkpt lat="45.25048087260423" lon="9.04518582395239"><ele>91.0</ele><time>2026-05-01T16:55:58Z</time></trkpt><trkpt lat="45.250712458179926" lon="9.045336911737131"><ele>92.0</ele><time>2026-05-01T16:55:59Z</time></trkpt><trkpt lat="45.25094674471166" lon="9.0454868883633"><ele>92.0</ele><time>2026-05-01T16:56:00Z</time></trkpt><trkpt lat="45.2511762661991" lon="9.045633520071636"><ele>92.0</ele><time>2026-05-01T16:56:01Z</time></trkpt><trkpt lat="45.25141102659751" lon="9.045784336266548"><ele>92.0</ele><time>2026-05-01T16:56:02Z</time></trkpt><trkpt lat="45.251647725897946" lon="9.045936087031375"><ele>92.0</ele><time>2026-05-01T16:56:03Z</time></trkpt><trkpt lat="45.25189327831713" lon="9.046094074923856"><ele>92.0</ele><time>2026-05-01T16:56:04Z</time></trkpt><trkpt lat="45.25213105142872" lon="9.046248690494243"><ele>92.0</ele><time>2026-05-01T16:56:05Z</time></trkpt><trkpt lat="45.25237213035954" lon="9.046404538317237"><ele>92.0</ele><time>2026-05-01T16:56:06Z</time></trkpt><trkpt lat="45.25262482773567" lon="9.046563637159707"><ele>92.0</ele><time>2026-05-01T16:56:07Z</time></trkpt><trkpt lat="45.25288315017931" lon="9.046722422472843"><ele>92.0</ele><time>2026-05-01T16:56:08Z</time></trkpt><trkpt lat="45.2531464957291" lon="9.046894371546593"><ele>92.0</ele><time>2026-05-01T16:56:09Z</time></trkpt><trkpt lat="45.25343400974614" lon="9.047093348864307"><ele>92.0</ele><time>2026-05-01T16:56:10Z</time></trkpt><trkpt lat="45.25371748049589" lon="9.047271793050923"><ele>92.0</ele><time>2026-05-01T16:56:11Z</time></trkpt><trkpt lat="45.2539976422557" lon="9.047452276937827"><ele>92.0</ele><time>2026-05-01T16:56:12Z</time></trkpt><trkpt lat="45.25427843559785" lon="9.047620332682815"><ele>92.0</ele><time>2026-05-01T16:56:13Z</time></trkpt><trkpt lat="45.25455249875815" lon="9.047801985635182"><ele>92.5</ele><time>2026-05-01T16:56:14Z</time></trkpt><trkpt lat="45.25483091736033" lon="9.04797524819207"><ele>93.0</ele><time>2026-05-01T16:56:15Z</time></trkpt><trkpt lat="45.25510425527375" lon="9.048147648990648"><ele>93.5</ele><time>2026-05-01T16:56:16Z</time></trkpt><trkpt lat="45.255382891107445" lon="9.048318430890319"><ele>94.0</ele><time>2026-05-01T16:56:17Z</time></trkpt><trkpt lat="45.255657837479276" lon="9.048482092966646"><ele>92.5</ele><time>2026-05-01T16:56:18Z</time></trkpt><trkpt lat="45.25593679812828" lon="9.04865350772821"><ele>91.0</ele><time>2026-05-01T16:56:19Z</time></trkpt><trkpt lat="45.25621447173233" lon="9.048827239493603"><ele>91.5</ele><time>2026-05-01T16:56:20Z</time></trkpt><trkpt lat="45.25648568969233" lon="9.049009177938126"><ele>92.0</ele><time>2026-05-01T16:56:21Z</time></trkpt><trkpt lat="45.256758884193005" lon="9.049186238640951"><ele>92.0</ele><time>2026-05-01T16:56:22Z</time></trkpt><trkpt lat="45.25703838683178" lon="9.0493708297809"><ele>92.0</ele><time>2026-05-01T16:56:23Z</time></trkpt><trkpt lat="45.257308344366315" lon="9.04955989650299"><ele>91.5</ele><time>2026-05-01T16:56:24Z</time></trkpt><trkpt lat="45.257582990570505" lon="9.049747431602865"><ele>91.0</ele><time>2026-05-01T16:56:25Z</time></trkpt><trkpt lat="45.25785434817956" lon="9.049922629503698"><ele>91.0</ele><time>2026-05-01T16:56:26Z</time></trkpt><trkpt lat="45.25812903471919" lon="9.050097899190058"><ele>91.0</ele><time>2026-05-01T16:56:27Z</time></trkpt><trkpt lat="45.258407642151646" lon="9.050274076252341"><ele>91.0</ele><time>2026-05-01T16:56:28Z</time></trkpt><trkpt lat="45.25868255481284" lon="9.05045174054842"><ele>91.0</ele><time>2026-05-01T16:56:29Z</time></trkpt><trkpt lat="45.258957825074404" lon="9.050625383186574"><ele>92.0</ele><time>2026-05-01T16:56:30Z</time></trkpt><trkpt lat="45.25923427852394" lon="9.050802443600624"><ele>93.0</ele><time>2026-05-01T16:56:31Z</time></trkpt><trkpt lat="45.25950134427046" lon="9.05099090689935"><ele>93.0</ele><time>2026-05-01T16:56:32Z</time></trkpt><trkpt lat="45.259782737944555" lon="9.051164191676515"><ele>93.0</ele><time>2026-05-01T16:56:33Z</time></trkpt><trkpt lat="45.260060706476665" lon="9.051339976448006"><ele>92.5</ele><time>2026-05-01T16:56:34Z</time></trkpt><trkpt lat="45.26033444776982" lon="9.051520489487116"><ele>92.0</ele><time>2026-05-01T16:56:35Z</time></trkpt><trkpt lat="45.26061033251514" lon="9.051696970453248"><ele>92.0</ele><time>2026-05-01T16:56:36Z</time></trkpt><trkpt lat="45.26088833727076" lon="9.051872334532298"><ele>92.0</ele><time>2026-05-01T16:56:37Z</time></trkpt><trkpt lat="45.26116546350725" lon="9.052052266175304"><ele>92.0</ele><time>2026-05-01T16:56:38Z</time></trkpt><trkpt lat="45.26143954243094" lon="9.052233245025487"><ele>92.0</ele><time>2026-05-01T16:56:39Z</time></trkpt><trkpt lat="45.261714190860744" lon="9.05241046159348"><ele>91.5</ele><time>2026-05-01T16:56:40Z</time></trkpt><trkpt lat="45.2619873202975" lon="9.052583272994632"><ele>91.0</ele><time>2026-05-01T16:56:41Z</time></trkpt><trkpt lat="45.26226282092021" lon="9.052757893804317"><ele>90.5</ele><time>2026-05-01T16:56:42Z</time></trkpt><trkpt lat="45.26253694010609" lon="9.05292957068721"><ele>90.0</ele><time>2026-05-01T16:56:43Z</time></trkpt><trkpt lat="45.26281430570973" lon="9.053102127349696"><ele>90.0</ele><time>2026-05-01T16:56:44Z</time></trkpt><trkpt lat="45.26309402984198" lon="9.05326608273162"><ele>90.0</ele><time>2026-05-01T16:56:45Z</time></trkpt><trkpt lat="45.263376894748234" lon="9.05341671397478"><ele>90.5</ele><time>2026-05-01T16:56:46Z</time></trkpt><trkpt lat="45.263665546624196" lon="9.053553510132055"><ele>91.0</ele><time>2026-05-01T16:56:47Z</time></trkpt><trkpt lat="45.26395397078688" lon="9.053678924161137"><ele>91.5</ele><time>2026-05-01T16:56:48Z</time></trkpt><trkpt lat="45.26423811294622" lon="9.053794583660812"><ele>92.0</ele><time>2026-05-01T16:56:49Z</time></trkpt><trkpt lat="45.264535002884124" lon="9.053905361992756"><ele>92.0</ele><time>2026-05-01T16:56:50Z</time></trkpt><trkpt lat="45.26482938634065" lon="9.05400911591688"><ele>92.0</ele><time>2026-05-01T16:56:51Z</time></trkpt><trkpt lat="45.26512186085957" lon="9.054115846034449"><ele>92.0</ele><time>2026-05-01T16:56:52Z</time></trkpt><trkpt lat="45.26541518014521" lon="9.05422484195316"><ele>92.0</ele><time>2026-05-01T16:56:53Z</time></trkpt><trkpt lat="45.26570754132014" lon="9.05433871399135"><ele>91.5</ele><time>2026-05-01T16:56:54Z</time></trkpt><trkpt lat="45.26599849563801" lon="9.054451787026826"><ele>91.0</ele><time>2026-05-01T16:56:55Z</time></trkpt><trkpt lat="45.2662916618364" lon="9.054563668802398"><ele>91.0</ele><time>2026-05-01T16:56:56Z</time></trkpt><trkpt lat="45.26658169187558" lon="9.054666960953847"><ele>91.0</ele><time>2026-05-01T16:56:57Z</time></trkpt><trkpt lat="45.26687301942158" lon="9.054774471453548"><ele>91.0</ele><time>2026-05-01T16:56:58Z</time></trkpt><trkpt lat="45.26716636437219" lon="9.054877012894043"><ele>91.0</ele><time>2026-05-01T16:56:59Z</time></trkpt><trkpt lat="45.267460792698856" lon="9.054983481667122"><ele>91.0</ele><time>2026-05-01T16:57:00Z</time></trkpt><trkpt lat="45.26775634739764" lon="9.055090570135395"><ele>91.0</ele><time>2026-05-01T16:57:01Z</time></trkpt><trkpt lat="45.26804809384299" lon="9.055193270219526"><ele>91.0</ele><time>2026-05-01T16:57:02Z</time></trkpt><trkpt lat="45.26834032779992" lon="9.05529894265353"><ele>91.0</ele><time>2026-05-01T16:57:03Z</time></trkpt><trkpt lat="45.26863399997335" lon="9.05541160985682"><ele>91.0</ele><time>2026-05-01T16:57:04Z</time></trkpt><trkpt lat="45.26892690884652" lon="9.055527037397157"><ele>91.0</ele><time>2026-05-01T16:57:05Z</time></trkpt><trkpt lat="45.26921977632763" lon="9.055634100797914"><ele>91.0</ele><time>2026-05-01T16:57:06Z</time></trkpt><trkpt lat="45.26951091308276" lon="9.055745972802896"><ele>91.0</ele><time>2026-05-01T16:57:07Z</time></trkpt><trkpt lat="45.26980474910074" lon="9.05585738393226"><ele>92.0</ele><time>2026-05-01T16:57:08Z</time></trkpt><trkpt lat="45.270097558729546" lon="9.05596942035988"><ele>93.0</ele><time>2026-05-01T16:57:09Z</time></trkpt><trkpt lat="45.270390726917334" lon="9.056075625641686"><ele>93.0</ele><time>2026-05-01T16:57:10Z</time></trkpt><trkpt lat="45.27068556100036" lon="9.056183490198718"><ele>93.0</ele><time>2026-05-01T16:57:11Z</time></trkpt><trkpt lat="45.27098088450689" lon="9.056290840206536"><ele>93.0</ele><time>2026-05-01T16:57:12Z</time></trkpt><trkpt lat="45.27127385124726" lon="9.056395311867297"><ele>93.0</ele><time>2026-05-01T16:57:13Z</time></trkpt><trkpt lat="45.271562778492466" lon="9.056505114255195"><ele>93.0</ele><time>2026-05-01T16:57:14Z</time></trkpt><trkpt lat="45.2718563895333" lon="9.056612045875752"><ele>93.0</ele><time>2026-05-01T16:57:15Z</time></trkpt><trkpt lat="45.27215856498716" lon="9.056708980851292"><ele>93.5</ele><time>2026-05-01T16:57:16Z</time></trkpt><trkpt lat="45.27245072359639" lon="9.056824536248985"><ele>94.0</ele><time>2026-05-01T16:57:17Z</time></trkpt><trkpt lat="45.27274280698989" lon="9.056933844507371"><ele>94.0</ele><time>2026-05-01T16:57:18Z</time></trkpt><trkpt lat="45.27303409644513" lon="9.057045113095574"><ele>94.0</ele><time>2026-05-01T16:57:19Z</time></trkpt><trkpt lat="45.27332773185259" lon="9.057151452406956"><ele>93.5</ele><time>2026-05-01T16:57:20Z</time></trkpt><trkpt lat="45.27361871951684" lon="9.057258699741677"><ele>93.0</ele><time>2026-05-01T16:57:21Z</time></trkpt><trkpt lat="45.27391527867093" lon="9.057365661934432"><ele>93.0</ele><time>2026-05-01T16:57:21.999Z</time></trkpt><trkpt lat="45.27420784513129" lon="9.057472058992277"><ele>93.0</ele><time>2026-05-01T16:57:22.999Z</time></trkpt><trkpt lat="45.274497561173945" lon="9.057579066925141"><ele>92.5</ele><time>2026-05-01T16:57:23.999Z</time></trkpt><trkpt lat="45.27478926649504" lon="9.057686089007557"><ele>92.0</ele><time>2026-05-01T16:57:24.999Z</time></trkpt><trkpt lat="45.275083241561866" lon="9.057793418885499"><ele>92.0</ele><time>2026-05-01T16:57:25.999Z</time></trkpt><trkpt lat="45.27537675847482" lon="9.057900786485126"><ele>92.0</ele><time>2026-05-01T16:57:27Z</time></trkpt><trkpt lat="45.275666459691614" lon="9.058014276825796"><ele>92.5</ele><time>2026-05-01T16:57:28Z</time></trkpt><trkpt lat="45.275959297432955" lon="9.058121703547107"><ele>93.0</ele><time>2026-05-01T16:57:29Z</time></trkpt><trkpt lat="45.276254268216825" lon="9.058230145076697"><ele>93.0</ele><time>2026-05-01T16:57:30Z</time></trkpt><trkpt lat="45.2765360997631" lon="9.058334902349982"><ele>93.0</ele><time>2026-05-01T16:57:31Z</time></trkpt><trkpt lat="45.276787488800146" lon="9.058427120625709"><ele>93.0</ele><time>2026-05-01T16:57:32Z</time></trkpt><trkpt lat="45.27702926006852" lon="9.058510574094745"><ele>93.0</ele><time>2026-05-01T16:57:33Z</time></trkpt><trkpt lat="45.27726976957864" lon="9.05860073012556"><ele>93.0</ele><time>2026-05-01T16:57:34Z</time></trkpt><trkpt lat="45.27752237311047" lon="9.058692550295467"><ele>93.0</ele><time>2026-05-01T16:57:35Z</time></trkpt><trkpt lat="45.27777277405244" lon="9.058782946978253"><ele>93.0</ele><time>2026-05-01T16:57:36Z</time></trkpt><trkpt lat="45.27803124127374" lon="9.058875702906887"><ele>93.0</ele><time>2026-05-01T16:57:37Z</time></trkpt><trkpt lat="45.27828796083303" lon="9.058969211527879"><ele>92.5</ele><time>2026-05-01T16:57:38Z</time></trkpt><trkpt lat="45.27855097012813" lon="9.059066750750011"><ele>92.0</ele><time>2026-05-01T16:57:39Z</time></trkpt><trkpt lat="45.27881163499768" lon="9.05916565330529"><ele>93.0</ele><time>2026-05-01T16:57:40Z</time></trkpt><trkpt lat="45.27907088276236" lon="9.059260923593781"><ele>94.0</ele><time>2026-05-01T16:57:41Z</time></trkpt><trkpt lat="45.27932815531283" lon="9.059352074449794"><ele>94.0</ele><time>2026-05-01T16:57:42Z</time></trkpt><trkpt lat="45.27958658684697" lon="9.059448271040369"><ele>94.0</ele><time>2026-05-01T16:57:43Z</time></trkpt><trkpt lat="45.279848570182814" lon="9.059537573600682"><ele>94.0</ele><time>2026-05-01T16:57:44Z</time></trkpt><trkpt lat="45.28012399136567" lon="9.059636251814354"><ele>94.0</ele><time>2026-05-01T16:57:45Z</time></trkpt><trkpt lat="45.28041468009769" lon="9.05973906777866"><ele>94.5</ele><time>2026-05-01T16:57:46Z</time></trkpt><trkpt lat="45.28070787235712" lon="9.05984027442383"><ele>95.0</ele><time>2026-05-01T16:57:47Z</time></trkpt><trkpt lat="45.2809981542574" lon="9.059945740117314"><ele>95.0</ele><time>2026-05-01T16:57:48Z</time></trkpt><trkpt lat="45.28127919743226" lon="9.06004715002995"><ele>95.0</ele><time>2026-05-01T16:57:49Z</time></trkpt><trkpt lat="45.28155599508938" lon="9.060142134362534"><ele>95.0</ele><time>2026-05-01T16:57:50Z</time></trkpt><trkpt lat="45.2818185030412" lon="9.060234358961445"><ele>95.0</ele><time>2026-05-01T16:57:51Z</time></trkpt><trkpt lat="45.28209316391087" lon="9.06032481842655"><ele>95.0</ele><time>2026-05-01T16:57:52Z</time></trkpt><trkpt lat="45.282369898090394" lon="9.06041922678374"><ele>95.0</ele><time>2026-05-01T16:57:53Z</time></trkpt><trkpt lat="45.28265612824596" lon="9.060515514934412"><ele>95.0</ele><time>2026-05-01T16:57:54Z</time></trkpt><trkpt lat="45.282956822952336" lon="9.060619070395942"><ele>95.0</ele><time>2026-05-01T16:57:55Z</time></trkpt><trkpt lat="45.283288935672225" lon="9.060726179427421"><ele>94.5</ele><time>2026-05-01T16:57:56Z</time></trkpt><trkpt lat="45.28362644029676" lon="9.060850212831065"><ele>94.0</ele><time>2026-05-01T16:57:57Z</time></trkpt><trkpt lat="45.283956805289606" lon="9.060984684815942"><ele>93.5</ele><time>2026-05-01T16:57:58Z</time></trkpt><trkpt lat="45.284291992934136" lon="9.061124088358824"><ele>93.0</ele><time>2026-05-01T16:57:59Z</time></trkpt><trkpt lat="45.284629641777286" lon="9.061255497429212"><ele>93.0</ele><time>2026-05-01T16:58:00Z</time></trkpt><trkpt lat="45.28495945644999" lon="9.061382301363004"><ele>93.0</ele><time>2026-05-01T16:58:01Z</time></trkpt><trkpt lat="45.285286805457496" lon="9.061498377620048"><ele>93.5</ele><time>2026-05-01T16:58:02Z</time></trkpt><trkpt lat="45.285601823618066" lon="9.061614092297727"><ele>94.0</ele><time>2026-05-01T16:58:03Z</time></trkpt><trkpt lat="45.28591423754365" lon="9.061725020476327"><ele>94.0</ele><time>2026-05-01T16:58:04Z</time></trkpt><trkpt lat="45.28622363772192" lon="9.061846472492912"><ele>94.0</ele><time>2026-05-01T16:58:05Z</time></trkpt><trkpt lat="45.28653255455134" lon="9.061976697819775"><ele>94.0</ele><time>2026-05-01T16:58:06Z</time></trkpt><trkpt lat="45.28684819847857" lon="9.062102495607443"><ele>94.0</ele><time>2026-05-01T16:58:07Z</time></trkpt><trkpt lat="45.287164158341085" lon="9.06222437754696"><ele>94.5</ele><time>2026-05-01T16:58:08Z</time></trkpt><trkpt lat="45.287479667650835" lon="9.062341843650708"><ele>95.0</ele><time>2026-05-01T16:58:09Z</time></trkpt><trkpt lat="45.28779852690646" lon="9.062463229957235"><ele>95.0</ele><time>2026-05-01T16:58:10Z</time></trkpt><trkpt lat="45.28811856051042" lon="9.062577805388933"><ele>95.0</ele><time>2026-05-01T16:58:11Z</time></trkpt><trkpt lat="45.28843926989142" lon="9.062694075066256"><ele>95.0</ele><time>2026-05-01T16:58:12Z</time></trkpt><trkpt lat="45.28876051985092" lon="9.062813059280671"><ele>95.0</ele><time>2026-05-01T16:58:13Z</time></trkpt><trkpt lat="45.28908464732738" lon="9.062927597973532"><ele>94.5</ele><time>2026-05-01T16:58:14Z</time></trkpt><trkpt lat="45.289404609791525" lon="9.06304337897511"><ele>94.0</ele><time>2026-05-01T16:58:15Z</time></trkpt><trkpt lat="45.28972708768545" lon="9.063160218579462"><ele>94.0</ele><time>2026-05-01T16:58:16Z</time></trkpt><trkpt lat="45.29005139042456" lon="9.063278562615574"><ele>94.0</ele><time>2026-05-01T16:58:17Z</time></trkpt><trkpt lat="45.29037667669902" lon="9.06340223702919"><ele>95.0</ele><time>2026-05-01T16:58:18Z</time></trkpt><trkpt lat="45.29070205047892" lon="9.06352434147004"><ele>96.0</ele><time>2026-05-01T16:58:19Z</time></trkpt><trkpt lat="45.29102509633694" lon="9.063645768738365"><ele>96.0</ele><time>2026-05-01T16:58:20Z</time></trkpt><trkpt lat="45.2913507134529" lon="9.063766498703002"><ele>96.0</ele><time>2026-05-01T16:58:21Z</time></trkpt><trkpt lat="45.29167794619181" lon="9.063887255659209"><ele>96.0</ele><time>2026-05-01T16:58:22Z</time></trkpt><trkpt lat="45.292006629433864" lon="9.064005722975947"><ele>96.0</ele><time>2026-05-01T16:58:23Z</time></trkpt><trkpt lat="45.29233637502008" lon="9.064126370115511"><ele>96.0</ele><time>2026-05-01T16:58:24Z</time></trkpt><trkpt lat="45.29267141733466" lon="9.06425908459813"><ele>96.0</ele><time>2026-05-01T16:58:25Z</time></trkpt><trkpt lat="45.293010761823595" lon="9.064401177520795"><ele>94.5</ele><time>2026-05-01T16:58:26Z</time></trkpt><trkpt lat="45.293323466081794" lon="9.064573122985626"><ele>93.0</ele><time>2026-05-01T16:58:27Z</time></trkpt><trkpt lat="45.29363992609496" lon="9.064768227560632"><ele>94.0</ele><time>2026-05-01T16:58:28Z</time></trkpt><trkpt lat="45.293956147194926" lon="9.064980795327058"><ele>95.0</ele><time>2026-05-01T16:58:29Z</time></trkpt><trkpt lat="45.294271193225974" lon="9.065203893353912"><ele>95.0</ele><time>2026-05-01T16:58:30Z</time></trkpt><trkpt lat="45.29458512249108" lon="9.065421630015575"><ele>95.0</ele><time>2026-05-01T16:58:31Z</time></trkpt><trkpt lat="45.29490170217102" lon="9.065633296411427"><ele>95.0</ele><time>2026-05-01T16:58:32Z</time></trkpt><trkpt lat="45.2952159772524" lon="9.0658452228152"><ele>95.0</ele><time>2026-05-01T16:58:33Z</time></trkpt><trkpt lat="45.29553004072489" lon="9.06605565754501"><ele>94.5</ele><time>2026-05-01T16:58:34Z</time></trkpt><trkpt lat="45.29584450115365" lon="9.066264162443273"><ele>94.0</ele><time>2026-05-01T16:58:35Z</time></trkpt><trkpt lat="45.29615813896151" lon="9.066476519720407"><ele>94.0</ele><time>2026-05-01T16:58:36Z</time></trkpt><trkpt lat="45.296475375097714" lon="9.066689007784289"><ele>94.0</ele><time>2026-05-01T16:58:37Z</time></trkpt><trkpt lat="45.29679373203209" lon="9.066901627498153"><ele>94.0</ele><time>2026-05-01T16:58:38Z</time></trkpt><trkpt lat="45.297111299456375" lon="9.067114005014176"><ele>94.0</ele><time>2026-05-01T16:58:39Z</time></trkpt><trkpt lat="45.29743062549883" lon="9.067326898812324"><ele>94.0</ele><time>2026-05-01T16:58:40Z</time></trkpt><trkpt lat="45.29775332782185" lon="9.067540939639978"><ele>94.0</ele><time>2026-05-01T16:58:41Z</time></trkpt><trkpt lat="45.298071930277416" lon="9.067751883584123"><ele>93.5</ele><time>2026-05-01T16:58:42Z</time></trkpt><trkpt lat="45.29839504978303" lon="9.067966520961976"><ele>93.0</ele><time>2026-05-01T16:58:43Z</time></trkpt><trkpt lat="45.298716613929024" lon="9.06818230302353"><ele>94.0</ele><time>2026-05-01T16:58:44Z</time></trkpt><trkpt lat="45.29904019909889" lon="9.06840264817846"><ele>95.0</ele><time>2026-05-01T16:58:45Z</time></trkpt><trkpt lat="45.2993619087765" lon="9.068620066901925"><ele>95.0</ele><time>2026-05-01T16:58:46Z</time></trkpt><trkpt lat="45.29968325729545" lon="9.068839612129636"><ele>95.0</ele><time>2026-05-01T16:58:47Z</time></trkpt><trkpt lat="45.300004738102665" lon="9.069053242160638"><ele>95.5</ele><time>2026-05-01T16:58:48Z</time></trkpt><trkpt lat="45.30032649800424" lon="9.069268598485204"><ele>96.0</ele><time>2026-05-01T16:58:49Z</time></trkpt><trkpt lat="45.300646783379136" lon="9.069485155596322"><ele>96.0</ele><time>2026-05-01T16:58:50Z</time></trkpt><trkpt lat="45.30096670620693" lon="9.069697548489186"><ele>96.0</ele><time>2026-05-01T16:58:51Z</time></trkpt><trkpt lat="45.30128696645501" lon="9.069912054239278"><ele>96.0</ele><time>2026-05-01T16:58:52Z</time></trkpt><trkpt lat="45.30160457051059" lon="9.070116037016247"><ele>96.0</ele><time>2026-05-01T16:58:53Z</time></trkpt><trkpt lat="45.30192351085702" lon="9.070335933435466"><ele>96.0</ele><time>2026-05-01T16:58:54Z</time></trkpt><trkpt lat="45.30222420689095" lon="9.07054136021995"><ele>96.0</ele><time>2026-05-01T16:58:55Z</time></trkpt><trkpt lat="45.3025028510539" lon="9.070723688477278"><ele>95.5</ele><time>2026-05-01T16:58:56Z</time></trkpt><trkpt lat="45.30276572359673" lon="9.070903572169698"><ele>95.0</ele><time>2026-05-01T16:58:57Z</time></trkpt><trkpt lat="45.3030186525883" lon="9.07107509141494"><ele>95.0</ele><time>2026-05-01T16:58:58Z</time></trkpt><trkpt lat="45.303276365178476" lon="9.071249266708978"><ele>95.0</ele><time>2026-05-01T16:58:59Z</time></trkpt><trkpt lat="45.3035386396899" lon="9.071433355502021"><ele>95.0</ele><time>2026-05-01T16:59:00Z</time></trkpt><trkpt lat="45.3037975141189" lon="9.07161067312974"><ele>95.0</ele><time>2026-05-01T16:59:01Z</time></trkpt><trkpt lat="45.30405860942284" lon="9.071786521611694"><ele>95.5</ele><time>2026-05-01T16:59:02Z</time></trkpt><trkpt lat="45.304322335135375" lon="9.071961304669593"><ele>96.0</ele><time>2026-05-01T16:59:03Z</time></trkpt><trkpt lat="45.30458944704315" lon="9.07213948819766"><ele>96.0</ele><time>2026-05-01T16:59:04Z</time></trkpt><trkpt lat="45.30485196873457" lon="9.072312250578776"><ele>96.0</ele><time>2026-05-01T16:59:05Z</time></trkpt><trkpt lat="45.30511107181901" lon="9.072484421277538"><ele>96.0</ele><time>2026-05-01T16:59:06Z</time></trkpt><trkpt lat="45.30536829729264" lon="9.072657863892525"><ele>96.0</ele><time>2026-05-01T16:59:07Z</time></trkpt><trkpt lat="45.30562928549294" lon="9.072829520186158"><ele>96.0</ele><time>2026-05-01T16:59:08Z</time></trkpt><trkpt lat="45.305889147616035" lon="9.073006232008671"><ele>96.0</ele><time>2026-05-01T16:59:09Z</time></trkpt><trkpt lat="45.30615076598877" lon="9.073184664316964"><ele>96.0</ele><time>2026-05-01T16:59:10Z</time></trkpt><trkpt lat="45.30641331689113" lon="9.07336209572965"><ele>96.0</ele><time>2026-05-01T16:59:11Z</time></trkpt><trkpt lat="45.306673997046545" lon="9.073537437570899"><ele>96.0</ele><time>2026-05-01T16:59:12Z</time></trkpt><trkpt lat="45.306932447670796" lon="9.073712593966967"><ele>96.0</ele><time>2026-05-01T16:59:13Z</time></trkpt><trkpt lat="45.307193580467455" lon="9.07388619922252"><ele>96.0</ele><time>2026-05-01T16:59:14Z</time></trkpt><trkpt lat="45.30745645615855" lon="9.074065974242092"><ele>96.0</ele><time>2026-05-01T16:59:15Z</time></trkpt><trkpt lat="45.30771868301752" lon="9.074242611081887"><ele>96.0</ele><time>2026-05-01T16:59:16Z</time></trkpt><trkpt lat="45.30798101431199" lon="9.074417455597537"><ele>96.0</ele><time>2026-05-01T16:59:17Z</time></trkpt><trkpt lat="45.308239624414064" lon="9.074592464813424"><ele>96.0</ele><time>2026-05-01T16:59:18Z</time></trkpt><trkpt lat="45.30850028778666" lon="9.074768407213616"><ele>96.0</ele><time>2026-05-01T16:59:19Z</time></trkpt><trkpt lat="45.30876031556701" lon="9.074955615880723"><ele>94.5</ele><time>2026-05-01T16:59:20Z</time></trkpt><trkpt lat="45.30901641789388" lon="9.075146855457554"><ele>93.0</ele><time>2026-05-01T16:59:21Z</time></trkpt><trkpt lat="45.309266158952724" lon="9.075352848415845"><ele>93.0</ele><time>2026-05-01T16:59:22Z</time></trkpt><trkpt lat="45.30951032738042" lon="9.075571581875703"><ele>93.0</ele><time>2026-05-01T16:59:23Z</time></trkpt><trkpt lat="45.309752166125186" lon="9.075797882171981"><ele>94.5</ele><time>2026-05-01T16:59:24Z</time></trkpt><trkpt lat="45.309988785047985" lon="9.076032700287106"><ele>96.0</ele><time>2026-05-01T16:59:25Z</time></trkpt><trkpt lat="45.31022151298188" lon="9.076269377018473"><ele>96.0</ele><time>2026-05-01T16:59:26Z</time></trkpt><trkpt lat="45.310459007908726" lon="9.076503951659369"><ele>96.0</ele><time>2026-05-01T16:59:27Z</time></trkpt><trkpt lat="45.31069701375198" lon="9.076735202220707"><ele>95.5</ele><time>2026-05-01T16:59:28Z</time></trkpt><trkpt lat="45.31093847766329" lon="9.07696366283834"><ele>95.0</ele><time>2026-05-01T16:59:29Z</time></trkpt><trkpt lat="45.31118028946625" lon="9.077193966207155"><ele>95.5</ele><time>2026-05-01T16:59:30Z</time></trkpt><trkpt lat="45.31141835661739" lon="9.077419526411557"><ele>96.0</ele><time>2026-05-01T16:59:31Z</time></trkpt><trkpt lat="45.31165799845316" lon="9.077644723930787"><ele>96.0</ele><time>2026-05-01T16:59:32Z</time></trkpt><trkpt lat="45.311897612505604" lon="9.07786962486272"><ele>96.0</ele><time>2026-05-01T16:59:33Z</time></trkpt><trkpt lat="45.31213696546997" lon="9.078095167483486"><ele>95.5</ele><time>2026-05-01T16:59:34Z</time></trkpt><trkpt lat="45.31238065383762" lon="9.07832386645531"><ele>95.0</ele><time>2026-05-01T16:59:35Z</time></trkpt><trkpt lat="45.31261795413763" lon="9.078552630277626"><ele>95.0</ele><time>2026-05-01T16:59:36Z</time></trkpt><trkpt lat="45.31285786247004" lon="9.078780215310747"><ele>95.0</ele><time>2026-05-01T16:59:37Z</time></trkpt><trkpt lat="45.3130982519246" lon="9.079006733596115"><ele>95.5</ele><time>2026-05-01T16:59:38Z</time></trkpt><trkpt lat="45.3133386812656" lon="9.079236861871863"><ele>96.0</ele><time>2026-05-01T16:59:39Z</time></trkpt><trkpt lat="45.31357626477265" lon="9.079466291487098"><ele>96.0</ele><time>2026-05-01T16:59:40Z</time></trkpt><trkpt lat="45.31381596615625" lon="9.079690612672964"><ele>96.0</ele><time>2026-05-01T16:59:41Z</time></trkpt><trkpt lat="45.314056114291674" lon="9.079917289787089"><ele>97.0</ele><time>2026-05-01T16:59:42Z</time></trkpt><trkpt lat="45.314295921394624" lon="9.08014881784022"><ele>98.0</ele><time>2026-05-01T16:59:43Z</time></trkpt><trkpt lat="45.31454143601903" lon="9.080379600528756"><ele>97.0</ele><time>2026-05-01T16:59:44Z</time></trkpt><trkpt lat="45.31477466197375" lon="9.080610476018208"><ele>96.0</ele><time>2026-05-01T16:59:45Z</time></trkpt><trkpt lat="45.31501257282926" lon="9.08084040808509"><ele>95.5</ele><time>2026-05-01T16:59:46Z</time></trkpt><trkpt lat="45.31525016861943" lon="9.081070255498458"><ele>95.0</ele><time>2026-05-01T16:59:47Z</time></trkpt><trkpt lat="45.31548886505421" lon="9.081300906995159"><ele>95.5</ele><time>2026-05-01T16:59:48Z</time></trkpt><trkpt lat="45.3157287188108" lon="9.081530194313574"><ele>96.0</ele><time>2026-05-01T16:59:49Z</time></trkpt><trkpt lat="45.31596938892646" lon="9.081754322930731"><ele>96.0</ele><time>2026-05-01T16:59:50Z</time></trkpt><trkpt lat="45.31620991004403" lon="9.081982274688118"><ele>96.0</ele><time>2026-05-01T16:59:51Z</time></trkpt><trkpt lat="45.31644838494835" lon="9.082208749081135"><ele>95.5</ele><time>2026-05-01T16:59:52Z</time></trkpt><trkpt lat="45.31668858367044" lon="9.082438387421284"><ele>95.0</ele><time>2026-05-01T16:59:53Z</time></trkpt><trkpt lat="45.31692764547284" lon="9.082667826473164"><ele>95.0</ele><time>2026-05-01T16:59:54Z</time></trkpt><trkpt lat="45.317168650051194" lon="9.082900917922846"><ele>95.0</ele><time>2026-05-01T16:59:55Z</time></trkpt><trkpt lat="45.31740727394991" lon="9.083128431182589"><ele>96.0</ele><time>2026-05-01T16:59:56Z</time></trkpt><trkpt lat="45.31764739297267" lon="9.083354021299934"><ele>97.0</ele><time>2026-05-01T16:59:57Z</time></trkpt><trkpt lat="45.317887007612754" lon="9.083585337941711"><ele>96.5</ele><time>2026-05-01T16:59:58Z</time></trkpt><trkpt lat="45.31812778900712" lon="9.083812917469503"><ele>96.0</ele><time>2026-05-01T16:59:59Z</time></trkpt><trkpt lat="45.31836732463631" lon="9.084040000813811"><ele>96.5</ele><time>2026-05-01T17:00:00Z</time></trkpt><trkpt lat="45.318607057426036" lon="9.084268182729799"><ele>97.0</ele><time>2026-05-01T17:00:01Z</time></trkpt><trkpt lat="45.31884815992488" lon="9.084494809006546"><ele>96.5</ele><time>2026-05-01T17:00:02Z</time></trkpt><trkpt lat="45.31908832043186" lon="9.084719847220278"><ele>96.0</ele><time>2026-05-01T17:00:03Z</time></trkpt><trkpt lat="45.31932842862061" lon="9.084946638211052"><ele>95.5</ele><time>2026-05-01T17:00:04Z</time></trkpt><trkpt lat="45.31956837169104" lon="9.08517368622001"><ele>95.0</ele><time>2026-05-01T17:00:05Z</time></trkpt><trkpt lat="45.31980935193738" lon="9.08540227457011"><ele>96.0</ele><time>2026-05-01T17:00:06Z</time></trkpt><trkpt lat="45.320050942804365" lon="9.085633818036843"><ele>97.0</ele><time>2026-05-01T17:00:07Z</time></trkpt><trkpt lat="45.32028924648106" lon="9.085864060178334"><ele>97.0</ele><time>2026-05-01T17:00:08Z</time></trkpt><trkpt lat="45.32052824857973" lon="9.086091225719345"><ele>97.0</ele><time>2026-05-01T17:00:09Z</time></trkpt><trkpt lat="45.320767514240956" lon="9.086319193749686"><ele>96.5</ele><time>2026-05-01T17:00:10Z</time></trkpt><trkpt lat="45.32100786439981" lon="9.086544155114984"><ele>96.0</ele><time>2026-05-01T17:00:11Z</time></trkpt><trkpt lat="45.32124675137537" lon="9.086764208723856"><ele>96.5</ele><time>2026-05-01T17:00:12Z</time></trkpt><trkpt lat="45.32149565991038" lon="9.086978680398468"><ele>97.0</ele><time>2026-05-01T17:00:13Z</time></trkpt><trkpt lat="45.32174483493708" lon="9.087183538500385"><ele>97.0</ele><time>2026-05-01T17:00:14Z</time></trkpt><trkpt lat="45.322001475940894" lon="9.087370845807184"><ele>97.0</ele><time>2026-05-01T17:00:15Z</time></trkpt><trkpt lat="45.3222663485769" lon="9.087542191704998"><ele>97.5</ele><time>2026-05-01T17:00:16Z</time></trkpt><trkpt lat="45.32252910087138" lon="9.087702739874153"><ele>98.0</ele><time>2026-05-01T17:00:17Z</time></trkpt><trkpt lat="45.322800502619046" lon="9.087855259078358"><ele>98.0</ele><time>2026-05-01T17:00:18Z</time></trkpt><trkpt lat="45.32307078449891" lon="9.088008768896438"><ele>98.0</ele><time>2026-05-01T17:00:19Z</time></trkpt><trkpt lat="45.32334292670687" lon="9.088156131596019"><ele>97.5</ele><time>2026-05-01T17:00:20Z</time></trkpt><trkpt lat="45.323611216898726" lon="9.088306756210923"><ele>97.0</ele><time>2026-05-01T17:00:21Z</time></trkpt><trkpt lat="45.32388025456422" lon="9.08846066899842"><ele>98.0</ele><time>2026-05-01T17:00:22Z</time></trkpt><trkpt lat="45.32414625802143" lon="9.088618444204501"><ele>99.0</ele><time>2026-05-01T17:00:23Z</time></trkpt><trkpt lat="45.32441234863866" lon="9.088773855112892"><ele>99.0</ele><time>2026-05-01T17:00:24Z</time></trkpt><trkpt lat="45.32468094974571" lon="9.088932361045902"><ele>99.0</ele><time>2026-05-01T17:00:25Z</time></trkpt><trkpt lat="45.32495002936647" lon="9.089088961614829"><ele>99.0</ele><time>2026-05-01T17:00:26Z</time></trkpt><trkpt lat="45.32521714201665" lon="9.089240524048789"><ele>99.0</ele><time>2026-05-01T17:00:27Z</time></trkpt><trkpt lat="45.3254854420122" lon="9.089389800055706"><ele>98.5</ele><time>2026-05-01T17:00:28Z</time></trkpt><trkpt lat="45.3257542915991" lon="9.08954201063445"><ele>98.0</ele><time>2026-05-01T17:00:29Z</time></trkpt><trkpt lat="45.32601793063205" lon="9.089695403346564"><ele>98.0</ele><time>2026-05-01T17:00:30Z</time></trkpt><trkpt lat="45.326288296528624" lon="9.089848637245542"><ele>98.0</ele><time>2026-05-01T17:00:31Z</time></trkpt><trkpt lat="45.3265568426324" lon="9.0900017901617"><ele>99.0</ele><time>2026-05-01T17:00:32Z</time></trkpt><trkpt lat="45.3268238082227" lon="9.090153546763306"><ele>100.0</ele><time>2026-05-01T17:00:33Z</time></trkpt><trkpt lat="45.3270934050018" lon="9.090308321535026"><ele>100.5</ele><time>2026-05-01T17:00:34Z</time></trkpt><trkpt lat="45.327357995936715" lon="9.090456044036024"><ele>101.0</ele><time>2026-05-01T17:00:35Z</time></trkpt><trkpt lat="45.327627719025955" lon="9.090612205139706"><ele>100.5</ele><time>2026-05-01T17:00:36Z</time></trkpt><trkpt lat="45.32789884535848" lon="9.090775073485387"><ele>100.0</ele><time>2026-05-01T17:00:37Z</time></trkpt><trkpt lat="45.32815901951726" lon="9.09093903385592"><ele>100.0</ele><time>2026-05-01T17:00:38Z</time></trkpt><trkpt lat="45.32842372677045" lon="9.09109439414764"><ele>100.0</ele><time>2026-05-01T17:00:39Z</time></trkpt><trkpt lat="45.32869296084732" lon="9.091246518493687"><ele>99.5</ele><time>2026-05-01T17:00:40Z</time></trkpt><trkpt lat="45.32896028687704" lon="9.09139964014342"><ele>99.0</ele><time>2026-05-01T17:00:41Z</time></trkpt><trkpt lat="45.329227648958664" lon="9.091550785877283"><ele>99.0</ele><time>2026-05-01T17:00:42Z</time></trkpt><trkpt lat="45.32948794079236" lon="9.09170106123721"><ele>99.0</ele><time>2026-05-01T17:00:43Z</time></trkpt><trkpt lat="45.329729248185586" lon="9.091835282460591"><ele>99.5</ele><time>2026-05-01T17:00:44Z</time></trkpt><trkpt lat="45.329969255356005" lon="9.091968502710957"><ele>100.0</ele><time>2026-05-01T17:00:45Z</time></trkpt><trkpt lat="45.33020350547133" lon="9.092106640387568"><ele>100.0</ele><time>2026-05-01T17:00:46Z</time></trkpt><trkpt lat="45.33043903054953" lon="9.092243073767428"><ele>100.0</ele><time>2026-05-01T17:00:47Z</time></trkpt><trkpt lat="45.33067688654011" lon="9.092380209163442"><ele>100.0</ele><time>2026-05-01T17:00:48Z</time></trkpt><trkpt lat="45.33091878480507" lon="9.09251499807132"><ele>100.0</ele><time>2026-05-01T17:00:49Z</time></trkpt><trkpt lat="45.331159508286134" lon="9.092650782184103"><ele>101.0</ele><time>2026-05-01T17:00:50Z</time></trkpt><trkpt lat="45.33140329760086" lon="9.092788495722601"><ele>102.0</ele><time>2026-05-01T17:00:51Z</time></trkpt><trkpt lat="45.33163917884072" lon="9.092927022340131"><ele>102.0</ele><time>2026-05-01T17:00:52Z</time></trkpt><trkpt lat="45.33188422633116" lon="9.093063388162266"><ele>102.0</ele><time>2026-05-01T17:00:53Z</time></trkpt><trkpt lat="45.332122730245736" lon="9.093198552205045"><ele>100.5</ele><time>2026-05-01T17:00:54Z</time></trkpt><trkpt lat="45.332359690878" lon="9.093332972621516"><ele>99.0</ele><time>2026-05-01T17:00:55Z</time></trkpt><trkpt lat="45.33259811944959" lon="9.093467260414386"><ele>99.0</ele><time>2026-05-01T17:00:56Z</time></trkpt><trkpt lat="45.33282969329558" lon="9.093603699889428"><ele>99.0</ele><time>2026-05-01T17:00:57Z</time></trkpt><trkpt lat="45.33306075993705" lon="9.093739061334839"><ele>98.0</ele><time>2026-05-01T17:00:58Z</time></trkpt><trkpt lat="45.33329325487127" lon="9.093878923867603"><ele>97.0</ele><time>2026-05-01T17:00:59Z</time></trkpt><trkpt lat="45.33352677610853" lon="9.09402135544252"><ele>97.5</ele><time>2026-05-01T17:01:00Z</time></trkpt><trkpt lat="45.33376558170458" lon="9.09416405613917"><ele>98.0</ele><time>2026-05-01T17:01:01Z</time></trkpt><trkpt lat="45.33399633941613" lon="9.094303395618459"><ele>99.0</ele><time>2026-05-01T17:01:02Z</time></trkpt><trkpt lat="45.33423601820315" lon="9.094435399657163"><ele>100.0</ele><time>2026-05-01T17:01:03Z</time></trkpt><trkpt lat="45.334465792947086" lon="9.094570573231799"><ele>100.0</ele><time>2026-05-01T17:01:04Z</time></trkpt><trkpt lat="45.334695808047535" lon="9.09470584518625"><ele>100.0</ele><time>2026-05-01T17:01:05Z</time></trkpt><trkpt lat="45.3349256633999" lon="9.0948398950969"><ele>100.0</ele><time>2026-05-01T17:01:06Z</time></trkpt><trkpt lat="45.33515295124347" lon="9.0949727257387"><ele>100.0</ele><time>2026-05-01T17:01:07Z</time></trkpt><trkpt lat="45.335380848237016" lon="9.095106053779526"><ele>100.0</ele><time>2026-05-01T17:01:08Z</time></trkpt><trkpt lat="45.33560418479403" lon="9.095250995950053"><ele>100.0</ele><time>2026-05-01T17:01:09Z</time></trkpt><trkpt lat="45.33582992652938" lon="9.095403221620778"><ele>100.0</ele><time>2026-05-01T17:01:10Z</time></trkpt><trkpt lat="45.33605153768843" lon="9.09555751380805"><ele>100.0</ele><time>2026-05-01T17:01:11Z</time></trkpt><trkpt lat="45.33626889574419" lon="9.09571407318665"><ele>100.5</ele><time>2026-05-01T17:01:12Z</time></trkpt><trkpt lat="45.336479933587796" lon="9.095876693786048"><ele>101.0</ele><time>2026-05-01T17:01:13Z</time></trkpt><trkpt lat="45.336698135835064" lon="9.096041851936079"><ele>101.0</ele><time>2026-05-01T17:01:14Z</time></trkpt><trkpt lat="45.33691427954685" lon="9.096204646346933"><ele>101.0</ele><time>2026-05-01T17:01:15Z</time></trkpt><trkpt lat="45.33712868930832" lon="9.09638157423189"><ele>100.0</ele><time>2026-05-01T17:01:16Z</time></trkpt><trkpt lat="45.33734562122852" lon="9.096566293310525"><ele>99.0</ele><time>2026-05-01T17:01:17Z</time></trkpt><trkpt lat="45.337559893125885" lon="9.096749791733052"><ele>99.0</ele><time>2026-05-01T17:01:18Z</time></trkpt><trkpt lat="45.33777093487437" lon="9.096933624818226"><ele>99.0</ele><time>2026-05-01T17:01:19Z</time></trkpt><trkpt lat="45.33798956440222" lon="9.097114299455104"><ele>99.0</ele><time>2026-05-01T17:01:20Z</time></trkpt><trkpt lat="45.33820645254618" lon="9.097303169294246"><ele>99.0</ele><time>2026-05-01T17:01:21Z</time></trkpt><trkpt lat="45.338423590426835" lon="9.097500497013387"><ele>99.0</ele><time>2026-05-01T17:01:22Z</time></trkpt><trkpt lat="45.3386439867945" lon="9.097708756733912"><ele>99.0</ele><time>2026-05-01T17:01:23Z</time></trkpt><trkpt lat="45.338853502162195" lon="9.09790263080138"><ele>98.5</ele><time>2026-05-01T17:01:24Z</time></trkpt><trkpt lat="45.339068979514" lon="9.098117188317142"><ele>98.0</ele><time>2026-05-01T17:01:25Z</time></trkpt><trkpt lat="45.33928603531721" lon="9.098324065331628"><ele>97.5</ele><time>2026-05-01T17:01:26Z</time></trkpt><trkpt lat="45.33950282464875" lon="9.098527308713615"><ele>97.0</ele><time>2026-05-01T17:01:27Z</time></trkpt><trkpt lat="45.33971826417409" lon="9.098727557587445"><ele>97.0</ele><time>2026-05-01T17:01:28Z</time></trkpt><trkpt lat="45.33993493620479" lon="9.098930374994502"><ele>97.0</ele><time>2026-05-01T17:01:29Z</time></trkpt><trkpt lat="45.34014756184676" lon="9.09913536722853"><ele>97.0</ele><time>2026-05-01T17:01:30Z</time></trkpt><trkpt lat="45.34036743316783" lon="9.099334130914416"><ele>97.0</ele><time>2026-05-01T17:01:31Z</time></trkpt><trkpt lat="45.34058558551629" lon="9.099533706762106"><ele>98.0</ele><time>2026-05-01T17:01:32Z</time></trkpt><trkpt lat="45.34079898021187" lon="9.099737882986172"><ele>99.0</ele><time>2026-05-01T17:01:33Z</time></trkpt><trkpt lat="45.341015390646355" lon="9.099946117696735"><ele>99.0</ele><time>2026-05-01T17:01:34Z</time></trkpt><trkpt lat="45.34122960594615" lon="9.100145340530519"><ele>99.0</ele><time>2026-05-01T17:01:35Z</time></trkpt><trkpt lat="45.341445256150784" lon="9.100344521981448"><ele>99.5</ele><time>2026-05-01T17:01:36Z</time></trkpt><trkpt lat="45.341663696701374" lon="9.100546663210153"><ele>100.0</ele><time>2026-05-01T17:01:37Z</time></trkpt><trkpt lat="45.34187701401934" lon="9.100749196382782"><ele>99.5</ele><time>2026-05-01T17:01:38Z</time></trkpt><trkpt lat="45.34209283676563" lon="9.100951627040219"><ele>99.0</ele><time>2026-05-01T17:01:39Z</time></trkpt><trkpt lat="45.3423084124974" lon="9.10115293982612"><ele>98.5</ele><time>2026-05-01T17:01:40Z</time></trkpt><trkpt lat="45.342523974577404" lon="9.101355126742781"><ele>98.0</ele><time>2026-05-01T17:01:41Z</time></trkpt><trkpt lat="45.34274211479845" lon="9.101558944952558"><ele>98.0</ele><time>2026-05-01T17:01:42Z</time></trkpt><trkpt lat="45.342959303243596" lon="9.101756681435283"><ele>98.0</ele><time>2026-05-01T17:01:43Z</time></trkpt><trkpt lat="45.343174941394416" lon="9.101958472318147"><ele>99.0</ele><time>2026-05-01T17:01:44Z</time></trkpt><trkpt lat="45.343390837009736" lon="9.10216240741753"><ele>100.0</ele><time>2026-05-01T17:01:45Z</time></trkpt><trkpt lat="45.34360618913977" lon="9.102362587069711"><ele>99.0</ele><time>2026-05-01T17:01:46Z</time></trkpt><trkpt lat="45.34382169565339" lon="9.102563653810517"><ele>98.0</ele><time>2026-05-01T17:01:47Z</time></trkpt><trkpt lat="45.34403766300851" lon="9.102769408939018"><ele>98.0</ele><time>2026-05-01T17:01:48Z</time></trkpt><trkpt lat="45.34425238850146" lon="9.102971120579886"><ele>98.0</ele><time>2026-05-01T17:01:49Z</time></trkpt><trkpt lat="45.34446778760704" lon="9.103174036300473"><ele>98.0</ele><time>2026-05-01T17:01:50Z</time></trkpt><trkpt lat="45.34468222062335" lon="9.10337502401362"><ele>98.0</ele><time>2026-05-01T17:01:51Z</time></trkpt><trkpt lat="45.34489810124725" lon="9.103577633683043"><ele>98.0</ele><time>2026-05-01T17:01:52Z</time></trkpt><trkpt lat="45.345113488555555" lon="9.103777598783886"><ele>98.0</ele><time>2026-05-01T17:01:53Z</time></trkpt><trkpt lat="45.34533093216582" lon="9.103980231004755"><ele>97.5</ele><time>2026-05-01T17:01:54Z</time></trkpt><trkpt lat="45.34554473015685" lon="9.10417899017502"><ele>97.0</ele><time>2026-05-01T17:01:55Z</time></trkpt><trkpt lat="45.34576276591019" lon="9.104373302195796"><ele>97.0</ele><time>2026-05-01T17:01:56Z</time></trkpt><trkpt lat="45.34598518868767" lon="9.104564550768838"><ele>97.0</ele><time>2026-05-01T17:01:57Z</time></trkpt><trkpt lat="45.34620967664568" lon="9.104749674468287"><ele>96.5</ele><time>2026-05-01T17:01:58Z</time></trkpt><trkpt lat="45.34643291021451" lon="9.104937281730734"><ele>96.0</ele><time>2026-05-01T17:01:59Z</time></trkpt><trkpt lat="45.346655410455284" lon="9.105124327436604"><ele>96.0</ele><time>2026-05-01T17:02:00Z</time></trkpt><trkpt lat="45.3468779184422" lon="9.105312580683757"><ele>96.0</ele><time>2026-05-01T17:02:01Z</time></trkpt><trkpt lat="45.34710153041377" lon="9.105493976252676"><ele>97.0</ele><time>2026-05-01T17:02:02Z</time></trkpt><trkpt lat="45.34732394421048" lon="9.105680934993066"><ele>98.0</ele><time>2026-05-01T17:02:03Z</time></trkpt><trkpt lat="45.347543366060755" lon="9.10587085420974"><ele>98.0</ele><time>2026-05-01T17:02:04Z</time></trkpt><trkpt lat="45.34776668177233" lon="9.106061905053066"><ele>98.0</ele><time>2026-05-01T17:02:05Z</time></trkpt><trkpt lat="45.347990307143434" lon="9.106248260538354"><ele>98.0</ele><time>2026-05-01T17:02:06Z</time></trkpt><trkpt lat="45.348216063977645" lon="9.106432492967311"><ele>98.0</ele><time>2026-05-01T17:02:07Z</time></trkpt><trkpt lat="45.348429591818295" lon="9.106618654703684"><ele>98.0</ele><time>2026-05-01T17:02:08Z</time></trkpt><trkpt lat="45.34865663377802" lon="9.106811637397442"><ele>98.0</ele><time>2026-05-01T17:02:09Z</time></trkpt><trkpt lat="45.34887830093034" lon="9.106999711223716"><ele>98.5</ele><time>2026-05-01T17:02:10Z</time></trkpt><trkpt lat="45.34910178367066" lon="9.107192667945668"><ele>99.0</ele><time>2026-05-01T17:02:11Z</time></trkpt><trkpt lat="45.349335272974805" lon="9.107378913266928"><ele>99.0</ele><time>2026-05-01T17:02:12Z</time></trkpt><trkpt lat="45.34955621355165" lon="9.10757136120328"><ele>99.0</ele><time>2026-05-01T17:02:13Z</time></trkpt><trkpt lat="45.34977293145473" lon="9.107762768542933"><ele>98.0</ele><time>2026-05-01T17:02:14Z</time></trkpt><trkpt lat="45.3499937923241" lon="9.107946951704921"><ele>97.0</ele><time>2026-05-01T17:02:15Z</time></trkpt><trkpt lat="45.35021618837854" lon="9.108130274009511"><ele>97.0</ele><time>2026-05-01T17:02:16Z</time></trkpt><trkpt lat="45.350443252189685" lon="9.108316993701719"><ele>97.0</ele><time>2026-05-01T17:02:17Z</time></trkpt><trkpt lat="45.350665587658575" lon="9.108502867292556"><ele>97.0</ele><time>2026-05-01T17:02:18Z</time></trkpt><trkpt lat="45.35088625733331" lon="9.108691518048017"><ele>97.0</ele><time>2026-05-01T17:02:19Z</time></trkpt><trkpt lat="45.35110699535305" lon="9.108885268527494"><ele>97.0</ele><time>2026-05-01T17:02:20Z</time></trkpt><trkpt lat="45.351326995643845" lon="9.109075746089205"><ele>97.0</ele><time>2026-05-01T17:02:21Z</time></trkpt><trkpt lat="45.35154898819345" lon="9.10926526633859"><ele>98.0</ele><time>2026-05-01T17:02:22Z</time></trkpt><trkpt lat="45.35176892544993" lon="9.109451607974263"><ele>99.0</ele><time>2026-05-01T17:02:23Z</time></trkpt><trkpt lat="45.35199339548748" lon="9.109642841717891"><ele>99.0</ele><time>2026-05-01T17:02:24Z</time></trkpt><trkpt lat="45.35221588799962" lon="9.109833561884544"><ele>99.0</ele><time>2026-05-01T17:02:25Z</time></trkpt><trkpt lat="45.35243248989777" lon="9.110022845375594"><ele>99.0</ele><time>2026-05-01T17:02:26Z</time></trkpt><trkpt lat="45.352659057461146" lon="9.11020589285585"><ele>99.0</ele><time>2026-05-01T17:02:27Z</time></trkpt><trkpt lat="45.352877791478406" lon="9.110394311828939"><ele>99.0</ele><time>2026-05-01T17:02:28Z</time></trkpt><trkpt lat="45.353101498789066" lon="9.11057050971678"><ele>99.0</ele><time>2026-05-01T17:02:29Z</time></trkpt><trkpt lat="45.353325967088956" lon="9.110768354690702"><ele>99.5</ele><time>2026-05-01T17:02:30Z</time></trkpt><trkpt lat="45.353545037232855" lon="9.110956912515718"><ele>100.0</ele><time>2026-05-01T17:02:31Z</time></trkpt><trkpt lat="45.35376953935441" lon="9.111146770561554"><ele>99.5</ele><time>2026-05-01T17:02:32Z</time></trkpt><trkpt lat="45.35399013739116" lon="9.111334192930737"><ele>99.0</ele><time>2026-05-01T17:02:33Z</time></trkpt><trkpt lat="45.35421461538891" lon="9.111523419215333"><ele>99.5</ele><time>2026-05-01T17:02:34Z</time></trkpt><trkpt lat="45.35443606050961" lon="9.111715978710114"><ele>100.0</ele><time>2026-05-01T17:02:35Z</time></trkpt><trkpt lat="45.3546546133104" lon="9.111900249898058"><ele>99.5</ele><time>2026-05-01T17:02:36Z</time></trkpt><trkpt lat="45.354878524514426" lon="9.11209028237338"><ele>99.0</ele><time>2026-05-01T17:02:37Z</time></trkpt><trkpt lat="45.35509747155429" lon="9.11227505020042"><ele>100.0</ele><time>2026-05-01T17:02:38Z</time></trkpt><trkpt lat="45.355322741965274" lon="9.11246349800373"><ele>101.0</ele><time>2026-05-01T17:02:39Z</time></trkpt><trkpt lat="45.35554418583799" lon="9.11265456089808"><ele>101.0</ele><time>2026-05-01T17:02:40Z</time></trkpt><trkpt lat="45.35576609110196" lon="9.112846152804362"><ele>101.0</ele><time>2026-05-01T17:02:41Z</time></trkpt><trkpt lat="45.35599105794017" lon="9.113031332850532"><ele>101.0</ele><time>2026-05-01T17:02:42Z</time></trkpt><trkpt lat="45.35621843321904" lon="9.113223919116283"><ele>101.0</ele><time>2026-05-01T17:02:43Z</time></trkpt><trkpt lat="45.35643387350643" lon="9.11341246064817"><ele>100.5</ele><time>2026-05-01T17:02:44Z</time></trkpt><trkpt lat="45.356657018009344" lon="9.113598450467805"><ele>100.0</ele><time>2026-05-01T17:02:45Z</time></trkpt><trkpt lat="45.356875218078265" lon="9.11378708044541"><ele>100.0</ele><time>2026-05-01T17:02:46Z</time></trkpt><trkpt lat="45.35709739030841" lon="9.113976562923465"><ele>100.0</ele><time>2026-05-01T17:02:47Z</time></trkpt><trkpt lat="45.357322356745115" lon="9.114166040888023"><ele>100.5</ele><time>2026-05-01T17:02:48Z</time></trkpt><trkpt lat="45.357548007447335" lon="9.114354447441361"><ele>101.0</ele><time>2026-05-01T17:02:49Z</time></trkpt><trkpt lat="45.35777047661369" lon="9.114538712383975"><ele>101.0</ele><time>2026-05-01T17:02:50Z</time></trkpt><trkpt lat="45.357990623053205" lon="9.114729567216585"><ele>101.0</ele><time>2026-05-01T17:02:51Z</time></trkpt><trkpt lat="45.35821176570103" lon="9.114917977140928"><ele>101.5</ele><time>2026-05-01T17:02:52Z</time></trkpt><trkpt lat="45.35843216178782" lon="9.115106409201706"><ele>102.0</ele><time>2026-05-01T17:02:53Z</time></trkpt><trkpt lat="45.35865340623927" lon="9.115294932761678"><ele>101.0</ele><time>2026-05-01T17:02:54Z</time></trkpt><trkpt lat="45.35887568151553" lon="9.11548492056674"><ele>100.0</ele><time>2026-05-01T17:02:55Z</time></trkpt><trkpt lat="45.35910135696446" lon="9.115672427626233"><ele>101.0</ele><time>2026-05-01T17:02:56Z</time></trkpt><trkpt lat="45.359323607604104" lon="9.11585996567266"><ele>102.0</ele><time>2026-05-01T17:02:57Z</time></trkpt><trkpt lat="45.35954371638735" lon="9.116047654997585"><ele>100.0</ele><time>2026-05-01T17:02:58Z</time></trkpt><trkpt lat="45.35976749753834" lon="9.116235295608593"><ele>98.0</ele><time>2026-05-01T17:02:59Z</time></trkpt><trkpt lat="45.359987159852295" lon="9.116422720923598"><ele>98.0</ele><time>2026-05-01T17:03:00Z</time></trkpt><trkpt lat="45.36021073499679" lon="9.116612235416753"><ele>98.0</ele><time>2026-05-01T17:03:01Z</time></trkpt><trkpt lat="45.36043103784412" lon="9.116800292832432"><ele>98.5</ele><time>2026-05-01T17:03:02Z</time></trkpt><trkpt lat="45.36065390844849" lon="9.116993656300014"><ele>99.0</ele><time>2026-05-01T17:03:03Z</time></trkpt><trkpt lat="45.360874749734435" lon="9.117183626331796"><ele>99.0</ele><time>2026-05-01T17:03:04Z</time></trkpt><trkpt lat="45.36109201459879" lon="9.11738419729066"><ele>99.0</ele><time>2026-05-01T17:03:05Z</time></trkpt><trkpt lat="45.36130886756161" lon="9.117580939174845"><ele>99.5</ele><time>2026-05-01T17:03:06Z</time></trkpt><trkpt lat="45.36152676027918" lon="9.117783797527673"><ele>100.0</ele><time>2026-05-01T17:03:07Z</time></trkpt><trkpt lat="45.36174399231442" lon="9.117989135024082"><ele>100.0</ele><time>2026-05-01T17:03:08Z</time></trkpt><trkpt lat="45.36195946235205" lon="9.118195885009587"><ele>100.0</ele><time>2026-05-01T17:03:09Z</time></trkpt><trkpt lat="45.36217126675993" lon="9.118404587851387"><ele>101.5</ele><time>2026-05-01T17:03:10Z</time></trkpt><trkpt lat="45.362387059373944" lon="9.118607349608508"><ele>103.0</ele><time>2026-05-01T17:03:11Z</time></trkpt><trkpt lat="45.362605245672576" lon="9.118807652690597"><ele>103.0</ele><time>2026-05-01T17:03:12Z</time></trkpt><trkpt lat="45.36281840882435" lon="9.119009272918012"><ele>103.0</ele><time>2026-05-01T17:03:13Z</time></trkpt><trkpt lat="45.363041747836455" lon="9.119211276623288"><ele>102.5</ele><time>2026-05-01T17:03:14Z</time></trkpt><trkpt lat="45.3632513620115" lon="9.1194159148065"><ele>102.0</ele><time>2026-05-01T17:03:15Z</time></trkpt><trkpt lat="45.3634682624422" lon="9.119621176628007"><ele>102.0</ele><time>2026-05-01T17:03:16Z</time></trkpt><trkpt lat="45.36367946076831" lon="9.119823786499813"><ele>102.0</ele><time>2026-05-01T17:03:17Z</time></trkpt><trkpt lat="45.363893668237075" lon="9.120029152224284"><ele>101.0</ele><time>2026-05-01T17:03:18Z</time></trkpt><trkpt lat="45.36411054197205" lon="9.120234774557826"><ele>100.0</ele><time>2026-05-01T17:03:19Z</time></trkpt><trkpt lat="45.36432739694729" lon="9.120435512949351"><ele>100.0</ele><time>2026-05-01T17:03:20Z</time></trkpt><trkpt lat="45.364540461066" lon="9.12064228046553"><ele>100.0</ele><time>2026-05-01T17:03:21Z</time></trkpt><trkpt lat="45.36475746999694" lon="9.120845271017592"><ele>100.0</ele><time>2026-05-01T17:03:22Z</time></trkpt><trkpt lat="45.36497186032954" lon="9.121044740450312"><ele>100.0</ele><time>2026-05-01T17:03:23Z</time></trkpt><trkpt lat="45.36518407946015" lon="9.121249903868"><ele>100.0</ele><time>2026-05-01T17:03:24Z</time></trkpt><trkpt lat="45.36540262310609" lon="9.121458223881733"><ele>100.0</ele><time>2026-05-01T17:03:25Z</time></trkpt><trkpt lat="45.36561686526206" lon="9.121660582516594"><ele>101.0</ele><time>2026-05-01T17:03:26Z</time></trkpt><trkpt lat="45.36583065712182" lon="9.121869015688265"><ele>102.0</ele><time>2026-05-01T17:03:27Z</time></trkpt><trkpt lat="45.3660424510792" lon="9.122069107859858"><ele>102.0</ele><time>2026-05-01T17:03:28Z</time></trkpt><trkpt lat="45.366258594279884" lon="9.122276709232963"><ele>102.0</ele><time>2026-05-01T17:03:29Z</time></trkpt><trkpt lat="45.366474114280564" lon="9.122474218219097"><ele>102.0</ele><time>2026-05-01T17:03:30Z</time></trkpt><trkpt lat="45.36668625648894" lon="9.12268368328284"><ele>102.0</ele><time>2026-05-01T17:03:31Z</time></trkpt><trkpt lat="45.36690299583288" lon="9.12288732005379"><ele>102.0</ele><time>2026-05-01T17:03:32Z</time></trkpt><trkpt lat="45.36711811726717" lon="9.123092773607144"><ele>102.0</ele><time>2026-05-01T17:03:33Z</time></trkpt><trkpt lat="45.36733502262281" lon="9.123293075537624"><ele>101.5</ele><time>2026-05-01T17:03:34Z</time></trkpt><trkpt lat="45.36754885101762" lon="9.123499454544964"><ele>101.0</ele><time>2026-05-01T17:03:35Z</time></trkpt><trkpt lat="45.36776639909701" lon="9.123704693573458"><ele>101.0</ele><time>2026-05-01T17:03:36Z</time></trkpt><trkpt lat="45.36798707799727" lon="9.123919834849008"><ele>101.0</ele><time>2026-05-01T17:03:37Z</time></trkpt><trkpt lat="45.36819516046144" lon="9.124116697319096"><ele>102.0</ele><time>2026-05-01T17:03:38Z</time></trkpt><trkpt lat="45.36841102857389" lon="9.124318800625154"><ele>103.0</ele><time>2026-05-01T17:03:39Z</time></trkpt><trkpt lat="45.368626931567896" lon="9.124518493705445"><ele>103.0</ele><time>2026-05-01T17:03:40Z</time></trkpt><trkpt lat="45.36884196343705" lon="9.12472232714835"><ele>103.0</ele><time>2026-05-01T17:03:41Z</time></trkpt><trkpt lat="45.36905954418661" lon="9.124925220562139"><ele>102.0</ele><time>2026-05-01T17:03:42Z</time></trkpt><trkpt lat="45.369272514542295" lon="9.12512953335421"><ele>101.0</ele><time>2026-05-01T17:03:43Z</time></trkpt><trkpt lat="45.369490157442385" lon="9.12533395442516"><ele>100.5</ele><time>2026-05-01T17:03:44Z</time></trkpt><trkpt lat="45.36970162940993" lon="9.125541506573768"><ele>100.0</ele><time>2026-05-01T17:03:45Z</time></trkpt><trkpt lat="45.369916141419885" lon="9.12574505631121"><ele>101.5</ele><time>2026-05-01T17:03:46Z</time></trkpt><trkpt lat="45.37012807060647" lon="9.125951972647517"><ele>103.0</ele><time>2026-05-01T17:03:47Z</time></trkpt><trkpt lat="45.370341240703844" lon="9.126156958701195"><ele>100.5</ele><time>2026-05-01T17:03:48Z</time></trkpt><trkpt lat="45.370557084861595" lon="9.12636128381893"><ele>98.0</ele><time>2026-05-01T17:03:49Z</time></trkpt><trkpt lat="45.37076994312567" lon="9.126561114876422"><ele>99.0</ele><time>2026-05-01T17:03:50Z</time></trkpt><trkpt lat="45.37098687887499" lon="9.126767891390134"><ele>100.0</ele><time>2026-05-01T17:03:51Z</time></trkpt><trkpt lat="45.37120069671563" lon="9.126971138605036"><ele>100.0</ele><time>2026-05-01T17:03:52Z</time></trkpt><trkpt lat="45.37141523925474" lon="9.127174602849367"><ele>100.0</ele><time>2026-05-01T17:03:53Z</time></trkpt><trkpt lat="45.37163029761835" lon="9.127380420693584"><ele>100.5</ele><time>2026-05-01T17:03:54Z</time></trkpt><trkpt lat="45.37184725520806" lon="9.127584739633894"><ele>101.0</ele><time>2026-05-01T17:03:55Z</time></trkpt><trkpt lat="45.3720623154405" lon="9.12779015765113"><ele>101.0</ele><time>2026-05-01T17:03:56Z</time></trkpt><trkpt lat="45.372279333278826" lon="9.127994346544778"><ele>101.0</ele><time>2026-05-01T17:03:57Z</time></trkpt><trkpt lat="45.37249493973264" lon="9.128196804717305"><ele>100.5</ele><time>2026-05-01T17:03:58Z</time></trkpt><trkpt lat="45.37270863731012" lon="9.128395925989157"><ele>100.0</ele><time>2026-05-01T17:03:59Z</time></trkpt><trkpt lat="45.37292619325843" lon="9.12858361269501"><ele>99.5</ele><time>2026-05-01T17:04:00Z</time></trkpt><trkpt lat="45.37314460680211" lon="9.128797736943293"><ele>99.0</ele><time>2026-05-01T17:04:01Z</time></trkpt><trkpt lat="45.37336034503345" lon="9.128998980487394"><ele>101.0</ele><time>2026-05-01T17:04:02Z</time></trkpt><trkpt lat="45.37357629002621" lon="9.12919749038103"><ele>103.0</ele><time>2026-05-01T17:04:03Z</time></trkpt><trkpt lat="45.373794731160885" lon="9.129401263002563"><ele>103.0</ele><time>2026-05-01T17:04:04Z</time></trkpt><trkpt lat="45.37401631709466" lon="9.129596827448724"><ele>103.0</ele><time>2026-05-01T17:04:05Z</time></trkpt><trkpt lat="45.374236797699666" lon="9.12978544010583"><ele>102.5</ele><time>2026-05-01T17:04:06Z</time></trkpt><trkpt lat="45.37446415682125" lon="9.129972198996462"><ele>102.0</ele><time>2026-05-01T17:04:07Z</time></trkpt><trkpt lat="45.37469121248308" lon="9.130145888598907"><ele>101.5</ele><time>2026-05-01T17:04:08Z</time></trkpt><trkpt lat="45.374920129012274" lon="9.130316524476253"><ele>101.0</ele><time>2026-05-01T17:04:09Z</time></trkpt><trkpt lat="45.37515333812185" lon="9.13048325787984"><ele>101.0</ele><time>2026-05-01T17:04:10Z</time></trkpt><trkpt lat="45.37538537518374" lon="9.13065170339315"><ele>101.0</ele><time>2026-05-01T17:04:11Z</time></trkpt><trkpt lat="45.37561882991752" lon="9.130805076559904"><ele>101.0</ele><time>2026-05-01T17:04:12Z</time></trkpt><trkpt lat="45.37585337013321" lon="9.130958324924572"><ele>101.0</ele><time>2026-05-01T17:04:13Z</time></trkpt><trkpt lat="45.376089254140176" lon="9.131110225557148"><ele>101.0</ele><time>2026-05-01T17:04:14Z</time></trkpt><trkpt lat="45.37632869128261" lon="9.131253741759862"><ele>101.0</ele><time>2026-05-01T17:04:15Z</time></trkpt><trkpt lat="45.37657064608056" lon="9.131394194022217"><ele>101.0</ele><time>2026-05-01T17:04:16Z</time></trkpt><trkpt lat="45.37680871448482" lon="9.131530642828464"><ele>101.0</ele><time>2026-05-01T17:04:17Z</time></trkpt><trkpt lat="45.37704593306618" lon="9.131671671619765"><ele>100.5</ele><time>2026-05-01T17:04:18Z</time></trkpt><trkpt lat="45.377282620040944" lon="9.131811160454324"><ele>100.0</ele><time>2026-05-01T17:04:19Z</time></trkpt><trkpt lat="45.3775227779854" lon="9.131952683391061"><ele>100.0</ele><time>2026-05-01T17:04:20Z</time></trkpt><trkpt lat="45.377762076923354" lon="9.132096375508345"><ele>100.0</ele><time>2026-05-01T17:04:21Z</time></trkpt><trkpt lat="45.37800057091196" lon="9.132237976595503"><ele>101.5</ele><time>2026-05-01T17:04:22Z</time></trkpt><trkpt lat="45.37823935227362" lon="9.132378810086594"><ele>103.0</ele><time>2026-05-01T17:04:23Z</time></trkpt><trkpt lat="45.37847797657" lon="9.132521475482212"><ele>103.0</ele><time>2026-05-01T17:04:24Z</time></trkpt><trkpt lat="45.37871729363624" lon="9.13266414552476"><ele>103.0</ele><time>2026-05-01T17:04:25Z</time></trkpt><trkpt lat="45.37896524219176" lon="9.13279206343275"><ele>102.0</ele><time>2026-05-01T17:04:26Z</time></trkpt><trkpt lat="45.37919850365285" lon="9.132936206067571"><ele>101.0</ele><time>2026-05-01T17:04:27Z</time></trkpt><trkpt lat="45.37943555715234" lon="9.133080525993266"><ele>101.5</ele><time>2026-05-01T17:04:28Z</time></trkpt><trkpt lat="45.37967435828372" lon="9.133222498625846"><ele>102.0</ele><time>2026-05-01T17:04:29Z</time></trkpt><trkpt lat="45.37991000137078" lon="9.133367271875368"><ele>102.0</ele><time>2026-05-01T17:04:30Z</time></trkpt><trkpt lat="45.38014827393815" lon="9.133507352591128"><ele>102.0</ele><time>2026-05-01T17:04:31Z</time></trkpt><trkpt lat="45.38038908333607" lon="9.133653641047436"><ele>102.0</ele><time>2026-05-01T17:04:32Z</time></trkpt><trkpt lat="45.38062143755677" lon="9.133796224688874"><ele>102.0</ele><time>2026-05-01T17:04:33Z</time></trkpt><trkpt lat="45.38086133923177" lon="9.133937558892217"><ele>101.5</ele><time>2026-05-01T17:04:34Z</time></trkpt><trkpt lat="45.3811007824866" lon="9.13407938812431"><ele>101.0</ele><time>2026-05-01T17:04:35Z</time></trkpt><trkpt lat="45.38134035547224" lon="9.13421713532845"><ele>102.0</ele><time>2026-05-01T17:04:36Z</time></trkpt><trkpt lat="45.38157959143918" lon="9.134357458140762"><ele>103.0</ele><time>2026-05-01T17:04:37Z</time></trkpt><trkpt lat="45.381814245896464" lon="9.134497654901061"><ele>103.0</ele><time>2026-05-01T17:04:38Z</time></trkpt><trkpt lat="45.38204146148773" lon="9.134635344278026"><ele>103.0</ele><time>2026-05-01T17:04:39Z</time></trkpt><trkpt lat="45.38227406390737" lon="9.134769752547875"><ele>102.33333333333334</ele><time>2026-05-01T17:04:40Z</time></trkpt><trkpt lat="45.38248482331803" lon="9.134891334046051"><ele>101.66666666666666</ele><time>2026-05-01T17:04:41Z</time></trkpt><trkpt lat="45.3826805768865" lon="9.13501219945654"><ele>101.0</ele><time>2026-05-01T17:04:42Z</time></trkpt><trkpt lat="45.38286994711773" lon="9.13512840446602"><ele>101.0</ele><time>2026-05-01T17:04:43Z</time></trkpt><trkpt lat="45.383062872159826" lon="9.13524326732189"><ele>101.0</ele><time>2026-05-01T17:04:44Z</time></trkpt><trkpt lat="45.38325906737225" lon="9.135361446411085"><ele>101.0</ele><time>2026-05-01T17:04:45Z</time></trkpt><trkpt lat="45.38345473748191" lon="9.135478956379464"><ele>101.0</ele><time>2026-05-01T17:04:46Z</time></trkpt><trkpt lat="45.383655131434324" lon="9.135593761169455"><ele>101.0</ele><time>2026-05-01T17:04:47Z</time></trkpt><trkpt lat="45.38385725883004" lon="9.135710815302494"><ele>101.0</ele><time>2026-05-01T17:04:48Z</time></trkpt><trkpt lat="45.384054919403155" lon="9.13582646221321"><ele>100.66666666666666</ele><time>2026-05-01T17:04:49Z</time></trkpt><trkpt lat="45.384255576535544" lon="9.135937133219409"><ele>100.33333333333334</ele><time>2026-05-01T17:04:50Z</time></trkpt><trkpt lat="45.38444846234577" lon="9.136054344248198"><ele>100.0</ele><time>2026-05-01T17:04:51Z</time></trkpt><trkpt lat="45.384646415470755" lon="9.13616603436714"><ele>99.66666666666667</ele><time>2026-05-01T17:04:52Z</time></trkpt><trkpt lat="45.38484327668676" lon="9.136288344039409"><ele>99.33333333333334</ele><time>2026-05-01T17:04:53Z</time></trkpt><trkpt lat="45.38503849761202" lon="9.136405093549154"><ele>99.0</ele><time>2026-05-01T17:04:54Z</time></trkpt><trkpt lat="45.38523134317877" lon="9.136523458539845"><ele>99.33333333333334</ele><time>2026-05-01T17:04:55Z</time></trkpt><trkpt lat="45.38542127728118" lon="9.13663999807508"><ele>99.66666666666667</ele><time>2026-05-01T17:04:56Z</time></trkpt><trkpt lat="45.38561325785177" lon="9.136771364372887"><ele>100.0</ele><time>2026-05-01T17:04:57Z</time></trkpt><trkpt lat="45.38579725542895" lon="9.136905026202895"><ele>100.33333333333334</ele><time>2026-05-01T17:04:58Z</time></trkpt><trkpt lat="45.385983822222116" lon="9.137047403069376"><ele>100.66666666666666</ele><time>2026-05-01T17:04:59Z</time></trkpt><trkpt lat="45.38616466827492" lon="9.137195902651202"><ele>101.0</ele><time>2026-05-01T17:05:00Z</time></trkpt><trkpt lat="45.38634521760857" lon="9.137350946972607"><ele>101.33333333333333</ele><time>2026-05-01T17:05:01Z</time></trkpt><trkpt lat="45.38656779602685" lon="9.137391099522736"><ele>101.66666666666666</ele><time>2026-05-01T17:05:02Z</time></trkpt><trkpt lat="45.38674685510783" lon="9.137516413911879"><ele>102.0</ele><time>2026-05-01T17:05:03Z</time></trkpt><trkpt lat="45.38692151423269" lon="9.137642558798696"><ele>102.0</ele><time>2026-05-01T17:05:04Z</time></trkpt><trkpt lat="45.387082687564316" lon="9.137772350288703"><ele>102.0</ele><time>2026-05-01T17:05:05Z</time></trkpt><trkpt lat="45.38723364607503" lon="9.137894296611343"><ele>102.0</ele><time>2026-05-01T17:05:06Z</time></trkpt><trkpt lat="45.38737766328183" lon="9.138009247446616"><ele>102.0</ele><time>2026-05-01T17:05:07Z</time></trkpt><trkpt lat="45.3875184233456" lon="9.138120706989357"><ele>102.0</ele><time>2026-05-01T17:05:08Z</time></trkpt><trkpt lat="45.38765541641604" lon="9.138227671117617"><ele>102.0</ele><time>2026-05-01T17:05:09Z</time></trkpt><trkpt lat="45.38778890280813" lon="9.13833062010967"><ele>101.75</ele><time>2026-05-01T17:05:10Z</time></trkpt><trkpt lat="45.38791876170484" lon="9.138426543000067"><ele>101.5</ele><time>2026-05-01T17:05:11Z</time></trkpt><trkpt lat="45.38803928481397" lon="9.13851536541198"><ele>101.25</ele><time>2026-05-01T17:05:12Z</time></trkpt><trkpt lat="45.38816062889102" lon="9.138603267530037"><ele>101.0</ele><time>2026-05-01T17:05:13Z</time></trkpt><trkpt lat="45.38817490523831" lon="9.13900076527398"><ele>101.5</ele><time>2026-05-01T17:05:14Z</time></trkpt><trkpt lat="45.388285732789655" lon="9.139103061094056"><ele>102.0</ele><time>2026-05-01T17:05:15Z</time></trkpt><trkpt lat="45.38839431075422" lon="9.13919937094763"><ele>102.5</ele><time>2026-05-01T17:05:16Z</time></trkpt><trkpt lat="45.38849120335352" lon="9.139284036022778"><ele>103.0</ele><time>2026-05-01T17:05:17Z</time></trkpt><trkpt lat="45.38854455022941" lon="9.13945294459452"><ele>103.0</ele><time>2026-05-01T17:05:18Z</time></trkpt><trkpt lat="45.38863532949746" lon="9.139512673997219"><ele>103.0</ele><time>2026-05-01T17:05:19Z</time></trkpt><trkpt lat="45.388704483236474" lon="9.139550537289736"><ele>103.0</ele><time>2026-05-01T17:05:20Z</time></trkpt><trkpt lat="45.388812846952" lon="9.139608850332008"><ele>103.0</ele><time>2026-05-01T17:05:22Z</time></trkpt><trkpt lat="45.388910437981096" lon="9.139663691379086"><ele>103.0</ele><time>2026-05-01T17:05:24Z</time></trkpt><trkpt lat="45.38902644869332" lon="9.139724011509584"><ele>102.80000000000001</ele><time>2026-05-01T17:05:26Z</time></trkpt><trkpt lat="45.38910222574075" lon="9.139758195000264"><ele>102.6</ele><time>2026-05-01T17:05:27Z</time></trkpt><trkpt lat="45.38919027105477" lon="9.139791963499919"><ele>102.4</ele><time>2026-05-01T17:05:28Z</time></trkpt><trkpt lat="45.389295657324716" lon="9.139829348934514"><ele>102.19999999999999</ele><time>2026-05-01T17:05:29Z</time></trkpt><trkpt lat="45.38941105728008" lon="9.139866611786692"><ele>102.0</ele><time>2026-05-01T17:05:30Z</time></trkpt><trkpt lat="45.389552545710494" lon="9.139903916444375"><ele>102.33333333333334</ele><time>2026-05-01T17:05:31Z</time></trkpt><trkpt lat="45.38970756151994" lon="9.13991094144645"><ele>102.66666666666667</ele><time>2026-05-01T17:05:32Z</time></trkpt><trkpt lat="45.3898602805227" lon="9.139877986328855"><ele>103.0</ele><time>2026-05-01T17:05:33Z</time></trkpt><trkpt lat="45.390000312110416" lon="9.139812605591276"><ele>103.0</ele><time>2026-05-01T17:05:34Z</time></trkpt><trkpt lat="45.390127814334726" lon="9.139753758991978"><ele>103.0</ele><time>2026-05-01T17:05:35Z</time></trkpt><trkpt lat="45.39024780093741" lon="9.139699407604153"><ele>103.0</ele><time>2026-05-01T17:05:36Z</time></trkpt><trkpt lat="45.390381466544184" lon="9.13968523077138"><ele>103.0</ele><time>2026-05-01T17:05:37Z</time></trkpt><trkpt lat="45.39051869291907" lon="9.139678693765994"><ele>103.0</ele><time>2026-05-01T17:05:37.999Z</time></trkpt><trkpt lat="45.390654766807266" lon="9.139686800437701"><ele>103.0</ele><time>2026-05-01T17:05:38.999Z</time></trkpt><trkpt lat="45.39079426859316" lon="9.13971880771909"><ele>103.0</ele><time>2026-05-01T17:05:39.999Z</time></trkpt><trkpt lat="45.39093647932422" lon="9.139769173184153"><ele>103.0</ele><time>2026-05-01T17:05:40.999Z</time></trkpt><trkpt lat="45.3910934242799" lon="9.139806150352209"><ele>103.0</ele><time>2026-05-01T17:05:41.999Z</time></trkpt><trkpt lat="45.39124946858537" lon="9.13986291798516"><ele>103.0</ele><time>2026-05-01T17:05:42.999Z</time></trkpt><trkpt lat="45.391415630504916" lon="9.139923495154255"><ele>103.0</ele><time>2026-05-01T17:05:43.999Z</time></trkpt><trkpt lat="45.39158368445829" lon="9.139981276756094"><ele>103.0</ele><time>2026-05-01T17:05:44.999Z</time></trkpt><trkpt lat="45.391742641989666" lon="9.14003590356425"><ele>103.0</ele><time>2026-05-01T17:05:45.999Z</time></trkpt><trkpt lat="45.39189851570962" lon="9.14008928776206"><ele>103.0</ele><time>2026-05-01T17:05:46.999Z</time></trkpt><trkpt lat="45.392042312544675" lon="9.140222054734968"><ele>103.0</ele><time>2026-05-01T17:05:47.999Z</time></trkpt><trkpt lat="45.392200782720266" lon="9.14030094403009"><ele>103.0</ele><time>2026-05-01T17:05:48.999Z</time></trkpt><trkpt lat="45.392359756500746" lon="9.140387017053701"><ele>103.0</ele><time>2026-05-01T17:05:49.999Z</time></trkpt><trkpt lat="45.3925227611538" lon="9.140483228009488"><ele>103.0</ele><time>2026-05-01T17:05:51Z</time></trkpt><trkpt lat="45.39268494678274" lon="9.140591825794631"><ele>103.0</ele><time>2026-05-01T17:05:52Z</time></trkpt><trkpt lat="45.39284485366765" lon="9.140723322154543"><ele>103.0</ele><time>2026-05-01T17:05:53Z</time></trkpt><trkpt lat="45.393002354323954" lon="9.140899077958702"><ele>103.33333333333334</ele><time>2026-05-01T17:05:54Z</time></trkpt><trkpt lat="45.39316304953097" lon="9.141094909846528"><ele>103.66666666666666</ele><time>2026-05-01T17:05:55Z</time></trkpt><trkpt lat="45.39330407006235" lon="9.141319910150003"><ele>104.0</ele><time>2026-05-01T17:05:56Z</time></trkpt><trkpt lat="45.39342686478886" lon="9.141550958894666"><ele>105.33333333333333</ele><time>2026-05-01T17:05:57Z</time></trkpt><trkpt lat="45.39352123632415" lon="9.141774334520685"><ele>106.66666666666666</ele><time>2026-05-01T17:05:58Z</time></trkpt><trkpt lat="45.393589488976616" lon="9.14198159132904"><ele>108.0</ele><time>2026-05-01T17:05:59Z</time></trkpt><trkpt lat="45.39365125813929" lon="9.14218724376274"><ele>108.0</ele><time>2026-05-01T17:06:00Z</time></trkpt><trkpt lat="45.39372459908203" lon="9.142375562693983"><ele>108.0</ele><time>2026-05-01T17:06:01Z</time></trkpt><trkpt lat="45.393824073348" lon="9.142548060331505"><ele>108.0</ele><time>2026-05-01T17:06:02Z</time></trkpt><trkpt lat="45.393766235665105" lon="9.142801859848536"><ele>107.75</ele><time>2026-05-01T17:06:03Z</time></trkpt><trkpt lat="45.3937900352782" lon="9.143002049364537"><ele>107.5</ele><time>2026-05-01T17:06:04Z</time></trkpt><trkpt lat="45.393816996775065" lon="9.14319944339977"><ele>107.25</ele><time>2026-05-01T17:06:05Z</time></trkpt><trkpt lat="45.393846108756215" lon="9.143395071335537"><ele>107.0</ele><time>2026-05-01T17:06:06Z</time></trkpt><trkpt lat="45.39387880243154" lon="9.143585512663043"><ele>107.0</ele><time>2026-05-01T17:06:07Z</time></trkpt><trkpt lat="45.39393058936355" lon="9.143772191183901"><ele>107.0</ele><time>2026-05-01T17:06:08Z</time></trkpt><trkpt lat="45.39400575965483" lon="9.143936308279882"><ele>107.0</ele><time>2026-05-01T17:06:09Z</time></trkpt><trkpt lat="45.39410411842903" lon="9.144073013733195"><ele>107.0</ele><time>2026-05-01T17:06:10Z</time></trkpt><trkpt lat="45.39420602525217" lon="9.144174997864784"><ele>107.0</ele><time>2026-05-01T17:06:11Z</time></trkpt><trkpt lat="45.39431635466729" lon="9.144260624957125"><ele>106.99999999999999</ele><time>2026-05-01T17:06:12Z</time></trkpt><trkpt lat="45.39442612153076" lon="9.144284046877443"><ele>106.99999999999999</ele><time>2026-05-01T17:06:13Z</time></trkpt><trkpt lat="45.39452065783143" lon="9.144285061928931"><ele>107.0</ele><time>2026-05-01T17:06:14Z</time></trkpt><trkpt lat="45.394611176125835" lon="9.144275613168345"><ele>107.0</ele><time>2026-05-01T17:06:15Z</time></trkpt><trkpt lat="45.39487924706616" lon="9.144032987189393"><ele>106.6</ele><time>2026-05-01T17:06:16Z</time></trkpt><trkpt lat="45.394963357583755" lon="9.143905032012764"><ele>106.19999999999999</ele><time>2026-05-01T17:06:17Z</time></trkpt><trkpt lat="45.39500727555207" lon="9.143796853466371"><ele>105.8</ele><time>2026-05-01T17:06:18Z</time></trkpt><trkpt lat="45.39503371549965" lon="9.143711685312018"><ele>105.4</ele><time>2026-05-01T17:06:19Z</time></trkpt><trkpt lat="45.39508581908521" lon="9.14357765386489"><ele>105.0</ele><time>2026-05-01T17:06:21Z</time></trkpt><trkpt lat="45.395117526419185" lon="9.143480798592499"><ele>105.0</ele><time>2026-05-01T17:06:22Z</time></trkpt><trkpt lat="45.39513732999214" lon="9.143371127885956"><ele>105.0</ele><time>2026-05-01T17:06:23Z</time></trkpt><trkpt lat="45.395165295872125" lon="9.143230002482195"><ele>105.0</ele><time>2026-05-01T17:06:25Z</time></trkpt><trkpt lat="45.39518063674664" lon="9.143139177800384"><ele>105.0</ele><time>2026-05-01T17:06:26Z</time></trkpt><trkpt lat="45.39519209731793" lon="9.143016374978352"><ele>105.0</ele><time>2026-05-01T17:06:27Z</time></trkpt><trkpt lat="45.39520082863609" lon="9.142915843832148"><ele>105.0</ele><time>2026-05-01T17:06:28Z</time></trkpt><trkpt lat="45.395219614317114" lon="9.14275129445458"><ele>105.0</ele><time>2026-05-01T17:06:30Z</time></trkpt><trkpt lat="45.395232850643005" lon="9.14261160802703"><ele>105.0</ele><time>2026-05-01T17:06:32Z</time></trkpt><trkpt lat="45.395244004880915" lon="9.142511197618717"><ele>105.0</ele><time>2026-05-01T17:06:34Z</time></trkpt><trkpt lat="45.395262024396594" lon="9.14239625994136"><ele>105.0</ele><time>2026-05-01T17:06:37Z</time></trkpt><trkpt lat="45.3952721935383" lon="9.142245903167248"><ele>105.0</ele><time>2026-05-01T17:06:40Z</time></trkpt><trkpt lat="45.39528496827554" lon="9.142142659053423"><ele>105.0</ele><time>2026-05-01T17:06:41Z</time></trkpt><trkpt lat="45.39532721932579" lon="9.142005463430646"><ele>105.0</ele><time>2026-05-01T17:06:42Z</time></trkpt><trkpt lat="45.39537784785723" lon="9.141844496961538"><ele>105.0</ele><time>2026-05-01T17:06:43Z</time></trkpt><trkpt lat="45.395429733856616" lon="9.141696700897207"><ele>105.0</ele><time>2026-05-01T17:06:44Z</time></trkpt><trkpt lat="45.395483196979626" lon="9.141541216688138"><ele>105.0</ele><time>2026-05-01T17:06:45Z</time></trkpt><trkpt lat="45.39553968470745" lon="9.141386391077711"><ele>105.5</ele><time>2026-05-01T17:06:46Z</time></trkpt><trkpt lat="45.39559674447202" lon="9.141222882982516"><ele>106.0</ele><time>2026-05-01T17:06:47Z</time></trkpt><trkpt lat="45.395646212797985" lon="9.141065349635472"><ele>106.5</ele><time>2026-05-01T17:06:48Z</time></trkpt><trkpt lat="45.395703910144995" lon="9.140892336290339"><ele>107.0</ele><time>2026-05-01T17:06:49Z</time></trkpt><trkpt lat="45.39576624766549" lon="9.140705040448879"><ele>108.33333333333333</ele><time>2026-05-01T17:06:50Z</time></trkpt><trkpt lat="45.39584675591972" lon="9.140493493097468"><ele>109.66666666666666</ele><time>2026-05-01T17:06:51Z</time></trkpt><trkpt lat="45.395926985874034" lon="9.140279410610257"><ele>111.0</ele><time>2026-05-01T17:06:52Z</time></trkpt><trkpt lat="45.39600401799537" lon="9.140040229294145"><ele>109.33333333333334</ele><time>2026-05-01T17:06:53Z</time></trkpt><trkpt lat="45.396084588277006" lon="9.139804865591344"><ele>107.66666666666667</ele><time>2026-05-01T17:06:54Z</time></trkpt><trkpt lat="45.39618914266473" lon="9.13953160319298"><ele>106.0</ele><time>2026-05-01T17:06:55Z</time></trkpt><trkpt lat="45.39627328222957" lon="9.13928413308268"><ele>106.0</ele><time>2026-05-01T17:06:56Z</time></trkpt><trkpt lat="45.396356487928216" lon="9.139042427784183"><ele>106.0</ele><time>2026-05-01T17:06:57Z</time></trkpt><trkpt lat="45.39644355266422" lon="9.13879879586945"><ele>106.0</ele><time>2026-05-01T17:06:58Z</time></trkpt><trkpt lat="45.396522587681005" lon="9.138557640344711"><ele>106.0</ele><time>2026-05-01T17:06:59Z</time></trkpt><trkpt lat="45.39660847805177" lon="9.138309035913244"><ele>106.0</ele><time>2026-05-01T17:07:00Z</time></trkpt><trkpt lat="45.396693530398444" lon="9.138051657669946"><ele>106.0</ele><time>2026-05-01T17:07:01Z</time></trkpt><trkpt lat="45.39677829076148" lon="9.137784764696598"><ele>105.33333333333334</ele><time>2026-05-01T17:07:02Z</time></trkpt><trkpt lat="45.39686397299827" lon="9.137526815105808"><ele>104.66666666666666</ele><time>2026-05-01T17:07:03Z</time></trkpt><trkpt lat="45.39694057920703" lon="9.137250059116775"><ele>104.0</ele><time>2026-05-01T17:07:04Z</time></trkpt><trkpt lat="45.397027545744365" lon="9.136970062402638"><ele>103.33333333333333</ele><time>2026-05-01T17:07:05Z</time></trkpt><trkpt lat="45.39710843389133" lon="9.136679630371875"><ele>102.66666666666666</ele><time>2026-05-01T17:07:06Z</time></trkpt><trkpt lat="45.39718596278453" lon="9.136397591647926"><ele>102.0</ele><time>2026-05-01T17:07:07Z</time></trkpt><trkpt lat="45.3972641123937" lon="9.136125171330306"><ele>103.0</ele><time>2026-05-01T17:07:08Z</time></trkpt><trkpt lat="45.39733803636685" lon="9.13585268525643"><ele>104.0</ele><time>2026-05-01T17:07:09Z</time></trkpt><trkpt lat="45.397403403024384" lon="9.13560242316182"><ele>105.0</ele><time>2026-05-01T17:07:10Z</time></trkpt><trkpt lat="45.39746631947618" lon="9.135355517053254"><ele>105.0</ele><time>2026-05-01T17:07:11Z</time></trkpt><trkpt lat="45.39751980287639" lon="9.135109764445026"><ele>105.0</ele><time>2026-05-01T17:07:12Z</time></trkpt><trkpt lat="45.39757748020257" lon="9.134858532183161"><ele>105.0</ele><time>2026-05-01T17:07:13Z</time></trkpt><trkpt lat="45.39763065829942" lon="9.134604790710254"><ele>105.0</ele><time>2026-05-01T17:07:14Z</time></trkpt><trkpt lat="45.397686675117704" lon="9.134303713370546"><ele>105.0</ele><time>2026-05-01T17:07:15Z</time></trkpt><trkpt lat="45.39774553608873" lon="9.133991044129937"><ele>105.0</ele><time>2026-05-01T17:07:16Z</time></trkpt><trkpt lat="45.397805144553914" lon="9.133675116071569"><ele>106.0</ele><time>2026-05-01T17:07:17Z</time></trkpt><trkpt lat="45.39787537152147" lon="9.13333934181457"><ele>107.0</ele><time>2026-05-01T17:07:18Z</time></trkpt><trkpt lat="45.39795018766893" lon="9.133001898269436"><ele>107.0</ele><time>2026-05-01T17:07:19Z</time></trkpt><trkpt lat="45.39802303145114" lon="9.132653452785897"><ele>107.0</ele><time>2026-05-01T17:07:20Z</time></trkpt><trkpt lat="45.39809819538367" lon="9.132297785078634"><ele>107.0</ele><time>2026-05-01T17:07:21Z</time></trkpt><trkpt lat="45.398171100953284" lon="9.131952811021948"><ele>107.0</ele><time>2026-05-01T17:07:22Z</time></trkpt><trkpt lat="45.398252649136246" lon="9.13155440322184"><ele>107.5</ele><time>2026-05-01T17:07:23Z</time></trkpt><trkpt lat="45.398342513457116" lon="9.13118219182926"><ele>108.0</ele><time>2026-05-01T17:07:24Z</time></trkpt><trkpt lat="45.39843711606012" lon="9.130807864960657"><ele>107.0</ele><time>2026-05-01T17:07:25Z</time></trkpt><trkpt lat="45.39852276866902" lon="9.130433089172255"><ele>106.0</ele><time>2026-05-01T17:07:26Z</time></trkpt><trkpt lat="45.39862653251907" lon="9.130039452719176"><ele>106.5</ele><time>2026-05-01T17:07:27Z</time></trkpt><trkpt lat="45.39873102276182" lon="9.129648745794578"><ele>107.0</ele><time>2026-05-01T17:07:28Z</time></trkpt><trkpt lat="45.398836864536094" lon="9.129272405965098"><ele>107.0</ele><time>2026-05-01T17:07:29Z</time></trkpt><trkpt lat="45.398946388266225" lon="9.128900829572297"><ele>107.0</ele><time>2026-05-01T17:07:30Z</time></trkpt><trkpt lat="45.39905627354457" lon="9.128521857786248"><ele>107.5</ele><time>2026-05-01T17:07:31Z</time></trkpt><trkpt lat="45.39917170681833" lon="9.128143882600789"><ele>108.0</ele><time>2026-05-01T17:07:32Z</time></trkpt><trkpt lat="45.399290555371486" lon="9.127763160592718"><ele>106.5</ele><time>2026-05-01T17:07:33Z</time></trkpt><trkpt lat="45.399407881843715" lon="9.127392533898742"><ele>105.0</ele><time>2026-05-01T17:07:34Z</time></trkpt><trkpt lat="45.399532625798855" lon="9.127029211304185"><ele>105.0</ele><time>2026-05-01T17:07:35Z</time></trkpt><trkpt lat="45.399664819945265" lon="9.126655134235786"><ele>105.0</ele><time>2026-05-01T17:07:36Z</time></trkpt><trkpt lat="45.39979740148755" lon="9.126296892344774"><ele>105.0</ele><time>2026-05-01T17:07:37Z</time></trkpt><trkpt lat="45.399934578374" lon="9.125947538467392"><ele>105.0</ele><time>2026-05-01T17:07:38Z</time></trkpt><trkpt lat="45.40007648493099" lon="9.125590286621602"><ele>106.0</ele><time>2026-05-01T17:07:39Z</time></trkpt><trkpt lat="45.40022319128505" lon="9.125242507382065"><ele>107.0</ele><time>2026-05-01T17:07:40Z</time></trkpt><trkpt lat="45.400366771649345" lon="9.124902817874565"><ele>108.5</ele><time>2026-05-01T17:07:41Z</time></trkpt><trkpt lat="45.40052146444653" lon="9.124556537834044"><ele>110.0</ele><time>2026-05-01T17:07:42Z</time></trkpt><trkpt lat="45.40068095287791" lon="9.12421611978458"><ele>109.5</ele><time>2026-05-01T17:07:43Z</time></trkpt><trkpt lat="45.40084986862656" lon="9.123877606747744"><ele>109.0</ele><time>2026-05-01T17:07:44Z</time></trkpt><trkpt lat="45.40101423839578" lon="9.123554235740075"><ele>109.0</ele><time>2026-05-01T17:07:45Z</time></trkpt><trkpt lat="45.40118688621963" lon="9.123230693181217"><ele>109.0</ele><time>2026-05-01T17:07:46Z</time></trkpt><trkpt lat="45.40136254621608" lon="9.122904407013184"><ele>108.5</ele><time>2026-05-01T17:07:47Z</time></trkpt><trkpt lat="45.401545594020305" lon="9.122577417402276"><ele>108.0</ele><time>2026-05-01T17:07:48Z</time></trkpt><trkpt lat="45.401724388187574" lon="9.122257495182716"><ele>107.5</ele><time>2026-05-01T17:07:49Z</time></trkpt><trkpt lat="45.40190827123861" lon="9.12193459481"><ele>107.0</ele><time>2026-05-01T17:07:50Z</time></trkpt><trkpt lat="45.402083432012404" lon="9.12161123678244"><ele>107.5</ele><time>2026-05-01T17:07:51Z</time></trkpt><trkpt lat="45.402267354089645" lon="9.121293920827162"><ele>108.0</ele><time>2026-05-01T17:07:51.999Z</time></trkpt><trkpt lat="45.4024488210236" lon="9.1209763856569"><ele>108.0</ele><time>2026-05-01T17:07:52.999Z</time></trkpt><trkpt lat="45.40263272628645" lon="9.120659463048309"><ele>108.0</ele><time>2026-05-01T17:07:53.999Z</time></trkpt><trkpt lat="45.402813664505025" lon="9.120340006363426"><ele>108.5</ele><time>2026-05-01T17:07:54.999Z</time></trkpt><trkpt lat="45.402998494642674" lon="9.120013147484368"><ele>109.0</ele><time>2026-05-01T17:07:55.999Z</time></trkpt><trkpt lat="45.40318900832075" lon="9.119688446093566"><ele>109.0</ele><time>2026-05-01T17:07:57Z</time></trkpt><trkpt lat="45.403366801685415" lon="9.11936895630452"><ele>109.0</ele><time>2026-05-01T17:07:58Z</time></trkpt><trkpt lat="45.40354215230004" lon="9.119059337013462"><ele>109.0</ele><time>2026-05-01T17:07:59Z</time></trkpt><trkpt lat="45.40371902091212" lon="9.118745444699904"><ele>109.0</ele><time>2026-05-01T17:08:00Z</time></trkpt><trkpt lat="45.403892820654825" lon="9.118431084490188"><ele>109.0</ele><time>2026-05-01T17:08:01Z</time></trkpt><trkpt lat="45.40408710036102" lon="9.118098307685482"><ele>109.0</ele><time>2026-05-01T17:08:02Z</time></trkpt><trkpt lat="45.40427210151256" lon="9.11777106652591"><ele>109.0</ele><time>2026-05-01T17:08:03Z</time></trkpt><trkpt lat="45.40445455369204" lon="9.117438890751778"><ele>109.0</ele><time>2026-05-01T17:08:04Z</time></trkpt><trkpt lat="45.40465120074653" lon="9.117104739718195"><ele>109.5</ele><time>2026-05-01T17:08:05Z</time></trkpt><trkpt lat="45.40483572242535" lon="9.116778351941313"><ele>110.0</ele><time>2026-05-01T17:08:06Z</time></trkpt><trkpt lat="45.40502700726797" lon="9.11644437047608"><ele>109.0</ele><time>2026-05-01T17:08:07Z</time></trkpt><trkpt lat="45.40522383978339" lon="9.116114902120287"><ele>108.0</ele><time>2026-05-01T17:08:08Z</time></trkpt><trkpt lat="45.405407814092946" lon="9.115782929458579"><ele>108.0</ele><time>2026-05-01T17:08:09Z</time></trkpt><trkpt lat="45.40559793300474" lon="9.115447441215563"><ele>108.0</ele><time>2026-05-01T17:08:10Z</time></trkpt><trkpt lat="45.40576535362778" lon="9.11511339978382"><ele>107.5</ele><time>2026-05-01T17:08:11Z</time></trkpt><trkpt lat="45.40595670535965" lon="9.114766393806544"><ele>107.0</ele><time>2026-05-01T17:08:12Z</time></trkpt><trkpt lat="45.40614255804945" lon="9.114428961171619"><ele>107.5</ele><time>2026-05-01T17:08:13Z</time></trkpt><trkpt lat="45.40632934316003" lon="9.114100565147961"><ele>108.0</ele><time>2026-05-01T17:08:14Z</time></trkpt><trkpt lat="45.40652460004581" lon="9.113766032236256"><ele>108.5</ele><time>2026-05-01T17:08:15Z</time></trkpt><trkpt lat="45.40670780723958" lon="9.113435895923635"><ele>109.0</ele><time>2026-05-01T17:08:16Z</time></trkpt><trkpt lat="45.406904743822324" lon="9.113101904063491"><ele>110.0</ele><time>2026-05-01T17:08:17Z</time></trkpt><trkpt lat="45.407092810000734" lon="9.112770150303557"><ele>111.0</ele><time>2026-05-01T17:08:18Z</time></trkpt><trkpt lat="45.40728949527621" lon="9.112433234395594"><ele>110.0</ele><time>2026-05-01T17:08:19Z</time></trkpt><trkpt lat="45.407487590321274" lon="9.112088502666921"><ele>109.0</ele><time>2026-05-01T17:08:20Z</time></trkpt><trkpt lat="45.40768465040441" lon="9.11175284081222"><ele>109.0</ele><time>2026-05-01T17:08:21Z</time></trkpt><trkpt lat="45.40787846702983" lon="9.111421178182013"><ele>109.0</ele><time>2026-05-01T17:08:22Z</time></trkpt><trkpt lat="45.40807612794768" lon="9.111076383144333"><ele>109.0</ele><time>2026-05-01T17:08:23Z</time></trkpt><trkpt lat="45.40826714319145" lon="9.110740703763902"><ele>109.0</ele><time>2026-05-01T17:08:24Z</time></trkpt><trkpt lat="45.408461461955206" lon="9.11039978928311"><ele>109.0</ele><time>2026-05-01T17:08:25Z</time></trkpt><trkpt lat="45.40865625099152" lon="9.110057678030895"><ele>109.0</ele><time>2026-05-01T17:08:26Z</time></trkpt><trkpt lat="45.40885492452087" lon="9.109711668928604"><ele>108.5</ele><time>2026-05-01T17:08:27Z</time></trkpt><trkpt lat="45.40904089112547" lon="9.109384618645501"><ele>108.0</ele><time>2026-05-01T17:08:28Z</time></trkpt><trkpt lat="45.409213333872984" lon="9.109082341619919"><ele>108.5</ele><time>2026-05-01T17:08:29Z</time></trkpt><trkpt lat="45.40938326633229" lon="9.108786585812647"><ele>109.0</ele><time>2026-05-01T17:08:30Z</time></trkpt><trkpt lat="45.409550582905716" lon="9.108493852215084"><ele>109.5</ele><time>2026-05-01T17:08:31Z</time></trkpt><trkpt lat="45.40972284061994" lon="9.108188697801037"><ele>110.0</ele><time>2026-05-01T17:08:32Z</time></trkpt><trkpt lat="45.40988751002714" lon="9.107892066384608"><ele>110.0</ele><time>2026-05-01T17:08:33Z</time></trkpt><trkpt lat="45.41005604826233" lon="9.107576023556582"><ele>110.0</ele><time>2026-05-01T17:08:34Z</time></trkpt><trkpt lat="45.410225410122145" lon="9.107249036386593"><ele>110.5</ele><time>2026-05-01T17:08:35Z</time></trkpt><trkpt lat="45.41038563358307" lon="9.106917672802457"><ele>111.0</ele><time>2026-05-01T17:08:36Z</time></trkpt><trkpt lat="45.41053816222083" lon="9.106595487536936"><ele>110.5</ele><time>2026-05-01T17:08:37Z</time></trkpt><trkpt lat="45.41067645621388" lon="9.106270348588707"><ele>110.0</ele><time>2026-05-01T17:08:38Z</time></trkpt><trkpt lat="45.41082228820176" lon="9.105930442850298"><ele>109.5</ele><time>2026-05-01T17:08:39Z</time></trkpt><trkpt lat="45.410964091178315" lon="9.10558230832963"><ele>109.0</ele><time>2026-05-01T17:08:40Z</time></trkpt><trkpt lat="45.41109785051639" lon="9.105238073642907"><ele>109.0</ele><time>2026-05-01T17:08:41Z</time></trkpt><trkpt lat="45.41122452993923" lon="9.104902656154255"><ele>109.0</ele><time>2026-05-01T17:08:42Z</time></trkpt><trkpt lat="45.411350780621724" lon="9.104558227286207"><ele>109.0</ele><time>2026-05-01T17:08:43Z</time></trkpt><trkpt lat="45.411471484709885" lon="9.104201847973108"><ele>109.0</ele><time>2026-05-01T17:08:44Z</time></trkpt><trkpt lat="45.41158478652257" lon="9.103844022493218"><ele>109.5</ele><time>2026-05-01T17:08:45Z</time></trkpt><trkpt lat="45.41170181744144" lon="9.103471487946624"><ele>110.0</ele><time>2026-05-01T17:08:46Z</time></trkpt><trkpt lat="45.41181274059618" lon="9.103106576767575"><ele>110.0</ele><time>2026-05-01T17:08:47Z</time></trkpt><trkpt lat="45.411915573084976" lon="9.10274389848227"><ele>110.0</ele><time>2026-05-01T17:08:48Z</time></trkpt><trkpt lat="45.41202358333304" lon="9.102381657330005"><ele>110.5</ele><time>2026-05-01T17:08:49Z</time></trkpt><trkpt lat="45.4121248331487" lon="9.10202362878001"><ele>111.0</ele><time>2026-05-01T17:08:50Z</time></trkpt><trkpt lat="45.412227051482844" lon="9.101668559397739"><ele>111.0</ele><time>2026-05-01T17:08:51Z</time></trkpt><trkpt lat="45.41232911216545" lon="9.101314166366635"><ele>111.0</ele><time>2026-05-01T17:08:52Z</time></trkpt><trkpt lat="45.412430230817584" lon="9.100965821023454"><ele>110.0</ele><time>2026-05-01T17:08:53Z</time></trkpt><trkpt lat="45.41252850143238" lon="9.10060389961279"><ele>109.0</ele><time>2026-05-01T17:08:54Z</time></trkpt><trkpt lat="45.41262694417915" lon="9.100243988413277"><ele>110.0</ele><time>2026-05-01T17:08:55Z</time></trkpt><trkpt lat="45.41270293001998" lon="9.099898520214063"><ele>111.0</ele><time>2026-05-01T17:08:56Z</time></trkpt><trkpt lat="45.412801773798996" lon="9.099553282351314"><ele>111.0</ele><time>2026-05-01T17:08:57Z</time></trkpt><trkpt lat="45.412901294235176" lon="9.099212597364364"><ele>111.0</ele><time>2026-05-01T17:08:58Z</time></trkpt><trkpt lat="45.412996750006684" lon="9.098857650665359"><ele>111.5</ele><time>2026-05-01T17:08:59Z</time></trkpt><trkpt lat="45.4130957344441" lon="9.098513781976228"><ele>112.0</ele><time>2026-05-01T17:09:00Z</time></trkpt><trkpt lat="45.41319829423029" lon="9.098170155235366"><ele>112.0</ele><time>2026-05-01T17:09:01Z</time></trkpt><trkpt lat="45.41329434456911" lon="9.097825636360591"><ele>112.0</ele><time>2026-05-01T17:09:02Z</time></trkpt><trkpt lat="45.41339948482535" lon="9.097471041283276"><ele>112.0</ele><time>2026-05-01T17:09:03Z</time></trkpt><trkpt lat="45.413500982218466" lon="9.097109865432525"><ele>112.0</ele><time>2026-05-01T17:09:04Z</time></trkpt><trkpt lat="45.41360019739356" lon="9.096760879385785"><ele>112.0</ele><time>2026-05-01T17:09:05Z</time></trkpt><trkpt lat="45.41369401362135" lon="9.096417097924792"><ele>112.0</ele><time>2026-05-01T17:09:06Z</time></trkpt><trkpt lat="45.41379094406597" lon="9.096067440400391"><ele>110.5</ele><time>2026-05-01T17:09:07Z</time></trkpt><trkpt lat="45.413894745568044" lon="9.095713714882658"><ele>109.0</ele><time>2026-05-01T17:09:08Z</time></trkpt><trkpt lat="45.413998502235174" lon="9.095343421861102"><ele>109.0</ele><time>2026-05-01T17:09:09Z</time></trkpt><trkpt lat="45.41410218167248" lon="9.094986834684878"><ele>109.0</ele><time>2026-05-01T17:09:10Z</time></trkpt><trkpt lat="45.414204082393894" lon="9.094615318026065"><ele>109.5</ele><time>2026-05-01T17:09:11Z</time></trkpt><trkpt lat="45.414307086513496" lon="9.094255302537489"><ele>110.0</ele><time>2026-05-01T17:09:12Z</time></trkpt><trkpt lat="45.4144131919729" lon="9.093878292842124"><ele>110.0</ele><time>2026-05-01T17:09:13Z</time></trkpt><trkpt lat="45.4145227334228" lon="9.09349319046964"><ele>110.0</ele><time>2026-05-01T17:09:14Z</time></trkpt><trkpt lat="45.41463071726948" lon="9.09311856840298"><ele>110.0</ele><time>2026-05-01T17:09:15Z</time></trkpt><trkpt lat="45.414738353794306" lon="9.092739275992242"><ele>110.0</ele><time>2026-05-01T17:09:16Z</time></trkpt><trkpt lat="45.414847715495895" lon="9.092361491661714"><ele>110.0</ele><time>2026-05-01T17:09:17Z</time></trkpt><trkpt lat="45.41495996372972" lon="9.091978495877878"><ele>110.0</ele><time>2026-05-01T17:09:18Z</time></trkpt><trkpt lat="45.41506965061878" lon="9.091593489252226"><ele>109.0</ele><time>2026-05-01T17:09:19Z</time></trkpt><trkpt lat="45.415183017844875" lon="9.091200937883135"><ele>108.0</ele><time>2026-05-01T17:09:20Z</time></trkpt><trkpt lat="45.415294010722775" lon="9.09080886245969"><ele>109.0</ele><time>2026-05-01T17:09:21Z</time></trkpt><trkpt lat="45.41540698373688" lon="9.090422044976908"><ele>110.0</ele><time>2026-05-01T17:09:22Z</time></trkpt><trkpt lat="45.415522541016436" lon="9.09003412949868"><ele>109.0</ele><time>2026-05-01T17:09:23Z</time></trkpt><trkpt lat="45.41564200425017" lon="9.089658358520285"><ele>108.0</ele><time>2026-05-01T17:09:24Z</time></trkpt><trkpt lat="45.415754588648525" lon="9.089285525301914"><ele>110.5</ele><time>2026-05-01T17:09:25Z</time></trkpt><trkpt lat="45.41587288306701" lon="9.088896571497784"><ele>113.0</ele><time>2026-05-01T17:09:26Z</time></trkpt><trkpt lat="45.41598644205555" lon="9.0884998496453"><ele>112.5</ele><time>2026-05-01T17:09:27Z</time></trkpt><trkpt lat="45.416102889517546" lon="9.088120914823708"><ele>112.0</ele><time>2026-05-01T17:09:28Z</time></trkpt><trkpt lat="45.416228633433796" lon="9.087743159744328"><ele>112.5</ele><time>2026-05-01T17:09:29Z</time></trkpt><trkpt lat="45.416363477521685" lon="9.08738018993157"><ele>113.0</ele><time>2026-05-01T17:09:30Z</time></trkpt><trkpt lat="45.41650974328808" lon="9.087010336259091"><ele>113.0</ele><time>2026-05-01T17:09:30.999Z</time></trkpt><trkpt lat="45.41666513251647" lon="9.08665551450708"><ele>113.0</ele><time>2026-05-01T17:09:31.999Z</time></trkpt><trkpt lat="45.41682933991954" lon="9.086302996103807"><ele>113.5</ele><time>2026-05-01T17:09:32.999Z</time></trkpt><trkpt lat="45.41699389419127" lon="9.08596376558416"><ele>114.0</ele><time>2026-05-01T17:09:33.999Z</time></trkpt><trkpt lat="45.41716181265511" lon="9.085627408048179"><ele>112.5</ele><time>2026-05-01T17:09:34.999Z</time></trkpt><trkpt lat="45.4173415829097" lon="9.085294215463696"><ele>111.0</ele><time>2026-05-01T17:09:35.999Z</time></trkpt><trkpt lat="45.41752808789434" lon="9.084986561271899"><ele>112.5</ele><time>2026-05-01T17:09:36.999Z</time></trkpt><trkpt lat="45.41771092126028" lon="9.084666089498679"><ele>114.0</ele><time>2026-05-01T17:09:37.999Z</time></trkpt><trkpt lat="45.41790098805644" lon="9.08436268021535"><ele>114.0</ele><time>2026-05-01T17:09:38.999Z</time></trkpt><trkpt lat="45.4181083564417" lon="9.08406757663601"><ele>114.0</ele><time>2026-05-01T17:09:39.999Z</time></trkpt><trkpt lat="45.41831874690588" lon="9.083781446735543"><ele>114.0</ele><time>2026-05-01T17:09:40.999Z</time></trkpt><trkpt lat="45.41852359299851" lon="9.083506398788629"><ele>114.0</ele><time>2026-05-01T17:09:41.999Z</time></trkpt><trkpt lat="45.41873441890336" lon="9.083236282284254"><ele>113.0</ele><time>2026-05-01T17:09:42.999Z</time></trkpt><trkpt lat="45.41895750063225" lon="9.0829681924289"><ele>112.0</ele><time>2026-05-01T17:09:43.999Z</time></trkpt><trkpt lat="45.41917976393941" lon="9.082704424803556"><ele>112.0</ele><time>2026-05-01T17:09:44.999Z</time></trkpt><trkpt lat="45.41940219910894" lon="9.082465574776014"><ele>112.0</ele><time>2026-05-01T17:09:45.999Z</time></trkpt><trkpt lat="45.41960703835402" lon="9.0822572031429"><ele>113.0</ele><time>2026-05-01T17:09:46.999Z</time></trkpt><trkpt lat="45.41981054781237" lon="9.082061396244757"><ele>114.0</ele><time>2026-05-01T17:09:47.999Z</time></trkpt><trkpt lat="45.420008821726796" lon="9.081880873685089"><ele>114.0</ele><time>2026-05-01T17:09:48.999Z</time></trkpt><trkpt lat="45.42020699479347" lon="9.081700063354115"><ele>114.0</ele><time>2026-05-01T17:09:49.999Z</time></trkpt><trkpt lat="45.42040703797793" lon="9.081540982745322"><ele>115.0</ele><time>2026-05-01T17:09:50.999Z</time></trkpt><trkpt lat="45.42062090595625" lon="9.081372635691839"><ele>116.0</ele><time>2026-05-01T17:09:51.999Z</time></trkpt><trkpt lat="45.420841342609314" lon="9.08120024179885"><ele>116.0</ele><time>2026-05-01T17:09:52.999Z</time></trkpt><trkpt lat="45.42106719125478" lon="9.081044131825125"><ele>116.0</ele><time>2026-05-01T17:09:53.999Z</time></trkpt><trkpt lat="45.42131216818052" lon="9.080882777456724"><ele>116.5</ele><time>2026-05-01T17:09:54.999Z</time></trkpt><trkpt lat="45.421685168961815" lon="9.08119668122634"><ele>117.0</ele><time>2026-05-01T17:09:55.999Z</time></trkpt><trkpt lat="45.42193866013273" lon="9.081049521902306"><ele>116.5</ele><time>2026-05-01T17:09:56.999Z</time></trkpt><trkpt lat="45.42218605680203" lon="9.08087788657827"><ele>116.0</ele><time>2026-05-01T17:09:57.999Z</time></trkpt><trkpt lat="45.422312152401936" lon="9.080270146550951"><ele>116.0</ele><time>2026-05-01T17:09:58.999Z</time></trkpt><trkpt lat="45.4225794188941" lon="9.080103748962653"><ele>116.0</ele><time>2026-05-01T17:09:59.999Z</time></trkpt><trkpt lat="45.42284171753543" lon="9.079939088393651"><ele>114.5</ele><time>2026-05-01T17:10:00.999Z</time></trkpt><trkpt lat="45.423102092741516" lon="9.0797773135767"><ele>113.0</ele><time>2026-05-01T17:10:01.999Z</time></trkpt><trkpt lat="45.42336686151527" lon="9.079604081714796"><ele>113.0</ele><time>2026-05-01T17:10:02.999Z</time></trkpt><trkpt lat="45.423631727223075" lon="9.07944386936637"><ele>113.0</ele><time>2026-05-01T17:10:03.999Z</time></trkpt><trkpt lat="45.4238867978672" lon="9.079290243381273"><ele>114.0</ele><time>2026-05-01T17:10:04.999Z</time></trkpt><trkpt lat="45.424124990083975" lon="9.0791440156801"><ele>115.0</ele><time>2026-05-01T17:10:05.999Z</time></trkpt><trkpt lat="45.424361495088746" lon="9.078995911920222"><ele>115.0</ele><time>2026-05-01T17:10:06.999Z</time></trkpt><trkpt lat="45.424591028180025" lon="9.078863606908092"><ele>115.0</ele><time>2026-05-01T17:10:07.999Z</time></trkpt><trkpt lat="45.42483328637417" lon="9.078710397494438"><ele>117.0</ele><time>2026-05-01T17:10:08.999Z</time></trkpt><trkpt lat="45.425076230349916" lon="9.078559198329032"><ele>119.0</ele><time>2026-05-01T17:10:09.999Z</time></trkpt><trkpt lat="45.425330989965396" lon="9.078399851717144"><ele>118.5</ele><time>2026-05-01T17:10:10.999Z</time></trkpt><trkpt lat="45.425599150039574" lon="9.078232969665418"><ele>118.0</ele><time>2026-05-01T17:10:11.999Z</time></trkpt><trkpt lat="45.425877002816534" lon="9.078053560709012"><ele>118.0</ele><time>2026-05-01T17:10:12.999Z</time></trkpt><trkpt lat="45.42615797639252" lon="9.077866415136633"><ele>118.0</ele><time>2026-05-01T17:10:13.999Z</time></trkpt><trkpt lat="45.426446087644216" lon="9.07768362954952"><ele>118.5</ele><time>2026-05-01T17:10:14.999Z</time></trkpt><trkpt lat="45.426734089906454" lon="9.077501053977747"><ele>119.0</ele><time>2026-05-01T17:10:15.999Z</time></trkpt><trkpt lat="45.42702889074916" lon="9.077321560324418"><ele>119.0</ele><time>2026-05-01T17:10:16.999Z</time></trkpt><trkpt lat="45.42732747699199" lon="9.077136397463601"><ele>119.0</ele><time>2026-05-01T17:10:18Z</time></trkpt><trkpt lat="45.4276156479393" lon="9.076958769775793"><ele>119.0</ele><time>2026-05-01T17:10:19Z</time></trkpt><trkpt lat="45.42791000401166" lon="9.076780406092427"><ele>119.0</ele><time>2026-05-01T17:10:20Z</time></trkpt><trkpt lat="45.42820889090026" lon="9.076609581854791"><ele>117.0</ele><time>2026-05-01T17:10:21Z</time></trkpt><trkpt lat="45.428492297024974" lon="9.07644171170393"><ele>115.0</ele><time>2026-05-01T17:10:22Z</time></trkpt><trkpt lat="45.428758581873744" lon="9.07628999115226"><ele>116.5</ele><time>2026-05-01T17:10:23Z</time></trkpt><trkpt lat="45.4290222119916" lon="9.076135864517896"><ele>118.0</ele><time>2026-05-01T17:10:24Z</time></trkpt><trkpt lat="45.429270393239015" lon="9.075985261929938"><ele>118.0</ele><time>2026-05-01T17:10:25Z</time></trkpt><trkpt lat="45.42951700911451" lon="9.07585017007844"><ele>118.0</ele><time>2026-05-01T17:10:26Z</time></trkpt><trkpt lat="45.429763885113026" lon="9.075729641648143"><ele>117.5</ele><time>2026-05-01T17:10:27Z</time></trkpt><trkpt lat="45.4300166284579" lon="9.075610377771767"><ele>117.0</ele><time>2026-05-01T17:10:28Z</time></trkpt><trkpt lat="45.430263985990294" lon="9.075500900539549"><ele>116.5</ele><time>2026-05-01T17:10:29Z</time></trkpt><trkpt lat="45.43051721486458" lon="9.07539954389038"><ele>116.0</ele><time>2026-05-01T17:10:30Z</time></trkpt><trkpt lat="45.43076789863175" lon="9.0753026371925"><ele>116.0</ele><time>2026-05-01T17:10:31Z</time></trkpt><trkpt lat="45.43102486466018" lon="9.075209284880657"><ele>116.0</ele><time>2026-05-01T17:10:32Z</time></trkpt><trkpt lat="45.43127731184091" lon="9.07512356835017"><ele>115.0</ele><time>2026-05-01T17:10:33Z</time></trkpt><trkpt lat="45.431532408044994" lon="9.075045766671362"><ele>114.0</ele><time>2026-05-01T17:10:34Z</time></trkpt><trkpt lat="45.43178910766731" lon="9.074970303313293"><ele>114.0</ele><time>2026-05-01T17:10:35Z</time></trkpt><trkpt lat="45.432057247904716" lon="9.074911146033863"><ele>114.0</ele><time>2026-05-01T17:10:36Z</time></trkpt><trkpt lat="45.432317197454175" lon="9.074837269414017"><ele>114.0</ele><time>2026-05-01T17:10:37Z</time></trkpt><trkpt lat="45.43258389160243" lon="9.074773293003753"><ele>114.0</ele><time>2026-05-01T17:10:38Z</time></trkpt><trkpt lat="45.43285001884276" lon="9.07472180201414"><ele>116.0</ele><time>2026-05-01T17:10:39Z</time></trkpt><trkpt lat="45.4331270312801" lon="9.074674039331345"><ele>118.0</ele><time>2026-05-01T17:10:40Z</time></trkpt><trkpt lat="45.43339684137044" lon="9.074643584227148"><ele>118.0</ele><time>2026-05-01T17:10:41Z</time></trkpt><trkpt lat="45.433676324956096" lon="9.07461816194059"><ele>118.0</ele><time>2026-05-01T17:10:42Z</time></trkpt><trkpt lat="45.43396073019206" lon="9.074587230309444"><ele>117.5</ele><time>2026-05-01T17:10:43Z</time></trkpt><trkpt lat="45.43424089328367" lon="9.07455767832185"><ele>117.0</ele><time>2026-05-01T17:10:44Z</time></trkpt><trkpt lat="45.43452554413609" lon="9.074531962247521"><ele>117.5</ele><time>2026-05-01T17:10:45Z</time></trkpt><trkpt lat="45.43481560494836" lon="9.074506321691585"><ele>118.0</ele><time>2026-05-01T17:10:46Z</time></trkpt><trkpt lat="45.435108958137405" lon="9.074482802564013"><ele>118.0</ele><time>2026-05-01T17:10:47Z</time></trkpt><trkpt lat="45.43539602201916" lon="9.074468793127705"><ele>118.0</ele><time>2026-05-01T17:10:48Z</time></trkpt><trkpt lat="45.43567735563641" lon="9.074443586972698"><ele>118.0</ele><time>2026-05-01T17:10:49Z</time></trkpt><trkpt lat="45.43595734019745" lon="9.074404997334433"><ele>118.0</ele><time>2026-05-01T17:10:50Z</time></trkpt><trkpt lat="45.43621206284684" lon="9.074379850331752"><ele>116.5</ele><time>2026-05-01T17:10:51Z</time></trkpt><trkpt lat="45.43645510699446" lon="9.07435319314248"><ele>115.0</ele><time>2026-05-01T17:10:52Z</time></trkpt><trkpt lat="45.436693568375134" lon="9.074326951927503"><ele>115.0</ele><time>2026-05-01T17:10:53Z</time></trkpt><trkpt lat="45.43694148224502" lon="9.074303449780864"><ele>115.0</ele><time>2026-05-01T17:10:54Z</time></trkpt><trkpt lat="45.43719186387461" lon="9.074273791129144"><ele>114.0</ele><time>2026-05-01T17:10:55Z</time></trkpt><trkpt lat="45.437441070619215" lon="9.0742459413504"><ele>113.0</ele><time>2026-05-01T17:10:56Z</time></trkpt><trkpt lat="45.43768826483362" lon="9.07421816122753"><ele>113.0</ele><time>2026-05-01T17:10:57Z</time></trkpt><trkpt lat="45.43793717633153" lon="9.074190992197146"><ele>113.0</ele><time>2026-05-01T17:10:58Z</time></trkpt><trkpt lat="45.438183786495394" lon="9.074164342650574"><ele>113.5</ele><time>2026-05-01T17:10:59Z</time></trkpt><trkpt lat="45.43843042392765" lon="9.074144201002852"><ele>114.0</ele><time>2026-05-01T17:11:00Z</time></trkpt><trkpt lat="45.438677847293995" lon="9.074121083727249"><ele>115.0</ele><time>2026-05-01T17:11:01Z</time></trkpt><trkpt lat="45.438920008520235" lon="9.074096961524349"><ele>116.0</ele><time>2026-05-01T17:11:02Z</time></trkpt><trkpt lat="45.439159015585126" lon="9.074065248696323"><ele>116.0</ele><time>2026-05-01T17:11:03Z</time></trkpt><trkpt lat="45.43940279571845" lon="9.074034735107176"><ele>116.0</ele><time>2026-05-01T17:11:04Z</time></trkpt><trkpt lat="45.43964434753647" lon="9.074009246668105"><ele>116.66666666666666</ele><time>2026-05-01T17:11:05Z</time></trkpt><trkpt lat="45.43987244442754" lon="9.073983610163822"><ele>117.33333333333334</ele><time>2026-05-01T17:11:06Z</time></trkpt><trkpt lat="45.44009078282148" lon="9.073956284632215"><ele>118.0</ele><time>2026-05-01T17:11:07Z</time></trkpt><trkpt lat="45.44030396391985" lon="9.07393924629401"><ele>118.33333333333334</ele><time>2026-05-01T17:11:08Z</time></trkpt><trkpt lat="45.44051638001005" lon="9.073914936310084"><ele>118.66666666666666</ele><time>2026-05-01T17:11:09Z</time></trkpt><trkpt lat="45.44072398622863" lon="9.073889697482945"><ele>119.0</ele><time>2026-05-01T17:11:10Z</time></trkpt><trkpt lat="45.44092346345815" lon="9.073870060883246"><ele>119.0</ele><time>2026-05-01T17:11:11Z</time></trkpt><trkpt lat="45.4411235360393" lon="9.07385858454003"><ele>119.0</ele><time>2026-05-01T17:11:12Z</time></trkpt><trkpt lat="45.441338217455964" lon="9.073854919368273"><ele>119.0</ele><time>2026-05-01T17:11:13Z</time></trkpt><trkpt lat="45.441557699774314" lon="9.073851978026443"><ele>120.0</ele><time>2026-05-01T17:11:14Z</time></trkpt><trkpt lat="45.4417840452307" lon="9.073846684653583"><ele>121.0</ele><time>2026-05-01T17:11:15Z</time></trkpt><trkpt lat="45.44201276115343" lon="9.073848325420556"><ele>118.5</ele><time>2026-05-01T17:11:16Z</time></trkpt><trkpt lat="45.44224048340427" lon="9.073853868791934"><ele>116.0</ele><time>2026-05-01T17:11:17Z</time></trkpt><trkpt lat="45.442470516955915" lon="9.073862985436767"><ele>116.0</ele><time>2026-05-01T17:11:18Z</time></trkpt><trkpt lat="45.44270781989951" lon="9.073877296036597"><ele>116.0</ele><time>2026-05-01T17:11:19Z</time></trkpt><trkpt lat="45.442941254576006" lon="9.073897284126224"><ele>117.5</ele><time>2026-05-01T17:11:20Z</time></trkpt><trkpt lat="45.44317499750585" lon="9.0739165793146"><ele>119.0</ele><time>2026-05-01T17:11:21Z</time></trkpt><trkpt lat="45.44341223206309" lon="9.073936595467778"><ele>119.0</ele><time>2026-05-01T17:11:22Z</time></trkpt><trkpt lat="45.443645636402" lon="9.073961515227493"><ele>119.0</ele><time>2026-05-01T17:11:23Z</time></trkpt><trkpt lat="45.44387888989526" lon="9.074000194454085"><ele>120.0</ele><time>2026-05-01T17:11:24Z</time></trkpt><trkpt lat="45.44410890471266" lon="9.074041050850928"><ele>121.0</ele><time>2026-05-01T17:11:25Z</time></trkpt><trkpt lat="45.44432714095329" lon="9.074082554660107"><ele>121.0</ele><time>2026-05-01T17:11:26Z</time></trkpt><trkpt lat="45.44454449891304" lon="9.074128623245883"><ele>121.0</ele><time>2026-05-01T17:11:27Z</time></trkpt><trkpt lat="45.44475204345474" lon="9.074169645842094"><ele>121.0</ele><time>2026-05-01T17:11:28Z</time></trkpt><trkpt lat="45.44495878962881" lon="9.0742200011953"><ele>121.0</ele><time>2026-05-01T17:11:29Z</time></trkpt><trkpt lat="45.44516175208343" lon="9.074278474552095"><ele>121.0</ele><time>2026-05-01T17:11:30Z</time></trkpt><trkpt lat="45.44537139638206" lon="9.074337006899206"><ele>121.0</ele><time>2026-05-01T17:11:31Z</time></trkpt><trkpt lat="45.44557720506941" lon="9.074401481766712"><ele>121.33333333333334</ele><time>2026-05-01T17:11:32Z</time></trkpt><trkpt lat="45.4457833062391" lon="9.074466365479838"><ele>121.66666666666666</ele><time>2026-05-01T17:11:33Z</time></trkpt><trkpt lat="45.445994526570445" lon="9.074528871298208"><ele>122.0</ele><time>2026-05-01T17:11:34Z</time></trkpt><trkpt lat="45.44621306402859" lon="9.07459071183466"><ele>121.66666666666666</ele><time>2026-05-01T17:11:35Z</time></trkpt><trkpt lat="45.446428517024415" lon="9.074648111101281"><ele>121.33333333333334</ele><time>2026-05-01T17:11:36Z</time></trkpt><trkpt lat="45.44664893602431" lon="9.074702725963233"><ele>121.0</ele><time>2026-05-01T17:11:37Z</time></trkpt><trkpt lat="45.44686842843895" lon="9.074764278591582"><ele>121.0</ele><time>2026-05-01T17:11:38Z</time></trkpt><trkpt lat="45.44708810985533" lon="9.07482594516944"><ele>121.0</ele><time>2026-05-01T17:11:39Z</time></trkpt><trkpt lat="45.44731115773986" lon="9.074885833927246"><ele>121.0</ele><time>2026-05-01T17:11:40Z</time></trkpt><trkpt lat="45.447528340305304" lon="9.074951364639308"><ele>121.0</ele><time>2026-05-01T17:11:41Z</time></trkpt><trkpt lat="45.4477468894079" lon="9.07501324917956"><ele>121.0</ele><time>2026-05-01T17:11:42Z</time></trkpt><trkpt lat="45.44796594454975" lon="9.075078297055752"><ele>121.0</ele><time>2026-05-01T17:11:43Z</time></trkpt><trkpt lat="45.448185196019296" lon="9.075137454648168"><ele>121.0</ele><time>2026-05-01T17:11:44Z</time></trkpt><trkpt lat="45.4483908248928" lon="9.075207958399435"><ele>121.0</ele><time>2026-05-01T17:11:45Z</time></trkpt><trkpt lat="45.44860071719999" lon="9.075274934658596"><ele>121.33333333333334</ele><time>2026-05-01T17:11:46Z</time></trkpt><trkpt lat="45.44881420221311" lon="9.075343148326668"><ele>121.66666666666666</ele><time>2026-05-01T17:11:47Z</time></trkpt><trkpt lat="45.44902359361705" lon="9.075410078415759"><ele>122.0</ele><time>2026-05-01T17:11:48Z</time></trkpt><trkpt lat="45.44923505022499" lon="9.075473304445328"><ele>122.0</ele><time>2026-05-01T17:11:49Z</time></trkpt><trkpt lat="45.44944579850477" lon="9.07554190275812"><ele>122.0</ele><time>2026-05-01T17:11:50Z</time></trkpt><trkpt lat="45.44965381350883" lon="9.075613320878116"><ele>122.0</ele><time>2026-05-01T17:11:51Z</time></trkpt><trkpt lat="45.44986011260517" lon="9.075673947732886"><ele>122.0</ele><time>2026-05-01T17:11:52Z</time></trkpt><trkpt lat="45.450072739994305" lon="9.07573940620335"><ele>122.0</ele><time>2026-05-01T17:11:53Z</time></trkpt><trkpt lat="45.45028813435059" lon="9.075802503165939"><ele>122.0</ele><time>2026-05-01T17:11:54Z</time></trkpt><trkpt lat="45.450501401143875" lon="9.075878223275831"><ele>122.0</ele><time>2026-05-01T17:11:55Z</time></trkpt><trkpt lat="45.450712477566746" lon="9.075943410798383"><ele>122.0</ele><time>2026-05-01T17:11:56Z</time></trkpt><trkpt lat="45.45092640198823" lon="9.076011835884625"><ele>122.0</ele><time>2026-05-01T17:11:57Z</time></trkpt><trkpt lat="45.45113880230138" lon="9.076082465314594"><ele>122.0</ele><time>2026-05-01T17:11:58Z</time></trkpt><trkpt lat="45.45134735306296" lon="9.07615467002609"><ele>122.0</ele><time>2026-05-01T17:11:59Z</time></trkpt><trkpt lat="45.45155742024941" lon="9.07623156159475"><ele>122.0</ele><time>2026-05-01T17:12:00Z</time></trkpt><trkpt lat="45.45176875626059" lon="9.076305925289661"><ele>122.0</ele><time>2026-05-01T17:12:01Z</time></trkpt><trkpt lat="45.45198042473326" lon="9.076379739423839"><ele>122.0</ele><time>2026-05-01T17:12:02Z</time></trkpt><trkpt lat="45.45218794383578" lon="9.076452143476143"><ele>122.0</ele><time>2026-05-01T17:12:03Z</time></trkpt><trkpt lat="45.452406573716296" lon="9.076509991583857"><ele>122.0</ele><time>2026-05-01T17:12:04Z</time></trkpt><trkpt lat="45.45261620031528" lon="9.076570039630584"><ele>122.0</ele><time>2026-05-01T17:12:05Z</time></trkpt><trkpt lat="45.452826895471375" lon="9.076635963900584"><ele>122.0</ele><time>2026-05-01T17:12:06Z</time></trkpt><trkpt lat="45.453042229722136" lon="9.076699048039206"><ele>122.33333333333333</ele><time>2026-05-01T17:12:07Z</time></trkpt><trkpt lat="45.453252568255806" lon="9.07676704091897"><ele>122.66666666666666</ele><time>2026-05-01T17:12:08Z</time></trkpt><trkpt lat="45.453462043034165" lon="9.076836530506124"><ele>123.0</ele><time>2026-05-01T17:12:08.999Z</time></trkpt><trkpt lat="45.45367389929021" lon="9.076906299269975"><ele>123.0</ele><time>2026-05-01T17:12:09.999Z</time></trkpt><trkpt lat="45.45388594447747" lon="9.076973078040785"><ele>123.0</ele><time>2026-05-01T17:12:10.999Z</time></trkpt><trkpt lat="45.45410865540581" lon="9.077046949593786"><ele>123.0</ele><time>2026-05-01T17:12:11.999Z</time></trkpt><trkpt lat="45.45433039104273" lon="9.077108224014292"><ele>123.0</ele><time>2026-05-01T17:12:12.999Z</time></trkpt><trkpt lat="45.45453523269886" lon="9.077170941061231"><ele>123.0</ele><time>2026-05-01T17:12:13.999Z</time></trkpt><trkpt lat="45.45474863451025" lon="9.077239260083772"><ele>123.0</ele><time>2026-05-01T17:12:14.999Z</time></trkpt><trkpt lat="45.45496072847594" lon="9.077298415824071"><ele>122.66666666666666</ele><time>2026-05-01T17:12:16Z</time></trkpt><trkpt lat="45.45517400553231" lon="9.077355586794155"><ele>122.33333333333333</ele><time>2026-05-01T17:12:17Z</time></trkpt><trkpt lat="45.455383116079496" lon="9.077415678508466"><ele>122.0</ele><time>2026-05-01T17:12:18Z</time></trkpt><trkpt lat="45.455602585728954" lon="9.077466315517988"><ele>123.0</ele><time>2026-05-01T17:12:19Z</time></trkpt><trkpt lat="45.455812413789715" lon="9.077523373324095"><ele>124.0</ele><time>2026-05-01T17:12:20Z</time></trkpt><trkpt lat="45.45602604087716" lon="9.077568794635102"><ele>125.0</ele><time>2026-05-01T17:12:21Z</time></trkpt><trkpt lat="45.456237991990186" lon="9.077607594857962"><ele>125.33333333333333</ele><time>2026-05-01T17:12:22Z</time></trkpt><trkpt lat="45.456455013843815" lon="9.077638131318473"><ele>125.66666666666666</ele><time>2026-05-01T17:12:23Z</time></trkpt><trkpt lat="45.45667229497238" lon="9.077658178193323"><ele>126.0</ele><time>2026-05-01T17:12:24Z</time></trkpt><trkpt lat="45.45688678618609" lon="9.077666359394762"><ele>126.0</ele><time>2026-05-01T17:12:25Z</time></trkpt><trkpt lat="45.457107268638026" lon="9.077666563140113"><ele>126.0</ele><time>2026-05-01T17:12:26Z</time></trkpt><trkpt lat="45.45732013069427" lon="9.077660691023317"><ele>126.0</ele><time>2026-05-01T17:12:27Z</time></trkpt><trkpt lat="45.457536942503154" lon="9.077650069276325"><ele>125.66666666666666</ele><time>2026-05-01T17:12:28Z</time></trkpt><trkpt lat="45.45775415450439" lon="9.077630006478534"><ele>125.33333333333333</ele><time>2026-05-01T17:12:29Z</time></trkpt><trkpt lat="45.45796996236738" lon="9.07760488181628"><ele>125.0</ele><time>2026-05-01T17:12:30Z</time></trkpt><trkpt lat="45.45818995303958" lon="9.077565274419165"><ele>125.66666666666666</ele><time>2026-05-01T17:12:31Z</time></trkpt><trkpt lat="45.458406374297454" lon="9.077519067158383"><ele>126.33333333333334</ele><time>2026-05-01T17:12:32Z</time></trkpt><trkpt lat="45.458621409658775" lon="9.077470137513997"><ele>127.0</ele><time>2026-05-01T17:12:33Z</time></trkpt><trkpt lat="45.458836501539004" lon="9.077424134670823"><ele>127.0</ele><time>2026-05-01T17:12:34Z</time></trkpt><trkpt lat="45.45905199837" lon="9.077363105726143"><ele>127.0</ele><time>2026-05-01T17:12:35Z</time></trkpt><trkpt lat="45.459266904375085" lon="9.077296172184019"><ele>127.0</ele><time>2026-05-01T17:12:36Z</time></trkpt><trkpt lat="45.4594807511922" lon="9.077233417524274"><ele>127.0</ele><time>2026-05-01T17:12:37Z</time></trkpt><trkpt lat="45.45969591525239" lon="9.077169616228236"><ele>127.0</ele><time>2026-05-01T17:12:38Z</time></trkpt><trkpt lat="45.45990666440468" lon="9.077105405670626"><ele>127.0</ele><time>2026-05-01T17:12:39Z</time></trkpt><trkpt lat="45.46011606514002" lon="9.077049387574796"><ele>127.0</ele><time>2026-05-01T17:12:40Z</time></trkpt><trkpt lat="45.46033352045839" lon="9.07698652574065"><ele>127.0</ele><time>2026-05-01T17:12:41Z</time></trkpt><trkpt lat="45.460540103243325" lon="9.076927773884798"><ele>127.0</ele><time>2026-05-01T17:12:42Z</time></trkpt><trkpt lat="45.46075304521406" lon="9.076867189478605"><ele>127.0</ele><time>2026-05-01T17:12:43Z</time></trkpt><trkpt lat="45.460969189419274" lon="9.076798879726"><ele>127.0</ele><time>2026-05-01T17:12:44Z</time></trkpt><trkpt lat="45.461181585167886" lon="9.076737526001198"><ele>127.0</ele><time>2026-05-01T17:12:45Z</time></trkpt><trkpt lat="45.46139513548621" lon="9.07667296514046"><ele>127.0</ele><time>2026-05-01T17:12:46Z</time></trkpt><trkpt lat="45.46161045219513" lon="9.07660748278082"><ele>127.0</ele><time>2026-05-01T17:12:47Z</time></trkpt><trkpt lat="45.461822028245074" lon="9.07655176862221"><ele>127.0</ele><time>2026-05-01T17:12:48Z</time></trkpt><trkpt lat="45.4620349164364" lon="9.07650085467613"><ele>127.0</ele><time>2026-05-01T17:12:49Z</time></trkpt><trkpt lat="45.46225021958702" lon="9.076445514192276"><ele>127.0</ele><time>2026-05-01T17:12:50Z</time></trkpt><trkpt lat="45.46246650471843" lon="9.07639234205812"><ele>127.0</ele><time>2026-05-01T17:12:51Z</time></trkpt><trkpt lat="45.46268361607574" lon="9.076337875695678"><ele>127.0</ele><time>2026-05-01T17:12:52Z</time></trkpt><trkpt lat="45.46290138754526" lon="9.076295141468043"><ele>127.0</ele><time>2026-05-01T17:12:53Z</time></trkpt><trkpt lat="45.46311737892652" lon="9.07626746315885"><ele>127.0</ele><time>2026-05-01T17:12:54Z</time></trkpt><trkpt lat="45.46333349667044" lon="9.076247107474611"><ele>127.66666666666667</ele><time>2026-05-01T17:12:55Z</time></trkpt><trkpt lat="45.463552536461954" lon="9.076242413322767"><ele>128.33333333333334</ele><time>2026-05-01T17:12:56Z</time></trkpt><trkpt lat="45.46376861015711" lon="9.076246405395302"><ele>129.0</ele><time>2026-05-01T17:12:57Z</time></trkpt><trkpt lat="45.463987436974584" lon="9.076260341534345"><ele>129.33333333333334</ele><time>2026-05-01T17:12:58Z</time></trkpt><trkpt lat="45.46420446745147" lon="9.076281726303623"><ele>129.66666666666669</ele><time>2026-05-01T17:12:59Z</time></trkpt><trkpt lat="45.46442574177134" lon="9.076308420280059"><ele>130.0</ele><time>2026-05-01T17:13:00Z</time></trkpt><trkpt lat="45.464640352800075" lon="9.076341498338008"><ele>130.0</ele><time>2026-05-01T17:13:01Z</time></trkpt><trkpt lat="45.46485874645508" lon="9.076384345259603"><ele>130.0</ele><time>2026-05-01T17:13:02Z</time></trkpt><trkpt lat="45.46507089938492" lon="9.0764363527569"><ele>130.0</ele><time>2026-05-01T17:13:03Z</time></trkpt><trkpt lat="45.4652876265775" lon="9.076497835147885"><ele>129.0</ele><time>2026-05-01T17:13:04Z</time></trkpt><trkpt lat="45.465497965234256" lon="9.076574448468115"><ele>128.0</ele><time>2026-05-01T17:13:05Z</time></trkpt><trkpt lat="45.46570730809348" lon="9.076661295041893"><ele>127.0</ele><time>2026-05-01T17:13:06Z</time></trkpt><trkpt lat="45.465916633229355" lon="9.07675153232062"><ele>127.0</ele><time>2026-05-01T17:13:07Z</time></trkpt><trkpt lat="45.46612388855036" lon="9.076846791717166"><ele>127.0</ele><time>2026-05-01T17:13:08Z</time></trkpt><trkpt lat="45.4663317195448" lon="9.076950801813632"><ele>127.0</ele><time>2026-05-01T17:13:09Z</time></trkpt><trkpt lat="45.46653317132192" lon="9.07706728330428"><ele>127.33333333333334</ele><time>2026-05-01T17:13:10Z</time></trkpt><trkpt lat="45.46673445127561" lon="9.07718246364792"><ele>127.66666666666666</ele><time>2026-05-01T17:13:11Z</time></trkpt><trkpt lat="45.46693361628997" lon="9.077300426945142"><ele>128.0</ele><time>2026-05-01T17:13:12Z</time></trkpt><trkpt lat="45.46713407752393" lon="9.077422011185215"><ele>128.33333333333331</ele><time>2026-05-01T17:13:13Z</time></trkpt><trkpt lat="45.467333265320754" lon="9.077538363258444"><ele>128.66666666666666</ele><time>2026-05-01T17:13:14Z</time></trkpt><trkpt lat="45.467536394244405" lon="9.077653585874248"><ele>129.0</ele><time>2026-05-01T17:13:15Z</time></trkpt><trkpt lat="45.46773789913703" lon="9.077766932261033"><ele>129.0</ele><time>2026-05-01T17:13:16Z</time></trkpt><trkpt lat="45.46793876961021" lon="9.0778829567967"><ele>129.0</ele><time>2026-05-01T17:13:17Z</time></trkpt><trkpt lat="45.46814015094353" lon="9.077997722270904"><ele>129.0</ele><time>2026-05-01T17:13:18Z</time></trkpt><trkpt lat="45.46834341495588" lon="9.078116823449786"><ele>129.33333333333334</ele><time>2026-05-01T17:13:19Z</time></trkpt><trkpt lat="45.46854548788714" lon="9.078233080891703"><ele>129.66666666666669</ele><time>2026-05-01T17:13:20Z</time></trkpt><trkpt lat="45.46874526691386" lon="9.078345189067635"><ele>130.0</ele><time>2026-05-01T17:13:21Z</time></trkpt><trkpt lat="45.468944951766126" lon="9.078466742290843"><ele>130.0</ele><time>2026-05-01T17:13:22Z</time></trkpt><trkpt lat="45.469147027712246" lon="9.078586620441266"><ele>130.0</ele><time>2026-05-01T17:13:23Z</time></trkpt><trkpt lat="45.46934425096981" lon="9.078707677724406"><ele>130.0</ele><time>2026-05-01T17:13:24Z</time></trkpt><trkpt lat="45.4695453083851" lon="9.078824636326164"><ele>129.66666666666669</ele><time>2026-05-01T17:13:25Z</time></trkpt><trkpt lat="45.46974641255744" lon="9.078936009001843"><ele>129.33333333333334</ele><time>2026-05-01T17:13:26Z</time></trkpt><trkpt lat="45.46994950295869" lon="9.079048759820902"><ele>129.0</ele><time>2026-05-01T17:13:27Z</time></trkpt><trkpt lat="45.47015258495195" lon="9.079161758393138"><ele>129.0</ele><time>2026-05-01T17:13:28Z</time></trkpt><trkpt lat="45.470356116528905" lon="9.079276291631553"><ele>129.0</ele><time>2026-05-01T17:13:29Z</time></trkpt><trkpt lat="45.4705600218009" lon="9.079384831829685"><ele>129.0</ele><time>2026-05-01T17:13:30Z</time></trkpt><trkpt lat="45.47076656505454" lon="9.079485728713431"><ele>128.66666666666666</ele><time>2026-05-01T17:13:31Z</time></trkpt><trkpt lat="45.470972362251985" lon="9.079568501280551"><ele>128.33333333333331</ele><time>2026-05-01T17:13:32Z</time></trkpt><trkpt lat="45.47118376910815" lon="9.07964496773046"><ele>128.0</ele><time>2026-05-01T17:13:33Z</time></trkpt><trkpt lat="45.47139877746413" lon="9.079705100616195"><ele>128.0</ele><time>2026-05-01T17:13:34Z</time></trkpt><trkpt lat="45.471615006228426" lon="9.07976283873117"><ele>128.0</ele><time>2026-05-01T17:13:35Z</time></trkpt><trkpt lat="45.471833529139175" lon="9.079802778518056"><ele>128.0</ele><time>2026-05-01T17:13:36Z</time></trkpt><trkpt lat="45.47205240834123" lon="9.07983193395026"><ele>128.0</ele><time>2026-05-01T17:13:37Z</time></trkpt><trkpt lat="45.47226908403455" lon="9.079845387923665"><ele>128.0</ele><time>2026-05-01T17:13:38Z</time></trkpt><trkpt lat="45.472486032438994" lon="9.0798510210638"><ele>128.0</ele><time>2026-05-01T17:13:39Z</time></trkpt><trkpt lat="45.47270298192154" lon="9.07984387044455"><ele>128.0</ele><time>2026-05-01T17:13:40Z</time></trkpt><trkpt lat="45.47291969961236" lon="9.079827869272103"><ele>128.0</ele><time>2026-05-01T17:13:41Z</time></trkpt><trkpt lat="45.4731377132585" lon="9.079799343085906"><ele>128.0</ele><time>2026-05-01T17:13:42Z</time></trkpt><trkpt lat="45.4733529420017" lon="9.07976026083197"><ele>128.66666666666666</ele><time>2026-05-01T17:13:43Z</time></trkpt><trkpt lat="45.47355685726514" lon="9.07969616080253"><ele>129.33333333333334</ele><time>2026-05-01T17:13:44Z</time></trkpt><trkpt lat="45.47377468241461" lon="9.079636338927893"><ele>130.0</ele><time>2026-05-01T17:13:45Z</time></trkpt><trkpt lat="45.47398630604793" lon="9.079548523045164"><ele>130.0</ele><time>2026-05-01T17:13:46Z</time></trkpt><trkpt lat="45.474194518248595" lon="9.079454883127571"><ele>130.0</ele><time>2026-05-01T17:13:47Z</time></trkpt><trkpt lat="45.47439957061473" lon="9.079349313370642"><ele>130.0</ele><time>2026-05-01T17:13:48Z</time></trkpt><trkpt lat="45.47460203218981" lon="9.079232190173503"><ele>130.66666666666669</ele><time>2026-05-01T17:13:49Z</time></trkpt><trkpt lat="45.47479816152115" lon="9.079109563502117"><ele>131.33333333333334</ele><time>2026-05-01T17:13:50Z</time></trkpt><trkpt lat="45.474992478411224" lon="9.078968194834367"><ele>132.0</ele><time>2026-05-01T17:13:51Z</time></trkpt><trkpt lat="45.475185014349044" lon="9.07881550985438"><ele>132.0</ele><time>2026-05-01T17:13:52Z</time></trkpt><trkpt lat="45.475369556300954" lon="9.078657149049175"><ele>132.0</ele><time>2026-05-01T17:13:53Z</time></trkpt><trkpt lat="45.47555000226789" lon="9.078491785614696"><ele>132.0</ele><time>2026-05-01T17:13:54Z</time></trkpt><trkpt lat="45.4757281123009" lon="9.078321295640407"><ele>131.66666666666666</ele><time>2026-05-01T17:13:55Z</time></trkpt><trkpt lat="45.47591237127749" lon="9.07814382597558"><ele>131.33333333333331</ele><time>2026-05-01T17:13:56Z</time></trkpt><trkpt lat="45.47609103004177" lon="9.077973078511421"><ele>131.0</ele><time>2026-05-01T17:13:57Z</time></trkpt><trkpt lat="45.47626510323801" lon="9.077809358519119"><ele>131.0</ele><time>2026-05-01T17:13:58Z</time></trkpt><trkpt lat="45.47642614137055" lon="9.077651610329482"><ele>131.0</ele><time>2026-05-01T17:13:59Z</time></trkpt><trkpt lat="45.476583974954295" lon="9.07749493307704"><ele>131.0</ele><time>2026-05-01T17:14:00Z</time></trkpt><trkpt lat="45.476748133999415" lon="9.077335337649336"><ele>131.0</ele><time>2026-05-01T17:14:01Z</time></trkpt><trkpt lat="45.476921026912365" lon="9.077175002089493"><ele>131.0</ele><time>2026-05-01T17:14:02Z</time></trkpt><trkpt lat="45.47709517886846" lon="9.07701110368052"><ele>131.0</ele><time>2026-05-01T17:14:03Z</time></trkpt><trkpt lat="45.47726698396053" lon="9.076841575329112"><ele>131.0</ele><time>2026-05-01T17:14:04Z</time></trkpt><trkpt lat="45.47745054209446" lon="9.076660210907004"><ele>131.0</ele><time>2026-05-01T17:14:05Z</time></trkpt><trkpt lat="45.47763776822419" lon="9.076471348443603"><ele>131.0</ele><time>2026-05-01T17:14:06Z</time></trkpt><trkpt lat="45.477829240181286" lon="9.076278319004865"><ele>131.0</ele><time>2026-05-01T17:14:07Z</time></trkpt><trkpt lat="45.47803455818632" lon="9.076075125871975"><ele>131.5</ele><time>2026-05-01T17:14:08Z</time></trkpt><trkpt lat="45.478241291597435" lon="9.075863445922316"><ele>132.0</ele><time>2026-05-01T17:14:09Z</time></trkpt><trkpt lat="45.4784589339471" lon="9.075654267331233"><ele>132.0</ele><time>2026-05-01T17:14:10Z</time></trkpt><trkpt lat="45.47868583189633" lon="9.07542507206782"><ele>132.0</ele><time>2026-05-01T17:14:11Z</time></trkpt><trkpt lat="45.47891206164136" lon="9.075211878307636"><ele>132.0</ele><time>2026-05-01T17:14:12Z</time></trkpt><trkpt lat="45.47914335203051" lon="9.074990762347188"><ele>132.0</ele><time>2026-05-01T17:14:13Z</time></trkpt><trkpt lat="45.47937736226031" lon="9.074764571324074"><ele>133.0</ele><time>2026-05-01T17:14:14Z</time></trkpt><trkpt lat="45.47961082377174" lon="9.074535356580618"><ele>134.0</ele><time>2026-05-01T17:14:15Z</time></trkpt><trkpt lat="45.479843370261165" lon="9.074310796506825"><ele>133.0</ele><time>2026-05-01T17:14:16Z</time></trkpt><trkpt lat="45.480073054201746" lon="9.074089364518624"><ele>132.0</ele><time>2026-05-01T17:14:17Z</time></trkpt><trkpt lat="45.48030337468195" lon="9.07386571685975"><ele>130.5</ele><time>2026-05-01T17:14:18Z</time></trkpt><trkpt lat="45.48052749608664" lon="9.07365191430335"><ele>129.0</ele><time>2026-05-01T17:14:19Z</time></trkpt><trkpt lat="45.48073662675587" lon="9.073451002256455"><ele>129.0</ele><time>2026-05-01T17:14:20Z</time></trkpt><trkpt lat="45.48092934956106" lon="9.073263489193122"><ele>129.0</ele><time>2026-05-01T17:14:21Z</time></trkpt><trkpt lat="45.481118532789864" lon="9.073069699521875"><ele>129.5</ele><time>2026-05-01T17:14:22Z</time></trkpt><trkpt lat="45.48131987807057" lon="9.072880170972974"><ele>130.0</ele><time>2026-05-01T17:14:23Z</time></trkpt><trkpt lat="45.481523053090754" lon="9.072686000254215"><ele>130.0</ele><time>2026-05-01T17:14:24Z</time></trkpt><trkpt lat="45.48172683834984" lon="9.072489745248047"><ele>130.0</ele><time>2026-05-01T17:14:25Z</time></trkpt><trkpt lat="45.48193557613186" lon="9.072290177667226"><ele>131.0</ele><time>2026-05-01T17:14:26Z</time></trkpt><trkpt lat="45.48214346347497" lon="9.072088712253832"><ele>132.0</ele><time>2026-05-01T17:14:27Z</time></trkpt><trkpt lat="45.48235021435494" lon="9.071889296954211"><ele>132.0</ele><time>2026-05-01T17:14:28Z</time></trkpt><trkpt lat="45.48255912308055" lon="9.07168456328077"><ele>132.0</ele><time>2026-05-01T17:14:29Z</time></trkpt><trkpt lat="45.482772607098845" lon="9.071485540932462"><ele>131.5</ele><time>2026-05-01T17:14:30Z</time></trkpt><trkpt lat="45.482981268983316" lon="9.071285602459758"><ele>131.0</ele><time>2026-05-01T17:14:31Z</time></trkpt><trkpt lat="45.483199228083926" lon="9.071075143340426"><ele>131.0</ele><time>2026-05-01T17:14:32Z</time></trkpt><trkpt lat="45.48341578196411" lon="9.070867736754815"><ele>131.0</ele><time>2026-05-01T17:14:33Z</time></trkpt><trkpt lat="45.483647005138835" lon="9.070651426266592"><ele>130.0</ele><time>2026-05-01T17:14:34Z</time></trkpt><trkpt lat="45.483900075024835" lon="9.070433502158634"><ele>129.0</ele><time>2026-05-01T17:14:35Z</time></trkpt><trkpt lat="45.48417035594331" lon="9.070183052575608"><ele>130.0</ele><time>2026-05-01T17:14:36Z</time></trkpt><trkpt lat="45.484452673090445" lon="9.069937441182022"><ele>131.0</ele><time>2026-05-01T17:14:37Z</time></trkpt><trkpt lat="45.48471283152295" lon="9.069689363992456"><ele>132.0</ele><time>2026-05-01T17:14:38Z</time></trkpt><trkpt lat="45.48496886255035" lon="9.069452946787809"><ele>133.0</ele><time>2026-05-01T17:14:39Z</time></trkpt><trkpt lat="45.48521597332763" lon="9.069208077948185"><ele>132.5</ele><time>2026-05-01T17:14:40Z</time></trkpt><trkpt lat="45.48547148106671" lon="9.068971268467214"><ele>132.0</ele><time>2026-05-01T17:14:41Z</time></trkpt><trkpt lat="45.48572451382255" lon="9.06875197277919"><ele>132.0</ele><time>2026-05-01T17:14:42Z</time></trkpt><trkpt lat="45.48598033287673" lon="9.068531966677854"><ele>132.0</ele><time>2026-05-01T17:14:43Z</time></trkpt><trkpt lat="45.48623850038717" lon="9.06833757903087"><ele>133.0</ele><time>2026-05-01T17:14:44Z</time></trkpt><trkpt lat="45.48648767138115" lon="9.068160196015757"><ele>134.0</ele><time>2026-05-01T17:14:45Z</time></trkpt><trkpt lat="45.48671815799241" lon="9.068004029080722"><ele>134.0</ele><time>2026-05-01T17:14:46Z</time></trkpt><trkpt lat="45.48692949623058" lon="9.06787595690921"><ele>134.0</ele><time>2026-05-01T17:14:47Z</time></trkpt><trkpt lat="45.487133028516" lon="9.067753350434224"><ele>134.66666666666666</ele><time>2026-05-01T17:14:48Z</time></trkpt><trkpt lat="45.487330306794135" lon="9.067639940213292"><ele>135.33333333333334</ele><time>2026-05-01T17:14:49Z</time></trkpt><trkpt lat="45.48751966529966" lon="9.067541286508952"><ele>136.0</ele><time>2026-05-01T17:14:50Z</time></trkpt><trkpt lat="45.48770998673248" lon="9.06745627544724"><ele>136.0</ele><time>2026-05-01T17:14:51Z</time></trkpt><trkpt lat="45.487897461258136" lon="9.067368180431684"><ele>136.0</ele><time>2026-05-01T17:14:52Z</time></trkpt><trkpt lat="45.48809642170645" lon="9.067273411068179"><ele>136.0</ele><time>2026-05-01T17:14:53Z</time></trkpt><trkpt lat="45.48830152067524" lon="9.067176445882433"><ele>136.0</ele><time>2026-05-01T17:14:54Z</time></trkpt><trkpt lat="45.488513809790646" lon="9.067084332926449"><ele>136.0</ele><time>2026-05-01T17:14:55Z</time></trkpt><trkpt lat="45.48872129789293" lon="9.067009258052476"><ele>136.0</ele><time>2026-05-01T17:14:56Z</time></trkpt><trkpt lat="45.48892473326475" lon="9.066941332407353"><ele>136.0</ele><time>2026-05-01T17:14:57Z</time></trkpt><trkpt lat="45.48912482629727" lon="9.066887114738643"><ele>136.0</ele><time>2026-05-01T17:14:58Z</time></trkpt><trkpt lat="45.4893178322485" lon="9.06683563546817"><ele>136.0</ele><time>2026-05-01T17:14:59Z</time></trkpt><trkpt lat="45.48951900906645" lon="9.066788833424885"><ele>136.0</ele><time>2026-05-01T17:15:00Z</time></trkpt><trkpt lat="45.489725496447555" lon="9.066749763775539"><ele>136.0</ele><time>2026-05-01T17:15:01Z</time></trkpt><trkpt lat="45.48994391434103" lon="9.066711024228905"><ele>136.0</ele><time>2026-05-01T17:15:02Z</time></trkpt><trkpt lat="45.490169614181866" lon="9.066675382150544"><ele>136.0</ele><time>2026-05-01T17:15:03Z</time></trkpt><trkpt lat="45.49040105227639" lon="9.066661952369774"><ele>136.0</ele><time>2026-05-01T17:15:04Z</time></trkpt><trkpt lat="45.49061230327368" lon="9.066644231921899"><ele>136.0</ele><time>2026-05-01T17:15:05Z</time></trkpt><trkpt lat="45.49082683396886" lon="9.066635532221067"><ele>135.0</ele><time>2026-05-01T17:15:06Z</time></trkpt><trkpt lat="45.49105083420663" lon="9.06664020933639"><ele>134.0</ele><time>2026-05-01T17:15:07Z</time></trkpt><trkpt lat="45.49127944067423" lon="9.066647819938972"><ele>133.5</ele><time>2026-05-01T17:15:08Z</time></trkpt><trkpt lat="45.49151951958287" lon="9.066660756553363"><ele>133.0</ele><time>2026-05-01T17:15:09Z</time></trkpt><trkpt lat="45.491771228220074" lon="9.066670726745476"><ele>133.0</ele><time>2026-05-01T17:15:10Z</time></trkpt><trkpt lat="45.492013108722695" lon="9.06667714669656"><ele>133.0</ele><time>2026-05-01T17:15:11Z</time></trkpt><trkpt lat="45.492246678096386" lon="9.06668162671969"><ele>133.33333333333334</ele><time>2026-05-01T17:15:12Z</time></trkpt><trkpt lat="45.492466338946905" lon="9.066690604216593"><ele>133.66666666666666</ele><time>2026-05-01T17:15:13Z</time></trkpt><trkpt lat="45.49268633800027" lon="9.06670126153748"><ele>134.0</ele><time>2026-05-01T17:15:14Z</time></trkpt><trkpt lat="45.49290080887216" lon="9.066708329154736"><ele>135.33333333333331</ele><time>2026-05-01T17:15:15Z</time></trkpt><trkpt lat="45.493106344909776" lon="9.066715894350557"><ele>136.66666666666666</ele><time>2026-05-01T17:15:16Z</time></trkpt><trkpt lat="45.49330321582209" lon="9.06671506732769"><ele>138.0</ele><time>2026-05-01T17:15:17Z</time></trkpt><trkpt lat="45.493510029813194" lon="9.066723834430004"><ele>138.0</ele><time>2026-05-01T17:15:18Z</time></trkpt><trkpt lat="45.4937143162829" lon="9.066724421266601"><ele>138.0</ele><time>2026-05-01T17:15:19Z</time></trkpt><trkpt lat="45.493931959617264" lon="9.066752745585774"><ele>138.0</ele><time>2026-05-01T17:15:20Z</time></trkpt><trkpt lat="45.494159380537965" lon="9.066760033517355"><ele>137.0</ele><time>2026-05-01T17:15:21Z</time></trkpt><trkpt lat="45.49439272162879" lon="9.066774238258766"><ele>136.0</ele><time>2026-05-01T17:15:22Z</time></trkpt><trkpt lat="45.49462895862991" lon="9.066786216793986"><ele>135.5</ele><time>2026-05-01T17:15:23Z</time></trkpt><trkpt lat="45.49487952941951" lon="9.06680074629023"><ele>135.0</ele><time>2026-05-01T17:15:24Z</time></trkpt><trkpt lat="45.49514690674654" lon="9.066801535791523"><ele>135.5</ele><time>2026-05-01T17:15:25Z</time></trkpt><trkpt lat="45.49543323894749" lon="9.06681949145121"><ele>136.0</ele><time>2026-05-01T17:15:26Z</time></trkpt><trkpt lat="45.49573217401231" lon="9.066834086453907"><ele>136.0</ele><time>2026-05-01T17:15:27Z</time></trkpt><trkpt lat="45.49600500613733" lon="9.06683708949491"><ele>136.0</ele><time>2026-05-01T17:15:28Z</time></trkpt><trkpt lat="45.49624773190437" lon="9.066843684700416"><ele>136.5</ele><time>2026-05-01T17:15:29Z</time></trkpt><trkpt lat="45.49648563452152" lon="9.066845350223835"><ele>137.0</ele><time>2026-05-01T17:15:30Z</time></trkpt><trkpt lat="45.49670402167754" lon="9.066857556365587"><ele>137.0</ele><time>2026-05-01T17:15:31Z</time></trkpt><trkpt lat="45.49691549534716" lon="9.066931561104926"><ele>137.0</ele><time>2026-05-01T17:15:32Z</time></trkpt><trkpt lat="45.497120241742856" lon="9.066936675035974"><ele>137.0</ele><time>2026-05-01T17:15:33Z</time></trkpt><trkpt lat="45.49732403341739" lon="9.066955267165325"><ele>137.0</ele><time>2026-05-01T17:15:34Z</time></trkpt><trkpt lat="45.49754064977687" lon="9.066981043095497"><ele>137.0</ele><time>2026-05-01T17:15:35Z</time></trkpt><trkpt lat="45.49776533456513" lon="9.067007774203658"><ele>137.0</ele><time>2026-05-01T17:15:36Z</time></trkpt><trkpt lat="45.49799083821296" lon="9.067028394754646"><ele>136.5</ele><time>2026-05-01T17:15:37Z</time></trkpt><trkpt lat="45.498221924405634" lon="9.066917373740809"><ele>136.0</ele><time>2026-05-01T17:15:38Z</time></trkpt><trkpt lat="45.4984534364033" lon="9.066927995964726"><ele>136.0</ele><time>2026-05-01T17:15:39Z</time></trkpt><trkpt lat="45.498686965714484" lon="9.06694171001151"><ele>136.0</ele><time>2026-05-01T17:15:40Z</time></trkpt><trkpt lat="45.49892707788005" lon="9.066950219055665"><ele>135.5</ele><time>2026-05-01T17:15:41Z</time></trkpt><trkpt lat="45.499164930564454" lon="9.066951725545316"><ele>135.0</ele><time>2026-05-01T17:15:42Z</time></trkpt><trkpt lat="45.49940653170207" lon="9.06694744571062"><ele>136.5</ele><time>2026-05-01T17:15:43Z</time></trkpt><trkpt lat="45.499642543494254" lon="9.066943360345528"><ele>138.0</ele><time>2026-05-01T17:15:44Z</time></trkpt><trkpt lat="45.49986935252769" lon="9.066923043172425"><ele>138.0</ele><time>2026-05-01T17:15:45Z</time></trkpt><trkpt lat="45.500086713298295" lon="9.066902439282238"><ele>138.0</ele><time>2026-05-01T17:15:46Z</time></trkpt><trkpt lat="45.50029667084692" lon="9.066874188187802"><ele>138.0</ele><time>2026-05-01T17:15:47Z</time></trkpt><trkpt lat="45.500506569799654" lon="9.066843858743407"><ele>137.66666666666666</ele><time>2026-05-01T17:15:48Z</time></trkpt><trkpt lat="45.500717733102974" lon="9.066805360977625"><ele>137.33333333333331</ele><time>2026-05-01T17:15:49Z</time></trkpt><trkpt lat="45.50092151046443" lon="9.066763879139005"><ele>137.0</ele><time>2026-05-01T17:15:50Z</time></trkpt><trkpt lat="45.501118922768214" lon="9.066706038342947"><ele>137.33333333333331</ele><time>2026-05-01T17:15:51Z</time></trkpt><trkpt lat="45.50131851684521" lon="9.066654036271787"><ele>137.66666666666666</ele><time>2026-05-01T17:15:52Z</time></trkpt><trkpt lat="45.501520231139985" lon="9.066595790547408"><ele>138.0</ele><time>2026-05-01T17:15:53Z</time></trkpt><trkpt lat="45.50171930469246" lon="9.066527238672455"><ele>138.0</ele><time>2026-05-01T17:15:54Z</time></trkpt><trkpt lat="45.5019137914194" lon="9.066455058063301"><ele>138.0</ele><time>2026-05-01T17:15:55Z</time></trkpt><trkpt lat="45.50210705996388" lon="9.066382356662142"><ele>138.0</ele><time>2026-05-01T17:15:56Z</time></trkpt><trkpt lat="45.50229210298821" lon="9.06631094472046"><ele>139.0</ele><time>2026-05-01T17:15:57Z</time></trkpt><trkpt lat="45.50246733077544" lon="9.06624387212668"><ele>140.0</ele><time>2026-05-01T17:15:58Z</time></trkpt><trkpt lat="45.50264192046979" lon="9.066160658129062"><ele>141.0</ele><time>2026-05-01T17:15:59Z</time></trkpt><trkpt lat="45.502808903916744" lon="9.066097758833246"><ele>140.66666666666666</ele><time>2026-05-01T17:16:00Z</time></trkpt><trkpt lat="45.5029739877981" lon="9.066037942181728"><ele>140.33333333333331</ele><time>2026-05-01T17:16:01Z</time></trkpt><trkpt lat="45.503136355990705" lon="9.065970802622322"><ele>140.0</ele><time>2026-05-01T17:16:02Z</time></trkpt><trkpt lat="45.50329269390026" lon="9.06590264652268"><ele>140.0</ele><time>2026-05-01T17:16:03Z</time></trkpt><trkpt lat="45.50344389495689" lon="9.065838210335826"><ele>140.0</ele><time>2026-05-01T17:16:04Z</time></trkpt><trkpt lat="45.50360417556619" lon="9.065771100735907"><ele>140.0</ele><time>2026-05-01T17:16:05Z</time></trkpt><trkpt lat="45.50376553378717" lon="9.06570766643749"><ele>139.66666666666666</ele><time>2026-05-01T17:16:06Z</time></trkpt><trkpt lat="45.50394394486852" lon="9.065628845055777"><ele>139.33333333333334</ele><time>2026-05-01T17:16:07Z</time></trkpt><trkpt lat="45.50413519651885" lon="9.065552371469888"><ele>139.0</ele><time>2026-05-01T17:16:08Z</time></trkpt><trkpt lat="45.50434067558858" lon="9.065476832465786"><ele>139.0</ele><time>2026-05-01T17:16:09Z</time></trkpt><trkpt lat="45.504558355633854" lon="9.065392239735127"><ele>139.0</ele><time>2026-05-01T17:16:10Z</time></trkpt><trkpt lat="45.50480242616887" lon="9.06529056135982"><ele>140.0</ele><time>2026-05-01T17:16:11Z</time></trkpt><trkpt lat="45.5050588969991" lon="9.065200411228362"><ele>141.0</ele><time>2026-05-01T17:16:12Z</time></trkpt><trkpt lat="45.50531320842507" lon="9.065101307279626"><ele>142.5</ele><time>2026-05-01T17:16:13Z</time></trkpt><trkpt lat="45.50558063543984" lon="9.06500521084623"><ele>144.0</ele><time>2026-05-01T17:16:14Z</time></trkpt><trkpt lat="45.505850467253396" lon="9.064906293529258"><ele>144.0</ele><time>2026-05-01T17:16:15Z</time></trkpt><trkpt lat="45.50613570415208" lon="9.064797819171124"><ele>144.0</ele><time>2026-05-01T17:16:16Z</time></trkpt><trkpt lat="45.5064214599796" lon="9.064684834702303"><ele>143.0</ele><time>2026-05-01T17:16:17Z</time></trkpt><trkpt lat="45.506709395821495" lon="9.064571019392265"><ele>142.0</ele><time>2026-05-01T17:16:18Z</time></trkpt><trkpt lat="45.507004699112485" lon="9.064447322611764"><ele>143.5</ele><time>2026-05-01T17:16:19Z</time></trkpt><trkpt lat="45.50730345733645" lon="9.064306528458534"><ele>145.0</ele><time>2026-05-01T17:16:20Z</time></trkpt><trkpt lat="45.50760455096628" lon="9.064158857809764"><ele>145.5</ele><time>2026-05-01T17:16:21Z</time></trkpt><trkpt lat="45.50790018172634" lon="9.063982250491556"><ele>146.0</ele><time>2026-05-01T17:16:22Z</time></trkpt><trkpt lat="45.5081811366897" lon="9.06378547852085"><ele>146.0</ele><time>2026-05-01T17:16:23Z</time></trkpt><trkpt lat="45.50844099860159" lon="9.063551553841714"><ele>146.0</ele><time>2026-05-01T17:16:24Z</time></trkpt><trkpt lat="45.508686798601175" lon="9.063312928726038"><ele>146.5</ele><time>2026-05-01T17:16:25Z</time></trkpt><trkpt lat="45.508893960393664" lon="9.063087457677785"><ele>147.0</ele><time>2026-05-01T17:16:26Z</time></trkpt><trkpt lat="45.5090986107484" lon="9.062867361507859"><ele>147.0</ele><time>2026-05-01T17:16:27Z</time></trkpt><trkpt lat="45.5092821339103" lon="9.062621132044487"><ele>147.0</ele><time>2026-05-01T17:16:28Z</time></trkpt><trkpt lat="45.50946151463131" lon="9.06236686819737"><ele>147.0</ele><time>2026-05-01T17:16:29Z</time></trkpt><trkpt lat="45.50963274297156" lon="9.062119897084733"><ele>147.0</ele><time>2026-05-01T17:16:30Z</time></trkpt><trkpt lat="45.50980959201302" lon="9.061867669155705"><ele>147.0</ele><time>2026-05-01T17:16:31Z</time></trkpt><trkpt lat="45.509993763381786" lon="9.061600269515576"><ele>147.0</ele><time>2026-05-01T17:16:32Z</time></trkpt><trkpt lat="45.51018563551303" lon="9.061342554045634"><ele>147.0</ele><time>2026-05-01T17:16:33Z</time></trkpt><trkpt lat="45.51038846747136" lon="9.061098320339182"><ele>147.0</ele><time>2026-05-01T17:16:34Z</time></trkpt><trkpt lat="45.510608003691814" lon="9.06086475066981"><ele>146.0</ele><time>2026-05-01T17:16:35Z</time></trkpt><trkpt lat="45.51082595255435" lon="9.060655508499943"><ele>145.0</ele><time>2026-05-01T17:16:36Z</time></trkpt><trkpt lat="45.51105760446064" lon="9.06045383481921"><ele>145.0</ele><time>2026-05-01T17:16:37Z</time></trkpt><trkpt lat="45.511289542759265" lon="9.060285474924983"><ele>145.0</ele><time>2026-05-01T17:16:38Z</time></trkpt><trkpt lat="45.51153554343714" lon="9.060134986282293"><ele>145.0</ele><time>2026-05-01T17:16:39Z</time></trkpt><trkpt lat="45.51178163919234" lon="9.06000922594965"><ele>145.0</ele><time>2026-05-01T17:16:40Z</time></trkpt><trkpt lat="45.512025475164485" lon="9.059912920473717"><ele>145.0</ele><time>2026-05-01T17:16:41Z</time></trkpt><trkpt lat="45.512262610358185" lon="9.059822419046561"><ele>145.0</ele><time>2026-05-01T17:16:42Z</time></trkpt><trkpt lat="45.51249997419119" lon="9.059743768721685"><ele>145.0</ele><time>2026-05-01T17:16:43Z</time></trkpt><trkpt lat="45.51274315024274" lon="9.059687441995887"><ele>145.0</ele><time>2026-05-01T17:16:44Z</time></trkpt><trkpt lat="45.512978644290264" lon="9.059651492716734"><ele>145.5</ele><time>2026-05-01T17:16:45Z</time></trkpt><trkpt lat="45.51320898500217" lon="9.059634515390352"><ele>146.0</ele><time>2026-05-01T17:16:46Z</time></trkpt><trkpt lat="45.51343587494427" lon="9.059639252607457"><ele>146.0</ele><time>2026-05-01T17:16:47Z</time></trkpt><trkpt lat="45.51366617040726" lon="9.059655943465518"><ele>146.0</ele><time>2026-05-01T17:16:48Z</time></trkpt><trkpt lat="45.513889805545006" lon="9.059696487599496"><ele>146.33333333333331</ele><time>2026-05-01T17:16:49Z</time></trkpt><trkpt lat="45.5141049354341" lon="9.05974672714442"><ele>146.66666666666666</ele><time>2026-05-01T17:16:50Z</time></trkpt><trkpt lat="45.51430821206227" lon="9.05980380306162"><ele>147.0</ele><time>2026-05-01T17:16:51Z</time></trkpt><trkpt lat="45.514509417710734" lon="9.059861449396902"><ele>147.0</ele><time>2026-05-01T17:16:52Z</time></trkpt><trkpt lat="45.514704726733655" lon="9.059923339519012"><ele>147.0</ele><time>2026-05-01T17:16:53Z</time></trkpt><trkpt lat="45.51490083297125" lon="9.059977564116364"><ele>147.0</ele><time>2026-05-01T17:16:54Z</time></trkpt><trkpt lat="45.5150911928062" lon="9.060031493125946"><ele>148.0</ele><time>2026-05-01T17:16:55Z</time></trkpt><trkpt lat="45.51528154897761" lon="9.060070552990235"><ele>149.0</ele><time>2026-05-01T17:16:56Z</time></trkpt><trkpt lat="45.515472218749956" lon="9.060101625818156"><ele>150.0</ele><time>2026-05-01T17:16:57Z</time></trkpt><trkpt lat="45.51566420542605" lon="9.060118705585097"><ele>150.0</ele><time>2026-05-01T17:16:58Z</time></trkpt><trkpt lat="45.51585939637894" lon="9.060141331139508"><ele>150.0</ele><time>2026-05-01T17:16:59Z</time></trkpt><trkpt lat="45.51606489219928" lon="9.060160653394243"><ele>150.0</ele><time>2026-05-01T17:17:00Z</time></trkpt><trkpt lat="45.516262711950965" lon="9.060160387244716"><ele>149.66666666666666</ele><time>2026-05-01T17:17:01Z</time></trkpt><trkpt lat="45.516464791314" lon="9.06013860436731"><ele>149.33333333333331</ele><time>2026-05-01T17:17:02Z</time></trkpt><trkpt lat="45.51666567429963" lon="9.060114492810252"><ele>149.0</ele><time>2026-05-01T17:17:03Z</time></trkpt><trkpt lat="45.51687952019951" lon="9.06007844666274"><ele>149.0</ele><time>2026-05-01T17:17:04Z</time></trkpt><trkpt lat="45.517096158813864" lon="9.060040524694054"><ele>149.0</ele><time>2026-05-01T17:17:05Z</time></trkpt><trkpt lat="45.51731582878382" lon="9.05999165580725"><ele>149.0</ele><time>2026-05-01T17:17:06Z</time></trkpt><trkpt lat="45.517539132019685" lon="9.05991304710032"><ele>147.5</ele><time>2026-05-01T17:17:07Z</time></trkpt><trkpt lat="45.517761594467345" lon="9.059827374159303"><ele>146.0</ele><time>2026-05-01T17:17:08Z</time></trkpt><trkpt lat="45.51798281900075" lon="9.059740991304457"><ele>146.0</ele><time>2026-05-01T17:17:09Z</time></trkpt><trkpt lat="45.518209624138855" lon="9.059649292576465"><ele>146.0</ele><time>2026-05-01T17:17:10Z</time></trkpt><trkpt lat="45.518431502061425" lon="9.05956789893037"><ele>146.0</ele><time>2026-05-01T17:17:11Z</time></trkpt><trkpt lat="45.51865986832386" lon="9.059496658709051"><ele>146.0</ele><time>2026-05-01T17:17:12Z</time></trkpt><trkpt lat="45.51888788671691" lon="9.059429364422051"><ele>147.0</ele><time>2026-05-01T17:17:13Z</time></trkpt><trkpt lat="45.51911402787103" lon="9.059371827645016"><ele>148.0</ele><time>2026-05-01T17:17:14Z</time></trkpt><trkpt lat="45.51934705565513" lon="9.059325007142435"><ele>149.0</ele><time>2026-05-01T17:17:15Z</time></trkpt><trkpt lat="45.5195786900034" lon="9.059293125679618"><ele>150.0</ele><time>2026-05-01T17:17:16Z</time></trkpt><trkpt lat="45.51979680369509" lon="9.059282349413232"><ele>150.0</ele><time>2026-05-01T17:17:17Z</time></trkpt><trkpt lat="45.51998740073444" lon="9.059288840151945"><ele>150.0</ele><time>2026-05-01T17:17:18Z</time></trkpt><trkpt lat="45.52017519967063" lon="9.059293346975116"><ele>150.0</ele><time>2026-05-01T17:17:19Z</time></trkpt><trkpt lat="45.52036580557443" lon="9.059293632008218"><ele>149.33333333333334</ele><time>2026-05-01T17:17:20Z</time></trkpt><trkpt lat="45.520560630484155" lon="9.059285522991052"><ele>148.66666666666669</ele><time>2026-05-01T17:17:21Z</time></trkpt><trkpt lat="45.520652106849155" lon="9.059442956017294"><ele>148.0</ele><time>2026-05-01T17:17:22Z</time></trkpt><trkpt lat="45.52078442185326" lon="9.059512534259884"><ele>148.0</ele><time>2026-05-01T17:17:23Z</time></trkpt><trkpt lat="45.52090685619836" lon="9.059570591945008"><ele>148.0</ele><time>2026-05-01T17:17:24Z</time></trkpt><trkpt lat="45.521038578971286" lon="9.059610042110071"><ele>148.0</ele><time>2026-05-01T17:17:25Z</time></trkpt><trkpt lat="45.52115363784674" lon="9.059658131703198"><ele>148.0</ele><time>2026-05-01T17:17:26Z</time></trkpt><trkpt lat="45.52127085775318" lon="9.059704662243208"><ele>148.25</ele><time>2026-05-01T17:17:27Z</time></trkpt><trkpt lat="45.521423237780404" lon="9.059602004291344"><ele>148.5</ele><time>2026-05-01T17:17:28Z</time></trkpt><trkpt lat="45.521556075782065" lon="9.05965065814584"><ele>148.75</ele><time>2026-05-01T17:17:29Z</time></trkpt><trkpt lat="45.521690007398064" lon="9.059699712434233"><ele>149.0</ele><time>2026-05-01T17:17:30Z</time></trkpt><trkpt lat="45.521829232535914" lon="9.059750705560017"><ele>149.0</ele><time>2026-05-01T17:17:31Z</time></trkpt><trkpt lat="45.52197402306637" lon="9.059803737080042"><ele>149.0</ele><time>2026-05-01T17:17:32Z</time></trkpt><trkpt lat="45.52203263181357" lon="9.060260179411383"><ele>150.0</ele><time>2026-05-01T17:17:33Z</time></trkpt><trkpt lat="45.52213017501502" lon="9.06038439416416"><ele>151.0</ele><time>2026-05-01T17:17:34Z</time></trkpt><trkpt lat="45.52221189766383" lon="9.060507795906217"><ele>152.0</ele><time>2026-05-01T17:17:35Z</time></trkpt><trkpt lat="45.522293081161514" lon="9.060635454518321"><ele>153.0</ele><time>2026-05-01T17:17:36Z</time></trkpt><trkpt lat="45.5223667653137" lon="9.060760591623396"><ele>152.25</ele><time>2026-05-01T17:17:37Z</time></trkpt><trkpt lat="45.52243774027127" lon="9.060891793986244"><ele>151.5</ele><time>2026-05-01T17:17:38Z</time></trkpt><trkpt lat="45.52250589213093" lon="9.061026417901076"><ele>150.75</ele><time>2026-05-01T17:17:39Z</time></trkpt><trkpt lat="45.522577281962135" lon="9.061165220506757"><ele>150.0</ele><time>2026-05-01T17:17:40Z</time></trkpt><trkpt lat="45.52264624295972" lon="9.061296151611543"><ele>150.0</ele><time>2026-05-01T17:17:41Z</time></trkpt><trkpt lat="45.52271689588686" lon="9.061430898850666"><ele>150.0</ele><time>2026-05-01T17:17:42Z</time></trkpt><trkpt lat="45.52277905927517" lon="9.061559026192613"><ele>150.0</ele><time>2026-05-01T17:17:43Z</time></trkpt><trkpt lat="45.522836539661014" lon="9.061684792352946"><ele>150.0</ele><time>2026-05-01T17:17:44Z</time></trkpt><trkpt lat="45.52288465469002" lon="9.061791649454532"><ele>150.0</ele><time>2026-05-01T17:17:45Z</time></trkpt><trkpt lat="45.5229221349926" lon="9.061889706396997"><ele>150.0</ele><time>2026-05-01T17:17:46Z</time></trkpt><trkpt lat="45.52295971282747" lon="9.06203636789442"><ele>150.0</ele><time>2026-05-01T17:17:48Z</time></trkpt><trkpt lat="45.52295879430533" lon="9.06219211415837"><ele>150.0</ele><time>2026-05-01T17:17:50Z</time></trkpt><trkpt lat="45.52294023715818" lon="9.062318465140821"><ele>150.0</ele><time>2026-05-01T17:17:51Z</time></trkpt><trkpt lat="45.522933599443796" lon="9.062449501253958"><ele>150.0</ele><time>2026-05-01T17:17:52Z</time></trkpt><trkpt lat="45.522942559292666" lon="9.062598808478562"><ele>150.0</ele><time>2026-05-01T17:17:53Z</time></trkpt><trkpt lat="45.52297589124679" lon="9.062749092066527"><ele>150.0</ele><time>2026-05-01T17:17:54Z</time></trkpt><trkpt lat="45.52303996713089" lon="9.062894787260907"><ele>150.0</ele><time>2026-05-01T17:17:55Z</time></trkpt><trkpt lat="45.52312091393206" lon="9.06301638180487"><ele>150.0</ele><time>2026-05-01T17:17:56Z</time></trkpt><trkpt lat="45.52322553475494" lon="9.063092657584743"><ele>150.0</ele><time>2026-05-01T17:17:57Z</time></trkpt><trkpt lat="45.523320266154414" lon="9.063107299033636"><ele>150.0</ele><time>2026-05-01T17:17:58Z</time></trkpt><trkpt lat="45.523401303974474" lon="9.063104840576838"><ele>150.0</ele><time>2026-05-01T17:17:59Z</time></trkpt><trkpt lat="45.523474662132095" lon="9.06308279182898"><ele>150.0</ele><time>2026-05-01T17:18:00Z</time></trkpt><trkpt lat="45.523567988727685" lon="9.06304594932264"><ele>150.0</ele><time>2026-05-01T17:18:01Z</time></trkpt><trkpt lat="45.52366585917257" lon="9.063028362106337"><ele>150.0</ele><time>2026-05-01T17:18:02Z</time></trkpt><trkpt lat="45.52375839352046" lon="9.063072255578552"><ele>149.8</ele><time>2026-05-01T17:18:03Z</time></trkpt><trkpt lat="45.52385062220293" lon="9.063155873370599"><ele>149.6</ele><time>2026-05-01T17:18:04Z</time></trkpt><trkpt lat="45.523910507335536" lon="9.06325890992244"><ele>149.4</ele><time>2026-05-01T17:18:05Z</time></trkpt><trkpt lat="45.523952883776836" lon="9.063383412460048"><ele>149.2</ele><time>2026-05-01T17:18:06Z</time></trkpt><trkpt lat="45.523964849000926" lon="9.063544854554806"><ele>149.0</ele><time>2026-05-01T17:18:07Z</time></trkpt><trkpt lat="45.52397061659089" lon="9.06373519674133"><ele>148.66666666666666</ele><time>2026-05-01T17:18:08Z</time></trkpt><trkpt lat="45.523966235181774" lon="9.063952276262023"><ele>148.33333333333334</ele><time>2026-05-01T17:18:09Z</time></trkpt><trkpt lat="45.52396144561541" lon="9.064155144942966"><ele>148.0</ele><time>2026-05-01T17:18:10Z</time></trkpt><trkpt lat="45.523960499827815" lon="9.06438872578152"><ele>148.0</ele><time>2026-05-01T17:18:11Z</time></trkpt><trkpt lat="45.523961954458805" lon="9.064641050063077"><ele>148.0</ele><time>2026-05-01T17:18:12Z</time></trkpt><trkpt lat="45.52396697101152" lon="9.06489542324143"><ele>148.0</ele><time>2026-05-01T17:18:13Z</time></trkpt><trkpt lat="45.52398102793441" lon="9.065154360445257"><ele>148.33333333333334</ele><time>2026-05-01T17:18:14Z</time></trkpt><trkpt lat="45.52401680714381" lon="9.065408399455096"><ele>148.66666666666666</ele><time>2026-05-01T17:18:15Z</time></trkpt><trkpt lat="45.52407237323928" lon="9.0656629235755"><ele>149.0</ele><time>2026-05-01T17:18:16Z</time></trkpt><trkpt lat="45.52413012173426" lon="9.06589438119714"><ele>149.0</ele><time>2026-05-01T17:18:17Z</time></trkpt><trkpt lat="45.52418377825436" lon="9.066128450522088"><ele>149.0</ele><time>2026-05-01T17:18:18Z</time></trkpt><trkpt lat="45.52424108618805" lon="9.066341347384176"><ele>149.0</ele><time>2026-05-01T17:18:19Z</time></trkpt><trkpt lat="45.52432050005229" lon="9.066477054342302"><ele>148.6</ele><time>2026-05-01T17:18:20Z</time></trkpt><trkpt lat="45.524368738086515" lon="9.066628115889376"><ele>148.2</ele><time>2026-05-01T17:18:21Z</time></trkpt><trkpt lat="45.52441554785832" lon="9.066775270273231"><ele>147.79999999999998</ele><time>2026-05-01T17:18:22Z</time></trkpt><trkpt lat="45.52446621354029" lon="9.066917930233675"><ele>147.4</ele><time>2026-05-01T17:18:23Z</time></trkpt><trkpt lat="45.524512880023835" lon="9.067034694581148"><ele>147.0</ele><time>2026-05-01T17:18:24Z</time></trkpt><trkpt lat="45.52455860488295" lon="9.067128525874738"><ele>147.2</ele><time>2026-05-01T17:18:25Z</time></trkpt><trkpt lat="45.524593973409" lon="9.067235970177181"><ele>147.39999999999998</ele><time>2026-05-01T17:18:26Z</time></trkpt><trkpt lat="45.52461811507995" lon="9.067353855162509"><ele>147.60000000000002</ele><time>2026-05-01T17:18:27Z</time></trkpt><trkpt lat="45.524622121570694" lon="9.067487895974864"><ele>147.8</ele><time>2026-05-01T17:18:28Z</time></trkpt><trkpt lat="45.524626371076664" lon="9.067619985797087"><ele>148.0</ele><time>2026-05-01T17:18:29Z</time></trkpt><trkpt lat="45.52465537685449" lon="9.067772334760699"><ele>148.0</ele><time>2026-05-01T17:18:30Z</time></trkpt><trkpt lat="45.52470166367188" lon="9.067911264289492"><ele>148.0</ele><time>2026-05-01T17:18:31Z</time></trkpt><trkpt lat="45.524756027582484" lon="9.06803232883962"><ele>148.0</ele><time>2026-05-01T17:18:32Z</time></trkpt><trkpt lat="45.524842162030474" lon="9.06808824359867"><ele>148.0</ele><time>2026-05-01T17:18:33Z</time></trkpt><trkpt lat="45.52492576007549" lon="9.068153300646031"><ele>148.0</ele><time>2026-05-01T17:18:34Z</time></trkpt><trkpt lat="45.525030637954096" lon="9.068161341586896"><ele>148.0</ele><time>2026-05-01T17:18:35Z</time></trkpt><trkpt lat="45.525134890060386" lon="9.06812100269735"><ele>148.0</ele><time>2026-05-01T17:18:36Z</time></trkpt><trkpt lat="45.52523152590868" lon="9.06804074931772"><ele>148.0</ele><time>2026-05-01T17:18:37Z</time></trkpt><trkpt lat="45.525308246180884" lon="9.067978269218603"><ele>148.0</ele><time>2026-05-01T17:18:38Z</time></trkpt><trkpt lat="45.52533738405142" lon="9.067788980375793"><ele>148.0</ele><time>2026-05-01T17:18:39Z</time></trkpt><trkpt lat="45.52534728134095" lon="9.06764886643389"><ele>148.0</ele><time>2026-05-01T17:18:40Z</time></trkpt><trkpt lat="45.52533224210105" lon="9.067507505308102"><ele>148.0</ele><time>2026-05-01T17:18:41Z</time></trkpt><trkpt lat="45.52528071545166" lon="9.067371671700583"><ele>148.0</ele><time>2026-05-01T17:18:42Z</time></trkpt><trkpt lat="45.52522412057276" lon="9.067263525894163"><ele>148.0</ele><time>2026-05-01T17:18:43Z</time></trkpt><trkpt lat="45.52517698087125" lon="9.067184509808255"><ele>148.0</ele><time>2026-05-01T17:18:44Z</time></trkpt><trkpt lat="45.5252040619555" lon="9.066905531441208"><ele>148.25</ele><time>2026-05-01T17:18:46Z</time></trkpt><trkpt lat="45.525205289696395" lon="9.066784488721503"><ele>148.5</ele><time>2026-05-01T17:18:47Z</time></trkpt><trkpt lat="45.52535611906312" lon="9.066709347553447"><ele>148.75</ele><time>2026-05-01T17:18:48Z</time></trkpt><trkpt lat="45.52545321237598" lon="9.06660941110126"><ele>149.0</ele><time>2026-05-01T17:18:49Z</time></trkpt><trkpt lat="45.52557198351978" lon="9.066521708432152"><ele>149.0</ele><time>2026-05-01T17:18:50Z</time></trkpt><trkpt lat="45.525698784466755" lon="9.06645823653457"><ele>149.0</ele><time>2026-05-01T17:18:51Z</time></trkpt><trkpt lat="45.52581617616328" lon="9.066414982508274"><ele>149.0</ele><time>2026-05-01T17:18:52Z</time></trkpt><trkpt lat="45.525952267128055" lon="9.0664031168372"><ele>149.0</ele><time>2026-05-01T17:18:53Z</time></trkpt><trkpt lat="45.526100370975335" lon="9.066416374580879"><ele>149.0</ele><time>2026-05-01T17:18:54Z</time></trkpt><trkpt lat="45.526232922823795" lon="9.066459381718118"><ele>149.0</ele><time>2026-05-01T17:18:55Z</time></trkpt><trkpt lat="45.5263603978548" lon="9.06655448711063"><ele>149.0</ele><time>2026-05-01T17:18:56Z</time></trkpt><trkpt lat="45.52648716539825" lon="9.066672160276642"><ele>149.0</ele><time>2026-05-01T17:18:57Z</time></trkpt><trkpt lat="45.526627996115955" lon="9.06678706548203"><ele>149.0</ele><time>2026-05-01T17:18:58Z</time></trkpt><trkpt lat="45.52677788640693" lon="9.066912323499428"><ele>149.0</ele><time>2026-05-01T17:18:59Z</time></trkpt><trkpt lat="45.526947521755694" lon="9.067081170167242"><ele>149.0</ele><time>2026-05-01T17:19:00Z</time></trkpt><trkpt lat="45.52714675587508" lon="9.067248494131366"><ele>148.66666666666666</ele><time>2026-05-01T17:19:01Z</time></trkpt><trkpt lat="45.52732810268715" lon="9.067381788083969"><ele>148.33333333333334</ele><time>2026-05-01T17:19:02Z</time></trkpt><trkpt lat="45.52747279194127" lon="9.067506018246931"><ele>148.0</ele><time>2026-05-01T17:19:03Z</time></trkpt><trkpt lat="45.52761023409294" lon="9.067626419484073"><ele>148.5</ele><time>2026-05-01T17:19:04Z</time></trkpt><trkpt lat="45.52774907799837" lon="9.067739979418624"><ele>149.0</ele><time>2026-05-01T17:19:05Z</time></trkpt><trkpt lat="45.52787319095755" lon="9.067827352127381"><ele>149.5</ele><time>2026-05-01T17:19:06Z</time></trkpt><trkpt lat="45.527985114856634" lon="9.067933340794145"><ele>150.0</ele><time>2026-05-01T17:19:07Z</time></trkpt><trkpt lat="45.528097523752365" lon="9.067988921761057"><ele>150.2</ele><time>2026-05-01T17:19:08Z</time></trkpt><trkpt lat="45.528191574574926" lon="9.06807392893383"><ele>150.4</ele><time>2026-05-01T17:19:09Z</time></trkpt><trkpt lat="45.52828791531345" lon="9.06811864477756"><ele>150.6</ele><time>2026-05-01T17:19:10Z</time></trkpt><trkpt lat="45.52838216653143" lon="9.068169997439066"><ele>150.8</ele><time>2026-05-01T17:19:11Z</time></trkpt><trkpt lat="45.52846359978302" lon="9.068229014427494"><ele>151.0</ele><time>2026-05-01T17:19:12Z</time></trkpt><trkpt lat="45.52854713593705" lon="9.06826803701476"><ele>151.0</ele><time>2026-05-01T17:19:13Z</time></trkpt><trkpt lat="45.52861464184072" lon="9.068315431433886"><ele>151.0</ele><time>2026-05-01T17:19:14Z</time></trkpt><trkpt lat="45.528697709854185" lon="9.068342112147665"><ele>151.0</ele><time>2026-05-01T17:19:16Z</time></trkpt><trkpt lat="45.52876390887353" lon="9.068392924271096"><ele>151.0</ele><time>2026-05-01T17:19:29Z</time></trkpt><trkpt lat="45.52886414996826" lon="9.068424866820717"><ele>151.0</ele><time>2026-05-01T17:19:31Z</time></trkpt><trkpt lat="45.52892667884648" lon="9.068463876491565"><ele>151.0</ele><time>2026-05-01T17:19:32Z</time></trkpt><trkpt lat="45.528992678761846" lon="9.068518469318166"><ele>151.2</ele><time>2026-05-01T17:19:33Z</time></trkpt><trkpt lat="45.52906983412273" lon="9.068589075497536"><ele>151.39999999999998</ele><time>2026-05-01T17:19:34Z</time></trkpt><trkpt lat="45.52912239201447" lon="9.068678185120335"><ele>151.6</ele><time>2026-05-01T17:19:35Z</time></trkpt><trkpt lat="45.52923150833362" lon="9.068671304504873"><ele>151.79999999999998</ele><time>2026-05-01T17:19:36Z</time></trkpt><trkpt lat="45.52932240383523" lon="9.06868670545062"><ele>152.0</ele><time>2026-05-01T17:19:37Z</time></trkpt><trkpt lat="45.52941672377561" lon="9.0686943467696"><ele>152.0</ele><time>2026-05-01T17:19:38Z</time></trkpt><trkpt lat="45.5295219788582" lon="9.068691573206777"><ele>152.0</ele><time>2026-05-01T17:19:39Z</time></trkpt><trkpt lat="45.529630791624655" lon="9.06869282395605"><ele>152.0</ele><time>2026-05-01T17:19:40Z</time></trkpt><trkpt lat="45.529742818130536" lon="9.068696143668575"><ele>152.0</ele><time>2026-05-01T17:19:41Z</time></trkpt><trkpt lat="45.52985215741087" lon="9.068695893830732"><ele>152.0</ele><time>2026-05-01T17:19:42Z</time></trkpt><trkpt lat="45.52996705762448" lon="9.068717317682854"><ele>151.75</ele><time>2026-05-01T17:19:43Z</time></trkpt><trkpt lat="45.53008113336669" lon="9.068721470882195"><ele>151.5</ele><time>2026-05-01T17:19:44Z</time></trkpt><trkpt lat="45.530201698083964" lon="9.06872623363402"><ele>151.25</ele><time>2026-05-01T17:19:45Z</time></trkpt><trkpt lat="45.530320015107854" lon="9.068730907605875"><ele>151.0</ele><time>2026-05-01T17:19:46Z</time></trkpt><trkpt lat="45.53042771880009" lon="9.068713370487904"><ele>151.5</ele><time>2026-05-01T17:19:47Z</time></trkpt><trkpt lat="45.53053632830558" lon="9.068718944246896"><ele>152.0</ele><time>2026-05-01T17:19:48Z</time></trkpt><trkpt lat="45.53065293699541" lon="9.068724795724798"><ele>152.5</ele><time>2026-05-01T17:19:49Z</time></trkpt><trkpt lat="45.53076902665446" lon="9.0687293277285"><ele>153.0</ele><time>2026-05-01T17:19:50Z</time></trkpt><trkpt lat="45.530886237268845" lon="9.068737038659444"><ele>153.0</ele><time>2026-05-01T17:19:51Z</time></trkpt><trkpt lat="45.53100847415571" lon="9.068764561087747"><ele>153.0</ele><time>2026-05-01T17:19:52Z</time></trkpt><trkpt lat="45.53114188027451" lon="9.068763436891198"><ele>153.0</ele><time>2026-05-01T17:19:53Z</time></trkpt><trkpt lat="45.531271680750976" lon="9.068778536688841"><ele>153.0</ele><time>2026-05-01T17:19:54Z</time></trkpt><trkpt lat="45.53139937215452" lon="9.068781533843811"><ele>153.25</ele><time>2026-05-01T17:19:55Z</time></trkpt><trkpt lat="45.531548016617435" lon="9.068826602303448"><ele>153.5</ele><time>2026-05-01T17:19:56Z</time></trkpt><trkpt lat="45.531691706415536" lon="9.068864041056882"><ele>153.75</ele><time>2026-05-01T17:19:57Z</time></trkpt><trkpt lat="45.53184060060262" lon="9.068900010167818"><ele>154.0</ele><time>2026-05-01T17:19:58Z</time></trkpt><trkpt lat="45.53198127658968" lon="9.0689274042123"><ele>154.25</ele><time>2026-05-01T17:19:59Z</time></trkpt><trkpt lat="45.53212424539133" lon="9.068970421411242"><ele>154.5</ele><time>2026-05-01T17:20:00Z</time></trkpt><trkpt lat="45.53223509167512" lon="9.068971209656485"><ele>154.75</ele><time>2026-05-01T17:20:01Z</time></trkpt><trkpt lat="45.53235146473319" lon="9.068993592649507"><ele>155.0</ele><time>2026-05-01T17:20:02Z</time></trkpt><trkpt lat="45.53246699670415" lon="9.069011891636073"><ele>155.0</ele><time>2026-05-01T17:20:03Z</time></trkpt><trkpt lat="45.532595866575846" lon="9.069042707883282"><ele>155.0</ele><time>2026-05-01T17:20:04Z</time></trkpt><trkpt lat="45.53272985170141" lon="9.069022239865719"><ele>155.0</ele><time>2026-05-01T17:20:05Z</time></trkpt><trkpt lat="45.532851511575146" lon="9.069035228263905"><ele>155.0</ele><time>2026-05-01T17:20:06Z</time></trkpt><trkpt lat="45.532966623284345" lon="9.069028420281397"><ele>155.0</ele><time>2026-05-01T17:20:07Z</time></trkpt><trkpt lat="45.53306768564496" lon="9.069022619094648"><ele>155.0</ele><time>2026-05-01T17:20:08Z</time></trkpt><trkpt lat="45.53315816207307" lon="9.06901203998324"><ele>155.0</ele><time>2026-05-01T17:20:09Z</time></trkpt><trkpt lat="45.533238097421794" lon="9.0690107359483"><ele>155.0</ele><time>2026-05-01T17:20:10Z</time></trkpt><trkpt lat="45.5333340184637" lon="9.0690072028127"><ele>155.0</ele><time>2026-05-01T17:20:12Z</time></trkpt><trkpt lat="45.533433656359755" lon="9.069033850483908"><ele>155.0</ele><time>2026-05-01T17:20:16Z</time></trkpt><trkpt lat="45.533556664983436" lon="9.06904551634723"><ele>155.0</ele><time>2026-05-01T17:20:18Z</time></trkpt><trkpt lat="45.53368917936327" lon="9.069032367739576"><ele>155.0</ele><time>2026-05-01T17:20:20Z</time></trkpt><trkpt lat="45.533775551520996" lon="9.06900137180281"><ele>155.0</ele><time>2026-05-01T17:20:21Z</time></trkpt><trkpt lat="45.533871501352586" lon="9.068992469049585"><ele>155.0</ele><time>2026-05-01T17:20:22Z</time></trkpt><trkpt lat="45.53397196688095" lon="9.068995510367298"><ele>154.75</ele><time>2026-05-01T17:20:23Z</time></trkpt><trkpt lat="45.53408720470327" lon="9.068992270929455"><ele>154.5</ele><time>2026-05-01T17:20:24Z</time></trkpt><trkpt lat="45.534213373949456" lon="9.06899029080059"><ele>154.25</ele><time>2026-05-01T17:20:25Z</time></trkpt><trkpt lat="45.5343575386109" lon="9.06898764349493"><ele>154.0</ele><time>2026-05-01T17:20:26Z</time></trkpt><trkpt lat="45.534487461456735" lon="9.068987560380297"><ele>154.5</ele><time>2026-05-01T17:20:27Z</time></trkpt><trkpt lat="45.5346118789911" lon="9.068983958217627"><ele>155.0</ele><time>2026-05-01T17:20:28Z</time></trkpt><trkpt lat="45.5347535200339" lon="9.068978588608886"><ele>155.5</ele><time>2026-05-01T17:20:29Z</time></trkpt><trkpt lat="45.53489959874367" lon="9.068972912107322"><ele>156.0</ele><time>2026-05-01T17:20:30Z</time></trkpt><trkpt lat="45.535048413378874" lon="9.06896530655411"><ele>156.0</ele><time>2026-05-01T17:20:31Z</time></trkpt><trkpt lat="45.53517367771764" lon="9.068963687536908"><ele>156.0</ele><time>2026-05-01T17:20:32Z</time></trkpt><trkpt lat="45.53528812921468" lon="9.068957862068471"><ele>156.0</ele><time>2026-05-01T17:20:33Z</time></trkpt><trkpt lat="45.535396870763314" lon="9.06896155277353"><ele>156.0</ele><time>2026-05-01T17:20:34Z</time></trkpt><trkpt lat="45.535499936235084" lon="9.068970521801015"><ele>156.0</ele><time>2026-05-01T17:20:35Z</time></trkpt><trkpt lat="45.53560750472823" lon="9.068984031187451"><ele>156.0</ele><time>2026-05-01T17:20:36Z</time></trkpt><trkpt lat="45.53570650249061" lon="9.068990045178438"><ele>156.0</ele><time>2026-05-01T17:20:37Z</time></trkpt><trkpt lat="45.53578468267237" lon="9.068997798505315"><ele>156.0</ele><time>2026-05-01T17:20:38Z</time></trkpt><trkpt lat="45.53587033713246" lon="9.069013298525391"><ele>156.0</ele><time>2026-05-01T17:20:39Z</time></trkpt><trkpt lat="45.53598649130137" lon="9.069014525620577"><ele>156.0</ele><time>2026-05-01T17:20:40Z</time></trkpt><trkpt lat="45.53611830692146" lon="9.06903735267334"><ele>156.0</ele><time>2026-05-01T17:20:41Z</time></trkpt><trkpt lat="45.53626884441336" lon="9.069044887604763"><ele>156.0</ele><time>2026-05-01T17:20:42Z</time></trkpt><trkpt lat="45.536419484092775" lon="9.069079546225424"><ele>156.0</ele><time>2026-05-01T17:20:43Z</time></trkpt><trkpt lat="45.53659573441818" lon="9.069114441790383"><ele>155.66666666666666</ele><time>2026-05-01T17:20:44Z</time></trkpt><trkpt lat="45.53682125169969" lon="9.069142893904958"><ele>155.33333333333331</ele><time>2026-05-01T17:20:45Z</time></trkpt><trkpt lat="45.537021855220665" lon="9.069146453499016"><ele>155.0</ele><time>2026-05-01T17:20:46Z</time></trkpt><trkpt lat="45.53718703959591" lon="9.069150115977436"><ele>155.0</ele><time>2026-05-01T17:20:47Z</time></trkpt><trkpt lat="45.537340122105626" lon="9.069156486056267"><ele>155.0</ele><time>2026-05-01T17:20:48Z</time></trkpt><trkpt lat="45.537477400066464" lon="9.069161919226609"><ele>155.0</ele><time>2026-05-01T17:20:49Z</time></trkpt><trkpt lat="45.53758172701854" lon="9.069139198641908"><ele>155.0</ele><time>2026-05-01T17:20:50Z</time></trkpt><trkpt lat="45.5376736495647" lon="9.069136506701366"><ele>155.0</ele><time>2026-05-01T17:20:51Z</time></trkpt><trkpt lat="45.53777594976921" lon="9.06912700082364"><ele>155.0</ele><time>2026-05-01T17:20:52Z</time></trkpt><trkpt lat="45.537908046036335" lon="9.069124404602968"><ele>155.0</ele><time>2026-05-01T17:20:53Z</time></trkpt><trkpt lat="45.53806768519501" lon="9.069113422706005"><ele>155.0</ele><time>2026-05-01T17:20:54Z</time></trkpt><trkpt lat="45.53825554060692" lon="9.069104210024662"><ele>155.66666666666666</ele><time>2026-05-01T17:20:55Z</time></trkpt><trkpt lat="45.53847285271104" lon="9.06909023546968"><ele>156.33333333333334</ele><time>2026-05-01T17:20:56Z</time></trkpt><trkpt lat="45.53866579756489" lon="9.069072567542309"><ele>157.0</ele><time>2026-05-01T17:20:57Z</time></trkpt><trkpt lat="45.53883289631238" lon="9.069075707567025"><ele>157.33333333333334</ele><time>2026-05-01T17:20:58Z</time></trkpt><trkpt lat="45.53899596970451" lon="9.069087371082997"><ele>157.66666666666666</ele><time>2026-05-01T17:20:59Z</time></trkpt><trkpt lat="45.53914873091099" lon="9.06910049737554"><ele>158.0</ele><time>2026-05-01T17:21:00Z</time></trkpt><trkpt lat="45.539322352797534" lon="9.069137481267889"><ele>158.0</ele><time>2026-05-01T17:21:01Z</time></trkpt><trkpt lat="45.539490906816006" lon="9.069172156472666"><ele>158.0</ele><time>2026-05-01T17:21:02Z</time></trkpt><trkpt lat="45.53963020699374" lon="9.069209860721713"><ele>158.0</ele><time>2026-05-01T17:21:03Z</time></trkpt><trkpt lat="45.53978372309833" lon="9.069194358698175"><ele>158.0</ele><time>2026-05-01T17:21:04Z</time></trkpt><trkpt lat="45.53990455891375" lon="9.069165364019218"><ele>158.0</ele><time>2026-05-01T17:21:05Z</time></trkpt><trkpt lat="45.54002792818534" lon="9.069096723848688"><ele>158.0</ele><time>2026-05-01T17:21:06Z</time></trkpt><trkpt lat="45.54014182718012" lon="9.069018083451422"><ele>158.0</ele><time>2026-05-01T17:21:07Z</time></trkpt><trkpt lat="45.54023609248221" lon="9.068861976177645"><ele>158.0</ele><time>2026-05-01T17:21:08Z</time></trkpt><trkpt lat="45.54034583820375" lon="9.068719328974627"><ele>158.0</ele><time>2026-05-01T17:21:09Z</time></trkpt><trkpt lat="45.540459467024455" lon="9.068573994458974"><ele>158.0</ele><time>2026-05-01T17:21:10Z</time></trkpt><trkpt lat="45.54055903140769" lon="9.06843451434103"><ele>158.0</ele><time>2026-05-01T17:21:11Z</time></trkpt><trkpt lat="45.54065258716156" lon="9.06831987193761"><ele>158.25</ele><time>2026-05-01T17:21:12Z</time></trkpt><trkpt lat="45.54075943408671" lon="9.068235951984748"><ele>158.5</ele><time>2026-05-01T17:21:13Z</time></trkpt><trkpt lat="45.54088182443271" lon="9.068171236802355"><ele>158.75</ele><time>2026-05-01T17:21:14Z</time></trkpt><trkpt lat="45.54100968345923" lon="9.068122309787572"><ele>159.0</ele><time>2026-05-01T17:21:15Z</time></trkpt><trkpt lat="45.541133370516405" lon="9.068073112034359"><ele>159.25</ele><time>2026-05-01T17:21:16Z</time></trkpt><trkpt lat="45.54127143043698" lon="9.068070879745662"><ele>159.5</ele><time>2026-05-01T17:21:17Z</time></trkpt><trkpt lat="45.541439771173934" lon="9.068016644519522"><ele>159.75</ele><time>2026-05-01T17:21:18Z</time></trkpt><trkpt lat="45.54157709674703" lon="9.068013109939855"><ele>160.0</ele><time>2026-05-01T17:21:19Z</time></trkpt><trkpt lat="45.54167660881339" lon="9.068025905803186"><ele>160.0</ele><time>2026-05-01T17:21:20Z</time></trkpt><trkpt lat="45.54176881293599" lon="9.068043687324733"><ele>160.0</ele><time>2026-05-01T17:21:21Z</time></trkpt><trkpt lat="45.54185933553497" lon="9.068064381283525"><ele>160.0</ele><time>2026-05-01T17:21:22Z</time></trkpt><trkpt lat="45.541999352208904" lon="9.068167687974968"><ele>160.0</ele><time>2026-05-01T17:21:23Z</time></trkpt><trkpt lat="45.54224090107679" lon="9.068287075009444"><ele>159.0</ele><time>2026-05-01T17:21:24Z</time></trkpt><trkpt lat="45.54249522999527" lon="9.068370051773075"><ele>158.0</ele><time>2026-05-01T17:21:25Z</time></trkpt><trkpt lat="45.54270178962056" lon="9.068468503325892"><ele>158.33333333333331</ele><time>2026-05-01T17:21:26Z</time></trkpt><trkpt lat="45.54288980245143" lon="9.068501693202906"><ele>158.66666666666666</ele><time>2026-05-01T17:21:27Z</time></trkpt><trkpt lat="45.54306139498868" lon="9.068507676823778"><ele>159.0</ele><time>2026-05-01T17:21:28Z</time></trkpt><trkpt lat="45.54319909879606" lon="9.068535418092107"><ele>159.0</ele><time>2026-05-01T17:21:29Z</time></trkpt><trkpt lat="45.54331233417381" lon="9.068583995397205"><ele>159.0</ele><time>2026-05-01T17:21:30Z</time></trkpt><trkpt lat="45.54339666147929" lon="9.068678836175046"><ele>159.0</ele><time>2026-05-01T17:21:31Z</time></trkpt><trkpt lat="45.543480362731856" lon="9.068741932636316"><ele>159.0</ele><time>2026-05-01T17:21:32Z</time></trkpt><trkpt lat="45.54356369164894" lon="9.068834689459372"><ele>159.0</ele><time>2026-05-01T17:21:33Z</time></trkpt><trkpt lat="45.54366464339517" lon="9.06897078504401"><ele>159.0</ele><time>2026-05-01T17:21:34Z</time></trkpt><trkpt lat="45.54377809960563" lon="9.069089645040814"><ele>159.0</ele><time>2026-05-01T17:21:35Z</time></trkpt><trkpt lat="45.54387427904366" lon="9.0691922207265"><ele>159.0</ele><time>2026-05-01T17:21:36Z</time></trkpt><trkpt lat="45.543975242219275" lon="9.06929211487038"><ele>159.0</ele><time>2026-05-01T17:21:37Z</time></trkpt><trkpt lat="45.54407835352843" lon="9.069405895570705"><ele>160.0</ele><time>2026-05-01T17:21:38Z</time></trkpt><trkpt lat="45.54418260580252" lon="9.069525745659686"><ele>161.0</ele><time>2026-05-01T17:21:39Z</time></trkpt><trkpt lat="45.54429642005349" lon="9.069640389614674"><ele>162.0</ele><time>2026-05-01T17:21:40Z</time></trkpt><trkpt lat="45.544393031507816" lon="9.069743700371122"><ele>163.0</ele><time>2026-05-01T17:21:41Z</time></trkpt><trkpt lat="45.54448154054215" lon="9.069846594032144"><ele>162.0</ele><time>2026-05-01T17:21:42Z</time></trkpt><trkpt lat="45.544566707050144" lon="9.0699390478928"><ele>161.0</ele><time>2026-05-01T17:21:43Z</time></trkpt><trkpt lat="45.544657603530794" lon="9.070035497311311"><ele>160.0</ele><time>2026-05-01T17:21:44Z</time></trkpt><trkpt lat="45.544745126173936" lon="9.070134312303912"><ele>159.0</ele><time>2026-05-01T17:21:45Z</time></trkpt><trkpt lat="45.54481737413832" lon="9.070225662971868"><ele>158.0</ele><time>2026-05-01T17:21:46Z</time></trkpt><trkpt lat="45.544868744371655" lon="9.070325366195787"><ele>158.0</ele><time>2026-05-01T17:21:47Z</time></trkpt><trkpt lat="45.54490072648668" lon="9.070432318644809"><ele>158.0</ele><time>2026-05-01T17:21:48Z</time></trkpt><trkpt lat="45.544907521972995" lon="9.070550037134955"><ele>158.0</ele><time>2026-05-01T17:21:49Z</time></trkpt><trkpt lat="45.54490687962796" lon="9.070673032901968"><ele>158.0</ele><time>2026-05-01T17:21:50Z</time></trkpt><trkpt lat="45.54489926908726" lon="9.070817346315593"><ele>158.0</ele><time>2026-05-01T17:21:51Z</time></trkpt><trkpt lat="45.544898818539046" lon="9.070962243737542"><ele>158.0</ele><time>2026-05-01T17:21:52Z</time></trkpt><trkpt lat="45.54490829547255" lon="9.071092223241136"><ele>158.0</ele><time>2026-05-01T17:21:53Z</time></trkpt><trkpt lat="45.544919074966636" lon="9.07120698872257"><ele>158.0</ele><time>2026-05-01T17:21:54Z</time></trkpt><trkpt lat="45.54494567768283" lon="9.071325031267031"><ele>158.0</ele><time>2026-05-01T17:21:55Z</time></trkpt><trkpt lat="45.54498992425473" lon="9.071433731753583"><ele>158.0</ele><time>2026-05-01T17:21:56Z</time></trkpt><trkpt lat="45.54505579081931" lon="9.071524787108677"><ele>158.0</ele><time>2026-05-01T17:21:57Z</time></trkpt><trkpt lat="45.545142789544585" lon="9.07160070084388"><ele>158.0</ele><time>2026-05-01T17:21:58Z</time></trkpt><trkpt lat="45.54524480796819" lon="9.071667030071232"><ele>158.0</ele><time>2026-05-01T17:21:59Z</time></trkpt><trkpt lat="45.54534602417875" lon="9.071744862855644"><ele>158.0</ele><time>2026-05-01T17:22:00Z</time></trkpt><trkpt lat="45.545442827815044" lon="9.071811917744688"><ele>158.0</ele><time>2026-05-01T17:22:01Z</time></trkpt><trkpt lat="45.54551565226291" lon="9.071873417560584"><ele>158.0</ele><time>2026-05-01T17:22:02Z</time></trkpt><trkpt lat="45.54557630478331" lon="9.071935901220778"><ele>158.20000000000002</ele><time>2026-05-01T17:22:03Z</time></trkpt><trkpt lat="45.54563011075894" lon="9.071995526757442"><ele>158.4</ele><time>2026-05-01T17:22:04Z</time></trkpt><trkpt lat="45.545727552346776" lon="9.072089938463503"><ele>158.60000000000002</ele><time>2026-05-01T17:22:06Z</time></trkpt><trkpt lat="45.54584441642401" lon="9.072118655631549"><ele>158.8</ele><time>2026-05-01T17:22:08Z</time></trkpt><trkpt lat="45.545905009752694" lon="9.072066410088262"><ele>159.0</ele><time>2026-05-01T17:22:09Z</time></trkpt><trkpt lat="45.54594462285762" lon="9.071959790090945"><ele>159.0</ele><time>2026-05-01T17:22:10Z</time></trkpt><trkpt lat="45.545998093030725" lon="9.071904196816362"><ele>159.0</ele><time>2026-05-01T17:22:11Z</time></trkpt><trkpt lat="45.54608071949485" lon="9.071856635160206"><ele>159.0</ele><time>2026-05-01T17:22:12Z</time></trkpt><trkpt lat="45.54616248429132" lon="9.071829568930148"><ele>159.0</ele><time>2026-05-01T17:22:13Z</time></trkpt><trkpt lat="45.546263268151606" lon="9.071820299965335"><ele>159.0</ele><time>2026-05-01T17:22:14Z</time></trkpt><trkpt lat="45.546408327538096" lon="9.071796289486239"><ele>158.5</ele><time>2026-05-01T17:22:15Z</time></trkpt><trkpt lat="45.54656518695283" lon="9.071785377297825"><ele>158.0</ele><time>2026-05-01T17:22:16Z</time></trkpt><trkpt lat="45.54667682625208" lon="9.071759066102159"><ele>157.5</ele><time>2026-05-01T17:22:17Z</time></trkpt><trkpt lat="45.546782125174886" lon="9.071748468001164"><ele>157.0</ele><time>2026-05-01T17:22:18Z</time></trkpt><trkpt lat="45.54688386332741" lon="9.071738821211554"><ele>157.0</ele><time>2026-05-01T17:22:19Z</time></trkpt><trkpt lat="45.54699205543119" lon="9.07172211121676"><ele>157.0</ele><time>2026-05-01T17:22:20Z</time></trkpt><trkpt lat="45.54709976624595" lon="9.071703295062207"><ele>157.0</ele><time>2026-05-01T17:22:21Z</time></trkpt><trkpt lat="45.54720769948143" lon="9.071684638140596"><ele>157.0</ele><time>2026-05-01T17:22:22Z</time></trkpt><trkpt lat="45.54730984961627" lon="9.071668355620645"><ele>157.0</ele><time>2026-05-01T17:22:23Z</time></trkpt><trkpt lat="45.547416077282975" lon="9.071651558366915"><ele>157.5</ele><time>2026-05-01T17:22:24Z</time></trkpt><trkpt lat="45.54753293939884" lon="9.071627879195546"><ele>158.0</ele><time>2026-05-01T17:22:25Z</time></trkpt><trkpt lat="45.5476488851401" lon="9.071603580410361"><ele>158.5</ele><time>2026-05-01T17:22:26Z</time></trkpt><trkpt lat="45.54776304338042" lon="9.071580837176988"><ele>159.0</ele><time>2026-05-01T17:22:27Z</time></trkpt><trkpt lat="45.5478915810268" lon="9.071551122346717"><ele>160.0</ele><time>2026-05-01T17:22:28Z</time></trkpt><trkpt lat="45.548020991520616" lon="9.07152146883901"><ele>161.0</ele><time>2026-05-01T17:22:29Z</time></trkpt><trkpt lat="45.54814320297334" lon="9.071506940563953"><ele>162.0</ele><time>2026-05-01T17:22:30Z</time></trkpt><trkpt lat="45.54825456398689" lon="9.07148633051384"><ele>163.0</ele><time>2026-05-01T17:22:31Z</time></trkpt><trkpt lat="45.54837212702511" lon="9.071461052417714"><ele>163.0</ele><time>2026-05-01T17:22:32Z</time></trkpt><trkpt lat="45.5484814764266" lon="9.071441055492235"><ele>163.0</ele><time>2026-05-01T17:22:33Z</time></trkpt><trkpt lat="45.54857206769945" lon="9.071425495643645"><ele>163.0</ele><time>2026-05-01T17:22:34Z</time></trkpt><trkpt lat="45.54865996942362" lon="9.07140219849164"><ele>163.0</ele><time>2026-05-01T17:22:35Z</time></trkpt><trkpt lat="45.54875913299079" lon="9.071383578542545"><ele>163.0</ele><time>2026-05-01T17:22:36Z</time></trkpt><trkpt lat="45.54883765651468" lon="9.0713670312083"><ele>162.66666666666669</ele><time>2026-05-01T17:22:37Z</time></trkpt><trkpt lat="45.54894753770767" lon="9.071381664036133"><ele>162.33333333333334</ele><time>2026-05-01T17:22:39Z</time></trkpt><trkpt lat="45.549009862265365" lon="9.071404452283787"><ele>162.0</ele><time>2026-05-01T17:22:40Z</time></trkpt><trkpt lat="45.549073947299256" lon="9.071421461226748"><ele>161.66666666666666</ele><time>2026-05-01T17:22:41Z</time></trkpt><trkpt lat="45.549137352130955" lon="9.071425713926752"><ele>161.33333333333331</ele><time>2026-05-01T17:22:42Z</time></trkpt><trkpt lat="45.549237758761855" lon="9.071349624440264"><ele>161.0</ele><time>2026-05-01T17:22:44Z</time></trkpt><trkpt lat="45.54918730186436" lon="9.071153674753957"><ele>161.0</ele><time>2026-05-01T17:22:46Z</time></trkpt><trkpt lat="45.54911986268027" lon="9.071116042773347"><ele>161.0</ele><time>2026-05-01T17:22:47Z</time></trkpt><trkpt lat="45.54904909404272" lon="9.071138025921258"><ele>161.0</ele><time>2026-05-01T17:22:48Z</time></trkpt><trkpt lat="45.548982718337555" lon="9.071203942923445"><ele>161.0</ele><time>2026-05-01T17:22:49Z</time></trkpt><trkpt lat="45.548898139930266" lon="9.071275328040908"><ele>161.0</ele><time>2026-05-01T17:22:50Z</time></trkpt><trkpt lat="45.548794761898755" lon="9.07130718826632"><ele>161.0</ele><time>2026-05-01T17:22:51Z</time></trkpt><trkpt lat="45.548649425861846" lon="9.071350962373538"><ele>161.66666666666666</ele><time>2026-05-01T17:22:52Z</time></trkpt><trkpt lat="45.548457430069156" lon="9.071373856078058"><ele>162.33333333333334</ele><time>2026-05-01T17:22:53Z</time></trkpt><trkpt lat="45.54822940410909" lon="9.071427826865483"><ele>163.0</ele><time>2026-05-01T17:22:54Z</time></trkpt><trkpt lat="45.54800854102383" lon="9.07146576188526"><ele>162.66666666666669</ele><time>2026-05-01T17:22:55Z</time></trkpt><trkpt lat="45.54783428872714" lon="9.071492530756778"><ele>162.33333333333334</ele><time>2026-05-01T17:22:56Z</time></trkpt><trkpt lat="45.54768026837512" lon="9.07152304255512"><ele>162.0</ele><time>2026-05-01T17:22:57Z</time></trkpt><trkpt lat="45.54754005594588" lon="9.07155896638962"><ele>162.0</ele><time>2026-05-01T17:22:58Z</time></trkpt><trkpt lat="45.5474240552475" lon="9.071585175833548"><ele>162.0</ele><time>2026-05-01T17:22:59Z</time></trkpt><trkpt lat="45.547291390339815" lon="9.071616058071593"><ele>162.0</ele><time>2026-05-01T17:23:00Z</time></trkpt><trkpt lat="45.54714518150164" lon="9.071644195990476"><ele>162.0</ele><time>2026-05-01T17:23:01Z</time></trkpt><trkpt lat="45.54697927102742" lon="9.071655198866324"><ele>160.75</ele><time>2026-05-01T17:23:02Z</time></trkpt><trkpt lat="45.54681115162219" lon="9.07168668819982"><ele>159.5</ele><time>2026-05-01T17:23:03Z</time></trkpt><trkpt lat="45.54665691693971" lon="9.07173098845964"><ele>158.25</ele><time>2026-05-01T17:23:04Z</time></trkpt><trkpt lat="45.5465534814182" lon="9.071736759474165"><ele>157.0</ele><time>2026-05-01T17:23:05Z</time></trkpt><trkpt lat="45.54646068231149" lon="9.07175060789392"><ele>157.0</ele><time>2026-05-01T17:23:06Z</time></trkpt><trkpt lat="45.546386261422064" lon="9.071754795053412"><ele>157.0</ele><time>2026-05-01T17:23:07Z</time></trkpt><trkpt lat="45.54631332538236" lon="9.071769798619608"><ele>157.0</ele><time>2026-05-01T17:23:08Z</time></trkpt><trkpt lat="45.546212744358904" lon="9.071760075420746"><ele>157.0</ele><time>2026-05-01T17:23:10Z</time></trkpt><trkpt lat="45.5462255564419" lon="9.071614411545792"><ele>157.0</ele><time>2026-05-01T17:23:12Z</time></trkpt><trkpt lat="45.546203657530846" lon="9.071446078757775"><ele>157.33333333333334</ele><time>2026-05-01T17:23:14Z</time></trkpt><trkpt lat="45.54619506597843" lon="9.07130334449096"><ele>157.66666666666669</ele><time>2026-05-01T17:23:16Z</time></trkpt><trkpt lat="45.54621542757713" lon="9.071214030518359"><ele>158.0</ele><time>2026-05-01T17:23:19Z</time></trkpt><trkpt lat="45.54631966885482" lon="9.071261798129841"><ele>158.33333333333334</ele><time>2026-05-01T17:23:20Z</time></trkpt><trkpt lat="45.54640011328887" lon="9.07125328012571"><ele>158.66666666666666</ele><time>2026-05-01T17:23:21Z</time></trkpt><trkpt lat="45.54647488687672" lon="9.07124536259177"><ele>159.0</ele><time>2026-05-01T17:23:22Z</time></trkpt><trkpt lat="45.546568234207115" lon="9.071221199749006"><ele>159.0</ele><time>2026-05-01T17:23:24Z</time></trkpt><trkpt lat="45.54665061106243" lon="9.071221124444595"><ele>159.0</ele><time>2026-05-01T17:23:26Z</time></trkpt><trkpt lat="45.54661540809278" lon="9.071303658274417"><ele>159.0</ele><time>2026-05-01T17:32:22Z</time></trkpt><trkpt lat="45.54667898580147" lon="9.0713701232459"><ele>159.0</ele><time>2026-05-01T17:58:45Z</time></trkpt></trkseg></trk></gpx>